<?xml version="1.0" encoding="UTF-8" standalone="no" ?>
<gpx xmlns="http://www.topografix.com/GPX/1/1" xmlns:xsi="http://www.w3.org/2001/XMLSchema-instance" xsi:schemaLocation="http://www.topografix.com/GPX/1/1 http://www.topografix.com/GPX/1/1/gpx.xsd" version="1.1" creator="VisuGPX - https://www.visugpx.com">
  <metadata>
    <name>rando du lundi</name>
    <desc><![CDATA[Rando du lundi 1er avril]]></desc>
  </metadata>
  <trk>
    <name><![CDATA[Pont au Change]]></name>
    <desc><![CDATA[]]></desc>
    <trkseg>
      <trkpt lat="48.85693" lon="2.34676">
        <ele>92.5</ele>
        <time>2013-04-01T18:21:43.804Z</time>
      </trkpt>
      <trkpt lat="48.85689" lon="2.34673">
        <ele>92.5</ele>
        <time>2013-04-01T18:21:45.109Z</time>
      </trkpt>
      <trkpt lat="48.85689" lon="2.34672">
        <ele>87.4</ele>
        <time>2013-04-01T18:21:44.534Z</time>
      </trkpt>
      <trkpt lat="48.85686" lon="2.3467">
        <ele>90.6</ele>
        <time>2013-04-01T18:21:45.534Z</time>
      </trkpt>
      <trkpt lat="48.85681" lon="2.34667">
        <ele>90.8</ele>
        <time>2013-04-01T18:21:46.000Z</time>
      </trkpt>
      <trkpt lat="48.85677" lon="2.34662">
        <ele>90.2</ele>
        <time>2013-04-01T18:21:48.000Z</time>
      </trkpt>
      <trkpt lat="48.85676" lon="2.34663">
        <ele>87.3</ele>
        <time>2013-04-01T18:21:49.000Z</time>
      </trkpt>
      <trkpt lat="48.85673" lon="2.34663">
        <ele>85.8</ele>
        <time>2013-04-01T18:21:50.000Z</time>
      </trkpt>
      <trkpt lat="48.85671" lon="2.34661">
        <ele>85.4</ele>
        <time>2013-04-01T18:21:51.000Z</time>
      </trkpt>
      <trkpt lat="48.85667" lon="2.34661">
        <ele>86</ele>
        <time>2013-04-01T18:21:52.000Z</time>
      </trkpt>
      <trkpt lat="48.85665" lon="2.34658">
        <ele>85.8</ele>
        <time>2013-04-01T18:21:53.000Z</time>
      </trkpt>
      <trkpt lat="48.85662" lon="2.34656">
        <ele>85.7</ele>
        <time>2013-04-01T18:21:54.000Z</time>
      </trkpt>
      <trkpt lat="48.85659" lon="2.34655">
        <ele>85.4</ele>
        <time>2013-04-01T18:21:55.000Z</time>
      </trkpt>
      <trkpt lat="48.85656" lon="2.34652">
        <ele>83.9</ele>
        <time>2013-04-01T18:21:56.000Z</time>
      </trkpt>
      <trkpt lat="48.85652" lon="2.34651">
        <ele>83.7</ele>
        <time>2013-04-01T18:21:57.000Z</time>
      </trkpt>
      <trkpt lat="48.85649" lon="2.3465">
        <ele>83.9</ele>
        <time>2013-04-01T18:21:58.000Z</time>
      </trkpt>
      <trkpt lat="48.85646" lon="2.34648">
        <ele>83.6</ele>
        <time>2013-04-01T18:21:59.000Z</time>
      </trkpt>
      <trkpt lat="48.85643" lon="2.34647">
        <ele>83.8</ele>
        <time>2013-04-01T18:22:00.000Z</time>
      </trkpt>
      <trkpt lat="48.8564" lon="2.34645">
        <ele>83.1</ele>
        <time>2013-04-01T18:22:01.000Z</time>
      </trkpt>
      <trkpt lat="48.85638" lon="2.34643">
        <ele>83.1</ele>
        <time>2013-04-01T18:22:02.000Z</time>
      </trkpt>
      <trkpt lat="48.85635" lon="2.34641">
        <ele>81.7</ele>
        <time>2013-04-01T18:22:03.000Z</time>
      </trkpt>
      <trkpt lat="48.85633" lon="2.34638">
        <ele>82.7</ele>
        <time>2013-04-01T18:22:04.000Z</time>
      </trkpt>
      <trkpt lat="48.85631" lon="2.34636">
        <ele>81.5</ele>
        <time>2013-04-01T18:22:05.000Z</time>
      </trkpt>
      <trkpt lat="48.85628" lon="2.34635">
        <ele>80.8</ele>
        <time>2013-04-01T18:22:06.000Z</time>
      </trkpt>
      <trkpt lat="48.85625" lon="2.34635">
        <ele>79.9</ele>
        <time>2013-04-01T18:22:07.000Z</time>
      </trkpt>
      <trkpt lat="48.85623" lon="2.34634">
        <ele>79.7</ele>
        <time>2013-04-01T18:22:08.000Z</time>
      </trkpt>
      <trkpt lat="48.85618" lon="2.34634">
        <ele>78.7</ele>
        <time>2013-04-01T18:22:09.000Z</time>
      </trkpt>
      <trkpt lat="48.85615" lon="2.34632">
        <ele>78.5</ele>
        <time>2013-04-01T18:22:10.000Z</time>
      </trkpt>
      <trkpt lat="48.8561" lon="2.3463">
        <ele>78.7</ele>
        <time>2013-04-01T18:22:11.000Z</time>
      </trkpt>
      <trkpt lat="48.85606" lon="2.34628">
        <ele>79.2</ele>
        <time>2013-04-01T18:22:12.000Z</time>
      </trkpt>
      <trkpt lat="48.85601" lon="2.34626">
        <ele>79.4</ele>
        <time>2013-04-01T18:22:13.000Z</time>
      </trkpt>
      <trkpt lat="48.85596" lon="2.34624">
        <ele>79.5</ele>
        <time>2013-04-01T18:22:14.000Z</time>
      </trkpt>
      <trkpt lat="48.85589" lon="2.34623">
        <ele>79.3</ele>
        <time>2013-04-01T18:22:15.000Z</time>
      </trkpt>
      <trkpt lat="48.85584" lon="2.3462">
        <ele>79.8</ele>
        <time>2013-04-01T18:22:16.000Z</time>
      </trkpt>
      <trkpt lat="48.85579" lon="2.34619">
        <ele>80.3</ele>
        <time>2013-04-01T18:22:17.000Z</time>
      </trkpt>
      <trkpt lat="48.85574" lon="2.34614">
        <ele>80.3</ele>
        <time>2013-04-01T18:22:18.000Z</time>
      </trkpt>
      <trkpt lat="48.85571" lon="2.34608">
        <ele>80.7</ele>
        <time>2013-04-01T18:22:19.000Z</time>
      </trkpt>
      <trkpt lat="48.85567" lon="2.34606">
        <ele>80.9</ele>
        <time>2013-04-01T18:22:20.000Z</time>
      </trkpt>
      <trkpt lat="48.85562" lon="2.34602">
        <ele>80.7</ele>
        <time>2013-04-01T18:22:21.000Z</time>
      </trkpt>
      <trkpt lat="48.85559" lon="2.34599">
        <ele>80.6</ele>
        <time>2013-04-01T18:22:22.000Z</time>
      </trkpt>
      <trkpt lat="48.85554" lon="2.34595">
        <ele>81</ele>
        <time>2013-04-01T18:22:23.000Z</time>
      </trkpt>
      <trkpt lat="48.85548" lon="2.34594">
        <ele>80.7</ele>
        <time>2013-04-01T18:22:24.000Z</time>
      </trkpt>
      <trkpt lat="48.85543" lon="2.34593">
        <ele>78.7</ele>
        <time>2013-04-01T18:22:25.000Z</time>
      </trkpt>
      <trkpt lat="48.85538" lon="2.34589">
        <ele>78.4</ele>
        <time>2013-04-01T18:22:26.000Z</time>
      </trkpt>
      <trkpt lat="48.85534" lon="2.34586">
        <ele>77.2</ele>
        <time>2013-04-01T18:22:27.000Z</time>
      </trkpt>
      <trkpt lat="48.8553" lon="2.34582">
        <ele>76.2</ele>
        <time>2013-04-01T18:22:28.000Z</time>
      </trkpt>
      <trkpt lat="48.85526" lon="2.3458">
        <ele>75.7</ele>
        <time>2013-04-01T18:22:29.000Z</time>
      </trkpt>
      <trkpt lat="48.85523" lon="2.34576">
        <ele>75.4</ele>
        <time>2013-04-01T18:22:30.000Z</time>
      </trkpt>
      <trkpt lat="48.85519" lon="2.34573">
        <ele>75.6</ele>
        <time>2013-04-01T18:22:31.000Z</time>
      </trkpt>
      <trkpt lat="48.85515" lon="2.3457">
        <ele>75.8</ele>
        <time>2013-04-01T18:22:32.000Z</time>
      </trkpt>
      <trkpt lat="48.85513" lon="2.34568">
        <ele>75.9</ele>
        <time>2013-04-01T18:22:33.000Z</time>
      </trkpt>
      <trkpt lat="48.85509" lon="2.34565">
        <ele>77.9</ele>
        <time>2013-04-01T18:22:34.000Z</time>
      </trkpt>
      <trkpt lat="48.85505" lon="2.34561">
        <ele>77.3</ele>
        <time>2013-04-01T18:22:35.000Z</time>
      </trkpt>
      <trkpt lat="48.855" lon="2.34557">
        <ele>77</ele>
        <time>2013-04-01T18:22:36.000Z</time>
      </trkpt>
      <trkpt lat="48.85494" lon="2.34551">
        <ele>76.4</ele>
        <time>2013-04-01T18:22:37.000Z</time>
      </trkpt>
      <trkpt lat="48.85491" lon="2.34547">
        <ele>76.5</ele>
        <time>2013-04-01T18:22:38.000Z</time>
      </trkpt>
      <trkpt lat="48.85485" lon="2.34543">
        <ele>76.6</ele>
        <time>2013-04-01T18:22:39.000Z</time>
      </trkpt>
      <trkpt lat="48.85481" lon="2.34538">
        <ele>76.9</ele>
        <time>2013-04-01T18:22:40.000Z</time>
      </trkpt>
      <trkpt lat="48.85474" lon="2.34533">
        <ele>76.9</ele>
        <time>2013-04-01T18:22:41.000Z</time>
      </trkpt>
      <trkpt lat="48.85468" lon="2.3453">
        <ele>76.8</ele>
        <time>2013-04-01T18:22:42.000Z</time>
      </trkpt>
      <trkpt lat="48.85464" lon="2.34526">
        <ele>76.6</ele>
        <time>2013-04-01T18:22:43.000Z</time>
      </trkpt>
      <trkpt lat="48.85465" lon="2.34521">
        <ele>78.3</ele>
        <time>2013-04-01T18:22:44.000Z</time>
      </trkpt>
      <trkpt lat="48.85461" lon="2.34519">
        <ele>79.1</ele>
        <time>2013-04-01T18:22:45.000Z</time>
      </trkpt>
      <trkpt lat="48.85457" lon="2.34516">
        <ele>79.2</ele>
        <time>2013-04-01T18:22:46.000Z</time>
      </trkpt>
      <trkpt lat="48.85452" lon="2.34512">
        <ele>79.1</ele>
        <time>2013-04-01T18:22:47.000Z</time>
      </trkpt>
      <trkpt lat="48.85448" lon="2.34509">
        <ele>78.8</ele>
        <time>2013-04-01T18:22:48.000Z</time>
      </trkpt>
      <trkpt lat="48.85443" lon="2.34508">
        <ele>78.3</ele>
        <time>2013-04-01T18:22:49.000Z</time>
      </trkpt>
      <trkpt lat="48.85441" lon="2.34504">
        <ele>78.3</ele>
        <time>2013-04-01T18:22:50.000Z</time>
      </trkpt>
      <trkpt lat="48.8544" lon="2.34492">
        <ele>78.2</ele>
        <time>2013-04-01T18:22:51.000Z</time>
      </trkpt>
      <trkpt lat="48.85436" lon="2.34483">
        <ele>78.3</ele>
        <time>2013-04-01T18:22:52.000Z</time>
      </trkpt>
      <trkpt lat="48.85435" lon="2.34478">
        <ele>78</ele>
        <time>2013-04-01T18:22:53.000Z</time>
      </trkpt>
      <trkpt lat="48.85431" lon="2.34469">
        <ele>78.5</ele>
        <time>2013-04-01T18:22:54.000Z</time>
      </trkpt>
      <trkpt lat="48.85434" lon="2.34478">
        <ele>77.2</ele>
        <time>2013-04-01T18:22:55.000Z</time>
      </trkpt>
      <trkpt lat="48.85433" lon="2.34484">
        <ele>76.1</ele>
        <time>2013-04-01T18:23:10.000Z</time>
      </trkpt>
      <trkpt lat="48.85433" lon="2.34485">
        <ele>76</ele>
        <time>2013-04-01T18:23:11.000Z</time>
      </trkpt>
      <trkpt lat="48.85432" lon="2.34491">
        <ele>76.3</ele>
        <time>2013-04-01T18:23:16.000Z</time>
      </trkpt>
      <trkpt lat="48.85431" lon="2.34497">
        <ele>76.9</ele>
        <time>2013-04-01T18:23:17.000Z</time>
      </trkpt>
      <trkpt lat="48.85429" lon="2.34502">
        <ele>76.8</ele>
        <time>2013-04-01T18:23:18.000Z</time>
      </trkpt>
      <trkpt lat="48.85427" lon="2.34508">
        <ele>76.7</ele>
        <time>2013-04-01T18:23:19.000Z</time>
      </trkpt>
      <trkpt lat="48.85426" lon="2.34514">
        <ele>75.5</ele>
        <time>2013-04-01T18:23:20.000Z</time>
      </trkpt>
      <trkpt lat="48.85424" lon="2.34519">
        <ele>74.8</ele>
        <time>2013-04-01T18:23:21.000Z</time>
      </trkpt>
      <trkpt lat="48.85422" lon="2.34524">
        <ele>74.4</ele>
        <time>2013-04-01T18:23:22.000Z</time>
      </trkpt>
      <trkpt lat="48.85421" lon="2.34529">
        <ele>74.3</ele>
        <time>2013-04-01T18:23:23.000Z</time>
      </trkpt>
      <trkpt lat="48.85419" lon="2.34535">
        <ele>74.7</ele>
        <time>2013-04-01T18:23:24.000Z</time>
      </trkpt>
      <trkpt lat="48.85417" lon="2.34541">
        <ele>75.1</ele>
        <time>2013-04-01T18:23:25.000Z</time>
      </trkpt>
      <trkpt lat="48.85415" lon="2.34546">
        <ele>73.3</ele>
        <time>2013-04-01T18:23:26.000Z</time>
      </trkpt>
      <trkpt lat="48.85413" lon="2.34551">
        <ele>73.6</ele>
        <time>2013-04-01T18:23:27.000Z</time>
      </trkpt>
      <trkpt lat="48.85411" lon="2.34557">
        <ele>73.5</ele>
        <time>2013-04-01T18:23:28.000Z</time>
      </trkpt>
      <trkpt lat="48.85409" lon="2.34562">
        <ele>73.7</ele>
        <time>2013-04-01T18:23:29.000Z</time>
      </trkpt>
      <trkpt lat="48.85407" lon="2.34568">
        <ele>72.7</ele>
        <time>2013-04-01T18:23:30.000Z</time>
      </trkpt>
      <trkpt lat="48.85405" lon="2.34573">
        <ele>73.5</ele>
        <time>2013-04-01T18:23:31.000Z</time>
      </trkpt>
      <trkpt lat="48.85403" lon="2.34579">
        <ele>73.6</ele>
        <time>2013-04-01T18:23:32.000Z</time>
      </trkpt>
      <trkpt lat="48.85401" lon="2.34584">
        <ele>75.7</ele>
        <time>2013-04-01T18:23:33.000Z</time>
      </trkpt>
      <trkpt lat="48.85399" lon="2.34589">
        <ele>75.4</ele>
        <time>2013-04-01T18:23:34.000Z</time>
      </trkpt>
      <trkpt lat="48.85397" lon="2.34595">
        <ele>75.4</ele>
        <time>2013-04-01T18:23:35.000Z</time>
      </trkpt>
      <trkpt lat="48.85395" lon="2.34602">
        <ele>75</ele>
        <time>2013-04-01T18:23:36.000Z</time>
      </trkpt>
      <trkpt lat="48.85393" lon="2.34608">
        <ele>74.6</ele>
        <time>2013-04-01T18:23:37.000Z</time>
      </trkpt>
      <trkpt lat="48.85391" lon="2.34614">
        <ele>74.4</ele>
        <time>2013-04-01T18:23:38.000Z</time>
      </trkpt>
      <trkpt lat="48.85389" lon="2.3462">
        <ele>74.5</ele>
        <time>2013-04-01T18:23:39.000Z</time>
      </trkpt>
      <trkpt lat="48.85387" lon="2.34626">
        <ele>74.1</ele>
        <time>2013-04-01T18:23:40.000Z</time>
      </trkpt>
      <trkpt lat="48.85385" lon="2.34632">
        <ele>74</ele>
        <time>2013-04-01T18:23:41.000Z</time>
      </trkpt>
      <trkpt lat="48.85383" lon="2.34638">
        <ele>73.9</ele>
        <time>2013-04-01T18:23:42.000Z</time>
      </trkpt>
      <trkpt lat="48.85381" lon="2.34644">
        <ele>73.8</ele>
        <time>2013-04-01T18:23:43.000Z</time>
      </trkpt>
      <trkpt lat="48.85379" lon="2.3465">
        <ele>73.6</ele>
        <time>2013-04-01T18:23:44.000Z</time>
      </trkpt>
      <trkpt lat="48.85378" lon="2.34656">
        <ele>74</ele>
        <time>2013-04-01T18:23:45.000Z</time>
      </trkpt>
      <trkpt lat="48.85377" lon="2.34662">
        <ele>73.8</ele>
        <time>2013-04-01T18:23:46.000Z</time>
      </trkpt>
      <trkpt lat="48.85375" lon="2.34666">
        <ele>74.7</ele>
        <time>2013-04-01T18:23:47.000Z</time>
      </trkpt>
      <trkpt lat="48.85374" lon="2.34669">
        <ele>75</ele>
        <time>2013-04-01T18:23:48.000Z</time>
      </trkpt>
      <trkpt lat="48.85373" lon="2.34672">
        <ele>75.3</ele>
        <time>2013-04-01T18:23:49.000Z</time>
      </trkpt>
      <trkpt lat="48.85371" lon="2.34675">
        <ele>74.7</ele>
        <time>2013-04-01T18:23:50.000Z</time>
      </trkpt>
      <trkpt lat="48.8537" lon="2.34678">
        <ele>74.3</ele>
        <time>2013-04-01T18:23:51.000Z</time>
      </trkpt>
      <trkpt lat="48.85369" lon="2.34681">
        <ele>74.8</ele>
        <time>2013-04-01T18:23:52.000Z</time>
      </trkpt>
      <trkpt lat="48.85368" lon="2.34687">
        <ele>75.3</ele>
        <time>2013-04-01T18:23:55.000Z</time>
      </trkpt>
      <trkpt lat="48.85367" lon="2.34688">
        <ele>75.5</ele>
        <time>2013-04-01T18:23:56.000Z</time>
      </trkpt>
      <trkpt lat="48.85366" lon="2.34693">
        <ele>74.7</ele>
        <time>2013-04-01T18:24:00.000Z</time>
      </trkpt>
      <trkpt lat="48.85365" lon="2.34694">
        <ele>75</ele>
        <time>2013-04-01T18:24:01.000Z</time>
      </trkpt>
      <trkpt lat="48.85361" lon="2.34698">
        <ele>77.7</ele>
        <time>2013-04-01T18:25:34.000Z</time>
      </trkpt>
      <trkpt lat="48.85361" lon="2.34699">
        <ele>77.8</ele>
        <time>2013-04-01T18:25:35.000Z</time>
      </trkpt>
      <trkpt lat="48.85361" lon="2.34706">
        <ele>79.2</ele>
        <time>2013-04-01T18:25:37.000Z</time>
      </trkpt>
      <trkpt lat="48.8536" lon="2.34709">
        <ele>79.5</ele>
        <time>2013-04-01T18:25:38.000Z</time>
      </trkpt>
      <trkpt lat="48.85361" lon="2.34713">
        <ele>79.3</ele>
        <time>2013-04-01T18:25:39.000Z</time>
      </trkpt>
      <trkpt lat="48.85361" lon="2.34717">
        <ele>79.9</ele>
        <time>2013-04-01T18:25:40.000Z</time>
      </trkpt>
      <trkpt lat="48.85361" lon="2.34722">
        <ele>79.7</ele>
        <time>2013-04-01T18:25:41.000Z</time>
      </trkpt>
      <trkpt lat="48.85362" lon="2.34726">
        <ele>79.2</ele>
        <time>2013-04-01T18:25:42.000Z</time>
      </trkpt>
      <trkpt lat="48.85362" lon="2.34731">
        <ele>79.2</ele>
        <time>2013-04-01T18:25:43.000Z</time>
      </trkpt>
      <trkpt lat="48.85362" lon="2.34736">
        <ele>79.1</ele>
        <time>2013-04-01T18:25:44.000Z</time>
      </trkpt>
      <trkpt lat="48.85362" lon="2.34741">
        <ele>78.4</ele>
        <time>2013-04-01T18:25:45.000Z</time>
      </trkpt>
      <trkpt lat="48.85363" lon="2.34747">
        <ele>78.8</ele>
        <time>2013-04-01T18:25:46.000Z</time>
      </trkpt>
      <trkpt lat="48.85365" lon="2.34752">
        <ele>78.8</ele>
        <time>2013-04-01T18:25:47.000Z</time>
      </trkpt>
      <trkpt lat="48.85368" lon="2.34756">
        <ele>78.9</ele>
        <time>2013-04-01T18:25:48.000Z</time>
      </trkpt>
      <trkpt lat="48.85371" lon="2.3476">
        <ele>78</ele>
        <time>2013-04-01T18:25:49.000Z</time>
      </trkpt>
      <trkpt lat="48.85375" lon="2.34762">
        <ele>77.3</ele>
        <time>2013-04-01T18:25:50.000Z</time>
      </trkpt>
      <trkpt lat="48.85378" lon="2.34765">
        <ele>77.8</ele>
        <time>2013-04-01T18:25:51.000Z</time>
      </trkpt>
      <trkpt lat="48.85381" lon="2.34767">
        <ele>76.9</ele>
        <time>2013-04-01T18:25:52.000Z</time>
      </trkpt>
      <trkpt lat="48.85385" lon="2.34769">
        <ele>76.4</ele>
        <time>2013-04-01T18:25:53.000Z</time>
      </trkpt>
      <trkpt lat="48.85388" lon="2.3477">
        <ele>76.3</ele>
        <time>2013-04-01T18:25:54.000Z</time>
      </trkpt>
      <trkpt lat="48.85391" lon="2.34772">
        <ele>78.3</ele>
        <time>2013-04-01T18:25:57.000Z</time>
      </trkpt>
      <trkpt lat="48.85392" lon="2.34774">
        <ele>78.5</ele>
        <time>2013-04-01T18:25:58.000Z</time>
      </trkpt>
      <trkpt lat="48.85393" lon="2.3478">
        <ele>82</ele>
        <time>2013-04-01T18:26:02.000Z</time>
      </trkpt>
      <trkpt lat="48.85393" lon="2.34781">
        <ele>83</ele>
        <time>2013-04-01T18:26:03.000Z</time>
      </trkpt>
      <trkpt lat="48.85391" lon="2.34785">
        <ele>83.1</ele>
        <time>2013-04-01T18:26:06.000Z</time>
      </trkpt>
      <trkpt lat="48.8539" lon="2.34787">
        <ele>83.1</ele>
        <time>2013-04-01T18:26:07.000Z</time>
      </trkpt>
      <trkpt lat="48.85388" lon="2.3479">
        <ele>83.7</ele>
        <time>2013-04-01T18:26:08.000Z</time>
      </trkpt>
      <trkpt lat="48.85386" lon="2.34794">
        <ele>84.4</ele>
        <time>2013-04-01T18:26:09.000Z</time>
      </trkpt>
      <trkpt lat="48.85384" lon="2.34799">
        <ele>85</ele>
        <time>2013-04-01T18:26:10.000Z</time>
      </trkpt>
      <trkpt lat="48.85382" lon="2.34804">
        <ele>84.4</ele>
        <time>2013-04-01T18:26:11.000Z</time>
      </trkpt>
      <trkpt lat="48.8538" lon="2.34809">
        <ele>83</ele>
        <time>2013-04-01T18:26:12.000Z</time>
      </trkpt>
      <trkpt lat="48.85378" lon="2.34814">
        <ele>81.6</ele>
        <time>2013-04-01T18:26:13.000Z</time>
      </trkpt>
      <trkpt lat="48.85377" lon="2.3482">
        <ele>78.2</ele>
        <time>2013-04-01T18:26:14.000Z</time>
      </trkpt>
      <trkpt lat="48.85376" lon="2.34825">
        <ele>75.9</ele>
        <time>2013-04-01T18:26:15.000Z</time>
      </trkpt>
      <trkpt lat="48.85376" lon="2.34831">
        <ele>73.8</ele>
        <time>2013-04-01T18:26:16.000Z</time>
      </trkpt>
      <trkpt lat="48.85376" lon="2.34837">
        <ele>71.9</ele>
        <time>2013-04-01T18:26:17.000Z</time>
      </trkpt>
      <trkpt lat="48.85376" lon="2.34842">
        <ele>70.9</ele>
        <time>2013-04-01T18:26:18.000Z</time>
      </trkpt>
      <trkpt lat="48.85375" lon="2.34848">
        <ele>69.8</ele>
        <time>2013-04-01T18:26:19.000Z</time>
      </trkpt>
      <trkpt lat="48.85373" lon="2.34853">
        <ele>69.3</ele>
        <time>2013-04-01T18:26:20.000Z</time>
      </trkpt>
      <trkpt lat="48.85371" lon="2.34858">
        <ele>66</ele>
        <time>2013-04-01T18:26:21.000Z</time>
      </trkpt>
      <trkpt lat="48.85369" lon="2.34862">
        <ele>65.6</ele>
        <time>2013-04-01T18:26:22.000Z</time>
      </trkpt>
      <trkpt lat="48.85367" lon="2.34868">
        <ele>65.4</ele>
        <time>2013-04-01T18:26:23.000Z</time>
      </trkpt>
      <trkpt lat="48.85366" lon="2.34873">
        <ele>64.7</ele>
        <time>2013-04-01T18:26:24.000Z</time>
      </trkpt>
      <trkpt lat="48.85365" lon="2.34879">
        <ele>64.1</ele>
        <time>2013-04-01T18:26:25.000Z</time>
      </trkpt>
      <trkpt lat="48.85364" lon="2.34886">
        <ele>64.4</ele>
        <time>2013-04-01T18:26:26.000Z</time>
      </trkpt>
      <trkpt lat="48.85363" lon="2.34893">
        <ele>65.5</ele>
        <time>2013-04-01T18:26:27.000Z</time>
      </trkpt>
      <trkpt lat="48.85363" lon="2.349">
        <ele>65.3</ele>
        <time>2013-04-01T18:26:28.000Z</time>
      </trkpt>
      <trkpt lat="48.85363" lon="2.34906">
        <ele>65.6</ele>
        <time>2013-04-01T18:26:29.000Z</time>
      </trkpt>
      <trkpt lat="48.85362" lon="2.34913">
        <ele>66.6</ele>
        <time>2013-04-01T18:26:30.000Z</time>
      </trkpt>
      <trkpt lat="48.85361" lon="2.34919">
        <ele>67.1</ele>
        <time>2013-04-01T18:26:31.000Z</time>
      </trkpt>
      <trkpt lat="48.85359" lon="2.34924">
        <ele>67</ele>
        <time>2013-04-01T18:26:32.000Z</time>
      </trkpt>
      <trkpt lat="48.85357" lon="2.3493">
        <ele>68</ele>
        <time>2013-04-01T18:26:33.000Z</time>
      </trkpt>
      <trkpt lat="48.85356" lon="2.34936">
        <ele>68.8</ele>
        <time>2013-04-01T18:26:34.000Z</time>
      </trkpt>
      <trkpt lat="48.85354" lon="2.34942">
        <ele>69.4</ele>
        <time>2013-04-01T18:26:35.000Z</time>
      </trkpt>
      <trkpt lat="48.85352" lon="2.34947">
        <ele>69.1</ele>
        <time>2013-04-01T18:26:36.000Z</time>
      </trkpt>
      <trkpt lat="48.8535" lon="2.34953">
        <ele>69.2</ele>
        <time>2013-04-01T18:26:37.000Z</time>
      </trkpt>
      <trkpt lat="48.85348" lon="2.34959">
        <ele>68.9</ele>
        <time>2013-04-01T18:26:38.000Z</time>
      </trkpt>
      <trkpt lat="48.85346" lon="2.34965">
        <ele>68.1</ele>
        <time>2013-04-01T18:26:39.000Z</time>
      </trkpt>
      <trkpt lat="48.85345" lon="2.34971">
        <ele>67.5</ele>
        <time>2013-04-01T18:26:40.000Z</time>
      </trkpt>
      <trkpt lat="48.85343" lon="2.34977">
        <ele>67.7</ele>
        <time>2013-04-01T18:26:41.000Z</time>
      </trkpt>
      <trkpt lat="48.85341" lon="2.34983">
        <ele>68.3</ele>
        <time>2013-04-01T18:26:42.000Z</time>
      </trkpt>
      <trkpt lat="48.85339" lon="2.3499">
        <ele>69.1</ele>
        <time>2013-04-01T18:26:43.000Z</time>
      </trkpt>
      <trkpt lat="48.85337" lon="2.34997">
        <ele>68.2</ele>
        <time>2013-04-01T18:26:44.000Z</time>
      </trkpt>
      <trkpt lat="48.85336" lon="2.35004">
        <ele>68</ele>
        <time>2013-04-01T18:26:45.000Z</time>
      </trkpt>
      <trkpt lat="48.85335" lon="2.3501">
        <ele>68.1</ele>
        <time>2013-04-01T18:26:46.000Z</time>
      </trkpt>
      <trkpt lat="48.85333" lon="2.35016">
        <ele>68</ele>
        <time>2013-04-01T18:26:47.000Z</time>
      </trkpt>
      <trkpt lat="48.85331" lon="2.35022">
        <ele>67.6</ele>
        <time>2013-04-01T18:26:48.000Z</time>
      </trkpt>
      <trkpt lat="48.85329" lon="2.35028">
        <ele>67.8</ele>
        <time>2013-04-01T18:26:49.000Z</time>
      </trkpt>
      <trkpt lat="48.85327" lon="2.35034">
        <ele>67.3</ele>
        <time>2013-04-01T18:26:50.000Z</time>
      </trkpt>
      <trkpt lat="48.85325" lon="2.3504">
        <ele>66.8</ele>
        <time>2013-04-01T18:26:51.000Z</time>
      </trkpt>
      <trkpt lat="48.85323" lon="2.35045">
        <ele>66.5</ele>
        <time>2013-04-01T18:26:52.000Z</time>
      </trkpt>
      <trkpt lat="48.85321" lon="2.35051">
        <ele>66</ele>
        <time>2013-04-01T18:26:53.000Z</time>
      </trkpt>
      <trkpt lat="48.8532" lon="2.35056">
        <ele>65.9</ele>
        <time>2013-04-01T18:26:54.000Z</time>
      </trkpt>
      <trkpt lat="48.85318" lon="2.35062">
        <ele>66.6</ele>
        <time>2013-04-01T18:26:55.000Z</time>
      </trkpt>
      <trkpt lat="48.85316" lon="2.35069">
        <ele>67.5</ele>
        <time>2013-04-01T18:26:56.000Z</time>
      </trkpt>
      <trkpt lat="48.85315" lon="2.35075">
        <ele>66.9</ele>
        <time>2013-04-01T18:26:57.000Z</time>
      </trkpt>
      <trkpt lat="48.85313" lon="2.35081">
        <ele>68</ele>
        <time>2013-04-01T18:26:58.000Z</time>
      </trkpt>
      <trkpt lat="48.85312" lon="2.35087">
        <ele>69.1</ele>
        <time>2013-04-01T18:26:59.000Z</time>
      </trkpt>
      <trkpt lat="48.85311" lon="2.35093">
        <ele>69.7</ele>
        <time>2013-04-01T18:27:00.000Z</time>
      </trkpt>
      <trkpt lat="48.85309" lon="2.35099">
        <ele>70.2</ele>
        <time>2013-04-01T18:27:01.000Z</time>
      </trkpt>
      <trkpt lat="48.85308" lon="2.35105">
        <ele>69</ele>
        <time>2013-04-01T18:27:02.000Z</time>
      </trkpt>
      <trkpt lat="48.85306" lon="2.35111">
        <ele>74.1</ele>
        <time>2013-04-01T18:27:03.000Z</time>
      </trkpt>
      <trkpt lat="48.85304" lon="2.35116">
        <ele>72</ele>
        <time>2013-04-01T18:27:04.000Z</time>
      </trkpt>
      <trkpt lat="48.85303" lon="2.35122">
        <ele>71.8</ele>
        <time>2013-04-01T18:27:05.000Z</time>
      </trkpt>
      <trkpt lat="48.85301" lon="2.35128">
        <ele>71.5</ele>
        <time>2013-04-01T18:27:06.000Z</time>
      </trkpt>
      <trkpt lat="48.85299" lon="2.35133">
        <ele>70.3</ele>
        <time>2013-04-01T18:27:07.000Z</time>
      </trkpt>
      <trkpt lat="48.85298" lon="2.35138">
        <ele>70.2</ele>
        <time>2013-04-01T18:27:08.000Z</time>
      </trkpt>
      <trkpt lat="48.85296" lon="2.35144">
        <ele>70.5</ele>
        <time>2013-04-01T18:27:09.000Z</time>
      </trkpt>
      <trkpt lat="48.85295" lon="2.35149">
        <ele>71.4</ele>
        <time>2013-04-01T18:27:10.000Z</time>
      </trkpt>
      <trkpt lat="48.85293" lon="2.35155">
        <ele>72.2</ele>
        <time>2013-04-01T18:27:11.000Z</time>
      </trkpt>
      <trkpt lat="48.85292" lon="2.35161">
        <ele>71.3</ele>
        <time>2013-04-01T18:27:12.000Z</time>
      </trkpt>
      <trkpt lat="48.85291" lon="2.35166">
        <ele>70.3</ele>
        <time>2013-04-01T18:27:13.000Z</time>
      </trkpt>
      <trkpt lat="48.85289" lon="2.35171">
        <ele>70.2</ele>
        <time>2013-04-01T18:27:14.000Z</time>
      </trkpt>
      <trkpt lat="48.85288" lon="2.35176">
        <ele>69.2</ele>
        <time>2013-04-01T18:27:15.000Z</time>
      </trkpt>
      <trkpt lat="48.85286" lon="2.35181">
        <ele>70</ele>
        <time>2013-04-01T18:27:16.000Z</time>
      </trkpt>
      <trkpt lat="48.85285" lon="2.35186">
        <ele>70.1</ele>
        <time>2013-04-01T18:27:17.000Z</time>
      </trkpt>
      <trkpt lat="48.85283" lon="2.35192">
        <ele>71</ele>
        <time>2013-04-01T18:27:18.000Z</time>
      </trkpt>
      <trkpt lat="48.85282" lon="2.35198">
        <ele>71.6</ele>
        <time>2013-04-01T18:27:19.000Z</time>
      </trkpt>
      <trkpt lat="48.85281" lon="2.35203">
        <ele>72.2</ele>
        <time>2013-04-01T18:27:20.000Z</time>
      </trkpt>
      <trkpt lat="48.85281" lon="2.35209">
        <ele>72.8</ele>
        <time>2013-04-01T18:27:21.000Z</time>
      </trkpt>
      <trkpt lat="48.85282" lon="2.35213">
        <ele>73.4</ele>
        <time>2013-04-01T18:27:22.000Z</time>
      </trkpt>
      <trkpt lat="48.85284" lon="2.35216">
        <ele>73.8</ele>
        <time>2013-04-01T18:27:23.000Z</time>
      </trkpt>
      <trkpt lat="48.85287" lon="2.35217">
        <ele>74.9</ele>
        <time>2013-04-01T18:27:24.000Z</time>
      </trkpt>
      <trkpt lat="48.8529" lon="2.35218">
        <ele>72.6</ele>
        <time>2013-04-01T18:27:25.000Z</time>
      </trkpt>
      <trkpt lat="48.85293" lon="2.35219">
        <ele>74.5</ele>
        <time>2013-04-01T18:27:26.000Z</time>
      </trkpt>
      <trkpt lat="48.85296" lon="2.3522">
        <ele>75.2</ele>
        <time>2013-04-01T18:27:27.000Z</time>
      </trkpt>
      <trkpt lat="48.85299" lon="2.35219">
        <ele>75</ele>
        <time>2013-04-01T18:27:28.000Z</time>
      </trkpt>
      <trkpt lat="48.85303" lon="2.35218">
        <ele>74.9</ele>
        <time>2013-04-01T18:27:29.000Z</time>
      </trkpt>
      <trkpt lat="48.85307" lon="2.35217">
        <ele>74.8</ele>
        <time>2013-04-01T18:27:30.000Z</time>
      </trkpt>
      <trkpt lat="48.85312" lon="2.35214">
        <ele>74.3</ele>
        <time>2013-04-01T18:27:31.000Z</time>
      </trkpt>
      <trkpt lat="48.85316" lon="2.35212">
        <ele>74.4</ele>
        <time>2013-04-01T18:27:32.000Z</time>
      </trkpt>
      <trkpt lat="48.8532" lon="2.3521">
        <ele>74.2</ele>
        <time>2013-04-01T18:27:33.000Z</time>
      </trkpt>
      <trkpt lat="48.85324" lon="2.35208">
        <ele>73.8</ele>
        <time>2013-04-01T18:27:34.000Z</time>
      </trkpt>
      <trkpt lat="48.85328" lon="2.35206">
        <ele>72.8</ele>
        <time>2013-04-01T18:27:35.000Z</time>
      </trkpt>
      <trkpt lat="48.85335" lon="2.35202">
        <ele>72.8</ele>
        <time>2013-04-01T18:27:36.000Z</time>
      </trkpt>
      <trkpt lat="48.85341" lon="2.352">
        <ele>73.6</ele>
        <time>2013-04-01T18:27:37.000Z</time>
      </trkpt>
      <trkpt lat="48.85345" lon="2.35198">
        <ele>74</ele>
        <time>2013-04-01T18:27:38.000Z</time>
      </trkpt>
      <trkpt lat="48.85349" lon="2.35198">
        <ele>74.6</ele>
        <time>2013-04-01T18:27:39.000Z</time>
      </trkpt>
      <trkpt lat="48.85351" lon="2.3518">
        <ele>65.5</ele>
        <time>2013-04-01T18:27:40.000Z</time>
      </trkpt>
      <trkpt lat="48.85356" lon="2.35179">
        <ele>66.7</ele>
        <time>2013-04-01T18:27:41.000Z</time>
      </trkpt>
      <trkpt lat="48.85361" lon="2.35178">
        <ele>66.3</ele>
        <time>2013-04-01T18:27:42.000Z</time>
      </trkpt>
      <trkpt lat="48.85365" lon="2.35176">
        <ele>66.8</ele>
        <time>2013-04-01T18:27:43.000Z</time>
      </trkpt>
      <trkpt lat="48.85372" lon="2.35174">
        <ele>67.1</ele>
        <time>2013-04-01T18:27:44.000Z</time>
      </trkpt>
      <trkpt lat="48.85377" lon="2.35171">
        <ele>67</ele>
        <time>2013-04-01T18:27:45.000Z</time>
      </trkpt>
      <trkpt lat="48.85381" lon="2.3517">
        <ele>67.2</ele>
        <time>2013-04-01T18:27:46.000Z</time>
      </trkpt>
      <trkpt lat="48.85387" lon="2.35168">
        <ele>67.7</ele>
        <time>2013-04-01T18:27:47.000Z</time>
      </trkpt>
      <trkpt lat="48.85393" lon="2.35168">
        <ele>68.4</ele>
        <time>2013-04-01T18:27:48.000Z</time>
      </trkpt>
      <trkpt lat="48.85398" lon="2.35166">
        <ele>68.6</ele>
        <time>2013-04-01T18:27:49.000Z</time>
      </trkpt>
      <trkpt lat="48.85402" lon="2.35164">
        <ele>68.6</ele>
        <time>2013-04-01T18:27:50.000Z</time>
      </trkpt>
      <trkpt lat="48.85406" lon="2.35159">
        <ele>69.2</ele>
        <time>2013-04-01T18:27:51.000Z</time>
      </trkpt>
      <trkpt lat="48.85411" lon="2.35157">
        <ele>69.2</ele>
        <time>2013-04-01T18:27:52.000Z</time>
      </trkpt>
      <trkpt lat="48.85418" lon="2.35149">
        <ele>68.5</ele>
        <time>2013-04-01T18:27:53.000Z</time>
      </trkpt>
      <trkpt lat="48.85422" lon="2.35146">
        <ele>69.7</ele>
        <time>2013-04-01T18:27:54.000Z</time>
      </trkpt>
      <trkpt lat="48.85426" lon="2.35141">
        <ele>69.8</ele>
        <time>2013-04-01T18:27:55.000Z</time>
      </trkpt>
      <trkpt lat="48.8543" lon="2.35137">
        <ele>69.7</ele>
        <time>2013-04-01T18:27:56.000Z</time>
      </trkpt>
      <trkpt lat="48.85435" lon="2.35132">
        <ele>69.5</ele>
        <time>2013-04-01T18:27:57.000Z</time>
      </trkpt>
      <trkpt lat="48.8544" lon="2.35128">
        <ele>69.6</ele>
        <time>2013-04-01T18:27:58.000Z</time>
      </trkpt>
      <trkpt lat="48.85443" lon="2.35124">
        <ele>69.7</ele>
        <time>2013-04-01T18:27:59.000Z</time>
      </trkpt>
      <trkpt lat="48.85448" lon="2.35118">
        <ele>69.8</ele>
        <time>2013-04-01T18:28:00.000Z</time>
      </trkpt>
      <trkpt lat="48.85451" lon="2.35112">
        <ele>69.9</ele>
        <time>2013-04-01T18:28:01.000Z</time>
      </trkpt>
      <trkpt lat="48.85455" lon="2.35107">
        <ele>69.2</ele>
        <time>2013-04-01T18:28:02.000Z</time>
      </trkpt>
      <trkpt lat="48.85459" lon="2.35102">
        <ele>68.8</ele>
        <time>2013-04-01T18:28:03.000Z</time>
      </trkpt>
      <trkpt lat="48.85462" lon="2.35099">
        <ele>70</ele>
        <time>2013-04-01T18:28:04.000Z</time>
      </trkpt>
      <trkpt lat="48.85465" lon="2.35094">
        <ele>70</ele>
        <time>2013-04-01T18:28:05.000Z</time>
      </trkpt>
      <trkpt lat="48.8547" lon="2.3509">
        <ele>70.1</ele>
        <time>2013-04-01T18:28:06.000Z</time>
      </trkpt>
      <trkpt lat="48.85475" lon="2.35084">
        <ele>70</ele>
        <time>2013-04-01T18:28:07.000Z</time>
      </trkpt>
      <trkpt lat="48.85477" lon="2.3508">
        <ele>70.3</ele>
        <time>2013-04-01T18:28:08.000Z</time>
      </trkpt>
      <trkpt lat="48.85482" lon="2.35074">
        <ele>70</ele>
        <time>2013-04-01T18:28:09.000Z</time>
      </trkpt>
      <trkpt lat="48.85486" lon="2.35069">
        <ele>69.7</ele>
        <time>2013-04-01T18:28:10.000Z</time>
      </trkpt>
      <trkpt lat="48.85489" lon="2.35063">
        <ele>69.6</ele>
        <time>2013-04-01T18:28:11.000Z</time>
      </trkpt>
      <trkpt lat="48.85491" lon="2.35057">
        <ele>69.5</ele>
        <time>2013-04-01T18:28:12.000Z</time>
      </trkpt>
      <trkpt lat="48.85494" lon="2.35053">
        <ele>69.7</ele>
        <time>2013-04-01T18:28:13.000Z</time>
      </trkpt>
      <trkpt lat="48.85496" lon="2.3505">
        <ele>70.2</ele>
        <time>2013-04-01T18:28:14.000Z</time>
      </trkpt>
      <trkpt lat="48.85499" lon="2.35045">
        <ele>70.3</ele>
        <time>2013-04-01T18:28:15.000Z</time>
      </trkpt>
      <trkpt lat="48.85502" lon="2.3504">
        <ele>69.9</ele>
        <time>2013-04-01T18:28:16.000Z</time>
      </trkpt>
      <trkpt lat="48.85505" lon="2.35035">
        <ele>69.2</ele>
        <time>2013-04-01T18:28:17.000Z</time>
      </trkpt>
      <trkpt lat="48.85509" lon="2.35036">
        <ele>68.9</ele>
        <time>2013-04-01T18:28:18.000Z</time>
      </trkpt>
      <trkpt lat="48.85513" lon="2.35032">
        <ele>69.4</ele>
        <time>2013-04-01T18:28:19.000Z</time>
      </trkpt>
      <trkpt lat="48.85518" lon="2.35035">
        <ele>70.7</ele>
        <time>2013-04-01T18:28:20.000Z</time>
      </trkpt>
      <trkpt lat="48.85521" lon="2.35036">
        <ele>69.4</ele>
        <time>2013-04-01T18:28:21.000Z</time>
      </trkpt>
      <trkpt lat="48.85524" lon="2.35038">
        <ele>69</ele>
        <time>2013-04-01T18:28:22.000Z</time>
      </trkpt>
      <trkpt lat="48.85528" lon="2.35041">
        <ele>71.5</ele>
        <time>2013-04-01T18:28:23.000Z</time>
      </trkpt>
      <trkpt lat="48.85533" lon="2.35045">
        <ele>71.7</ele>
        <time>2013-04-01T18:28:24.000Z</time>
      </trkpt>
      <trkpt lat="48.85537" lon="2.35048">
        <ele>72.7</ele>
        <time>2013-04-01T18:28:25.000Z</time>
      </trkpt>
      <trkpt lat="48.85541" lon="2.35051">
        <ele>73.1</ele>
        <time>2013-04-01T18:28:26.000Z</time>
      </trkpt>
      <trkpt lat="48.85545" lon="2.35053">
        <ele>72.6</ele>
        <time>2013-04-01T18:28:27.000Z</time>
      </trkpt>
      <trkpt lat="48.85549" lon="2.35056">
        <ele>72.5</ele>
        <time>2013-04-01T18:28:28.000Z</time>
      </trkpt>
      <trkpt lat="48.85553" lon="2.3506">
        <ele>72.6</ele>
        <time>2013-04-01T18:28:29.000Z</time>
      </trkpt>
      <trkpt lat="48.85556" lon="2.35063">
        <ele>73</ele>
        <time>2013-04-01T18:28:30.000Z</time>
      </trkpt>
      <trkpt lat="48.8556" lon="2.35065">
        <ele>73.6</ele>
        <time>2013-04-01T18:28:31.000Z</time>
      </trkpt>
      <trkpt lat="48.85562" lon="2.35068">
        <ele>73.7</ele>
        <time>2013-04-01T18:28:32.000Z</time>
      </trkpt>
      <trkpt lat="48.85565" lon="2.3507">
        <ele>74.1</ele>
        <time>2013-04-01T18:28:33.000Z</time>
      </trkpt>
      <trkpt lat="48.85568" lon="2.35073">
        <ele>74.2</ele>
        <time>2013-04-01T18:28:34.000Z</time>
      </trkpt>
      <trkpt lat="48.85571" lon="2.35075">
        <ele>74.4</ele>
        <time>2013-04-01T18:28:35.000Z</time>
      </trkpt>
      <trkpt lat="48.85574" lon="2.35078">
        <ele>74.7</ele>
        <time>2013-04-01T18:28:37.000Z</time>
      </trkpt>
      <trkpt lat="48.85575" lon="2.35079">
        <ele>74.9</ele>
        <time>2013-04-01T18:28:38.000Z</time>
      </trkpt>
      <trkpt lat="48.85579" lon="2.35082">
        <ele>75.7</ele>
        <time>2013-04-01T18:28:40.000Z</time>
      </trkpt>
      <trkpt lat="48.8558" lon="2.35083">
        <ele>77.1</ele>
        <time>2013-04-01T18:28:41.000Z</time>
      </trkpt>
      <trkpt lat="48.85583" lon="2.35088">
        <ele>77.9</ele>
        <time>2013-04-01T18:28:44.000Z</time>
      </trkpt>
      <trkpt lat="48.85583" lon="2.3509">
        <ele>78.7</ele>
        <time>2013-04-01T18:28:45.000Z</time>
      </trkpt>
      <trkpt lat="48.85583" lon="2.35095">
        <ele>79.3</ele>
        <time>2013-04-01T18:28:47.000Z</time>
      </trkpt>
      <trkpt lat="48.85584" lon="2.35097">
        <ele>78.6</ele>
        <time>2013-04-01T18:28:48.000Z</time>
      </trkpt>
      <trkpt lat="48.85585" lon="2.35104">
        <ele>75.8</ele>
        <time>2013-04-01T18:28:50.000Z</time>
      </trkpt>
      <trkpt lat="48.85585" lon="2.35107">
        <ele>74.2</ele>
        <time>2013-04-01T18:28:51.000Z</time>
      </trkpt>
      <trkpt lat="48.85584" lon="2.35111">
        <ele>73.1</ele>
        <time>2013-04-01T18:28:52.000Z</time>
      </trkpt>
      <trkpt lat="48.85584" lon="2.35116">
        <ele>72.2</ele>
        <time>2013-04-01T18:28:53.000Z</time>
      </trkpt>
      <trkpt lat="48.85582" lon="2.35121">
        <ele>72.5</ele>
        <time>2013-04-01T18:28:54.000Z</time>
      </trkpt>
      <trkpt lat="48.85581" lon="2.35127">
        <ele>72.5</ele>
        <time>2013-04-01T18:28:55.000Z</time>
      </trkpt>
      <trkpt lat="48.85579" lon="2.35134">
        <ele>72.8</ele>
        <time>2013-04-01T18:28:56.000Z</time>
      </trkpt>
      <trkpt lat="48.85578" lon="2.3514">
        <ele>71.7</ele>
        <time>2013-04-01T18:28:57.000Z</time>
      </trkpt>
      <trkpt lat="48.85576" lon="2.35147">
        <ele>71.9</ele>
        <time>2013-04-01T18:28:58.000Z</time>
      </trkpt>
      <trkpt lat="48.85575" lon="2.35154">
        <ele>71.9</ele>
        <time>2013-04-01T18:28:59.000Z</time>
      </trkpt>
      <trkpt lat="48.8557" lon="2.35166">
        <ele>73.3</ele>
        <time>2013-04-01T18:29:00.000Z</time>
      </trkpt>
      <trkpt lat="48.85568" lon="2.35174">
        <ele>74.1</ele>
        <time>2013-04-01T18:29:01.000Z</time>
      </trkpt>
      <trkpt lat="48.85566" lon="2.35182">
        <ele>74.5</ele>
        <time>2013-04-01T18:29:02.000Z</time>
      </trkpt>
      <trkpt lat="48.85564" lon="2.35189">
        <ele>73.6</ele>
        <time>2013-04-01T18:29:03.000Z</time>
      </trkpt>
      <trkpt lat="48.85562" lon="2.35197">
        <ele>74</ele>
        <time>2013-04-01T18:29:04.000Z</time>
      </trkpt>
      <trkpt lat="48.8556" lon="2.35205">
        <ele>74.1</ele>
        <time>2013-04-01T18:29:05.000Z</time>
      </trkpt>
      <trkpt lat="48.85557" lon="2.35213">
        <ele>74.5</ele>
        <time>2013-04-01T18:29:06.000Z</time>
      </trkpt>
      <trkpt lat="48.85554" lon="2.35219">
        <ele>75.3</ele>
        <time>2013-04-01T18:29:07.000Z</time>
      </trkpt>
      <trkpt lat="48.85552" lon="2.35225">
        <ele>75.8</ele>
        <time>2013-04-01T18:29:08.000Z</time>
      </trkpt>
      <trkpt lat="48.85549" lon="2.3523">
        <ele>76.3</ele>
        <time>2013-04-01T18:29:09.000Z</time>
      </trkpt>
      <trkpt lat="48.85547" lon="2.35236">
        <ele>76.3</ele>
        <time>2013-04-01T18:29:10.000Z</time>
      </trkpt>
      <trkpt lat="48.85546" lon="2.35242">
        <ele>77.4</ele>
        <time>2013-04-01T18:29:11.000Z</time>
      </trkpt>
      <trkpt lat="48.85546" lon="2.35245">
        <ele>77</ele>
        <time>2013-04-01T18:29:12.000Z</time>
      </trkpt>
      <trkpt lat="48.85545" lon="2.35251">
        <ele>77.7</ele>
        <time>2013-04-01T18:29:13.000Z</time>
      </trkpt>
      <trkpt lat="48.85545" lon="2.35254">
        <ele>77.8</ele>
        <time>2013-04-01T18:29:14.000Z</time>
      </trkpt>
      <trkpt lat="48.85545" lon="2.35257">
        <ele>78.2</ele>
        <time>2013-04-01T18:29:15.000Z</time>
      </trkpt>
      <trkpt lat="48.85544" lon="2.35263">
        <ele>78.7</ele>
        <time>2013-04-01T18:29:16.000Z</time>
      </trkpt>
      <trkpt lat="48.85546" lon="2.35267">
        <ele>79.6</ele>
        <time>2013-04-01T18:29:17.000Z</time>
      </trkpt>
      <trkpt lat="48.85547" lon="2.35272">
        <ele>80</ele>
        <time>2013-04-01T18:29:18.000Z</time>
      </trkpt>
      <trkpt lat="48.85548" lon="2.35278">
        <ele>78.4</ele>
        <time>2013-04-01T18:29:19.000Z</time>
      </trkpt>
      <trkpt lat="48.85551" lon="2.35283">
        <ele>77.6</ele>
        <time>2013-04-01T18:29:20.000Z</time>
      </trkpt>
      <trkpt lat="48.85553" lon="2.35288">
        <ele>77.7</ele>
        <time>2013-04-01T18:29:21.000Z</time>
      </trkpt>
      <trkpt lat="48.85556" lon="2.35292">
        <ele>77.9</ele>
        <time>2013-04-01T18:29:22.000Z</time>
      </trkpt>
      <trkpt lat="48.8556" lon="2.35295">
        <ele>77.3</ele>
        <time>2013-04-01T18:29:23.000Z</time>
      </trkpt>
      <trkpt lat="48.85563" lon="2.35298">
        <ele>77.1</ele>
        <time>2013-04-01T18:29:24.000Z</time>
      </trkpt>
      <trkpt lat="48.85568" lon="2.35301">
        <ele>76.8</ele>
        <time>2013-04-01T18:29:25.000Z</time>
      </trkpt>
      <trkpt lat="48.85572" lon="2.35304">
        <ele>76.3</ele>
        <time>2013-04-01T18:29:26.000Z</time>
      </trkpt>
      <trkpt lat="48.85577" lon="2.35307">
        <ele>76.3</ele>
        <time>2013-04-01T18:29:27.000Z</time>
      </trkpt>
      <trkpt lat="48.85583" lon="2.35312">
        <ele>76.2</ele>
        <time>2013-04-01T18:29:28.000Z</time>
      </trkpt>
      <trkpt lat="48.85588" lon="2.35315">
        <ele>76.7</ele>
        <time>2013-04-01T18:29:29.000Z</time>
      </trkpt>
      <trkpt lat="48.85592" lon="2.3532">
        <ele>76.2</ele>
        <time>2013-04-01T18:29:30.000Z</time>
      </trkpt>
      <trkpt lat="48.85596" lon="2.35323">
        <ele>77</ele>
        <time>2013-04-01T18:29:31.000Z</time>
      </trkpt>
      <trkpt lat="48.856" lon="2.35326">
        <ele>76.7</ele>
        <time>2013-04-01T18:29:32.000Z</time>
      </trkpt>
      <trkpt lat="48.85604" lon="2.35326">
        <ele>76.3</ele>
        <time>2013-04-01T18:29:33.000Z</time>
      </trkpt>
      <trkpt lat="48.8561" lon="2.3533">
        <ele>77.6</ele>
        <time>2013-04-01T18:29:34.000Z</time>
      </trkpt>
      <trkpt lat="48.85615" lon="2.35333">
        <ele>77.4</ele>
        <time>2013-04-01T18:29:35.000Z</time>
      </trkpt>
      <trkpt lat="48.8562" lon="2.35336">
        <ele>77.1</ele>
        <time>2013-04-01T18:29:36.000Z</time>
      </trkpt>
      <trkpt lat="48.85625" lon="2.35339">
        <ele>77.1</ele>
        <time>2013-04-01T18:29:37.000Z</time>
      </trkpt>
      <trkpt lat="48.85628" lon="2.35342">
        <ele>76.7</ele>
        <time>2013-04-01T18:29:38.000Z</time>
      </trkpt>
      <trkpt lat="48.85631" lon="2.35344">
        <ele>76.2</ele>
        <time>2013-04-01T18:29:39.000Z</time>
      </trkpt>
      <trkpt lat="48.85635" lon="2.35346">
        <ele>76.1</ele>
        <time>2013-04-01T18:29:40.000Z</time>
      </trkpt>
      <trkpt lat="48.85639" lon="2.35349">
        <ele>75.9</ele>
        <time>2013-04-01T18:29:41.000Z</time>
      </trkpt>
      <trkpt lat="48.85643" lon="2.35352">
        <ele>76.2</ele>
        <time>2013-04-01T18:29:42.000Z</time>
      </trkpt>
      <trkpt lat="48.85646" lon="2.35355">
        <ele>76.7</ele>
        <time>2013-04-01T18:29:43.000Z</time>
      </trkpt>
      <trkpt lat="48.8565" lon="2.35355">
        <ele>76</ele>
        <time>2013-04-01T18:29:44.000Z</time>
      </trkpt>
      <trkpt lat="48.85654" lon="2.35358">
        <ele>75.6</ele>
        <time>2013-04-01T18:29:45.000Z</time>
      </trkpt>
      <trkpt lat="48.85658" lon="2.35359">
        <ele>75.6</ele>
        <time>2013-04-01T18:29:46.000Z</time>
      </trkpt>
      <trkpt lat="48.85663" lon="2.35361">
        <ele>75.8</ele>
        <time>2013-04-01T18:29:47.000Z</time>
      </trkpt>
      <trkpt lat="48.85666" lon="2.35364">
        <ele>74.6</ele>
        <time>2013-04-01T18:29:48.000Z</time>
      </trkpt>
      <trkpt lat="48.8567" lon="2.35365">
        <ele>74.7</ele>
        <time>2013-04-01T18:29:49.000Z</time>
      </trkpt>
      <trkpt lat="48.85674" lon="2.35367">
        <ele>75.3</ele>
        <time>2013-04-01T18:29:50.000Z</time>
      </trkpt>
      <trkpt lat="48.85677" lon="2.35368">
        <ele>75.1</ele>
        <time>2013-04-01T18:29:51.000Z</time>
      </trkpt>
      <trkpt lat="48.85681" lon="2.3537">
        <ele>74.7</ele>
        <time>2013-04-01T18:29:52.000Z</time>
      </trkpt>
      <trkpt lat="48.85685" lon="2.35373">
        <ele>75.8</ele>
        <time>2013-04-01T18:29:53.000Z</time>
      </trkpt>
      <trkpt lat="48.85688" lon="2.35377">
        <ele>75.2</ele>
        <time>2013-04-01T18:29:54.000Z</time>
      </trkpt>
      <trkpt lat="48.85691" lon="2.35381">
        <ele>75.7</ele>
        <time>2013-04-01T18:29:55.000Z</time>
      </trkpt>
      <trkpt lat="48.85694" lon="2.35384">
        <ele>74.8</ele>
        <time>2013-04-01T18:29:56.000Z</time>
      </trkpt>
      <trkpt lat="48.85697" lon="2.35386">
        <ele>73.9</ele>
        <time>2013-04-01T18:29:57.000Z</time>
      </trkpt>
      <trkpt lat="48.857" lon="2.35388">
        <ele>72.8</ele>
        <time>2013-04-01T18:29:58.000Z</time>
      </trkpt>
      <trkpt lat="48.85702" lon="2.3539">
        <ele>71.8</ele>
        <time>2013-04-01T18:29:59.000Z</time>
      </trkpt>
      <trkpt lat="48.85704" lon="2.35393">
        <ele>71.1</ele>
        <time>2013-04-01T18:30:00.000Z</time>
      </trkpt>
      <trkpt lat="48.85707" lon="2.35395">
        <ele>70.8</ele>
        <time>2013-04-01T18:30:01.000Z</time>
      </trkpt>
      <trkpt lat="48.85709" lon="2.35397">
        <ele>70.3</ele>
        <time>2013-04-01T18:30:02.000Z</time>
      </trkpt>
      <trkpt lat="48.85712" lon="2.35398">
        <ele>71.6</ele>
        <time>2013-04-01T18:30:03.000Z</time>
      </trkpt>
      <trkpt lat="48.85715" lon="2.354">
        <ele>70.5</ele>
        <time>2013-04-01T18:30:04.000Z</time>
      </trkpt>
      <trkpt lat="48.85717" lon="2.35403">
        <ele>70.1</ele>
        <time>2013-04-01T18:30:05.000Z</time>
      </trkpt>
      <trkpt lat="48.8572" lon="2.35405">
        <ele>70</ele>
        <time>2013-04-01T18:30:06.000Z</time>
      </trkpt>
      <trkpt lat="48.85723" lon="2.35407">
        <ele>69.9</ele>
        <time>2013-04-01T18:30:07.000Z</time>
      </trkpt>
      <trkpt lat="48.85726" lon="2.35409">
        <ele>70</ele>
        <time>2013-04-01T18:30:08.000Z</time>
      </trkpt>
      <trkpt lat="48.85728" lon="2.3541">
        <ele>71.3</ele>
        <time>2013-04-01T18:30:09.000Z</time>
      </trkpt>
      <trkpt lat="48.85731" lon="2.35413">
        <ele>72.7</ele>
        <time>2013-04-01T18:30:10.000Z</time>
      </trkpt>
      <trkpt lat="48.85733" lon="2.35416">
        <ele>72.7</ele>
        <time>2013-04-01T18:30:11.000Z</time>
      </trkpt>
      <trkpt lat="48.85735" lon="2.3542">
        <ele>73.1</ele>
        <time>2013-04-01T18:30:12.000Z</time>
      </trkpt>
      <trkpt lat="48.85736" lon="2.35424">
        <ele>72.8</ele>
        <time>2013-04-01T18:30:13.000Z</time>
      </trkpt>
      <trkpt lat="48.85736" lon="2.35428">
        <ele>73.1</ele>
        <time>2013-04-01T18:30:14.000Z</time>
      </trkpt>
      <trkpt lat="48.85736" lon="2.35432">
        <ele>73.1</ele>
        <time>2013-04-01T18:30:15.000Z</time>
      </trkpt>
      <trkpt lat="48.85735" lon="2.35437">
        <ele>73.1</ele>
        <time>2013-04-01T18:30:16.000Z</time>
      </trkpt>
      <trkpt lat="48.85735" lon="2.35441">
        <ele>72.7</ele>
        <time>2013-04-01T18:30:17.000Z</time>
      </trkpt>
      <trkpt lat="48.85732" lon="2.35446">
        <ele>74.1</ele>
        <time>2013-04-01T18:30:18.000Z</time>
      </trkpt>
      <trkpt lat="48.85731" lon="2.35451">
        <ele>74.2</ele>
        <time>2013-04-01T18:30:19.000Z</time>
      </trkpt>
      <trkpt lat="48.85729" lon="2.35456">
        <ele>74</ele>
        <time>2013-04-01T18:30:20.000Z</time>
      </trkpt>
      <trkpt lat="48.85726" lon="2.3546">
        <ele>74.1</ele>
        <time>2013-04-01T18:30:21.000Z</time>
      </trkpt>
      <trkpt lat="48.85724" lon="2.35465">
        <ele>74.5</ele>
        <time>2013-04-01T18:30:22.000Z</time>
      </trkpt>
      <trkpt lat="48.85722" lon="2.35469">
        <ele>74.6</ele>
        <time>2013-04-01T18:30:23.000Z</time>
      </trkpt>
      <trkpt lat="48.8572" lon="2.35475">
        <ele>74.9</ele>
        <time>2013-04-01T18:30:24.000Z</time>
      </trkpt>
      <trkpt lat="48.85717" lon="2.35482">
        <ele>75.5</ele>
        <time>2013-04-01T18:30:25.000Z</time>
      </trkpt>
      <trkpt lat="48.85716" lon="2.35487">
        <ele>76.2</ele>
        <time>2013-04-01T18:30:26.000Z</time>
      </trkpt>
      <trkpt lat="48.85714" lon="2.35491">
        <ele>77</ele>
        <time>2013-04-01T18:30:27.000Z</time>
      </trkpt>
      <trkpt lat="48.85713" lon="2.35496">
        <ele>76.1</ele>
        <time>2013-04-01T18:30:28.000Z</time>
      </trkpt>
      <trkpt lat="48.85711" lon="2.35501">
        <ele>76.1</ele>
        <time>2013-04-01T18:30:29.000Z</time>
      </trkpt>
      <trkpt lat="48.85708" lon="2.35505">
        <ele>76</ele>
        <time>2013-04-01T18:30:30.000Z</time>
      </trkpt>
      <trkpt lat="48.85706" lon="2.3551">
        <ele>75.7</ele>
        <time>2013-04-01T18:30:31.000Z</time>
      </trkpt>
      <trkpt lat="48.85705" lon="2.35515">
        <ele>73.2</ele>
        <time>2013-04-01T18:30:32.000Z</time>
      </trkpt>
      <trkpt lat="48.85704" lon="2.3552">
        <ele>72.8</ele>
        <time>2013-04-01T18:30:33.000Z</time>
      </trkpt>
      <trkpt lat="48.85703" lon="2.35525">
        <ele>72.8</ele>
        <time>2013-04-01T18:30:34.000Z</time>
      </trkpt>
      <trkpt lat="48.85703" lon="2.35531">
        <ele>71.2</ele>
        <time>2013-04-01T18:30:35.000Z</time>
      </trkpt>
      <trkpt lat="48.85702" lon="2.35536">
        <ele>70.3</ele>
        <time>2013-04-01T18:30:36.000Z</time>
      </trkpt>
      <trkpt lat="48.85701" lon="2.35543">
        <ele>72.3</ele>
        <time>2013-04-01T18:30:37.000Z</time>
      </trkpt>
      <trkpt lat="48.857" lon="2.35551">
        <ele>72.2</ele>
        <time>2013-04-01T18:30:38.000Z</time>
      </trkpt>
      <trkpt lat="48.85698" lon="2.35559">
        <ele>72</ele>
        <time>2013-04-01T18:30:39.000Z</time>
      </trkpt>
      <trkpt lat="48.85697" lon="2.35566">
        <ele>71.6</ele>
        <time>2013-04-01T18:30:40.000Z</time>
      </trkpt>
      <trkpt lat="48.85697" lon="2.35573">
        <ele>70.8</ele>
        <time>2013-04-01T18:30:41.000Z</time>
      </trkpt>
      <trkpt lat="48.85698" lon="2.35579">
        <ele>70.6</ele>
        <time>2013-04-01T18:30:42.000Z</time>
      </trkpt>
      <trkpt lat="48.857" lon="2.35584">
        <ele>70.7</ele>
        <time>2013-04-01T18:30:43.000Z</time>
      </trkpt>
      <trkpt lat="48.85702" lon="2.3559">
        <ele>70.7</ele>
        <time>2013-04-01T18:30:44.000Z</time>
      </trkpt>
      <trkpt lat="48.85704" lon="2.35595">
        <ele>70.9</ele>
        <time>2013-04-01T18:30:45.000Z</time>
      </trkpt>
      <trkpt lat="48.85708" lon="2.35598">
        <ele>70.2</ele>
        <time>2013-04-01T18:30:46.000Z</time>
      </trkpt>
      <trkpt lat="48.85712" lon="2.35599">
        <ele>69.9</ele>
        <time>2013-04-01T18:30:47.000Z</time>
      </trkpt>
      <trkpt lat="48.85717" lon="2.35599">
        <ele>69.8</ele>
        <time>2013-04-01T18:30:48.000Z</time>
      </trkpt>
      <trkpt lat="48.85721" lon="2.35599">
        <ele>69.9</ele>
        <time>2013-04-01T18:30:49.000Z</time>
      </trkpt>
      <trkpt lat="48.85726" lon="2.356">
        <ele>70.1</ele>
        <time>2013-04-01T18:30:50.000Z</time>
      </trkpt>
      <trkpt lat="48.8573" lon="2.35604">
        <ele>70</ele>
        <time>2013-04-01T18:30:51.000Z</time>
      </trkpt>
      <trkpt lat="48.85733" lon="2.35607">
        <ele>69.9</ele>
        <time>2013-04-01T18:30:52.000Z</time>
      </trkpt>
      <trkpt lat="48.85738" lon="2.35613">
        <ele>70.1</ele>
        <time>2013-04-01T18:30:53.000Z</time>
      </trkpt>
      <trkpt lat="48.85741" lon="2.35617">
        <ele>70.1</ele>
        <time>2013-04-01T18:30:54.000Z</time>
      </trkpt>
      <trkpt lat="48.85744" lon="2.35622">
        <ele>70</ele>
        <time>2013-04-01T18:30:55.000Z</time>
      </trkpt>
      <trkpt lat="48.85749" lon="2.35627">
        <ele>70</ele>
        <time>2013-04-01T18:30:56.000Z</time>
      </trkpt>
      <trkpt lat="48.85752" lon="2.35631">
        <ele>70.1</ele>
        <time>2013-04-01T18:30:57.000Z</time>
      </trkpt>
      <trkpt lat="48.85754" lon="2.35637">
        <ele>70.3</ele>
        <time>2013-04-01T18:30:58.000Z</time>
      </trkpt>
      <trkpt lat="48.85757" lon="2.35641">
        <ele>70.2</ele>
        <time>2013-04-01T18:30:59.000Z</time>
      </trkpt>
      <trkpt lat="48.85759" lon="2.35645">
        <ele>70.3</ele>
        <time>2013-04-01T18:31:00.000Z</time>
      </trkpt>
      <trkpt lat="48.85762" lon="2.35649">
        <ele>70.3</ele>
        <time>2013-04-01T18:31:01.000Z</time>
      </trkpt>
      <trkpt lat="48.85764" lon="2.35653">
        <ele>70.4</ele>
        <time>2013-04-01T18:31:02.000Z</time>
      </trkpt>
      <trkpt lat="48.85767" lon="2.35656">
        <ele>70.8</ele>
        <time>2013-04-01T18:31:03.000Z</time>
      </trkpt>
      <trkpt lat="48.85771" lon="2.35659">
        <ele>70.8</ele>
        <time>2013-04-01T18:31:04.000Z</time>
      </trkpt>
      <trkpt lat="48.85779" lon="2.35647">
        <ele>70.7</ele>
        <time>2013-04-01T18:31:05.000Z</time>
      </trkpt>
      <trkpt lat="48.85785" lon="2.35645">
        <ele>70.6</ele>
        <time>2013-04-01T18:31:06.000Z</time>
      </trkpt>
      <trkpt lat="48.85786" lon="2.35657">
        <ele>70.8</ele>
        <time>2013-04-01T18:31:07.000Z</time>
      </trkpt>
      <trkpt lat="48.85783" lon="2.35665">
        <ele>71.2</ele>
        <time>2013-04-01T18:31:08.000Z</time>
      </trkpt>
      <trkpt lat="48.85782" lon="2.35671">
        <ele>71.4</ele>
        <time>2013-04-01T18:31:09.000Z</time>
      </trkpt>
      <trkpt lat="48.85784" lon="2.35676">
        <ele>72.4</ele>
        <time>2013-04-01T18:31:10.000Z</time>
      </trkpt>
      <trkpt lat="48.85785" lon="2.35681">
        <ele>73.5</ele>
        <time>2013-04-01T18:31:11.000Z</time>
      </trkpt>
      <trkpt lat="48.85788" lon="2.35684">
        <ele>74.3</ele>
        <time>2013-04-01T18:31:12.000Z</time>
      </trkpt>
      <trkpt lat="48.85787" lon="2.35691">
        <ele>75.2</ele>
        <time>2013-04-01T18:31:14.000Z</time>
      </trkpt>
      <trkpt lat="48.85785" lon="2.35694">
        <ele>73.9</ele>
        <time>2013-04-01T18:31:15.000Z</time>
      </trkpt>
      <trkpt lat="48.85783" lon="2.35697">
        <ele>75.7</ele>
        <time>2013-04-01T18:31:16.000Z</time>
      </trkpt>
      <trkpt lat="48.85782" lon="2.357">
        <ele>75.5</ele>
        <time>2013-04-01T18:31:17.000Z</time>
      </trkpt>
      <trkpt lat="48.85781" lon="2.35703">
        <ele>75.3</ele>
        <time>2013-04-01T18:31:18.000Z</time>
      </trkpt>
      <trkpt lat="48.8578" lon="2.35706">
        <ele>74.2</ele>
        <time>2013-04-01T18:31:19.000Z</time>
      </trkpt>
      <trkpt lat="48.8578" lon="2.3571">
        <ele>73.5</ele>
        <time>2013-04-01T18:31:20.000Z</time>
      </trkpt>
      <trkpt lat="48.8578" lon="2.35713">
        <ele>73.7</ele>
        <time>2013-04-01T18:31:21.000Z</time>
      </trkpt>
      <trkpt lat="48.85782" lon="2.35717">
        <ele>73.4</ele>
        <time>2013-04-01T18:31:22.000Z</time>
      </trkpt>
      <trkpt lat="48.85785" lon="2.35722">
        <ele>73.2</ele>
        <time>2013-04-01T18:31:23.000Z</time>
      </trkpt>
      <trkpt lat="48.85788" lon="2.35728">
        <ele>73.1</ele>
        <time>2013-04-01T18:31:24.000Z</time>
      </trkpt>
      <trkpt lat="48.85793" lon="2.35732">
        <ele>73</ele>
        <time>2013-04-01T18:31:25.000Z</time>
      </trkpt>
      <trkpt lat="48.85797" lon="2.35735">
        <ele>72.8</ele>
        <time>2013-04-01T18:31:26.000Z</time>
      </trkpt>
      <trkpt lat="48.85802" lon="2.35738">
        <ele>72.4</ele>
        <time>2013-04-01T18:31:27.000Z</time>
      </trkpt>
      <trkpt lat="48.85806" lon="2.35742">
        <ele>72.4</ele>
        <time>2013-04-01T18:31:28.000Z</time>
      </trkpt>
      <trkpt lat="48.8581" lon="2.35745">
        <ele>72.1</ele>
        <time>2013-04-01T18:31:29.000Z</time>
      </trkpt>
      <trkpt lat="48.85814" lon="2.35748">
        <ele>71.6</ele>
        <time>2013-04-01T18:31:30.000Z</time>
      </trkpt>
      <trkpt lat="48.85819" lon="2.35752">
        <ele>71.5</ele>
        <time>2013-04-01T18:31:31.000Z</time>
      </trkpt>
      <trkpt lat="48.85823" lon="2.35756">
        <ele>71.1</ele>
        <time>2013-04-01T18:31:32.000Z</time>
      </trkpt>
      <trkpt lat="48.85827" lon="2.3576">
        <ele>71.1</ele>
        <time>2013-04-01T18:31:33.000Z</time>
      </trkpt>
      <trkpt lat="48.85831" lon="2.35764">
        <ele>71.1</ele>
        <time>2013-04-01T18:31:34.000Z</time>
      </trkpt>
      <trkpt lat="48.85835" lon="2.35767">
        <ele>71.8</ele>
        <time>2013-04-01T18:31:35.000Z</time>
      </trkpt>
      <trkpt lat="48.85839" lon="2.3577">
        <ele>72.1</ele>
        <time>2013-04-01T18:31:36.000Z</time>
      </trkpt>
      <trkpt lat="48.85843" lon="2.35773">
        <ele>72.2</ele>
        <time>2013-04-01T18:31:37.000Z</time>
      </trkpt>
      <trkpt lat="48.85846" lon="2.35777">
        <ele>72.9</ele>
        <time>2013-04-01T18:31:38.000Z</time>
      </trkpt>
      <trkpt lat="48.85849" lon="2.35774">
        <ele>71.9</ele>
        <time>2013-04-01T18:31:39.000Z</time>
      </trkpt>
      <trkpt lat="48.85851" lon="2.35771">
        <ele>73.4</ele>
        <time>2013-04-01T18:31:40.000Z</time>
      </trkpt>
      <trkpt lat="48.85855" lon="2.35767">
        <ele>73.5</ele>
        <time>2013-04-01T18:31:41.000Z</time>
      </trkpt>
      <trkpt lat="48.85858" lon="2.35762">
        <ele>74.8</ele>
        <time>2013-04-01T18:31:42.000Z</time>
      </trkpt>
      <trkpt lat="48.85861" lon="2.35758">
        <ele>74.5</ele>
        <time>2013-04-01T18:31:43.000Z</time>
      </trkpt>
      <trkpt lat="48.85863" lon="2.35753">
        <ele>75.6</ele>
        <time>2013-04-01T18:31:44.000Z</time>
      </trkpt>
      <trkpt lat="48.85865" lon="2.35748">
        <ele>75</ele>
        <time>2013-04-01T18:31:45.000Z</time>
      </trkpt>
      <trkpt lat="48.85867" lon="2.35744">
        <ele>75.6</ele>
        <time>2013-04-01T18:31:46.000Z</time>
      </trkpt>
      <trkpt lat="48.85869" lon="2.35739">
        <ele>75.7</ele>
        <time>2013-04-01T18:31:47.000Z</time>
      </trkpt>
      <trkpt lat="48.85872" lon="2.35735">
        <ele>76.8</ele>
        <time>2013-04-01T18:31:48.000Z</time>
      </trkpt>
      <trkpt lat="48.85875" lon="2.3573">
        <ele>77.6</ele>
        <time>2013-04-01T18:31:49.000Z</time>
      </trkpt>
      <trkpt lat="48.85879" lon="2.35725">
        <ele>77.8</ele>
        <time>2013-04-01T18:31:50.000Z</time>
      </trkpt>
      <trkpt lat="48.85887" lon="2.35717">
        <ele>77.8</ele>
        <time>2013-04-01T18:31:51.000Z</time>
      </trkpt>
      <trkpt lat="48.8589" lon="2.35712">
        <ele>78.1</ele>
        <time>2013-04-01T18:31:52.000Z</time>
      </trkpt>
      <trkpt lat="48.85894" lon="2.35707">
        <ele>78.2</ele>
        <time>2013-04-01T18:31:53.000Z</time>
      </trkpt>
      <trkpt lat="48.85901" lon="2.35702">
        <ele>78.2</ele>
        <time>2013-04-01T18:31:54.000Z</time>
      </trkpt>
      <trkpt lat="48.85903" lon="2.35697">
        <ele>78.3</ele>
        <time>2013-04-01T18:31:55.000Z</time>
      </trkpt>
      <trkpt lat="48.85907" lon="2.35688">
        <ele>77.7</ele>
        <time>2013-04-01T18:31:56.000Z</time>
      </trkpt>
      <trkpt lat="48.85911" lon="2.35682">
        <ele>78</ele>
        <time>2013-04-01T18:31:57.000Z</time>
      </trkpt>
      <trkpt lat="48.85913" lon="2.35682">
        <ele>78.6</ele>
        <time>2013-04-01T18:31:58.000Z</time>
      </trkpt>
      <trkpt lat="48.85916" lon="2.35676">
        <ele>79</ele>
        <time>2013-04-01T18:31:59.000Z</time>
      </trkpt>
      <trkpt lat="48.85921" lon="2.35671">
        <ele>79</ele>
        <time>2013-04-01T18:32:00.000Z</time>
      </trkpt>
      <trkpt lat="48.85923" lon="2.35668">
        <ele>79.1</ele>
        <time>2013-04-01T18:32:01.000Z</time>
      </trkpt>
      <trkpt lat="48.85926" lon="2.3566">
        <ele>78.2</ele>
        <time>2013-04-01T18:32:02.000Z</time>
      </trkpt>
      <trkpt lat="48.85927" lon="2.35652">
        <ele>77.5</ele>
        <time>2013-04-01T18:32:03.000Z</time>
      </trkpt>
      <trkpt lat="48.8593" lon="2.35649">
        <ele>77.9</ele>
        <time>2013-04-01T18:32:04.000Z</time>
      </trkpt>
      <trkpt lat="48.85931" lon="2.35651">
        <ele>73.7</ele>
        <time>2013-04-01T18:32:05.000Z</time>
      </trkpt>
      <trkpt lat="48.85934" lon="2.35644">
        <ele>75</ele>
        <time>2013-04-01T18:32:06.000Z</time>
      </trkpt>
      <trkpt lat="48.85939" lon="2.35636">
        <ele>78.6</ele>
        <time>2013-04-01T18:32:07.000Z</time>
      </trkpt>
      <trkpt lat="48.85944" lon="2.3564">
        <ele>80.8</ele>
        <time>2013-04-01T18:32:08.000Z</time>
      </trkpt>
      <trkpt lat="48.85945" lon="2.35639">
        <ele>78.9</ele>
        <time>2013-04-01T18:32:09.000Z</time>
      </trkpt>
      <trkpt lat="48.85948" lon="2.35639">
        <ele>79</ele>
        <time>2013-04-01T18:32:10.000Z</time>
      </trkpt>
      <trkpt lat="48.85951" lon="2.35639">
        <ele>83.5</ele>
        <time>2013-04-01T18:32:11.000Z</time>
      </trkpt>
      <trkpt lat="48.85955" lon="2.35641">
        <ele>82.8</ele>
        <time>2013-04-01T18:32:12.000Z</time>
      </trkpt>
      <trkpt lat="48.85958" lon="2.35644">
        <ele>82.2</ele>
        <time>2013-04-01T18:32:13.000Z</time>
      </trkpt>
      <trkpt lat="48.85962" lon="2.35647">
        <ele>76.8</ele>
        <time>2013-04-01T18:32:14.000Z</time>
      </trkpt>
      <trkpt lat="48.85967" lon="2.3565">
        <ele>78.1</ele>
        <time>2013-04-01T18:32:15.000Z</time>
      </trkpt>
      <trkpt lat="48.85971" lon="2.35653">
        <ele>80.9</ele>
        <time>2013-04-01T18:32:16.000Z</time>
      </trkpt>
      <trkpt lat="48.85974" lon="2.35656">
        <ele>81.5</ele>
        <time>2013-04-01T18:32:17.000Z</time>
      </trkpt>
      <trkpt lat="48.85978" lon="2.35659">
        <ele>82.9</ele>
        <time>2013-04-01T18:32:18.000Z</time>
      </trkpt>
      <trkpt lat="48.85983" lon="2.35663">
        <ele>85.4</ele>
        <time>2013-04-01T18:32:19.000Z</time>
      </trkpt>
      <trkpt lat="48.85987" lon="2.35666">
        <ele>86.1</ele>
        <time>2013-04-01T18:32:20.000Z</time>
      </trkpt>
      <trkpt lat="48.85991" lon="2.3567">
        <ele>86.8</ele>
        <time>2013-04-01T18:32:21.000Z</time>
      </trkpt>
      <trkpt lat="48.85995" lon="2.35673">
        <ele>86.6</ele>
        <time>2013-04-01T18:32:22.000Z</time>
      </trkpt>
      <trkpt lat="48.86" lon="2.35675">
        <ele>87</ele>
        <time>2013-04-01T18:32:23.000Z</time>
      </trkpt>
      <trkpt lat="48.86004" lon="2.35679">
        <ele>87.2</ele>
        <time>2013-04-01T18:32:24.000Z</time>
      </trkpt>
      <trkpt lat="48.86009" lon="2.35682">
        <ele>87.8</ele>
        <time>2013-04-01T18:32:25.000Z</time>
      </trkpt>
      <trkpt lat="48.86013" lon="2.35686">
        <ele>87.6</ele>
        <time>2013-04-01T18:32:26.000Z</time>
      </trkpt>
      <trkpt lat="48.86016" lon="2.3569">
        <ele>87.7</ele>
        <time>2013-04-01T18:32:27.000Z</time>
      </trkpt>
      <trkpt lat="48.86019" lon="2.35695">
        <ele>87.9</ele>
        <time>2013-04-01T18:32:28.000Z</time>
      </trkpt>
      <trkpt lat="48.86022" lon="2.35699">
        <ele>88.1</ele>
        <time>2013-04-01T18:32:29.000Z</time>
      </trkpt>
      <trkpt lat="48.86025" lon="2.35704">
        <ele>88</ele>
        <time>2013-04-01T18:32:30.000Z</time>
      </trkpt>
      <trkpt lat="48.86028" lon="2.35709">
        <ele>88.5</ele>
        <time>2013-04-01T18:32:31.000Z</time>
      </trkpt>
      <trkpt lat="48.86031" lon="2.35713">
        <ele>88.5</ele>
        <time>2013-04-01T18:32:32.000Z</time>
      </trkpt>
      <trkpt lat="48.86034" lon="2.35718">
        <ele>88.5</ele>
        <time>2013-04-01T18:32:33.000Z</time>
      </trkpt>
      <trkpt lat="48.86037" lon="2.35722">
        <ele>88.4</ele>
        <time>2013-04-01T18:32:34.000Z</time>
      </trkpt>
      <trkpt lat="48.86039" lon="2.35727">
        <ele>88.1</ele>
        <time>2013-04-01T18:32:35.000Z</time>
      </trkpt>
      <trkpt lat="48.86042" lon="2.35733">
        <ele>88.4</ele>
        <time>2013-04-01T18:32:36.000Z</time>
      </trkpt>
      <trkpt lat="48.86044" lon="2.35738">
        <ele>88.6</ele>
        <time>2013-04-01T18:32:37.000Z</time>
      </trkpt>
      <trkpt lat="48.86048" lon="2.35744">
        <ele>91</ele>
        <time>2013-04-01T18:32:38.000Z</time>
      </trkpt>
      <trkpt lat="48.86051" lon="2.35749">
        <ele>90.7</ele>
        <time>2013-04-01T18:32:39.000Z</time>
      </trkpt>
      <trkpt lat="48.86054" lon="2.35754">
        <ele>90.3</ele>
        <time>2013-04-01T18:32:40.000Z</time>
      </trkpt>
      <trkpt lat="48.86057" lon="2.35758">
        <ele>90.4</ele>
        <time>2013-04-01T18:32:41.000Z</time>
      </trkpt>
      <trkpt lat="48.8606" lon="2.35762">
        <ele>90.1</ele>
        <time>2013-04-01T18:32:42.000Z</time>
      </trkpt>
      <trkpt lat="48.86063" lon="2.35766">
        <ele>90.8</ele>
        <time>2013-04-01T18:32:43.000Z</time>
      </trkpt>
      <trkpt lat="48.86067" lon="2.35769">
        <ele>89.3</ele>
        <time>2013-04-01T18:32:44.000Z</time>
      </trkpt>
      <trkpt lat="48.8607" lon="2.35773">
        <ele>89.2</ele>
        <time>2013-04-01T18:32:45.000Z</time>
      </trkpt>
      <trkpt lat="48.86074" lon="2.35776">
        <ele>89.4</ele>
        <time>2013-04-01T18:32:46.000Z</time>
      </trkpt>
      <trkpt lat="48.86077" lon="2.35779">
        <ele>89.6</ele>
        <time>2013-04-01T18:32:47.000Z</time>
      </trkpt>
      <trkpt lat="48.86081" lon="2.35783">
        <ele>89.5</ele>
        <time>2013-04-01T18:32:48.000Z</time>
      </trkpt>
      <trkpt lat="48.86085" lon="2.35786">
        <ele>90</ele>
        <time>2013-04-01T18:32:49.000Z</time>
      </trkpt>
      <trkpt lat="48.86089" lon="2.3579">
        <ele>89.6</ele>
        <time>2013-04-01T18:32:50.000Z</time>
      </trkpt>
      <trkpt lat="48.86093" lon="2.35793">
        <ele>89.1</ele>
        <time>2013-04-01T18:32:51.000Z</time>
      </trkpt>
      <trkpt lat="48.86097" lon="2.35797">
        <ele>88.8</ele>
        <time>2013-04-01T18:32:52.000Z</time>
      </trkpt>
      <trkpt lat="48.86101" lon="2.358">
        <ele>89.2</ele>
        <time>2013-04-01T18:32:53.000Z</time>
      </trkpt>
      <trkpt lat="48.86105" lon="2.35802">
        <ele>89.9</ele>
        <time>2013-04-01T18:32:54.000Z</time>
      </trkpt>
      <trkpt lat="48.86109" lon="2.35805">
        <ele>89.4</ele>
        <time>2013-04-01T18:32:55.000Z</time>
      </trkpt>
      <trkpt lat="48.86113" lon="2.35808">
        <ele>89.6</ele>
        <time>2013-04-01T18:32:56.000Z</time>
      </trkpt>
      <trkpt lat="48.86117" lon="2.35812">
        <ele>89.4</ele>
        <time>2013-04-01T18:32:57.000Z</time>
      </trkpt>
      <trkpt lat="48.8612" lon="2.35817">
        <ele>89.8</ele>
        <time>2013-04-01T18:32:58.000Z</time>
      </trkpt>
      <trkpt lat="48.8613" lon="2.35801">
        <ele>90.3</ele>
        <time>2013-04-01T18:32:59.000Z</time>
      </trkpt>
      <trkpt lat="48.86135" lon="2.35795">
        <ele>89.1</ele>
        <time>2013-04-01T18:33:00.000Z</time>
      </trkpt>
      <trkpt lat="48.86134" lon="2.3579">
        <ele>85.7</ele>
        <time>2013-04-01T18:33:02.000Z</time>
      </trkpt>
      <trkpt lat="48.86139" lon="2.35778">
        <ele>85.2</ele>
        <time>2013-04-01T18:33:03.000Z</time>
      </trkpt>
      <trkpt lat="48.86144" lon="2.35776">
        <ele>84.9</ele>
        <time>2013-04-01T18:33:04.000Z</time>
      </trkpt>
      <trkpt lat="48.86148" lon="2.35773">
        <ele>84.9</ele>
        <time>2013-04-01T18:33:05.000Z</time>
      </trkpt>
      <trkpt lat="48.8615" lon="2.35768">
        <ele>84.4</ele>
        <time>2013-04-01T18:33:06.000Z</time>
      </trkpt>
      <trkpt lat="48.86154" lon="2.35763">
        <ele>84.7</ele>
        <time>2013-04-01T18:33:07.000Z</time>
      </trkpt>
      <trkpt lat="48.86154" lon="2.35758">
        <ele>84.1</ele>
        <time>2013-04-01T18:33:08.000Z</time>
      </trkpt>
      <trkpt lat="48.86157" lon="2.35753">
        <ele>83.1</ele>
        <time>2013-04-01T18:33:09.000Z</time>
      </trkpt>
      <trkpt lat="48.8616" lon="2.35746">
        <ele>82.7</ele>
        <time>2013-04-01T18:33:10.000Z</time>
      </trkpt>
      <trkpt lat="48.86163" lon="2.3574">
        <ele>82.8</ele>
        <time>2013-04-01T18:33:11.000Z</time>
      </trkpt>
      <trkpt lat="48.86164" lon="2.35734">
        <ele>83.1</ele>
        <time>2013-04-01T18:33:12.000Z</time>
      </trkpt>
      <trkpt lat="48.86165" lon="2.35729">
        <ele>81.4</ele>
        <time>2013-04-01T18:33:13.000Z</time>
      </trkpt>
      <trkpt lat="48.86168" lon="2.35725">
        <ele>81.2</ele>
        <time>2013-04-01T18:33:14.000Z</time>
      </trkpt>
      <trkpt lat="48.8617" lon="2.35724">
        <ele>81.8</ele>
        <time>2013-04-01T18:33:15.000Z</time>
      </trkpt>
      <trkpt lat="48.86172" lon="2.35721">
        <ele>82.3</ele>
        <time>2013-04-01T18:33:16.000Z</time>
      </trkpt>
      <trkpt lat="48.86174" lon="2.35717">
        <ele>82.1</ele>
        <time>2013-04-01T18:33:17.000Z</time>
      </trkpt>
      <trkpt lat="48.86175" lon="2.35716">
        <ele>82.2</ele>
        <time>2013-04-01T18:33:18.000Z</time>
      </trkpt>
      <trkpt lat="48.86177" lon="2.35712">
        <ele>82.4</ele>
        <time>2013-04-01T18:33:19.000Z</time>
      </trkpt>
      <trkpt lat="48.86178" lon="2.35707">
        <ele>82.4</ele>
        <time>2013-04-01T18:33:20.000Z</time>
      </trkpt>
      <trkpt lat="48.86181" lon="2.35705">
        <ele>83.1</ele>
        <time>2013-04-01T18:33:21.000Z</time>
      </trkpt>
      <trkpt lat="48.86184" lon="2.35703">
        <ele>83.2</ele>
        <time>2013-04-01T18:33:22.000Z</time>
      </trkpt>
      <trkpt lat="48.86186" lon="2.35701">
        <ele>84.3</ele>
        <time>2013-04-01T18:33:23.000Z</time>
      </trkpt>
      <trkpt lat="48.8619" lon="2.35697">
        <ele>83.9</ele>
        <time>2013-04-01T18:33:25.000Z</time>
      </trkpt>
      <trkpt lat="48.86192" lon="2.35697">
        <ele>83.8</ele>
        <time>2013-04-01T18:33:26.000Z</time>
      </trkpt>
      <trkpt lat="48.86195" lon="2.35698">
        <ele>84</ele>
        <time>2013-04-01T18:33:27.000Z</time>
      </trkpt>
      <trkpt lat="48.86198" lon="2.35701">
        <ele>83.6</ele>
        <time>2013-04-01T18:33:28.000Z</time>
      </trkpt>
      <trkpt lat="48.86202" lon="2.35704">
        <ele>83.2</ele>
        <time>2013-04-01T18:33:29.000Z</time>
      </trkpt>
      <trkpt lat="48.86206" lon="2.35708">
        <ele>82.7</ele>
        <time>2013-04-01T18:33:30.000Z</time>
      </trkpt>
      <trkpt lat="48.86209" lon="2.35711">
        <ele>82.6</ele>
        <time>2013-04-01T18:33:31.000Z</time>
      </trkpt>
      <trkpt lat="48.86213" lon="2.35715">
        <ele>82.1</ele>
        <time>2013-04-01T18:33:32.000Z</time>
      </trkpt>
      <trkpt lat="48.86216" lon="2.35718">
        <ele>81.4</ele>
        <time>2013-04-01T18:33:33.000Z</time>
      </trkpt>
      <trkpt lat="48.8622" lon="2.35722">
        <ele>81.2</ele>
        <time>2013-04-01T18:33:34.000Z</time>
      </trkpt>
      <trkpt lat="48.86224" lon="2.35726">
        <ele>81.7</ele>
        <time>2013-04-01T18:33:35.000Z</time>
      </trkpt>
      <trkpt lat="48.86229" lon="2.35735">
        <ele>81.2</ele>
        <time>2013-04-01T18:33:36.000Z</time>
      </trkpt>
      <trkpt lat="48.86233" lon="2.3574">
        <ele>81</ele>
        <time>2013-04-01T18:33:37.000Z</time>
      </trkpt>
      <trkpt lat="48.86236" lon="2.35746">
        <ele>82.1</ele>
        <time>2013-04-01T18:33:38.000Z</time>
      </trkpt>
      <trkpt lat="48.86239" lon="2.35747">
        <ele>85.4</ele>
        <time>2013-04-01T18:33:39.000Z</time>
      </trkpt>
      <trkpt lat="48.86243" lon="2.3575">
        <ele>84.7</ele>
        <time>2013-04-01T18:33:40.000Z</time>
      </trkpt>
      <trkpt lat="48.86248" lon="2.35754">
        <ele>84.5</ele>
        <time>2013-04-01T18:33:41.000Z</time>
      </trkpt>
      <trkpt lat="48.86251" lon="2.35755">
        <ele>84.4</ele>
        <time>2013-04-01T18:33:42.000Z</time>
      </trkpt>
      <trkpt lat="48.86255" lon="2.35758">
        <ele>84.7</ele>
        <time>2013-04-01T18:33:43.000Z</time>
      </trkpt>
      <trkpt lat="48.86259" lon="2.35755">
        <ele>83.8</ele>
        <time>2013-04-01T18:33:44.000Z</time>
      </trkpt>
      <trkpt lat="48.86265" lon="2.35755">
        <ele>83.2</ele>
        <time>2013-04-01T18:33:45.000Z</time>
      </trkpt>
      <trkpt lat="48.86271" lon="2.35759">
        <ele>83.5</ele>
        <time>2013-04-01T18:33:46.000Z</time>
      </trkpt>
      <trkpt lat="48.86272" lon="2.35761">
        <ele>83.4</ele>
        <time>2013-04-01T18:33:47.000Z</time>
      </trkpt>
      <trkpt lat="48.86278" lon="2.3576">
        <ele>85.6</ele>
        <time>2013-04-01T18:33:48.000Z</time>
      </trkpt>
      <trkpt lat="48.8628" lon="2.3576">
        <ele>84.3</ele>
        <time>2013-04-01T18:33:49.000Z</time>
      </trkpt>
      <trkpt lat="48.86282" lon="2.35763">
        <ele>84.7</ele>
        <time>2013-04-01T18:33:50.000Z</time>
      </trkpt>
      <trkpt lat="48.86286" lon="2.35767">
        <ele>86</ele>
        <time>2013-04-01T18:33:51.000Z</time>
      </trkpt>
      <trkpt lat="48.8629" lon="2.35765">
        <ele>86.9</ele>
        <time>2013-04-01T18:33:52.000Z</time>
      </trkpt>
      <trkpt lat="48.86294" lon="2.35762">
        <ele>87.6</ele>
        <time>2013-04-01T18:33:53.000Z</time>
      </trkpt>
      <trkpt lat="48.86298" lon="2.35758">
        <ele>88.3</ele>
        <time>2013-04-01T18:33:54.000Z</time>
      </trkpt>
      <trkpt lat="48.86302" lon="2.35752">
        <ele>88</ele>
        <time>2013-04-01T18:33:55.000Z</time>
      </trkpt>
      <trkpt lat="48.86304" lon="2.35743">
        <ele>88.5</ele>
        <time>2013-04-01T18:33:56.000Z</time>
      </trkpt>
      <trkpt lat="48.86308" lon="2.35738">
        <ele>88.9</ele>
        <time>2013-04-01T18:33:57.000Z</time>
      </trkpt>
      <trkpt lat="48.86307" lon="2.35733">
        <ele>88.4</ele>
        <time>2013-04-01T18:33:58.000Z</time>
      </trkpt>
      <trkpt lat="48.86308" lon="2.35728">
        <ele>88.3</ele>
        <time>2013-04-01T18:33:59.000Z</time>
      </trkpt>
      <trkpt lat="48.86311" lon="2.35721">
        <ele>88.5</ele>
        <time>2013-04-01T18:34:00.000Z</time>
      </trkpt>
      <trkpt lat="48.86311" lon="2.35714">
        <ele>88.3</ele>
        <time>2013-04-01T18:34:01.000Z</time>
      </trkpt>
      <trkpt lat="48.86313" lon="2.35709">
        <ele>88.2</ele>
        <time>2013-04-01T18:34:02.000Z</time>
      </trkpt>
      <trkpt lat="48.86314" lon="2.35703">
        <ele>88.4</ele>
        <time>2013-04-01T18:34:03.000Z</time>
      </trkpt>
      <trkpt lat="48.86317" lon="2.35698">
        <ele>88.3</ele>
        <time>2013-04-01T18:34:04.000Z</time>
      </trkpt>
      <trkpt lat="48.8632" lon="2.35693">
        <ele>88.2</ele>
        <time>2013-04-01T18:34:05.000Z</time>
      </trkpt>
      <trkpt lat="48.86322" lon="2.35688">
        <ele>87.9</ele>
        <time>2013-04-01T18:34:06.000Z</time>
      </trkpt>
      <trkpt lat="48.86325" lon="2.35682">
        <ele>88.2</ele>
        <time>2013-04-01T18:34:07.000Z</time>
      </trkpt>
      <trkpt lat="48.86328" lon="2.35678">
        <ele>88.1</ele>
        <time>2013-04-01T18:34:08.000Z</time>
      </trkpt>
      <trkpt lat="48.8633" lon="2.35673">
        <ele>86.8</ele>
        <time>2013-04-01T18:34:09.000Z</time>
      </trkpt>
      <trkpt lat="48.86332" lon="2.35667">
        <ele>85.5</ele>
        <time>2013-04-01T18:34:10.000Z</time>
      </trkpt>
      <trkpt lat="48.86334" lon="2.35661">
        <ele>86.1</ele>
        <time>2013-04-01T18:34:11.000Z</time>
      </trkpt>
      <trkpt lat="48.86335" lon="2.35655">
        <ele>86.2</ele>
        <time>2013-04-01T18:34:12.000Z</time>
      </trkpt>
      <trkpt lat="48.86337" lon="2.35649">
        <ele>86.2</ele>
        <time>2013-04-01T18:34:13.000Z</time>
      </trkpt>
      <trkpt lat="48.86339" lon="2.35643">
        <ele>87.1</ele>
        <time>2013-04-01T18:34:14.000Z</time>
      </trkpt>
      <trkpt lat="48.86341" lon="2.35637">
        <ele>86.9</ele>
        <time>2013-04-01T18:34:15.000Z</time>
      </trkpt>
      <trkpt lat="48.86344" lon="2.35631">
        <ele>86.7</ele>
        <time>2013-04-01T18:34:16.000Z</time>
      </trkpt>
      <trkpt lat="48.86347" lon="2.35625">
        <ele>86.3</ele>
        <time>2013-04-01T18:34:17.000Z</time>
      </trkpt>
      <trkpt lat="48.86354" lon="2.35622">
        <ele>86.3</ele>
        <time>2013-04-01T18:34:18.000Z</time>
      </trkpt>
      <trkpt lat="48.86358" lon="2.35618">
        <ele>86.9</ele>
        <time>2013-04-01T18:34:19.000Z</time>
      </trkpt>
      <trkpt lat="48.86355" lon="2.35612">
        <ele>87.2</ele>
        <time>2013-04-01T18:34:20.000Z</time>
      </trkpt>
      <trkpt lat="48.8636" lon="2.3561">
        <ele>87.1</ele>
        <time>2013-04-01T18:34:21.000Z</time>
      </trkpt>
      <trkpt lat="48.86361" lon="2.35604">
        <ele>86.6</ele>
        <time>2013-04-01T18:34:22.000Z</time>
      </trkpt>
      <trkpt lat="48.86362" lon="2.35596">
        <ele>86.1</ele>
        <time>2013-04-01T18:34:23.000Z</time>
      </trkpt>
      <trkpt lat="48.86364" lon="2.35588">
        <ele>85.9</ele>
        <time>2013-04-01T18:34:24.000Z</time>
      </trkpt>
      <trkpt lat="48.8636" lon="2.35583">
        <ele>85.4</ele>
        <time>2013-04-01T18:34:25.000Z</time>
      </trkpt>
      <trkpt lat="48.86364" lon="2.35582">
        <ele>85</ele>
        <time>2013-04-01T18:34:26.000Z</time>
      </trkpt>
      <trkpt lat="48.8637" lon="2.35581">
        <ele>84.5</ele>
        <time>2013-04-01T18:34:27.000Z</time>
      </trkpt>
      <trkpt lat="48.86375" lon="2.35576">
        <ele>85.1</ele>
        <time>2013-04-01T18:34:28.000Z</time>
      </trkpt>
      <trkpt lat="48.86379" lon="2.35571">
        <ele>84.7</ele>
        <time>2013-04-01T18:34:29.000Z</time>
      </trkpt>
      <trkpt lat="48.86383" lon="2.35566">
        <ele>85.2</ele>
        <time>2013-04-01T18:34:30.000Z</time>
      </trkpt>
      <trkpt lat="48.86386" lon="2.35561">
        <ele>85.1</ele>
        <time>2013-04-01T18:34:31.000Z</time>
      </trkpt>
      <trkpt lat="48.8639" lon="2.35556">
        <ele>87.4</ele>
        <time>2013-04-01T18:34:32.000Z</time>
      </trkpt>
      <trkpt lat="48.86394" lon="2.35551">
        <ele>87.2</ele>
        <time>2013-04-01T18:34:33.000Z</time>
      </trkpt>
      <trkpt lat="48.86394" lon="2.35543">
        <ele>86.8</ele>
        <time>2013-04-01T18:34:34.000Z</time>
      </trkpt>
      <trkpt lat="48.86394" lon="2.35535">
        <ele>86.2</ele>
        <time>2013-04-01T18:34:35.000Z</time>
      </trkpt>
      <trkpt lat="48.86393" lon="2.35527">
        <ele>86</ele>
        <time>2013-04-01T18:34:36.000Z</time>
      </trkpt>
      <trkpt lat="48.86393" lon="2.35519">
        <ele>85.9</ele>
        <time>2013-04-01T18:34:37.000Z</time>
      </trkpt>
      <trkpt lat="48.86394" lon="2.35511">
        <ele>85.2</ele>
        <time>2013-04-01T18:34:38.000Z</time>
      </trkpt>
      <trkpt lat="48.86394" lon="2.35497">
        <ele>84.5</ele>
        <time>2013-04-01T18:34:39.000Z</time>
      </trkpt>
      <trkpt lat="48.86397" lon="2.35491">
        <ele>84.1</ele>
        <time>2013-04-01T18:34:40.000Z</time>
      </trkpt>
      <trkpt lat="48.86401" lon="2.35481">
        <ele>84.4</ele>
        <time>2013-04-01T18:34:41.000Z</time>
      </trkpt>
      <trkpt lat="48.86403" lon="2.35477">
        <ele>84.7</ele>
        <time>2013-04-01T18:34:42.000Z</time>
      </trkpt>
      <trkpt lat="48.86412" lon="2.35482">
        <ele>85.4</ele>
        <time>2013-04-01T18:34:43.000Z</time>
      </trkpt>
      <trkpt lat="48.86416" lon="2.35479">
        <ele>85.6</ele>
        <time>2013-04-01T18:34:44.000Z</time>
      </trkpt>
      <trkpt lat="48.86418" lon="2.35476">
        <ele>85.3</ele>
        <time>2013-04-01T18:34:45.000Z</time>
      </trkpt>
      <trkpt lat="48.86422" lon="2.35468">
        <ele>84.7</ele>
        <time>2013-04-01T18:34:46.000Z</time>
      </trkpt>
      <trkpt lat="48.86427" lon="2.35464">
        <ele>85.3</ele>
        <time>2013-04-01T18:34:47.000Z</time>
      </trkpt>
      <trkpt lat="48.86432" lon="2.35463">
        <ele>85</ele>
        <time>2013-04-01T18:34:48.000Z</time>
      </trkpt>
      <trkpt lat="48.86437" lon="2.35461">
        <ele>85</ele>
        <time>2013-04-01T18:34:49.000Z</time>
      </trkpt>
      <trkpt lat="48.8644" lon="2.35453">
        <ele>84.7</ele>
        <time>2013-04-01T18:34:50.000Z</time>
      </trkpt>
      <trkpt lat="48.86444" lon="2.35449">
        <ele>84.6</ele>
        <time>2013-04-01T18:34:51.000Z</time>
      </trkpt>
      <trkpt lat="48.86444" lon="2.3543">
        <ele>86.4</ele>
        <time>2013-04-01T18:34:52.000Z</time>
      </trkpt>
      <trkpt lat="48.86446" lon="2.35419">
        <ele>86.1</ele>
        <time>2013-04-01T18:34:53.000Z</time>
      </trkpt>
      <trkpt lat="48.86445" lon="2.35411">
        <ele>84.5</ele>
        <time>2013-04-01T18:34:54.000Z</time>
      </trkpt>
      <trkpt lat="48.86452" lon="2.3541">
        <ele>84.6</ele>
        <time>2013-04-01T18:34:55.000Z</time>
      </trkpt>
      <trkpt lat="48.86454" lon="2.35403">
        <ele>85.1</ele>
        <time>2013-04-01T18:34:56.000Z</time>
      </trkpt>
      <trkpt lat="48.86457" lon="2.35393">
        <ele>85</ele>
        <time>2013-04-01T18:34:57.000Z</time>
      </trkpt>
      <trkpt lat="48.86457" lon="2.35387">
        <ele>84.4</ele>
        <time>2013-04-01T18:34:58.000Z</time>
      </trkpt>
      <trkpt lat="48.86462" lon="2.35383">
        <ele>84.4</ele>
        <time>2013-04-01T18:34:59.000Z</time>
      </trkpt>
      <trkpt lat="48.86465" lon="2.35379">
        <ele>84.5</ele>
        <time>2013-04-01T18:35:00.000Z</time>
      </trkpt>
      <trkpt lat="48.86468" lon="2.35375">
        <ele>84.6</ele>
        <time>2013-04-01T18:35:01.000Z</time>
      </trkpt>
      <trkpt lat="48.8647" lon="2.35372">
        <ele>84.7</ele>
        <time>2013-04-01T18:35:02.000Z</time>
      </trkpt>
      <trkpt lat="48.86473" lon="2.35365">
        <ele>85.8</ele>
        <time>2013-04-01T18:35:03.000Z</time>
      </trkpt>
      <trkpt lat="48.86476" lon="2.35361">
        <ele>86.1</ele>
        <time>2013-04-01T18:35:04.000Z</time>
      </trkpt>
      <trkpt lat="48.86479" lon="2.35357">
        <ele>86.7</ele>
        <time>2013-04-01T18:35:05.000Z</time>
      </trkpt>
      <trkpt lat="48.86482" lon="2.35353">
        <ele>86.7</ele>
        <time>2013-04-01T18:35:06.000Z</time>
      </trkpt>
      <trkpt lat="48.86485" lon="2.35349">
        <ele>85.9</ele>
        <time>2013-04-01T18:35:07.000Z</time>
      </trkpt>
      <trkpt lat="48.86486" lon="2.35344">
        <ele>86.3</ele>
        <time>2013-04-01T18:35:09.000Z</time>
      </trkpt>
      <trkpt lat="48.86455" lon="2.35337">
        <ele>84.6</ele>
        <time>2013-04-01T18:35:10.000Z</time>
      </trkpt>
      <trkpt lat="48.86422" lon="2.3532">
        <ele>78.2</ele>
        <time>2013-04-01T18:35:11.000Z</time>
      </trkpt>
      <trkpt lat="48.86418" lon="2.35318">
        <ele>78</ele>
        <time>2013-04-01T18:35:13.000Z</time>
      </trkpt>
      <trkpt lat="48.86415" lon="2.35317">
        <ele>77.5</ele>
        <time>2013-04-01T18:35:14.000Z</time>
      </trkpt>
      <trkpt lat="48.86411" lon="2.35316">
        <ele>77.6</ele>
        <time>2013-04-01T18:35:15.000Z</time>
      </trkpt>
      <trkpt lat="48.86408" lon="2.35315">
        <ele>77.3</ele>
        <time>2013-04-01T18:35:16.000Z</time>
      </trkpt>
      <trkpt lat="48.86404" lon="2.35312">
        <ele>77</ele>
        <time>2013-04-01T18:35:17.000Z</time>
      </trkpt>
      <trkpt lat="48.864" lon="2.35311">
        <ele>76.7</ele>
        <time>2013-04-01T18:35:18.000Z</time>
      </trkpt>
      <trkpt lat="48.86395" lon="2.35308">
        <ele>76.9</ele>
        <time>2013-04-01T18:35:19.000Z</time>
      </trkpt>
      <trkpt lat="48.86391" lon="2.35306">
        <ele>77</ele>
        <time>2013-04-01T18:35:20.000Z</time>
      </trkpt>
      <trkpt lat="48.86386" lon="2.35304">
        <ele>76.9</ele>
        <time>2013-04-01T18:35:21.000Z</time>
      </trkpt>
      <trkpt lat="48.86382" lon="2.35301">
        <ele>77.5</ele>
        <time>2013-04-01T18:35:22.000Z</time>
      </trkpt>
      <trkpt lat="48.86378" lon="2.35298">
        <ele>77.5</ele>
        <time>2013-04-01T18:35:23.000Z</time>
      </trkpt>
      <trkpt lat="48.86374" lon="2.35295">
        <ele>77.5</ele>
        <time>2013-04-01T18:35:24.000Z</time>
      </trkpt>
      <trkpt lat="48.8637" lon="2.35292">
        <ele>77.4</ele>
        <time>2013-04-01T18:35:25.000Z</time>
      </trkpt>
      <trkpt lat="48.86366" lon="2.35289">
        <ele>77.4</ele>
        <time>2013-04-01T18:35:26.000Z</time>
      </trkpt>
      <trkpt lat="48.86362" lon="2.35287">
        <ele>77.4</ele>
        <time>2013-04-01T18:35:27.000Z</time>
      </trkpt>
      <trkpt lat="48.86358" lon="2.35284">
        <ele>77.4</ele>
        <time>2013-04-01T18:35:28.000Z</time>
      </trkpt>
      <trkpt lat="48.86355" lon="2.35282">
        <ele>77.4</ele>
        <time>2013-04-01T18:35:29.000Z</time>
      </trkpt>
      <trkpt lat="48.86351" lon="2.3528">
        <ele>77.4</ele>
        <time>2013-04-01T18:35:30.000Z</time>
      </trkpt>
      <trkpt lat="48.86347" lon="2.35276">
        <ele>77.3</ele>
        <time>2013-04-01T18:35:31.000Z</time>
      </trkpt>
      <trkpt lat="48.86343" lon="2.35273">
        <ele>77.4</ele>
        <time>2013-04-01T18:35:32.000Z</time>
      </trkpt>
      <trkpt lat="48.86339" lon="2.35269">
        <ele>77.3</ele>
        <time>2013-04-01T18:35:33.000Z</time>
      </trkpt>
      <trkpt lat="48.86335" lon="2.35265">
        <ele>77.7</ele>
        <time>2013-04-01T18:35:34.000Z</time>
      </trkpt>
      <trkpt lat="48.86331" lon="2.35263">
        <ele>77.7</ele>
        <time>2013-04-01T18:35:35.000Z</time>
      </trkpt>
      <trkpt lat="48.86324" lon="2.35259">
        <ele>77.8</ele>
        <time>2013-04-01T18:35:36.000Z</time>
      </trkpt>
      <trkpt lat="48.8631" lon="2.35258">
        <ele>78</ele>
        <time>2013-04-01T18:35:37.000Z</time>
      </trkpt>
      <trkpt lat="48.86307" lon="2.35243">
        <ele>80.7</ele>
        <time>2013-04-01T18:35:38.000Z</time>
      </trkpt>
      <trkpt lat="48.86299" lon="2.35238">
        <ele>82.9</ele>
        <time>2013-04-01T18:35:39.000Z</time>
      </trkpt>
      <trkpt lat="48.86302" lon="2.35221">
        <ele>83</ele>
        <time>2013-04-01T18:35:40.000Z</time>
      </trkpt>
      <trkpt lat="48.86303" lon="2.35216">
        <ele>75</ele>
        <time>2013-04-01T18:35:42.000Z</time>
      </trkpt>
      <trkpt lat="48.86303" lon="2.35209">
        <ele>72.3</ele>
        <time>2013-04-01T18:35:43.000Z</time>
      </trkpt>
      <trkpt lat="48.86305" lon="2.35202">
        <ele>72.4</ele>
        <time>2013-04-01T18:35:44.000Z</time>
      </trkpt>
      <trkpt lat="48.86304" lon="2.35193">
        <ele>70.6</ele>
        <time>2013-04-01T18:35:45.000Z</time>
      </trkpt>
      <trkpt lat="48.86313" lon="2.35189">
        <ele>71.5</ele>
        <time>2013-04-01T18:35:46.000Z</time>
      </trkpt>
      <trkpt lat="48.86315" lon="2.35181">
        <ele>69.6</ele>
        <time>2013-04-01T18:35:47.000Z</time>
      </trkpt>
      <trkpt lat="48.86314" lon="2.35173">
        <ele>68.7</ele>
        <time>2013-04-01T18:35:48.000Z</time>
      </trkpt>
      <trkpt lat="48.86319" lon="2.35168">
        <ele>67.6</ele>
        <time>2013-04-01T18:35:49.000Z</time>
      </trkpt>
      <trkpt lat="48.86322" lon="2.35163">
        <ele>68.5</ele>
        <time>2013-04-01T18:35:50.000Z</time>
      </trkpt>
      <trkpt lat="48.86324" lon="2.35158">
        <ele>70.3</ele>
        <time>2013-04-01T18:35:51.000Z</time>
      </trkpt>
      <trkpt lat="48.86326" lon="2.35152">
        <ele>71.3</ele>
        <time>2013-04-01T18:35:52.000Z</time>
      </trkpt>
      <trkpt lat="48.8633" lon="2.35146">
        <ele>69.5</ele>
        <time>2013-04-01T18:35:53.000Z</time>
      </trkpt>
      <trkpt lat="48.86331" lon="2.35141">
        <ele>68.9</ele>
        <time>2013-04-01T18:35:54.000Z</time>
      </trkpt>
      <trkpt lat="48.86333" lon="2.35137">
        <ele>68.6</ele>
        <time>2013-04-01T18:35:55.000Z</time>
      </trkpt>
      <trkpt lat="48.86337" lon="2.35136">
        <ele>70.4</ele>
        <time>2013-04-01T18:35:56.000Z</time>
      </trkpt>
      <trkpt lat="48.86337" lon="2.35131">
        <ele>69.7</ele>
        <time>2013-04-01T18:35:57.000Z</time>
      </trkpt>
      <trkpt lat="48.86338" lon="2.35127">
        <ele>69</ele>
        <time>2013-04-01T18:35:58.000Z</time>
      </trkpt>
      <trkpt lat="48.8634" lon="2.35126">
        <ele>69</ele>
        <time>2013-04-01T18:35:59.000Z</time>
      </trkpt>
      <trkpt lat="48.86342" lon="2.35121">
        <ele>66.6</ele>
        <time>2013-04-01T18:36:01.000Z</time>
      </trkpt>
      <trkpt lat="48.86343" lon="2.35118">
        <ele>65.3</ele>
        <time>2013-04-01T18:36:02.000Z</time>
      </trkpt>
      <trkpt lat="48.86345" lon="2.35114">
        <ele>62.8</ele>
        <time>2013-04-01T18:36:04.000Z</time>
      </trkpt>
      <trkpt lat="48.86346" lon="2.35112">
        <ele>62.1</ele>
        <time>2013-04-01T18:36:05.000Z</time>
      </trkpt>
      <trkpt lat="48.86347" lon="2.35107">
        <ele>63.9</ele>
        <time>2013-04-01T18:36:21.000Z</time>
      </trkpt>
      <trkpt lat="48.86348" lon="2.35104">
        <ele>63.3</ele>
        <time>2013-04-01T18:36:22.000Z</time>
      </trkpt>
      <trkpt lat="48.86349" lon="2.35101">
        <ele>63.8</ele>
        <time>2013-04-01T18:36:23.000Z</time>
      </trkpt>
      <trkpt lat="48.8635" lon="2.35097">
        <ele>61.9</ele>
        <time>2013-04-01T18:36:24.000Z</time>
      </trkpt>
      <trkpt lat="48.86352" lon="2.35091">
        <ele>61.6</ele>
        <time>2013-04-01T18:36:25.000Z</time>
      </trkpt>
      <trkpt lat="48.86354" lon="2.35085">
        <ele>62.4</ele>
        <time>2013-04-01T18:36:26.000Z</time>
      </trkpt>
      <trkpt lat="48.86355" lon="2.35079">
        <ele>62.7</ele>
        <time>2013-04-01T18:36:27.000Z</time>
      </trkpt>
      <trkpt lat="48.86356" lon="2.35072">
        <ele>62.5</ele>
        <time>2013-04-01T18:36:28.000Z</time>
      </trkpt>
      <trkpt lat="48.86357" lon="2.35066">
        <ele>62.9</ele>
        <time>2013-04-01T18:36:29.000Z</time>
      </trkpt>
      <trkpt lat="48.86359" lon="2.35059">
        <ele>62.7</ele>
        <time>2013-04-01T18:36:30.000Z</time>
      </trkpt>
      <trkpt lat="48.86363" lon="2.35048">
        <ele>63.4</ele>
        <time>2013-04-01T18:36:31.000Z</time>
      </trkpt>
      <trkpt lat="48.86365" lon="2.35041">
        <ele>63.3</ele>
        <time>2013-04-01T18:36:32.000Z</time>
      </trkpt>
      <trkpt lat="48.86367" lon="2.35031">
        <ele>63.5</ele>
        <time>2013-04-01T18:36:33.000Z</time>
      </trkpt>
      <trkpt lat="48.86369" lon="2.35024">
        <ele>63.3</ele>
        <time>2013-04-01T18:36:34.000Z</time>
      </trkpt>
      <trkpt lat="48.8637" lon="2.3502">
        <ele>62.8</ele>
        <time>2013-04-01T18:36:35.000Z</time>
      </trkpt>
      <trkpt lat="48.86372" lon="2.35016">
        <ele>63.9</ele>
        <time>2013-04-01T18:36:36.000Z</time>
      </trkpt>
      <trkpt lat="48.86387" lon="2.35012">
        <ele>66.9</ele>
        <time>2013-04-01T18:36:40.000Z</time>
      </trkpt>
      <trkpt lat="48.86392" lon="2.35014">
        <ele>67.4</ele>
        <time>2013-04-01T18:36:41.000Z</time>
      </trkpt>
      <trkpt lat="48.86395" lon="2.35014">
        <ele>67.3</ele>
        <time>2013-04-01T18:36:42.000Z</time>
      </trkpt>
      <trkpt lat="48.864" lon="2.35014">
        <ele>67.9</ele>
        <time>2013-04-01T18:36:43.000Z</time>
      </trkpt>
      <trkpt lat="48.86403" lon="2.35014">
        <ele>67.9</ele>
        <time>2013-04-01T18:36:45.000Z</time>
      </trkpt>
      <trkpt lat="48.86405" lon="2.35016">
        <ele>68.4</ele>
        <time>2013-04-01T18:36:46.000Z</time>
      </trkpt>
      <trkpt lat="48.86408" lon="2.3502">
        <ele>68.1</ele>
        <time>2013-04-01T18:36:48.000Z</time>
      </trkpt>
      <trkpt lat="48.8641" lon="2.35021">
        <ele>68.9</ele>
        <time>2013-04-01T18:36:49.000Z</time>
      </trkpt>
      <trkpt lat="48.86413" lon="2.35024">
        <ele>70.5</ele>
        <time>2013-04-01T18:36:51.000Z</time>
      </trkpt>
      <trkpt lat="48.86414" lon="2.35025">
        <ele>72.9</ele>
        <time>2013-04-01T18:36:52.000Z</time>
      </trkpt>
      <trkpt lat="48.86418" lon="2.35028">
        <ele>74.7</ele>
        <time>2013-04-01T18:36:55.000Z</time>
      </trkpt>
      <trkpt lat="48.8642" lon="2.35029">
        <ele>74.8</ele>
        <time>2013-04-01T18:36:56.000Z</time>
      </trkpt>
      <trkpt lat="48.86424" lon="2.35029">
        <ele>75</ele>
        <time>2013-04-01T18:36:58.000Z</time>
      </trkpt>
      <trkpt lat="48.86426" lon="2.35028">
        <ele>74.9</ele>
        <time>2013-04-01T18:36:59.000Z</time>
      </trkpt>
      <trkpt lat="48.86429" lon="2.35025">
        <ele>74</ele>
        <time>2013-04-01T18:37:01.000Z</time>
      </trkpt>
      <trkpt lat="48.86431" lon="2.35025">
        <ele>73.9</ele>
        <time>2013-04-01T18:37:02.000Z</time>
      </trkpt>
      <trkpt lat="48.86434" lon="2.35024">
        <ele>73.2</ele>
        <time>2013-04-01T18:37:03.000Z</time>
      </trkpt>
      <trkpt lat="48.86438" lon="2.35023">
        <ele>72.4</ele>
        <time>2013-04-01T18:37:04.000Z</time>
      </trkpt>
      <trkpt lat="48.86442" lon="2.35024">
        <ele>71.3</ele>
        <time>2013-04-01T18:37:05.000Z</time>
      </trkpt>
      <trkpt lat="48.86446" lon="2.35025">
        <ele>70.6</ele>
        <time>2013-04-01T18:37:06.000Z</time>
      </trkpt>
      <trkpt lat="48.86449" lon="2.35026">
        <ele>70</ele>
        <time>2013-04-01T18:37:07.000Z</time>
      </trkpt>
      <trkpt lat="48.86453" lon="2.35027">
        <ele>72</ele>
        <time>2013-04-01T18:37:08.000Z</time>
      </trkpt>
      <trkpt lat="48.86456" lon="2.35028">
        <ele>71.1</ele>
        <time>2013-04-01T18:37:09.000Z</time>
      </trkpt>
      <trkpt lat="48.8646" lon="2.35027">
        <ele>69.6</ele>
        <time>2013-04-01T18:37:10.000Z</time>
      </trkpt>
      <trkpt lat="48.86463" lon="2.35027">
        <ele>68.9</ele>
        <time>2013-04-01T18:37:11.000Z</time>
      </trkpt>
      <trkpt lat="48.86467" lon="2.35027">
        <ele>68.8</ele>
        <time>2013-04-01T18:37:12.000Z</time>
      </trkpt>
      <trkpt lat="48.8647" lon="2.35028">
        <ele>68.6</ele>
        <time>2013-04-01T18:37:13.000Z</time>
      </trkpt>
      <trkpt lat="48.86474" lon="2.35029">
        <ele>68.1</ele>
        <time>2013-04-01T18:37:14.000Z</time>
      </trkpt>
      <trkpt lat="48.86478" lon="2.35029">
        <ele>67.8</ele>
        <time>2013-04-01T18:37:15.000Z</time>
      </trkpt>
      <trkpt lat="48.86481" lon="2.3503">
        <ele>67.7</ele>
        <time>2013-04-01T18:37:16.000Z</time>
      </trkpt>
      <trkpt lat="48.86484" lon="2.35031">
        <ele>67.1</ele>
        <time>2013-04-01T18:37:17.000Z</time>
      </trkpt>
      <trkpt lat="48.86487" lon="2.35032">
        <ele>67.5</ele>
        <time>2013-04-01T18:37:18.000Z</time>
      </trkpt>
      <trkpt lat="48.86491" lon="2.35033">
        <ele>68.1</ele>
        <time>2013-04-01T18:37:19.000Z</time>
      </trkpt>
      <trkpt lat="48.86494" lon="2.35035">
        <ele>68.7</ele>
        <time>2013-04-01T18:37:20.000Z</time>
      </trkpt>
      <trkpt lat="48.86497" lon="2.35038">
        <ele>70.4</ele>
        <time>2013-04-01T18:37:21.000Z</time>
      </trkpt>
      <trkpt lat="48.86501" lon="2.35042">
        <ele>71.3</ele>
        <time>2013-04-01T18:37:22.000Z</time>
      </trkpt>
      <trkpt lat="48.86506" lon="2.35045">
        <ele>73.3</ele>
        <time>2013-04-01T18:37:23.000Z</time>
      </trkpt>
      <trkpt lat="48.86511" lon="2.35048">
        <ele>74.3</ele>
        <time>2013-04-01T18:37:24.000Z</time>
      </trkpt>
      <trkpt lat="48.86516" lon="2.35051">
        <ele>74.3</ele>
        <time>2013-04-01T18:37:25.000Z</time>
      </trkpt>
      <trkpt lat="48.8652" lon="2.35054">
        <ele>75.6</ele>
        <time>2013-04-01T18:37:26.000Z</time>
      </trkpt>
      <trkpt lat="48.86525" lon="2.35057">
        <ele>75.3</ele>
        <time>2013-04-01T18:37:27.000Z</time>
      </trkpt>
      <trkpt lat="48.86529" lon="2.35058">
        <ele>75.3</ele>
        <time>2013-04-01T18:37:28.000Z</time>
      </trkpt>
      <trkpt lat="48.86533" lon="2.35061">
        <ele>75.3</ele>
        <time>2013-04-01T18:37:29.000Z</time>
      </trkpt>
      <trkpt lat="48.86536" lon="2.35066">
        <ele>77.3</ele>
        <time>2013-04-01T18:37:30.000Z</time>
      </trkpt>
      <trkpt lat="48.86539" lon="2.35071">
        <ele>77.9</ele>
        <time>2013-04-01T18:37:31.000Z</time>
      </trkpt>
      <trkpt lat="48.86542" lon="2.35076">
        <ele>79</ele>
        <time>2013-04-01T18:37:32.000Z</time>
      </trkpt>
      <trkpt lat="48.86547" lon="2.3508">
        <ele>79.1</ele>
        <time>2013-04-01T18:37:33.000Z</time>
      </trkpt>
      <trkpt lat="48.86557" lon="2.35087">
        <ele>81.2</ele>
        <time>2013-04-01T18:37:34.000Z</time>
      </trkpt>
      <trkpt lat="48.86563" lon="2.35083">
        <ele>82.1</ele>
        <time>2013-04-01T18:37:35.000Z</time>
      </trkpt>
      <trkpt lat="48.86568" lon="2.35084">
        <ele>81.8</ele>
        <time>2013-04-01T18:37:36.000Z</time>
      </trkpt>
      <trkpt lat="48.86578" lon="2.35099">
        <ele>77.7</ele>
        <time>2013-04-01T18:37:39.000Z</time>
      </trkpt>
      <trkpt lat="48.86581" lon="2.35103">
        <ele>79</ele>
        <time>2013-04-01T18:37:40.000Z</time>
      </trkpt>
      <trkpt lat="48.86584" lon="2.35107">
        <ele>80.1</ele>
        <time>2013-04-01T18:37:41.000Z</time>
      </trkpt>
      <trkpt lat="48.86588" lon="2.35109">
        <ele>80.6</ele>
        <time>2013-04-01T18:37:42.000Z</time>
      </trkpt>
      <trkpt lat="48.86592" lon="2.35117">
        <ele>82.2</ele>
        <time>2013-04-01T18:37:43.000Z</time>
      </trkpt>
      <trkpt lat="48.86596" lon="2.3512">
        <ele>81.5</ele>
        <time>2013-04-01T18:37:44.000Z</time>
      </trkpt>
      <trkpt lat="48.866" lon="2.3512">
        <ele>82.6</ele>
        <time>2013-04-01T18:37:45.000Z</time>
      </trkpt>
      <trkpt lat="48.86604" lon="2.35122">
        <ele>82.8</ele>
        <time>2013-04-01T18:37:46.000Z</time>
      </trkpt>
      <trkpt lat="48.86608" lon="2.35123">
        <ele>83</ele>
        <time>2013-04-01T18:37:47.000Z</time>
      </trkpt>
      <trkpt lat="48.86611" lon="2.35125">
        <ele>83.2</ele>
        <time>2013-04-01T18:37:48.000Z</time>
      </trkpt>
      <trkpt lat="48.86615" lon="2.35128">
        <ele>83.3</ele>
        <time>2013-04-01T18:37:49.000Z</time>
      </trkpt>
      <trkpt lat="48.86624" lon="2.35131">
        <ele>81.8</ele>
        <time>2013-04-01T18:37:53.000Z</time>
      </trkpt>
      <trkpt lat="48.86628" lon="2.35135">
        <ele>83.5</ele>
        <time>2013-04-01T18:37:57.000Z</time>
      </trkpt>
      <trkpt lat="48.86628" lon="2.35136">
        <ele>84.1</ele>
        <time>2013-04-01T18:37:58.000Z</time>
      </trkpt>
      <trkpt lat="48.86628" lon="2.3514">
        <ele>81</ele>
        <time>2013-04-01T18:38:01.000Z</time>
      </trkpt>
      <trkpt lat="48.86628" lon="2.35142">
        <ele>81</ele>
        <time>2013-04-01T18:38:02.000Z</time>
      </trkpt>
      <trkpt lat="48.86628" lon="2.35147">
        <ele>80.6</ele>
        <time>2013-04-01T18:38:03.000Z</time>
      </trkpt>
      <trkpt lat="48.86628" lon="2.35152">
        <ele>78.4</ele>
        <time>2013-04-01T18:38:04.000Z</time>
      </trkpt>
      <trkpt lat="48.86628" lon="2.35157">
        <ele>76.4</ele>
        <time>2013-04-01T18:38:05.000Z</time>
      </trkpt>
      <trkpt lat="48.86629" lon="2.35162">
        <ele>76.8</ele>
        <time>2013-04-01T18:38:06.000Z</time>
      </trkpt>
      <trkpt lat="48.86629" lon="2.35167">
        <ele>76.7</ele>
        <time>2013-04-01T18:38:07.000Z</time>
      </trkpt>
      <trkpt lat="48.86629" lon="2.35172">
        <ele>79.7</ele>
        <time>2013-04-01T18:38:08.000Z</time>
      </trkpt>
      <trkpt lat="48.86629" lon="2.35177">
        <ele>78.8</ele>
        <time>2013-04-01T18:38:09.000Z</time>
      </trkpt>
      <trkpt lat="48.86629" lon="2.35183">
        <ele>78.7</ele>
        <time>2013-04-01T18:38:10.000Z</time>
      </trkpt>
      <trkpt lat="48.86629" lon="2.35188">
        <ele>79</ele>
        <time>2013-04-01T18:38:11.000Z</time>
      </trkpt>
      <trkpt lat="48.86629" lon="2.35194">
        <ele>79.5</ele>
        <time>2013-04-01T18:38:12.000Z</time>
      </trkpt>
      <trkpt lat="48.86628" lon="2.352">
        <ele>79.6</ele>
        <time>2013-04-01T18:38:13.000Z</time>
      </trkpt>
      <trkpt lat="48.86628" lon="2.35205">
        <ele>79.7</ele>
        <time>2013-04-01T18:38:14.000Z</time>
      </trkpt>
      <trkpt lat="48.86629" lon="2.35211">
        <ele>79.3</ele>
        <time>2013-04-01T18:38:15.000Z</time>
      </trkpt>
      <trkpt lat="48.86629" lon="2.35216">
        <ele>79.7</ele>
        <time>2013-04-01T18:38:16.000Z</time>
      </trkpt>
      <trkpt lat="48.86629" lon="2.35221">
        <ele>80.2</ele>
        <time>2013-04-01T18:38:17.000Z</time>
      </trkpt>
      <trkpt lat="48.86629" lon="2.35226">
        <ele>80.7</ele>
        <time>2013-04-01T18:38:18.000Z</time>
      </trkpt>
      <trkpt lat="48.86629" lon="2.3523">
        <ele>81.1</ele>
        <time>2013-04-01T18:38:19.000Z</time>
      </trkpt>
      <trkpt lat="48.8663" lon="2.35234">
        <ele>81.4</ele>
        <time>2013-04-01T18:38:20.000Z</time>
      </trkpt>
      <trkpt lat="48.8663" lon="2.35241">
        <ele>81</ele>
        <time>2013-04-01T18:38:23.000Z</time>
      </trkpt>
      <trkpt lat="48.8663" lon="2.35242">
        <ele>81.6</ele>
        <time>2013-04-01T18:38:24.000Z</time>
      </trkpt>
      <trkpt lat="48.8663" lon="2.35246">
        <ele>84.1</ele>
        <time>2013-04-01T18:38:52.000Z</time>
      </trkpt>
      <trkpt lat="48.86629" lon="2.35248">
        <ele>83.4</ele>
        <time>2013-04-01T18:38:53.000Z</time>
      </trkpt>
      <trkpt lat="48.86628" lon="2.35251">
        <ele>82.6</ele>
        <time>2013-04-01T18:38:54.000Z</time>
      </trkpt>
      <trkpt lat="48.86627" lon="2.35256">
        <ele>82.1</ele>
        <time>2013-04-01T18:38:55.000Z</time>
      </trkpt>
      <trkpt lat="48.86626" lon="2.35261">
        <ele>81.8</ele>
        <time>2013-04-01T18:38:56.000Z</time>
      </trkpt>
      <trkpt lat="48.86625" lon="2.35266">
        <ele>81.6</ele>
        <time>2013-04-01T18:38:57.000Z</time>
      </trkpt>
      <trkpt lat="48.86624" lon="2.35272">
        <ele>81.4</ele>
        <time>2013-04-01T18:38:58.000Z</time>
      </trkpt>
      <trkpt lat="48.86623" lon="2.35277">
        <ele>80.6</ele>
        <time>2013-04-01T18:38:59.000Z</time>
      </trkpt>
      <trkpt lat="48.86622" lon="2.35283">
        <ele>81</ele>
        <time>2013-04-01T18:39:00.000Z</time>
      </trkpt>
      <trkpt lat="48.86621" lon="2.35288">
        <ele>80.4</ele>
        <time>2013-04-01T18:39:01.000Z</time>
      </trkpt>
      <trkpt lat="48.8662" lon="2.35294">
        <ele>80.6</ele>
        <time>2013-04-01T18:39:02.000Z</time>
      </trkpt>
      <trkpt lat="48.86619" lon="2.35301">
        <ele>80.4</ele>
        <time>2013-04-01T18:39:03.000Z</time>
      </trkpt>
      <trkpt lat="48.86618" lon="2.35307">
        <ele>80.2</ele>
        <time>2013-04-01T18:39:04.000Z</time>
      </trkpt>
      <trkpt lat="48.86617" lon="2.35313">
        <ele>79.8</ele>
        <time>2013-04-01T18:39:05.000Z</time>
      </trkpt>
      <trkpt lat="48.86615" lon="2.3532">
        <ele>79.4</ele>
        <time>2013-04-01T18:39:06.000Z</time>
      </trkpt>
      <trkpt lat="48.86614" lon="2.35327">
        <ele>79.5</ele>
        <time>2013-04-01T18:39:07.000Z</time>
      </trkpt>
      <trkpt lat="48.86612" lon="2.35338">
        <ele>79.9</ele>
        <time>2013-04-01T18:39:08.000Z</time>
      </trkpt>
      <trkpt lat="48.86611" lon="2.35344">
        <ele>79.3</ele>
        <time>2013-04-01T18:39:09.000Z</time>
      </trkpt>
      <trkpt lat="48.86609" lon="2.35352">
        <ele>78.9</ele>
        <time>2013-04-01T18:39:10.000Z</time>
      </trkpt>
      <trkpt lat="48.86606" lon="2.35359">
        <ele>78.6</ele>
        <time>2013-04-01T18:39:11.000Z</time>
      </trkpt>
      <trkpt lat="48.86605" lon="2.35364">
        <ele>77.3</ele>
        <time>2013-04-01T18:39:12.000Z</time>
      </trkpt>
      <trkpt lat="48.86604" lon="2.35371">
        <ele>76.9</ele>
        <time>2013-04-01T18:39:13.000Z</time>
      </trkpt>
      <trkpt lat="48.86603" lon="2.35379">
        <ele>78.1</ele>
        <time>2013-04-01T18:39:14.000Z</time>
      </trkpt>
      <trkpt lat="48.86602" lon="2.35387">
        <ele>78.9</ele>
        <time>2013-04-01T18:39:15.000Z</time>
      </trkpt>
      <trkpt lat="48.866" lon="2.35396">
        <ele>82.3</ele>
        <time>2013-04-01T18:39:16.000Z</time>
      </trkpt>
      <trkpt lat="48.86598" lon="2.35403">
        <ele>81.9</ele>
        <time>2013-04-01T18:39:17.000Z</time>
      </trkpt>
      <trkpt lat="48.86596" lon="2.35409">
        <ele>81.9</ele>
        <time>2013-04-01T18:39:18.000Z</time>
      </trkpt>
      <trkpt lat="48.86595" lon="2.35416">
        <ele>81.8</ele>
        <time>2013-04-01T18:39:19.000Z</time>
      </trkpt>
      <trkpt lat="48.86594" lon="2.35422">
        <ele>81.3</ele>
        <time>2013-04-01T18:39:20.000Z</time>
      </trkpt>
      <trkpt lat="48.86593" lon="2.35428">
        <ele>81.4</ele>
        <time>2013-04-01T18:39:21.000Z</time>
      </trkpt>
      <trkpt lat="48.8659" lon="2.35434">
        <ele>81</ele>
        <time>2013-04-01T18:39:22.000Z</time>
      </trkpt>
      <trkpt lat="48.86588" lon="2.3544">
        <ele>80.7</ele>
        <time>2013-04-01T18:39:23.000Z</time>
      </trkpt>
      <trkpt lat="48.86587" lon="2.35444">
        <ele>79.3</ele>
        <time>2013-04-01T18:39:24.000Z</time>
      </trkpt>
      <trkpt lat="48.86586" lon="2.3545">
        <ele>77.9</ele>
        <time>2013-04-01T18:39:25.000Z</time>
      </trkpt>
      <trkpt lat="48.86585" lon="2.35455">
        <ele>77.5</ele>
        <time>2013-04-01T18:39:26.000Z</time>
      </trkpt>
      <trkpt lat="48.86584" lon="2.35461">
        <ele>79.3</ele>
        <time>2013-04-01T18:39:27.000Z</time>
      </trkpt>
      <trkpt lat="48.86583" lon="2.35467">
        <ele>78.4</ele>
        <time>2013-04-01T18:39:28.000Z</time>
      </trkpt>
      <trkpt lat="48.86581" lon="2.35473">
        <ele>78</ele>
        <time>2013-04-01T18:39:29.000Z</time>
      </trkpt>
      <trkpt lat="48.8658" lon="2.35479">
        <ele>77.5</ele>
        <time>2013-04-01T18:39:30.000Z</time>
      </trkpt>
      <trkpt lat="48.86579" lon="2.35485">
        <ele>77.3</ele>
        <time>2013-04-01T18:39:31.000Z</time>
      </trkpt>
      <trkpt lat="48.86578" lon="2.35491">
        <ele>76.5</ele>
        <time>2013-04-01T18:39:32.000Z</time>
      </trkpt>
      <trkpt lat="48.86576" lon="2.35497">
        <ele>77</ele>
        <time>2013-04-01T18:39:33.000Z</time>
      </trkpt>
      <trkpt lat="48.86575" lon="2.35504">
        <ele>76.7</ele>
        <time>2013-04-01T18:39:34.000Z</time>
      </trkpt>
      <trkpt lat="48.86573" lon="2.3551">
        <ele>77.3</ele>
        <time>2013-04-01T18:39:35.000Z</time>
      </trkpt>
      <trkpt lat="48.86572" lon="2.35516">
        <ele>77.7</ele>
        <time>2013-04-01T18:39:36.000Z</time>
      </trkpt>
      <trkpt lat="48.86571" lon="2.35522">
        <ele>77.4</ele>
        <time>2013-04-01T18:39:37.000Z</time>
      </trkpt>
      <trkpt lat="48.8657" lon="2.35528">
        <ele>77.7</ele>
        <time>2013-04-01T18:39:38.000Z</time>
      </trkpt>
      <trkpt lat="48.8657" lon="2.35535">
        <ele>77.8</ele>
        <time>2013-04-01T18:39:39.000Z</time>
      </trkpt>
      <trkpt lat="48.86568" lon="2.35542">
        <ele>78.2</ele>
        <time>2013-04-01T18:39:40.000Z</time>
      </trkpt>
      <trkpt lat="48.86565" lon="2.35551">
        <ele>78.1</ele>
        <time>2013-04-01T18:39:41.000Z</time>
      </trkpt>
      <trkpt lat="48.86561" lon="2.35555">
        <ele>75.9</ele>
        <time>2013-04-01T18:39:42.000Z</time>
      </trkpt>
      <trkpt lat="48.86558" lon="2.35561">
        <ele>74.7</ele>
        <time>2013-04-01T18:39:43.000Z</time>
      </trkpt>
      <trkpt lat="48.86557" lon="2.3557">
        <ele>75.9</ele>
        <time>2013-04-01T18:39:44.000Z</time>
      </trkpt>
      <trkpt lat="48.86555" lon="2.3558">
        <ele>77</ele>
        <time>2013-04-01T18:39:45.000Z</time>
      </trkpt>
      <trkpt lat="48.86553" lon="2.35588">
        <ele>77.6</ele>
        <time>2013-04-01T18:39:46.000Z</time>
      </trkpt>
      <trkpt lat="48.86552" lon="2.35597">
        <ele>76.7</ele>
        <time>2013-04-01T18:39:47.000Z</time>
      </trkpt>
      <trkpt lat="48.8655" lon="2.35605">
        <ele>77.6</ele>
        <time>2013-04-01T18:39:48.000Z</time>
      </trkpt>
      <trkpt lat="48.86549" lon="2.35613">
        <ele>76.8</ele>
        <time>2013-04-01T18:39:49.000Z</time>
      </trkpt>
      <trkpt lat="48.86547" lon="2.35622">
        <ele>77</ele>
        <time>2013-04-01T18:39:50.000Z</time>
      </trkpt>
      <trkpt lat="48.86546" lon="2.35632">
        <ele>77.1</ele>
        <time>2013-04-01T18:39:51.000Z</time>
      </trkpt>
      <trkpt lat="48.86544" lon="2.35641">
        <ele>77.4</ele>
        <time>2013-04-01T18:39:52.000Z</time>
      </trkpt>
      <trkpt lat="48.86542" lon="2.35649">
        <ele>77.7</ele>
        <time>2013-04-01T18:39:53.000Z</time>
      </trkpt>
      <trkpt lat="48.86541" lon="2.35657">
        <ele>77.4</ele>
        <time>2013-04-01T18:39:54.000Z</time>
      </trkpt>
      <trkpt lat="48.8654" lon="2.35665">
        <ele>77.3</ele>
        <time>2013-04-01T18:39:55.000Z</time>
      </trkpt>
      <trkpt lat="48.86538" lon="2.35672">
        <ele>76.9</ele>
        <time>2013-04-01T18:39:56.000Z</time>
      </trkpt>
      <trkpt lat="48.86537" lon="2.35679">
        <ele>77.2</ele>
        <time>2013-04-01T18:39:57.000Z</time>
      </trkpt>
      <trkpt lat="48.86536" lon="2.35687">
        <ele>77.5</ele>
        <time>2013-04-01T18:39:58.000Z</time>
      </trkpt>
      <trkpt lat="48.86533" lon="2.35694">
        <ele>77.8</ele>
        <time>2013-04-01T18:39:59.000Z</time>
      </trkpt>
      <trkpt lat="48.86532" lon="2.35701">
        <ele>78.1</ele>
        <time>2013-04-01T18:40:00.000Z</time>
      </trkpt>
      <trkpt lat="48.86529" lon="2.35708">
        <ele>77.6</ele>
        <time>2013-04-01T18:40:01.000Z</time>
      </trkpt>
      <trkpt lat="48.86528" lon="2.35716">
        <ele>78</ele>
        <time>2013-04-01T18:40:02.000Z</time>
      </trkpt>
      <trkpt lat="48.86526" lon="2.35725">
        <ele>78.2</ele>
        <time>2013-04-01T18:40:03.000Z</time>
      </trkpt>
      <trkpt lat="48.86524" lon="2.35732">
        <ele>78.6</ele>
        <time>2013-04-01T18:40:04.000Z</time>
      </trkpt>
      <trkpt lat="48.86523" lon="2.35739">
        <ele>78.5</ele>
        <time>2013-04-01T18:40:05.000Z</time>
      </trkpt>
      <trkpt lat="48.86523" lon="2.35747">
        <ele>78.1</ele>
        <time>2013-04-01T18:40:06.000Z</time>
      </trkpt>
      <trkpt lat="48.86523" lon="2.35754">
        <ele>78.5</ele>
        <time>2013-04-01T18:40:07.000Z</time>
      </trkpt>
      <trkpt lat="48.8652" lon="2.35761">
        <ele>78.2</ele>
        <time>2013-04-01T18:40:08.000Z</time>
      </trkpt>
      <trkpt lat="48.86519" lon="2.35768">
        <ele>77.8</ele>
        <time>2013-04-01T18:40:09.000Z</time>
      </trkpt>
      <trkpt lat="48.86517" lon="2.35776">
        <ele>77.9</ele>
        <time>2013-04-01T18:40:10.000Z</time>
      </trkpt>
      <trkpt lat="48.86515" lon="2.35783">
        <ele>77</ele>
        <time>2013-04-01T18:40:11.000Z</time>
      </trkpt>
      <trkpt lat="48.86512" lon="2.3579">
        <ele>76.7</ele>
        <time>2013-04-01T18:40:12.000Z</time>
      </trkpt>
      <trkpt lat="48.86509" lon="2.35799">
        <ele>78.5</ele>
        <time>2013-04-01T18:40:13.000Z</time>
      </trkpt>
      <trkpt lat="48.86509" lon="2.35809">
        <ele>79.1</ele>
        <time>2013-04-01T18:40:14.000Z</time>
      </trkpt>
      <trkpt lat="48.86507" lon="2.35815">
        <ele>79.3</ele>
        <time>2013-04-01T18:40:15.000Z</time>
      </trkpt>
      <trkpt lat="48.86506" lon="2.35819">
        <ele>78.6</ele>
        <time>2013-04-01T18:40:16.000Z</time>
      </trkpt>
      <trkpt lat="48.86504" lon="2.35824">
        <ele>78.5</ele>
        <time>2013-04-01T18:40:17.000Z</time>
      </trkpt>
      <trkpt lat="48.865" lon="2.35825">
        <ele>77.7</ele>
        <time>2013-04-01T18:40:18.000Z</time>
      </trkpt>
      <trkpt lat="48.86496" lon="2.35825">
        <ele>77</ele>
        <time>2013-04-01T18:40:20.000Z</time>
      </trkpt>
      <trkpt lat="48.86493" lon="2.35823">
        <ele>76</ele>
        <time>2013-04-01T18:40:21.000Z</time>
      </trkpt>
      <trkpt lat="48.8649" lon="2.35824">
        <ele>76.4</ele>
        <time>2013-04-01T18:40:22.000Z</time>
      </trkpt>
      <trkpt lat="48.86486" lon="2.35823">
        <ele>75.7</ele>
        <time>2013-04-01T18:40:23.000Z</time>
      </trkpt>
      <trkpt lat="48.86482" lon="2.35822">
        <ele>75.3</ele>
        <time>2013-04-01T18:40:24.000Z</time>
      </trkpt>
      <trkpt lat="48.86479" lon="2.35823">
        <ele>75.1</ele>
        <time>2013-04-01T18:40:25.000Z</time>
      </trkpt>
      <trkpt lat="48.86477" lon="2.35823">
        <ele>74.9</ele>
        <time>2013-04-01T18:40:26.000Z</time>
      </trkpt>
      <trkpt lat="48.86474" lon="2.35823">
        <ele>74.8</ele>
        <time>2013-04-01T18:40:27.000Z</time>
      </trkpt>
      <trkpt lat="48.86471" lon="2.35823">
        <ele>74.7</ele>
        <time>2013-04-01T18:40:28.000Z</time>
      </trkpt>
      <trkpt lat="48.86468" lon="2.35823">
        <ele>74.3</ele>
        <time>2013-04-01T18:40:29.000Z</time>
      </trkpt>
      <trkpt lat="48.86465" lon="2.35823">
        <ele>74.4</ele>
        <time>2013-04-01T18:40:30.000Z</time>
      </trkpt>
      <trkpt lat="48.86462" lon="2.35823">
        <ele>74.4</ele>
        <time>2013-04-01T18:40:31.000Z</time>
      </trkpt>
      <trkpt lat="48.86459" lon="2.35823">
        <ele>74.2</ele>
        <time>2013-04-01T18:40:32.000Z</time>
      </trkpt>
      <trkpt lat="48.86455" lon="2.35822">
        <ele>74.1</ele>
        <time>2013-04-01T18:40:33.000Z</time>
      </trkpt>
      <trkpt lat="48.86451" lon="2.3582">
        <ele>74.1</ele>
        <time>2013-04-01T18:40:34.000Z</time>
      </trkpt>
      <trkpt lat="48.86447" lon="2.3582">
        <ele>73.9</ele>
        <time>2013-04-01T18:40:35.000Z</time>
      </trkpt>
      <trkpt lat="48.86443" lon="2.35818">
        <ele>73.5</ele>
        <time>2013-04-01T18:40:36.000Z</time>
      </trkpt>
      <trkpt lat="48.8644" lon="2.35812">
        <ele>70.3</ele>
        <time>2013-04-01T18:40:37.000Z</time>
      </trkpt>
      <trkpt lat="48.8644" lon="2.35803">
        <ele>69.6</ele>
        <time>2013-04-01T18:40:38.000Z</time>
      </trkpt>
      <trkpt lat="48.86441" lon="2.35794">
        <ele>68.2</ele>
        <time>2013-04-01T18:40:39.000Z</time>
      </trkpt>
      <trkpt lat="48.86442" lon="2.35787">
        <ele>68</ele>
        <time>2013-04-01T18:40:40.000Z</time>
      </trkpt>
      <trkpt lat="48.86443" lon="2.35779">
        <ele>67.7</ele>
        <time>2013-04-01T18:40:41.000Z</time>
      </trkpt>
      <trkpt lat="48.86445" lon="2.35772">
        <ele>67.4</ele>
        <time>2013-04-01T18:40:42.000Z</time>
      </trkpt>
      <trkpt lat="48.86447" lon="2.35764">
        <ele>66.4</ele>
        <time>2013-04-01T18:40:43.000Z</time>
      </trkpt>
      <trkpt lat="48.86448" lon="2.35757">
        <ele>66.3</ele>
        <time>2013-04-01T18:40:44.000Z</time>
      </trkpt>
      <trkpt lat="48.86448" lon="2.35746">
        <ele>65.4</ele>
        <time>2013-04-01T18:40:45.000Z</time>
      </trkpt>
      <trkpt lat="48.86447" lon="2.35737">
        <ele>73.7</ele>
        <time>2013-04-01T18:40:46.000Z</time>
      </trkpt>
      <trkpt lat="48.86446" lon="2.3573">
        <ele>71.9</ele>
        <time>2013-04-01T18:40:47.000Z</time>
      </trkpt>
      <trkpt lat="48.86447" lon="2.35723">
        <ele>70.4</ele>
        <time>2013-04-01T18:40:48.000Z</time>
      </trkpt>
      <trkpt lat="48.86449" lon="2.35716">
        <ele>69.6</ele>
        <time>2013-04-01T18:40:49.000Z</time>
      </trkpt>
      <trkpt lat="48.86451" lon="2.3571">
        <ele>68.7</ele>
        <time>2013-04-01T18:40:50.000Z</time>
      </trkpt>
      <trkpt lat="48.86452" lon="2.35704">
        <ele>68.6</ele>
        <time>2013-04-01T18:40:51.000Z</time>
      </trkpt>
      <trkpt lat="48.86454" lon="2.35698">
        <ele>68.7</ele>
        <time>2013-04-01T18:40:52.000Z</time>
      </trkpt>
      <trkpt lat="48.86455" lon="2.35692">
        <ele>67</ele>
        <time>2013-04-01T18:40:53.000Z</time>
      </trkpt>
      <trkpt lat="48.86456" lon="2.35687">
        <ele>66.7</ele>
        <time>2013-04-01T18:40:54.000Z</time>
      </trkpt>
      <trkpt lat="48.86456" lon="2.35683">
        <ele>65.6</ele>
        <time>2013-04-01T18:40:55.000Z</time>
      </trkpt>
      <trkpt lat="48.86459" lon="2.3568">
        <ele>64.5</ele>
        <time>2013-04-01T18:40:56.000Z</time>
      </trkpt>
      <trkpt lat="48.86464" lon="2.35677">
        <ele>63.7</ele>
        <time>2013-04-01T18:40:57.000Z</time>
      </trkpt>
      <trkpt lat="48.86469" lon="2.35675">
        <ele>63.3</ele>
        <time>2013-04-01T18:40:58.000Z</time>
      </trkpt>
      <trkpt lat="48.86475" lon="2.35672">
        <ele>63</ele>
        <time>2013-04-01T18:40:59.000Z</time>
      </trkpt>
      <trkpt lat="48.86488" lon="2.35672">
        <ele>63.9</ele>
        <time>2013-04-01T18:41:00.000Z</time>
      </trkpt>
      <trkpt lat="48.86491" lon="2.35674">
        <ele>63.8</ele>
        <time>2013-04-01T18:41:01.000Z</time>
      </trkpt>
      <trkpt lat="48.86495" lon="2.35672">
        <ele>63.8</ele>
        <time>2013-04-01T18:41:02.000Z</time>
      </trkpt>
      <trkpt lat="48.86498" lon="2.35671">
        <ele>64.5</ele>
        <time>2013-04-01T18:41:03.000Z</time>
      </trkpt>
      <trkpt lat="48.86502" lon="2.3567">
        <ele>64.8</ele>
        <time>2013-04-01T18:41:04.000Z</time>
      </trkpt>
      <trkpt lat="48.865" lon="2.3568">
        <ele>64</ele>
        <time>2013-04-01T18:41:05.000Z</time>
      </trkpt>
      <trkpt lat="48.86503" lon="2.35678">
        <ele>63.6</ele>
        <time>2013-04-01T18:41:06.000Z</time>
      </trkpt>
      <trkpt lat="48.86507" lon="2.35683">
        <ele>64.7</ele>
        <time>2013-04-01T18:41:07.000Z</time>
      </trkpt>
      <trkpt lat="48.86509" lon="2.35685">
        <ele>64.7</ele>
        <time>2013-04-01T18:41:08.000Z</time>
      </trkpt>
      <trkpt lat="48.86516" lon="2.35694">
        <ele>68.2</ele>
        <time>2013-04-01T18:41:09.000Z</time>
      </trkpt>
      <trkpt lat="48.86519" lon="2.357">
        <ele>70.5</ele>
        <time>2013-04-01T18:41:10.000Z</time>
      </trkpt>
      <trkpt lat="48.86521" lon="2.35708">
        <ele>71.3</ele>
        <time>2013-04-01T18:41:11.000Z</time>
      </trkpt>
      <trkpt lat="48.86522" lon="2.35715">
        <ele>71.6</ele>
        <time>2013-04-01T18:41:12.000Z</time>
      </trkpt>
      <trkpt lat="48.86528" lon="2.35714">
        <ele>72</ele>
        <time>2013-04-01T18:41:13.000Z</time>
      </trkpt>
      <trkpt lat="48.86533" lon="2.35716">
        <ele>72.8</ele>
        <time>2013-04-01T18:41:14.000Z</time>
      </trkpt>
      <trkpt lat="48.86537" lon="2.35718">
        <ele>72.9</ele>
        <time>2013-04-01T18:41:15.000Z</time>
      </trkpt>
      <trkpt lat="48.86541" lon="2.35721">
        <ele>73.1</ele>
        <time>2013-04-01T18:41:16.000Z</time>
      </trkpt>
      <trkpt lat="48.86545" lon="2.35725">
        <ele>73.1</ele>
        <time>2013-04-01T18:41:17.000Z</time>
      </trkpt>
      <trkpt lat="48.86551" lon="2.3573">
        <ele>74.9</ele>
        <time>2013-04-01T18:41:18.000Z</time>
      </trkpt>
      <trkpt lat="48.86555" lon="2.35733">
        <ele>74.5</ele>
        <time>2013-04-01T18:41:19.000Z</time>
      </trkpt>
      <trkpt lat="48.86559" lon="2.35735">
        <ele>75.4</ele>
        <time>2013-04-01T18:41:20.000Z</time>
      </trkpt>
      <trkpt lat="48.86563" lon="2.3574">
        <ele>76.5</ele>
        <time>2013-04-01T18:41:21.000Z</time>
      </trkpt>
      <trkpt lat="48.86566" lon="2.35748">
        <ele>77</ele>
        <time>2013-04-01T18:41:22.000Z</time>
      </trkpt>
      <trkpt lat="48.86572" lon="2.35749">
        <ele>78.9</ele>
        <time>2013-04-01T18:41:23.000Z</time>
      </trkpt>
      <trkpt lat="48.86576" lon="2.3575">
        <ele>80.3</ele>
        <time>2013-04-01T18:41:27.000Z</time>
      </trkpt>
      <trkpt lat="48.86577" lon="2.35751">
        <ele>81.2</ele>
        <time>2013-04-01T18:41:28.000Z</time>
      </trkpt>
      <trkpt lat="48.86581" lon="2.35749">
        <ele>83.2</ele>
        <time>2013-04-01T18:41:34.000Z</time>
      </trkpt>
      <trkpt lat="48.86581" lon="2.35749">
        <ele>83.7</ele>
        <time>2013-04-01T18:41:35.000Z</time>
      </trkpt>
      <trkpt lat="48.86585" lon="2.35747">
        <ele>85.1</ele>
        <time>2013-04-01T18:41:51.000Z</time>
      </trkpt>
      <trkpt lat="48.86586" lon="2.35748">
        <ele>84.8</ele>
        <time>2013-04-01T18:41:52.000Z</time>
      </trkpt>
      <trkpt lat="48.86589" lon="2.3575">
        <ele>83.5</ele>
        <time>2013-04-01T18:41:54.000Z</time>
      </trkpt>
      <trkpt lat="48.8659" lon="2.35752">
        <ele>82.2</ele>
        <time>2013-04-01T18:41:55.000Z</time>
      </trkpt>
      <trkpt lat="48.86593" lon="2.35756">
        <ele>80.4</ele>
        <time>2013-04-01T18:41:57.000Z</time>
      </trkpt>
      <trkpt lat="48.86594" lon="2.35758">
        <ele>80.3</ele>
        <time>2013-04-01T18:41:58.000Z</time>
      </trkpt>
      <trkpt lat="48.86598" lon="2.3576">
        <ele>79.8</ele>
        <time>2013-04-01T18:42:00.000Z</time>
      </trkpt>
      <trkpt lat="48.866" lon="2.35761">
        <ele>79.2</ele>
        <time>2013-04-01T18:42:01.000Z</time>
      </trkpt>
      <trkpt lat="48.86602" lon="2.35762">
        <ele>78.9</ele>
        <time>2013-04-01T18:42:02.000Z</time>
      </trkpt>
      <trkpt lat="48.86604" lon="2.35764">
        <ele>78.5</ele>
        <time>2013-04-01T18:42:03.000Z</time>
      </trkpt>
      <trkpt lat="48.86608" lon="2.35766">
        <ele>77.6</ele>
        <time>2013-04-01T18:42:05.000Z</time>
      </trkpt>
      <trkpt lat="48.8661" lon="2.35768">
        <ele>77.6</ele>
        <time>2013-04-01T18:42:06.000Z</time>
      </trkpt>
      <trkpt lat="48.86613" lon="2.3577">
        <ele>78.4</ele>
        <time>2013-04-01T18:42:07.000Z</time>
      </trkpt>
      <trkpt lat="48.86617" lon="2.35773">
        <ele>78.3</ele>
        <time>2013-04-01T18:42:08.000Z</time>
      </trkpt>
      <trkpt lat="48.86621" lon="2.35776">
        <ele>78.2</ele>
        <time>2013-04-01T18:42:09.000Z</time>
      </trkpt>
      <trkpt lat="48.86624" lon="2.35778">
        <ele>78.2</ele>
        <time>2013-04-01T18:42:10.000Z</time>
      </trkpt>
      <trkpt lat="48.86628" lon="2.35781">
        <ele>77.9</ele>
        <time>2013-04-01T18:42:11.000Z</time>
      </trkpt>
      <trkpt lat="48.86632" lon="2.35784">
        <ele>77.9</ele>
        <time>2013-04-01T18:42:12.000Z</time>
      </trkpt>
      <trkpt lat="48.86637" lon="2.35787">
        <ele>78</ele>
        <time>2013-04-01T18:42:13.000Z</time>
      </trkpt>
      <trkpt lat="48.8664" lon="2.3579">
        <ele>77.3</ele>
        <time>2013-04-01T18:42:14.000Z</time>
      </trkpt>
      <trkpt lat="48.86644" lon="2.35792">
        <ele>77.1</ele>
        <time>2013-04-01T18:42:15.000Z</time>
      </trkpt>
      <trkpt lat="48.86646" lon="2.35792">
        <ele>76.8</ele>
        <time>2013-04-01T18:42:16.000Z</time>
      </trkpt>
      <trkpt lat="48.8665" lon="2.3579">
        <ele>77</ele>
        <time>2013-04-01T18:42:17.000Z</time>
      </trkpt>
      <trkpt lat="48.86654" lon="2.35789">
        <ele>76.8</ele>
        <time>2013-04-01T18:42:18.000Z</time>
      </trkpt>
      <trkpt lat="48.86657" lon="2.35788">
        <ele>76.3</ele>
        <time>2013-04-01T18:42:19.000Z</time>
      </trkpt>
      <trkpt lat="48.86661" lon="2.35788">
        <ele>76.3</ele>
        <time>2013-04-01T18:42:20.000Z</time>
      </trkpt>
      <trkpt lat="48.86665" lon="2.35786">
        <ele>76</ele>
        <time>2013-04-01T18:42:21.000Z</time>
      </trkpt>
      <trkpt lat="48.86669" lon="2.35785">
        <ele>75.9</ele>
        <time>2013-04-01T18:42:22.000Z</time>
      </trkpt>
      <trkpt lat="48.86672" lon="2.35784">
        <ele>76</ele>
        <time>2013-04-01T18:42:23.000Z</time>
      </trkpt>
      <trkpt lat="48.86676" lon="2.35783">
        <ele>76</ele>
        <time>2013-04-01T18:42:24.000Z</time>
      </trkpt>
      <trkpt lat="48.86679" lon="2.35782">
        <ele>75.5</ele>
        <time>2013-04-01T18:42:25.000Z</time>
      </trkpt>
      <trkpt lat="48.86683" lon="2.35781">
        <ele>75.5</ele>
        <time>2013-04-01T18:42:26.000Z</time>
      </trkpt>
      <trkpt lat="48.86686" lon="2.3578">
        <ele>75.6</ele>
        <time>2013-04-01T18:42:27.000Z</time>
      </trkpt>
      <trkpt lat="48.8669" lon="2.3578">
        <ele>76.6</ele>
        <time>2013-04-01T18:42:28.000Z</time>
      </trkpt>
      <trkpt lat="48.86693" lon="2.35782">
        <ele>76</ele>
        <time>2013-04-01T18:42:29.000Z</time>
      </trkpt>
      <trkpt lat="48.86694" lon="2.35787">
        <ele>75.6</ele>
        <time>2013-04-01T18:42:30.000Z</time>
      </trkpt>
      <trkpt lat="48.86686" lon="2.35821">
        <ele>76.3</ele>
        <time>2013-04-01T18:42:31.000Z</time>
      </trkpt>
      <trkpt lat="48.86687" lon="2.35827">
        <ele>75.8</ele>
        <time>2013-04-01T18:42:32.000Z</time>
      </trkpt>
      <trkpt lat="48.86687" lon="2.35832">
        <ele>74.5</ele>
        <time>2013-04-01T18:42:33.000Z</time>
      </trkpt>
      <trkpt lat="48.86687" lon="2.35838">
        <ele>74</ele>
        <time>2013-04-01T18:42:34.000Z</time>
      </trkpt>
      <trkpt lat="48.86686" lon="2.35846">
        <ele>73.8</ele>
        <time>2013-04-01T18:42:35.000Z</time>
      </trkpt>
      <trkpt lat="48.86684" lon="2.35854">
        <ele>74.4</ele>
        <time>2013-04-01T18:42:36.000Z</time>
      </trkpt>
      <trkpt lat="48.86683" lon="2.35862">
        <ele>75.2</ele>
        <time>2013-04-01T18:42:37.000Z</time>
      </trkpt>
      <trkpt lat="48.86682" lon="2.35869">
        <ele>75.6</ele>
        <time>2013-04-01T18:42:38.000Z</time>
      </trkpt>
      <trkpt lat="48.8668" lon="2.35877">
        <ele>75.6</ele>
        <time>2013-04-01T18:42:39.000Z</time>
      </trkpt>
      <trkpt lat="48.8668" lon="2.35884">
        <ele>73.3</ele>
        <time>2013-04-01T18:42:40.000Z</time>
      </trkpt>
      <trkpt lat="48.86679" lon="2.35892">
        <ele>71.8</ele>
        <time>2013-04-01T18:42:41.000Z</time>
      </trkpt>
      <trkpt lat="48.86679" lon="2.35899">
        <ele>70.6</ele>
        <time>2013-04-01T18:42:42.000Z</time>
      </trkpt>
      <trkpt lat="48.86678" lon="2.35906">
        <ele>71.5</ele>
        <time>2013-04-01T18:42:43.000Z</time>
      </trkpt>
      <trkpt lat="48.86677" lon="2.35913">
        <ele>72.3</ele>
        <time>2013-04-01T18:42:44.000Z</time>
      </trkpt>
      <trkpt lat="48.86676" lon="2.3592">
        <ele>71.5</ele>
        <time>2013-04-01T18:42:45.000Z</time>
      </trkpt>
      <trkpt lat="48.86675" lon="2.35926">
        <ele>71.7</ele>
        <time>2013-04-01T18:42:46.000Z</time>
      </trkpt>
      <trkpt lat="48.86674" lon="2.35933">
        <ele>72.5</ele>
        <time>2013-04-01T18:42:47.000Z</time>
      </trkpt>
      <trkpt lat="48.86672" lon="2.3594">
        <ele>73</ele>
        <time>2013-04-01T18:42:48.000Z</time>
      </trkpt>
      <trkpt lat="48.86671" lon="2.35946">
        <ele>72.4</ele>
        <time>2013-04-01T18:42:49.000Z</time>
      </trkpt>
      <trkpt lat="48.8667" lon="2.35953">
        <ele>72.1</ele>
        <time>2013-04-01T18:42:50.000Z</time>
      </trkpt>
      <trkpt lat="48.86669" lon="2.3596">
        <ele>72.3</ele>
        <time>2013-04-01T18:42:51.000Z</time>
      </trkpt>
      <trkpt lat="48.86668" lon="2.35969">
        <ele>72.7</ele>
        <time>2013-04-01T18:42:52.000Z</time>
      </trkpt>
      <trkpt lat="48.86666" lon="2.35975">
        <ele>72.5</ele>
        <time>2013-04-01T18:42:53.000Z</time>
      </trkpt>
      <trkpt lat="48.86665" lon="2.35982">
        <ele>72.3</ele>
        <time>2013-04-01T18:42:54.000Z</time>
      </trkpt>
      <trkpt lat="48.86663" lon="2.35988">
        <ele>71.8</ele>
        <time>2013-04-01T18:42:55.000Z</time>
      </trkpt>
      <trkpt lat="48.8666" lon="2.35995">
        <ele>72.2</ele>
        <time>2013-04-01T18:42:56.000Z</time>
      </trkpt>
      <trkpt lat="48.86658" lon="2.36004">
        <ele>70.6</ele>
        <time>2013-04-01T18:42:57.000Z</time>
      </trkpt>
      <trkpt lat="48.86657" lon="2.3601">
        <ele>70.6</ele>
        <time>2013-04-01T18:42:58.000Z</time>
      </trkpt>
      <trkpt lat="48.86657" lon="2.36018">
        <ele>71</ele>
        <time>2013-04-01T18:42:59.000Z</time>
      </trkpt>
      <trkpt lat="48.86657" lon="2.36024">
        <ele>70.9</ele>
        <time>2013-04-01T18:43:00.000Z</time>
      </trkpt>
      <trkpt lat="48.86656" lon="2.3603">
        <ele>70.7</ele>
        <time>2013-04-01T18:43:01.000Z</time>
      </trkpt>
      <trkpt lat="48.86654" lon="2.36035">
        <ele>70.2</ele>
        <time>2013-04-01T18:43:02.000Z</time>
      </trkpt>
      <trkpt lat="48.86653" lon="2.36039">
        <ele>70</ele>
        <time>2013-04-01T18:43:03.000Z</time>
      </trkpt>
      <trkpt lat="48.86649" lon="2.36036">
        <ele>69.7</ele>
        <time>2013-04-01T18:43:04.000Z</time>
      </trkpt>
      <trkpt lat="48.86646" lon="2.36035">
        <ele>68.1</ele>
        <time>2013-04-01T18:43:05.000Z</time>
      </trkpt>
      <trkpt lat="48.86646" lon="2.3604">
        <ele>73.7</ele>
        <time>2013-04-01T18:43:23.000Z</time>
      </trkpt>
      <trkpt lat="48.86643" lon="2.36041">
        <ele>73.8</ele>
        <time>2013-04-01T18:43:24.000Z</time>
      </trkpt>
      <trkpt lat="48.8664" lon="2.36042">
        <ele>73.7</ele>
        <time>2013-04-01T18:43:25.000Z</time>
      </trkpt>
      <trkpt lat="48.86637" lon="2.36045">
        <ele>74.5</ele>
        <time>2013-04-01T18:43:26.000Z</time>
      </trkpt>
      <trkpt lat="48.86633" lon="2.36049">
        <ele>74.4</ele>
        <time>2013-04-01T18:43:27.000Z</time>
      </trkpt>
      <trkpt lat="48.8663" lon="2.36053">
        <ele>74.5</ele>
        <time>2013-04-01T18:43:28.000Z</time>
      </trkpt>
      <trkpt lat="48.86626" lon="2.36057">
        <ele>74.6</ele>
        <time>2013-04-01T18:43:29.000Z</time>
      </trkpt>
      <trkpt lat="48.86623" lon="2.36062">
        <ele>74.6</ele>
        <time>2013-04-01T18:43:30.000Z</time>
      </trkpt>
      <trkpt lat="48.86619" lon="2.36066">
        <ele>74.4</ele>
        <time>2013-04-01T18:43:31.000Z</time>
      </trkpt>
      <trkpt lat="48.86615" lon="2.36072">
        <ele>74.6</ele>
        <time>2013-04-01T18:43:32.000Z</time>
      </trkpt>
      <trkpt lat="48.86611" lon="2.36077">
        <ele>74.7</ele>
        <time>2013-04-01T18:43:33.000Z</time>
      </trkpt>
      <trkpt lat="48.8661" lon="2.36082">
        <ele>74.4</ele>
        <time>2013-04-01T18:43:34.000Z</time>
      </trkpt>
      <trkpt lat="48.86611" lon="2.36088">
        <ele>75.1</ele>
        <time>2013-04-01T18:43:35.000Z</time>
      </trkpt>
      <trkpt lat="48.86613" lon="2.36093">
        <ele>75.3</ele>
        <time>2013-04-01T18:43:36.000Z</time>
      </trkpt>
      <trkpt lat="48.86615" lon="2.36096">
        <ele>75.6</ele>
        <time>2013-04-01T18:43:37.000Z</time>
      </trkpt>
      <trkpt lat="48.86612" lon="2.36095">
        <ele>74.7</ele>
        <time>2013-04-01T18:43:41.000Z</time>
      </trkpt>
      <trkpt lat="48.8661" lon="2.36093">
        <ele>75</ele>
        <time>2013-04-01T18:43:42.000Z</time>
      </trkpt>
      <trkpt lat="48.86606" lon="2.36095">
        <ele>75.7</ele>
        <time>2013-04-01T18:43:50.000Z</time>
      </trkpt>
      <trkpt lat="48.86605" lon="2.36095">
        <ele>76.9</ele>
        <time>2013-04-01T18:43:51.000Z</time>
      </trkpt>
      <trkpt lat="48.86602" lon="2.36095">
        <ele>79.6</ele>
        <time>2013-04-01T18:43:53.000Z</time>
      </trkpt>
      <trkpt lat="48.86599" lon="2.36095">
        <ele>79.2</ele>
        <time>2013-04-01T18:43:54.000Z</time>
      </trkpt>
      <trkpt lat="48.86597" lon="2.36096">
        <ele>80.4</ele>
        <time>2013-04-01T18:43:55.000Z</time>
      </trkpt>
      <trkpt lat="48.86594" lon="2.36096">
        <ele>81.8</ele>
        <time>2013-04-01T18:43:56.000Z</time>
      </trkpt>
      <trkpt lat="48.86592" lon="2.36096">
        <ele>83.3</ele>
        <time>2013-04-01T18:43:57.000Z</time>
      </trkpt>
      <trkpt lat="48.8659" lon="2.36096">
        <ele>83.9</ele>
        <time>2013-04-01T18:43:58.000Z</time>
      </trkpt>
      <trkpt lat="48.86587" lon="2.36096">
        <ele>84.2</ele>
        <time>2013-04-01T18:43:59.000Z</time>
      </trkpt>
      <trkpt lat="48.86585" lon="2.36097">
        <ele>84.9</ele>
        <time>2013-04-01T18:44:00.000Z</time>
      </trkpt>
      <trkpt lat="48.86581" lon="2.36101">
        <ele>84.6</ele>
        <time>2013-04-01T18:44:02.000Z</time>
      </trkpt>
      <trkpt lat="48.8658" lon="2.36104">
        <ele>84.2</ele>
        <time>2013-04-01T18:44:03.000Z</time>
      </trkpt>
      <trkpt lat="48.86579" lon="2.36107">
        <ele>84.5</ele>
        <time>2013-04-01T18:44:04.000Z</time>
      </trkpt>
      <trkpt lat="48.86577" lon="2.3611">
        <ele>82.9</ele>
        <time>2013-04-01T18:44:05.000Z</time>
      </trkpt>
      <trkpt lat="48.86576" lon="2.36114">
        <ele>83.7</ele>
        <time>2013-04-01T18:44:06.000Z</time>
      </trkpt>
      <trkpt lat="48.86574" lon="2.36118">
        <ele>85.3</ele>
        <time>2013-04-01T18:44:07.000Z</time>
      </trkpt>
      <trkpt lat="48.86571" lon="2.36123">
        <ele>85.8</ele>
        <time>2013-04-01T18:44:08.000Z</time>
      </trkpt>
      <trkpt lat="48.86569" lon="2.36128">
        <ele>86.2</ele>
        <time>2013-04-01T18:44:09.000Z</time>
      </trkpt>
      <trkpt lat="48.86567" lon="2.36133">
        <ele>86.3</ele>
        <time>2013-04-01T18:44:10.000Z</time>
      </trkpt>
      <trkpt lat="48.86565" lon="2.36138">
        <ele>86.4</ele>
        <time>2013-04-01T18:44:11.000Z</time>
      </trkpt>
      <trkpt lat="48.86563" lon="2.36143">
        <ele>86.3</ele>
        <time>2013-04-01T18:44:12.000Z</time>
      </trkpt>
      <trkpt lat="48.86561" lon="2.36149">
        <ele>86.6</ele>
        <time>2013-04-01T18:44:13.000Z</time>
      </trkpt>
      <trkpt lat="48.86558" lon="2.36154">
        <ele>86.4</ele>
        <time>2013-04-01T18:44:14.000Z</time>
      </trkpt>
      <trkpt lat="48.86556" lon="2.3616">
        <ele>86.7</ele>
        <time>2013-04-01T18:44:15.000Z</time>
      </trkpt>
      <trkpt lat="48.86554" lon="2.36165">
        <ele>87</ele>
        <time>2013-04-01T18:44:16.000Z</time>
      </trkpt>
      <trkpt lat="48.86552" lon="2.36171">
        <ele>87.2</ele>
        <time>2013-04-01T18:44:17.000Z</time>
      </trkpt>
      <trkpt lat="48.86549" lon="2.36177">
        <ele>87.6</ele>
        <time>2013-04-01T18:44:18.000Z</time>
      </trkpt>
      <trkpt lat="48.86547" lon="2.36183">
        <ele>87.6</ele>
        <time>2013-04-01T18:44:19.000Z</time>
      </trkpt>
      <trkpt lat="48.86544" lon="2.36189">
        <ele>88</ele>
        <time>2013-04-01T18:44:20.000Z</time>
      </trkpt>
      <trkpt lat="48.86542" lon="2.36195">
        <ele>88.1</ele>
        <time>2013-04-01T18:44:21.000Z</time>
      </trkpt>
      <trkpt lat="48.8654" lon="2.36199">
        <ele>88.1</ele>
        <time>2013-04-01T18:44:22.000Z</time>
      </trkpt>
      <trkpt lat="48.86536" lon="2.36204">
        <ele>88.8</ele>
        <time>2013-04-01T18:44:23.000Z</time>
      </trkpt>
      <trkpt lat="48.86533" lon="2.36209">
        <ele>88.5</ele>
        <time>2013-04-01T18:44:24.000Z</time>
      </trkpt>
      <trkpt lat="48.8653" lon="2.36213">
        <ele>90</ele>
        <time>2013-04-01T18:44:25.000Z</time>
      </trkpt>
      <trkpt lat="48.86526" lon="2.36217">
        <ele>90.1</ele>
        <time>2013-04-01T18:44:26.000Z</time>
      </trkpt>
      <trkpt lat="48.86523" lon="2.36222">
        <ele>90.1</ele>
        <time>2013-04-01T18:44:27.000Z</time>
      </trkpt>
      <trkpt lat="48.86519" lon="2.36229">
        <ele>90.4</ele>
        <time>2013-04-01T18:44:28.000Z</time>
      </trkpt>
      <trkpt lat="48.86516" lon="2.36235">
        <ele>91.9</ele>
        <time>2013-04-01T18:44:29.000Z</time>
      </trkpt>
      <trkpt lat="48.86512" lon="2.36242">
        <ele>92.5</ele>
        <time>2013-04-01T18:44:30.000Z</time>
      </trkpt>
      <trkpt lat="48.86509" lon="2.36248">
        <ele>94.4</ele>
        <time>2013-04-01T18:44:31.000Z</time>
      </trkpt>
      <trkpt lat="48.86507" lon="2.36253">
        <ele>94.7</ele>
        <time>2013-04-01T18:44:32.000Z</time>
      </trkpt>
      <trkpt lat="48.86505" lon="2.36258">
        <ele>94.5</ele>
        <time>2013-04-01T18:44:33.000Z</time>
      </trkpt>
      <trkpt lat="48.86503" lon="2.36263">
        <ele>94.4</ele>
        <time>2013-04-01T18:44:34.000Z</time>
      </trkpt>
      <trkpt lat="48.865" lon="2.36267">
        <ele>97.9</ele>
        <time>2013-04-01T18:44:35.000Z</time>
      </trkpt>
      <trkpt lat="48.86498" lon="2.36272">
        <ele>97.5</ele>
        <time>2013-04-01T18:44:36.000Z</time>
      </trkpt>
      <trkpt lat="48.86491" lon="2.36285">
        <ele>94.7</ele>
        <time>2013-04-01T18:44:39.000Z</time>
      </trkpt>
      <trkpt lat="48.8649" lon="2.36288">
        <ele>94.6</ele>
        <time>2013-04-01T18:44:40.000Z</time>
      </trkpt>
      <trkpt lat="48.86488" lon="2.36292">
        <ele>94</ele>
        <time>2013-04-01T18:44:41.000Z</time>
      </trkpt>
      <trkpt lat="48.86486" lon="2.36295">
        <ele>95.1</ele>
        <time>2013-04-01T18:44:42.000Z</time>
      </trkpt>
      <trkpt lat="48.86484" lon="2.36299">
        <ele>96.1</ele>
        <time>2013-04-01T18:44:43.000Z</time>
      </trkpt>
      <trkpt lat="48.86482" lon="2.36303">
        <ele>96.1</ele>
        <time>2013-04-01T18:44:44.000Z</time>
      </trkpt>
      <trkpt lat="48.8648" lon="2.36307">
        <ele>95.1</ele>
        <time>2013-04-01T18:44:45.000Z</time>
      </trkpt>
      <trkpt lat="48.86478" lon="2.36311">
        <ele>95.3</ele>
        <time>2013-04-01T18:44:46.000Z</time>
      </trkpt>
      <trkpt lat="48.86476" lon="2.36316">
        <ele>94.2</ele>
        <time>2013-04-01T18:44:47.000Z</time>
      </trkpt>
      <trkpt lat="48.86473" lon="2.3632">
        <ele>93.1</ele>
        <time>2013-04-01T18:44:48.000Z</time>
      </trkpt>
      <trkpt lat="48.8647" lon="2.36325">
        <ele>92.6</ele>
        <time>2013-04-01T18:44:49.000Z</time>
      </trkpt>
      <trkpt lat="48.86468" lon="2.36328">
        <ele>91.8</ele>
        <time>2013-04-01T18:44:50.000Z</time>
      </trkpt>
      <trkpt lat="48.86466" lon="2.3633">
        <ele>91</ele>
        <time>2013-04-01T18:44:51.000Z</time>
      </trkpt>
      <trkpt lat="48.86464" lon="2.3633">
        <ele>88.5</ele>
        <time>2013-04-01T18:44:52.000Z</time>
      </trkpt>
      <trkpt lat="48.86461" lon="2.36328">
        <ele>89.6</ele>
        <time>2013-04-01T18:44:53.000Z</time>
      </trkpt>
      <trkpt lat="48.86458" lon="2.36326">
        <ele>91.2</ele>
        <time>2013-04-01T18:44:54.000Z</time>
      </trkpt>
      <trkpt lat="48.86455" lon="2.36323">
        <ele>91.8</ele>
        <time>2013-04-01T18:44:55.000Z</time>
      </trkpt>
      <trkpt lat="48.86453" lon="2.3632">
        <ele>92.2</ele>
        <time>2013-04-01T18:44:56.000Z</time>
      </trkpt>
      <trkpt lat="48.86451" lon="2.36317">
        <ele>91.9</ele>
        <time>2013-04-01T18:44:57.000Z</time>
      </trkpt>
      <trkpt lat="48.86448" lon="2.36315">
        <ele>91.3</ele>
        <time>2013-04-01T18:44:58.000Z</time>
      </trkpt>
      <trkpt lat="48.86446" lon="2.36313">
        <ele>91.1</ele>
        <time>2013-04-01T18:44:59.000Z</time>
      </trkpt>
      <trkpt lat="48.86442" lon="2.36311">
        <ele>89.2</ele>
        <time>2013-04-01T18:45:01.000Z</time>
      </trkpt>
      <trkpt lat="48.86439" lon="2.3631">
        <ele>88.7</ele>
        <time>2013-04-01T18:45:02.000Z</time>
      </trkpt>
      <trkpt lat="48.86437" lon="2.36308">
        <ele>86.1</ele>
        <time>2013-04-01T18:45:03.000Z</time>
      </trkpt>
      <trkpt lat="48.86435" lon="2.36306">
        <ele>85.6</ele>
        <time>2013-04-01T18:45:04.000Z</time>
      </trkpt>
      <trkpt lat="48.86433" lon="2.36304">
        <ele>84.9</ele>
        <time>2013-04-01T18:45:05.000Z</time>
      </trkpt>
      <trkpt lat="48.8643" lon="2.36301">
        <ele>83.3</ele>
        <time>2013-04-01T18:45:06.000Z</time>
      </trkpt>
      <trkpt lat="48.86426" lon="2.36298">
        <ele>81.7</ele>
        <time>2013-04-01T18:45:07.000Z</time>
      </trkpt>
      <trkpt lat="48.86421" lon="2.36296">
        <ele>77.7</ele>
        <time>2013-04-01T18:45:08.000Z</time>
      </trkpt>
      <trkpt lat="48.86417" lon="2.36294">
        <ele>77.7</ele>
        <time>2013-04-01T18:45:09.000Z</time>
      </trkpt>
      <trkpt lat="48.86414" lon="2.36291">
        <ele>76.3</ele>
        <time>2013-04-01T18:45:10.000Z</time>
      </trkpt>
      <trkpt lat="48.86411" lon="2.3629">
        <ele>73.9</ele>
        <time>2013-04-01T18:45:11.000Z</time>
      </trkpt>
      <trkpt lat="48.86407" lon="2.36289">
        <ele>71.5</ele>
        <time>2013-04-01T18:45:12.000Z</time>
      </trkpt>
      <trkpt lat="48.86405" lon="2.36292">
        <ele>70</ele>
        <time>2013-04-01T18:45:13.000Z</time>
      </trkpt>
      <trkpt lat="48.86403" lon="2.36295">
        <ele>69.7</ele>
        <time>2013-04-01T18:45:14.000Z</time>
      </trkpt>
      <trkpt lat="48.86402" lon="2.36298">
        <ele>70.1</ele>
        <time>2013-04-01T18:45:15.000Z</time>
      </trkpt>
      <trkpt lat="48.864" lon="2.36301">
        <ele>70.1</ele>
        <time>2013-04-01T18:45:16.000Z</time>
      </trkpt>
      <trkpt lat="48.86399" lon="2.36304">
        <ele>69.8</ele>
        <time>2013-04-01T18:45:17.000Z</time>
      </trkpt>
      <trkpt lat="48.86397" lon="2.36308">
        <ele>69.5</ele>
        <time>2013-04-01T18:45:18.000Z</time>
      </trkpt>
      <trkpt lat="48.86396" lon="2.36312">
        <ele>69.3</ele>
        <time>2013-04-01T18:45:19.000Z</time>
      </trkpt>
      <trkpt lat="48.86393" lon="2.36316">
        <ele>69</ele>
        <time>2013-04-01T18:45:20.000Z</time>
      </trkpt>
      <trkpt lat="48.86389" lon="2.36322">
        <ele>68.8</ele>
        <time>2013-04-01T18:45:21.000Z</time>
      </trkpt>
      <trkpt lat="48.86385" lon="2.36327">
        <ele>68.6</ele>
        <time>2013-04-01T18:45:22.000Z</time>
      </trkpt>
      <trkpt lat="48.86382" lon="2.36329">
        <ele>67.7</ele>
        <time>2013-04-01T18:45:23.000Z</time>
      </trkpt>
      <trkpt lat="48.86378" lon="2.36326">
        <ele>67.8</ele>
        <time>2013-04-01T18:45:24.000Z</time>
      </trkpt>
      <trkpt lat="48.86374" lon="2.3632">
        <ele>67.7</ele>
        <time>2013-04-01T18:45:25.000Z</time>
      </trkpt>
      <trkpt lat="48.8637" lon="2.36315">
        <ele>67.5</ele>
        <time>2013-04-01T18:45:26.000Z</time>
      </trkpt>
      <trkpt lat="48.86366" lon="2.36309">
        <ele>67.5</ele>
        <time>2013-04-01T18:45:27.000Z</time>
      </trkpt>
      <trkpt lat="48.86362" lon="2.36303">
        <ele>68.9</ele>
        <time>2013-04-01T18:45:28.000Z</time>
      </trkpt>
      <trkpt lat="48.86359" lon="2.36298">
        <ele>68.4</ele>
        <time>2013-04-01T18:45:29.000Z</time>
      </trkpt>
      <trkpt lat="48.86356" lon="2.36294">
        <ele>68.1</ele>
        <time>2013-04-01T18:45:30.000Z</time>
      </trkpt>
      <trkpt lat="48.86352" lon="2.36291">
        <ele>67.7</ele>
        <time>2013-04-01T18:45:31.000Z</time>
      </trkpt>
      <trkpt lat="48.86349" lon="2.36288">
        <ele>67.4</ele>
        <time>2013-04-01T18:45:32.000Z</time>
      </trkpt>
      <trkpt lat="48.86346" lon="2.36285">
        <ele>67.2</ele>
        <time>2013-04-01T18:45:33.000Z</time>
      </trkpt>
      <trkpt lat="48.86343" lon="2.36281">
        <ele>66.6</ele>
        <time>2013-04-01T18:45:34.000Z</time>
      </trkpt>
      <trkpt lat="48.8634" lon="2.36278">
        <ele>66.4</ele>
        <time>2013-04-01T18:45:35.000Z</time>
      </trkpt>
      <trkpt lat="48.86334" lon="2.36274">
        <ele>66.9</ele>
        <time>2013-04-01T18:45:37.000Z</time>
      </trkpt>
      <trkpt lat="48.86332" lon="2.36272">
        <ele>66.7</ele>
        <time>2013-04-01T18:45:38.000Z</time>
      </trkpt>
      <trkpt lat="48.86329" lon="2.36271">
        <ele>66.6</ele>
        <time>2013-04-01T18:45:39.000Z</time>
      </trkpt>
      <trkpt lat="48.86326" lon="2.36271">
        <ele>66.5</ele>
        <time>2013-04-01T18:45:40.000Z</time>
      </trkpt>
      <trkpt lat="48.86323" lon="2.36271">
        <ele>67.4</ele>
        <time>2013-04-01T18:45:41.000Z</time>
      </trkpt>
      <trkpt lat="48.8632" lon="2.36271">
        <ele>68.3</ele>
        <time>2013-04-01T18:45:42.000Z</time>
      </trkpt>
      <trkpt lat="48.86317" lon="2.36271">
        <ele>70.6</ele>
        <time>2013-04-01T18:45:43.000Z</time>
      </trkpt>
      <trkpt lat="48.86314" lon="2.36273">
        <ele>71.7</ele>
        <time>2013-04-01T18:45:46.000Z</time>
      </trkpt>
      <trkpt lat="48.86313" lon="2.36273">
        <ele>72.3</ele>
        <time>2013-04-01T18:45:47.000Z</time>
      </trkpt>
      <trkpt lat="48.8631" lon="2.36272">
        <ele>73.6</ele>
        <time>2013-04-01T18:45:49.000Z</time>
      </trkpt>
      <trkpt lat="48.86307" lon="2.36271">
        <ele>75.8</ele>
        <time>2013-04-01T18:45:50.000Z</time>
      </trkpt>
      <trkpt lat="48.86303" lon="2.3627">
        <ele>76.4</ele>
        <time>2013-04-01T18:45:56.000Z</time>
      </trkpt>
      <trkpt lat="48.86302" lon="2.3627">
        <ele>77</ele>
        <time>2013-04-01T18:45:57.000Z</time>
      </trkpt>
      <trkpt lat="48.86299" lon="2.3627">
        <ele>79.3</ele>
        <time>2013-04-01T18:46:08.000Z</time>
      </trkpt>
      <trkpt lat="48.86297" lon="2.36272">
        <ele>78.7</ele>
        <time>2013-04-01T18:46:09.000Z</time>
      </trkpt>
      <trkpt lat="48.86295" lon="2.36275">
        <ele>78.6</ele>
        <time>2013-04-01T18:46:10.000Z</time>
      </trkpt>
      <trkpt lat="48.86292" lon="2.3628">
        <ele>78.6</ele>
        <time>2013-04-01T18:46:11.000Z</time>
      </trkpt>
      <trkpt lat="48.86289" lon="2.36286">
        <ele>79</ele>
        <time>2013-04-01T18:46:12.000Z</time>
      </trkpt>
      <trkpt lat="48.86287" lon="2.36292">
        <ele>78.7</ele>
        <time>2013-04-01T18:46:13.000Z</time>
      </trkpt>
      <trkpt lat="48.86284" lon="2.36297">
        <ele>79.4</ele>
        <time>2013-04-01T18:46:14.000Z</time>
      </trkpt>
      <trkpt lat="48.86281" lon="2.36302">
        <ele>79.4</ele>
        <time>2013-04-01T18:46:15.000Z</time>
      </trkpt>
      <trkpt lat="48.86277" lon="2.36308">
        <ele>79.8</ele>
        <time>2013-04-01T18:46:16.000Z</time>
      </trkpt>
      <trkpt lat="48.86274" lon="2.36313">
        <ele>80.6</ele>
        <time>2013-04-01T18:46:17.000Z</time>
      </trkpt>
      <trkpt lat="48.8627" lon="2.36318">
        <ele>80.5</ele>
        <time>2013-04-01T18:46:18.000Z</time>
      </trkpt>
      <trkpt lat="48.86267" lon="2.36324">
        <ele>79.7</ele>
        <time>2013-04-01T18:46:19.000Z</time>
      </trkpt>
      <trkpt lat="48.86263" lon="2.3633">
        <ele>79.7</ele>
        <time>2013-04-01T18:46:20.000Z</time>
      </trkpt>
      <trkpt lat="48.8626" lon="2.36336">
        <ele>79.8</ele>
        <time>2013-04-01T18:46:21.000Z</time>
      </trkpt>
      <trkpt lat="48.86257" lon="2.36343">
        <ele>79.7</ele>
        <time>2013-04-01T18:46:22.000Z</time>
      </trkpt>
      <trkpt lat="48.86254" lon="2.36351">
        <ele>80.5</ele>
        <time>2013-04-01T18:46:23.000Z</time>
      </trkpt>
      <trkpt lat="48.86251" lon="2.36358">
        <ele>80.8</ele>
        <time>2013-04-01T18:46:24.000Z</time>
      </trkpt>
      <trkpt lat="48.86248" lon="2.36365">
        <ele>81.1</ele>
        <time>2013-04-01T18:46:25.000Z</time>
      </trkpt>
      <trkpt lat="48.86245" lon="2.36371">
        <ele>81.4</ele>
        <time>2013-04-01T18:46:26.000Z</time>
      </trkpt>
      <trkpt lat="48.86242" lon="2.36377">
        <ele>82.4</ele>
        <time>2013-04-01T18:46:27.000Z</time>
      </trkpt>
      <trkpt lat="48.8624" lon="2.36383">
        <ele>81.5</ele>
        <time>2013-04-01T18:46:28.000Z</time>
      </trkpt>
      <trkpt lat="48.86237" lon="2.36389">
        <ele>81.6</ele>
        <time>2013-04-01T18:46:29.000Z</time>
      </trkpt>
      <trkpt lat="48.86234" lon="2.36394">
        <ele>82.4</ele>
        <time>2013-04-01T18:46:30.000Z</time>
      </trkpt>
      <trkpt lat="48.86232" lon="2.364">
        <ele>81.8</ele>
        <time>2013-04-01T18:46:31.000Z</time>
      </trkpt>
      <trkpt lat="48.86229" lon="2.36407">
        <ele>81.1</ele>
        <time>2013-04-01T18:46:32.000Z</time>
      </trkpt>
      <trkpt lat="48.86226" lon="2.36412">
        <ele>81.1</ele>
        <time>2013-04-01T18:46:33.000Z</time>
      </trkpt>
      <trkpt lat="48.86223" lon="2.36418">
        <ele>81.8</ele>
        <time>2013-04-01T18:46:34.000Z</time>
      </trkpt>
      <trkpt lat="48.8622" lon="2.36423">
        <ele>82.4</ele>
        <time>2013-04-01T18:46:35.000Z</time>
      </trkpt>
      <trkpt lat="48.86217" lon="2.36428">
        <ele>82.3</ele>
        <time>2013-04-01T18:46:36.000Z</time>
      </trkpt>
      <trkpt lat="48.86214" lon="2.36433">
        <ele>82.2</ele>
        <time>2013-04-01T18:46:37.000Z</time>
      </trkpt>
      <trkpt lat="48.8621" lon="2.36439">
        <ele>84.1</ele>
        <time>2013-04-01T18:46:38.000Z</time>
      </trkpt>
      <trkpt lat="48.86208" lon="2.36445">
        <ele>83.5</ele>
        <time>2013-04-01T18:46:39.000Z</time>
      </trkpt>
      <trkpt lat="48.86205" lon="2.36451">
        <ele>83.6</ele>
        <time>2013-04-01T18:46:40.000Z</time>
      </trkpt>
      <trkpt lat="48.86203" lon="2.36458">
        <ele>84.3</ele>
        <time>2013-04-01T18:46:41.000Z</time>
      </trkpt>
      <trkpt lat="48.86202" lon="2.36465">
        <ele>83.7</ele>
        <time>2013-04-01T18:46:42.000Z</time>
      </trkpt>
      <trkpt lat="48.862" lon="2.36471">
        <ele>83.1</ele>
        <time>2013-04-01T18:46:43.000Z</time>
      </trkpt>
      <trkpt lat="48.86199" lon="2.36477">
        <ele>82.5</ele>
        <time>2013-04-01T18:46:44.000Z</time>
      </trkpt>
      <trkpt lat="48.86198" lon="2.36483">
        <ele>82</ele>
        <time>2013-04-01T18:46:45.000Z</time>
      </trkpt>
      <trkpt lat="48.86197" lon="2.36489">
        <ele>80.7</ele>
        <time>2013-04-01T18:46:46.000Z</time>
      </trkpt>
      <trkpt lat="48.86196" lon="2.36495">
        <ele>79.9</ele>
        <time>2013-04-01T18:46:47.000Z</time>
      </trkpt>
      <trkpt lat="48.86196" lon="2.36501">
        <ele>79.8</ele>
        <time>2013-04-01T18:46:48.000Z</time>
      </trkpt>
      <trkpt lat="48.86195" lon="2.36507">
        <ele>80.1</ele>
        <time>2013-04-01T18:46:49.000Z</time>
      </trkpt>
      <trkpt lat="48.86193" lon="2.36514">
        <ele>80.6</ele>
        <time>2013-04-01T18:46:50.000Z</time>
      </trkpt>
      <trkpt lat="48.86193" lon="2.36519">
        <ele>80.3</ele>
        <time>2013-04-01T18:46:51.000Z</time>
      </trkpt>
      <trkpt lat="48.86192" lon="2.36524">
        <ele>79.2</ele>
        <time>2013-04-01T18:46:52.000Z</time>
      </trkpt>
      <trkpt lat="48.86192" lon="2.36528">
        <ele>78.4</ele>
        <time>2013-04-01T18:46:53.000Z</time>
      </trkpt>
      <trkpt lat="48.86191" lon="2.36532">
        <ele>79.8</ele>
        <time>2013-04-01T18:46:54.000Z</time>
      </trkpt>
      <trkpt lat="48.8619" lon="2.36536">
        <ele>80.4</ele>
        <time>2013-04-01T18:46:55.000Z</time>
      </trkpt>
      <trkpt lat="48.8619" lon="2.36541">
        <ele>80.8</ele>
        <time>2013-04-01T18:46:56.000Z</time>
      </trkpt>
      <trkpt lat="48.86191" lon="2.36546">
        <ele>81.8</ele>
        <time>2013-04-01T18:46:57.000Z</time>
      </trkpt>
      <trkpt lat="48.86192" lon="2.36551">
        <ele>81.9</ele>
        <time>2013-04-01T18:46:58.000Z</time>
      </trkpt>
      <trkpt lat="48.86193" lon="2.36556">
        <ele>82</ele>
        <time>2013-04-01T18:46:59.000Z</time>
      </trkpt>
      <trkpt lat="48.86194" lon="2.36561">
        <ele>82.4</ele>
        <time>2013-04-01T18:47:00.000Z</time>
      </trkpt>
      <trkpt lat="48.86196" lon="2.36566">
        <ele>82.3</ele>
        <time>2013-04-01T18:47:01.000Z</time>
      </trkpt>
      <trkpt lat="48.86197" lon="2.36571">
        <ele>82.4</ele>
        <time>2013-04-01T18:47:02.000Z</time>
      </trkpt>
      <trkpt lat="48.86198" lon="2.36576">
        <ele>82.6</ele>
        <time>2013-04-01T18:47:03.000Z</time>
      </trkpt>
      <trkpt lat="48.862" lon="2.36582">
        <ele>82.5</ele>
        <time>2013-04-01T18:47:04.000Z</time>
      </trkpt>
      <trkpt lat="48.86202" lon="2.36588">
        <ele>82.8</ele>
        <time>2013-04-01T18:47:05.000Z</time>
      </trkpt>
      <trkpt lat="48.86203" lon="2.36595">
        <ele>82.9</ele>
        <time>2013-04-01T18:47:06.000Z</time>
      </trkpt>
      <trkpt lat="48.86205" lon="2.36601">
        <ele>83.1</ele>
        <time>2013-04-01T18:47:07.000Z</time>
      </trkpt>
      <trkpt lat="48.86206" lon="2.36607">
        <ele>83.3</ele>
        <time>2013-04-01T18:47:08.000Z</time>
      </trkpt>
      <trkpt lat="48.86209" lon="2.36613">
        <ele>82.6</ele>
        <time>2013-04-01T18:47:09.000Z</time>
      </trkpt>
      <trkpt lat="48.86212" lon="2.36618">
        <ele>82.6</ele>
        <time>2013-04-01T18:47:10.000Z</time>
      </trkpt>
      <trkpt lat="48.86215" lon="2.36622">
        <ele>82.8</ele>
        <time>2013-04-01T18:47:11.000Z</time>
      </trkpt>
      <trkpt lat="48.86217" lon="2.36626">
        <ele>83.3</ele>
        <time>2013-04-01T18:47:12.000Z</time>
      </trkpt>
      <trkpt lat="48.8622" lon="2.36631">
        <ele>84.3</ele>
        <time>2013-04-01T18:47:13.000Z</time>
      </trkpt>
      <trkpt lat="48.86223" lon="2.36636">
        <ele>85</ele>
        <time>2013-04-01T18:47:14.000Z</time>
      </trkpt>
      <trkpt lat="48.86226" lon="2.3664">
        <ele>85</ele>
        <time>2013-04-01T18:47:15.000Z</time>
      </trkpt>
      <trkpt lat="48.86228" lon="2.36645">
        <ele>85.3</ele>
        <time>2013-04-01T18:47:16.000Z</time>
      </trkpt>
      <trkpt lat="48.8623" lon="2.36649">
        <ele>85.7</ele>
        <time>2013-04-01T18:47:17.000Z</time>
      </trkpt>
      <trkpt lat="48.86232" lon="2.36653">
        <ele>85.3</ele>
        <time>2013-04-01T18:47:18.000Z</time>
      </trkpt>
      <trkpt lat="48.86233" lon="2.36657">
        <ele>86.2</ele>
        <time>2013-04-01T18:47:19.000Z</time>
      </trkpt>
      <trkpt lat="48.86236" lon="2.36661">
        <ele>86.7</ele>
        <time>2013-04-01T18:47:20.000Z</time>
      </trkpt>
      <trkpt lat="48.86239" lon="2.36664">
        <ele>87.1</ele>
        <time>2013-04-01T18:47:21.000Z</time>
      </trkpt>
      <trkpt lat="48.86241" lon="2.36667">
        <ele>88.1</ele>
        <time>2013-04-01T18:47:22.000Z</time>
      </trkpt>
      <trkpt lat="48.86243" lon="2.3667">
        <ele>88.9</ele>
        <time>2013-04-01T18:47:23.000Z</time>
      </trkpt>
      <trkpt lat="48.86243" lon="2.36673">
        <ele>89.5</ele>
        <time>2013-04-01T18:47:24.000Z</time>
      </trkpt>
      <trkpt lat="48.86244" lon="2.36679">
        <ele>89.7</ele>
        <time>2013-04-01T18:47:26.000Z</time>
      </trkpt>
      <trkpt lat="48.86243" lon="2.36682">
        <ele>90.6</ele>
        <time>2013-04-01T18:47:27.000Z</time>
      </trkpt>
      <trkpt lat="48.86244" lon="2.36688">
        <ele>92.9</ele>
        <time>2013-04-01T18:47:31.000Z</time>
      </trkpt>
      <trkpt lat="48.86243" lon="2.3669">
        <ele>93.4</ele>
        <time>2013-04-01T18:47:32.000Z</time>
      </trkpt>
      <trkpt lat="48.86243" lon="2.36696">
        <ele>94.3</ele>
        <time>2013-04-01T18:47:35.000Z</time>
      </trkpt>
      <trkpt lat="48.86245" lon="2.36699">
        <ele>93.8</ele>
        <time>2013-04-01T18:47:36.000Z</time>
      </trkpt>
      <trkpt lat="48.86247" lon="2.36703">
        <ele>93.8</ele>
        <time>2013-04-01T18:47:37.000Z</time>
      </trkpt>
      <trkpt lat="48.86249" lon="2.36707">
        <ele>93.9</ele>
        <time>2013-04-01T18:47:38.000Z</time>
      </trkpt>
      <trkpt lat="48.86251" lon="2.36712">
        <ele>94.1</ele>
        <time>2013-04-01T18:47:39.000Z</time>
      </trkpt>
      <trkpt lat="48.86254" lon="2.36717">
        <ele>91.1</ele>
        <time>2013-04-01T18:47:40.000Z</time>
      </trkpt>
      <trkpt lat="48.86256" lon="2.36721">
        <ele>91.1</ele>
        <time>2013-04-01T18:47:41.000Z</time>
      </trkpt>
      <trkpt lat="48.86259" lon="2.36726">
        <ele>90.6</ele>
        <time>2013-04-01T18:47:42.000Z</time>
      </trkpt>
      <trkpt lat="48.86264" lon="2.3673">
        <ele>92.3</ele>
        <time>2013-04-01T18:47:43.000Z</time>
      </trkpt>
      <trkpt lat="48.86268" lon="2.36732">
        <ele>91</ele>
        <time>2013-04-01T18:47:44.000Z</time>
      </trkpt>
      <trkpt lat="48.86271" lon="2.36738">
        <ele>91</ele>
        <time>2013-04-01T18:47:45.000Z</time>
      </trkpt>
      <trkpt lat="48.86275" lon="2.36747">
        <ele>91.1</ele>
        <time>2013-04-01T18:47:46.000Z</time>
      </trkpt>
      <trkpt lat="48.8628" lon="2.36757">
        <ele>91.3</ele>
        <time>2013-04-01T18:47:47.000Z</time>
      </trkpt>
      <trkpt lat="48.86282" lon="2.36766">
        <ele>91.7</ele>
        <time>2013-04-01T18:47:48.000Z</time>
      </trkpt>
      <trkpt lat="48.86285" lon="2.36776">
        <ele>91.5</ele>
        <time>2013-04-01T18:47:49.000Z</time>
      </trkpt>
      <trkpt lat="48.86286" lon="2.36786">
        <ele>91</ele>
        <time>2013-04-01T18:47:50.000Z</time>
      </trkpt>
      <trkpt lat="48.8629" lon="2.36796">
        <ele>90.3</ele>
        <time>2013-04-01T18:47:51.000Z</time>
      </trkpt>
      <trkpt lat="48.86293" lon="2.36804">
        <ele>90.1</ele>
        <time>2013-04-01T18:47:52.000Z</time>
      </trkpt>
      <trkpt lat="48.86298" lon="2.36813">
        <ele>89.6</ele>
        <time>2013-04-01T18:47:53.000Z</time>
      </trkpt>
      <trkpt lat="48.863" lon="2.36824">
        <ele>89.2</ele>
        <time>2013-04-01T18:47:54.000Z</time>
      </trkpt>
      <trkpt lat="48.86299" lon="2.36826">
        <ele>88.8</ele>
        <time>2013-04-01T18:47:55.000Z</time>
      </trkpt>
      <trkpt lat="48.86302" lon="2.36831">
        <ele>89.3</ele>
        <time>2013-04-01T18:47:56.000Z</time>
      </trkpt>
      <trkpt lat="48.86304" lon="2.36841">
        <ele>89.8</ele>
        <time>2013-04-01T18:47:57.000Z</time>
      </trkpt>
      <trkpt lat="48.86308" lon="2.36848">
        <ele>90.4</ele>
        <time>2013-04-01T18:47:58.000Z</time>
      </trkpt>
      <trkpt lat="48.86316" lon="2.36848">
        <ele>91.3</ele>
        <time>2013-04-01T18:47:59.000Z</time>
      </trkpt>
      <trkpt lat="48.8632" lon="2.36854">
        <ele>91</ele>
        <time>2013-04-01T18:48:00.000Z</time>
      </trkpt>
      <trkpt lat="48.8632" lon="2.36862">
        <ele>90.8</ele>
        <time>2013-04-01T18:48:01.000Z</time>
      </trkpt>
      <trkpt lat="48.86327" lon="2.36868">
        <ele>91.4</ele>
        <time>2013-04-01T18:48:02.000Z</time>
      </trkpt>
      <trkpt lat="48.86329" lon="2.36873">
        <ele>91</ele>
        <time>2013-04-01T18:48:03.000Z</time>
      </trkpt>
      <trkpt lat="48.86335" lon="2.36883">
        <ele>90.6</ele>
        <time>2013-04-01T18:48:04.000Z</time>
      </trkpt>
      <trkpt lat="48.86337" lon="2.36891">
        <ele>90.7</ele>
        <time>2013-04-01T18:48:05.000Z</time>
      </trkpt>
      <trkpt lat="48.86348" lon="2.36892">
        <ele>90.4</ele>
        <time>2013-04-01T18:48:06.000Z</time>
      </trkpt>
      <trkpt lat="48.86348" lon="2.36901">
        <ele>90.3</ele>
        <time>2013-04-01T18:48:07.000Z</time>
      </trkpt>
      <trkpt lat="48.8635" lon="2.36904">
        <ele>89.9</ele>
        <time>2013-04-01T18:48:08.000Z</time>
      </trkpt>
      <trkpt lat="48.86353" lon="2.36906">
        <ele>88.9</ele>
        <time>2013-04-01T18:48:09.000Z</time>
      </trkpt>
      <trkpt lat="48.86352" lon="2.36916">
        <ele>89</ele>
        <time>2013-04-01T18:48:10.000Z</time>
      </trkpt>
      <trkpt lat="48.86354" lon="2.36919">
        <ele>90</ele>
        <time>2013-04-01T18:48:11.000Z</time>
      </trkpt>
      <trkpt lat="48.86357" lon="2.36924">
        <ele>91.4</ele>
        <time>2013-04-01T18:48:12.000Z</time>
      </trkpt>
      <trkpt lat="48.8636" lon="2.36924">
        <ele>88.8</ele>
        <time>2013-04-01T18:48:15.000Z</time>
      </trkpt>
      <trkpt lat="48.86367" lon="2.3692">
        <ele>88.6</ele>
        <time>2013-04-01T18:48:16.000Z</time>
      </trkpt>
      <trkpt lat="48.8637" lon="2.3692">
        <ele>89.9</ele>
        <time>2013-04-01T18:48:17.000Z</time>
      </trkpt>
      <trkpt lat="48.86373" lon="2.36918">
        <ele>89.9</ele>
        <time>2013-04-01T18:48:18.000Z</time>
      </trkpt>
      <trkpt lat="48.86376" lon="2.36915">
        <ele>90</ele>
        <time>2013-04-01T18:48:19.000Z</time>
      </trkpt>
      <trkpt lat="48.86378" lon="2.36912">
        <ele>90.2</ele>
        <time>2013-04-01T18:48:20.000Z</time>
      </trkpt>
      <trkpt lat="48.86381" lon="2.3691">
        <ele>89.9</ele>
        <time>2013-04-01T18:48:21.000Z</time>
      </trkpt>
      <trkpt lat="48.86384" lon="2.36907">
        <ele>89.6</ele>
        <time>2013-04-01T18:48:22.000Z</time>
      </trkpt>
      <trkpt lat="48.86389" lon="2.36907">
        <ele>89.7</ele>
        <time>2013-04-01T18:48:23.000Z</time>
      </trkpt>
      <trkpt lat="48.86391" lon="2.36906">
        <ele>89.9</ele>
        <time>2013-04-01T18:48:24.000Z</time>
      </trkpt>
      <trkpt lat="48.86394" lon="2.36902">
        <ele>90</ele>
        <time>2013-04-01T18:48:25.000Z</time>
      </trkpt>
      <trkpt lat="48.86398" lon="2.36901">
        <ele>89.8</ele>
        <time>2013-04-01T18:48:26.000Z</time>
      </trkpt>
      <trkpt lat="48.86401" lon="2.36898">
        <ele>89</ele>
        <time>2013-04-01T18:48:27.000Z</time>
      </trkpt>
      <trkpt lat="48.86404" lon="2.36896">
        <ele>88.8</ele>
        <time>2013-04-01T18:48:28.000Z</time>
      </trkpt>
      <trkpt lat="48.86408" lon="2.36894">
        <ele>88.6</ele>
        <time>2013-04-01T18:48:29.000Z</time>
      </trkpt>
      <trkpt lat="48.86411" lon="2.36891">
        <ele>88.5</ele>
        <time>2013-04-01T18:48:30.000Z</time>
      </trkpt>
      <trkpt lat="48.86414" lon="2.36889">
        <ele>88.3</ele>
        <time>2013-04-01T18:48:31.000Z</time>
      </trkpt>
      <trkpt lat="48.86417" lon="2.36884">
        <ele>88.3</ele>
        <time>2013-04-01T18:48:32.000Z</time>
      </trkpt>
      <trkpt lat="48.8642" lon="2.36882">
        <ele>88.5</ele>
        <time>2013-04-01T18:48:33.000Z</time>
      </trkpt>
      <trkpt lat="48.86423" lon="2.36882">
        <ele>88.6</ele>
        <time>2013-04-01T18:48:34.000Z</time>
      </trkpt>
      <trkpt lat="48.86426" lon="2.36881">
        <ele>88.3</ele>
        <time>2013-04-01T18:48:35.000Z</time>
      </trkpt>
      <trkpt lat="48.86429" lon="2.36881">
        <ele>86.7</ele>
        <time>2013-04-01T18:48:36.000Z</time>
      </trkpt>
      <trkpt lat="48.86432" lon="2.36882">
        <ele>87.9</ele>
        <time>2013-04-01T18:48:37.000Z</time>
      </trkpt>
      <trkpt lat="48.86435" lon="2.36883">
        <ele>87.3</ele>
        <time>2013-04-01T18:48:38.000Z</time>
      </trkpt>
      <trkpt lat="48.86438" lon="2.36886">
        <ele>86.6</ele>
        <time>2013-04-01T18:48:39.000Z</time>
      </trkpt>
      <trkpt lat="48.86441" lon="2.36889">
        <ele>86.3</ele>
        <time>2013-04-01T18:48:40.000Z</time>
      </trkpt>
      <trkpt lat="48.86445" lon="2.36892">
        <ele>89.5</ele>
        <time>2013-04-01T18:48:41.000Z</time>
      </trkpt>
      <trkpt lat="48.86447" lon="2.36893">
        <ele>89.4</ele>
        <time>2013-04-01T18:48:42.000Z</time>
      </trkpt>
      <trkpt lat="48.8645" lon="2.36894">
        <ele>88.5</ele>
        <time>2013-04-01T18:48:43.000Z</time>
      </trkpt>
      <trkpt lat="48.86453" lon="2.36894">
        <ele>86</ele>
        <time>2013-04-01T18:48:44.000Z</time>
      </trkpt>
      <trkpt lat="48.86456" lon="2.36893">
        <ele>85.6</ele>
        <time>2013-04-01T18:48:45.000Z</time>
      </trkpt>
      <trkpt lat="48.86459" lon="2.36892">
        <ele>84.6</ele>
        <time>2013-04-01T18:48:46.000Z</time>
      </trkpt>
      <trkpt lat="48.86462" lon="2.36889">
        <ele>84.8</ele>
        <time>2013-04-01T18:48:47.000Z</time>
      </trkpt>
      <trkpt lat="48.86465" lon="2.36886">
        <ele>85.4</ele>
        <time>2013-04-01T18:48:48.000Z</time>
      </trkpt>
      <trkpt lat="48.86468" lon="2.3688">
        <ele>85.7</ele>
        <time>2013-04-01T18:48:49.000Z</time>
      </trkpt>
      <trkpt lat="48.86472" lon="2.36875">
        <ele>85.3</ele>
        <time>2013-04-01T18:48:50.000Z</time>
      </trkpt>
      <trkpt lat="48.86475" lon="2.3687">
        <ele>83.7</ele>
        <time>2013-04-01T18:48:51.000Z</time>
      </trkpt>
      <trkpt lat="48.86477" lon="2.36864">
        <ele>83.7</ele>
        <time>2013-04-01T18:48:52.000Z</time>
      </trkpt>
      <trkpt lat="48.8648" lon="2.36859">
        <ele>83.2</ele>
        <time>2013-04-01T18:48:53.000Z</time>
      </trkpt>
      <trkpt lat="48.86483" lon="2.36853">
        <ele>83</ele>
        <time>2013-04-01T18:48:54.000Z</time>
      </trkpt>
      <trkpt lat="48.86486" lon="2.36847">
        <ele>82.7</ele>
        <time>2013-04-01T18:48:55.000Z</time>
      </trkpt>
      <trkpt lat="48.8649" lon="2.36838">
        <ele>82.2</ele>
        <time>2013-04-01T18:48:56.000Z</time>
      </trkpt>
      <trkpt lat="48.86493" lon="2.36832">
        <ele>82.6</ele>
        <time>2013-04-01T18:48:57.000Z</time>
      </trkpt>
      <trkpt lat="48.86496" lon="2.36828">
        <ele>81.2</ele>
        <time>2013-04-01T18:48:58.000Z</time>
      </trkpt>
      <trkpt lat="48.865" lon="2.36823">
        <ele>80.1</ele>
        <time>2013-04-01T18:48:59.000Z</time>
      </trkpt>
      <trkpt lat="48.86503" lon="2.36818">
        <ele>80.4</ele>
        <time>2013-04-01T18:49:00.000Z</time>
      </trkpt>
      <trkpt lat="48.86507" lon="2.36812">
        <ele>80</ele>
        <time>2013-04-01T18:49:01.000Z</time>
      </trkpt>
      <trkpt lat="48.8651" lon="2.36808">
        <ele>80.2</ele>
        <time>2013-04-01T18:49:02.000Z</time>
      </trkpt>
      <trkpt lat="48.86513" lon="2.36804">
        <ele>80.5</ele>
        <time>2013-04-01T18:49:03.000Z</time>
      </trkpt>
      <trkpt lat="48.86518" lon="2.36808">
        <ele>80.2</ele>
        <time>2013-04-01T18:49:04.000Z</time>
      </trkpt>
      <trkpt lat="48.86522" lon="2.3681">
        <ele>80.2</ele>
        <time>2013-04-01T18:49:05.000Z</time>
      </trkpt>
      <trkpt lat="48.86525" lon="2.36809">
        <ele>80</ele>
        <time>2013-04-01T18:49:06.000Z</time>
      </trkpt>
      <trkpt lat="48.86526" lon="2.36802">
        <ele>79.3</ele>
        <time>2013-04-01T18:49:08.000Z</time>
      </trkpt>
      <trkpt lat="48.86528" lon="2.36799">
        <ele>78.8</ele>
        <time>2013-04-01T18:49:09.000Z</time>
      </trkpt>
      <trkpt lat="48.8653" lon="2.36797">
        <ele>79.1</ele>
        <time>2013-04-01T18:49:10.000Z</time>
      </trkpt>
      <trkpt lat="48.86532" lon="2.36794">
        <ele>79</ele>
        <time>2013-04-01T18:49:11.000Z</time>
      </trkpt>
      <trkpt lat="48.86538" lon="2.36793">
        <ele>79.4</ele>
        <time>2013-04-01T18:49:12.000Z</time>
      </trkpt>
      <trkpt lat="48.86541" lon="2.36792">
        <ele>79.6</ele>
        <time>2013-04-01T18:49:13.000Z</time>
      </trkpt>
      <trkpt lat="48.86545" lon="2.3679">
        <ele>80</ele>
        <time>2013-04-01T18:49:14.000Z</time>
      </trkpt>
      <trkpt lat="48.86548" lon="2.36788">
        <ele>80</ele>
        <time>2013-04-01T18:49:15.000Z</time>
      </trkpt>
      <trkpt lat="48.86552" lon="2.36786">
        <ele>80</ele>
        <time>2013-04-01T18:49:16.000Z</time>
      </trkpt>
      <trkpt lat="48.86557" lon="2.36785">
        <ele>81</ele>
        <time>2013-04-01T18:49:17.000Z</time>
      </trkpt>
      <trkpt lat="48.86564" lon="2.36784">
        <ele>80.7</ele>
        <time>2013-04-01T18:49:18.000Z</time>
      </trkpt>
      <trkpt lat="48.86568" lon="2.36781">
        <ele>80.4</ele>
        <time>2013-04-01T18:49:19.000Z</time>
      </trkpt>
      <trkpt lat="48.86572" lon="2.36778">
        <ele>80.5</ele>
        <time>2013-04-01T18:49:20.000Z</time>
      </trkpt>
      <trkpt lat="48.86576" lon="2.36776">
        <ele>80.4</ele>
        <time>2013-04-01T18:49:21.000Z</time>
      </trkpt>
      <trkpt lat="48.86579" lon="2.36775">
        <ele>80.4</ele>
        <time>2013-04-01T18:49:22.000Z</time>
      </trkpt>
      <trkpt lat="48.86584" lon="2.36774">
        <ele>80.6</ele>
        <time>2013-04-01T18:49:23.000Z</time>
      </trkpt>
      <trkpt lat="48.86587" lon="2.36765">
        <ele>80.3</ele>
        <time>2013-04-01T18:49:24.000Z</time>
      </trkpt>
      <trkpt lat="48.86591" lon="2.36762">
        <ele>80.2</ele>
        <time>2013-04-01T18:49:25.000Z</time>
      </trkpt>
      <trkpt lat="48.86596" lon="2.36762">
        <ele>80.2</ele>
        <time>2013-04-01T18:49:26.000Z</time>
      </trkpt>
      <trkpt lat="48.866" lon="2.36759">
        <ele>79.9</ele>
        <time>2013-04-01T18:49:27.000Z</time>
      </trkpt>
      <trkpt lat="48.86603" lon="2.36757">
        <ele>79.4</ele>
        <time>2013-04-01T18:49:28.000Z</time>
      </trkpt>
      <trkpt lat="48.86607" lon="2.36756">
        <ele>79.5</ele>
        <time>2013-04-01T18:49:29.000Z</time>
      </trkpt>
      <trkpt lat="48.86609" lon="2.36752">
        <ele>78</ele>
        <time>2013-04-01T18:49:30.000Z</time>
      </trkpt>
      <trkpt lat="48.86613" lon="2.36749">
        <ele>77.7</ele>
        <time>2013-04-01T18:49:31.000Z</time>
      </trkpt>
      <trkpt lat="48.86615" lon="2.36743">
        <ele>79.1</ele>
        <time>2013-04-01T18:49:32.000Z</time>
      </trkpt>
      <trkpt lat="48.86618" lon="2.3674">
        <ele>82.2</ele>
        <time>2013-04-01T18:49:33.000Z</time>
      </trkpt>
      <trkpt lat="48.86621" lon="2.36739">
        <ele>80.9</ele>
        <time>2013-04-01T18:49:34.000Z</time>
      </trkpt>
      <trkpt lat="48.86623" lon="2.36737">
        <ele>80.3</ele>
        <time>2013-04-01T18:49:35.000Z</time>
      </trkpt>
      <trkpt lat="48.86627" lon="2.36733">
        <ele>80.5</ele>
        <time>2013-04-01T18:49:36.000Z</time>
      </trkpt>
      <trkpt lat="48.86629" lon="2.3673">
        <ele>79.5</ele>
        <time>2013-04-01T18:49:37.000Z</time>
      </trkpt>
      <trkpt lat="48.86632" lon="2.36734">
        <ele>79.6</ele>
        <time>2013-04-01T18:49:38.000Z</time>
      </trkpt>
      <trkpt lat="48.86635" lon="2.36737">
        <ele>80.4</ele>
        <time>2013-04-01T18:49:39.000Z</time>
      </trkpt>
      <trkpt lat="48.86636" lon="2.36741">
        <ele>78.9</ele>
        <time>2013-04-01T18:49:40.000Z</time>
      </trkpt>
      <trkpt lat="48.86637" lon="2.36746">
        <ele>79.3</ele>
        <time>2013-04-01T18:49:41.000Z</time>
      </trkpt>
      <trkpt lat="48.86638" lon="2.36751">
        <ele>80.3</ele>
        <time>2013-04-01T18:49:42.000Z</time>
      </trkpt>
      <trkpt lat="48.86638" lon="2.36756">
        <ele>79.1</ele>
        <time>2013-04-01T18:49:43.000Z</time>
      </trkpt>
      <trkpt lat="48.86639" lon="2.36761">
        <ele>78.1</ele>
        <time>2013-04-01T18:49:44.000Z</time>
      </trkpt>
      <trkpt lat="48.8664" lon="2.36767">
        <ele>76.6</ele>
        <time>2013-04-01T18:49:45.000Z</time>
      </trkpt>
      <trkpt lat="48.86641" lon="2.36773">
        <ele>75.8</ele>
        <time>2013-04-01T18:49:46.000Z</time>
      </trkpt>
      <trkpt lat="48.86642" lon="2.3678">
        <ele>80.3</ele>
        <time>2013-04-01T18:49:47.000Z</time>
      </trkpt>
      <trkpt lat="48.86643" lon="2.36787">
        <ele>80.2</ele>
        <time>2013-04-01T18:49:48.000Z</time>
      </trkpt>
      <trkpt lat="48.86643" lon="2.36794">
        <ele>79.8</ele>
        <time>2013-04-01T18:49:49.000Z</time>
      </trkpt>
      <trkpt lat="48.86643" lon="2.36801">
        <ele>79</ele>
        <time>2013-04-01T18:49:50.000Z</time>
      </trkpt>
      <trkpt lat="48.86642" lon="2.36808">
        <ele>79.7</ele>
        <time>2013-04-01T18:49:51.000Z</time>
      </trkpt>
      <trkpt lat="48.86642" lon="2.36815">
        <ele>79.3</ele>
        <time>2013-04-01T18:49:52.000Z</time>
      </trkpt>
      <trkpt lat="48.8664" lon="2.36821">
        <ele>79.5</ele>
        <time>2013-04-01T18:49:53.000Z</time>
      </trkpt>
      <trkpt lat="48.86638" lon="2.36827">
        <ele>79.8</ele>
        <time>2013-04-01T18:49:54.000Z</time>
      </trkpt>
      <trkpt lat="48.86636" lon="2.36831">
        <ele>80.5</ele>
        <time>2013-04-01T18:49:55.000Z</time>
      </trkpt>
      <trkpt lat="48.86632" lon="2.36835">
        <ele>81.1</ele>
        <time>2013-04-01T18:49:56.000Z</time>
      </trkpt>
      <trkpt lat="48.86629" lon="2.36838">
        <ele>80.8</ele>
        <time>2013-04-01T18:49:57.000Z</time>
      </trkpt>
      <trkpt lat="48.86625" lon="2.36841">
        <ele>80.7</ele>
        <time>2013-04-01T18:49:58.000Z</time>
      </trkpt>
      <trkpt lat="48.8662" lon="2.36842">
        <ele>80.5</ele>
        <time>2013-04-01T18:49:59.000Z</time>
      </trkpt>
      <trkpt lat="48.86616" lon="2.36843">
        <ele>80.3</ele>
        <time>2013-04-01T18:50:00.000Z</time>
      </trkpt>
      <trkpt lat="48.86611" lon="2.36844">
        <ele>80.3</ele>
        <time>2013-04-01T18:50:01.000Z</time>
      </trkpt>
      <trkpt lat="48.86606" lon="2.36844">
        <ele>80.4</ele>
        <time>2013-04-01T18:50:02.000Z</time>
      </trkpt>
      <trkpt lat="48.86602" lon="2.36845">
        <ele>80.3</ele>
        <time>2013-04-01T18:50:03.000Z</time>
      </trkpt>
      <trkpt lat="48.86598" lon="2.36846">
        <ele>80.3</ele>
        <time>2013-04-01T18:50:04.000Z</time>
      </trkpt>
      <trkpt lat="48.86595" lon="2.36848">
        <ele>80.3</ele>
        <time>2013-04-01T18:50:05.000Z</time>
      </trkpt>
      <trkpt lat="48.86592" lon="2.3685">
        <ele>80.2</ele>
        <time>2013-04-01T18:50:06.000Z</time>
      </trkpt>
      <trkpt lat="48.86588" lon="2.36851">
        <ele>80</ele>
        <time>2013-04-01T18:50:07.000Z</time>
      </trkpt>
      <trkpt lat="48.86585" lon="2.36852">
        <ele>79.9</ele>
        <time>2013-04-01T18:50:08.000Z</time>
      </trkpt>
      <trkpt lat="48.86582" lon="2.36853">
        <ele>79.8</ele>
        <time>2013-04-01T18:50:09.000Z</time>
      </trkpt>
      <trkpt lat="48.86579" lon="2.36854">
        <ele>79.6</ele>
        <time>2013-04-01T18:50:10.000Z</time>
      </trkpt>
      <trkpt lat="48.86576" lon="2.36856">
        <ele>79.7</ele>
        <time>2013-04-01T18:50:11.000Z</time>
      </trkpt>
      <trkpt lat="48.86574" lon="2.36857">
        <ele>79.4</ele>
        <time>2013-04-01T18:50:12.000Z</time>
      </trkpt>
      <trkpt lat="48.86572" lon="2.36858">
        <ele>78.8</ele>
        <time>2013-04-01T18:50:13.000Z</time>
      </trkpt>
      <trkpt lat="48.86568" lon="2.36858">
        <ele>77.9</ele>
        <time>2013-04-01T18:50:14.000Z</time>
      </trkpt>
      <trkpt lat="48.86564" lon="2.36859">
        <ele>77.1</ele>
        <time>2013-04-01T18:50:15.000Z</time>
      </trkpt>
      <trkpt lat="48.86559" lon="2.36861">
        <ele>77</ele>
        <time>2013-04-01T18:50:16.000Z</time>
      </trkpt>
      <trkpt lat="48.86554" lon="2.36863">
        <ele>76.5</ele>
        <time>2013-04-01T18:50:17.000Z</time>
      </trkpt>
      <trkpt lat="48.86549" lon="2.36864">
        <ele>76.1</ele>
        <time>2013-04-01T18:50:18.000Z</time>
      </trkpt>
      <trkpt lat="48.86545" lon="2.36866">
        <ele>78.5</ele>
        <time>2013-04-01T18:50:19.000Z</time>
      </trkpt>
      <trkpt lat="48.86541" lon="2.36868">
        <ele>78</ele>
        <time>2013-04-01T18:50:20.000Z</time>
      </trkpt>
      <trkpt lat="48.86537" lon="2.3687">
        <ele>77.9</ele>
        <time>2013-04-01T18:50:21.000Z</time>
      </trkpt>
      <trkpt lat="48.86532" lon="2.3687">
        <ele>77.8</ele>
        <time>2013-04-01T18:50:22.000Z</time>
      </trkpt>
      <trkpt lat="48.86528" lon="2.36871">
        <ele>77.5</ele>
        <time>2013-04-01T18:50:23.000Z</time>
      </trkpt>
      <trkpt lat="48.86524" lon="2.36872">
        <ele>77.3</ele>
        <time>2013-04-01T18:50:24.000Z</time>
      </trkpt>
      <trkpt lat="48.8652" lon="2.36874">
        <ele>76.8</ele>
        <time>2013-04-01T18:50:25.000Z</time>
      </trkpt>
      <trkpt lat="48.86516" lon="2.36878">
        <ele>76.4</ele>
        <time>2013-04-01T18:50:26.000Z</time>
      </trkpt>
      <trkpt lat="48.86511" lon="2.36881">
        <ele>76.3</ele>
        <time>2013-04-01T18:50:27.000Z</time>
      </trkpt>
      <trkpt lat="48.86507" lon="2.36884">
        <ele>75.8</ele>
        <time>2013-04-01T18:50:28.000Z</time>
      </trkpt>
      <trkpt lat="48.86504" lon="2.36886">
        <ele>75.7</ele>
        <time>2013-04-01T18:50:29.000Z</time>
      </trkpt>
      <trkpt lat="48.865" lon="2.36887">
        <ele>75.7</ele>
        <time>2013-04-01T18:50:30.000Z</time>
      </trkpt>
      <trkpt lat="48.86497" lon="2.36887">
        <ele>75.1</ele>
        <time>2013-04-01T18:50:31.000Z</time>
      </trkpt>
      <trkpt lat="48.86492" lon="2.36886">
        <ele>73.8</ele>
        <time>2013-04-01T18:50:34.000Z</time>
      </trkpt>
      <trkpt lat="48.86491" lon="2.36886">
        <ele>74.4</ele>
        <time>2013-04-01T18:50:35.000Z</time>
      </trkpt>
      <trkpt lat="48.86489" lon="2.36885">
        <ele>74.6</ele>
        <time>2013-04-01T18:50:36.000Z</time>
      </trkpt>
      <trkpt lat="48.86486" lon="2.36883">
        <ele>75</ele>
        <time>2013-04-01T18:50:37.000Z</time>
      </trkpt>
      <trkpt lat="48.86484" lon="2.36883">
        <ele>74.9</ele>
        <time>2013-04-01T18:50:38.000Z</time>
      </trkpt>
      <trkpt lat="48.86481" lon="2.36884">
        <ele>75.5</ele>
        <time>2013-04-01T18:50:39.000Z</time>
      </trkpt>
      <trkpt lat="48.86477" lon="2.36885">
        <ele>77.6</ele>
        <time>2013-04-01T18:50:40.000Z</time>
      </trkpt>
      <trkpt lat="48.86474" lon="2.36885">
        <ele>77.1</ele>
        <time>2013-04-01T18:50:41.000Z</time>
      </trkpt>
      <trkpt lat="48.8647" lon="2.36886">
        <ele>76.3</ele>
        <time>2013-04-01T18:50:43.000Z</time>
      </trkpt>
      <trkpt lat="48.86469" lon="2.36885">
        <ele>77.8</ele>
        <time>2013-04-01T18:50:44.000Z</time>
      </trkpt>
      <trkpt lat="48.86467" lon="2.3688">
        <ele>83.4</ele>
        <time>2013-04-01T18:50:48.000Z</time>
      </trkpt>
      <trkpt lat="48.86468" lon="2.36877">
        <ele>83.4</ele>
        <time>2013-04-01T18:50:49.000Z</time>
      </trkpt>
      <trkpt lat="48.8647" lon="2.36873">
        <ele>84</ele>
        <time>2013-04-01T18:50:50.000Z</time>
      </trkpt>
      <trkpt lat="48.86471" lon="2.3687">
        <ele>82.4</ele>
        <time>2013-04-01T18:50:51.000Z</time>
      </trkpt>
      <trkpt lat="48.86473" lon="2.36864">
        <ele>83.7</ele>
        <time>2013-04-01T18:50:53.000Z</time>
      </trkpt>
      <trkpt lat="48.86474" lon="2.36861">
        <ele>82.1</ele>
        <time>2013-04-01T18:50:54.000Z</time>
      </trkpt>
      <trkpt lat="48.86476" lon="2.36858">
        <ele>81.4</ele>
        <time>2013-04-01T18:50:55.000Z</time>
      </trkpt>
      <trkpt lat="48.86478" lon="2.36854">
        <ele>80.7</ele>
        <time>2013-04-01T18:50:56.000Z</time>
      </trkpt>
      <trkpt lat="48.8648" lon="2.3685">
        <ele>80.3</ele>
        <time>2013-04-01T18:50:57.000Z</time>
      </trkpt>
      <trkpt lat="48.86482" lon="2.36845">
        <ele>80.3</ele>
        <time>2013-04-01T18:50:58.000Z</time>
      </trkpt>
      <trkpt lat="48.86485" lon="2.36841">
        <ele>78.9</ele>
        <time>2013-04-01T18:50:59.000Z</time>
      </trkpt>
      <trkpt lat="48.86487" lon="2.36837">
        <ele>79.4</ele>
        <time>2013-04-01T18:51:00.000Z</time>
      </trkpt>
      <trkpt lat="48.8649" lon="2.36834">
        <ele>79.9</ele>
        <time>2013-04-01T18:51:01.000Z</time>
      </trkpt>
      <trkpt lat="48.86493" lon="2.3683">
        <ele>79.9</ele>
        <time>2013-04-01T18:51:02.000Z</time>
      </trkpt>
      <trkpt lat="48.86496" lon="2.36826">
        <ele>79.9</ele>
        <time>2013-04-01T18:51:03.000Z</time>
      </trkpt>
      <trkpt lat="48.86499" lon="2.36822">
        <ele>78.9</ele>
        <time>2013-04-01T18:51:04.000Z</time>
      </trkpt>
      <trkpt lat="48.86501" lon="2.36818">
        <ele>78.6</ele>
        <time>2013-04-01T18:51:05.000Z</time>
      </trkpt>
      <trkpt lat="48.86504" lon="2.36814">
        <ele>78.5</ele>
        <time>2013-04-01T18:51:06.000Z</time>
      </trkpt>
      <trkpt lat="48.86506" lon="2.36811">
        <ele>78.1</ele>
        <time>2013-04-01T18:51:07.000Z</time>
      </trkpt>
      <trkpt lat="48.86508" lon="2.36808">
        <ele>77.8</ele>
        <time>2013-04-01T18:51:08.000Z</time>
      </trkpt>
      <trkpt lat="48.8651" lon="2.36805">
        <ele>78.1</ele>
        <time>2013-04-01T18:51:09.000Z</time>
      </trkpt>
      <trkpt lat="48.86512" lon="2.36803">
        <ele>78.2</ele>
        <time>2013-04-01T18:51:10.000Z</time>
      </trkpt>
      <trkpt lat="48.86514" lon="2.36801">
        <ele>78.3</ele>
        <time>2013-04-01T18:51:11.000Z</time>
      </trkpt>
      <trkpt lat="48.86516" lon="2.368">
        <ele>77.6</ele>
        <time>2013-04-01T18:51:12.000Z</time>
      </trkpt>
      <trkpt lat="48.86519" lon="2.368">
        <ele>75.7</ele>
        <time>2013-04-01T18:51:13.000Z</time>
      </trkpt>
      <trkpt lat="48.86521" lon="2.36801">
        <ele>77</ele>
        <time>2013-04-01T18:51:14.000Z</time>
      </trkpt>
      <trkpt lat="48.86524" lon="2.36802">
        <ele>76.6</ele>
        <time>2013-04-01T18:51:15.000Z</time>
      </trkpt>
      <trkpt lat="48.86527" lon="2.36803">
        <ele>77.4</ele>
        <time>2013-04-01T18:51:16.000Z</time>
      </trkpt>
      <trkpt lat="48.86529" lon="2.36804">
        <ele>77.1</ele>
        <time>2013-04-01T18:51:17.000Z</time>
      </trkpt>
      <trkpt lat="48.86532" lon="2.36804">
        <ele>77.1</ele>
        <time>2013-04-01T18:51:18.000Z</time>
      </trkpt>
      <trkpt lat="48.86535" lon="2.36802">
        <ele>76.3</ele>
        <time>2013-04-01T18:51:19.000Z</time>
      </trkpt>
      <trkpt lat="48.86538" lon="2.368">
        <ele>76.8</ele>
        <time>2013-04-01T18:51:20.000Z</time>
      </trkpt>
      <trkpt lat="48.86543" lon="2.36797">
        <ele>76.6</ele>
        <time>2013-04-01T18:51:21.000Z</time>
      </trkpt>
      <trkpt lat="48.86547" lon="2.36795">
        <ele>76.7</ele>
        <time>2013-04-01T18:51:22.000Z</time>
      </trkpt>
      <trkpt lat="48.86551" lon="2.36794">
        <ele>77.1</ele>
        <time>2013-04-01T18:51:23.000Z</time>
      </trkpt>
      <trkpt lat="48.86555" lon="2.36792">
        <ele>76.7</ele>
        <time>2013-04-01T18:51:24.000Z</time>
      </trkpt>
      <trkpt lat="48.86559" lon="2.3679">
        <ele>77.1</ele>
        <time>2013-04-01T18:51:25.000Z</time>
      </trkpt>
      <trkpt lat="48.86563" lon="2.36787">
        <ele>77</ele>
        <time>2013-04-01T18:51:26.000Z</time>
      </trkpt>
      <trkpt lat="48.86567" lon="2.36785">
        <ele>77</ele>
        <time>2013-04-01T18:51:27.000Z</time>
      </trkpt>
      <trkpt lat="48.86572" lon="2.36782">
        <ele>76.9</ele>
        <time>2013-04-01T18:51:28.000Z</time>
      </trkpt>
      <trkpt lat="48.8658" lon="2.36778">
        <ele>76.9</ele>
        <time>2013-04-01T18:51:29.000Z</time>
      </trkpt>
      <trkpt lat="48.86584" lon="2.36776">
        <ele>76.8</ele>
        <time>2013-04-01T18:51:30.000Z</time>
      </trkpt>
      <trkpt lat="48.8659" lon="2.36777">
        <ele>77.1</ele>
        <time>2013-04-01T18:51:31.000Z</time>
      </trkpt>
      <trkpt lat="48.86595" lon="2.36775">
        <ele>77.1</ele>
        <time>2013-04-01T18:51:32.000Z</time>
      </trkpt>
      <trkpt lat="48.866" lon="2.36773">
        <ele>77.1</ele>
        <time>2013-04-01T18:51:33.000Z</time>
      </trkpt>
      <trkpt lat="48.86604" lon="2.36773">
        <ele>77.2</ele>
        <time>2013-04-01T18:51:34.000Z</time>
      </trkpt>
      <trkpt lat="48.86608" lon="2.36769">
        <ele>76.6</ele>
        <time>2013-04-01T18:51:36.000Z</time>
      </trkpt>
      <trkpt lat="48.86611" lon="2.36769">
        <ele>77</ele>
        <time>2013-04-01T18:51:37.000Z</time>
      </trkpt>
      <trkpt lat="48.86613" lon="2.36766">
        <ele>75.1</ele>
        <time>2013-04-01T18:51:39.000Z</time>
      </trkpt>
      <trkpt lat="48.86614" lon="2.36761">
        <ele>76.4</ele>
        <time>2013-04-01T18:51:40.000Z</time>
      </trkpt>
      <trkpt lat="48.86616" lon="2.36757">
        <ele>76.8</ele>
        <time>2013-04-01T18:51:41.000Z</time>
      </trkpt>
      <trkpt lat="48.86618" lon="2.36754">
        <ele>76.7</ele>
        <time>2013-04-01T18:51:42.000Z</time>
      </trkpt>
      <trkpt lat="48.86622" lon="2.36752">
        <ele>76.9</ele>
        <time>2013-04-01T18:51:43.000Z</time>
      </trkpt>
      <trkpt lat="48.86624" lon="2.3675">
        <ele>77.1</ele>
        <time>2013-04-01T18:51:44.000Z</time>
      </trkpt>
      <trkpt lat="48.86625" lon="2.36748">
        <ele>76.5</ele>
        <time>2013-04-01T18:51:45.000Z</time>
      </trkpt>
      <trkpt lat="48.86627" lon="2.36746">
        <ele>77.1</ele>
        <time>2013-04-01T18:51:46.000Z</time>
      </trkpt>
      <trkpt lat="48.86631" lon="2.36742">
        <ele>77.8</ele>
        <time>2013-04-01T18:51:48.000Z</time>
      </trkpt>
      <trkpt lat="48.86632" lon="2.36741">
        <ele>76.9</ele>
        <time>2013-04-01T18:51:49.000Z</time>
      </trkpt>
      <trkpt lat="48.86635" lon="2.3674">
        <ele>78.3</ele>
        <time>2013-04-01T18:51:50.000Z</time>
      </trkpt>
      <trkpt lat="48.86637" lon="2.36739">
        <ele>79.9</ele>
        <time>2013-04-01T18:51:51.000Z</time>
      </trkpt>
      <trkpt lat="48.8664" lon="2.36738">
        <ele>80.3</ele>
        <time>2013-04-01T18:51:52.000Z</time>
      </trkpt>
      <trkpt lat="48.86643" lon="2.36736">
        <ele>80.6</ele>
        <time>2013-04-01T18:51:53.000Z</time>
      </trkpt>
      <trkpt lat="48.86645" lon="2.36733">
        <ele>80.1</ele>
        <time>2013-04-01T18:51:54.000Z</time>
      </trkpt>
      <trkpt lat="48.86646" lon="2.36728">
        <ele>81.7</ele>
        <time>2013-04-01T18:51:55.000Z</time>
      </trkpt>
      <trkpt lat="48.86648" lon="2.36721">
        <ele>84</ele>
        <time>2013-04-01T18:51:56.000Z</time>
      </trkpt>
      <trkpt lat="48.86649" lon="2.36714">
        <ele>83.9</ele>
        <time>2013-04-01T18:51:57.000Z</time>
      </trkpt>
      <trkpt lat="48.8665" lon="2.36707">
        <ele>82</ele>
        <time>2013-04-01T18:51:58.000Z</time>
      </trkpt>
      <trkpt lat="48.86651" lon="2.367">
        <ele>81.8</ele>
        <time>2013-04-01T18:51:59.000Z</time>
      </trkpt>
      <trkpt lat="48.86653" lon="2.36695">
        <ele>83.2</ele>
        <time>2013-04-01T18:52:00.000Z</time>
      </trkpt>
      <trkpt lat="48.86655" lon="2.36691">
        <ele>83.1</ele>
        <time>2013-04-01T18:52:01.000Z</time>
      </trkpt>
      <trkpt lat="48.86657" lon="2.36689">
        <ele>82.3</ele>
        <time>2013-04-01T18:52:02.000Z</time>
      </trkpt>
      <trkpt lat="48.8666" lon="2.36689">
        <ele>84.4</ele>
        <time>2013-04-01T18:52:03.000Z</time>
      </trkpt>
      <trkpt lat="48.86663" lon="2.36689">
        <ele>84.9</ele>
        <time>2013-04-01T18:52:04.000Z</time>
      </trkpt>
      <trkpt lat="48.86666" lon="2.36689">
        <ele>85</ele>
        <time>2013-04-01T18:52:05.000Z</time>
      </trkpt>
      <trkpt lat="48.8667" lon="2.36689">
        <ele>84.9</ele>
        <time>2013-04-01T18:52:06.000Z</time>
      </trkpt>
      <trkpt lat="48.86673" lon="2.36688">
        <ele>84.2</ele>
        <time>2013-04-01T18:52:07.000Z</time>
      </trkpt>
      <trkpt lat="48.86676" lon="2.36685">
        <ele>83.5</ele>
        <time>2013-04-01T18:52:08.000Z</time>
      </trkpt>
      <trkpt lat="48.8668" lon="2.36681">
        <ele>83</ele>
        <time>2013-04-01T18:52:09.000Z</time>
      </trkpt>
      <trkpt lat="48.86684" lon="2.36676">
        <ele>84.3</ele>
        <time>2013-04-01T18:52:10.000Z</time>
      </trkpt>
      <trkpt lat="48.86689" lon="2.36671">
        <ele>84</ele>
        <time>2013-04-01T18:52:11.000Z</time>
      </trkpt>
      <trkpt lat="48.86693" lon="2.36666">
        <ele>84.3</ele>
        <time>2013-04-01T18:52:12.000Z</time>
      </trkpt>
      <trkpt lat="48.86704" lon="2.36661">
        <ele>84.5</ele>
        <time>2013-04-01T18:52:13.000Z</time>
      </trkpt>
      <trkpt lat="48.86708" lon="2.36655">
        <ele>84.9</ele>
        <time>2013-04-01T18:52:14.000Z</time>
      </trkpt>
      <trkpt lat="48.86713" lon="2.36653">
        <ele>85</ele>
        <time>2013-04-01T18:52:15.000Z</time>
      </trkpt>
      <trkpt lat="48.86719" lon="2.36647">
        <ele>84.8</ele>
        <time>2013-04-01T18:52:16.000Z</time>
      </trkpt>
      <trkpt lat="48.86723" lon="2.36642">
        <ele>84.9</ele>
        <time>2013-04-01T18:52:17.000Z</time>
      </trkpt>
      <trkpt lat="48.86728" lon="2.36637">
        <ele>84.6</ele>
        <time>2013-04-01T18:52:18.000Z</time>
      </trkpt>
      <trkpt lat="48.8673" lon="2.36632">
        <ele>84.3</ele>
        <time>2013-04-01T18:52:19.000Z</time>
      </trkpt>
      <trkpt lat="48.86735" lon="2.36627">
        <ele>84.3</ele>
        <time>2013-04-01T18:52:20.000Z</time>
      </trkpt>
      <trkpt lat="48.86738" lon="2.36622">
        <ele>84.5</ele>
        <time>2013-04-01T18:52:21.000Z</time>
      </trkpt>
      <trkpt lat="48.86743" lon="2.36618">
        <ele>84.8</ele>
        <time>2013-04-01T18:52:22.000Z</time>
      </trkpt>
      <trkpt lat="48.8675" lon="2.36616">
        <ele>85.5</ele>
        <time>2013-04-01T18:52:23.000Z</time>
      </trkpt>
      <trkpt lat="48.86755" lon="2.36613">
        <ele>85.3</ele>
        <time>2013-04-01T18:52:24.000Z</time>
      </trkpt>
      <trkpt lat="48.8676" lon="2.36608">
        <ele>85.9</ele>
        <time>2013-04-01T18:52:25.000Z</time>
      </trkpt>
      <trkpt lat="48.86766" lon="2.36607">
        <ele>86.3</ele>
        <time>2013-04-01T18:52:26.000Z</time>
      </trkpt>
      <trkpt lat="48.8677" lon="2.36603">
        <ele>86.3</ele>
        <time>2013-04-01T18:52:27.000Z</time>
      </trkpt>
      <trkpt lat="48.86773" lon="2.36598">
        <ele>86.2</ele>
        <time>2013-04-01T18:52:28.000Z</time>
      </trkpt>
      <trkpt lat="48.86776" lon="2.36595">
        <ele>86</ele>
        <time>2013-04-01T18:52:29.000Z</time>
      </trkpt>
      <trkpt lat="48.8678" lon="2.3659">
        <ele>87</ele>
        <time>2013-04-01T18:52:30.000Z</time>
      </trkpt>
      <trkpt lat="48.86784" lon="2.36586">
        <ele>86.8</ele>
        <time>2013-04-01T18:52:31.000Z</time>
      </trkpt>
      <trkpt lat="48.86785" lon="2.36583">
        <ele>86</ele>
        <time>2013-04-01T18:52:32.000Z</time>
      </trkpt>
      <trkpt lat="48.86786" lon="2.36578">
        <ele>85</ele>
        <time>2013-04-01T18:52:33.000Z</time>
      </trkpt>
      <trkpt lat="48.8679" lon="2.36576">
        <ele>85.4</ele>
        <time>2013-04-01T18:52:34.000Z</time>
      </trkpt>
      <trkpt lat="48.8679" lon="2.3657">
        <ele>81.1</ele>
        <time>2013-04-01T18:52:36.000Z</time>
      </trkpt>
      <trkpt lat="48.8679" lon="2.36559">
        <ele>80.3</ele>
        <time>2013-04-01T18:52:37.000Z</time>
      </trkpt>
      <trkpt lat="48.8679" lon="2.36554">
        <ele>79.4</ele>
        <time>2013-04-01T18:52:38.000Z</time>
      </trkpt>
      <trkpt lat="48.86791" lon="2.36549">
        <ele>80.7</ele>
        <time>2013-04-01T18:52:39.000Z</time>
      </trkpt>
      <trkpt lat="48.86791" lon="2.36544">
        <ele>81</ele>
        <time>2013-04-01T18:52:40.000Z</time>
      </trkpt>
      <trkpt lat="48.86792" lon="2.36541">
        <ele>79.8</ele>
        <time>2013-04-01T18:52:41.000Z</time>
      </trkpt>
      <trkpt lat="48.86794" lon="2.36538">
        <ele>80.7</ele>
        <time>2013-04-01T18:52:42.000Z</time>
      </trkpt>
      <trkpt lat="48.86796" lon="2.36534">
        <ele>82.6</ele>
        <time>2013-04-01T18:52:43.000Z</time>
      </trkpt>
      <trkpt lat="48.86799" lon="2.3653">
        <ele>82.9</ele>
        <time>2013-04-01T18:52:44.000Z</time>
      </trkpt>
      <trkpt lat="48.86802" lon="2.36527">
        <ele>83.9</ele>
        <time>2013-04-01T18:52:45.000Z</time>
      </trkpt>
      <trkpt lat="48.86806" lon="2.36525">
        <ele>85</ele>
        <time>2013-04-01T18:52:46.000Z</time>
      </trkpt>
      <trkpt lat="48.8681" lon="2.36523">
        <ele>84.9</ele>
        <time>2013-04-01T18:52:47.000Z</time>
      </trkpt>
      <trkpt lat="48.86814" lon="2.3652">
        <ele>84.8</ele>
        <time>2013-04-01T18:52:48.000Z</time>
      </trkpt>
      <trkpt lat="48.86817" lon="2.36517">
        <ele>85.3</ele>
        <time>2013-04-01T18:52:49.000Z</time>
      </trkpt>
      <trkpt lat="48.86821" lon="2.36513">
        <ele>84.7</ele>
        <time>2013-04-01T18:52:50.000Z</time>
      </trkpt>
      <trkpt lat="48.86826" lon="2.36509">
        <ele>85.6</ele>
        <time>2013-04-01T18:52:51.000Z</time>
      </trkpt>
      <trkpt lat="48.8683" lon="2.36506">
        <ele>86.1</ele>
        <time>2013-04-01T18:52:52.000Z</time>
      </trkpt>
      <trkpt lat="48.86838" lon="2.36503">
        <ele>85.7</ele>
        <time>2013-04-01T18:52:53.000Z</time>
      </trkpt>
      <trkpt lat="48.86843" lon="2.36501">
        <ele>84.8</ele>
        <time>2013-04-01T18:52:54.000Z</time>
      </trkpt>
      <trkpt lat="48.86848" lon="2.36498">
        <ele>84</ele>
        <time>2013-04-01T18:52:55.000Z</time>
      </trkpt>
      <trkpt lat="48.86852" lon="2.36492">
        <ele>84.9</ele>
        <time>2013-04-01T18:52:56.000Z</time>
      </trkpt>
      <trkpt lat="48.86856" lon="2.36486">
        <ele>84.9</ele>
        <time>2013-04-01T18:52:57.000Z</time>
      </trkpt>
      <trkpt lat="48.8686" lon="2.36482">
        <ele>85.2</ele>
        <time>2013-04-01T18:52:58.000Z</time>
      </trkpt>
      <trkpt lat="48.86866" lon="2.36481">
        <ele>83.5</ele>
        <time>2013-04-01T18:52:59.000Z</time>
      </trkpt>
      <trkpt lat="48.86871" lon="2.36479">
        <ele>82.7</ele>
        <time>2013-04-01T18:53:00.000Z</time>
      </trkpt>
      <trkpt lat="48.86875" lon="2.36475">
        <ele>82.3</ele>
        <time>2013-04-01T18:53:01.000Z</time>
      </trkpt>
      <trkpt lat="48.86878" lon="2.36472">
        <ele>81.9</ele>
        <time>2013-04-01T18:53:02.000Z</time>
      </trkpt>
      <trkpt lat="48.86882" lon="2.36471">
        <ele>81.5</ele>
        <time>2013-04-01T18:53:03.000Z</time>
      </trkpt>
      <trkpt lat="48.86884" lon="2.36469">
        <ele>81.3</ele>
        <time>2013-04-01T18:53:04.000Z</time>
      </trkpt>
      <trkpt lat="48.86886" lon="2.36466">
        <ele>80.8</ele>
        <time>2013-04-01T18:53:05.000Z</time>
      </trkpt>
      <trkpt lat="48.8689" lon="2.36467">
        <ele>81.3</ele>
        <time>2013-04-01T18:53:06.000Z</time>
      </trkpt>
      <trkpt lat="48.86891" lon="2.36467">
        <ele>82.8</ele>
        <time>2013-04-01T18:53:07.000Z</time>
      </trkpt>
      <trkpt lat="48.86895" lon="2.36471">
        <ele>82.6</ele>
        <time>2013-04-01T18:53:08.000Z</time>
      </trkpt>
      <trkpt lat="48.86898" lon="2.36475">
        <ele>82.2</ele>
        <time>2013-04-01T18:53:09.000Z</time>
      </trkpt>
      <trkpt lat="48.86901" lon="2.3648">
        <ele>81.8</ele>
        <time>2013-04-01T18:53:10.000Z</time>
      </trkpt>
      <trkpt lat="48.86905" lon="2.36485">
        <ele>81.8</ele>
        <time>2013-04-01T18:53:11.000Z</time>
      </trkpt>
      <trkpt lat="48.86908" lon="2.3649">
        <ele>82.3</ele>
        <time>2013-04-01T18:53:12.000Z</time>
      </trkpt>
      <trkpt lat="48.86912" lon="2.36496">
        <ele>82.3</ele>
        <time>2013-04-01T18:53:13.000Z</time>
      </trkpt>
      <trkpt lat="48.86915" lon="2.36501">
        <ele>80.4</ele>
        <time>2013-04-01T18:53:14.000Z</time>
      </trkpt>
      <trkpt lat="48.86919" lon="2.36509">
        <ele>80.6</ele>
        <time>2013-04-01T18:53:15.000Z</time>
      </trkpt>
      <trkpt lat="48.86923" lon="2.36513">
        <ele>80.5</ele>
        <time>2013-04-01T18:53:16.000Z</time>
      </trkpt>
      <trkpt lat="48.86927" lon="2.3652">
        <ele>80.8</ele>
        <time>2013-04-01T18:53:17.000Z</time>
      </trkpt>
      <trkpt lat="48.8693" lon="2.36524">
        <ele>81.1</ele>
        <time>2013-04-01T18:53:18.000Z</time>
      </trkpt>
      <trkpt lat="48.86935" lon="2.36532">
        <ele>80.7</ele>
        <time>2013-04-01T18:53:19.000Z</time>
      </trkpt>
      <trkpt lat="48.86938" lon="2.3654">
        <ele>81.3</ele>
        <time>2013-04-01T18:53:20.000Z</time>
      </trkpt>
      <trkpt lat="48.86943" lon="2.36545">
        <ele>81</ele>
        <time>2013-04-01T18:53:21.000Z</time>
      </trkpt>
      <trkpt lat="48.86946" lon="2.36548">
        <ele>80.8</ele>
        <time>2013-04-01T18:53:22.000Z</time>
      </trkpt>
      <trkpt lat="48.8695" lon="2.36555">
        <ele>80.6</ele>
        <time>2013-04-01T18:53:23.000Z</time>
      </trkpt>
      <trkpt lat="48.86954" lon="2.36556">
        <ele>80.4</ele>
        <time>2013-04-01T18:53:24.000Z</time>
      </trkpt>
      <trkpt lat="48.8696" lon="2.36564">
        <ele>80.8</ele>
        <time>2013-04-01T18:53:25.000Z</time>
      </trkpt>
      <trkpt lat="48.86961" lon="2.36575">
        <ele>80.7</ele>
        <time>2013-04-01T18:53:26.000Z</time>
      </trkpt>
      <trkpt lat="48.86963" lon="2.36581">
        <ele>81</ele>
        <time>2013-04-01T18:53:27.000Z</time>
      </trkpt>
      <trkpt lat="48.86968" lon="2.36583">
        <ele>81.3</ele>
        <time>2013-04-01T18:53:28.000Z</time>
      </trkpt>
      <trkpt lat="48.86972" lon="2.36585">
        <ele>82.5</ele>
        <time>2013-04-01T18:53:30.000Z</time>
      </trkpt>
      <trkpt lat="48.86974" lon="2.36591">
        <ele>83</ele>
        <time>2013-04-01T18:53:31.000Z</time>
      </trkpt>
      <trkpt lat="48.86981" lon="2.36596">
        <ele>83.8</ele>
        <time>2013-04-01T18:53:32.000Z</time>
      </trkpt>
      <trkpt lat="48.86981" lon="2.36602">
        <ele>84.9</ele>
        <time>2013-04-01T18:53:33.000Z</time>
      </trkpt>
      <trkpt lat="48.86983" lon="2.36607">
        <ele>85.2</ele>
        <time>2013-04-01T18:53:34.000Z</time>
      </trkpt>
      <trkpt lat="48.86985" lon="2.36611">
        <ele>85.5</ele>
        <time>2013-04-01T18:53:35.000Z</time>
      </trkpt>
      <trkpt lat="48.86987" lon="2.36614">
        <ele>85.4</ele>
        <time>2013-04-01T18:53:36.000Z</time>
      </trkpt>
      <trkpt lat="48.86987" lon="2.3662">
        <ele>83.2</ele>
        <time>2013-04-01T18:53:40.000Z</time>
      </trkpt>
      <trkpt lat="48.86987" lon="2.36622">
        <ele>84.2</ele>
        <time>2013-04-01T18:53:41.000Z</time>
      </trkpt>
      <trkpt lat="48.86986" lon="2.36629">
        <ele>85.5</ele>
        <time>2013-04-01T18:53:45.000Z</time>
      </trkpt>
      <trkpt lat="48.86987" lon="2.3663">
        <ele>85.9</ele>
        <time>2013-04-01T18:53:46.000Z</time>
      </trkpt>
      <trkpt lat="48.8699" lon="2.36632">
        <ele>87.3</ele>
        <time>2013-04-01T18:53:49.000Z</time>
      </trkpt>
      <trkpt lat="48.86991" lon="2.36632">
        <ele>84.9</ele>
        <time>2013-04-01T18:53:50.000Z</time>
      </trkpt>
      <trkpt lat="48.86995" lon="2.36634">
        <ele>83.4</ele>
        <time>2013-04-01T18:53:56.000Z</time>
      </trkpt>
      <trkpt lat="48.86996" lon="2.36634">
        <ele>83.8</ele>
        <time>2013-04-01T18:53:57.000Z</time>
      </trkpt>
      <trkpt lat="48.86999" lon="2.36636">
        <ele>85</ele>
        <time>2013-04-01T18:54:00.000Z</time>
      </trkpt>
      <trkpt lat="48.87001" lon="2.36636">
        <ele>85.1</ele>
        <time>2013-04-01T18:54:01.000Z</time>
      </trkpt>
      <trkpt lat="48.87003" lon="2.36641">
        <ele>85.8</ele>
        <time>2013-04-01T18:54:06.000Z</time>
      </trkpt>
      <trkpt lat="48.87003" lon="2.36643">
        <ele>86.4</ele>
        <time>2013-04-01T18:54:07.000Z</time>
      </trkpt>
      <trkpt lat="48.87006" lon="2.36648">
        <ele>90.3</ele>
        <time>2013-04-01T18:54:11.000Z</time>
      </trkpt>
      <trkpt lat="48.87006" lon="2.36648">
        <ele>91.1</ele>
        <time>2013-04-01T18:54:12.000Z</time>
      </trkpt>
      <trkpt lat="48.87008" lon="2.36654">
        <ele>101</ele>
        <time>2013-04-01T18:55:36.000Z</time>
      </trkpt>
      <trkpt lat="48.87008" lon="2.36654">
        <ele>101.5</ele>
        <time>2013-04-01T18:55:37.000Z</time>
      </trkpt>
      <trkpt lat="48.87005" lon="2.36658">
        <ele>107.4</ele>
        <time>2013-04-01T18:56:02.000Z</time>
      </trkpt>
      <trkpt lat="48.87004" lon="2.36659">
        <ele>106.1</ele>
        <time>2013-04-01T18:56:03.000Z</time>
      </trkpt>
      <trkpt lat="48.87002" lon="2.36663">
        <ele>106.3</ele>
        <time>2013-04-01T18:56:07.000Z</time>
      </trkpt>
      <trkpt lat="48.87001" lon="2.36665">
        <ele>106.4</ele>
        <time>2013-04-01T18:56:08.000Z</time>
      </trkpt>
      <trkpt lat="48.86998" lon="2.3667">
        <ele>105.7</ele>
        <time>2013-04-01T18:56:14.000Z</time>
      </trkpt>
      <trkpt lat="48.86998" lon="2.3667">
        <ele>105.9</ele>
        <time>2013-04-01T18:56:15.000Z</time>
      </trkpt>
      <trkpt lat="48.87" lon="2.36668">
        <ele>87.6</ele>
        <time>2013-04-01T18:57:01.000Z</time>
      </trkpt>
      <trkpt lat="48.87002" lon="2.36665">
        <ele>85.2</ele>
        <time>2013-04-01T18:57:02.000Z</time>
      </trkpt>
      <trkpt lat="48.87004" lon="2.36661">
        <ele>84.5</ele>
        <time>2013-04-01T18:57:03.000Z</time>
      </trkpt>
      <trkpt lat="48.87007" lon="2.36658">
        <ele>83</ele>
        <time>2013-04-01T18:57:04.000Z</time>
      </trkpt>
      <trkpt lat="48.87011" lon="2.36655">
        <ele>82.6</ele>
        <time>2013-04-01T18:57:05.000Z</time>
      </trkpt>
      <trkpt lat="48.87015" lon="2.36651">
        <ele>83.3</ele>
        <time>2013-04-01T18:57:06.000Z</time>
      </trkpt>
      <trkpt lat="48.87019" lon="2.36648">
        <ele>82.5</ele>
        <time>2013-04-01T18:57:07.000Z</time>
      </trkpt>
      <trkpt lat="48.87024" lon="2.36644">
        <ele>81.9</ele>
        <time>2013-04-01T18:57:08.000Z</time>
      </trkpt>
      <trkpt lat="48.87029" lon="2.3664">
        <ele>82.3</ele>
        <time>2013-04-01T18:57:09.000Z</time>
      </trkpt>
      <trkpt lat="48.87033" lon="2.36637">
        <ele>81.3</ele>
        <time>2013-04-01T18:57:10.000Z</time>
      </trkpt>
      <trkpt lat="48.87038" lon="2.36633">
        <ele>81.1</ele>
        <time>2013-04-01T18:57:11.000Z</time>
      </trkpt>
      <trkpt lat="48.87042" lon="2.36631">
        <ele>80.7</ele>
        <time>2013-04-01T18:57:12.000Z</time>
      </trkpt>
      <trkpt lat="48.87046" lon="2.36628">
        <ele>79.4</ele>
        <time>2013-04-01T18:57:13.000Z</time>
      </trkpt>
      <trkpt lat="48.87049" lon="2.36626">
        <ele>78.9</ele>
        <time>2013-04-01T18:57:14.000Z</time>
      </trkpt>
      <trkpt lat="48.87051" lon="2.36622">
        <ele>78.2</ele>
        <time>2013-04-01T18:57:15.000Z</time>
      </trkpt>
      <trkpt lat="48.87055" lon="2.36618">
        <ele>77.8</ele>
        <time>2013-04-01T18:57:16.000Z</time>
      </trkpt>
      <trkpt lat="48.87059" lon="2.36615">
        <ele>79</ele>
        <time>2013-04-01T18:57:17.000Z</time>
      </trkpt>
      <trkpt lat="48.87062" lon="2.36612">
        <ele>78.2</ele>
        <time>2013-04-01T18:57:18.000Z</time>
      </trkpt>
      <trkpt lat="48.87065" lon="2.36609">
        <ele>77.5</ele>
        <time>2013-04-01T18:57:19.000Z</time>
      </trkpt>
      <trkpt lat="48.87069" lon="2.36607">
        <ele>77.8</ele>
        <time>2013-04-01T18:57:20.000Z</time>
      </trkpt>
      <trkpt lat="48.87072" lon="2.36604">
        <ele>74.5</ele>
        <time>2013-04-01T18:57:21.000Z</time>
      </trkpt>
      <trkpt lat="48.87075" lon="2.36601">
        <ele>76.4</ele>
        <time>2013-04-01T18:57:22.000Z</time>
      </trkpt>
      <trkpt lat="48.87078" lon="2.36598">
        <ele>76.5</ele>
        <time>2013-04-01T18:57:23.000Z</time>
      </trkpt>
      <trkpt lat="48.87081" lon="2.36595">
        <ele>76.1</ele>
        <time>2013-04-01T18:57:24.000Z</time>
      </trkpt>
      <trkpt lat="48.87085" lon="2.36591">
        <ele>76</ele>
        <time>2013-04-01T18:57:25.000Z</time>
      </trkpt>
      <trkpt lat="48.87087" lon="2.36586">
        <ele>75.9</ele>
        <time>2013-04-01T18:57:26.000Z</time>
      </trkpt>
      <trkpt lat="48.87088" lon="2.3658">
        <ele>78.3</ele>
        <time>2013-04-01T18:57:27.000Z</time>
      </trkpt>
      <trkpt lat="48.87087" lon="2.36575">
        <ele>79.4</ele>
        <time>2013-04-01T18:57:28.000Z</time>
      </trkpt>
      <trkpt lat="48.87086" lon="2.36572">
        <ele>80.4</ele>
        <time>2013-04-01T18:57:29.000Z</time>
      </trkpt>
      <trkpt lat="48.87086" lon="2.36568">
        <ele>80.6</ele>
        <time>2013-04-01T18:57:30.000Z</time>
      </trkpt>
      <trkpt lat="48.87085" lon="2.36565">
        <ele>80</ele>
        <time>2013-04-01T18:57:31.000Z</time>
      </trkpt>
      <trkpt lat="48.87085" lon="2.36562">
        <ele>79.6</ele>
        <time>2013-04-01T18:57:32.000Z</time>
      </trkpt>
      <trkpt lat="48.87084" lon="2.36558">
        <ele>79.4</ele>
        <time>2013-04-01T18:57:33.000Z</time>
      </trkpt>
      <trkpt lat="48.87083" lon="2.36555">
        <ele>79</ele>
        <time>2013-04-01T18:57:34.000Z</time>
      </trkpt>
      <trkpt lat="48.87083" lon="2.36551">
        <ele>78.2</ele>
        <time>2013-04-01T18:57:35.000Z</time>
      </trkpt>
      <trkpt lat="48.87081" lon="2.36548">
        <ele>78.6</ele>
        <time>2013-04-01T18:57:36.000Z</time>
      </trkpt>
      <trkpt lat="48.8708" lon="2.36545">
        <ele>78.8</ele>
        <time>2013-04-01T18:57:37.000Z</time>
      </trkpt>
      <trkpt lat="48.87078" lon="2.36542">
        <ele>78.1</ele>
        <time>2013-04-01T18:57:38.000Z</time>
      </trkpt>
      <trkpt lat="48.87076" lon="2.3654">
        <ele>76.6</ele>
        <time>2013-04-01T18:57:39.000Z</time>
      </trkpt>
      <trkpt lat="48.87074" lon="2.36538">
        <ele>75.3</ele>
        <time>2013-04-01T18:57:40.000Z</time>
      </trkpt>
      <trkpt lat="48.87072" lon="2.36536">
        <ele>75.4</ele>
        <time>2013-04-01T18:57:41.000Z</time>
      </trkpt>
      <trkpt lat="48.87072" lon="2.3653">
        <ele>75.4</ele>
        <time>2013-04-01T18:57:44.000Z</time>
      </trkpt>
      <trkpt lat="48.87072" lon="2.36527">
        <ele>74.7</ele>
        <time>2013-04-01T18:57:45.000Z</time>
      </trkpt>
      <trkpt lat="48.87071" lon="2.36523">
        <ele>74.8</ele>
        <time>2013-04-01T18:57:46.000Z</time>
      </trkpt>
      <trkpt lat="48.8707" lon="2.36519">
        <ele>74.7</ele>
        <time>2013-04-01T18:57:47.000Z</time>
      </trkpt>
      <trkpt lat="48.87067" lon="2.36512">
        <ele>75</ele>
        <time>2013-04-01T18:57:48.000Z</time>
      </trkpt>
      <trkpt lat="48.87063" lon="2.36505">
        <ele>75.8</ele>
        <time>2013-04-01T18:57:49.000Z</time>
      </trkpt>
      <trkpt lat="48.87055" lon="2.36495">
        <ele>75.5</ele>
        <time>2013-04-01T18:57:50.000Z</time>
      </trkpt>
      <trkpt lat="48.87053" lon="2.36489">
        <ele>75.4</ele>
        <time>2013-04-01T18:57:51.000Z</time>
      </trkpt>
      <trkpt lat="48.87051" lon="2.36484">
        <ele>74.6</ele>
        <time>2013-04-01T18:57:52.000Z</time>
      </trkpt>
      <trkpt lat="48.87049" lon="2.36478">
        <ele>73.3</ele>
        <time>2013-04-01T18:57:53.000Z</time>
      </trkpt>
      <trkpt lat="48.87048" lon="2.36472">
        <ele>72.8</ele>
        <time>2013-04-01T18:57:54.000Z</time>
      </trkpt>
      <trkpt lat="48.87044" lon="2.36466">
        <ele>73.2</ele>
        <time>2013-04-01T18:57:55.000Z</time>
      </trkpt>
      <trkpt lat="48.87042" lon="2.36461">
        <ele>73.5</ele>
        <time>2013-04-01T18:57:56.000Z</time>
      </trkpt>
      <trkpt lat="48.87039" lon="2.36455">
        <ele>73.9</ele>
        <time>2013-04-01T18:57:57.000Z</time>
      </trkpt>
      <trkpt lat="48.87035" lon="2.36446">
        <ele>73.5</ele>
        <time>2013-04-01T18:57:58.000Z</time>
      </trkpt>
      <trkpt lat="48.87031" lon="2.3644">
        <ele>73.7</ele>
        <time>2013-04-01T18:57:59.000Z</time>
      </trkpt>
      <trkpt lat="48.87028" lon="2.36435">
        <ele>73.9</ele>
        <time>2013-04-01T18:58:00.000Z</time>
      </trkpt>
      <trkpt lat="48.87027" lon="2.36428">
        <ele>74.7</ele>
        <time>2013-04-01T18:58:01.000Z</time>
      </trkpt>
      <trkpt lat="48.87023" lon="2.36422">
        <ele>75.7</ele>
        <time>2013-04-01T18:58:02.000Z</time>
      </trkpt>
      <trkpt lat="48.87019" lon="2.36416">
        <ele>75.6</ele>
        <time>2013-04-01T18:58:03.000Z</time>
      </trkpt>
      <trkpt lat="48.87017" lon="2.36412">
        <ele>77.6</ele>
        <time>2013-04-01T18:58:04.000Z</time>
      </trkpt>
      <trkpt lat="48.87014" lon="2.36405">
        <ele>77.8</ele>
        <time>2013-04-01T18:58:05.000Z</time>
      </trkpt>
      <trkpt lat="48.87007" lon="2.364">
        <ele>78.6</ele>
        <time>2013-04-01T18:58:06.000Z</time>
      </trkpt>
      <trkpt lat="48.87005" lon="2.36394">
        <ele>76.7</ele>
        <time>2013-04-01T18:58:07.000Z</time>
      </trkpt>
      <trkpt lat="48.87002" lon="2.36389">
        <ele>76.6</ele>
        <time>2013-04-01T18:58:08.000Z</time>
      </trkpt>
      <trkpt lat="48.87" lon="2.36383">
        <ele>76.6</ele>
        <time>2013-04-01T18:58:09.000Z</time>
      </trkpt>
      <trkpt lat="48.87001" lon="2.36379">
        <ele>76.8</ele>
        <time>2013-04-01T18:58:10.000Z</time>
      </trkpt>
      <trkpt lat="48.87002" lon="2.36375">
        <ele>77</ele>
        <time>2013-04-01T18:58:11.000Z</time>
      </trkpt>
      <trkpt lat="48.87003" lon="2.3637">
        <ele>77.7</ele>
        <time>2013-04-01T18:58:12.000Z</time>
      </trkpt>
      <trkpt lat="48.87012" lon="2.36365">
        <ele>78.3</ele>
        <time>2013-04-01T18:58:13.000Z</time>
      </trkpt>
      <trkpt lat="48.87016" lon="2.36362">
        <ele>78.5</ele>
        <time>2013-04-01T18:58:14.000Z</time>
      </trkpt>
      <trkpt lat="48.87018" lon="2.3636">
        <ele>78.7</ele>
        <time>2013-04-01T18:58:15.000Z</time>
      </trkpt>
      <trkpt lat="48.87021" lon="2.36358">
        <ele>79.2</ele>
        <time>2013-04-01T18:58:16.000Z</time>
      </trkpt>
      <trkpt lat="48.87024" lon="2.36355">
        <ele>79.7</ele>
        <time>2013-04-01T18:58:17.000Z</time>
      </trkpt>
      <trkpt lat="48.87028" lon="2.36351">
        <ele>80.3</ele>
        <time>2013-04-01T18:58:18.000Z</time>
      </trkpt>
      <trkpt lat="48.87031" lon="2.36348">
        <ele>80.4</ele>
        <time>2013-04-01T18:58:19.000Z</time>
      </trkpt>
      <trkpt lat="48.87034" lon="2.36345">
        <ele>80.9</ele>
        <time>2013-04-01T18:58:20.000Z</time>
      </trkpt>
      <trkpt lat="48.87037" lon="2.36342">
        <ele>80.8</ele>
        <time>2013-04-01T18:58:21.000Z</time>
      </trkpt>
      <trkpt lat="48.8704" lon="2.3634">
        <ele>80.5</ele>
        <time>2013-04-01T18:58:22.000Z</time>
      </trkpt>
      <trkpt lat="48.87043" lon="2.36337">
        <ele>80.8</ele>
        <time>2013-04-01T18:58:23.000Z</time>
      </trkpt>
      <trkpt lat="48.87046" lon="2.36333">
        <ele>81.3</ele>
        <time>2013-04-01T18:58:24.000Z</time>
      </trkpt>
      <trkpt lat="48.87049" lon="2.36331">
        <ele>81.5</ele>
        <time>2013-04-01T18:58:25.000Z</time>
      </trkpt>
      <trkpt lat="48.87052" lon="2.36328">
        <ele>81.6</ele>
        <time>2013-04-01T18:58:26.000Z</time>
      </trkpt>
      <trkpt lat="48.87055" lon="2.36326">
        <ele>81.7</ele>
        <time>2013-04-01T18:58:27.000Z</time>
      </trkpt>
      <trkpt lat="48.87058" lon="2.36324">
        <ele>81.4</ele>
        <time>2013-04-01T18:58:28.000Z</time>
      </trkpt>
      <trkpt lat="48.87061" lon="2.36321">
        <ele>81.8</ele>
        <time>2013-04-01T18:58:29.000Z</time>
      </trkpt>
      <trkpt lat="48.87064" lon="2.36318">
        <ele>82.2</ele>
        <time>2013-04-01T18:58:30.000Z</time>
      </trkpt>
      <trkpt lat="48.87067" lon="2.36315">
        <ele>82.3</ele>
        <time>2013-04-01T18:58:31.000Z</time>
      </trkpt>
      <trkpt lat="48.8707" lon="2.36312">
        <ele>81.5</ele>
        <time>2013-04-01T18:58:32.000Z</time>
      </trkpt>
      <trkpt lat="48.87074" lon="2.36308">
        <ele>81.4</ele>
        <time>2013-04-01T18:58:33.000Z</time>
      </trkpt>
      <trkpt lat="48.87077" lon="2.36305">
        <ele>81.8</ele>
        <time>2013-04-01T18:58:34.000Z</time>
      </trkpt>
      <trkpt lat="48.87081" lon="2.36302">
        <ele>81.9</ele>
        <time>2013-04-01T18:58:35.000Z</time>
      </trkpt>
      <trkpt lat="48.87084" lon="2.36298">
        <ele>82.5</ele>
        <time>2013-04-01T18:58:36.000Z</time>
      </trkpt>
      <trkpt lat="48.87088" lon="2.36295">
        <ele>83</ele>
        <time>2013-04-01T18:58:37.000Z</time>
      </trkpt>
      <trkpt lat="48.87093" lon="2.36291">
        <ele>82.2</ele>
        <time>2013-04-01T18:58:38.000Z</time>
      </trkpt>
      <trkpt lat="48.87098" lon="2.36288">
        <ele>81.8</ele>
        <time>2013-04-01T18:58:39.000Z</time>
      </trkpt>
      <trkpt lat="48.87102" lon="2.36285">
        <ele>80.3</ele>
        <time>2013-04-01T18:58:40.000Z</time>
      </trkpt>
      <trkpt lat="48.87107" lon="2.3628">
        <ele>78.7</ele>
        <time>2013-04-01T18:58:41.000Z</time>
      </trkpt>
      <trkpt lat="48.87112" lon="2.36275">
        <ele>76.5</ele>
        <time>2013-04-01T18:58:42.000Z</time>
      </trkpt>
      <trkpt lat="48.87116" lon="2.36269">
        <ele>75.7</ele>
        <time>2013-04-01T18:58:43.000Z</time>
      </trkpt>
      <trkpt lat="48.8712" lon="2.36262">
        <ele>75.1</ele>
        <time>2013-04-01T18:58:44.000Z</time>
      </trkpt>
      <trkpt lat="48.87122" lon="2.36256">
        <ele>75.4</ele>
        <time>2013-04-01T18:58:45.000Z</time>
      </trkpt>
      <trkpt lat="48.87125" lon="2.36249">
        <ele>76.3</ele>
        <time>2013-04-01T18:58:46.000Z</time>
      </trkpt>
      <trkpt lat="48.87128" lon="2.36242">
        <ele>76.3</ele>
        <time>2013-04-01T18:58:47.000Z</time>
      </trkpt>
      <trkpt lat="48.8713" lon="2.36236">
        <ele>75.8</ele>
        <time>2013-04-01T18:58:48.000Z</time>
      </trkpt>
      <trkpt lat="48.87132" lon="2.36231">
        <ele>74.9</ele>
        <time>2013-04-01T18:58:49.000Z</time>
      </trkpt>
      <trkpt lat="48.87134" lon="2.36226">
        <ele>75.1</ele>
        <time>2013-04-01T18:58:50.000Z</time>
      </trkpt>
      <trkpt lat="48.87135" lon="2.36222">
        <ele>74.9</ele>
        <time>2013-04-01T18:58:51.000Z</time>
      </trkpt>
      <trkpt lat="48.87138" lon="2.36218">
        <ele>75.4</ele>
        <time>2013-04-01T18:58:52.000Z</time>
      </trkpt>
      <trkpt lat="48.8714" lon="2.36214">
        <ele>76.7</ele>
        <time>2013-04-01T18:58:53.000Z</time>
      </trkpt>
      <trkpt lat="48.87143" lon="2.36211">
        <ele>79</ele>
        <time>2013-04-01T18:58:54.000Z</time>
      </trkpt>
      <trkpt lat="48.87145" lon="2.3621">
        <ele>80.5</ele>
        <time>2013-04-01T18:58:55.000Z</time>
      </trkpt>
      <trkpt lat="48.87148" lon="2.3621">
        <ele>81.4</ele>
        <time>2013-04-01T18:58:56.000Z</time>
      </trkpt>
      <trkpt lat="48.8715" lon="2.3621">
        <ele>81.2</ele>
        <time>2013-04-01T18:58:57.000Z</time>
      </trkpt>
      <trkpt lat="48.87153" lon="2.36211">
        <ele>80.8</ele>
        <time>2013-04-01T18:58:58.000Z</time>
      </trkpt>
      <trkpt lat="48.87156" lon="2.36214">
        <ele>80.5</ele>
        <time>2013-04-01T18:58:59.000Z</time>
      </trkpt>
      <trkpt lat="48.87157" lon="2.36218">
        <ele>79.4</ele>
        <time>2013-04-01T18:59:00.000Z</time>
      </trkpt>
      <trkpt lat="48.87159" lon="2.36222">
        <ele>78.7</ele>
        <time>2013-04-01T18:59:01.000Z</time>
      </trkpt>
      <trkpt lat="48.87162" lon="2.36227">
        <ele>78.7</ele>
        <time>2013-04-01T18:59:02.000Z</time>
      </trkpt>
      <trkpt lat="48.87165" lon="2.36232">
        <ele>78</ele>
        <time>2013-04-01T18:59:03.000Z</time>
      </trkpt>
      <trkpt lat="48.87167" lon="2.36237">
        <ele>78</ele>
        <time>2013-04-01T18:59:04.000Z</time>
      </trkpt>
      <trkpt lat="48.8717" lon="2.36242">
        <ele>77.9</ele>
        <time>2013-04-01T18:59:05.000Z</time>
      </trkpt>
      <trkpt lat="48.87172" lon="2.36246">
        <ele>77.9</ele>
        <time>2013-04-01T18:59:06.000Z</time>
      </trkpt>
      <trkpt lat="48.87175" lon="2.3625">
        <ele>77.9</ele>
        <time>2013-04-01T18:59:07.000Z</time>
      </trkpt>
      <trkpt lat="48.87178" lon="2.36253">
        <ele>80.2</ele>
        <time>2013-04-01T18:59:08.000Z</time>
      </trkpt>
      <trkpt lat="48.87182" lon="2.36255">
        <ele>78.7</ele>
        <time>2013-04-01T18:59:09.000Z</time>
      </trkpt>
      <trkpt lat="48.87186" lon="2.36252">
        <ele>71.4</ele>
        <time>2013-04-01T18:59:10.000Z</time>
      </trkpt>
      <trkpt lat="48.8719" lon="2.36248">
        <ele>71.8</ele>
        <time>2013-04-01T18:59:11.000Z</time>
      </trkpt>
      <trkpt lat="48.87194" lon="2.36245">
        <ele>71.3</ele>
        <time>2013-04-01T18:59:12.000Z</time>
      </trkpt>
      <trkpt lat="48.87198" lon="2.3624">
        <ele>68.2</ele>
        <time>2013-04-01T18:59:13.000Z</time>
      </trkpt>
      <trkpt lat="48.87201" lon="2.36236">
        <ele>68.5</ele>
        <time>2013-04-01T18:59:14.000Z</time>
      </trkpt>
      <trkpt lat="48.87204" lon="2.36232">
        <ele>67</ele>
        <time>2013-04-01T18:59:15.000Z</time>
      </trkpt>
      <trkpt lat="48.87206" lon="2.36229">
        <ele>65.5</ele>
        <time>2013-04-01T18:59:16.000Z</time>
      </trkpt>
      <trkpt lat="48.87208" lon="2.36226">
        <ele>65.1</ele>
        <time>2013-04-01T18:59:17.000Z</time>
      </trkpt>
      <trkpt lat="48.87211" lon="2.36223">
        <ele>64.8</ele>
        <time>2013-04-01T18:59:18.000Z</time>
      </trkpt>
      <trkpt lat="48.87213" lon="2.36218">
        <ele>65.9</ele>
        <time>2013-04-01T18:59:19.000Z</time>
      </trkpt>
      <trkpt lat="48.87216" lon="2.36213">
        <ele>67.1</ele>
        <time>2013-04-01T18:59:20.000Z</time>
      </trkpt>
      <trkpt lat="48.87219" lon="2.3621">
        <ele>66.8</ele>
        <time>2013-04-01T18:59:21.000Z</time>
      </trkpt>
      <trkpt lat="48.87222" lon="2.36206">
        <ele>67.9</ele>
        <time>2013-04-01T18:59:22.000Z</time>
      </trkpt>
      <trkpt lat="48.87225" lon="2.36204">
        <ele>68.8</ele>
        <time>2013-04-01T18:59:23.000Z</time>
      </trkpt>
      <trkpt lat="48.87228" lon="2.36203">
        <ele>68.2</ele>
        <time>2013-04-01T18:59:26.000Z</time>
      </trkpt>
      <trkpt lat="48.87229" lon="2.36203">
        <ele>70.1</ele>
        <time>2013-04-01T18:59:27.000Z</time>
      </trkpt>
      <trkpt lat="48.87231" lon="2.36202">
        <ele>71.5</ele>
        <time>2013-04-01T18:59:28.000Z</time>
      </trkpt>
      <trkpt lat="48.87234" lon="2.36201">
        <ele>70.3</ele>
        <time>2013-04-01T18:59:29.000Z</time>
      </trkpt>
      <trkpt lat="48.87238" lon="2.36198">
        <ele>68.6</ele>
        <time>2013-04-01T18:59:31.000Z</time>
      </trkpt>
      <trkpt lat="48.87239" lon="2.36195">
        <ele>67.9</ele>
        <time>2013-04-01T18:59:32.000Z</time>
      </trkpt>
      <trkpt lat="48.87239" lon="2.36192">
        <ele>67.7</ele>
        <time>2013-04-01T18:59:33.000Z</time>
      </trkpt>
      <trkpt lat="48.87241" lon="2.36189">
        <ele>68.4</ele>
        <time>2013-04-01T18:59:34.000Z</time>
      </trkpt>
      <trkpt lat="48.87242" lon="2.36185">
        <ele>68.3</ele>
        <time>2013-04-01T18:59:35.000Z</time>
      </trkpt>
      <trkpt lat="48.87243" lon="2.36182">
        <ele>68.2</ele>
        <time>2013-04-01T18:59:36.000Z</time>
      </trkpt>
      <trkpt lat="48.87243" lon="2.36178">
        <ele>68.9</ele>
        <time>2013-04-01T18:59:37.000Z</time>
      </trkpt>
      <trkpt lat="48.87244" lon="2.36175">
        <ele>69.3</ele>
        <time>2013-04-01T18:59:38.000Z</time>
      </trkpt>
      <trkpt lat="48.87243" lon="2.36168">
        <ele>69.5</ele>
        <time>2013-04-01T18:59:41.000Z</time>
      </trkpt>
      <trkpt lat="48.87243" lon="2.36167">
        <ele>69.4</ele>
        <time>2013-04-01T18:59:42.000Z</time>
      </trkpt>
      <trkpt lat="48.87244" lon="2.36162">
        <ele>67.8</ele>
        <time>2013-04-01T18:59:49.000Z</time>
      </trkpt>
      <trkpt lat="48.87245" lon="2.36159">
        <ele>68.5</ele>
        <time>2013-04-01T18:59:50.000Z</time>
      </trkpt>
      <trkpt lat="48.87246" lon="2.36156">
        <ele>68.5</ele>
        <time>2013-04-01T18:59:51.000Z</time>
      </trkpt>
      <trkpt lat="48.87247" lon="2.36151">
        <ele>69</ele>
        <time>2013-04-01T18:59:52.000Z</time>
      </trkpt>
      <trkpt lat="48.87248" lon="2.36146">
        <ele>69.2</ele>
        <time>2013-04-01T18:59:53.000Z</time>
      </trkpt>
      <trkpt lat="48.87249" lon="2.36142">
        <ele>69.1</ele>
        <time>2013-04-01T18:59:54.000Z</time>
      </trkpt>
      <trkpt lat="48.8725" lon="2.36138">
        <ele>69.3</ele>
        <time>2013-04-01T18:59:55.000Z</time>
      </trkpt>
      <trkpt lat="48.8725" lon="2.36134">
        <ele>69.9</ele>
        <time>2013-04-01T18:59:56.000Z</time>
      </trkpt>
      <trkpt lat="48.8725" lon="2.36128">
        <ele>73.1</ele>
        <time>2013-04-01T18:59:59.000Z</time>
      </trkpt>
      <trkpt lat="48.8725" lon="2.36126">
        <ele>70.6</ele>
        <time>2013-04-01T19:00:00.000Z</time>
      </trkpt>
      <trkpt lat="48.87251" lon="2.36121">
        <ele>74.5</ele>
        <time>2013-04-01T19:00:04.000Z</time>
      </trkpt>
      <trkpt lat="48.87252" lon="2.36121">
        <ele>75.4</ele>
        <time>2013-04-01T19:00:05.000Z</time>
      </trkpt>
      <trkpt lat="48.87255" lon="2.3612">
        <ele>76</ele>
        <time>2013-04-01T19:00:07.000Z</time>
      </trkpt>
      <trkpt lat="48.87257" lon="2.3612">
        <ele>76.5</ele>
        <time>2013-04-01T19:00:08.000Z</time>
      </trkpt>
      <trkpt lat="48.87261" lon="2.36121">
        <ele>80.1</ele>
        <time>2013-04-01T19:00:15.000Z</time>
      </trkpt>
      <trkpt lat="48.87262" lon="2.36121">
        <ele>80.3</ele>
        <time>2013-04-01T19:00:16.000Z</time>
      </trkpt>
      <trkpt lat="48.87265" lon="2.36123">
        <ele>80.6</ele>
        <time>2013-04-01T19:00:59.000Z</time>
      </trkpt>
      <trkpt lat="48.87266" lon="2.36125">
        <ele>80.7</ele>
        <time>2013-04-01T19:01:00.000Z</time>
      </trkpt>
      <trkpt lat="48.87268" lon="2.36126">
        <ele>80.6</ele>
        <time>2013-04-01T19:01:01.000Z</time>
      </trkpt>
      <trkpt lat="48.87271" lon="2.36127">
        <ele>80.8</ele>
        <time>2013-04-01T19:01:02.000Z</time>
      </trkpt>
      <trkpt lat="48.87273" lon="2.36129">
        <ele>80.3</ele>
        <time>2013-04-01T19:01:03.000Z</time>
      </trkpt>
      <trkpt lat="48.87276" lon="2.3613">
        <ele>78.8</ele>
        <time>2013-04-01T19:01:04.000Z</time>
      </trkpt>
      <trkpt lat="48.87279" lon="2.36131">
        <ele>78.9</ele>
        <time>2013-04-01T19:01:05.000Z</time>
      </trkpt>
      <trkpt lat="48.87282" lon="2.36132">
        <ele>78.8</ele>
        <time>2013-04-01T19:01:06.000Z</time>
      </trkpt>
      <trkpt lat="48.87285" lon="2.36133">
        <ele>78.9</ele>
        <time>2013-04-01T19:01:07.000Z</time>
      </trkpt>
      <trkpt lat="48.87288" lon="2.36134">
        <ele>79.3</ele>
        <time>2013-04-01T19:01:08.000Z</time>
      </trkpt>
      <trkpt lat="48.87291" lon="2.36136">
        <ele>80.3</ele>
        <time>2013-04-01T19:01:09.000Z</time>
      </trkpt>
      <trkpt lat="48.87294" lon="2.36138">
        <ele>81.1</ele>
        <time>2013-04-01T19:01:10.000Z</time>
      </trkpt>
      <trkpt lat="48.87297" lon="2.3614">
        <ele>83</ele>
        <time>2013-04-01T19:01:11.000Z</time>
      </trkpt>
      <trkpt lat="48.873" lon="2.36142">
        <ele>80.9</ele>
        <time>2013-04-01T19:01:12.000Z</time>
      </trkpt>
      <trkpt lat="48.87302" lon="2.36144">
        <ele>81.5</ele>
        <time>2013-04-01T19:01:13.000Z</time>
      </trkpt>
      <trkpt lat="48.87305" lon="2.36147">
        <ele>82.7</ele>
        <time>2013-04-01T19:01:14.000Z</time>
      </trkpt>
      <trkpt lat="48.87307" lon="2.36149">
        <ele>82.6</ele>
        <time>2013-04-01T19:01:15.000Z</time>
      </trkpt>
      <trkpt lat="48.87309" lon="2.36149">
        <ele>83.3</ele>
        <time>2013-04-01T19:01:16.000Z</time>
      </trkpt>
      <trkpt lat="48.87311" lon="2.36146">
        <ele>81.8</ele>
        <time>2013-04-01T19:01:17.000Z</time>
      </trkpt>
      <trkpt lat="48.87313" lon="2.36142">
        <ele>82.4</ele>
        <time>2013-04-01T19:01:18.000Z</time>
      </trkpt>
      <trkpt lat="48.87314" lon="2.36138">
        <ele>81.1</ele>
        <time>2013-04-01T19:01:19.000Z</time>
      </trkpt>
      <trkpt lat="48.87314" lon="2.36133">
        <ele>80.8</ele>
        <time>2013-04-01T19:01:20.000Z</time>
      </trkpt>
      <trkpt lat="48.87314" lon="2.36128">
        <ele>80.6</ele>
        <time>2013-04-01T19:01:21.000Z</time>
      </trkpt>
      <trkpt lat="48.87315" lon="2.36122">
        <ele>78.5</ele>
        <time>2013-04-01T19:01:22.000Z</time>
      </trkpt>
      <trkpt lat="48.87315" lon="2.36116">
        <ele>77.6</ele>
        <time>2013-04-01T19:01:23.000Z</time>
      </trkpt>
      <trkpt lat="48.87316" lon="2.3611">
        <ele>77.2</ele>
        <time>2013-04-01T19:01:24.000Z</time>
      </trkpt>
      <trkpt lat="48.87317" lon="2.36104">
        <ele>76</ele>
        <time>2013-04-01T19:01:25.000Z</time>
      </trkpt>
      <trkpt lat="48.87317" lon="2.36097">
        <ele>76.7</ele>
        <time>2013-04-01T19:01:26.000Z</time>
      </trkpt>
      <trkpt lat="48.87317" lon="2.36091">
        <ele>76.1</ele>
        <time>2013-04-01T19:01:27.000Z</time>
      </trkpt>
      <trkpt lat="48.87317" lon="2.36084">
        <ele>75.9</ele>
        <time>2013-04-01T19:01:28.000Z</time>
      </trkpt>
      <trkpt lat="48.87317" lon="2.36078">
        <ele>75.1</ele>
        <time>2013-04-01T19:01:29.000Z</time>
      </trkpt>
      <trkpt lat="48.87317" lon="2.36071">
        <ele>74</ele>
        <time>2013-04-01T19:01:30.000Z</time>
      </trkpt>
      <trkpt lat="48.87316" lon="2.36064">
        <ele>73.6</ele>
        <time>2013-04-01T19:01:31.000Z</time>
      </trkpt>
      <trkpt lat="48.87316" lon="2.36057">
        <ele>73.9</ele>
        <time>2013-04-01T19:01:32.000Z</time>
      </trkpt>
      <trkpt lat="48.87316" lon="2.3605">
        <ele>73.7</ele>
        <time>2013-04-01T19:01:33.000Z</time>
      </trkpt>
      <trkpt lat="48.87315" lon="2.36043">
        <ele>73.7</ele>
        <time>2013-04-01T19:01:34.000Z</time>
      </trkpt>
      <trkpt lat="48.87315" lon="2.36036">
        <ele>73.9</ele>
        <time>2013-04-01T19:01:35.000Z</time>
      </trkpt>
      <trkpt lat="48.87314" lon="2.36029">
        <ele>73.7</ele>
        <time>2013-04-01T19:01:36.000Z</time>
      </trkpt>
      <trkpt lat="48.87314" lon="2.36022">
        <ele>73.3</ele>
        <time>2013-04-01T19:01:37.000Z</time>
      </trkpt>
      <trkpt lat="48.87316" lon="2.36015">
        <ele>72.4</ele>
        <time>2013-04-01T19:01:38.000Z</time>
      </trkpt>
      <trkpt lat="48.87323" lon="2.36006">
        <ele>74.1</ele>
        <time>2013-04-01T19:01:39.000Z</time>
      </trkpt>
      <trkpt lat="48.8732" lon="2.36">
        <ele>73.2</ele>
        <time>2013-04-01T19:01:40.000Z</time>
      </trkpt>
      <trkpt lat="48.87323" lon="2.35992">
        <ele>73</ele>
        <time>2013-04-01T19:01:41.000Z</time>
      </trkpt>
      <trkpt lat="48.87322" lon="2.35985">
        <ele>73.3</ele>
        <time>2013-04-01T19:01:42.000Z</time>
      </trkpt>
      <trkpt lat="48.87321" lon="2.35979">
        <ele>72.6</ele>
        <time>2013-04-01T19:01:43.000Z</time>
      </trkpt>
      <trkpt lat="48.87322" lon="2.35972">
        <ele>72.8</ele>
        <time>2013-04-01T19:01:44.000Z</time>
      </trkpt>
      <trkpt lat="48.87325" lon="2.35964">
        <ele>72.4</ele>
        <time>2013-04-01T19:01:45.000Z</time>
      </trkpt>
      <trkpt lat="48.87325" lon="2.35956">
        <ele>73.1</ele>
        <time>2013-04-01T19:01:46.000Z</time>
      </trkpt>
      <trkpt lat="48.87325" lon="2.35949">
        <ele>73.5</ele>
        <time>2013-04-01T19:01:47.000Z</time>
      </trkpt>
      <trkpt lat="48.87329" lon="2.35941">
        <ele>74.4</ele>
        <time>2013-04-01T19:01:48.000Z</time>
      </trkpt>
      <trkpt lat="48.87328" lon="2.35934">
        <ele>74.5</ele>
        <time>2013-04-01T19:01:49.000Z</time>
      </trkpt>
      <trkpt lat="48.87327" lon="2.3593">
        <ele>74.1</ele>
        <time>2013-04-01T19:01:50.000Z</time>
      </trkpt>
      <trkpt lat="48.87326" lon="2.35924">
        <ele>74.1</ele>
        <time>2013-04-01T19:01:51.000Z</time>
      </trkpt>
      <trkpt lat="48.87328" lon="2.35919">
        <ele>73.9</ele>
        <time>2013-04-01T19:01:52.000Z</time>
      </trkpt>
      <trkpt lat="48.87329" lon="2.35915">
        <ele>73.4</ele>
        <time>2013-04-01T19:01:53.000Z</time>
      </trkpt>
      <trkpt lat="48.87331" lon="2.3591">
        <ele>74.6</ele>
        <time>2013-04-01T19:01:54.000Z</time>
      </trkpt>
      <trkpt lat="48.87328" lon="2.35905">
        <ele>75.3</ele>
        <time>2013-04-01T19:01:56.000Z</time>
      </trkpt>
      <trkpt lat="48.87327" lon="2.35903">
        <ele>75.6</ele>
        <time>2013-04-01T19:01:57.000Z</time>
      </trkpt>
      <trkpt lat="48.87324" lon="2.35898">
        <ele>77.2</ele>
        <time>2013-04-01T19:02:14.000Z</time>
      </trkpt>
      <trkpt lat="48.87324" lon="2.35898">
        <ele>77.3</ele>
        <time>2013-04-01T19:02:15.000Z</time>
      </trkpt>
      <trkpt lat="48.87325" lon="2.35893">
        <ele>75.6</ele>
        <time>2013-04-01T19:02:25.000Z</time>
      </trkpt>
      <trkpt lat="48.87326" lon="2.3589">
        <ele>74.8</ele>
        <time>2013-04-01T19:02:26.000Z</time>
      </trkpt>
      <trkpt lat="48.87327" lon="2.35883">
        <ele>73.8</ele>
        <time>2013-04-01T19:02:28.000Z</time>
      </trkpt>
      <trkpt lat="48.87327" lon="2.3588">
        <ele>73.9</ele>
        <time>2013-04-01T19:02:29.000Z</time>
      </trkpt>
      <trkpt lat="48.87327" lon="2.35874">
        <ele>73.3</ele>
        <time>2013-04-01T19:02:31.000Z</time>
      </trkpt>
      <trkpt lat="48.87329" lon="2.35872">
        <ele>73.1</ele>
        <time>2013-04-01T19:02:32.000Z</time>
      </trkpt>
      <trkpt lat="48.8733" lon="2.35869">
        <ele>73.5</ele>
        <time>2013-04-01T19:02:33.000Z</time>
      </trkpt>
      <trkpt lat="48.87332" lon="2.35866">
        <ele>72</ele>
        <time>2013-04-01T19:02:34.000Z</time>
      </trkpt>
      <trkpt lat="48.87333" lon="2.35862">
        <ele>70.7</ele>
        <time>2013-04-01T19:02:35.000Z</time>
      </trkpt>
      <trkpt lat="48.87334" lon="2.35858">
        <ele>70.4</ele>
        <time>2013-04-01T19:02:36.000Z</time>
      </trkpt>
      <trkpt lat="48.87335" lon="2.35854">
        <ele>70.1</ele>
        <time>2013-04-01T19:02:37.000Z</time>
      </trkpt>
      <trkpt lat="48.87336" lon="2.35849">
        <ele>69</ele>
        <time>2013-04-01T19:02:38.000Z</time>
      </trkpt>
      <trkpt lat="48.87337" lon="2.35845">
        <ele>69.5</ele>
        <time>2013-04-01T19:02:39.000Z</time>
      </trkpt>
      <trkpt lat="48.87338" lon="2.35841">
        <ele>69.6</ele>
        <time>2013-04-01T19:02:40.000Z</time>
      </trkpt>
      <trkpt lat="48.87338" lon="2.35836">
        <ele>69.5</ele>
        <time>2013-04-01T19:02:41.000Z</time>
      </trkpt>
      <trkpt lat="48.87338" lon="2.35832">
        <ele>70.3</ele>
        <time>2013-04-01T19:02:42.000Z</time>
      </trkpt>
      <trkpt lat="48.87338" lon="2.35827">
        <ele>71.8</ele>
        <time>2013-04-01T19:02:44.000Z</time>
      </trkpt>
      <trkpt lat="48.87337" lon="2.35824">
        <ele>72</ele>
        <time>2013-04-01T19:02:45.000Z</time>
      </trkpt>
      <trkpt lat="48.87336" lon="2.35818">
        <ele>73</ele>
        <time>2013-04-01T19:02:50.000Z</time>
      </trkpt>
      <trkpt lat="48.87336" lon="2.35816">
        <ele>73.1</ele>
        <time>2013-04-01T19:02:51.000Z</time>
      </trkpt>
      <trkpt lat="48.87334" lon="2.35814">
        <ele>75.5</ele>
        <time>2013-04-01T19:02:52.000Z</time>
      </trkpt>
      <trkpt lat="48.87331" lon="2.35812">
        <ele>76.7</ele>
        <time>2013-04-01T19:02:53.000Z</time>
      </trkpt>
      <trkpt lat="48.87328" lon="2.3581">
        <ele>78.1</ele>
        <time>2013-04-01T19:02:54.000Z</time>
      </trkpt>
      <trkpt lat="48.87324" lon="2.3581">
        <ele>78.3</ele>
        <time>2013-04-01T19:02:55.000Z</time>
      </trkpt>
      <trkpt lat="48.8732" lon="2.35808">
        <ele>78.5</ele>
        <time>2013-04-01T19:02:56.000Z</time>
      </trkpt>
      <trkpt lat="48.87315" lon="2.35807">
        <ele>77.2</ele>
        <time>2013-04-01T19:02:57.000Z</time>
      </trkpt>
      <trkpt lat="48.8731" lon="2.35806">
        <ele>77.5</ele>
        <time>2013-04-01T19:02:58.000Z</time>
      </trkpt>
      <trkpt lat="48.87305" lon="2.35805">
        <ele>77.8</ele>
        <time>2013-04-01T19:02:59.000Z</time>
      </trkpt>
      <trkpt lat="48.873" lon="2.35804">
        <ele>78.2</ele>
        <time>2013-04-01T19:03:00.000Z</time>
      </trkpt>
      <trkpt lat="48.87295" lon="2.35803">
        <ele>78.7</ele>
        <time>2013-04-01T19:03:01.000Z</time>
      </trkpt>
      <trkpt lat="48.8729" lon="2.358">
        <ele>79.4</ele>
        <time>2013-04-01T19:03:02.000Z</time>
      </trkpt>
      <trkpt lat="48.87281" lon="2.35797">
        <ele>80.1</ele>
        <time>2013-04-01T19:03:03.000Z</time>
      </trkpt>
      <trkpt lat="48.87276" lon="2.35794">
        <ele>80.3</ele>
        <time>2013-04-01T19:03:04.000Z</time>
      </trkpt>
      <trkpt lat="48.87271" lon="2.3579">
        <ele>80</ele>
        <time>2013-04-01T19:03:05.000Z</time>
      </trkpt>
      <trkpt lat="48.87265" lon="2.35788">
        <ele>80</ele>
        <time>2013-04-01T19:03:06.000Z</time>
      </trkpt>
      <trkpt lat="48.8726" lon="2.35781">
        <ele>80.7</ele>
        <time>2013-04-01T19:03:07.000Z</time>
      </trkpt>
      <trkpt lat="48.87255" lon="2.35778">
        <ele>81</ele>
        <time>2013-04-01T19:03:08.000Z</time>
      </trkpt>
      <trkpt lat="48.87249" lon="2.35774">
        <ele>81.2</ele>
        <time>2013-04-01T19:03:09.000Z</time>
      </trkpt>
      <trkpt lat="48.87243" lon="2.35773">
        <ele>81.8</ele>
        <time>2013-04-01T19:03:10.000Z</time>
      </trkpt>
      <trkpt lat="48.87238" lon="2.35769">
        <ele>82.2</ele>
        <time>2013-04-01T19:03:11.000Z</time>
      </trkpt>
      <trkpt lat="48.87233" lon="2.35765">
        <ele>81.9</ele>
        <time>2013-04-01T19:03:12.000Z</time>
      </trkpt>
      <trkpt lat="48.87227" lon="2.35759">
        <ele>82.1</ele>
        <time>2013-04-01T19:03:13.000Z</time>
      </trkpt>
      <trkpt lat="48.87221" lon="2.35753">
        <ele>82.4</ele>
        <time>2013-04-01T19:03:14.000Z</time>
      </trkpt>
      <trkpt lat="48.87215" lon="2.35748">
        <ele>82.9</ele>
        <time>2013-04-01T19:03:15.000Z</time>
      </trkpt>
      <trkpt lat="48.8721" lon="2.35743">
        <ele>83.2</ele>
        <time>2013-04-01T19:03:16.000Z</time>
      </trkpt>
      <trkpt lat="48.87205" lon="2.35739">
        <ele>82.8</ele>
        <time>2013-04-01T19:03:17.000Z</time>
      </trkpt>
      <trkpt lat="48.872" lon="2.35735">
        <ele>82.7</ele>
        <time>2013-04-01T19:03:18.000Z</time>
      </trkpt>
      <trkpt lat="48.87195" lon="2.3573">
        <ele>82.8</ele>
        <time>2013-04-01T19:03:19.000Z</time>
      </trkpt>
      <trkpt lat="48.87194" lon="2.35729">
        <ele>82.2</ele>
        <time>2013-04-01T19:03:20.000Z</time>
      </trkpt>
      <trkpt lat="48.8719" lon="2.35727">
        <ele>82.3</ele>
        <time>2013-04-01T19:03:21.000Z</time>
      </trkpt>
      <trkpt lat="48.87187" lon="2.35724">
        <ele>82.1</ele>
        <time>2013-04-01T19:03:22.000Z</time>
      </trkpt>
      <trkpt lat="48.87184" lon="2.35722">
        <ele>82.4</ele>
        <time>2013-04-01T19:03:23.000Z</time>
      </trkpt>
      <trkpt lat="48.8718" lon="2.35722">
        <ele>83</ele>
        <time>2013-04-01T19:03:24.000Z</time>
      </trkpt>
      <trkpt lat="48.87176" lon="2.35717">
        <ele>86.7</ele>
        <time>2013-04-01T19:03:25.000Z</time>
      </trkpt>
      <trkpt lat="48.87176" lon="2.35713">
        <ele>82.9</ele>
        <time>2013-04-01T19:03:26.000Z</time>
      </trkpt>
      <trkpt lat="48.87178" lon="2.35708">
        <ele>80.3</ele>
        <time>2013-04-01T19:03:27.000Z</time>
      </trkpt>
      <trkpt lat="48.87181" lon="2.35701">
        <ele>75.9</ele>
        <time>2013-04-01T19:03:28.000Z</time>
      </trkpt>
      <trkpt lat="48.87186" lon="2.35695">
        <ele>72.6</ele>
        <time>2013-04-01T19:03:29.000Z</time>
      </trkpt>
      <trkpt lat="48.87188" lon="2.35688">
        <ele>72.7</ele>
        <time>2013-04-01T19:03:30.000Z</time>
      </trkpt>
      <trkpt lat="48.8719" lon="2.35682">
        <ele>75.3</ele>
        <time>2013-04-01T19:03:31.000Z</time>
      </trkpt>
      <trkpt lat="48.87192" lon="2.35676">
        <ele>74.3</ele>
        <time>2013-04-01T19:03:32.000Z</time>
      </trkpt>
      <trkpt lat="48.87195" lon="2.3567">
        <ele>73</ele>
        <time>2013-04-01T19:03:33.000Z</time>
      </trkpt>
      <trkpt lat="48.87198" lon="2.35663">
        <ele>72.5</ele>
        <time>2013-04-01T19:03:34.000Z</time>
      </trkpt>
      <trkpt lat="48.872" lon="2.35656">
        <ele>72.3</ele>
        <time>2013-04-01T19:03:35.000Z</time>
      </trkpt>
      <trkpt lat="48.87202" lon="2.3565">
        <ele>71.8</ele>
        <time>2013-04-01T19:03:36.000Z</time>
      </trkpt>
      <trkpt lat="48.87205" lon="2.35644">
        <ele>71.8</ele>
        <time>2013-04-01T19:03:37.000Z</time>
      </trkpt>
      <trkpt lat="48.87207" lon="2.35638">
        <ele>71.1</ele>
        <time>2013-04-01T19:03:38.000Z</time>
      </trkpt>
      <trkpt lat="48.87209" lon="2.35633">
        <ele>71.1</ele>
        <time>2013-04-01T19:03:39.000Z</time>
      </trkpt>
      <trkpt lat="48.87213" lon="2.35627">
        <ele>72.6</ele>
        <time>2013-04-01T19:03:40.000Z</time>
      </trkpt>
      <trkpt lat="48.87213" lon="2.35618">
        <ele>73.4</ele>
        <time>2013-04-01T19:03:41.000Z</time>
      </trkpt>
      <trkpt lat="48.87215" lon="2.35616">
        <ele>74</ele>
        <time>2013-04-01T19:03:42.000Z</time>
      </trkpt>
      <trkpt lat="48.87215" lon="2.3561">
        <ele>75.3</ele>
        <time>2013-04-01T19:03:43.000Z</time>
      </trkpt>
      <trkpt lat="48.87214" lon="2.35607">
        <ele>74.5</ele>
        <time>2013-04-01T19:03:44.000Z</time>
      </trkpt>
      <trkpt lat="48.87219" lon="2.35603">
        <ele>78.2</ele>
        <time>2013-04-01T19:03:45.000Z</time>
      </trkpt>
      <trkpt lat="48.87223" lon="2.356">
        <ele>80.8</ele>
        <time>2013-04-01T19:03:59.000Z</time>
      </trkpt>
      <trkpt lat="48.87223" lon="2.356">
        <ele>80.9</ele>
        <time>2013-04-01T19:04:00.000Z</time>
      </trkpt>
      <trkpt lat="48.87224" lon="2.35596">
        <ele>81.6</ele>
        <time>2013-04-01T19:04:06.000Z</time>
      </trkpt>
      <trkpt lat="48.87225" lon="2.35593">
        <ele>82.4</ele>
        <time>2013-04-01T19:04:07.000Z</time>
      </trkpt>
      <trkpt lat="48.87227" lon="2.3559">
        <ele>82.3</ele>
        <time>2013-04-01T19:04:08.000Z</time>
      </trkpt>
      <trkpt lat="48.87228" lon="2.35587">
        <ele>82.5</ele>
        <time>2013-04-01T19:04:09.000Z</time>
      </trkpt>
      <trkpt lat="48.8723" lon="2.35584">
        <ele>82.5</ele>
        <time>2013-04-01T19:04:10.000Z</time>
      </trkpt>
      <trkpt lat="48.87231" lon="2.35582">
        <ele>82.5</ele>
        <time>2013-04-01T19:04:11.000Z</time>
      </trkpt>
      <trkpt lat="48.87234" lon="2.35577">
        <ele>82.5</ele>
        <time>2013-04-01T19:04:13.000Z</time>
      </trkpt>
      <trkpt lat="48.87235" lon="2.35574">
        <ele>82.2</ele>
        <time>2013-04-01T19:04:14.000Z</time>
      </trkpt>
      <trkpt lat="48.87237" lon="2.35571">
        <ele>82.5</ele>
        <time>2013-04-01T19:04:15.000Z</time>
      </trkpt>
      <trkpt lat="48.87238" lon="2.35568">
        <ele>83.1</ele>
        <time>2013-04-01T19:04:16.000Z</time>
      </trkpt>
      <trkpt lat="48.87239" lon="2.35563">
        <ele>83.7</ele>
        <time>2013-04-01T19:04:17.000Z</time>
      </trkpt>
      <trkpt lat="48.87241" lon="2.35559">
        <ele>83.8</ele>
        <time>2013-04-01T19:04:18.000Z</time>
      </trkpt>
      <trkpt lat="48.87242" lon="2.35555">
        <ele>84.3</ele>
        <time>2013-04-01T19:04:19.000Z</time>
      </trkpt>
      <trkpt lat="48.87244" lon="2.35551">
        <ele>84</ele>
        <time>2013-04-01T19:04:20.000Z</time>
      </trkpt>
      <trkpt lat="48.87246" lon="2.35546">
        <ele>84</ele>
        <time>2013-04-01T19:04:21.000Z</time>
      </trkpt>
      <trkpt lat="48.87248" lon="2.35542">
        <ele>82.3</ele>
        <time>2013-04-01T19:04:22.000Z</time>
      </trkpt>
      <trkpt lat="48.87249" lon="2.35538">
        <ele>82.7</ele>
        <time>2013-04-01T19:04:23.000Z</time>
      </trkpt>
      <trkpt lat="48.87251" lon="2.35535">
        <ele>82.4</ele>
        <time>2013-04-01T19:04:24.000Z</time>
      </trkpt>
      <trkpt lat="48.87252" lon="2.35531">
        <ele>82.3</ele>
        <time>2013-04-01T19:04:25.000Z</time>
      </trkpt>
      <trkpt lat="48.87253" lon="2.35527">
        <ele>82.8</ele>
        <time>2013-04-01T19:04:26.000Z</time>
      </trkpt>
      <trkpt lat="48.87255" lon="2.35523">
        <ele>82.9</ele>
        <time>2013-04-01T19:04:27.000Z</time>
      </trkpt>
      <trkpt lat="48.87257" lon="2.35519">
        <ele>83.3</ele>
        <time>2013-04-01T19:04:28.000Z</time>
      </trkpt>
      <trkpt lat="48.87258" lon="2.35514">
        <ele>83.1</ele>
        <time>2013-04-01T19:04:29.000Z</time>
      </trkpt>
      <trkpt lat="48.8726" lon="2.35509">
        <ele>82.7</ele>
        <time>2013-04-01T19:04:30.000Z</time>
      </trkpt>
      <trkpt lat="48.87262" lon="2.35505">
        <ele>82.4</ele>
        <time>2013-04-01T19:04:31.000Z</time>
      </trkpt>
      <trkpt lat="48.87264" lon="2.355">
        <ele>82.5</ele>
        <time>2013-04-01T19:04:32.000Z</time>
      </trkpt>
      <trkpt lat="48.87267" lon="2.35496">
        <ele>82.1</ele>
        <time>2013-04-01T19:04:33.000Z</time>
      </trkpt>
      <trkpt lat="48.8727" lon="2.35493">
        <ele>83.1</ele>
        <time>2013-04-01T19:04:34.000Z</time>
      </trkpt>
      <trkpt lat="48.87272" lon="2.35489">
        <ele>83</ele>
        <time>2013-04-01T19:04:35.000Z</time>
      </trkpt>
      <trkpt lat="48.87274" lon="2.35485">
        <ele>83.2</ele>
        <time>2013-04-01T19:04:36.000Z</time>
      </trkpt>
      <trkpt lat="48.87276" lon="2.35481">
        <ele>82.9</ele>
        <time>2013-04-01T19:04:37.000Z</time>
      </trkpt>
      <trkpt lat="48.87278" lon="2.35477">
        <ele>82.4</ele>
        <time>2013-04-01T19:04:38.000Z</time>
      </trkpt>
      <trkpt lat="48.8728" lon="2.35472">
        <ele>82.1</ele>
        <time>2013-04-01T19:04:39.000Z</time>
      </trkpt>
      <trkpt lat="48.87282" lon="2.35468">
        <ele>81.7</ele>
        <time>2013-04-01T19:04:40.000Z</time>
      </trkpt>
      <trkpt lat="48.87283" lon="2.35464">
        <ele>81.7</ele>
        <time>2013-04-01T19:04:41.000Z</time>
      </trkpt>
      <trkpt lat="48.87285" lon="2.3546">
        <ele>81.3</ele>
        <time>2013-04-01T19:04:42.000Z</time>
      </trkpt>
      <trkpt lat="48.87286" lon="2.35457">
        <ele>80.6</ele>
        <time>2013-04-01T19:04:43.000Z</time>
      </trkpt>
      <trkpt lat="48.87288" lon="2.35453">
        <ele>80.5</ele>
        <time>2013-04-01T19:04:44.000Z</time>
      </trkpt>
      <trkpt lat="48.87288" lon="2.3545">
        <ele>80.3</ele>
        <time>2013-04-01T19:04:45.000Z</time>
      </trkpt>
      <trkpt lat="48.87288" lon="2.35445">
        <ele>80.6</ele>
        <time>2013-04-01T19:04:46.000Z</time>
      </trkpt>
      <trkpt lat="48.87288" lon="2.35441">
        <ele>80.5</ele>
        <time>2013-04-01T19:04:47.000Z</time>
      </trkpt>
      <trkpt lat="48.87288" lon="2.35437">
        <ele>80</ele>
        <time>2013-04-01T19:04:48.000Z</time>
      </trkpt>
      <trkpt lat="48.87287" lon="2.35432">
        <ele>80</ele>
        <time>2013-04-01T19:04:49.000Z</time>
      </trkpt>
      <trkpt lat="48.87287" lon="2.35427">
        <ele>80.4</ele>
        <time>2013-04-01T19:04:50.000Z</time>
      </trkpt>
      <trkpt lat="48.87288" lon="2.35423">
        <ele>79</ele>
        <time>2013-04-01T19:04:51.000Z</time>
      </trkpt>
      <trkpt lat="48.87288" lon="2.35419">
        <ele>78.5</ele>
        <time>2013-04-01T19:04:52.000Z</time>
      </trkpt>
      <trkpt lat="48.8729" lon="2.35415">
        <ele>79.6</ele>
        <time>2013-04-01T19:04:53.000Z</time>
      </trkpt>
      <trkpt lat="48.87291" lon="2.35411">
        <ele>79.5</ele>
        <time>2013-04-01T19:04:54.000Z</time>
      </trkpt>
      <trkpt lat="48.87292" lon="2.35407">
        <ele>79.6</ele>
        <time>2013-04-01T19:04:55.000Z</time>
      </trkpt>
      <trkpt lat="48.87294" lon="2.35403">
        <ele>80.2</ele>
        <time>2013-04-01T19:04:56.000Z</time>
      </trkpt>
      <trkpt lat="48.87295" lon="2.35399">
        <ele>81.8</ele>
        <time>2013-04-01T19:04:57.000Z</time>
      </trkpt>
      <trkpt lat="48.87296" lon="2.35396">
        <ele>82.7</ele>
        <time>2013-04-01T19:04:58.000Z</time>
      </trkpt>
      <trkpt lat="48.87297" lon="2.35392">
        <ele>82.9</ele>
        <time>2013-04-01T19:04:59.000Z</time>
      </trkpt>
      <trkpt lat="48.87299" lon="2.35388">
        <ele>82.1</ele>
        <time>2013-04-01T19:05:00.000Z</time>
      </trkpt>
      <trkpt lat="48.873" lon="2.35384">
        <ele>81.3</ele>
        <time>2013-04-01T19:05:01.000Z</time>
      </trkpt>
      <trkpt lat="48.87301" lon="2.3538">
        <ele>81.7</ele>
        <time>2013-04-01T19:05:02.000Z</time>
      </trkpt>
      <trkpt lat="48.87301" lon="2.35376">
        <ele>82</ele>
        <time>2013-04-01T19:05:03.000Z</time>
      </trkpt>
      <trkpt lat="48.87302" lon="2.35371">
        <ele>82.3</ele>
        <time>2013-04-01T19:05:04.000Z</time>
      </trkpt>
      <trkpt lat="48.87303" lon="2.35366">
        <ele>81.9</ele>
        <time>2013-04-01T19:05:05.000Z</time>
      </trkpt>
      <trkpt lat="48.87304" lon="2.35362">
        <ele>81.6</ele>
        <time>2013-04-01T19:05:06.000Z</time>
      </trkpt>
      <trkpt lat="48.87306" lon="2.35357">
        <ele>80.8</ele>
        <time>2013-04-01T19:05:07.000Z</time>
      </trkpt>
      <trkpt lat="48.87308" lon="2.35352">
        <ele>80.2</ele>
        <time>2013-04-01T19:05:08.000Z</time>
      </trkpt>
      <trkpt lat="48.8731" lon="2.35346">
        <ele>78.8</ele>
        <time>2013-04-01T19:05:09.000Z</time>
      </trkpt>
      <trkpt lat="48.87312" lon="2.3534">
        <ele>77.8</ele>
        <time>2013-04-01T19:05:10.000Z</time>
      </trkpt>
      <trkpt lat="48.87315" lon="2.35334">
        <ele>76.5</ele>
        <time>2013-04-01T19:05:11.000Z</time>
      </trkpt>
      <trkpt lat="48.87317" lon="2.35328">
        <ele>75.6</ele>
        <time>2013-04-01T19:05:12.000Z</time>
      </trkpt>
      <trkpt lat="48.8732" lon="2.35321">
        <ele>75.3</ele>
        <time>2013-04-01T19:05:13.000Z</time>
      </trkpt>
      <trkpt lat="48.87323" lon="2.35315">
        <ele>75.3</ele>
        <time>2013-04-01T19:05:14.000Z</time>
      </trkpt>
      <trkpt lat="48.87326" lon="2.35309">
        <ele>75.7</ele>
        <time>2013-04-01T19:05:15.000Z</time>
      </trkpt>
      <trkpt lat="48.87328" lon="2.35302">
        <ele>75.9</ele>
        <time>2013-04-01T19:05:16.000Z</time>
      </trkpt>
      <trkpt lat="48.87331" lon="2.35296">
        <ele>76.2</ele>
        <time>2013-04-01T19:05:17.000Z</time>
      </trkpt>
      <trkpt lat="48.87333" lon="2.35289">
        <ele>76.3</ele>
        <time>2013-04-01T19:05:18.000Z</time>
      </trkpt>
      <trkpt lat="48.87335" lon="2.35283">
        <ele>76.4</ele>
        <time>2013-04-01T19:05:19.000Z</time>
      </trkpt>
      <trkpt lat="48.87338" lon="2.35277">
        <ele>76.4</ele>
        <time>2013-04-01T19:05:20.000Z</time>
      </trkpt>
      <trkpt lat="48.8734" lon="2.35271">
        <ele>76.5</ele>
        <time>2013-04-01T19:05:21.000Z</time>
      </trkpt>
      <trkpt lat="48.87342" lon="2.35265">
        <ele>76.6</ele>
        <time>2013-04-01T19:05:22.000Z</time>
      </trkpt>
      <trkpt lat="48.87344" lon="2.35258">
        <ele>76.6</ele>
        <time>2013-04-01T19:05:23.000Z</time>
      </trkpt>
      <trkpt lat="48.87346" lon="2.35248">
        <ele>78.2</ele>
        <time>2013-04-01T19:05:24.000Z</time>
      </trkpt>
      <trkpt lat="48.87348" lon="2.35241">
        <ele>79</ele>
        <time>2013-04-01T19:05:25.000Z</time>
      </trkpt>
      <trkpt lat="48.87349" lon="2.35232">
        <ele>78.9</ele>
        <time>2013-04-01T19:05:26.000Z</time>
      </trkpt>
      <trkpt lat="48.87351" lon="2.35227">
        <ele>79.8</ele>
        <time>2013-04-01T19:05:27.000Z</time>
      </trkpt>
      <trkpt lat="48.87353" lon="2.35222">
        <ele>81.1</ele>
        <time>2013-04-01T19:05:28.000Z</time>
      </trkpt>
      <trkpt lat="48.87354" lon="2.35215">
        <ele>81</ele>
        <time>2013-04-01T19:05:29.000Z</time>
      </trkpt>
      <trkpt lat="48.87356" lon="2.35208">
        <ele>80.9</ele>
        <time>2013-04-01T19:05:30.000Z</time>
      </trkpt>
      <trkpt lat="48.87358" lon="2.35201">
        <ele>81</ele>
        <time>2013-04-01T19:05:31.000Z</time>
      </trkpt>
      <trkpt lat="48.87361" lon="2.35192">
        <ele>81.8</ele>
        <time>2013-04-01T19:05:32.000Z</time>
      </trkpt>
      <trkpt lat="48.87362" lon="2.35184">
        <ele>82.2</ele>
        <time>2013-04-01T19:05:33.000Z</time>
      </trkpt>
      <trkpt lat="48.87361" lon="2.35176">
        <ele>81.5</ele>
        <time>2013-04-01T19:05:34.000Z</time>
      </trkpt>
      <trkpt lat="48.87362" lon="2.35168">
        <ele>81.5</ele>
        <time>2013-04-01T19:05:35.000Z</time>
      </trkpt>
      <trkpt lat="48.87363" lon="2.35159">
        <ele>81.6</ele>
        <time>2013-04-01T19:05:36.000Z</time>
      </trkpt>
      <trkpt lat="48.87363" lon="2.35151">
        <ele>81.4</ele>
        <time>2013-04-01T19:05:37.000Z</time>
      </trkpt>
      <trkpt lat="48.87364" lon="2.35142">
        <ele>81.5</ele>
        <time>2013-04-01T19:05:38.000Z</time>
      </trkpt>
      <trkpt lat="48.87365" lon="2.35133">
        <ele>81.6</ele>
        <time>2013-04-01T19:05:39.000Z</time>
      </trkpt>
      <trkpt lat="48.87366" lon="2.35125">
        <ele>81.5</ele>
        <time>2013-04-01T19:05:40.000Z</time>
      </trkpt>
      <trkpt lat="48.87369" lon="2.35114">
        <ele>82.1</ele>
        <time>2013-04-01T19:05:41.000Z</time>
      </trkpt>
      <trkpt lat="48.87369" lon="2.35105">
        <ele>81.5</ele>
        <time>2013-04-01T19:05:42.000Z</time>
      </trkpt>
      <trkpt lat="48.87369" lon="2.35096">
        <ele>81.5</ele>
        <time>2013-04-01T19:05:43.000Z</time>
      </trkpt>
      <trkpt lat="48.87371" lon="2.35088">
        <ele>81.2</ele>
        <time>2013-04-01T19:05:44.000Z</time>
      </trkpt>
      <trkpt lat="48.8737" lon="2.3508">
        <ele>80.9</ele>
        <time>2013-04-01T19:05:45.000Z</time>
      </trkpt>
      <trkpt lat="48.87371" lon="2.35072">
        <ele>80.7</ele>
        <time>2013-04-01T19:05:46.000Z</time>
      </trkpt>
      <trkpt lat="48.87375" lon="2.35062">
        <ele>81.4</ele>
        <time>2013-04-01T19:05:47.000Z</time>
      </trkpt>
      <trkpt lat="48.87382" lon="2.35056">
        <ele>81.5</ele>
        <time>2013-04-01T19:05:48.000Z</time>
      </trkpt>
      <trkpt lat="48.87386" lon="2.35056">
        <ele>79.6</ele>
        <time>2013-04-01T19:05:49.000Z</time>
      </trkpt>
      <trkpt lat="48.87392" lon="2.35057">
        <ele>79</ele>
        <time>2013-04-01T19:05:50.000Z</time>
      </trkpt>
      <trkpt lat="48.87398" lon="2.35057">
        <ele>78.8</ele>
        <time>2013-04-01T19:05:51.000Z</time>
      </trkpt>
      <trkpt lat="48.87403" lon="2.35058">
        <ele>78.6</ele>
        <time>2013-04-01T19:05:52.000Z</time>
      </trkpt>
      <trkpt lat="48.87407" lon="2.3506">
        <ele>78.6</ele>
        <time>2013-04-01T19:05:53.000Z</time>
      </trkpt>
      <trkpt lat="48.87414" lon="2.35062">
        <ele>78</ele>
        <time>2013-04-01T19:05:54.000Z</time>
      </trkpt>
      <trkpt lat="48.87417" lon="2.35063">
        <ele>77.9</ele>
        <time>2013-04-01T19:05:55.000Z</time>
      </trkpt>
      <trkpt lat="48.87424" lon="2.35064">
        <ele>77.8</ele>
        <time>2013-04-01T19:05:56.000Z</time>
      </trkpt>
      <trkpt lat="48.87427" lon="2.35065">
        <ele>77</ele>
        <time>2013-04-01T19:05:57.000Z</time>
      </trkpt>
      <trkpt lat="48.87432" lon="2.35066">
        <ele>77.4</ele>
        <time>2013-04-01T19:05:58.000Z</time>
      </trkpt>
      <trkpt lat="48.87436" lon="2.35069">
        <ele>78</ele>
        <time>2013-04-01T19:05:59.000Z</time>
      </trkpt>
      <trkpt lat="48.87442" lon="2.35071">
        <ele>78.2</ele>
        <time>2013-04-01T19:06:00.000Z</time>
      </trkpt>
      <trkpt lat="48.87446" lon="2.35072">
        <ele>78.7</ele>
        <time>2013-04-01T19:06:01.000Z</time>
      </trkpt>
      <trkpt lat="48.87452" lon="2.35072">
        <ele>79.2</ele>
        <time>2013-04-01T19:06:02.000Z</time>
      </trkpt>
      <trkpt lat="48.87456" lon="2.35073">
        <ele>78.9</ele>
        <time>2013-04-01T19:06:03.000Z</time>
      </trkpt>
      <trkpt lat="48.87461" lon="2.35073">
        <ele>78.8</ele>
        <time>2013-04-01T19:06:04.000Z</time>
      </trkpt>
      <trkpt lat="48.87466" lon="2.35074">
        <ele>79.3</ele>
        <time>2013-04-01T19:06:05.000Z</time>
      </trkpt>
      <trkpt lat="48.87473" lon="2.35074">
        <ele>79.5</ele>
        <time>2013-04-01T19:06:06.000Z</time>
      </trkpt>
      <trkpt lat="48.87479" lon="2.35076">
        <ele>79.5</ele>
        <time>2013-04-01T19:06:07.000Z</time>
      </trkpt>
      <trkpt lat="48.87485" lon="2.35078">
        <ele>79.9</ele>
        <time>2013-04-01T19:06:08.000Z</time>
      </trkpt>
      <trkpt lat="48.87491" lon="2.35079">
        <ele>79.9</ele>
        <time>2013-04-01T19:06:09.000Z</time>
      </trkpt>
      <trkpt lat="48.87495" lon="2.3508">
        <ele>79.6</ele>
        <time>2013-04-01T19:06:10.000Z</time>
      </trkpt>
      <trkpt lat="48.87501" lon="2.3508">
        <ele>79.6</ele>
        <time>2013-04-01T19:06:11.000Z</time>
      </trkpt>
      <trkpt lat="48.87503" lon="2.35082">
        <ele>79.5</ele>
        <time>2013-04-01T19:06:12.000Z</time>
      </trkpt>
      <trkpt lat="48.87509" lon="2.35083">
        <ele>79.9</ele>
        <time>2013-04-01T19:06:13.000Z</time>
      </trkpt>
      <trkpt lat="48.87512" lon="2.35084">
        <ele>80.1</ele>
        <time>2013-04-01T19:06:14.000Z</time>
      </trkpt>
      <trkpt lat="48.87516" lon="2.35085">
        <ele>80</ele>
        <time>2013-04-01T19:06:15.000Z</time>
      </trkpt>
      <trkpt lat="48.87519" lon="2.3508">
        <ele>80.6</ele>
        <time>2013-04-01T19:06:17.000Z</time>
      </trkpt>
      <trkpt lat="48.87522" lon="2.35079">
        <ele>81.1</ele>
        <time>2013-04-01T19:06:18.000Z</time>
      </trkpt>
      <trkpt lat="48.87523" lon="2.35077">
        <ele>81.8</ele>
        <time>2013-04-01T19:06:19.000Z</time>
      </trkpt>
      <trkpt lat="48.87524" lon="2.3507">
        <ele>81.4</ele>
        <time>2013-04-01T19:06:20.000Z</time>
      </trkpt>
      <trkpt lat="48.87524" lon="2.35065">
        <ele>82.1</ele>
        <time>2013-04-01T19:06:21.000Z</time>
      </trkpt>
      <trkpt lat="48.87525" lon="2.35058">
        <ele>81.5</ele>
        <time>2013-04-01T19:06:22.000Z</time>
      </trkpt>
      <trkpt lat="48.87526" lon="2.35051">
        <ele>79.4</ele>
        <time>2013-04-01T19:06:23.000Z</time>
      </trkpt>
      <trkpt lat="48.87526" lon="2.35044">
        <ele>79.6</ele>
        <time>2013-04-01T19:06:24.000Z</time>
      </trkpt>
      <trkpt lat="48.87527" lon="2.35037">
        <ele>80</ele>
        <time>2013-04-01T19:06:25.000Z</time>
      </trkpt>
      <trkpt lat="48.87527" lon="2.35031">
        <ele>79.4</ele>
        <time>2013-04-01T19:06:26.000Z</time>
      </trkpt>
      <trkpt lat="48.87533" lon="2.35015">
        <ele>81.2</ele>
        <time>2013-04-01T19:06:27.000Z</time>
      </trkpt>
      <trkpt lat="48.87537" lon="2.35005">
        <ele>81.6</ele>
        <time>2013-04-01T19:06:28.000Z</time>
      </trkpt>
      <trkpt lat="48.87545" lon="2.34994">
        <ele>81.6</ele>
        <time>2013-04-01T19:06:29.000Z</time>
      </trkpt>
      <trkpt lat="48.87547" lon="2.34986">
        <ele>81.3</ele>
        <time>2013-04-01T19:06:30.000Z</time>
      </trkpt>
      <trkpt lat="48.87548" lon="2.34978">
        <ele>81.4</ele>
        <time>2013-04-01T19:06:31.000Z</time>
      </trkpt>
      <trkpt lat="48.87549" lon="2.34969">
        <ele>81.3</ele>
        <time>2013-04-01T19:06:32.000Z</time>
      </trkpt>
      <trkpt lat="48.87551" lon="2.3496">
        <ele>81.1</ele>
        <time>2013-04-01T19:06:33.000Z</time>
      </trkpt>
      <trkpt lat="48.87553" lon="2.34951">
        <ele>81.6</ele>
        <time>2013-04-01T19:06:34.000Z</time>
      </trkpt>
      <trkpt lat="48.87556" lon="2.34941">
        <ele>82.2</ele>
        <time>2013-04-01T19:06:35.000Z</time>
      </trkpt>
      <trkpt lat="48.87561" lon="2.3493">
        <ele>83</ele>
        <time>2013-04-01T19:06:36.000Z</time>
      </trkpt>
      <trkpt lat="48.87566" lon="2.34921">
        <ele>82.5</ele>
        <time>2013-04-01T19:06:37.000Z</time>
      </trkpt>
      <trkpt lat="48.87566" lon="2.34914">
        <ele>82.4</ele>
        <time>2013-04-01T19:06:38.000Z</time>
      </trkpt>
      <trkpt lat="48.87566" lon="2.34907">
        <ele>81.9</ele>
        <time>2013-04-01T19:06:39.000Z</time>
      </trkpt>
      <trkpt lat="48.87568" lon="2.34898">
        <ele>82.9</ele>
        <time>2013-04-01T19:06:40.000Z</time>
      </trkpt>
      <trkpt lat="48.87569" lon="2.34891">
        <ele>82.2</ele>
        <time>2013-04-01T19:06:41.000Z</time>
      </trkpt>
      <trkpt lat="48.87569" lon="2.34885">
        <ele>82.3</ele>
        <time>2013-04-01T19:06:42.000Z</time>
      </trkpt>
      <trkpt lat="48.87569" lon="2.3488">
        <ele>81.9</ele>
        <time>2013-04-01T19:06:43.000Z</time>
      </trkpt>
      <trkpt lat="48.87569" lon="2.34874">
        <ele>82</ele>
        <time>2013-04-01T19:06:44.000Z</time>
      </trkpt>
      <trkpt lat="48.87569" lon="2.34868">
        <ele>81.3</ele>
        <time>2013-04-01T19:06:45.000Z</time>
      </trkpt>
      <trkpt lat="48.8757" lon="2.34862">
        <ele>81.9</ele>
        <time>2013-04-01T19:06:46.000Z</time>
      </trkpt>
      <trkpt lat="48.87569" lon="2.34856">
        <ele>82.2</ele>
        <time>2013-04-01T19:06:47.000Z</time>
      </trkpt>
      <trkpt lat="48.87569" lon="2.34851">
        <ele>82</ele>
        <time>2013-04-01T19:06:48.000Z</time>
      </trkpt>
      <trkpt lat="48.87569" lon="2.34846">
        <ele>82</ele>
        <time>2013-04-01T19:06:49.000Z</time>
      </trkpt>
      <trkpt lat="48.87571" lon="2.34843">
        <ele>82.9</ele>
        <time>2013-04-01T19:06:50.000Z</time>
      </trkpt>
      <trkpt lat="48.87572" lon="2.34838">
        <ele>83.6</ele>
        <time>2013-04-01T19:06:51.000Z</time>
      </trkpt>
      <trkpt lat="48.87572" lon="2.34834">
        <ele>83.7</ele>
        <time>2013-04-01T19:06:52.000Z</time>
      </trkpt>
      <trkpt lat="48.87573" lon="2.34831">
        <ele>84.1</ele>
        <time>2013-04-01T19:06:53.000Z</time>
      </trkpt>
      <trkpt lat="48.87575" lon="2.34826">
        <ele>86.7</ele>
        <time>2013-04-01T19:06:57.000Z</time>
      </trkpt>
      <trkpt lat="48.87576" lon="2.34824">
        <ele>86.8</ele>
        <time>2013-04-01T19:06:58.000Z</time>
      </trkpt>
      <trkpt lat="48.87574" lon="2.34824">
        <ele>88.5</ele>
        <time>2013-04-01T19:07:05.000Z</time>
      </trkpt>
      <trkpt lat="48.87571" lon="2.34824">
        <ele>88.4</ele>
        <time>2013-04-01T19:07:06.000Z</time>
      </trkpt>
      <trkpt lat="48.87567" lon="2.34824">
        <ele>88.2</ele>
        <time>2013-04-01T19:07:07.000Z</time>
      </trkpt>
      <trkpt lat="48.87563" lon="2.34823">
        <ele>87.5</ele>
        <time>2013-04-01T19:07:08.000Z</time>
      </trkpt>
      <trkpt lat="48.87559" lon="2.34822">
        <ele>86.3</ele>
        <time>2013-04-01T19:07:09.000Z</time>
      </trkpt>
      <trkpt lat="48.87555" lon="2.34822">
        <ele>86.2</ele>
        <time>2013-04-01T19:07:10.000Z</time>
      </trkpt>
      <trkpt lat="48.87551" lon="2.34821">
        <ele>86.4</ele>
        <time>2013-04-01T19:07:11.000Z</time>
      </trkpt>
      <trkpt lat="48.87546" lon="2.3482">
        <ele>86.2</ele>
        <time>2013-04-01T19:07:12.000Z</time>
      </trkpt>
      <trkpt lat="48.87541" lon="2.34819">
        <ele>86.3</ele>
        <time>2013-04-01T19:07:13.000Z</time>
      </trkpt>
      <trkpt lat="48.87536" lon="2.34817">
        <ele>86.3</ele>
        <time>2013-04-01T19:07:14.000Z</time>
      </trkpt>
      <trkpt lat="48.87528" lon="2.34815">
        <ele>85.7</ele>
        <time>2013-04-01T19:07:15.000Z</time>
      </trkpt>
      <trkpt lat="48.87522" lon="2.34814">
        <ele>85.5</ele>
        <time>2013-04-01T19:07:16.000Z</time>
      </trkpt>
      <trkpt lat="48.87517" lon="2.34813">
        <ele>85.3</ele>
        <time>2013-04-01T19:07:17.000Z</time>
      </trkpt>
      <trkpt lat="48.87511" lon="2.34813">
        <ele>85.3</ele>
        <time>2013-04-01T19:07:18.000Z</time>
      </trkpt>
      <trkpt lat="48.87506" lon="2.34813">
        <ele>85.3</ele>
        <time>2013-04-01T19:07:19.000Z</time>
      </trkpt>
      <trkpt lat="48.87501" lon="2.3481">
        <ele>85.5</ele>
        <time>2013-04-01T19:07:20.000Z</time>
      </trkpt>
      <trkpt lat="48.87495" lon="2.34808">
        <ele>85.4</ele>
        <time>2013-04-01T19:07:21.000Z</time>
      </trkpt>
      <trkpt lat="48.87489" lon="2.3481">
        <ele>85.6</ele>
        <time>2013-04-01T19:07:22.000Z</time>
      </trkpt>
      <trkpt lat="48.87483" lon="2.34811">
        <ele>86</ele>
        <time>2013-04-01T19:07:23.000Z</time>
      </trkpt>
      <trkpt lat="48.87477" lon="2.34812">
        <ele>85.7</ele>
        <time>2013-04-01T19:07:24.000Z</time>
      </trkpt>
      <trkpt lat="48.87471" lon="2.3481">
        <ele>86.1</ele>
        <time>2013-04-01T19:07:25.000Z</time>
      </trkpt>
      <trkpt lat="48.87465" lon="2.34811">
        <ele>85.5</ele>
        <time>2013-04-01T19:07:26.000Z</time>
      </trkpt>
      <trkpt lat="48.8746" lon="2.34811">
        <ele>85.4</ele>
        <time>2013-04-01T19:07:27.000Z</time>
      </trkpt>
      <trkpt lat="48.87453" lon="2.34809">
        <ele>85.5</ele>
        <time>2013-04-01T19:07:28.000Z</time>
      </trkpt>
      <trkpt lat="48.87449" lon="2.34808">
        <ele>85.8</ele>
        <time>2013-04-01T19:07:29.000Z</time>
      </trkpt>
      <trkpt lat="48.87443" lon="2.34812">
        <ele>86</ele>
        <time>2013-04-01T19:07:30.000Z</time>
      </trkpt>
      <trkpt lat="48.87437" lon="2.34808">
        <ele>85.9</ele>
        <time>2013-04-01T19:07:31.000Z</time>
      </trkpt>
      <trkpt lat="48.87432" lon="2.34803">
        <ele>87.4</ele>
        <time>2013-04-01T19:07:32.000Z</time>
      </trkpt>
      <trkpt lat="48.87426" lon="2.34802">
        <ele>87.1</ele>
        <time>2013-04-01T19:07:33.000Z</time>
      </trkpt>
      <trkpt lat="48.87421" lon="2.34804">
        <ele>87.3</ele>
        <time>2013-04-01T19:07:34.000Z</time>
      </trkpt>
      <trkpt lat="48.87416" lon="2.34804">
        <ele>87.7</ele>
        <time>2013-04-01T19:07:35.000Z</time>
      </trkpt>
      <trkpt lat="48.87413" lon="2.34803">
        <ele>88.2</ele>
        <time>2013-04-01T19:07:36.000Z</time>
      </trkpt>
      <trkpt lat="48.87408" lon="2.34801">
        <ele>89.3</ele>
        <time>2013-04-01T19:07:37.000Z</time>
      </trkpt>
      <trkpt lat="48.87407" lon="2.34802">
        <ele>88.7</ele>
        <time>2013-04-01T19:07:38.000Z</time>
      </trkpt>
      <trkpt lat="48.87404" lon="2.34801">
        <ele>89.3</ele>
        <time>2013-04-01T19:07:39.000Z</time>
      </trkpt>
      <trkpt lat="48.87399" lon="2.34801">
        <ele>85.4</ele>
        <time>2013-04-01T19:07:41.000Z</time>
      </trkpt>
      <trkpt lat="48.87396" lon="2.34801">
        <ele>85</ele>
        <time>2013-04-01T19:07:42.000Z</time>
      </trkpt>
      <trkpt lat="48.87393" lon="2.34801">
        <ele>85.6</ele>
        <time>2013-04-01T19:07:43.000Z</time>
      </trkpt>
      <trkpt lat="48.87388" lon="2.34801">
        <ele>86.1</ele>
        <time>2013-04-01T19:07:44.000Z</time>
      </trkpt>
      <trkpt lat="48.87383" lon="2.34802">
        <ele>86.2</ele>
        <time>2013-04-01T19:07:45.000Z</time>
      </trkpt>
      <trkpt lat="48.87378" lon="2.34803">
        <ele>86.2</ele>
        <time>2013-04-01T19:07:46.000Z</time>
      </trkpt>
      <trkpt lat="48.87372" lon="2.34804">
        <ele>86.7</ele>
        <time>2013-04-01T19:07:47.000Z</time>
      </trkpt>
      <trkpt lat="48.87365" lon="2.34804">
        <ele>86.9</ele>
        <time>2013-04-01T19:07:48.000Z</time>
      </trkpt>
      <trkpt lat="48.87359" lon="2.34804">
        <ele>87.1</ele>
        <time>2013-04-01T19:07:49.000Z</time>
      </trkpt>
      <trkpt lat="48.87355" lon="2.34804">
        <ele>87.2</ele>
        <time>2013-04-01T19:07:50.000Z</time>
      </trkpt>
      <trkpt lat="48.87349" lon="2.34803">
        <ele>87.3</ele>
        <time>2013-04-01T19:07:51.000Z</time>
      </trkpt>
      <trkpt lat="48.87342" lon="2.34805">
        <ele>87.7</ele>
        <time>2013-04-01T19:07:52.000Z</time>
      </trkpt>
      <trkpt lat="48.87338" lon="2.34808">
        <ele>87.8</ele>
        <time>2013-04-01T19:07:53.000Z</time>
      </trkpt>
      <trkpt lat="48.87332" lon="2.34808">
        <ele>87.8</ele>
        <time>2013-04-01T19:07:54.000Z</time>
      </trkpt>
      <trkpt lat="48.87329" lon="2.34805">
        <ele>88.1</ele>
        <time>2013-04-01T19:07:55.000Z</time>
      </trkpt>
      <trkpt lat="48.87323" lon="2.34805">
        <ele>87.7</ele>
        <time>2013-04-01T19:07:56.000Z</time>
      </trkpt>
      <trkpt lat="48.87319" lon="2.34804">
        <ele>88.9</ele>
        <time>2013-04-01T19:07:57.000Z</time>
      </trkpt>
      <trkpt lat="48.87315" lon="2.34803">
        <ele>89.9</ele>
        <time>2013-04-01T19:07:58.000Z</time>
      </trkpt>
      <trkpt lat="48.87309" lon="2.34802">
        <ele>90</ele>
        <time>2013-04-01T19:07:59.000Z</time>
      </trkpt>
      <trkpt lat="48.87304" lon="2.34799">
        <ele>90.2</ele>
        <time>2013-04-01T19:08:00.000Z</time>
      </trkpt>
      <trkpt lat="48.87299" lon="2.34795">
        <ele>92</ele>
        <time>2013-04-01T19:08:01.000Z</time>
      </trkpt>
      <trkpt lat="48.87294" lon="2.34794">
        <ele>92.1</ele>
        <time>2013-04-01T19:08:02.000Z</time>
      </trkpt>
      <trkpt lat="48.87289" lon="2.34794">
        <ele>91.9</ele>
        <time>2013-04-01T19:08:03.000Z</time>
      </trkpt>
      <trkpt lat="48.87284" lon="2.34794">
        <ele>92.1</ele>
        <time>2013-04-01T19:08:04.000Z</time>
      </trkpt>
      <trkpt lat="48.87279" lon="2.34796">
        <ele>91.2</ele>
        <time>2013-04-01T19:08:05.000Z</time>
      </trkpt>
      <trkpt lat="48.87274" lon="2.34795">
        <ele>91.3</ele>
        <time>2013-04-01T19:08:06.000Z</time>
      </trkpt>
      <trkpt lat="48.87268" lon="2.34798">
        <ele>92.5</ele>
        <time>2013-04-01T19:08:07.000Z</time>
      </trkpt>
      <trkpt lat="48.87264" lon="2.34797">
        <ele>92.3</ele>
        <time>2013-04-01T19:08:08.000Z</time>
      </trkpt>
      <trkpt lat="48.87258" lon="2.348">
        <ele>92.5</ele>
        <time>2013-04-01T19:08:09.000Z</time>
      </trkpt>
      <trkpt lat="48.87254" lon="2.34801">
        <ele>93.3</ele>
        <time>2013-04-01T19:08:10.000Z</time>
      </trkpt>
      <trkpt lat="48.87248" lon="2.34801">
        <ele>93.4</ele>
        <time>2013-04-01T19:08:11.000Z</time>
      </trkpt>
      <trkpt lat="48.87245" lon="2.34802">
        <ele>93.2</ele>
        <time>2013-04-01T19:08:12.000Z</time>
      </trkpt>
      <trkpt lat="48.87241" lon="2.34802">
        <ele>92.6</ele>
        <time>2013-04-01T19:08:13.000Z</time>
      </trkpt>
      <trkpt lat="48.87238" lon="2.34802">
        <ele>93.1</ele>
        <time>2013-04-01T19:08:14.000Z</time>
      </trkpt>
      <trkpt lat="48.87235" lon="2.34803">
        <ele>95.2</ele>
        <time>2013-04-01T19:08:15.000Z</time>
      </trkpt>
      <trkpt lat="48.8723" lon="2.34802">
        <ele>96.5</ele>
        <time>2013-04-01T19:08:16.000Z</time>
      </trkpt>
      <trkpt lat="48.87228" lon="2.34802">
        <ele>97.3</ele>
        <time>2013-04-01T19:08:17.000Z</time>
      </trkpt>
      <trkpt lat="48.87225" lon="2.34801">
        <ele>98</ele>
        <time>2013-04-01T19:08:18.000Z</time>
      </trkpt>
      <trkpt lat="48.87223" lon="2.34801">
        <ele>97.4</ele>
        <time>2013-04-01T19:08:19.000Z</time>
      </trkpt>
      <trkpt lat="48.8722" lon="2.34802">
        <ele>98.2</ele>
        <time>2013-04-01T19:08:20.000Z</time>
      </trkpt>
      <trkpt lat="48.87217" lon="2.34802">
        <ele>98.2</ele>
        <time>2013-04-01T19:08:21.000Z</time>
      </trkpt>
      <trkpt lat="48.87214" lon="2.34802">
        <ele>98.2</ele>
        <time>2013-04-01T19:08:22.000Z</time>
      </trkpt>
      <trkpt lat="48.8721" lon="2.34801">
        <ele>98.3</ele>
        <time>2013-04-01T19:08:23.000Z</time>
      </trkpt>
      <trkpt lat="48.87206" lon="2.34801">
        <ele>98.9</ele>
        <time>2013-04-01T19:08:24.000Z</time>
      </trkpt>
      <trkpt lat="48.87203" lon="2.34799">
        <ele>96</ele>
        <time>2013-04-01T19:08:25.000Z</time>
      </trkpt>
      <trkpt lat="48.872" lon="2.34795">
        <ele>94</ele>
        <time>2013-04-01T19:08:26.000Z</time>
      </trkpt>
      <trkpt lat="48.87198" lon="2.34789">
        <ele>93.9</ele>
        <time>2013-04-01T19:08:27.000Z</time>
      </trkpt>
      <trkpt lat="48.87196" lon="2.34783">
        <ele>93.5</ele>
        <time>2013-04-01T19:08:28.000Z</time>
      </trkpt>
      <trkpt lat="48.87194" lon="2.34777">
        <ele>92.8</ele>
        <time>2013-04-01T19:08:29.000Z</time>
      </trkpt>
      <trkpt lat="48.87192" lon="2.34772">
        <ele>92.2</ele>
        <time>2013-04-01T19:08:30.000Z</time>
      </trkpt>
      <trkpt lat="48.8719" lon="2.34765">
        <ele>91.8</ele>
        <time>2013-04-01T19:08:31.000Z</time>
      </trkpt>
      <trkpt lat="48.87188" lon="2.34758">
        <ele>91.7</ele>
        <time>2013-04-01T19:08:32.000Z</time>
      </trkpt>
      <trkpt lat="48.87188" lon="2.3475">
        <ele>91.5</ele>
        <time>2013-04-01T19:08:33.000Z</time>
      </trkpt>
      <trkpt lat="48.87188" lon="2.34742">
        <ele>91.1</ele>
        <time>2013-04-01T19:08:34.000Z</time>
      </trkpt>
      <trkpt lat="48.87188" lon="2.34734">
        <ele>91.3</ele>
        <time>2013-04-01T19:08:35.000Z</time>
      </trkpt>
      <trkpt lat="48.87189" lon="2.34727">
        <ele>91.6</ele>
        <time>2013-04-01T19:08:36.000Z</time>
      </trkpt>
      <trkpt lat="48.87191" lon="2.34719">
        <ele>91.1</ele>
        <time>2013-04-01T19:08:37.000Z</time>
      </trkpt>
      <trkpt lat="48.87194" lon="2.34711">
        <ele>91.7</ele>
        <time>2013-04-01T19:08:38.000Z</time>
      </trkpt>
      <trkpt lat="48.87196" lon="2.34703">
        <ele>90.5</ele>
        <time>2013-04-01T19:08:39.000Z</time>
      </trkpt>
      <trkpt lat="48.87198" lon="2.34695">
        <ele>90.4</ele>
        <time>2013-04-01T19:08:40.000Z</time>
      </trkpt>
      <trkpt lat="48.872" lon="2.34687">
        <ele>91.4</ele>
        <time>2013-04-01T19:08:41.000Z</time>
      </trkpt>
      <trkpt lat="48.87201" lon="2.34679">
        <ele>91.1</ele>
        <time>2013-04-01T19:08:42.000Z</time>
      </trkpt>
      <trkpt lat="48.87202" lon="2.34671">
        <ele>90.8</ele>
        <time>2013-04-01T19:08:43.000Z</time>
      </trkpt>
      <trkpt lat="48.87204" lon="2.34664">
        <ele>90.5</ele>
        <time>2013-04-01T19:08:44.000Z</time>
      </trkpt>
      <trkpt lat="48.87205" lon="2.34656">
        <ele>90.5</ele>
        <time>2013-04-01T19:08:45.000Z</time>
      </trkpt>
      <trkpt lat="48.87206" lon="2.34649">
        <ele>90.1</ele>
        <time>2013-04-01T19:08:46.000Z</time>
      </trkpt>
      <trkpt lat="48.87207" lon="2.34641">
        <ele>90.2</ele>
        <time>2013-04-01T19:08:47.000Z</time>
      </trkpt>
      <trkpt lat="48.87209" lon="2.34634">
        <ele>90.4</ele>
        <time>2013-04-01T19:08:48.000Z</time>
      </trkpt>
      <trkpt lat="48.87209" lon="2.34628">
        <ele>89.4</ele>
        <time>2013-04-01T19:08:49.000Z</time>
      </trkpt>
      <trkpt lat="48.87211" lon="2.34621">
        <ele>87.4</ele>
        <time>2013-04-01T19:08:50.000Z</time>
      </trkpt>
      <trkpt lat="48.87214" lon="2.34614">
        <ele>85.8</ele>
        <time>2013-04-01T19:08:51.000Z</time>
      </trkpt>
      <trkpt lat="48.87217" lon="2.34607">
        <ele>86.9</ele>
        <time>2013-04-01T19:08:52.000Z</time>
      </trkpt>
      <trkpt lat="48.8722" lon="2.346">
        <ele>86.2</ele>
        <time>2013-04-01T19:08:53.000Z</time>
      </trkpt>
      <trkpt lat="48.87222" lon="2.34594">
        <ele>86.2</ele>
        <time>2013-04-01T19:08:54.000Z</time>
      </trkpt>
      <trkpt lat="48.87224" lon="2.34587">
        <ele>85.9</ele>
        <time>2013-04-01T19:08:55.000Z</time>
      </trkpt>
      <trkpt lat="48.87226" lon="2.3458">
        <ele>85.2</ele>
        <time>2013-04-01T19:08:56.000Z</time>
      </trkpt>
      <trkpt lat="48.87228" lon="2.34573">
        <ele>84.9</ele>
        <time>2013-04-01T19:08:57.000Z</time>
      </trkpt>
      <trkpt lat="48.87232" lon="2.34561">
        <ele>84.5</ele>
        <time>2013-04-01T19:08:58.000Z</time>
      </trkpt>
      <trkpt lat="48.87232" lon="2.34555">
        <ele>84.9</ele>
        <time>2013-04-01T19:08:59.000Z</time>
      </trkpt>
      <trkpt lat="48.87234" lon="2.34547">
        <ele>89.2</ele>
        <time>2013-04-01T19:09:00.000Z</time>
      </trkpt>
      <trkpt lat="48.87235" lon="2.3454">
        <ele>87.7</ele>
        <time>2013-04-01T19:09:01.000Z</time>
      </trkpt>
      <trkpt lat="48.87237" lon="2.34532">
        <ele>87.1</ele>
        <time>2013-04-01T19:09:02.000Z</time>
      </trkpt>
      <trkpt lat="48.87237" lon="2.34525">
        <ele>86.3</ele>
        <time>2013-04-01T19:09:03.000Z</time>
      </trkpt>
      <trkpt lat="48.87238" lon="2.34518">
        <ele>85.8</ele>
        <time>2013-04-01T19:09:04.000Z</time>
      </trkpt>
      <trkpt lat="48.87237" lon="2.34513">
        <ele>85.3</ele>
        <time>2013-04-01T19:09:05.000Z</time>
      </trkpt>
      <trkpt lat="48.87237" lon="2.34505">
        <ele>85.2</ele>
        <time>2013-04-01T19:09:06.000Z</time>
      </trkpt>
      <trkpt lat="48.87238" lon="2.34498">
        <ele>85.1</ele>
        <time>2013-04-01T19:09:07.000Z</time>
      </trkpt>
      <trkpt lat="48.87237" lon="2.34494">
        <ele>83.5</ele>
        <time>2013-04-01T19:09:08.000Z</time>
      </trkpt>
      <trkpt lat="48.87241" lon="2.34489">
        <ele>82.3</ele>
        <time>2013-04-01T19:09:09.000Z</time>
      </trkpt>
      <trkpt lat="48.87242" lon="2.34484">
        <ele>81.3</ele>
        <time>2013-04-01T19:09:10.000Z</time>
      </trkpt>
      <trkpt lat="48.87243" lon="2.34479">
        <ele>80.6</ele>
        <time>2013-04-01T19:09:11.000Z</time>
      </trkpt>
      <trkpt lat="48.87244" lon="2.34471">
        <ele>80.7</ele>
        <time>2013-04-01T19:09:12.000Z</time>
      </trkpt>
      <trkpt lat="48.87244" lon="2.34465">
        <ele>84.1</ele>
        <time>2013-04-01T19:09:13.000Z</time>
      </trkpt>
      <trkpt lat="48.87245" lon="2.34459">
        <ele>82.7</ele>
        <time>2013-04-01T19:09:14.000Z</time>
      </trkpt>
      <trkpt lat="48.87247" lon="2.34452">
        <ele>81.5</ele>
        <time>2013-04-01T19:09:15.000Z</time>
      </trkpt>
      <trkpt lat="48.87248" lon="2.34445">
        <ele>80.9</ele>
        <time>2013-04-01T19:09:16.000Z</time>
      </trkpt>
      <trkpt lat="48.8725" lon="2.34436">
        <ele>80.5</ele>
        <time>2013-04-01T19:09:17.000Z</time>
      </trkpt>
      <trkpt lat="48.87251" lon="2.34428">
        <ele>80.1</ele>
        <time>2013-04-01T19:09:18.000Z</time>
      </trkpt>
      <trkpt lat="48.87252" lon="2.3442">
        <ele>79.5</ele>
        <time>2013-04-01T19:09:19.000Z</time>
      </trkpt>
      <trkpt lat="48.87254" lon="2.34411">
        <ele>79</ele>
        <time>2013-04-01T19:09:20.000Z</time>
      </trkpt>
      <trkpt lat="48.87255" lon="2.34403">
        <ele>78.9</ele>
        <time>2013-04-01T19:09:21.000Z</time>
      </trkpt>
      <trkpt lat="48.87256" lon="2.34395">
        <ele>78.6</ele>
        <time>2013-04-01T19:09:22.000Z</time>
      </trkpt>
      <trkpt lat="48.87257" lon="2.34386">
        <ele>78.3</ele>
        <time>2013-04-01T19:09:23.000Z</time>
      </trkpt>
      <trkpt lat="48.87259" lon="2.34378">
        <ele>78.4</ele>
        <time>2013-04-01T19:09:24.000Z</time>
      </trkpt>
      <trkpt lat="48.87261" lon="2.34368">
        <ele>79.4</ele>
        <time>2013-04-01T19:09:25.000Z</time>
      </trkpt>
      <trkpt lat="48.87261" lon="2.34361">
        <ele>80.1</ele>
        <time>2013-04-01T19:09:26.000Z</time>
      </trkpt>
      <trkpt lat="48.87261" lon="2.34353">
        <ele>81.6</ele>
        <time>2013-04-01T19:09:27.000Z</time>
      </trkpt>
      <trkpt lat="48.87263" lon="2.34345">
        <ele>81.6</ele>
        <time>2013-04-01T19:09:28.000Z</time>
      </trkpt>
      <trkpt lat="48.87266" lon="2.34337">
        <ele>83.5</ele>
        <time>2013-04-01T19:09:29.000Z</time>
      </trkpt>
      <trkpt lat="48.87265" lon="2.3433">
        <ele>84.9</ele>
        <time>2013-04-01T19:09:30.000Z</time>
      </trkpt>
      <trkpt lat="48.87266" lon="2.34325">
        <ele>85.3</ele>
        <time>2013-04-01T19:09:31.000Z</time>
      </trkpt>
      <trkpt lat="48.87268" lon="2.34319">
        <ele>86.2</ele>
        <time>2013-04-01T19:09:32.000Z</time>
      </trkpt>
      <trkpt lat="48.87272" lon="2.34313">
        <ele>87</ele>
        <time>2013-04-01T19:09:33.000Z</time>
      </trkpt>
      <trkpt lat="48.87275" lon="2.3431">
        <ele>87.1</ele>
        <time>2013-04-01T19:09:34.000Z</time>
      </trkpt>
      <trkpt lat="48.87278" lon="2.34309">
        <ele>87</ele>
        <time>2013-04-01T19:09:35.000Z</time>
      </trkpt>
      <trkpt lat="48.87282" lon="2.3431">
        <ele>87.6</ele>
        <time>2013-04-01T19:09:36.000Z</time>
      </trkpt>
      <trkpt lat="48.87289" lon="2.34307">
        <ele>87.9</ele>
        <time>2013-04-01T19:09:37.000Z</time>
      </trkpt>
      <trkpt lat="48.87292" lon="2.34305">
        <ele>88.1</ele>
        <time>2013-04-01T19:09:38.000Z</time>
      </trkpt>
      <trkpt lat="48.87296" lon="2.34304">
        <ele>87.3</ele>
        <time>2013-04-01T19:09:39.000Z</time>
      </trkpt>
      <trkpt lat="48.87297" lon="2.34298">
        <ele>85.9</ele>
        <time>2013-04-01T19:09:40.000Z</time>
      </trkpt>
      <trkpt lat="48.87298" lon="2.34292">
        <ele>86.1</ele>
        <time>2013-04-01T19:09:41.000Z</time>
      </trkpt>
      <trkpt lat="48.87299" lon="2.34286">
        <ele>85.4</ele>
        <time>2013-04-01T19:09:42.000Z</time>
      </trkpt>
      <trkpt lat="48.873" lon="2.3428">
        <ele>85.1</ele>
        <time>2013-04-01T19:09:43.000Z</time>
      </trkpt>
      <trkpt lat="48.87302" lon="2.34274">
        <ele>84.3</ele>
        <time>2013-04-01T19:09:44.000Z</time>
      </trkpt>
      <trkpt lat="48.87303" lon="2.34265">
        <ele>83.9</ele>
        <time>2013-04-01T19:09:45.000Z</time>
      </trkpt>
      <trkpt lat="48.87303" lon="2.34258">
        <ele>83.2</ele>
        <time>2013-04-01T19:09:46.000Z</time>
      </trkpt>
      <trkpt lat="48.87304" lon="2.3425">
        <ele>83</ele>
        <time>2013-04-01T19:09:47.000Z</time>
      </trkpt>
      <trkpt lat="48.87305" lon="2.34243">
        <ele>82.7</ele>
        <time>2013-04-01T19:09:48.000Z</time>
      </trkpt>
      <trkpt lat="48.87305" lon="2.34236">
        <ele>81.9</ele>
        <time>2013-04-01T19:09:49.000Z</time>
      </trkpt>
      <trkpt lat="48.87307" lon="2.34229">
        <ele>81.7</ele>
        <time>2013-04-01T19:09:50.000Z</time>
      </trkpt>
      <trkpt lat="48.87307" lon="2.34221">
        <ele>81.9</ele>
        <time>2013-04-01T19:09:51.000Z</time>
      </trkpt>
      <trkpt lat="48.8731" lon="2.34213">
        <ele>81.5</ele>
        <time>2013-04-01T19:09:52.000Z</time>
      </trkpt>
      <trkpt lat="48.87312" lon="2.34206">
        <ele>81.4</ele>
        <time>2013-04-01T19:09:53.000Z</time>
      </trkpt>
      <trkpt lat="48.87313" lon="2.34198">
        <ele>81</ele>
        <time>2013-04-01T19:09:54.000Z</time>
      </trkpt>
      <trkpt lat="48.87314" lon="2.34191">
        <ele>80.7</ele>
        <time>2013-04-01T19:09:55.000Z</time>
      </trkpt>
      <trkpt lat="48.87315" lon="2.34182">
        <ele>81.2</ele>
        <time>2013-04-01T19:09:56.000Z</time>
      </trkpt>
      <trkpt lat="48.87307" lon="2.34178">
        <ele>83.4</ele>
        <time>2013-04-01T19:09:57.000Z</time>
      </trkpt>
      <trkpt lat="48.87307" lon="2.34172">
        <ele>84.1</ele>
        <time>2013-04-01T19:09:58.000Z</time>
      </trkpt>
      <trkpt lat="48.87306" lon="2.34167">
        <ele>84.5</ele>
        <time>2013-04-01T19:09:59.000Z</time>
      </trkpt>
      <trkpt lat="48.87307" lon="2.34158">
        <ele>84.7</ele>
        <time>2013-04-01T19:10:00.000Z</time>
      </trkpt>
      <trkpt lat="48.87309" lon="2.34148">
        <ele>85.6</ele>
        <time>2013-04-01T19:10:01.000Z</time>
      </trkpt>
      <trkpt lat="48.87311" lon="2.34141">
        <ele>84.8</ele>
        <time>2013-04-01T19:10:02.000Z</time>
      </trkpt>
      <trkpt lat="48.87309" lon="2.34133">
        <ele>84.5</ele>
        <time>2013-04-01T19:10:03.000Z</time>
      </trkpt>
      <trkpt lat="48.87309" lon="2.34125">
        <ele>84</ele>
        <time>2013-04-01T19:10:04.000Z</time>
      </trkpt>
      <trkpt lat="48.87312" lon="2.34117">
        <ele>83.8</ele>
        <time>2013-04-01T19:10:05.000Z</time>
      </trkpt>
      <trkpt lat="48.87312" lon="2.3411">
        <ele>83.8</ele>
        <time>2013-04-01T19:10:06.000Z</time>
      </trkpt>
      <trkpt lat="48.87313" lon="2.34103">
        <ele>83.7</ele>
        <time>2013-04-01T19:10:07.000Z</time>
      </trkpt>
      <trkpt lat="48.87322" lon="2.34095">
        <ele>80.9</ele>
        <time>2013-04-01T19:10:08.000Z</time>
      </trkpt>
      <trkpt lat="48.87322" lon="2.34089">
        <ele>79.8</ele>
        <time>2013-04-01T19:10:09.000Z</time>
      </trkpt>
      <trkpt lat="48.87324" lon="2.34083">
        <ele>79.3</ele>
        <time>2013-04-01T19:10:10.000Z</time>
      </trkpt>
      <trkpt lat="48.87325" lon="2.3408">
        <ele>77.2</ele>
        <time>2013-04-01T19:10:11.000Z</time>
      </trkpt>
      <trkpt lat="48.87326" lon="2.34077">
        <ele>77.6</ele>
        <time>2013-04-01T19:10:12.000Z</time>
      </trkpt>
      <trkpt lat="48.87323" lon="2.34073">
        <ele>77.5</ele>
        <time>2013-04-01T19:10:13.000Z</time>
      </trkpt>
      <trkpt lat="48.87323" lon="2.34068">
        <ele>77.3</ele>
        <time>2013-04-01T19:10:14.000Z</time>
      </trkpt>
      <trkpt lat="48.87322" lon="2.34064">
        <ele>78.9</ele>
        <time>2013-04-01T19:10:15.000Z</time>
      </trkpt>
      <trkpt lat="48.87319" lon="2.3406">
        <ele>79.1</ele>
        <time>2013-04-01T19:10:16.000Z</time>
      </trkpt>
      <trkpt lat="48.87317" lon="2.34058">
        <ele>78.9</ele>
        <time>2013-04-01T19:10:17.000Z</time>
      </trkpt>
      <trkpt lat="48.87312" lon="2.34057">
        <ele>78.4</ele>
        <time>2013-04-01T19:10:18.000Z</time>
      </trkpt>
      <trkpt lat="48.87308" lon="2.34057">
        <ele>78</ele>
        <time>2013-04-01T19:10:19.000Z</time>
      </trkpt>
      <trkpt lat="48.87303" lon="2.34057">
        <ele>77.6</ele>
        <time>2013-04-01T19:10:20.000Z</time>
      </trkpt>
      <trkpt lat="48.87299" lon="2.34056">
        <ele>77.6</ele>
        <time>2013-04-01T19:10:21.000Z</time>
      </trkpt>
      <trkpt lat="48.87295" lon="2.34055">
        <ele>78.7</ele>
        <time>2013-04-01T19:10:22.000Z</time>
      </trkpt>
      <trkpt lat="48.87291" lon="2.34053">
        <ele>79.4</ele>
        <time>2013-04-01T19:10:23.000Z</time>
      </trkpt>
      <trkpt lat="48.87287" lon="2.3405">
        <ele>78.3</ele>
        <time>2013-04-01T19:10:24.000Z</time>
      </trkpt>
      <trkpt lat="48.87283" lon="2.34045">
        <ele>78.5</ele>
        <time>2013-04-01T19:10:25.000Z</time>
      </trkpt>
      <trkpt lat="48.87281" lon="2.34039">
        <ele>78.9</ele>
        <time>2013-04-01T19:10:26.000Z</time>
      </trkpt>
      <trkpt lat="48.87279" lon="2.34032">
        <ele>78.1</ele>
        <time>2013-04-01T19:10:27.000Z</time>
      </trkpt>
      <trkpt lat="48.87278" lon="2.34026">
        <ele>78.2</ele>
        <time>2013-04-01T19:10:28.000Z</time>
      </trkpt>
      <trkpt lat="48.87277" lon="2.34019">
        <ele>78.2</ele>
        <time>2013-04-01T19:10:29.000Z</time>
      </trkpt>
      <trkpt lat="48.87277" lon="2.34014">
        <ele>78.3</ele>
        <time>2013-04-01T19:10:30.000Z</time>
      </trkpt>
      <trkpt lat="48.87278" lon="2.34008">
        <ele>79.9</ele>
        <time>2013-04-01T19:10:31.000Z</time>
      </trkpt>
      <trkpt lat="48.87279" lon="2.34001">
        <ele>81.8</ele>
        <time>2013-04-01T19:10:32.000Z</time>
      </trkpt>
      <trkpt lat="48.8728" lon="2.33995">
        <ele>83</ele>
        <time>2013-04-01T19:10:33.000Z</time>
      </trkpt>
      <trkpt lat="48.87281" lon="2.33989">
        <ele>84.6</ele>
        <time>2013-04-01T19:10:34.000Z</time>
      </trkpt>
      <trkpt lat="48.87283" lon="2.33983">
        <ele>85.7</ele>
        <time>2013-04-01T19:10:35.000Z</time>
      </trkpt>
      <trkpt lat="48.87287" lon="2.33972">
        <ele>86.6</ele>
        <time>2013-04-01T19:10:37.235Z</time>
      </trkpt>
      <trkpt lat="48.87289" lon="2.33968">
        <ele>86.5</ele>
        <time>2013-04-01T19:10:38.000Z</time>
      </trkpt>
      <trkpt lat="48.87291" lon="2.33964">
        <ele>86.8</ele>
        <time>2013-04-01T19:10:39.000Z</time>
      </trkpt>
      <trkpt lat="48.87293" lon="2.3396">
        <ele>86.5</ele>
        <time>2013-04-01T19:10:40.000Z</time>
      </trkpt>
      <trkpt lat="48.87295" lon="2.33957">
        <ele>86.9</ele>
        <time>2013-04-01T19:10:41.000Z</time>
      </trkpt>
      <trkpt lat="48.87297" lon="2.33954">
        <ele>86.9</ele>
        <time>2013-04-01T19:10:42.000Z</time>
      </trkpt>
      <trkpt lat="48.87299" lon="2.33951">
        <ele>87.6</ele>
        <time>2013-04-01T19:10:43.000Z</time>
      </trkpt>
      <trkpt lat="48.87302" lon="2.33949">
        <ele>87.8</ele>
        <time>2013-04-01T19:10:44.000Z</time>
      </trkpt>
      <trkpt lat="48.87303" lon="2.33945">
        <ele>87.3</ele>
        <time>2013-04-01T19:10:45.000Z</time>
      </trkpt>
      <trkpt lat="48.87304" lon="2.33942">
        <ele>86</ele>
        <time>2013-04-01T19:10:46.000Z</time>
      </trkpt>
      <trkpt lat="48.87305" lon="2.33938">
        <ele>86.2</ele>
        <time>2013-04-01T19:10:47.000Z</time>
      </trkpt>
      <trkpt lat="48.87306" lon="2.33933">
        <ele>86.7</ele>
        <time>2013-04-01T19:10:48.000Z</time>
      </trkpt>
      <trkpt lat="48.87307" lon="2.33928">
        <ele>86.8</ele>
        <time>2013-04-01T19:10:49.000Z</time>
      </trkpt>
      <trkpt lat="48.87308" lon="2.33923">
        <ele>87.1</ele>
        <time>2013-04-01T19:10:50.000Z</time>
      </trkpt>
      <trkpt lat="48.87309" lon="2.33918">
        <ele>87.1</ele>
        <time>2013-04-01T19:10:51.000Z</time>
      </trkpt>
      <trkpt lat="48.8731" lon="2.33913">
        <ele>87.3</ele>
        <time>2013-04-01T19:10:52.000Z</time>
      </trkpt>
      <trkpt lat="48.87311" lon="2.33909">
        <ele>86.9</ele>
        <time>2013-04-01T19:10:53.000Z</time>
      </trkpt>
      <trkpt lat="48.87311" lon="2.33904">
        <ele>86.8</ele>
        <time>2013-04-01T19:10:54.000Z</time>
      </trkpt>
      <trkpt lat="48.87312" lon="2.339">
        <ele>86.6</ele>
        <time>2013-04-01T19:10:55.000Z</time>
      </trkpt>
      <trkpt lat="48.87312" lon="2.33895">
        <ele>87.4</ele>
        <time>2013-04-01T19:10:56.000Z</time>
      </trkpt>
      <trkpt lat="48.87312" lon="2.33892">
        <ele>85.2</ele>
        <time>2013-04-01T19:10:57.000Z</time>
      </trkpt>
      <trkpt lat="48.87314" lon="2.33889">
        <ele>85.1</ele>
        <time>2013-04-01T19:10:58.000Z</time>
      </trkpt>
      <trkpt lat="48.87315" lon="2.33886">
        <ele>85.1</ele>
        <time>2013-04-01T19:10:59.000Z</time>
      </trkpt>
      <trkpt lat="48.87315" lon="2.33881">
        <ele>85.8</ele>
        <time>2013-04-01T19:11:01.000Z</time>
      </trkpt>
      <trkpt lat="48.87315" lon="2.33879">
        <ele>86</ele>
        <time>2013-04-01T19:11:02.000Z</time>
      </trkpt>
      <trkpt lat="48.87311" lon="2.33876">
        <ele>85.7</ele>
        <time>2013-04-01T19:11:04.000Z</time>
      </trkpt>
      <trkpt lat="48.87309" lon="2.33874">
        <ele>85.8</ele>
        <time>2013-04-01T19:11:05.000Z</time>
      </trkpt>
      <trkpt lat="48.87305" lon="2.33872">
        <ele>85.7</ele>
        <time>2013-04-01T19:11:06.000Z</time>
      </trkpt>
      <trkpt lat="48.87302" lon="2.3387">
        <ele>85.8</ele>
        <time>2013-04-01T19:11:07.000Z</time>
      </trkpt>
      <trkpt lat="48.87298" lon="2.33869">
        <ele>86.8</ele>
        <time>2013-04-01T19:11:08.000Z</time>
      </trkpt>
      <trkpt lat="48.87293" lon="2.33868">
        <ele>86.9</ele>
        <time>2013-04-01T19:11:09.000Z</time>
      </trkpt>
      <trkpt lat="48.87289" lon="2.33867">
        <ele>86.9</ele>
        <time>2013-04-01T19:11:10.000Z</time>
      </trkpt>
      <trkpt lat="48.87285" lon="2.33865">
        <ele>87.2</ele>
        <time>2013-04-01T19:11:11.000Z</time>
      </trkpt>
      <trkpt lat="48.87281" lon="2.33864">
        <ele>87.3</ele>
        <time>2013-04-01T19:11:12.000Z</time>
      </trkpt>
      <trkpt lat="48.87277" lon="2.33863">
        <ele>87.1</ele>
        <time>2013-04-01T19:11:13.000Z</time>
      </trkpt>
      <trkpt lat="48.87273" lon="2.33862">
        <ele>87.1</ele>
        <time>2013-04-01T19:11:14.000Z</time>
      </trkpt>
      <trkpt lat="48.87269" lon="2.3386">
        <ele>87.8</ele>
        <time>2013-04-01T19:11:15.000Z</time>
      </trkpt>
      <trkpt lat="48.87265" lon="2.33859">
        <ele>88.3</ele>
        <time>2013-04-01T19:11:16.000Z</time>
      </trkpt>
      <trkpt lat="48.87261" lon="2.33858">
        <ele>88.1</ele>
        <time>2013-04-01T19:11:17.000Z</time>
      </trkpt>
      <trkpt lat="48.87257" lon="2.33856">
        <ele>88.3</ele>
        <time>2013-04-01T19:11:18.000Z</time>
      </trkpt>
      <trkpt lat="48.87254" lon="2.33855">
        <ele>88.6</ele>
        <time>2013-04-01T19:11:19.000Z</time>
      </trkpt>
      <trkpt lat="48.8725" lon="2.33853">
        <ele>88.6</ele>
        <time>2013-04-01T19:11:20.000Z</time>
      </trkpt>
      <trkpt lat="48.87246" lon="2.33851">
        <ele>88.3</ele>
        <time>2013-04-01T19:11:21.000Z</time>
      </trkpt>
      <trkpt lat="48.87243" lon="2.3385">
        <ele>88</ele>
        <time>2013-04-01T19:11:22.000Z</time>
      </trkpt>
      <trkpt lat="48.87239" lon="2.33849">
        <ele>86.7</ele>
        <time>2013-04-01T19:11:23.000Z</time>
      </trkpt>
      <trkpt lat="48.87236" lon="2.33847">
        <ele>86.6</ele>
        <time>2013-04-01T19:11:24.000Z</time>
      </trkpt>
      <trkpt lat="48.87233" lon="2.33846">
        <ele>86.7</ele>
        <time>2013-04-01T19:11:25.000Z</time>
      </trkpt>
      <trkpt lat="48.87229" lon="2.33844">
        <ele>86.9</ele>
        <time>2013-04-01T19:11:26.000Z</time>
      </trkpt>
      <trkpt lat="48.87226" lon="2.33841">
        <ele>90.3</ele>
        <time>2013-04-01T19:11:27.000Z</time>
      </trkpt>
      <trkpt lat="48.87223" lon="2.33837">
        <ele>92.4</ele>
        <time>2013-04-01T19:11:28.000Z</time>
      </trkpt>
      <trkpt lat="48.8722" lon="2.33832">
        <ele>92.1</ele>
        <time>2013-04-01T19:11:29.000Z</time>
      </trkpt>
      <trkpt lat="48.87219" lon="2.33826">
        <ele>92.8</ele>
        <time>2013-04-01T19:11:30.000Z</time>
      </trkpt>
      <trkpt lat="48.87219" lon="2.3382">
        <ele>92.9</ele>
        <time>2013-04-01T19:11:31.000Z</time>
      </trkpt>
      <trkpt lat="48.87219" lon="2.33814">
        <ele>93</ele>
        <time>2013-04-01T19:11:32.000Z</time>
      </trkpt>
      <trkpt lat="48.87219" lon="2.33807">
        <ele>93.1</ele>
        <time>2013-04-01T19:11:33.000Z</time>
      </trkpt>
      <trkpt lat="48.87219" lon="2.338">
        <ele>92.6</ele>
        <time>2013-04-01T19:11:34.000Z</time>
      </trkpt>
      <trkpt lat="48.87219" lon="2.33794">
        <ele>92.5</ele>
        <time>2013-04-01T19:11:35.000Z</time>
      </trkpt>
      <trkpt lat="48.87221" lon="2.33788">
        <ele>92</ele>
        <time>2013-04-01T19:11:36.000Z</time>
      </trkpt>
      <trkpt lat="48.87222" lon="2.33781">
        <ele>91.8</ele>
        <time>2013-04-01T19:11:37.000Z</time>
      </trkpt>
      <trkpt lat="48.87224" lon="2.33775">
        <ele>91.1</ele>
        <time>2013-04-01T19:11:38.000Z</time>
      </trkpt>
      <trkpt lat="48.87226" lon="2.3377">
        <ele>90.3</ele>
        <time>2013-04-01T19:11:39.000Z</time>
      </trkpt>
      <trkpt lat="48.87227" lon="2.33765">
        <ele>89.9</ele>
        <time>2013-04-01T19:11:40.000Z</time>
      </trkpt>
      <trkpt lat="48.87227" lon="2.33761">
        <ele>89.6</ele>
        <time>2013-04-01T19:11:41.000Z</time>
      </trkpt>
      <trkpt lat="48.87227" lon="2.33756">
        <ele>92.4</ele>
        <time>2013-04-01T19:11:43.000Z</time>
      </trkpt>
      <trkpt lat="48.87227" lon="2.33755">
        <ele>91.6</ele>
        <time>2013-04-01T19:11:44.000Z</time>
      </trkpt>
      <trkpt lat="48.8723" lon="2.33751">
        <ele>91</ele>
        <time>2013-04-01T19:11:47.000Z</time>
      </trkpt>
      <trkpt lat="48.87231" lon="2.33748">
        <ele>90</ele>
        <time>2013-04-01T19:11:48.000Z</time>
      </trkpt>
      <trkpt lat="48.87233" lon="2.33742">
        <ele>89.9</ele>
        <time>2013-04-01T19:11:49.000Z</time>
      </trkpt>
      <trkpt lat="48.87235" lon="2.33736">
        <ele>89.2</ele>
        <time>2013-04-01T19:11:50.000Z</time>
      </trkpt>
      <trkpt lat="48.87236" lon="2.33731">
        <ele>88.7</ele>
        <time>2013-04-01T19:11:51.000Z</time>
      </trkpt>
      <trkpt lat="48.87238" lon="2.33725">
        <ele>88.2</ele>
        <time>2013-04-01T19:11:52.000Z</time>
      </trkpt>
      <trkpt lat="48.87239" lon="2.33718">
        <ele>87.9</ele>
        <time>2013-04-01T19:11:53.000Z</time>
      </trkpt>
      <trkpt lat="48.87241" lon="2.33712">
        <ele>87.8</ele>
        <time>2013-04-01T19:11:54.000Z</time>
      </trkpt>
      <trkpt lat="48.87242" lon="2.33705">
        <ele>88.2</ele>
        <time>2013-04-01T19:11:55.000Z</time>
      </trkpt>
      <trkpt lat="48.87243" lon="2.33699">
        <ele>87.6</ele>
        <time>2013-04-01T19:11:56.000Z</time>
      </trkpt>
      <trkpt lat="48.87243" lon="2.33692">
        <ele>87.8</ele>
        <time>2013-04-01T19:11:57.000Z</time>
      </trkpt>
      <trkpt lat="48.87244" lon="2.33686">
        <ele>87.5</ele>
        <time>2013-04-01T19:11:58.000Z</time>
      </trkpt>
      <trkpt lat="48.87245" lon="2.3368">
        <ele>86.7</ele>
        <time>2013-04-01T19:11:59.000Z</time>
      </trkpt>
      <trkpt lat="48.87246" lon="2.33673">
        <ele>86.8</ele>
        <time>2013-04-01T19:12:00.000Z</time>
      </trkpt>
      <trkpt lat="48.87247" lon="2.33666">
        <ele>88.3</ele>
        <time>2013-04-01T19:12:01.000Z</time>
      </trkpt>
      <trkpt lat="48.87247" lon="2.33655">
        <ele>88.4</ele>
        <time>2013-04-01T19:12:02.000Z</time>
      </trkpt>
      <trkpt lat="48.87248" lon="2.33649">
        <ele>88.3</ele>
        <time>2013-04-01T19:12:03.000Z</time>
      </trkpt>
      <trkpt lat="48.87248" lon="2.33641">
        <ele>88.6</ele>
        <time>2013-04-01T19:12:04.000Z</time>
      </trkpt>
      <trkpt lat="48.8725" lon="2.33633">
        <ele>88.8</ele>
        <time>2013-04-01T19:12:05.000Z</time>
      </trkpt>
      <trkpt lat="48.8725" lon="2.33626">
        <ele>88.9</ele>
        <time>2013-04-01T19:12:06.000Z</time>
      </trkpt>
      <trkpt lat="48.87252" lon="2.33619">
        <ele>88</ele>
        <time>2013-04-01T19:12:07.000Z</time>
      </trkpt>
      <trkpt lat="48.87256" lon="2.33612">
        <ele>87.5</ele>
        <time>2013-04-01T19:12:08.000Z</time>
      </trkpt>
      <trkpt lat="48.8726" lon="2.33602">
        <ele>87.6</ele>
        <time>2013-04-01T19:12:09.000Z</time>
      </trkpt>
      <trkpt lat="48.87261" lon="2.33594">
        <ele>87.5</ele>
        <time>2013-04-01T19:12:10.000Z</time>
      </trkpt>
      <trkpt lat="48.87262" lon="2.33586">
        <ele>87.5</ele>
        <time>2013-04-01T19:12:11.000Z</time>
      </trkpt>
      <trkpt lat="48.87263" lon="2.33578">
        <ele>87</ele>
        <time>2013-04-01T19:12:12.000Z</time>
      </trkpt>
      <trkpt lat="48.87263" lon="2.33571">
        <ele>87.2</ele>
        <time>2013-04-01T19:12:13.000Z</time>
      </trkpt>
      <trkpt lat="48.87263" lon="2.33563">
        <ele>88</ele>
        <time>2013-04-01T19:12:14.000Z</time>
      </trkpt>
      <trkpt lat="48.87264" lon="2.33555">
        <ele>89</ele>
        <time>2013-04-01T19:12:15.000Z</time>
      </trkpt>
      <trkpt lat="48.87264" lon="2.33548">
        <ele>89.3</ele>
        <time>2013-04-01T19:12:16.000Z</time>
      </trkpt>
      <trkpt lat="48.87265" lon="2.33541">
        <ele>89.1</ele>
        <time>2013-04-01T19:12:17.000Z</time>
      </trkpt>
      <trkpt lat="48.87265" lon="2.33533">
        <ele>89.8</ele>
        <time>2013-04-01T19:12:18.000Z</time>
      </trkpt>
      <trkpt lat="48.87269" lon="2.33523">
        <ele>89.6</ele>
        <time>2013-04-01T19:12:19.000Z</time>
      </trkpt>
      <trkpt lat="48.8727" lon="2.33515">
        <ele>88.4</ele>
        <time>2013-04-01T19:12:20.000Z</time>
      </trkpt>
      <trkpt lat="48.87272" lon="2.33507">
        <ele>88.5</ele>
        <time>2013-04-01T19:12:21.000Z</time>
      </trkpt>
      <trkpt lat="48.87273" lon="2.33499">
        <ele>89</ele>
        <time>2013-04-01T19:12:22.000Z</time>
      </trkpt>
      <trkpt lat="48.87274" lon="2.33492">
        <ele>88.4</ele>
        <time>2013-04-01T19:12:23.000Z</time>
      </trkpt>
      <trkpt lat="48.87275" lon="2.33484">
        <ele>89</ele>
        <time>2013-04-01T19:12:24.000Z</time>
      </trkpt>
      <trkpt lat="48.87275" lon="2.33477">
        <ele>89.2</ele>
        <time>2013-04-01T19:12:25.000Z</time>
      </trkpt>
      <trkpt lat="48.87276" lon="2.33469">
        <ele>88.4</ele>
        <time>2013-04-01T19:12:26.000Z</time>
      </trkpt>
      <trkpt lat="48.87278" lon="2.33462">
        <ele>88.1</ele>
        <time>2013-04-01T19:12:27.000Z</time>
      </trkpt>
      <trkpt lat="48.8728" lon="2.33455">
        <ele>88.2</ele>
        <time>2013-04-01T19:12:28.000Z</time>
      </trkpt>
      <trkpt lat="48.87281" lon="2.33446">
        <ele>88.2</ele>
        <time>2013-04-01T19:12:29.000Z</time>
      </trkpt>
      <trkpt lat="48.87281" lon="2.33437">
        <ele>88.3</ele>
        <time>2013-04-01T19:12:30.000Z</time>
      </trkpt>
      <trkpt lat="48.87281" lon="2.33428">
        <ele>88.2</ele>
        <time>2013-04-01T19:12:31.000Z</time>
      </trkpt>
      <trkpt lat="48.87281" lon="2.3342">
        <ele>88.8</ele>
        <time>2013-04-01T19:12:32.000Z</time>
      </trkpt>
      <trkpt lat="48.87283" lon="2.33411">
        <ele>88.6</ele>
        <time>2013-04-01T19:12:33.000Z</time>
      </trkpt>
      <trkpt lat="48.87283" lon="2.33402">
        <ele>90.2</ele>
        <time>2013-04-01T19:12:34.000Z</time>
      </trkpt>
      <trkpt lat="48.87284" lon="2.33393">
        <ele>90.1</ele>
        <time>2013-04-01T19:12:35.000Z</time>
      </trkpt>
      <trkpt lat="48.87286" lon="2.33375">
        <ele>89.9</ele>
        <time>2013-04-01T19:12:37.221Z</time>
      </trkpt>
      <trkpt lat="48.87291" lon="2.33379">
        <ele>88.9</ele>
        <time>2013-04-01T19:12:38.000Z</time>
      </trkpt>
      <trkpt lat="48.87292" lon="2.3337">
        <ele>87.9</ele>
        <time>2013-04-01T19:12:39.000Z</time>
      </trkpt>
      <trkpt lat="48.87295" lon="2.33359">
        <ele>87.9</ele>
        <time>2013-04-01T19:12:40.000Z</time>
      </trkpt>
      <trkpt lat="48.87295" lon="2.3335">
        <ele>87.4</ele>
        <time>2013-04-01T19:12:41.000Z</time>
      </trkpt>
      <trkpt lat="48.87297" lon="2.33342">
        <ele>86</ele>
        <time>2013-04-01T19:12:42.000Z</time>
      </trkpt>
      <trkpt lat="48.87298" lon="2.33332">
        <ele>88.1</ele>
        <time>2013-04-01T19:12:43.000Z</time>
      </trkpt>
      <trkpt lat="48.87298" lon="2.33324">
        <ele>87.4</ele>
        <time>2013-04-01T19:12:44.000Z</time>
      </trkpt>
      <trkpt lat="48.87298" lon="2.33315">
        <ele>87</ele>
        <time>2013-04-01T19:12:45.000Z</time>
      </trkpt>
      <trkpt lat="48.873" lon="2.33305">
        <ele>85.8</ele>
        <time>2013-04-01T19:12:46.000Z</time>
      </trkpt>
      <trkpt lat="48.87301" lon="2.33293">
        <ele>87.1</ele>
        <time>2013-04-01T19:12:47.000Z</time>
      </trkpt>
      <trkpt lat="48.87302" lon="2.33283">
        <ele>86.6</ele>
        <time>2013-04-01T19:12:48.000Z</time>
      </trkpt>
      <trkpt lat="48.87303" lon="2.33275">
        <ele>84.7</ele>
        <time>2013-04-01T19:12:49.000Z</time>
      </trkpt>
      <trkpt lat="48.87304" lon="2.33266">
        <ele>83.7</ele>
        <time>2013-04-01T19:12:50.000Z</time>
      </trkpt>
      <trkpt lat="48.87306" lon="2.33257">
        <ele>83.4</ele>
        <time>2013-04-01T19:12:51.000Z</time>
      </trkpt>
      <trkpt lat="48.87307" lon="2.33248">
        <ele>82.9</ele>
        <time>2013-04-01T19:12:52.000Z</time>
      </trkpt>
      <trkpt lat="48.87307" lon="2.3324">
        <ele>82.9</ele>
        <time>2013-04-01T19:12:53.000Z</time>
      </trkpt>
      <trkpt lat="48.87308" lon="2.3323">
        <ele>82.9</ele>
        <time>2013-04-01T19:12:54.000Z</time>
      </trkpt>
      <trkpt lat="48.87309" lon="2.33223">
        <ele>82.8</ele>
        <time>2013-04-01T19:12:55.000Z</time>
      </trkpt>
      <trkpt lat="48.87309" lon="2.33214">
        <ele>83.1</ele>
        <time>2013-04-01T19:12:56.000Z</time>
      </trkpt>
      <trkpt lat="48.8731" lon="2.33208">
        <ele>83.5</ele>
        <time>2013-04-01T19:12:57.000Z</time>
      </trkpt>
      <trkpt lat="48.87311" lon="2.33202">
        <ele>82.7</ele>
        <time>2013-04-01T19:12:58.000Z</time>
      </trkpt>
      <trkpt lat="48.87311" lon="2.33196">
        <ele>83.3</ele>
        <time>2013-04-01T19:12:59.000Z</time>
      </trkpt>
      <trkpt lat="48.87313" lon="2.3319">
        <ele>83.1</ele>
        <time>2013-04-01T19:13:00.000Z</time>
      </trkpt>
      <trkpt lat="48.87313" lon="2.33184">
        <ele>83.3</ele>
        <time>2013-04-01T19:13:01.000Z</time>
      </trkpt>
      <trkpt lat="48.87316" lon="2.33177">
        <ele>83.5</ele>
        <time>2013-04-01T19:13:02.000Z</time>
      </trkpt>
      <trkpt lat="48.87318" lon="2.33172">
        <ele>83.5</ele>
        <time>2013-04-01T19:13:03.000Z</time>
      </trkpt>
      <trkpt lat="48.87317" lon="2.33166">
        <ele>83.3</ele>
        <time>2013-04-01T19:13:04.000Z</time>
      </trkpt>
      <trkpt lat="48.87319" lon="2.33161">
        <ele>83.4</ele>
        <time>2013-04-01T19:13:05.000Z</time>
      </trkpt>
      <trkpt lat="48.8732" lon="2.33156">
        <ele>83.4</ele>
        <time>2013-04-01T19:13:06.000Z</time>
      </trkpt>
      <trkpt lat="48.8732" lon="2.33151">
        <ele>83.8</ele>
        <time>2013-04-01T19:13:07.000Z</time>
      </trkpt>
      <trkpt lat="48.87321" lon="2.33146">
        <ele>84</ele>
        <time>2013-04-01T19:13:08.000Z</time>
      </trkpt>
      <trkpt lat="48.87321" lon="2.3314">
        <ele>83.7</ele>
        <time>2013-04-01T19:13:09.000Z</time>
      </trkpt>
      <trkpt lat="48.87321" lon="2.33135">
        <ele>83</ele>
        <time>2013-04-01T19:13:10.000Z</time>
      </trkpt>
      <trkpt lat="48.87322" lon="2.3313">
        <ele>82.9</ele>
        <time>2013-04-01T19:13:11.000Z</time>
      </trkpt>
      <trkpt lat="48.87323" lon="2.33125">
        <ele>82.9</ele>
        <time>2013-04-01T19:13:12.000Z</time>
      </trkpt>
      <trkpt lat="48.87324" lon="2.33119">
        <ele>84.3</ele>
        <time>2013-04-01T19:13:13.000Z</time>
      </trkpt>
      <trkpt lat="48.87324" lon="2.33114">
        <ele>85.7</ele>
        <time>2013-04-01T19:13:14.000Z</time>
      </trkpt>
      <trkpt lat="48.87325" lon="2.33109">
        <ele>85.2</ele>
        <time>2013-04-01T19:13:15.000Z</time>
      </trkpt>
      <trkpt lat="48.87325" lon="2.33105">
        <ele>85.8</ele>
        <time>2013-04-01T19:13:16.000Z</time>
      </trkpt>
      <trkpt lat="48.87326" lon="2.331">
        <ele>85.6</ele>
        <time>2013-04-01T19:13:17.000Z</time>
      </trkpt>
      <trkpt lat="48.87327" lon="2.33095">
        <ele>85.6</ele>
        <time>2013-04-01T19:13:18.000Z</time>
      </trkpt>
      <trkpt lat="48.87327" lon="2.3309">
        <ele>85.5</ele>
        <time>2013-04-01T19:13:19.000Z</time>
      </trkpt>
      <trkpt lat="48.87328" lon="2.33085">
        <ele>85.6</ele>
        <time>2013-04-01T19:13:20.000Z</time>
      </trkpt>
      <trkpt lat="48.87328" lon="2.3308">
        <ele>85.4</ele>
        <time>2013-04-01T19:13:21.000Z</time>
      </trkpt>
      <trkpt lat="48.87329" lon="2.33076">
        <ele>84.2</ele>
        <time>2013-04-01T19:13:22.000Z</time>
      </trkpt>
      <trkpt lat="48.87329" lon="2.33071">
        <ele>83.3</ele>
        <time>2013-04-01T19:13:23.000Z</time>
      </trkpt>
      <trkpt lat="48.8733" lon="2.33067">
        <ele>83.8</ele>
        <time>2013-04-01T19:13:24.000Z</time>
      </trkpt>
      <trkpt lat="48.8733" lon="2.33062">
        <ele>83.8</ele>
        <time>2013-04-01T19:13:25.000Z</time>
      </trkpt>
      <trkpt lat="48.87331" lon="2.33057">
        <ele>83</ele>
        <time>2013-04-01T19:13:26.000Z</time>
      </trkpt>
      <trkpt lat="48.87332" lon="2.33053">
        <ele>82.8</ele>
        <time>2013-04-01T19:13:27.000Z</time>
      </trkpt>
      <trkpt lat="48.87332" lon="2.33049">
        <ele>85.7</ele>
        <time>2013-04-01T19:13:28.000Z</time>
      </trkpt>
      <trkpt lat="48.87332" lon="2.33045">
        <ele>85.4</ele>
        <time>2013-04-01T19:13:29.000Z</time>
      </trkpt>
      <trkpt lat="48.87332" lon="2.33042">
        <ele>86.8</ele>
        <time>2013-04-01T19:13:30.000Z</time>
      </trkpt>
      <trkpt lat="48.87332" lon="2.33035">
        <ele>85.9</ele>
        <time>2013-04-01T19:13:32.000Z</time>
      </trkpt>
      <trkpt lat="48.87332" lon="2.33032">
        <ele>85</ele>
        <time>2013-04-01T19:13:33.000Z</time>
      </trkpt>
      <trkpt lat="48.87332" lon="2.33025">
        <ele>85.7</ele>
        <time>2013-04-01T19:13:35.000Z</time>
      </trkpt>
      <trkpt lat="48.87332" lon="2.33022">
        <ele>85.2</ele>
        <time>2013-04-01T19:13:36.000Z</time>
      </trkpt>
      <trkpt lat="48.87333" lon="2.33015">
        <ele>83.9</ele>
        <time>2013-04-01T19:13:38.000Z</time>
      </trkpt>
      <trkpt lat="48.87334" lon="2.33012">
        <ele>86.2</ele>
        <time>2013-04-01T19:13:39.000Z</time>
      </trkpt>
      <trkpt lat="48.87335" lon="2.33008">
        <ele>84.4</ele>
        <time>2013-04-01T19:13:41.000Z</time>
      </trkpt>
      <trkpt lat="48.87336" lon="2.33005">
        <ele>83.8</ele>
        <time>2013-04-01T19:13:42.000Z</time>
      </trkpt>
      <trkpt lat="48.87336" lon="2.33">
        <ele>83.5</ele>
        <time>2013-04-01T19:13:44.000Z</time>
      </trkpt>
      <trkpt lat="48.87337" lon="2.32998">
        <ele>83.6</ele>
        <time>2013-04-01T19:13:45.000Z</time>
      </trkpt>
      <trkpt lat="48.87338" lon="2.32993">
        <ele>82</ele>
        <time>2013-04-01T19:13:48.000Z</time>
      </trkpt>
      <trkpt lat="48.87337" lon="2.32991">
        <ele>83</ele>
        <time>2013-04-01T19:13:49.000Z</time>
      </trkpt>
      <trkpt lat="48.87338" lon="2.32986">
        <ele>83.4</ele>
        <time>2013-04-01T19:13:51.000Z</time>
      </trkpt>
      <trkpt lat="48.87338" lon="2.32982">
        <ele>84</ele>
        <time>2013-04-01T19:13:52.000Z</time>
      </trkpt>
      <trkpt lat="48.8734" lon="2.32976">
        <ele>84.1</ele>
        <time>2013-04-01T19:13:54.000Z</time>
      </trkpt>
      <trkpt lat="48.8734" lon="2.32973">
        <ele>85.9</ele>
        <time>2013-04-01T19:13:55.000Z</time>
      </trkpt>
      <trkpt lat="48.8734" lon="2.32966">
        <ele>87.1</ele>
        <time>2013-04-01T19:13:57.000Z</time>
      </trkpt>
      <trkpt lat="48.8734" lon="2.32963">
        <ele>88.1</ele>
        <time>2013-04-01T19:13:58.000Z</time>
      </trkpt>
      <trkpt lat="48.8734" lon="2.32959">
        <ele>87.8</ele>
        <time>2013-04-01T19:13:59.000Z</time>
      </trkpt>
      <trkpt lat="48.87341" lon="2.32954">
        <ele>87.7</ele>
        <time>2013-04-01T19:14:00.000Z</time>
      </trkpt>
      <trkpt lat="48.87341" lon="2.32948">
        <ele>88.5</ele>
        <time>2013-04-01T19:14:01.000Z</time>
      </trkpt>
      <trkpt lat="48.87341" lon="2.32943">
        <ele>89.6</ele>
        <time>2013-04-01T19:14:02.000Z</time>
      </trkpt>
      <trkpt lat="48.87341" lon="2.32937">
        <ele>90</ele>
        <time>2013-04-01T19:14:03.000Z</time>
      </trkpt>
      <trkpt lat="48.87342" lon="2.32932">
        <ele>89.4</ele>
        <time>2013-04-01T19:14:04.000Z</time>
      </trkpt>
      <trkpt lat="48.87343" lon="2.32926">
        <ele>88.9</ele>
        <time>2013-04-01T19:14:05.000Z</time>
      </trkpt>
      <trkpt lat="48.87344" lon="2.32921">
        <ele>88.6</ele>
        <time>2013-04-01T19:14:06.000Z</time>
      </trkpt>
      <trkpt lat="48.87345" lon="2.32916">
        <ele>88.3</ele>
        <time>2013-04-01T19:14:07.000Z</time>
      </trkpt>
      <trkpt lat="48.87345" lon="2.32911">
        <ele>87.7</ele>
        <time>2013-04-01T19:14:08.000Z</time>
      </trkpt>
      <trkpt lat="48.87346" lon="2.32906">
        <ele>88.1</ele>
        <time>2013-04-01T19:14:09.000Z</time>
      </trkpt>
      <trkpt lat="48.87347" lon="2.32902">
        <ele>88.1</ele>
        <time>2013-04-01T19:14:10.000Z</time>
      </trkpt>
      <trkpt lat="48.87348" lon="2.32897">
        <ele>87.8</ele>
        <time>2013-04-01T19:14:11.000Z</time>
      </trkpt>
      <trkpt lat="48.87348" lon="2.32892">
        <ele>88.3</ele>
        <time>2013-04-01T19:14:12.000Z</time>
      </trkpt>
      <trkpt lat="48.87349" lon="2.32887">
        <ele>88.4</ele>
        <time>2013-04-01T19:14:13.000Z</time>
      </trkpt>
      <trkpt lat="48.8735" lon="2.32883">
        <ele>88.4</ele>
        <time>2013-04-01T19:14:14.000Z</time>
      </trkpt>
      <trkpt lat="48.8735" lon="2.32878">
        <ele>89.4</ele>
        <time>2013-04-01T19:14:15.000Z</time>
      </trkpt>
      <trkpt lat="48.87351" lon="2.32873">
        <ele>89.4</ele>
        <time>2013-04-01T19:14:16.000Z</time>
      </trkpt>
      <trkpt lat="48.87351" lon="2.32868">
        <ele>89.6</ele>
        <time>2013-04-01T19:14:17.000Z</time>
      </trkpt>
      <trkpt lat="48.87351" lon="2.32863">
        <ele>89.1</ele>
        <time>2013-04-01T19:14:18.000Z</time>
      </trkpt>
      <trkpt lat="48.87352" lon="2.32858">
        <ele>90</ele>
        <time>2013-04-01T19:14:19.000Z</time>
      </trkpt>
      <trkpt lat="48.87352" lon="2.32853">
        <ele>90.1</ele>
        <time>2013-04-01T19:14:20.000Z</time>
      </trkpt>
      <trkpt lat="48.87353" lon="2.32849">
        <ele>89.7</ele>
        <time>2013-04-01T19:14:21.000Z</time>
      </trkpt>
      <trkpt lat="48.87354" lon="2.32844">
        <ele>89.9</ele>
        <time>2013-04-01T19:14:22.000Z</time>
      </trkpt>
      <trkpt lat="48.87355" lon="2.32839">
        <ele>89</ele>
        <time>2013-04-01T19:14:23.000Z</time>
      </trkpt>
      <trkpt lat="48.87356" lon="2.32834">
        <ele>89</ele>
        <time>2013-04-01T19:14:24.000Z</time>
      </trkpt>
      <trkpt lat="48.87357" lon="2.3283">
        <ele>88.9</ele>
        <time>2013-04-01T19:14:25.000Z</time>
      </trkpt>
      <trkpt lat="48.87358" lon="2.32825">
        <ele>88.9</ele>
        <time>2013-04-01T19:14:26.000Z</time>
      </trkpt>
      <trkpt lat="48.87359" lon="2.3282">
        <ele>88.6</ele>
        <time>2013-04-01T19:14:27.000Z</time>
      </trkpt>
      <trkpt lat="48.87361" lon="2.32815">
        <ele>88.2</ele>
        <time>2013-04-01T19:14:28.000Z</time>
      </trkpt>
      <trkpt lat="48.87362" lon="2.32808">
        <ele>88.4</ele>
        <time>2013-04-01T19:14:29.000Z</time>
      </trkpt>
      <trkpt lat="48.87363" lon="2.32802">
        <ele>88.4</ele>
        <time>2013-04-01T19:14:30.000Z</time>
      </trkpt>
      <trkpt lat="48.87364" lon="2.32795">
        <ele>88.2</ele>
        <time>2013-04-01T19:14:31.000Z</time>
      </trkpt>
      <trkpt lat="48.87362" lon="2.32789">
        <ele>87.1</ele>
        <time>2013-04-01T19:14:32.000Z</time>
      </trkpt>
      <trkpt lat="48.87366" lon="2.32782">
        <ele>86.8</ele>
        <time>2013-04-01T19:14:33.000Z</time>
      </trkpt>
      <trkpt lat="48.87367" lon="2.32776">
        <ele>86.4</ele>
        <time>2013-04-01T19:14:34.000Z</time>
      </trkpt>
      <trkpt lat="48.87368" lon="2.32769">
        <ele>86.3</ele>
        <time>2013-04-01T19:14:35.000Z</time>
      </trkpt>
      <trkpt lat="48.8737" lon="2.32755">
        <ele>85.9</ele>
        <time>2013-04-01T19:14:37.141Z</time>
      </trkpt>
      <trkpt lat="48.87374" lon="2.32753">
        <ele>81</ele>
        <time>2013-04-01T19:14:38.000Z</time>
      </trkpt>
      <trkpt lat="48.87374" lon="2.32746">
        <ele>80.2</ele>
        <time>2013-04-01T19:14:39.000Z</time>
      </trkpt>
      <trkpt lat="48.87376" lon="2.32739">
        <ele>79.5</ele>
        <time>2013-04-01T19:14:40.000Z</time>
      </trkpt>
      <trkpt lat="48.87376" lon="2.32731">
        <ele>80.2</ele>
        <time>2013-04-01T19:14:41.000Z</time>
      </trkpt>
      <trkpt lat="48.87377" lon="2.32721">
        <ele>81.4</ele>
        <time>2013-04-01T19:14:42.000Z</time>
      </trkpt>
      <trkpt lat="48.87378" lon="2.32714">
        <ele>81.5</ele>
        <time>2013-04-01T19:14:43.000Z</time>
      </trkpt>
      <trkpt lat="48.87379" lon="2.32707">
        <ele>81.9</ele>
        <time>2013-04-01T19:14:44.000Z</time>
      </trkpt>
      <trkpt lat="48.8738" lon="2.327">
        <ele>81.4</ele>
        <time>2013-04-01T19:14:45.000Z</time>
      </trkpt>
      <trkpt lat="48.8738" lon="2.32693">
        <ele>81</ele>
        <time>2013-04-01T19:14:46.000Z</time>
      </trkpt>
      <trkpt lat="48.87381" lon="2.32687">
        <ele>81.6</ele>
        <time>2013-04-01T19:14:47.000Z</time>
      </trkpt>
      <trkpt lat="48.87382" lon="2.3268">
        <ele>81.1</ele>
        <time>2013-04-01T19:14:48.000Z</time>
      </trkpt>
      <trkpt lat="48.87383" lon="2.32675">
        <ele>80.1</ele>
        <time>2013-04-01T19:14:49.000Z</time>
      </trkpt>
      <trkpt lat="48.87384" lon="2.32669">
        <ele>79.9</ele>
        <time>2013-04-01T19:14:50.000Z</time>
      </trkpt>
      <trkpt lat="48.87385" lon="2.32662">
        <ele>79.7</ele>
        <time>2013-04-01T19:14:51.000Z</time>
      </trkpt>
      <trkpt lat="48.87386" lon="2.32655">
        <ele>79.5</ele>
        <time>2013-04-01T19:14:52.000Z</time>
      </trkpt>
      <trkpt lat="48.87387" lon="2.32648">
        <ele>79.9</ele>
        <time>2013-04-01T19:14:53.000Z</time>
      </trkpt>
      <trkpt lat="48.87388" lon="2.32642">
        <ele>80.1</ele>
        <time>2013-04-01T19:14:54.000Z</time>
      </trkpt>
      <trkpt lat="48.87388" lon="2.32636">
        <ele>79.3</ele>
        <time>2013-04-01T19:14:55.000Z</time>
      </trkpt>
      <trkpt lat="48.87389" lon="2.32629">
        <ele>79.2</ele>
        <time>2013-04-01T19:14:56.000Z</time>
      </trkpt>
      <trkpt lat="48.8739" lon="2.32624">
        <ele>81.3</ele>
        <time>2013-04-01T19:14:57.000Z</time>
      </trkpt>
      <trkpt lat="48.87392" lon="2.32618">
        <ele>80.3</ele>
        <time>2013-04-01T19:14:58.000Z</time>
      </trkpt>
      <trkpt lat="48.87393" lon="2.32612">
        <ele>80.6</ele>
        <time>2013-04-01T19:14:59.000Z</time>
      </trkpt>
      <trkpt lat="48.87394" lon="2.32606">
        <ele>80.1</ele>
        <time>2013-04-01T19:15:00.000Z</time>
      </trkpt>
      <trkpt lat="48.87395" lon="2.32602">
        <ele>79.5</ele>
        <time>2013-04-01T19:15:01.000Z</time>
      </trkpt>
      <trkpt lat="48.87395" lon="2.32596">
        <ele>80.7</ele>
        <time>2013-04-01T19:15:02.000Z</time>
      </trkpt>
      <trkpt lat="48.87395" lon="2.32591">
        <ele>80.5</ele>
        <time>2013-04-01T19:15:03.000Z</time>
      </trkpt>
      <trkpt lat="48.87394" lon="2.32583">
        <ele>82</ele>
        <time>2013-04-01T19:15:04.000Z</time>
      </trkpt>
      <trkpt lat="48.87395" lon="2.32577">
        <ele>81.4</ele>
        <time>2013-04-01T19:15:05.000Z</time>
      </trkpt>
      <trkpt lat="48.87395" lon="2.32571">
        <ele>81.3</ele>
        <time>2013-04-01T19:15:06.000Z</time>
      </trkpt>
      <trkpt lat="48.87396" lon="2.32565">
        <ele>80.9</ele>
        <time>2013-04-01T19:15:07.000Z</time>
      </trkpt>
      <trkpt lat="48.87396" lon="2.32558">
        <ele>80.5</ele>
        <time>2013-04-01T19:15:08.000Z</time>
      </trkpt>
      <trkpt lat="48.87397" lon="2.32552">
        <ele>80.4</ele>
        <time>2013-04-01T19:15:09.000Z</time>
      </trkpt>
      <trkpt lat="48.87398" lon="2.32545">
        <ele>80.3</ele>
        <time>2013-04-01T19:15:10.000Z</time>
      </trkpt>
      <trkpt lat="48.87399" lon="2.32535">
        <ele>80.4</ele>
        <time>2013-04-01T19:15:11.000Z</time>
      </trkpt>
      <trkpt lat="48.874" lon="2.32528">
        <ele>80.1</ele>
        <time>2013-04-01T19:15:12.000Z</time>
      </trkpt>
      <trkpt lat="48.874" lon="2.32521">
        <ele>79.9</ele>
        <time>2013-04-01T19:15:13.000Z</time>
      </trkpt>
      <trkpt lat="48.87401" lon="2.32514">
        <ele>79.8</ele>
        <time>2013-04-01T19:15:14.000Z</time>
      </trkpt>
      <trkpt lat="48.87401" lon="2.32507">
        <ele>79.6</ele>
        <time>2013-04-01T19:15:15.000Z</time>
      </trkpt>
      <trkpt lat="48.87403" lon="2.325">
        <ele>79.5</ele>
        <time>2013-04-01T19:15:16.000Z</time>
      </trkpt>
      <trkpt lat="48.87404" lon="2.32493">
        <ele>79.3</ele>
        <time>2013-04-01T19:15:17.000Z</time>
      </trkpt>
      <trkpt lat="48.87403" lon="2.32486">
        <ele>80.6</ele>
        <time>2013-04-01T19:15:18.000Z</time>
      </trkpt>
      <trkpt lat="48.87402" lon="2.32479">
        <ele>81.6</ele>
        <time>2013-04-01T19:15:19.000Z</time>
      </trkpt>
      <trkpt lat="48.87406" lon="2.32474">
        <ele>82.2</ele>
        <time>2013-04-01T19:15:20.000Z</time>
      </trkpt>
      <trkpt lat="48.87411" lon="2.32468">
        <ele>82.6</ele>
        <time>2013-04-01T19:15:21.000Z</time>
      </trkpt>
      <trkpt lat="48.87415" lon="2.32464">
        <ele>83</ele>
        <time>2013-04-01T19:15:22.000Z</time>
      </trkpt>
      <trkpt lat="48.87421" lon="2.32461">
        <ele>84</ele>
        <time>2013-04-01T19:15:23.000Z</time>
      </trkpt>
      <trkpt lat="48.87426" lon="2.3246">
        <ele>85.7</ele>
        <time>2013-04-01T19:15:24.000Z</time>
      </trkpt>
      <trkpt lat="48.87431" lon="2.32458">
        <ele>87</ele>
        <time>2013-04-01T19:15:25.000Z</time>
      </trkpt>
      <trkpt lat="48.87434" lon="2.32459">
        <ele>86.7</ele>
        <time>2013-04-01T19:15:26.000Z</time>
      </trkpt>
      <trkpt lat="48.87438" lon="2.3246">
        <ele>85.9</ele>
        <time>2013-04-01T19:15:27.000Z</time>
      </trkpt>
      <trkpt lat="48.87442" lon="2.32459">
        <ele>86.2</ele>
        <time>2013-04-01T19:15:28.000Z</time>
      </trkpt>
      <trkpt lat="48.87446" lon="2.32459">
        <ele>86.2</ele>
        <time>2013-04-01T19:15:29.000Z</time>
      </trkpt>
      <trkpt lat="48.8745" lon="2.32459">
        <ele>86.3</ele>
        <time>2013-04-01T19:15:30.000Z</time>
      </trkpt>
      <trkpt lat="48.87454" lon="2.32459">
        <ele>86.5</ele>
        <time>2013-04-01T19:15:31.000Z</time>
      </trkpt>
      <trkpt lat="48.87458" lon="2.32458">
        <ele>86.7</ele>
        <time>2013-04-01T19:15:32.000Z</time>
      </trkpt>
      <trkpt lat="48.87462" lon="2.32458">
        <ele>86.9</ele>
        <time>2013-04-01T19:15:33.000Z</time>
      </trkpt>
      <trkpt lat="48.87465" lon="2.32458">
        <ele>86.6</ele>
        <time>2013-04-01T19:15:34.000Z</time>
      </trkpt>
      <trkpt lat="48.87469" lon="2.32458">
        <ele>85.9</ele>
        <time>2013-04-01T19:15:35.000Z</time>
      </trkpt>
      <trkpt lat="48.87472" lon="2.32458">
        <ele>85.7</ele>
        <time>2013-04-01T19:15:36.000Z</time>
      </trkpt>
      <trkpt lat="48.87475" lon="2.32458">
        <ele>85</ele>
        <time>2013-04-01T19:15:37.000Z</time>
      </trkpt>
      <trkpt lat="48.87478" lon="2.32459">
        <ele>83.1</ele>
        <time>2013-04-01T19:15:38.000Z</time>
      </trkpt>
      <trkpt lat="48.8748" lon="2.3246">
        <ele>83.7</ele>
        <time>2013-04-01T19:15:39.000Z</time>
      </trkpt>
      <trkpt lat="48.87482" lon="2.3246">
        <ele>83.7</ele>
        <time>2013-04-01T19:15:40.000Z</time>
      </trkpt>
      <trkpt lat="48.87484" lon="2.3246">
        <ele>83.3</ele>
        <time>2013-04-01T19:15:41.000Z</time>
      </trkpt>
      <trkpt lat="48.87487" lon="2.32459">
        <ele>82.6</ele>
        <time>2013-04-01T19:15:42.000Z</time>
      </trkpt>
      <trkpt lat="48.8749" lon="2.32457">
        <ele>79.3</ele>
        <time>2013-04-01T19:15:43.000Z</time>
      </trkpt>
      <trkpt lat="48.87493" lon="2.32456">
        <ele>80</ele>
        <time>2013-04-01T19:15:44.000Z</time>
      </trkpt>
      <trkpt lat="48.87496" lon="2.32455">
        <ele>79.4</ele>
        <time>2013-04-01T19:15:45.000Z</time>
      </trkpt>
      <trkpt lat="48.87499" lon="2.32453">
        <ele>79.1</ele>
        <time>2013-04-01T19:15:46.000Z</time>
      </trkpt>
      <trkpt lat="48.87502" lon="2.32451">
        <ele>78.3</ele>
        <time>2013-04-01T19:15:47.000Z</time>
      </trkpt>
      <trkpt lat="48.87505" lon="2.32448">
        <ele>78.7</ele>
        <time>2013-04-01T19:15:48.000Z</time>
      </trkpt>
      <trkpt lat="48.87507" lon="2.32446">
        <ele>78.9</ele>
        <time>2013-04-01T19:15:49.000Z</time>
      </trkpt>
      <trkpt lat="48.8751" lon="2.32441">
        <ele>77.8</ele>
        <time>2013-04-01T19:15:52.000Z</time>
      </trkpt>
      <trkpt lat="48.87511" lon="2.32439">
        <ele>79.4</ele>
        <time>2013-04-01T19:15:53.000Z</time>
      </trkpt>
      <trkpt lat="48.87514" lon="2.32436">
        <ele>80.4</ele>
        <time>2013-04-01T19:16:01.000Z</time>
      </trkpt>
      <trkpt lat="48.87515" lon="2.32435">
        <ele>82.1</ele>
        <time>2013-04-01T19:16:02.000Z</time>
      </trkpt>
      <trkpt lat="48.87518" lon="2.32433">
        <ele>83.5</ele>
        <time>2013-04-01T19:16:04.000Z</time>
      </trkpt>
      <trkpt lat="48.8752" lon="2.32433">
        <ele>82.1</ele>
        <time>2013-04-01T19:16:05.000Z</time>
      </trkpt>
      <trkpt lat="48.87524" lon="2.32433">
        <ele>81.1</ele>
        <time>2013-04-01T19:16:09.000Z</time>
      </trkpt>
      <trkpt lat="48.87524" lon="2.32433">
        <ele>80.8</ele>
        <time>2013-04-01T19:16:10.000Z</time>
      </trkpt>
      <trkpt lat="48.87526" lon="2.32428">
        <ele>80.1</ele>
        <time>2013-04-01T19:16:14.000Z</time>
      </trkpt>
      <trkpt lat="48.87526" lon="2.32426">
        <ele>80.6</ele>
        <time>2013-04-01T19:16:15.000Z</time>
      </trkpt>
      <trkpt lat="48.8753" lon="2.32424">
        <ele>80.8</ele>
        <time>2013-04-01T19:16:20.000Z</time>
      </trkpt>
      <trkpt lat="48.87531" lon="2.32424">
        <ele>81.6</ele>
        <time>2013-04-01T19:16:21.000Z</time>
      </trkpt>
      <trkpt lat="48.87534" lon="2.32423">
        <ele>82.3</ele>
        <time>2013-04-01T19:16:23.000Z</time>
      </trkpt>
      <trkpt lat="48.87536" lon="2.32422">
        <ele>82.2</ele>
        <time>2013-04-01T19:16:24.000Z</time>
      </trkpt>
      <trkpt lat="48.87539" lon="2.3242">
        <ele>80.6</ele>
        <time>2013-04-01T19:16:26.000Z</time>
      </trkpt>
      <trkpt lat="48.87541" lon="2.32419">
        <ele>81.5</ele>
        <time>2013-04-01T19:16:27.000Z</time>
      </trkpt>
      <trkpt lat="48.87544" lon="2.32416">
        <ele>81.5</ele>
        <time>2013-04-01T19:16:31.000Z</time>
      </trkpt>
      <trkpt lat="48.87545" lon="2.32415">
        <ele>81.1</ele>
        <time>2013-04-01T19:16:32.000Z</time>
      </trkpt>
      <trkpt lat="48.87549" lon="2.32411">
        <ele>81.8</ele>
        <time>2013-04-01T19:16:36.000Z</time>
      </trkpt>
      <trkpt lat="48.8755" lon="2.3241">
        <ele>81.9</ele>
        <time>2013-04-01T19:16:37.000Z</time>
      </trkpt>
      <trkpt lat="48.87554" lon="2.32408">
        <ele>77.1</ele>
        <time>2013-04-01T19:16:48.000Z</time>
      </trkpt>
      <trkpt lat="48.87554" lon="2.32408">
        <ele>77.1</ele>
        <time>2013-04-01T19:16:49.000Z</time>
      </trkpt>
      <trkpt lat="48.87558" lon="2.32408">
        <ele>78.4</ele>
        <time>2013-04-01T19:16:57.000Z</time>
      </trkpt>
      <trkpt lat="48.87559" lon="2.32409">
        <ele>78.4</ele>
        <time>2013-04-01T19:16:58.000Z</time>
      </trkpt>
      <trkpt lat="48.87562" lon="2.32406">
        <ele>78.7</ele>
        <time>2013-04-01T19:20:44.000Z</time>
      </trkpt>
      <trkpt lat="48.87563" lon="2.32406">
        <ele>79.8</ele>
        <time>2013-04-01T19:20:45.000Z</time>
      </trkpt>
      <trkpt lat="48.87567" lon="2.32406">
        <ele>81.1</ele>
        <time>2013-04-01T19:20:48.000Z</time>
      </trkpt>
      <trkpt lat="48.87568" lon="2.32404">
        <ele>84</ele>
        <time>2013-04-01T19:20:49.000Z</time>
      </trkpt>
      <trkpt lat="48.87572" lon="2.32401">
        <ele>82.1</ele>
        <time>2013-04-01T19:20:51.000Z</time>
      </trkpt>
      <trkpt lat="48.87574" lon="2.32399">
        <ele>81.5</ele>
        <time>2013-04-01T19:20:52.000Z</time>
      </trkpt>
      <trkpt lat="48.87579" lon="2.32396">
        <ele>80.1</ele>
        <time>2013-04-01T19:20:53.000Z</time>
      </trkpt>
      <trkpt lat="48.87583" lon="2.32394">
        <ele>79.9</ele>
        <time>2013-04-01T19:20:54.000Z</time>
      </trkpt>
      <trkpt lat="48.87587" lon="2.32393">
        <ele>78.2</ele>
        <time>2013-04-01T19:20:55.000Z</time>
      </trkpt>
      <trkpt lat="48.87591" lon="2.32391">
        <ele>77.3</ele>
        <time>2013-04-01T19:20:56.000Z</time>
      </trkpt>
      <trkpt lat="48.87595" lon="2.32388">
        <ele>76.8</ele>
        <time>2013-04-01T19:20:57.000Z</time>
      </trkpt>
      <trkpt lat="48.87599" lon="2.32385">
        <ele>77</ele>
        <time>2013-04-01T19:20:58.000Z</time>
      </trkpt>
      <trkpt lat="48.87603" lon="2.32383">
        <ele>76.7</ele>
        <time>2013-04-01T19:20:59.000Z</time>
      </trkpt>
      <trkpt lat="48.87606" lon="2.3238">
        <ele>76.3</ele>
        <time>2013-04-01T19:21:00.000Z</time>
      </trkpt>
      <trkpt lat="48.8761" lon="2.32378">
        <ele>75</ele>
        <time>2013-04-01T19:21:01.000Z</time>
      </trkpt>
      <trkpt lat="48.87614" lon="2.32376">
        <ele>73.8</ele>
        <time>2013-04-01T19:21:02.000Z</time>
      </trkpt>
      <trkpt lat="48.87617" lon="2.32374">
        <ele>71.1</ele>
        <time>2013-04-01T19:21:03.000Z</time>
      </trkpt>
      <trkpt lat="48.8762" lon="2.32372">
        <ele>69.6</ele>
        <time>2013-04-01T19:21:04.000Z</time>
      </trkpt>
      <trkpt lat="48.87623" lon="2.32371">
        <ele>69</ele>
        <time>2013-04-01T19:21:05.000Z</time>
      </trkpt>
      <trkpt lat="48.87626" lon="2.32369">
        <ele>67.4</ele>
        <time>2013-04-01T19:21:06.000Z</time>
      </trkpt>
      <trkpt lat="48.8763" lon="2.32367">
        <ele>66.5</ele>
        <time>2013-04-01T19:21:07.000Z</time>
      </trkpt>
      <trkpt lat="48.87633" lon="2.32364">
        <ele>65.9</ele>
        <time>2013-04-01T19:21:08.000Z</time>
      </trkpt>
      <trkpt lat="48.87636" lon="2.32362">
        <ele>65.8</ele>
        <time>2013-04-01T19:21:09.000Z</time>
      </trkpt>
      <trkpt lat="48.87639" lon="2.3236">
        <ele>65.6</ele>
        <time>2013-04-01T19:21:10.000Z</time>
      </trkpt>
      <trkpt lat="48.87642" lon="2.32358">
        <ele>65.9</ele>
        <time>2013-04-01T19:21:11.000Z</time>
      </trkpt>
      <trkpt lat="48.87644" lon="2.32357">
        <ele>64</ele>
        <time>2013-04-01T19:21:12.000Z</time>
      </trkpt>
      <trkpt lat="48.87646" lon="2.32355">
        <ele>63.3</ele>
        <time>2013-04-01T19:21:13.000Z</time>
      </trkpt>
      <trkpt lat="48.8765" lon="2.32353">
        <ele>60.8</ele>
        <time>2013-04-01T19:21:16.000Z</time>
      </trkpt>
      <trkpt lat="48.87652" lon="2.32353">
        <ele>59.6</ele>
        <time>2013-04-01T19:21:17.000Z</time>
      </trkpt>
      <trkpt lat="48.87655" lon="2.32351">
        <ele>71.5</ele>
        <time>2013-04-01T19:21:19.000Z</time>
      </trkpt>
      <trkpt lat="48.87657" lon="2.3235">
        <ele>69.9</ele>
        <time>2013-04-01T19:21:20.000Z</time>
      </trkpt>
      <trkpt lat="48.87661" lon="2.32348">
        <ele>67.3</ele>
        <time>2013-04-01T19:21:22.000Z</time>
      </trkpt>
      <trkpt lat="48.87663" lon="2.32346">
        <ele>66.7</ele>
        <time>2013-04-01T19:21:23.000Z</time>
      </trkpt>
      <trkpt lat="48.87666" lon="2.32344">
        <ele>69.2</ele>
        <time>2013-04-01T19:21:24.000Z</time>
      </trkpt>
      <trkpt lat="48.8767" lon="2.32342">
        <ele>68.1</ele>
        <time>2013-04-01T19:21:25.000Z</time>
      </trkpt>
      <trkpt lat="48.87673" lon="2.3234">
        <ele>67.1</ele>
        <time>2013-04-01T19:21:26.000Z</time>
      </trkpt>
      <trkpt lat="48.87677" lon="2.32339">
        <ele>66.8</ele>
        <time>2013-04-01T19:21:27.000Z</time>
      </trkpt>
      <trkpt lat="48.87681" lon="2.32336">
        <ele>65.1</ele>
        <time>2013-04-01T19:21:28.000Z</time>
      </trkpt>
      <trkpt lat="48.87685" lon="2.32333">
        <ele>66</ele>
        <time>2013-04-01T19:21:29.000Z</time>
      </trkpt>
      <trkpt lat="48.87688" lon="2.32331">
        <ele>65.2</ele>
        <time>2013-04-01T19:21:30.000Z</time>
      </trkpt>
      <trkpt lat="48.87692" lon="2.32328">
        <ele>63.9</ele>
        <time>2013-04-01T19:21:31.000Z</time>
      </trkpt>
      <trkpt lat="48.87695" lon="2.32326">
        <ele>63.5</ele>
        <time>2013-04-01T19:21:32.000Z</time>
      </trkpt>
      <trkpt lat="48.87699" lon="2.32323">
        <ele>63.7</ele>
        <time>2013-04-01T19:21:33.000Z</time>
      </trkpt>
      <trkpt lat="48.87703" lon="2.32321">
        <ele>65.2</ele>
        <time>2013-04-01T19:21:34.000Z</time>
      </trkpt>
      <trkpt lat="48.87707" lon="2.3232">
        <ele>66.7</ele>
        <time>2013-04-01T19:21:35.000Z</time>
      </trkpt>
      <trkpt lat="48.87711" lon="2.32319">
        <ele>66.8</ele>
        <time>2013-04-01T19:21:36.000Z</time>
      </trkpt>
      <trkpt lat="48.87715" lon="2.32318">
        <ele>67.2</ele>
        <time>2013-04-01T19:21:37.000Z</time>
      </trkpt>
      <trkpt lat="48.8772" lon="2.32316">
        <ele>68.9</ele>
        <time>2013-04-01T19:21:38.000Z</time>
      </trkpt>
      <trkpt lat="48.87724" lon="2.32314">
        <ele>69.3</ele>
        <time>2013-04-01T19:21:39.000Z</time>
      </trkpt>
      <trkpt lat="48.87728" lon="2.32311">
        <ele>68.4</ele>
        <time>2013-04-01T19:21:40.000Z</time>
      </trkpt>
      <trkpt lat="48.87731" lon="2.32309">
        <ele>69.1</ele>
        <time>2013-04-01T19:21:41.000Z</time>
      </trkpt>
      <trkpt lat="48.87735" lon="2.32307">
        <ele>69.4</ele>
        <time>2013-04-01T19:21:43.000Z</time>
      </trkpt>
      <trkpt lat="48.87736" lon="2.32306">
        <ele>68.8</ele>
        <time>2013-04-01T19:21:44.000Z</time>
      </trkpt>
      <trkpt lat="48.87739" lon="2.32304">
        <ele>69.4</ele>
        <time>2013-04-01T19:21:46.000Z</time>
      </trkpt>
      <trkpt lat="48.87741" lon="2.32303">
        <ele>69.6</ele>
        <time>2013-04-01T19:21:47.000Z</time>
      </trkpt>
      <trkpt lat="48.87743" lon="2.32302">
        <ele>68.8</ele>
        <time>2013-04-01T19:21:48.000Z</time>
      </trkpt>
      <trkpt lat="48.87745" lon="2.323">
        <ele>68</ele>
        <time>2013-04-01T19:21:49.000Z</time>
      </trkpt>
      <trkpt lat="48.87748" lon="2.32297">
        <ele>66.3</ele>
        <time>2013-04-01T19:21:51.000Z</time>
      </trkpt>
      <trkpt lat="48.8775" lon="2.32295">
        <ele>66.3</ele>
        <time>2013-04-01T19:21:52.000Z</time>
      </trkpt>
      <trkpt lat="48.87754" lon="2.32294">
        <ele>65.7</ele>
        <time>2013-04-01T19:21:54.000Z</time>
      </trkpt>
      <trkpt lat="48.87756" lon="2.32293">
        <ele>65.7</ele>
        <time>2013-04-01T19:21:55.000Z</time>
      </trkpt>
      <trkpt lat="48.87758" lon="2.32292">
        <ele>65.8</ele>
        <time>2013-04-01T19:21:56.000Z</time>
      </trkpt>
      <trkpt lat="48.87761" lon="2.32291">
        <ele>64.3</ele>
        <time>2013-04-01T19:21:57.000Z</time>
      </trkpt>
      <trkpt lat="48.87764" lon="2.32289">
        <ele>64.6</ele>
        <time>2013-04-01T19:21:58.000Z</time>
      </trkpt>
      <trkpt lat="48.87766" lon="2.32287">
        <ele>65.4</ele>
        <time>2013-04-01T19:21:59.000Z</time>
      </trkpt>
      <trkpt lat="48.87769" lon="2.32285">
        <ele>65.7</ele>
        <time>2013-04-01T19:22:00.000Z</time>
      </trkpt>
      <trkpt lat="48.87774" lon="2.32283">
        <ele>67.7</ele>
        <time>2013-04-01T19:22:01.000Z</time>
      </trkpt>
      <trkpt lat="48.87778" lon="2.32282">
        <ele>65.9</ele>
        <time>2013-04-01T19:22:02.000Z</time>
      </trkpt>
      <trkpt lat="48.87782" lon="2.3228">
        <ele>66.3</ele>
        <time>2013-04-01T19:22:03.000Z</time>
      </trkpt>
      <trkpt lat="48.87785" lon="2.32278">
        <ele>66.1</ele>
        <time>2013-04-01T19:22:04.000Z</time>
      </trkpt>
      <trkpt lat="48.87788" lon="2.32277">
        <ele>66.2</ele>
        <time>2013-04-01T19:22:05.000Z</time>
      </trkpt>
      <trkpt lat="48.8779" lon="2.32276">
        <ele>66</ele>
        <time>2013-04-01T19:22:06.000Z</time>
      </trkpt>
      <trkpt lat="48.87793" lon="2.32275">
        <ele>65.8</ele>
        <time>2013-04-01T19:22:07.000Z</time>
      </trkpt>
      <trkpt lat="48.87796" lon="2.32273">
        <ele>65.7</ele>
        <time>2013-04-01T19:22:08.000Z</time>
      </trkpt>
      <trkpt lat="48.87799" lon="2.32272">
        <ele>66</ele>
        <time>2013-04-01T19:22:09.000Z</time>
      </trkpt>
      <trkpt lat="48.87803" lon="2.3227">
        <ele>65.4</ele>
        <time>2013-04-01T19:22:10.000Z</time>
      </trkpt>
      <trkpt lat="48.87806" lon="2.32268">
        <ele>65.1</ele>
        <time>2013-04-01T19:22:11.000Z</time>
      </trkpt>
      <trkpt lat="48.87809" lon="2.32267">
        <ele>65.7</ele>
        <time>2013-04-01T19:22:12.000Z</time>
      </trkpt>
      <trkpt lat="48.87812" lon="2.32264">
        <ele>65</ele>
        <time>2013-04-01T19:22:13.000Z</time>
      </trkpt>
      <trkpt lat="48.87816" lon="2.32263">
        <ele>65.4</ele>
        <time>2013-04-01T19:22:14.000Z</time>
      </trkpt>
      <trkpt lat="48.8782" lon="2.32261">
        <ele>66.5</ele>
        <time>2013-04-01T19:22:15.000Z</time>
      </trkpt>
      <trkpt lat="48.87823" lon="2.32259">
        <ele>67.1</ele>
        <time>2013-04-01T19:22:16.000Z</time>
      </trkpt>
      <trkpt lat="48.87827" lon="2.32257">
        <ele>68.2</ele>
        <time>2013-04-01T19:22:17.000Z</time>
      </trkpt>
      <trkpt lat="48.87831" lon="2.32255">
        <ele>67.9</ele>
        <time>2013-04-01T19:22:18.000Z</time>
      </trkpt>
      <trkpt lat="48.87835" lon="2.32252">
        <ele>68.2</ele>
        <time>2013-04-01T19:22:19.000Z</time>
      </trkpt>
      <trkpt lat="48.87839" lon="2.32249">
        <ele>69.1</ele>
        <time>2013-04-01T19:22:20.000Z</time>
      </trkpt>
      <trkpt lat="48.87844" lon="2.32246">
        <ele>69.3</ele>
        <time>2013-04-01T19:22:21.000Z</time>
      </trkpt>
      <trkpt lat="48.87848" lon="2.32244">
        <ele>69.4</ele>
        <time>2013-04-01T19:22:22.000Z</time>
      </trkpt>
      <trkpt lat="48.87852" lon="2.32242">
        <ele>69.6</ele>
        <time>2013-04-01T19:22:23.000Z</time>
      </trkpt>
      <trkpt lat="48.87856" lon="2.32241">
        <ele>69.8</ele>
        <time>2013-04-01T19:22:24.000Z</time>
      </trkpt>
      <trkpt lat="48.87858" lon="2.32239">
        <ele>70.6</ele>
        <time>2013-04-01T19:22:25.000Z</time>
      </trkpt>
      <trkpt lat="48.8786" lon="2.32238">
        <ele>70.5</ele>
        <time>2013-04-01T19:22:26.000Z</time>
      </trkpt>
      <trkpt lat="48.87862" lon="2.32236">
        <ele>70.8</ele>
        <time>2013-04-01T19:22:27.000Z</time>
      </trkpt>
      <trkpt lat="48.87865" lon="2.32234">
        <ele>69.9</ele>
        <time>2013-04-01T19:22:28.000Z</time>
      </trkpt>
      <trkpt lat="48.87867" lon="2.32233">
        <ele>67.2</ele>
        <time>2013-04-01T19:22:29.000Z</time>
      </trkpt>
      <trkpt lat="48.87871" lon="2.32231">
        <ele>62</ele>
        <time>2013-04-01T19:22:30.000Z</time>
      </trkpt>
      <trkpt lat="48.87875" lon="2.32229">
        <ele>58.9</ele>
        <time>2013-04-01T19:22:31.000Z</time>
      </trkpt>
      <trkpt lat="48.8788" lon="2.32226">
        <ele>58.7</ele>
        <time>2013-04-01T19:22:32.000Z</time>
      </trkpt>
      <trkpt lat="48.87884" lon="2.32224">
        <ele>60.7</ele>
        <time>2013-04-01T19:22:33.000Z</time>
      </trkpt>
      <trkpt lat="48.87888" lon="2.32221">
        <ele>60.5</ele>
        <time>2013-04-01T19:22:34.000Z</time>
      </trkpt>
      <trkpt lat="48.87891" lon="2.32218">
        <ele>59.2</ele>
        <time>2013-04-01T19:22:35.000Z</time>
      </trkpt>
      <trkpt lat="48.87895" lon="2.32216">
        <ele>58.4</ele>
        <time>2013-04-01T19:22:36.000Z</time>
      </trkpt>
      <trkpt lat="48.87898" lon="2.32213">
        <ele>63.7</ele>
        <time>2013-04-01T19:22:37.000Z</time>
      </trkpt>
      <trkpt lat="48.87902" lon="2.32211">
        <ele>62.6</ele>
        <time>2013-04-01T19:22:38.000Z</time>
      </trkpt>
      <trkpt lat="48.87905" lon="2.32208">
        <ele>61.7</ele>
        <time>2013-04-01T19:22:39.000Z</time>
      </trkpt>
      <trkpt lat="48.87908" lon="2.32204">
        <ele>60.4</ele>
        <time>2013-04-01T19:22:40.000Z</time>
      </trkpt>
      <trkpt lat="48.87912" lon="2.322">
        <ele>59.3</ele>
        <time>2013-04-01T19:22:41.000Z</time>
      </trkpt>
      <trkpt lat="48.87915" lon="2.32195">
        <ele>59.1</ele>
        <time>2013-04-01T19:22:42.000Z</time>
      </trkpt>
      <trkpt lat="48.87918" lon="2.32191">
        <ele>59.2</ele>
        <time>2013-04-01T19:22:43.000Z</time>
      </trkpt>
      <trkpt lat="48.87922" lon="2.32186">
        <ele>59.5</ele>
        <time>2013-04-01T19:22:44.000Z</time>
      </trkpt>
      <trkpt lat="48.87926" lon="2.32181">
        <ele>60.6</ele>
        <time>2013-04-01T19:22:45.000Z</time>
      </trkpt>
      <trkpt lat="48.8793" lon="2.32175">
        <ele>59.9</ele>
        <time>2013-04-01T19:22:46.000Z</time>
      </trkpt>
      <trkpt lat="48.87934" lon="2.32169">
        <ele>60.5</ele>
        <time>2013-04-01T19:22:47.000Z</time>
      </trkpt>
      <trkpt lat="48.87937" lon="2.32162">
        <ele>61.2</ele>
        <time>2013-04-01T19:22:48.000Z</time>
      </trkpt>
      <trkpt lat="48.87941" lon="2.32156">
        <ele>63</ele>
        <time>2013-04-01T19:22:49.000Z</time>
      </trkpt>
      <trkpt lat="48.87944" lon="2.32149">
        <ele>64.8</ele>
        <time>2013-04-01T19:22:50.000Z</time>
      </trkpt>
      <trkpt lat="48.87947" lon="2.32142">
        <ele>66.1</ele>
        <time>2013-04-01T19:22:51.000Z</time>
      </trkpt>
      <trkpt lat="48.8795" lon="2.32136">
        <ele>67.3</ele>
        <time>2013-04-01T19:22:52.000Z</time>
      </trkpt>
      <trkpt lat="48.87954" lon="2.3213">
        <ele>68.7</ele>
        <time>2013-04-01T19:22:53.000Z</time>
      </trkpt>
      <trkpt lat="48.87957" lon="2.32124">
        <ele>69.1</ele>
        <time>2013-04-01T19:22:54.000Z</time>
      </trkpt>
      <trkpt lat="48.87961" lon="2.32119">
        <ele>70.2</ele>
        <time>2013-04-01T19:22:55.000Z</time>
      </trkpt>
      <trkpt lat="48.87964" lon="2.32115">
        <ele>68</ele>
        <time>2013-04-01T19:22:56.000Z</time>
      </trkpt>
      <trkpt lat="48.87966" lon="2.32113">
        <ele>66.3</ele>
        <time>2013-04-01T19:22:57.000Z</time>
      </trkpt>
      <trkpt lat="48.87969" lon="2.32111">
        <ele>65.4</ele>
        <time>2013-04-01T19:22:58.000Z</time>
      </trkpt>
      <trkpt lat="48.87971" lon="2.32109">
        <ele>65.2</ele>
        <time>2013-04-01T19:22:59.000Z</time>
      </trkpt>
      <trkpt lat="48.87973" lon="2.32105">
        <ele>65</ele>
        <time>2013-04-01T19:23:00.000Z</time>
      </trkpt>
      <trkpt lat="48.87974" lon="2.321">
        <ele>65.2</ele>
        <time>2013-04-01T19:23:01.000Z</time>
      </trkpt>
      <trkpt lat="48.87975" lon="2.32095">
        <ele>65.9</ele>
        <time>2013-04-01T19:23:02.000Z</time>
      </trkpt>
      <trkpt lat="48.87976" lon="2.32088">
        <ele>65.7</ele>
        <time>2013-04-01T19:23:03.000Z</time>
      </trkpt>
      <trkpt lat="48.87977" lon="2.32082">
        <ele>66</ele>
        <time>2013-04-01T19:23:04.000Z</time>
      </trkpt>
      <trkpt lat="48.87979" lon="2.32077">
        <ele>62.1</ele>
        <time>2013-04-01T19:23:05.000Z</time>
      </trkpt>
      <trkpt lat="48.87982" lon="2.32074">
        <ele>60.8</ele>
        <time>2013-04-01T19:23:06.000Z</time>
      </trkpt>
      <trkpt lat="48.87985" lon="2.32071">
        <ele>59.3</ele>
        <time>2013-04-01T19:23:07.000Z</time>
      </trkpt>
      <trkpt lat="48.87988" lon="2.32067">
        <ele>59.5</ele>
        <time>2013-04-01T19:23:08.000Z</time>
      </trkpt>
      <trkpt lat="48.87991" lon="2.32062">
        <ele>59.5</ele>
        <time>2013-04-01T19:23:09.000Z</time>
      </trkpt>
      <trkpt lat="48.87994" lon="2.32056">
        <ele>60.3</ele>
        <time>2013-04-01T19:23:10.000Z</time>
      </trkpt>
      <trkpt lat="48.87997" lon="2.32051">
        <ele>58.6</ele>
        <time>2013-04-01T19:23:11.000Z</time>
      </trkpt>
      <trkpt lat="48.87999" lon="2.32047">
        <ele>56.1</ele>
        <time>2013-04-01T19:23:12.000Z</time>
      </trkpt>
      <trkpt lat="48.88002" lon="2.32043">
        <ele>54.6</ele>
        <time>2013-04-01T19:23:13.000Z</time>
      </trkpt>
      <trkpt lat="48.88003" lon="2.32039">
        <ele>51.8</ele>
        <time>2013-04-01T19:23:14.000Z</time>
      </trkpt>
      <trkpt lat="48.88004" lon="2.32035">
        <ele>47.7</ele>
        <time>2013-04-01T19:23:15.000Z</time>
      </trkpt>
      <trkpt lat="48.88004" lon="2.32031">
        <ele>45.2</ele>
        <time>2013-04-01T19:23:16.000Z</time>
      </trkpt>
      <trkpt lat="48.88005" lon="2.32026">
        <ele>42.4</ele>
        <time>2013-04-01T19:23:17.000Z</time>
      </trkpt>
      <trkpt lat="48.88006" lon="2.32021">
        <ele>40.7</ele>
        <time>2013-04-01T19:23:18.000Z</time>
      </trkpt>
      <trkpt lat="48.88007" lon="2.32015">
        <ele>40.4</ele>
        <time>2013-04-01T19:23:19.000Z</time>
      </trkpt>
      <trkpt lat="48.88009" lon="2.32009">
        <ele>42.2</ele>
        <time>2013-04-01T19:23:20.000Z</time>
      </trkpt>
      <trkpt lat="48.88012" lon="2.32002">
        <ele>43.2</ele>
        <time>2013-04-01T19:23:21.000Z</time>
      </trkpt>
      <trkpt lat="48.88015" lon="2.31995">
        <ele>45.4</ele>
        <time>2013-04-01T19:23:22.000Z</time>
      </trkpt>
      <trkpt lat="48.88018" lon="2.31987">
        <ele>47</ele>
        <time>2013-04-01T19:23:23.000Z</time>
      </trkpt>
      <trkpt lat="48.88024" lon="2.31974">
        <ele>48.2</ele>
        <time>2013-04-01T19:23:24.000Z</time>
      </trkpt>
      <trkpt lat="48.88027" lon="2.31968">
        <ele>49.5</ele>
        <time>2013-04-01T19:23:25.000Z</time>
      </trkpt>
      <trkpt lat="48.8803" lon="2.31961">
        <ele>51.1</ele>
        <time>2013-04-01T19:23:26.000Z</time>
      </trkpt>
      <trkpt lat="48.88033" lon="2.31955">
        <ele>52.4</ele>
        <time>2013-04-01T19:23:27.000Z</time>
      </trkpt>
      <trkpt lat="48.88036" lon="2.31948">
        <ele>53.1</ele>
        <time>2013-04-01T19:23:28.000Z</time>
      </trkpt>
      <trkpt lat="48.88039" lon="2.31941">
        <ele>54.4</ele>
        <time>2013-04-01T19:23:29.000Z</time>
      </trkpt>
      <trkpt lat="48.88042" lon="2.31933">
        <ele>56.4</ele>
        <time>2013-04-01T19:23:30.000Z</time>
      </trkpt>
      <trkpt lat="48.88042" lon="2.31926">
        <ele>57.7</ele>
        <time>2013-04-01T19:23:31.000Z</time>
      </trkpt>
      <trkpt lat="48.88045" lon="2.31919">
        <ele>58.2</ele>
        <time>2013-04-01T19:23:32.000Z</time>
      </trkpt>
      <trkpt lat="48.88049" lon="2.31912">
        <ele>58.9</ele>
        <time>2013-04-01T19:23:33.000Z</time>
      </trkpt>
      <trkpt lat="48.88051" lon="2.31906">
        <ele>60</ele>
        <time>2013-04-01T19:23:34.000Z</time>
      </trkpt>
      <trkpt lat="48.88055" lon="2.319">
        <ele>61.6</ele>
        <time>2013-04-01T19:23:35.000Z</time>
      </trkpt>
      <trkpt lat="48.88058" lon="2.31892">
        <ele>62.8</ele>
        <time>2013-04-01T19:23:36.000Z</time>
      </trkpt>
      <trkpt lat="48.88059" lon="2.31885">
        <ele>63.3</ele>
        <time>2013-04-01T19:23:37.000Z</time>
      </trkpt>
      <trkpt lat="48.88062" lon="2.31879">
        <ele>64.1</ele>
        <time>2013-04-01T19:23:38.000Z</time>
      </trkpt>
      <trkpt lat="48.88062" lon="2.31868">
        <ele>67</ele>
        <time>2013-04-01T19:23:39.000Z</time>
      </trkpt>
      <trkpt lat="48.88063" lon="2.31859">
        <ele>68.1</ele>
        <time>2013-04-01T19:23:40.000Z</time>
      </trkpt>
      <trkpt lat="48.88065" lon="2.31852">
        <ele>69.2</ele>
        <time>2013-04-01T19:23:41.000Z</time>
      </trkpt>
      <trkpt lat="48.88067" lon="2.31845">
        <ele>70.1</ele>
        <time>2013-04-01T19:23:42.000Z</time>
      </trkpt>
      <trkpt lat="48.88069" lon="2.31838">
        <ele>70.5</ele>
        <time>2013-04-01T19:23:43.000Z</time>
      </trkpt>
      <trkpt lat="48.88072" lon="2.31831">
        <ele>71.3</ele>
        <time>2013-04-01T19:23:44.000Z</time>
      </trkpt>
      <trkpt lat="48.88076" lon="2.31823">
        <ele>72.2</ele>
        <time>2013-04-01T19:23:45.000Z</time>
      </trkpt>
      <trkpt lat="48.88078" lon="2.31816">
        <ele>72.3</ele>
        <time>2013-04-01T19:23:46.000Z</time>
      </trkpt>
      <trkpt lat="48.88081" lon="2.31809">
        <ele>72.7</ele>
        <time>2013-04-01T19:23:47.000Z</time>
      </trkpt>
      <trkpt lat="48.88084" lon="2.31801">
        <ele>73.9</ele>
        <time>2013-04-01T19:23:48.000Z</time>
      </trkpt>
      <trkpt lat="48.88088" lon="2.31795">
        <ele>79</ele>
        <time>2013-04-01T19:23:49.000Z</time>
      </trkpt>
      <trkpt lat="48.88091" lon="2.31787">
        <ele>79.3</ele>
        <time>2013-04-01T19:23:50.000Z</time>
      </trkpt>
      <trkpt lat="48.88094" lon="2.31779">
        <ele>80.2</ele>
        <time>2013-04-01T19:23:51.000Z</time>
      </trkpt>
      <trkpt lat="48.88096" lon="2.31772">
        <ele>81.7</ele>
        <time>2013-04-01T19:23:52.000Z</time>
      </trkpt>
      <trkpt lat="48.88097" lon="2.31763">
        <ele>82.7</ele>
        <time>2013-04-01T19:23:53.000Z</time>
      </trkpt>
      <trkpt lat="48.881" lon="2.31757">
        <ele>82.4</ele>
        <time>2013-04-01T19:23:54.000Z</time>
      </trkpt>
      <trkpt lat="48.88102" lon="2.31751">
        <ele>82</ele>
        <time>2013-04-01T19:23:55.000Z</time>
      </trkpt>
      <trkpt lat="48.88104" lon="2.31745">
        <ele>82.2</ele>
        <time>2013-04-01T19:23:56.000Z</time>
      </trkpt>
      <trkpt lat="48.88105" lon="2.3174">
        <ele>81.7</ele>
        <time>2013-04-01T19:23:57.000Z</time>
      </trkpt>
      <trkpt lat="48.88107" lon="2.31736">
        <ele>81</ele>
        <time>2013-04-01T19:23:58.000Z</time>
      </trkpt>
      <trkpt lat="48.88107" lon="2.31729">
        <ele>82.1</ele>
        <time>2013-04-01T19:23:59.000Z</time>
      </trkpt>
      <trkpt lat="48.88107" lon="2.31722">
        <ele>83.1</ele>
        <time>2013-04-01T19:24:00.000Z</time>
      </trkpt>
      <trkpt lat="48.88108" lon="2.31717">
        <ele>83.8</ele>
        <time>2013-04-01T19:24:01.000Z</time>
      </trkpt>
      <trkpt lat="48.88109" lon="2.31712">
        <ele>84.1</ele>
        <time>2013-04-01T19:24:02.000Z</time>
      </trkpt>
      <trkpt lat="48.88108" lon="2.31708">
        <ele>84.7</ele>
        <time>2013-04-01T19:24:03.000Z</time>
      </trkpt>
      <trkpt lat="48.88109" lon="2.31704">
        <ele>85.4</ele>
        <time>2013-04-01T19:24:04.000Z</time>
      </trkpt>
      <trkpt lat="48.88109" lon="2.31699">
        <ele>86.7</ele>
        <time>2013-04-01T19:24:05.000Z</time>
      </trkpt>
      <trkpt lat="48.8811" lon="2.31695">
        <ele>87.6</ele>
        <time>2013-04-01T19:24:06.000Z</time>
      </trkpt>
      <trkpt lat="48.88107" lon="2.31691">
        <ele>87.1</ele>
        <time>2013-04-01T19:24:07.000Z</time>
      </trkpt>
      <trkpt lat="48.88104" lon="2.31688">
        <ele>86.6</ele>
        <time>2013-04-01T19:24:08.000Z</time>
      </trkpt>
      <trkpt lat="48.88101" lon="2.31687">
        <ele>86.3</ele>
        <time>2013-04-01T19:24:09.000Z</time>
      </trkpt>
      <trkpt lat="48.88098" lon="2.31686">
        <ele>86.4</ele>
        <time>2013-04-01T19:24:10.000Z</time>
      </trkpt>
      <trkpt lat="48.88095" lon="2.31686">
        <ele>86.7</ele>
        <time>2013-04-01T19:24:11.000Z</time>
      </trkpt>
      <trkpt lat="48.88092" lon="2.31686">
        <ele>86.4</ele>
        <time>2013-04-01T19:24:12.000Z</time>
      </trkpt>
      <trkpt lat="48.88089" lon="2.31687">
        <ele>86.6</ele>
        <time>2013-04-01T19:24:13.000Z</time>
      </trkpt>
      <trkpt lat="48.88086" lon="2.31688">
        <ele>85.6</ele>
        <time>2013-04-01T19:24:15.000Z</time>
      </trkpt>
      <trkpt lat="48.88084" lon="2.31688">
        <ele>83.8</ele>
        <time>2013-04-01T19:24:16.000Z</time>
      </trkpt>
      <trkpt lat="48.8808" lon="2.31687">
        <ele>82.2</ele>
        <time>2013-04-01T19:24:18.000Z</time>
      </trkpt>
      <trkpt lat="48.88078" lon="2.31685">
        <ele>82.3</ele>
        <time>2013-04-01T19:24:19.000Z</time>
      </trkpt>
      <trkpt lat="48.88075" lon="2.31682">
        <ele>83.4</ele>
        <time>2013-04-01T19:24:20.000Z</time>
      </trkpt>
      <trkpt lat="48.88072" lon="2.31679">
        <ele>83.1</ele>
        <time>2013-04-01T19:24:21.000Z</time>
      </trkpt>
      <trkpt lat="48.88069" lon="2.31675">
        <ele>83.4</ele>
        <time>2013-04-01T19:24:22.000Z</time>
      </trkpt>
      <trkpt lat="48.88066" lon="2.31672">
        <ele>83.4</ele>
        <time>2013-04-01T19:24:23.000Z</time>
      </trkpt>
      <trkpt lat="48.88063" lon="2.31668">
        <ele>84.1</ele>
        <time>2013-04-01T19:24:24.000Z</time>
      </trkpt>
      <trkpt lat="48.88061" lon="2.31664">
        <ele>83.9</ele>
        <time>2013-04-01T19:24:25.000Z</time>
      </trkpt>
      <trkpt lat="48.88059" lon="2.31661">
        <ele>84.1</ele>
        <time>2013-04-01T19:24:26.000Z</time>
      </trkpt>
      <trkpt lat="48.88057" lon="2.31657">
        <ele>84</ele>
        <time>2013-04-01T19:24:27.000Z</time>
      </trkpt>
      <trkpt lat="48.88055" lon="2.31654">
        <ele>84.6</ele>
        <time>2013-04-01T19:24:28.000Z</time>
      </trkpt>
      <trkpt lat="48.88053" lon="2.31651">
        <ele>85.1</ele>
        <time>2013-04-01T19:24:29.000Z</time>
      </trkpt>
      <trkpt lat="48.88051" lon="2.31645">
        <ele>85.4</ele>
        <time>2013-04-01T19:24:31.000Z</time>
      </trkpt>
      <trkpt lat="48.8805" lon="2.31642">
        <ele>86.3</ele>
        <time>2013-04-01T19:24:32.000Z</time>
      </trkpt>
      <trkpt lat="48.88049" lon="2.31636">
        <ele>87.5</ele>
        <time>2013-04-01T19:24:34.000Z</time>
      </trkpt>
      <trkpt lat="48.88049" lon="2.31633">
        <ele>87.4</ele>
        <time>2013-04-01T19:24:35.000Z</time>
      </trkpt>
      <trkpt lat="48.88048" lon="2.31627">
        <ele>88.8</ele>
        <time>2013-04-01T19:24:38.000Z</time>
      </trkpt>
      <trkpt lat="48.88048" lon="2.31624">
        <ele>89.1</ele>
        <time>2013-04-01T19:24:39.000Z</time>
      </trkpt>
      <trkpt lat="48.88046" lon="2.31621">
        <ele>89.5</ele>
        <time>2013-04-01T19:24:40.000Z</time>
      </trkpt>
      <trkpt lat="48.88044" lon="2.31618">
        <ele>89.6</ele>
        <time>2013-04-01T19:24:41.000Z</time>
      </trkpt>
      <trkpt lat="48.88043" lon="2.31615">
        <ele>89.5</ele>
        <time>2013-04-01T19:24:42.000Z</time>
      </trkpt>
      <trkpt lat="48.88041" lon="2.31612">
        <ele>90.1</ele>
        <time>2013-04-01T19:24:43.000Z</time>
      </trkpt>
      <trkpt lat="48.88039" lon="2.31609">
        <ele>90.2</ele>
        <time>2013-04-01T19:24:44.000Z</time>
      </trkpt>
      <trkpt lat="48.88038" lon="2.31606">
        <ele>90</ele>
        <time>2013-04-01T19:24:45.000Z</time>
      </trkpt>
      <trkpt lat="48.88036" lon="2.31602">
        <ele>90.1</ele>
        <time>2013-04-01T19:24:46.000Z</time>
      </trkpt>
      <trkpt lat="48.88034" lon="2.31598">
        <ele>90.5</ele>
        <time>2013-04-01T19:24:47.000Z</time>
      </trkpt>
      <trkpt lat="48.88032" lon="2.31593">
        <ele>90.4</ele>
        <time>2013-04-01T19:24:48.000Z</time>
      </trkpt>
      <trkpt lat="48.8803" lon="2.31588">
        <ele>90.4</ele>
        <time>2013-04-01T19:24:49.000Z</time>
      </trkpt>
      <trkpt lat="48.88028" lon="2.31584">
        <ele>90.6</ele>
        <time>2013-04-01T19:24:50.000Z</time>
      </trkpt>
      <trkpt lat="48.88026" lon="2.31581">
        <ele>90.9</ele>
        <time>2013-04-01T19:24:51.000Z</time>
      </trkpt>
      <trkpt lat="48.88024" lon="2.31578">
        <ele>91.1</ele>
        <time>2013-04-01T19:24:52.000Z</time>
      </trkpt>
      <trkpt lat="48.88022" lon="2.31575">
        <ele>91.1</ele>
        <time>2013-04-01T19:24:53.000Z</time>
      </trkpt>
      <trkpt lat="48.8802" lon="2.31572">
        <ele>91.2</ele>
        <time>2013-04-01T19:24:54.000Z</time>
      </trkpt>
      <trkpt lat="48.88018" lon="2.31569">
        <ele>91.9</ele>
        <time>2013-04-01T19:24:55.000Z</time>
      </trkpt>
      <trkpt lat="48.88015" lon="2.31567">
        <ele>93</ele>
        <time>2013-04-01T19:24:56.000Z</time>
      </trkpt>
      <trkpt lat="48.88013" lon="2.31565">
        <ele>93.7</ele>
        <time>2013-04-01T19:24:57.000Z</time>
      </trkpt>
      <trkpt lat="48.8801" lon="2.31562">
        <ele>93.8</ele>
        <time>2013-04-01T19:24:58.000Z</time>
      </trkpt>
      <trkpt lat="48.88008" lon="2.31559">
        <ele>93.2</ele>
        <time>2013-04-01T19:24:59.000Z</time>
      </trkpt>
      <trkpt lat="48.88005" lon="2.31556">
        <ele>87.7</ele>
        <time>2013-04-01T19:25:00.000Z</time>
      </trkpt>
      <trkpt lat="48.88003" lon="2.31553">
        <ele>89.7</ele>
        <time>2013-04-01T19:25:01.000Z</time>
      </trkpt>
      <trkpt lat="48.87999" lon="2.31556">
        <ele>91.9</ele>
        <time>2013-04-01T19:25:04.000Z</time>
      </trkpt>
      <trkpt lat="48.87997" lon="2.31555">
        <ele>91.4</ele>
        <time>2013-04-01T19:25:05.000Z</time>
      </trkpt>
      <trkpt lat="48.87995" lon="2.31553">
        <ele>92.9</ele>
        <time>2013-04-01T19:25:06.000Z</time>
      </trkpt>
      <trkpt lat="48.87993" lon="2.31549">
        <ele>94.1</ele>
        <time>2013-04-01T19:25:07.000Z</time>
      </trkpt>
      <trkpt lat="48.87991" lon="2.31546">
        <ele>94.5</ele>
        <time>2013-04-01T19:25:08.000Z</time>
      </trkpt>
      <trkpt lat="48.87988" lon="2.31542">
        <ele>95.9</ele>
        <time>2013-04-01T19:25:09.000Z</time>
      </trkpt>
      <trkpt lat="48.87986" lon="2.31538">
        <ele>96.7</ele>
        <time>2013-04-01T19:25:10.000Z</time>
      </trkpt>
      <trkpt lat="48.87984" lon="2.31534">
        <ele>97.8</ele>
        <time>2013-04-01T19:25:11.000Z</time>
      </trkpt>
      <trkpt lat="48.87981" lon="2.31531">
        <ele>97.5</ele>
        <time>2013-04-01T19:25:12.000Z</time>
      </trkpt>
      <trkpt lat="48.87979" lon="2.31528">
        <ele>97.8</ele>
        <time>2013-04-01T19:25:13.000Z</time>
      </trkpt>
      <trkpt lat="48.87976" lon="2.31526">
        <ele>97.6</ele>
        <time>2013-04-01T19:25:14.000Z</time>
      </trkpt>
      <trkpt lat="48.87974" lon="2.31523">
        <ele>97.6</ele>
        <time>2013-04-01T19:25:15.000Z</time>
      </trkpt>
      <trkpt lat="48.87971" lon="2.31519">
        <ele>96.5</ele>
        <time>2013-04-01T19:25:16.000Z</time>
      </trkpt>
      <trkpt lat="48.87969" lon="2.31516">
        <ele>95.7</ele>
        <time>2013-04-01T19:25:17.000Z</time>
      </trkpt>
      <trkpt lat="48.87967" lon="2.31513">
        <ele>94.6</ele>
        <time>2013-04-01T19:25:18.000Z</time>
      </trkpt>
      <trkpt lat="48.87967" lon="2.31507">
        <ele>93.9</ele>
        <time>2013-04-01T19:25:19.000Z</time>
      </trkpt>
      <trkpt lat="48.87972" lon="2.31476">
        <ele>91.4</ele>
        <time>2013-04-01T19:25:20.000Z</time>
      </trkpt>
      <trkpt lat="48.87971" lon="2.31469">
        <ele>92.3</ele>
        <time>2013-04-01T19:25:21.000Z</time>
      </trkpt>
      <trkpt lat="48.8797" lon="2.31465">
        <ele>92.7</ele>
        <time>2013-04-01T19:25:22.000Z</time>
      </trkpt>
      <trkpt lat="48.87969" lon="2.3146">
        <ele>93.7</ele>
        <time>2013-04-01T19:25:23.000Z</time>
      </trkpt>
      <trkpt lat="48.87969" lon="2.31456">
        <ele>94.1</ele>
        <time>2013-04-01T19:25:24.000Z</time>
      </trkpt>
      <trkpt lat="48.8797" lon="2.31452">
        <ele>94.6</ele>
        <time>2013-04-01T19:25:25.000Z</time>
      </trkpt>
      <trkpt lat="48.87971" lon="2.31449">
        <ele>95.3</ele>
        <time>2013-04-01T19:25:26.000Z</time>
      </trkpt>
      <trkpt lat="48.87975" lon="2.31445">
        <ele>96.6</ele>
        <time>2013-04-01T19:25:28.000Z</time>
      </trkpt>
      <trkpt lat="48.87975" lon="2.31444">
        <ele>97.1</ele>
        <time>2013-04-01T19:25:29.000Z</time>
      </trkpt>
      <trkpt lat="48.87974" lon="2.31438">
        <ele>100.7</ele>
        <time>2013-04-01T19:25:40.000Z</time>
      </trkpt>
      <trkpt lat="48.87974" lon="2.31438">
        <ele>101.2</ele>
        <time>2013-04-01T19:25:41.000Z</time>
      </trkpt>
      <trkpt lat="48.87975" lon="2.31432">
        <ele>101.7</ele>
        <time>2013-04-01T19:25:55.000Z</time>
      </trkpt>
      <trkpt lat="48.87978" lon="2.31429">
        <ele>101.4</ele>
        <time>2013-04-01T19:25:56.000Z</time>
      </trkpt>
      <trkpt lat="48.8798" lon="2.31425">
        <ele>101.3</ele>
        <time>2013-04-01T19:25:57.000Z</time>
      </trkpt>
      <trkpt lat="48.87982" lon="2.31421">
        <ele>101.5</ele>
        <time>2013-04-01T19:25:58.000Z</time>
      </trkpt>
      <trkpt lat="48.87985" lon="2.31417">
        <ele>101.5</ele>
        <time>2013-04-01T19:25:59.000Z</time>
      </trkpt>
      <trkpt lat="48.87987" lon="2.31413">
        <ele>101.2</ele>
        <time>2013-04-01T19:26:00.000Z</time>
      </trkpt>
      <trkpt lat="48.8799" lon="2.31409">
        <ele>101.2</ele>
        <time>2013-04-01T19:26:01.000Z</time>
      </trkpt>
      <trkpt lat="48.87993" lon="2.31405">
        <ele>101.3</ele>
        <time>2013-04-01T19:26:02.000Z</time>
      </trkpt>
      <trkpt lat="48.87996" lon="2.31401">
        <ele>101.4</ele>
        <time>2013-04-01T19:26:03.000Z</time>
      </trkpt>
      <trkpt lat="48.87999" lon="2.31397">
        <ele>101.3</ele>
        <time>2013-04-01T19:26:04.000Z</time>
      </trkpt>
      <trkpt lat="48.88001" lon="2.31393">
        <ele>101.6</ele>
        <time>2013-04-01T19:26:05.000Z</time>
      </trkpt>
      <trkpt lat="48.88004" lon="2.31388">
        <ele>103.2</ele>
        <time>2013-04-01T19:26:06.000Z</time>
      </trkpt>
      <trkpt lat="48.88006" lon="2.31384">
        <ele>103.1</ele>
        <time>2013-04-01T19:26:07.000Z</time>
      </trkpt>
      <trkpt lat="48.88009" lon="2.3138">
        <ele>102.7</ele>
        <time>2013-04-01T19:26:08.000Z</time>
      </trkpt>
      <trkpt lat="48.88012" lon="2.31376">
        <ele>102.6</ele>
        <time>2013-04-01T19:26:09.000Z</time>
      </trkpt>
      <trkpt lat="48.88015" lon="2.31373">
        <ele>102.4</ele>
        <time>2013-04-01T19:26:10.000Z</time>
      </trkpt>
      <trkpt lat="48.88018" lon="2.31371">
        <ele>103.4</ele>
        <time>2013-04-01T19:26:11.000Z</time>
      </trkpt>
      <trkpt lat="48.88021" lon="2.31368">
        <ele>103.7</ele>
        <time>2013-04-01T19:26:12.000Z</time>
      </trkpt>
      <trkpt lat="48.88024" lon="2.31365">
        <ele>103.3</ele>
        <time>2013-04-01T19:26:13.000Z</time>
      </trkpt>
      <trkpt lat="48.88027" lon="2.31361">
        <ele>104.7</ele>
        <time>2013-04-01T19:26:14.000Z</time>
      </trkpt>
      <trkpt lat="48.8803" lon="2.31356">
        <ele>103.9</ele>
        <time>2013-04-01T19:26:15.000Z</time>
      </trkpt>
      <trkpt lat="48.88032" lon="2.31351">
        <ele>103.7</ele>
        <time>2013-04-01T19:26:16.000Z</time>
      </trkpt>
      <trkpt lat="48.88035" lon="2.31346">
        <ele>103.4</ele>
        <time>2013-04-01T19:26:17.000Z</time>
      </trkpt>
      <trkpt lat="48.88037" lon="2.31342">
        <ele>103</ele>
        <time>2013-04-01T19:26:18.000Z</time>
      </trkpt>
      <trkpt lat="48.88039" lon="2.31338">
        <ele>102.4</ele>
        <time>2013-04-01T19:26:19.000Z</time>
      </trkpt>
      <trkpt lat="48.88042" lon="2.31333">
        <ele>103</ele>
        <time>2013-04-01T19:26:20.000Z</time>
      </trkpt>
      <trkpt lat="48.88044" lon="2.31329">
        <ele>102.2</ele>
        <time>2013-04-01T19:26:21.000Z</time>
      </trkpt>
      <trkpt lat="48.88046" lon="2.31325">
        <ele>102.2</ele>
        <time>2013-04-01T19:26:22.000Z</time>
      </trkpt>
      <trkpt lat="48.88048" lon="2.31322">
        <ele>102.6</ele>
        <time>2013-04-01T19:26:23.000Z</time>
      </trkpt>
      <trkpt lat="48.8805" lon="2.31318">
        <ele>102.5</ele>
        <time>2013-04-01T19:26:24.000Z</time>
      </trkpt>
      <trkpt lat="48.88052" lon="2.31313">
        <ele>102.4</ele>
        <time>2013-04-01T19:26:25.000Z</time>
      </trkpt>
      <trkpt lat="48.88053" lon="2.31309">
        <ele>101.9</ele>
        <time>2013-04-01T19:26:26.000Z</time>
      </trkpt>
      <trkpt lat="48.88055" lon="2.31304">
        <ele>102.1</ele>
        <time>2013-04-01T19:26:27.000Z</time>
      </trkpt>
      <trkpt lat="48.88056" lon="2.31299">
        <ele>101.8</ele>
        <time>2013-04-01T19:26:28.000Z</time>
      </trkpt>
      <trkpt lat="48.88057" lon="2.31294">
        <ele>100.5</ele>
        <time>2013-04-01T19:26:29.000Z</time>
      </trkpt>
      <trkpt lat="48.88058" lon="2.3129">
        <ele>98.6</ele>
        <time>2013-04-01T19:26:30.000Z</time>
      </trkpt>
      <trkpt lat="48.88058" lon="2.31286">
        <ele>97.5</ele>
        <time>2013-04-01T19:26:31.000Z</time>
      </trkpt>
      <trkpt lat="48.88058" lon="2.31283">
        <ele>96.2</ele>
        <time>2013-04-01T19:26:32.000Z</time>
      </trkpt>
      <trkpt lat="48.8806" lon="2.31278">
        <ele>97.1</ele>
        <time>2013-04-01T19:26:35.000Z</time>
      </trkpt>
      <trkpt lat="48.8806" lon="2.31276">
        <ele>96.9</ele>
        <time>2013-04-01T19:26:36.000Z</time>
      </trkpt>
      <trkpt lat="48.88064" lon="2.31273">
        <ele>102.4</ele>
        <time>2013-04-01T19:26:41.000Z</time>
      </trkpt>
      <trkpt lat="48.88065" lon="2.31273">
        <ele>104.8</ele>
        <time>2013-04-01T19:26:42.000Z</time>
      </trkpt>
      <trkpt lat="48.88069" lon="2.31271">
        <ele>111.1</ele>
        <time>2013-04-01T19:26:45.000Z</time>
      </trkpt>
      <trkpt lat="48.88071" lon="2.31271">
        <ele>111.5</ele>
        <time>2013-04-01T19:26:46.000Z</time>
      </trkpt>
      <trkpt lat="48.88074" lon="2.3127">
        <ele>109.5</ele>
        <time>2013-04-01T19:26:53.000Z</time>
      </trkpt>
      <trkpt lat="48.88076" lon="2.31268">
        <ele>108.8</ele>
        <time>2013-04-01T19:26:54.000Z</time>
      </trkpt>
      <trkpt lat="48.8808" lon="2.31264">
        <ele>106.9</ele>
        <time>2013-04-01T19:26:56.000Z</time>
      </trkpt>
      <trkpt lat="48.88082" lon="2.31262">
        <ele>109.4</ele>
        <time>2013-04-01T19:26:57.000Z</time>
      </trkpt>
      <trkpt lat="48.88084" lon="2.3126">
        <ele>107.4</ele>
        <time>2013-04-01T19:26:58.000Z</time>
      </trkpt>
      <trkpt lat="48.88086" lon="2.31258">
        <ele>107</ele>
        <time>2013-04-01T19:26:59.000Z</time>
      </trkpt>
      <trkpt lat="48.8809" lon="2.31255">
        <ele>104</ele>
        <time>2013-04-01T19:27:01.000Z</time>
      </trkpt>
      <trkpt lat="48.88092" lon="2.31255">
        <ele>103.7</ele>
        <time>2013-04-01T19:27:02.000Z</time>
      </trkpt>
      <trkpt lat="48.88096" lon="2.31251">
        <ele>98.5</ele>
        <time>2013-04-01T19:27:05.000Z</time>
      </trkpt>
      <trkpt lat="48.88096" lon="2.3125">
        <ele>96.5</ele>
        <time>2013-04-01T19:27:06.000Z</time>
      </trkpt>
      <trkpt lat="48.88098" lon="2.31247">
        <ele>95.3</ele>
        <time>2013-04-01T19:27:09.000Z</time>
      </trkpt>
      <trkpt lat="48.88099" lon="2.31244">
        <ele>95.5</ele>
        <time>2013-04-01T19:27:10.000Z</time>
      </trkpt>
      <trkpt lat="48.88101" lon="2.31241">
        <ele>95.7</ele>
        <time>2013-04-01T19:27:11.000Z</time>
      </trkpt>
      <trkpt lat="48.88103" lon="2.31237">
        <ele>96</ele>
        <time>2013-04-01T19:27:12.000Z</time>
      </trkpt>
      <trkpt lat="48.88106" lon="2.31232">
        <ele>95.5</ele>
        <time>2013-04-01T19:27:13.000Z</time>
      </trkpt>
      <trkpt lat="48.88109" lon="2.31228">
        <ele>94.5</ele>
        <time>2013-04-01T19:27:14.000Z</time>
      </trkpt>
      <trkpt lat="48.88113" lon="2.31225">
        <ele>94.2</ele>
        <time>2013-04-01T19:27:15.000Z</time>
      </trkpt>
      <trkpt lat="48.88116" lon="2.31221">
        <ele>94.6</ele>
        <time>2013-04-01T19:27:16.000Z</time>
      </trkpt>
      <trkpt lat="48.8812" lon="2.31216">
        <ele>93.7</ele>
        <time>2013-04-01T19:27:17.000Z</time>
      </trkpt>
      <trkpt lat="48.88123" lon="2.31211">
        <ele>93.5</ele>
        <time>2013-04-01T19:27:18.000Z</time>
      </trkpt>
      <trkpt lat="48.88127" lon="2.31206">
        <ele>93.7</ele>
        <time>2013-04-01T19:27:19.000Z</time>
      </trkpt>
      <trkpt lat="48.8813" lon="2.31202">
        <ele>93</ele>
        <time>2013-04-01T19:27:20.000Z</time>
      </trkpt>
      <trkpt lat="48.88134" lon="2.31196">
        <ele>92.3</ele>
        <time>2013-04-01T19:27:21.000Z</time>
      </trkpt>
      <trkpt lat="48.88137" lon="2.31191">
        <ele>91.8</ele>
        <time>2013-04-01T19:27:22.000Z</time>
      </trkpt>
      <trkpt lat="48.88141" lon="2.31187">
        <ele>92.1</ele>
        <time>2013-04-01T19:27:23.000Z</time>
      </trkpt>
      <trkpt lat="48.88147" lon="2.31178">
        <ele>92.1</ele>
        <time>2013-04-01T19:27:24.000Z</time>
      </trkpt>
      <trkpt lat="48.8815" lon="2.31173">
        <ele>92</ele>
        <time>2013-04-01T19:27:25.000Z</time>
      </trkpt>
      <trkpt lat="48.88153" lon="2.31167">
        <ele>92.1</ele>
        <time>2013-04-01T19:27:26.000Z</time>
      </trkpt>
      <trkpt lat="48.88157" lon="2.31162">
        <ele>91.6</ele>
        <time>2013-04-01T19:27:27.000Z</time>
      </trkpt>
      <trkpt lat="48.8816" lon="2.31157">
        <ele>90.8</ele>
        <time>2013-04-01T19:27:28.000Z</time>
      </trkpt>
      <trkpt lat="48.88163" lon="2.31152">
        <ele>89.7</ele>
        <time>2013-04-01T19:27:29.000Z</time>
      </trkpt>
      <trkpt lat="48.88167" lon="2.31148">
        <ele>89.4</ele>
        <time>2013-04-01T19:27:30.000Z</time>
      </trkpt>
      <trkpt lat="48.8817" lon="2.31143">
        <ele>89.5</ele>
        <time>2013-04-01T19:27:31.000Z</time>
      </trkpt>
      <trkpt lat="48.88173" lon="2.31139">
        <ele>91.6</ele>
        <time>2013-04-01T19:27:32.000Z</time>
      </trkpt>
      <trkpt lat="48.88177" lon="2.31135">
        <ele>90.7</ele>
        <time>2013-04-01T19:27:33.000Z</time>
      </trkpt>
      <trkpt lat="48.88181" lon="2.3113">
        <ele>89.9</ele>
        <time>2013-04-01T19:27:34.000Z</time>
      </trkpt>
      <trkpt lat="48.88186" lon="2.31128">
        <ele>90.1</ele>
        <time>2013-04-01T19:27:35.000Z</time>
      </trkpt>
      <trkpt lat="48.88194" lon="2.31116">
        <ele>90.2</ele>
        <time>2013-04-01T19:27:37.005Z</time>
      </trkpt>
      <trkpt lat="48.88198" lon="2.3111">
        <ele>91.2</ele>
        <time>2013-04-01T19:27:38.000Z</time>
      </trkpt>
      <trkpt lat="48.88203" lon="2.31104">
        <ele>91.7</ele>
        <time>2013-04-01T19:27:39.000Z</time>
      </trkpt>
      <trkpt lat="48.88208" lon="2.31099">
        <ele>92.4</ele>
        <time>2013-04-01T19:27:40.000Z</time>
      </trkpt>
      <trkpt lat="48.88212" lon="2.31095">
        <ele>91.7</ele>
        <time>2013-04-01T19:27:41.000Z</time>
      </trkpt>
      <trkpt lat="48.88217" lon="2.31088">
        <ele>92.6</ele>
        <time>2013-04-01T19:27:42.000Z</time>
      </trkpt>
      <trkpt lat="48.88222" lon="2.31083">
        <ele>92.6</ele>
        <time>2013-04-01T19:27:43.000Z</time>
      </trkpt>
      <trkpt lat="48.88227" lon="2.31078">
        <ele>92.7</ele>
        <time>2013-04-01T19:27:44.000Z</time>
      </trkpt>
      <trkpt lat="48.88231" lon="2.31074">
        <ele>92.5</ele>
        <time>2013-04-01T19:27:45.000Z</time>
      </trkpt>
      <trkpt lat="48.88234" lon="2.31072">
        <ele>90.5</ele>
        <time>2013-04-01T19:27:46.000Z</time>
      </trkpt>
      <trkpt lat="48.88237" lon="2.31067">
        <ele>90.2</ele>
        <time>2013-04-01T19:27:47.000Z</time>
      </trkpt>
      <trkpt lat="48.8824" lon="2.31063">
        <ele>89.2</ele>
        <time>2013-04-01T19:27:48.000Z</time>
      </trkpt>
      <trkpt lat="48.88244" lon="2.31059">
        <ele>88.9</ele>
        <time>2013-04-01T19:27:49.000Z</time>
      </trkpt>
      <trkpt lat="48.88247" lon="2.31056">
        <ele>90.2</ele>
        <time>2013-04-01T19:27:50.000Z</time>
      </trkpt>
      <trkpt lat="48.88251" lon="2.31049">
        <ele>90.7</ele>
        <time>2013-04-01T19:27:51.000Z</time>
      </trkpt>
      <trkpt lat="48.88255" lon="2.31044">
        <ele>90.5</ele>
        <time>2013-04-01T19:27:52.000Z</time>
      </trkpt>
      <trkpt lat="48.88259" lon="2.31041">
        <ele>90.6</ele>
        <time>2013-04-01T19:27:53.000Z</time>
      </trkpt>
      <trkpt lat="48.88262" lon="2.31036">
        <ele>90.7</ele>
        <time>2013-04-01T19:27:54.000Z</time>
      </trkpt>
      <trkpt lat="48.88264" lon="2.31031">
        <ele>90.9</ele>
        <time>2013-04-01T19:27:55.000Z</time>
      </trkpt>
      <trkpt lat="48.88266" lon="2.31026">
        <ele>91</ele>
        <time>2013-04-01T19:27:56.000Z</time>
      </trkpt>
      <trkpt lat="48.88268" lon="2.31019">
        <ele>91.2</ele>
        <time>2013-04-01T19:27:57.000Z</time>
      </trkpt>
      <trkpt lat="48.88269" lon="2.31013">
        <ele>90.9</ele>
        <time>2013-04-01T19:27:58.000Z</time>
      </trkpt>
      <trkpt lat="48.8827" lon="2.31007">
        <ele>91.6</ele>
        <time>2013-04-01T19:27:59.000Z</time>
      </trkpt>
      <trkpt lat="48.88271" lon="2.31001">
        <ele>91.6</ele>
        <time>2013-04-01T19:28:00.000Z</time>
      </trkpt>
      <trkpt lat="48.88273" lon="2.30994">
        <ele>91.3</ele>
        <time>2013-04-01T19:28:01.000Z</time>
      </trkpt>
      <trkpt lat="48.88274" lon="2.30987">
        <ele>91.5</ele>
        <time>2013-04-01T19:28:02.000Z</time>
      </trkpt>
      <trkpt lat="48.88276" lon="2.30981">
        <ele>91.3</ele>
        <time>2013-04-01T19:28:03.000Z</time>
      </trkpt>
      <trkpt lat="48.88276" lon="2.30974">
        <ele>91.7</ele>
        <time>2013-04-01T19:28:04.000Z</time>
      </trkpt>
      <trkpt lat="48.88277" lon="2.30967">
        <ele>91.5</ele>
        <time>2013-04-01T19:28:05.000Z</time>
      </trkpt>
      <trkpt lat="48.88279" lon="2.30961">
        <ele>91.5</ele>
        <time>2013-04-01T19:28:06.000Z</time>
      </trkpt>
      <trkpt lat="48.88281" lon="2.30954">
        <ele>91.8</ele>
        <time>2013-04-01T19:28:07.000Z</time>
      </trkpt>
      <trkpt lat="48.88283" lon="2.30946">
        <ele>91.6</ele>
        <time>2013-04-01T19:28:08.000Z</time>
      </trkpt>
      <trkpt lat="48.88284" lon="2.30939">
        <ele>91.8</ele>
        <time>2013-04-01T19:28:09.000Z</time>
      </trkpt>
      <trkpt lat="48.88285" lon="2.30933">
        <ele>92.4</ele>
        <time>2013-04-01T19:28:10.000Z</time>
      </trkpt>
      <trkpt lat="48.88287" lon="2.30926">
        <ele>92</ele>
        <time>2013-04-01T19:28:11.000Z</time>
      </trkpt>
      <trkpt lat="48.88288" lon="2.3092">
        <ele>92</ele>
        <time>2013-04-01T19:28:12.000Z</time>
      </trkpt>
      <trkpt lat="48.88289" lon="2.30914">
        <ele>91.8</ele>
        <time>2013-04-01T19:28:13.000Z</time>
      </trkpt>
      <trkpt lat="48.88288" lon="2.30907">
        <ele>91.5</ele>
        <time>2013-04-01T19:28:14.000Z</time>
      </trkpt>
      <trkpt lat="48.88287" lon="2.30902">
        <ele>91.9</ele>
        <time>2013-04-01T19:28:15.000Z</time>
      </trkpt>
      <trkpt lat="48.88281" lon="2.30902">
        <ele>91.8</ele>
        <time>2013-04-01T19:28:16.000Z</time>
      </trkpt>
      <trkpt lat="48.88278" lon="2.30901">
        <ele>92.7</ele>
        <time>2013-04-01T19:28:17.000Z</time>
      </trkpt>
      <trkpt lat="48.88275" lon="2.30899">
        <ele>92.3</ele>
        <time>2013-04-01T19:28:18.000Z</time>
      </trkpt>
      <trkpt lat="48.88273" lon="2.30898">
        <ele>92.1</ele>
        <time>2013-04-01T19:28:19.000Z</time>
      </trkpt>
      <trkpt lat="48.88271" lon="2.30894">
        <ele>91.7</ele>
        <time>2013-04-01T19:28:20.000Z</time>
      </trkpt>
      <trkpt lat="48.88269" lon="2.30891">
        <ele>91.5</ele>
        <time>2013-04-01T19:28:21.000Z</time>
      </trkpt>
      <trkpt lat="48.88268" lon="2.30886">
        <ele>91.6</ele>
        <time>2013-04-01T19:28:22.000Z</time>
      </trkpt>
      <trkpt lat="48.88266" lon="2.30882">
        <ele>93.2</ele>
        <time>2013-04-01T19:28:23.000Z</time>
      </trkpt>
      <trkpt lat="48.88264" lon="2.30876">
        <ele>92.7</ele>
        <time>2013-04-01T19:28:24.000Z</time>
      </trkpt>
      <trkpt lat="48.88262" lon="2.3087">
        <ele>92.7</ele>
        <time>2013-04-01T19:28:25.000Z</time>
      </trkpt>
      <trkpt lat="48.8826" lon="2.30865">
        <ele>92.2</ele>
        <time>2013-04-01T19:28:26.000Z</time>
      </trkpt>
      <trkpt lat="48.88258" lon="2.30859">
        <ele>91.8</ele>
        <time>2013-04-01T19:28:27.000Z</time>
      </trkpt>
      <trkpt lat="48.88253" lon="2.3085">
        <ele>91.1</ele>
        <time>2013-04-01T19:28:28.000Z</time>
      </trkpt>
      <trkpt lat="48.8825" lon="2.30844">
        <ele>91.2</ele>
        <time>2013-04-01T19:28:29.000Z</time>
      </trkpt>
      <trkpt lat="48.88247" lon="2.30837">
        <ele>91.9</ele>
        <time>2013-04-01T19:28:30.000Z</time>
      </trkpt>
      <trkpt lat="48.88242" lon="2.30832">
        <ele>92</ele>
        <time>2013-04-01T19:28:31.000Z</time>
      </trkpt>
      <trkpt lat="48.88239" lon="2.30826">
        <ele>92.3</ele>
        <time>2013-04-01T19:28:32.000Z</time>
      </trkpt>
      <trkpt lat="48.88236" lon="2.30818">
        <ele>92.2</ele>
        <time>2013-04-01T19:28:33.000Z</time>
      </trkpt>
      <trkpt lat="48.88233" lon="2.30811">
        <ele>91.6</ele>
        <time>2013-04-01T19:28:34.000Z</time>
      </trkpt>
      <trkpt lat="48.8823" lon="2.30804">
        <ele>91.3</ele>
        <time>2013-04-01T19:28:35.000Z</time>
      </trkpt>
      <trkpt lat="48.88222" lon="2.3079">
        <ele>90.3</ele>
        <time>2013-04-01T19:28:37.132Z</time>
      </trkpt>
      <trkpt lat="48.88217" lon="2.30787">
        <ele>90.4</ele>
        <time>2013-04-01T19:28:38.000Z</time>
      </trkpt>
      <trkpt lat="48.88214" lon="2.3078">
        <ele>90</ele>
        <time>2013-04-01T19:28:39.000Z</time>
      </trkpt>
      <trkpt lat="48.88212" lon="2.30772">
        <ele>90</ele>
        <time>2013-04-01T19:28:40.000Z</time>
      </trkpt>
      <trkpt lat="48.88209" lon="2.30766">
        <ele>89.6</ele>
        <time>2013-04-01T19:28:41.000Z</time>
      </trkpt>
      <trkpt lat="48.88207" lon="2.30758">
        <ele>89.1</ele>
        <time>2013-04-01T19:28:42.000Z</time>
      </trkpt>
      <trkpt lat="48.88204" lon="2.30752">
        <ele>89.3</ele>
        <time>2013-04-01T19:28:43.000Z</time>
      </trkpt>
      <trkpt lat="48.88201" lon="2.30746">
        <ele>88.5</ele>
        <time>2013-04-01T19:28:44.000Z</time>
      </trkpt>
      <trkpt lat="48.88198" lon="2.3074">
        <ele>88.1</ele>
        <time>2013-04-01T19:28:45.000Z</time>
      </trkpt>
      <trkpt lat="48.88196" lon="2.30733">
        <ele>87.6</ele>
        <time>2013-04-01T19:28:46.000Z</time>
      </trkpt>
      <trkpt lat="48.88192" lon="2.30727">
        <ele>88.9</ele>
        <time>2013-04-01T19:28:47.000Z</time>
      </trkpt>
      <trkpt lat="48.88188" lon="2.30721">
        <ele>89</ele>
        <time>2013-04-01T19:28:48.000Z</time>
      </trkpt>
      <trkpt lat="48.88184" lon="2.30715">
        <ele>90.3</ele>
        <time>2013-04-01T19:28:49.000Z</time>
      </trkpt>
      <trkpt lat="48.8818" lon="2.30708">
        <ele>90.3</ele>
        <time>2013-04-01T19:28:50.000Z</time>
      </trkpt>
      <trkpt lat="48.88178" lon="2.30702">
        <ele>89.7</ele>
        <time>2013-04-01T19:28:51.000Z</time>
      </trkpt>
      <trkpt lat="48.88174" lon="2.30694">
        <ele>90.2</ele>
        <time>2013-04-01T19:28:52.000Z</time>
      </trkpt>
      <trkpt lat="48.88171" lon="2.30689">
        <ele>89.6</ele>
        <time>2013-04-01T19:28:53.000Z</time>
      </trkpt>
      <trkpt lat="48.88168" lon="2.30681">
        <ele>90.6</ele>
        <time>2013-04-01T19:28:54.000Z</time>
      </trkpt>
      <trkpt lat="48.88166" lon="2.30674">
        <ele>90.8</ele>
        <time>2013-04-01T19:28:55.000Z</time>
      </trkpt>
      <trkpt lat="48.88163" lon="2.30669">
        <ele>90.6</ele>
        <time>2013-04-01T19:28:56.000Z</time>
      </trkpt>
      <trkpt lat="48.88159" lon="2.30664">
        <ele>90.6</ele>
        <time>2013-04-01T19:28:57.000Z</time>
      </trkpt>
      <trkpt lat="48.88155" lon="2.30659">
        <ele>90.6</ele>
        <time>2013-04-01T19:28:58.000Z</time>
      </trkpt>
      <trkpt lat="48.88153" lon="2.30654">
        <ele>91.3</ele>
        <time>2013-04-01T19:28:59.000Z</time>
      </trkpt>
      <trkpt lat="48.88148" lon="2.3065">
        <ele>91.3</ele>
        <time>2013-04-01T19:29:00.000Z</time>
      </trkpt>
      <trkpt lat="48.88144" lon="2.30646">
        <ele>91.2</ele>
        <time>2013-04-01T19:29:01.000Z</time>
      </trkpt>
      <trkpt lat="48.88144" lon="2.30637">
        <ele>91.7</ele>
        <time>2013-04-01T19:29:02.000Z</time>
      </trkpt>
      <trkpt lat="48.88146" lon="2.30631">
        <ele>90.4</ele>
        <time>2013-04-01T19:29:03.000Z</time>
      </trkpt>
      <trkpt lat="48.88148" lon="2.30625">
        <ele>89.6</ele>
        <time>2013-04-01T19:29:04.000Z</time>
      </trkpt>
      <trkpt lat="48.88151" lon="2.30618">
        <ele>89.2</ele>
        <time>2013-04-01T19:29:05.000Z</time>
      </trkpt>
      <trkpt lat="48.88154" lon="2.3061">
        <ele>88.3</ele>
        <time>2013-04-01T19:29:06.000Z</time>
      </trkpt>
      <trkpt lat="48.88157" lon="2.30603">
        <ele>88.5</ele>
        <time>2013-04-01T19:29:07.000Z</time>
      </trkpt>
      <trkpt lat="48.8816" lon="2.30595">
        <ele>87.8</ele>
        <time>2013-04-01T19:29:08.000Z</time>
      </trkpt>
      <trkpt lat="48.88163" lon="2.30589">
        <ele>87.5</ele>
        <time>2013-04-01T19:29:09.000Z</time>
      </trkpt>
      <trkpt lat="48.88165" lon="2.3058">
        <ele>88.6</ele>
        <time>2013-04-01T19:29:10.000Z</time>
      </trkpt>
      <trkpt lat="48.88166" lon="2.30573">
        <ele>88.9</ele>
        <time>2013-04-01T19:29:11.000Z</time>
      </trkpt>
      <trkpt lat="48.88167" lon="2.30566">
        <ele>89.3</ele>
        <time>2013-04-01T19:29:12.000Z</time>
      </trkpt>
      <trkpt lat="48.88169" lon="2.30562">
        <ele>87.5</ele>
        <time>2013-04-01T19:29:13.000Z</time>
      </trkpt>
      <trkpt lat="48.88169" lon="2.30556">
        <ele>86.9</ele>
        <time>2013-04-01T19:29:14.000Z</time>
      </trkpt>
      <trkpt lat="48.88168" lon="2.30553">
        <ele>88.1</ele>
        <time>2013-04-01T19:29:15.000Z</time>
      </trkpt>
      <trkpt lat="48.88167" lon="2.30549">
        <ele>88.1</ele>
        <time>2013-04-01T19:29:16.000Z</time>
      </trkpt>
      <trkpt lat="48.88161" lon="2.30541">
        <ele>88.1</ele>
        <time>2013-04-01T19:29:17.000Z</time>
      </trkpt>
      <trkpt lat="48.88158" lon="2.30534">
        <ele>88.3</ele>
        <time>2013-04-01T19:29:18.000Z</time>
      </trkpt>
      <trkpt lat="48.88155" lon="2.30528">
        <ele>88.8</ele>
        <time>2013-04-01T19:29:19.000Z</time>
      </trkpt>
      <trkpt lat="48.88152" lon="2.30521">
        <ele>88.8</ele>
        <time>2013-04-01T19:29:20.000Z</time>
      </trkpt>
      <trkpt lat="48.88149" lon="2.30514">
        <ele>89</ele>
        <time>2013-04-01T19:29:21.000Z</time>
      </trkpt>
      <trkpt lat="48.88146" lon="2.30507">
        <ele>88.6</ele>
        <time>2013-04-01T19:29:22.000Z</time>
      </trkpt>
      <trkpt lat="48.88144" lon="2.30501">
        <ele>88.6</ele>
        <time>2013-04-01T19:29:23.000Z</time>
      </trkpt>
      <trkpt lat="48.8814" lon="2.30495">
        <ele>88.5</ele>
        <time>2013-04-01T19:29:24.000Z</time>
      </trkpt>
      <trkpt lat="48.88137" lon="2.30492">
        <ele>88.2</ele>
        <time>2013-04-01T19:29:25.000Z</time>
      </trkpt>
      <trkpt lat="48.88133" lon="2.30488">
        <ele>88.1</ele>
        <time>2013-04-01T19:29:26.000Z</time>
      </trkpt>
      <trkpt lat="48.88129" lon="2.30482">
        <ele>87.9</ele>
        <time>2013-04-01T19:29:27.000Z</time>
      </trkpt>
      <trkpt lat="48.88127" lon="2.30472">
        <ele>88.5</ele>
        <time>2013-04-01T19:29:28.000Z</time>
      </trkpt>
      <trkpt lat="48.88123" lon="2.30464">
        <ele>89</ele>
        <time>2013-04-01T19:29:29.000Z</time>
      </trkpt>
      <trkpt lat="48.8812" lon="2.30457">
        <ele>89.2</ele>
        <time>2013-04-01T19:29:30.000Z</time>
      </trkpt>
      <trkpt lat="48.88116" lon="2.30449">
        <ele>90.3</ele>
        <time>2013-04-01T19:29:31.000Z</time>
      </trkpt>
      <trkpt lat="48.88112" lon="2.30441">
        <ele>89.4</ele>
        <time>2013-04-01T19:29:32.000Z</time>
      </trkpt>
      <trkpt lat="48.88109" lon="2.30431">
        <ele>89.8</ele>
        <time>2013-04-01T19:29:33.000Z</time>
      </trkpt>
      <trkpt lat="48.88105" lon="2.30424">
        <ele>90.1</ele>
        <time>2013-04-01T19:29:34.000Z</time>
      </trkpt>
      <trkpt lat="48.88101" lon="2.30417">
        <ele>90.1</ele>
        <time>2013-04-01T19:29:35.000Z</time>
      </trkpt>
      <trkpt lat="48.88098" lon="2.30408">
        <ele>91.3</ele>
        <time>2013-04-01T19:29:36.000Z</time>
      </trkpt>
      <trkpt lat="48.88096" lon="2.304">
        <ele>91.3</ele>
        <time>2013-04-01T19:29:37.000Z</time>
      </trkpt>
      <trkpt lat="48.88091" lon="2.30392">
        <ele>92.2</ele>
        <time>2013-04-01T19:29:38.000Z</time>
      </trkpt>
      <trkpt lat="48.88088" lon="2.30384">
        <ele>93.3</ele>
        <time>2013-04-01T19:29:39.000Z</time>
      </trkpt>
      <trkpt lat="48.88084" lon="2.30378">
        <ele>94.4</ele>
        <time>2013-04-01T19:29:40.000Z</time>
      </trkpt>
      <trkpt lat="48.88081" lon="2.30371">
        <ele>94.4</ele>
        <time>2013-04-01T19:29:41.000Z</time>
      </trkpt>
      <trkpt lat="48.88078" lon="2.30366">
        <ele>94</ele>
        <time>2013-04-01T19:29:42.000Z</time>
      </trkpt>
      <trkpt lat="48.88075" lon="2.30364">
        <ele>93.9</ele>
        <time>2013-04-01T19:29:43.000Z</time>
      </trkpt>
      <trkpt lat="48.88073" lon="2.3036">
        <ele>94.1</ele>
        <time>2013-04-01T19:29:44.000Z</time>
      </trkpt>
      <trkpt lat="48.8807" lon="2.30356">
        <ele>94.4</ele>
        <time>2013-04-01T19:29:45.000Z</time>
      </trkpt>
      <trkpt lat="48.88069" lon="2.30349">
        <ele>95.1</ele>
        <time>2013-04-01T19:29:46.000Z</time>
      </trkpt>
      <trkpt lat="48.88065" lon="2.30343">
        <ele>95.5</ele>
        <time>2013-04-01T19:29:47.000Z</time>
      </trkpt>
      <trkpt lat="48.88062" lon="2.30338">
        <ele>94.8</ele>
        <time>2013-04-01T19:29:48.000Z</time>
      </trkpt>
      <trkpt lat="48.88059" lon="2.30333">
        <ele>94.7</ele>
        <time>2013-04-01T19:29:49.000Z</time>
      </trkpt>
      <trkpt lat="48.88058" lon="2.30327">
        <ele>94.5</ele>
        <time>2013-04-01T19:29:50.000Z</time>
      </trkpt>
      <trkpt lat="48.88054" lon="2.30322">
        <ele>94.9</ele>
        <time>2013-04-01T19:29:51.000Z</time>
      </trkpt>
      <trkpt lat="48.88053" lon="2.30316">
        <ele>94.8</ele>
        <time>2013-04-01T19:29:52.000Z</time>
      </trkpt>
      <trkpt lat="48.8805" lon="2.30311">
        <ele>94.6</ele>
        <time>2013-04-01T19:29:53.000Z</time>
      </trkpt>
      <trkpt lat="48.88047" lon="2.30306">
        <ele>95.4</ele>
        <time>2013-04-01T19:29:54.000Z</time>
      </trkpt>
      <trkpt lat="48.88044" lon="2.30302">
        <ele>95.5</ele>
        <time>2013-04-01T19:29:55.000Z</time>
      </trkpt>
      <trkpt lat="48.88041" lon="2.30296">
        <ele>96.1</ele>
        <time>2013-04-01T19:29:56.000Z</time>
      </trkpt>
      <trkpt lat="48.88039" lon="2.30291">
        <ele>97.6</ele>
        <time>2013-04-01T19:29:57.000Z</time>
      </trkpt>
      <trkpt lat="48.88037" lon="2.30286">
        <ele>97.6</ele>
        <time>2013-04-01T19:29:58.000Z</time>
      </trkpt>
      <trkpt lat="48.88034" lon="2.30282">
        <ele>96.2</ele>
        <time>2013-04-01T19:29:59.000Z</time>
      </trkpt>
      <trkpt lat="48.88031" lon="2.30278">
        <ele>96.5</ele>
        <time>2013-04-01T19:30:00.000Z</time>
      </trkpt>
      <trkpt lat="48.88029" lon="2.30273">
        <ele>97.1</ele>
        <time>2013-04-01T19:30:01.000Z</time>
      </trkpt>
      <trkpt lat="48.88027" lon="2.30269">
        <ele>97.5</ele>
        <time>2013-04-01T19:30:02.000Z</time>
      </trkpt>
      <trkpt lat="48.88025" lon="2.30265">
        <ele>96.9</ele>
        <time>2013-04-01T19:30:03.000Z</time>
      </trkpt>
      <trkpt lat="48.88023" lon="2.30261">
        <ele>96.1</ele>
        <time>2013-04-01T19:30:04.000Z</time>
      </trkpt>
      <trkpt lat="48.88021" lon="2.30257">
        <ele>95.1</ele>
        <time>2013-04-01T19:30:05.000Z</time>
      </trkpt>
      <trkpt lat="48.88019" lon="2.30252">
        <ele>94.4</ele>
        <time>2013-04-01T19:30:06.000Z</time>
      </trkpt>
      <trkpt lat="48.88016" lon="2.30248">
        <ele>94.3</ele>
        <time>2013-04-01T19:30:07.000Z</time>
      </trkpt>
      <trkpt lat="48.88014" lon="2.30243">
        <ele>95.1</ele>
        <time>2013-04-01T19:30:08.000Z</time>
      </trkpt>
      <trkpt lat="48.88011" lon="2.30239">
        <ele>97.4</ele>
        <time>2013-04-01T19:30:09.000Z</time>
      </trkpt>
      <trkpt lat="48.88009" lon="2.30234">
        <ele>96.9</ele>
        <time>2013-04-01T19:30:10.000Z</time>
      </trkpt>
      <trkpt lat="48.88007" lon="2.3023">
        <ele>96.3</ele>
        <time>2013-04-01T19:30:11.000Z</time>
      </trkpt>
      <trkpt lat="48.88005" lon="2.30225">
        <ele>96.4</ele>
        <time>2013-04-01T19:30:12.000Z</time>
      </trkpt>
      <trkpt lat="48.88003" lon="2.30221">
        <ele>96.2</ele>
        <time>2013-04-01T19:30:13.000Z</time>
      </trkpt>
      <trkpt lat="48.88002" lon="2.30224">
        <ele>96.3</ele>
        <time>2013-04-01T19:30:14.000Z</time>
      </trkpt>
      <trkpt lat="48.88" lon="2.30229">
        <ele>95.2</ele>
        <time>2013-04-01T19:30:15.000Z</time>
      </trkpt>
      <trkpt lat="48.87997" lon="2.30234">
        <ele>94.5</ele>
        <time>2013-04-01T19:30:16.000Z</time>
      </trkpt>
      <trkpt lat="48.87995" lon="2.3024">
        <ele>93.9</ele>
        <time>2013-04-01T19:30:17.000Z</time>
      </trkpt>
      <trkpt lat="48.87991" lon="2.30245">
        <ele>95</ele>
        <time>2013-04-01T19:30:18.000Z</time>
      </trkpt>
      <trkpt lat="48.87986" lon="2.30252">
        <ele>94.4</ele>
        <time>2013-04-01T19:30:19.000Z</time>
      </trkpt>
      <trkpt lat="48.87982" lon="2.30257">
        <ele>94</ele>
        <time>2013-04-01T19:30:20.000Z</time>
      </trkpt>
      <trkpt lat="48.87978" lon="2.30262">
        <ele>93.5</ele>
        <time>2013-04-01T19:30:21.000Z</time>
      </trkpt>
      <trkpt lat="48.87973" lon="2.30266">
        <ele>93.6</ele>
        <time>2013-04-01T19:30:22.000Z</time>
      </trkpt>
      <trkpt lat="48.87969" lon="2.3027">
        <ele>95.4</ele>
        <time>2013-04-01T19:30:23.000Z</time>
      </trkpt>
      <trkpt lat="48.87965" lon="2.30275">
        <ele>94.8</ele>
        <time>2013-04-01T19:30:24.000Z</time>
      </trkpt>
      <trkpt lat="48.87961" lon="2.30279">
        <ele>92.6</ele>
        <time>2013-04-01T19:30:25.000Z</time>
      </trkpt>
      <trkpt lat="48.87957" lon="2.30284">
        <ele>93.4</ele>
        <time>2013-04-01T19:30:26.000Z</time>
      </trkpt>
      <trkpt lat="48.87954" lon="2.30288">
        <ele>95.7</ele>
        <time>2013-04-01T19:30:27.000Z</time>
      </trkpt>
      <trkpt lat="48.8795" lon="2.30292">
        <ele>96.2</ele>
        <time>2013-04-01T19:30:28.000Z</time>
      </trkpt>
      <trkpt lat="48.87946" lon="2.30296">
        <ele>95.8</ele>
        <time>2013-04-01T19:30:29.000Z</time>
      </trkpt>
      <trkpt lat="48.87943" lon="2.303">
        <ele>95.5</ele>
        <time>2013-04-01T19:30:30.000Z</time>
      </trkpt>
      <trkpt lat="48.8794" lon="2.30304">
        <ele>95</ele>
        <time>2013-04-01T19:30:31.000Z</time>
      </trkpt>
      <trkpt lat="48.87937" lon="2.30307">
        <ele>94.6</ele>
        <time>2013-04-01T19:30:32.000Z</time>
      </trkpt>
      <trkpt lat="48.87935" lon="2.3031">
        <ele>94.9</ele>
        <time>2013-04-01T19:30:33.000Z</time>
      </trkpt>
      <trkpt lat="48.87932" lon="2.30312">
        <ele>94.7</ele>
        <time>2013-04-01T19:30:34.000Z</time>
      </trkpt>
      <trkpt lat="48.87929" lon="2.30314">
        <ele>94.8</ele>
        <time>2013-04-01T19:30:35.000Z</time>
      </trkpt>
      <trkpt lat="48.87924" lon="2.30312">
        <ele>93.9</ele>
        <time>2013-04-01T19:30:36.960Z</time>
      </trkpt>
      <trkpt lat="48.87921" lon="2.3031">
        <ele>93.1</ele>
        <time>2013-04-01T19:30:38.000Z</time>
      </trkpt>
      <trkpt lat="48.87919" lon="2.30305">
        <ele>91.6</ele>
        <time>2013-04-01T19:30:39.000Z</time>
      </trkpt>
      <trkpt lat="48.87918" lon="2.303">
        <ele>91.2</ele>
        <time>2013-04-01T19:30:40.000Z</time>
      </trkpt>
      <trkpt lat="48.87916" lon="2.30294">
        <ele>90.3</ele>
        <time>2013-04-01T19:30:41.000Z</time>
      </trkpt>
      <trkpt lat="48.87915" lon="2.30287">
        <ele>90.7</ele>
        <time>2013-04-01T19:30:42.000Z</time>
      </trkpt>
      <trkpt lat="48.87914" lon="2.30281">
        <ele>90.5</ele>
        <time>2013-04-01T19:30:43.000Z</time>
      </trkpt>
      <trkpt lat="48.87913" lon="2.30274">
        <ele>89.4</ele>
        <time>2013-04-01T19:30:44.000Z</time>
      </trkpt>
      <trkpt lat="48.87911" lon="2.30268">
        <ele>88.7</ele>
        <time>2013-04-01T19:30:45.000Z</time>
      </trkpt>
      <trkpt lat="48.8791" lon="2.30261">
        <ele>89.7</ele>
        <time>2013-04-01T19:30:46.000Z</time>
      </trkpt>
      <trkpt lat="48.87908" lon="2.30254">
        <ele>90.1</ele>
        <time>2013-04-01T19:30:47.000Z</time>
      </trkpt>
      <trkpt lat="48.87906" lon="2.30247">
        <ele>90.9</ele>
        <time>2013-04-01T19:30:48.000Z</time>
      </trkpt>
      <trkpt lat="48.87904" lon="2.30239">
        <ele>89.9</ele>
        <time>2013-04-01T19:30:49.000Z</time>
      </trkpt>
      <trkpt lat="48.87902" lon="2.30232">
        <ele>90.1</ele>
        <time>2013-04-01T19:30:50.000Z</time>
      </trkpt>
      <trkpt lat="48.87901" lon="2.30225">
        <ele>91</ele>
        <time>2013-04-01T19:30:51.000Z</time>
      </trkpt>
      <trkpt lat="48.87899" lon="2.30219">
        <ele>90.2</ele>
        <time>2013-04-01T19:30:52.000Z</time>
      </trkpt>
      <trkpt lat="48.87898" lon="2.30212">
        <ele>90.8</ele>
        <time>2013-04-01T19:30:53.000Z</time>
      </trkpt>
      <trkpt lat="48.87896" lon="2.30205">
        <ele>90.7</ele>
        <time>2013-04-01T19:30:54.000Z</time>
      </trkpt>
      <trkpt lat="48.87894" lon="2.30193">
        <ele>90.8</ele>
        <time>2013-04-01T19:30:55.000Z</time>
      </trkpt>
      <trkpt lat="48.87893" lon="2.30185">
        <ele>90.4</ele>
        <time>2013-04-01T19:30:56.000Z</time>
      </trkpt>
      <trkpt lat="48.87892" lon="2.30178">
        <ele>91.3</ele>
        <time>2013-04-01T19:30:57.000Z</time>
      </trkpt>
      <trkpt lat="48.8789" lon="2.3017">
        <ele>90.6</ele>
        <time>2013-04-01T19:30:58.000Z</time>
      </trkpt>
      <trkpt lat="48.87889" lon="2.30164">
        <ele>90.3</ele>
        <time>2013-04-01T19:30:59.000Z</time>
      </trkpt>
      <trkpt lat="48.87886" lon="2.30156">
        <ele>89.8</ele>
        <time>2013-04-01T19:31:00.000Z</time>
      </trkpt>
      <trkpt lat="48.87884" lon="2.30149">
        <ele>89.8</ele>
        <time>2013-04-01T19:31:01.000Z</time>
      </trkpt>
      <trkpt lat="48.87882" lon="2.30141">
        <ele>89.9</ele>
        <time>2013-04-01T19:31:02.000Z</time>
      </trkpt>
      <trkpt lat="48.87881" lon="2.30134">
        <ele>89.6</ele>
        <time>2013-04-01T19:31:03.000Z</time>
      </trkpt>
      <trkpt lat="48.8788" lon="2.30127">
        <ele>89.8</ele>
        <time>2013-04-01T19:31:04.000Z</time>
      </trkpt>
      <trkpt lat="48.87878" lon="2.3012">
        <ele>89.4</ele>
        <time>2013-04-01T19:31:05.000Z</time>
      </trkpt>
      <trkpt lat="48.87876" lon="2.30114">
        <ele>89.5</ele>
        <time>2013-04-01T19:31:06.000Z</time>
      </trkpt>
      <trkpt lat="48.87875" lon="2.30107">
        <ele>89.5</ele>
        <time>2013-04-01T19:31:07.000Z</time>
      </trkpt>
      <trkpt lat="48.87873" lon="2.301">
        <ele>90.5</ele>
        <time>2013-04-01T19:31:08.000Z</time>
      </trkpt>
      <trkpt lat="48.87871" lon="2.30094">
        <ele>90.1</ele>
        <time>2013-04-01T19:31:09.000Z</time>
      </trkpt>
      <trkpt lat="48.87869" lon="2.30086">
        <ele>91.6</ele>
        <time>2013-04-01T19:31:10.000Z</time>
      </trkpt>
      <trkpt lat="48.87867" lon="2.30079">
        <ele>90.8</ele>
        <time>2013-04-01T19:31:11.000Z</time>
      </trkpt>
      <trkpt lat="48.87865" lon="2.30073">
        <ele>91.1</ele>
        <time>2013-04-01T19:31:12.000Z</time>
      </trkpt>
      <trkpt lat="48.87863" lon="2.30065">
        <ele>91.5</ele>
        <time>2013-04-01T19:31:13.000Z</time>
      </trkpt>
      <trkpt lat="48.87862" lon="2.30058">
        <ele>91.8</ele>
        <time>2013-04-01T19:31:14.000Z</time>
      </trkpt>
      <trkpt lat="48.87861" lon="2.30052">
        <ele>91.7</ele>
        <time>2013-04-01T19:31:15.000Z</time>
      </trkpt>
      <trkpt lat="48.8786" lon="2.30046">
        <ele>91.6</ele>
        <time>2013-04-01T19:31:16.000Z</time>
      </trkpt>
      <trkpt lat="48.87859" lon="2.30039">
        <ele>91.4</ele>
        <time>2013-04-01T19:31:17.000Z</time>
      </trkpt>
      <trkpt lat="48.87858" lon="2.30033">
        <ele>91.3</ele>
        <time>2013-04-01T19:31:18.000Z</time>
      </trkpt>
      <trkpt lat="48.87855" lon="2.30027">
        <ele>92.1</ele>
        <time>2013-04-01T19:31:19.000Z</time>
      </trkpt>
      <trkpt lat="48.87854" lon="2.3002">
        <ele>91.8</ele>
        <time>2013-04-01T19:31:20.000Z</time>
      </trkpt>
      <trkpt lat="48.87852" lon="2.30014">
        <ele>91.9</ele>
        <time>2013-04-01T19:31:21.000Z</time>
      </trkpt>
      <trkpt lat="48.87851" lon="2.30008">
        <ele>92.2</ele>
        <time>2013-04-01T19:31:22.000Z</time>
      </trkpt>
      <trkpt lat="48.87849" lon="2.30002">
        <ele>92.4</ele>
        <time>2013-04-01T19:31:23.000Z</time>
      </trkpt>
      <trkpt lat="48.87848" lon="2.29995">
        <ele>92.5</ele>
        <time>2013-04-01T19:31:24.000Z</time>
      </trkpt>
      <trkpt lat="48.87846" lon="2.29988">
        <ele>91.9</ele>
        <time>2013-04-01T19:31:25.000Z</time>
      </trkpt>
      <trkpt lat="48.87844" lon="2.29981">
        <ele>92.7</ele>
        <time>2013-04-01T19:31:26.000Z</time>
      </trkpt>
      <trkpt lat="48.87843" lon="2.29975">
        <ele>92.8</ele>
        <time>2013-04-01T19:31:27.000Z</time>
      </trkpt>
      <trkpt lat="48.87842" lon="2.29968">
        <ele>92.4</ele>
        <time>2013-04-01T19:31:28.000Z</time>
      </trkpt>
      <trkpt lat="48.8784" lon="2.29961">
        <ele>93.1</ele>
        <time>2013-04-01T19:31:29.000Z</time>
      </trkpt>
      <trkpt lat="48.87838" lon="2.29954">
        <ele>92.7</ele>
        <time>2013-04-01T19:31:30.000Z</time>
      </trkpt>
      <trkpt lat="48.87837" lon="2.29947">
        <ele>92.8</ele>
        <time>2013-04-01T19:31:31.000Z</time>
      </trkpt>
      <trkpt lat="48.87835" lon="2.2994">
        <ele>92.5</ele>
        <time>2013-04-01T19:31:32.000Z</time>
      </trkpt>
      <trkpt lat="48.87834" lon="2.29934">
        <ele>92.6</ele>
        <time>2013-04-01T19:31:33.000Z</time>
      </trkpt>
      <trkpt lat="48.87832" lon="2.29927">
        <ele>92.8</ele>
        <time>2013-04-01T19:31:34.000Z</time>
      </trkpt>
      <trkpt lat="48.8783" lon="2.2992">
        <ele>93.9</ele>
        <time>2013-04-01T19:31:35.000Z</time>
      </trkpt>
      <trkpt lat="48.87827" lon="2.29906">
        <ele>94.3</ele>
        <time>2013-04-01T19:31:37.082Z</time>
      </trkpt>
      <trkpt lat="48.87825" lon="2.29903">
        <ele>94.7</ele>
        <time>2013-04-01T19:31:38.000Z</time>
      </trkpt>
      <trkpt lat="48.87823" lon="2.29898">
        <ele>94.5</ele>
        <time>2013-04-01T19:31:39.000Z</time>
      </trkpt>
      <trkpt lat="48.87822" lon="2.29892">
        <ele>94.7</ele>
        <time>2013-04-01T19:31:40.000Z</time>
      </trkpt>
      <trkpt lat="48.87821" lon="2.29886">
        <ele>94.4</ele>
        <time>2013-04-01T19:31:41.000Z</time>
      </trkpt>
      <trkpt lat="48.8782" lon="2.2988">
        <ele>94.6</ele>
        <time>2013-04-01T19:31:42.000Z</time>
      </trkpt>
      <trkpt lat="48.87821" lon="2.29874">
        <ele>93.3</ele>
        <time>2013-04-01T19:31:43.000Z</time>
      </trkpt>
      <trkpt lat="48.87822" lon="2.29869">
        <ele>94.5</ele>
        <time>2013-04-01T19:31:44.000Z</time>
      </trkpt>
      <trkpt lat="48.87823" lon="2.29862">
        <ele>93.7</ele>
        <time>2013-04-01T19:31:45.000Z</time>
      </trkpt>
      <trkpt lat="48.87825" lon="2.29857">
        <ele>93.6</ele>
        <time>2013-04-01T19:31:46.000Z</time>
      </trkpt>
      <trkpt lat="48.87826" lon="2.29851">
        <ele>93.8</ele>
        <time>2013-04-01T19:31:47.000Z</time>
      </trkpt>
      <trkpt lat="48.87827" lon="2.29846">
        <ele>93.8</ele>
        <time>2013-04-01T19:31:48.000Z</time>
      </trkpt>
      <trkpt lat="48.87828" lon="2.29841">
        <ele>94</ele>
        <time>2013-04-01T19:31:49.000Z</time>
      </trkpt>
      <trkpt lat="48.87829" lon="2.29836">
        <ele>93.8</ele>
        <time>2013-04-01T19:31:50.000Z</time>
      </trkpt>
      <trkpt lat="48.8783" lon="2.2983">
        <ele>93.8</ele>
        <time>2013-04-01T19:31:51.000Z</time>
      </trkpt>
      <trkpt lat="48.87831" lon="2.29825">
        <ele>93.7</ele>
        <time>2013-04-01T19:31:52.000Z</time>
      </trkpt>
      <trkpt lat="48.87833" lon="2.2982">
        <ele>93.7</ele>
        <time>2013-04-01T19:31:53.000Z</time>
      </trkpt>
      <trkpt lat="48.87834" lon="2.29814">
        <ele>93.5</ele>
        <time>2013-04-01T19:31:54.000Z</time>
      </trkpt>
      <trkpt lat="48.87834" lon="2.29809">
        <ele>93</ele>
        <time>2013-04-01T19:31:55.000Z</time>
      </trkpt>
      <trkpt lat="48.87833" lon="2.29804">
        <ele>92.5</ele>
        <time>2013-04-01T19:31:56.000Z</time>
      </trkpt>
      <trkpt lat="48.87831" lon="2.298">
        <ele>88.8</ele>
        <time>2013-04-01T19:31:57.000Z</time>
      </trkpt>
      <trkpt lat="48.87829" lon="2.29797">
        <ele>88.8</ele>
        <time>2013-04-01T19:31:58.000Z</time>
      </trkpt>
      <trkpt lat="48.87827" lon="2.29793">
        <ele>89</ele>
        <time>2013-04-01T19:31:59.000Z</time>
      </trkpt>
      <trkpt lat="48.87824" lon="2.29789">
        <ele>88.4</ele>
        <time>2013-04-01T19:32:00.000Z</time>
      </trkpt>
      <trkpt lat="48.87821" lon="2.29787">
        <ele>90.8</ele>
        <time>2013-04-01T19:32:01.000Z</time>
      </trkpt>
      <trkpt lat="48.87819" lon="2.29784">
        <ele>91.4</ele>
        <time>2013-04-01T19:32:02.000Z</time>
      </trkpt>
      <trkpt lat="48.87816" lon="2.29781">
        <ele>91.7</ele>
        <time>2013-04-01T19:32:03.000Z</time>
      </trkpt>
      <trkpt lat="48.87813" lon="2.29779">
        <ele>91.3</ele>
        <time>2013-04-01T19:32:04.000Z</time>
      </trkpt>
      <trkpt lat="48.87811" lon="2.29778">
        <ele>91.1</ele>
        <time>2013-04-01T19:32:05.000Z</time>
      </trkpt>
      <trkpt lat="48.87807" lon="2.29777">
        <ele>92.7</ele>
        <time>2013-04-01T19:32:07.000Z</time>
      </trkpt>
      <trkpt lat="48.87805" lon="2.29777">
        <ele>90.6</ele>
        <time>2013-04-01T19:32:08.000Z</time>
      </trkpt>
      <trkpt lat="48.87802" lon="2.29777">
        <ele>91.4</ele>
        <time>2013-04-01T19:32:10.000Z</time>
      </trkpt>
      <trkpt lat="48.87801" lon="2.29777">
        <ele>89.8</ele>
        <time>2013-04-01T19:32:11.000Z</time>
      </trkpt>
      <trkpt lat="48.87796" lon="2.29779">
        <ele>90.7</ele>
        <time>2013-04-01T19:32:24.000Z</time>
      </trkpt>
      <trkpt lat="48.87796" lon="2.29779">
        <ele>91.2</ele>
        <time>2013-04-01T19:32:25.000Z</time>
      </trkpt>
      <trkpt lat="48.87792" lon="2.29777">
        <ele>88.5</ele>
        <time>2013-04-01T19:32:30.000Z</time>
      </trkpt>
      <trkpt lat="48.87789" lon="2.29776">
        <ele>87.6</ele>
        <time>2013-04-01T19:32:31.000Z</time>
      </trkpt>
      <trkpt lat="48.87787" lon="2.29775">
        <ele>88.8</ele>
        <time>2013-04-01T19:32:32.000Z</time>
      </trkpt>
      <trkpt lat="48.87784" lon="2.29774">
        <ele>89.1</ele>
        <time>2013-04-01T19:32:33.000Z</time>
      </trkpt>
      <trkpt lat="48.87781" lon="2.29774">
        <ele>89.9</ele>
        <time>2013-04-01T19:32:34.000Z</time>
      </trkpt>
      <trkpt lat="48.87779" lon="2.29774">
        <ele>88.9</ele>
        <time>2013-04-01T19:32:35.000Z</time>
      </trkpt>
      <trkpt lat="48.87774" lon="2.29774">
        <ele>88.7</ele>
        <time>2013-04-01T19:32:37.405Z</time>
      </trkpt>
      <trkpt lat="48.8777" lon="2.29772">
        <ele>89</ele>
        <time>2013-04-01T19:32:40.000Z</time>
      </trkpt>
      <trkpt lat="48.87769" lon="2.29771">
        <ele>87.6</ele>
        <time>2013-04-01T19:32:41.000Z</time>
      </trkpt>
      <trkpt lat="48.87765" lon="2.29768">
        <ele>87.3</ele>
        <time>2013-04-01T19:32:43.000Z</time>
      </trkpt>
      <trkpt lat="48.87763" lon="2.29767">
        <ele>86.3</ele>
        <time>2013-04-01T19:32:44.000Z</time>
      </trkpt>
      <trkpt lat="48.87761" lon="2.29765">
        <ele>87</ele>
        <time>2013-04-01T19:32:45.000Z</time>
      </trkpt>
      <trkpt lat="48.87758" lon="2.29762">
        <ele>86.5</ele>
        <time>2013-04-01T19:32:46.000Z</time>
      </trkpt>
      <trkpt lat="48.87755" lon="2.2976">
        <ele>87.4</ele>
        <time>2013-04-01T19:32:47.000Z</time>
      </trkpt>
      <trkpt lat="48.87751" lon="2.29758">
        <ele>88.4</ele>
        <time>2013-04-01T19:32:48.000Z</time>
      </trkpt>
      <trkpt lat="48.87748" lon="2.29756">
        <ele>88.7</ele>
        <time>2013-04-01T19:32:49.000Z</time>
      </trkpt>
      <trkpt lat="48.87745" lon="2.29754">
        <ele>88.2</ele>
        <time>2013-04-01T19:32:50.000Z</time>
      </trkpt>
      <trkpt lat="48.87742" lon="2.29754">
        <ele>87.6</ele>
        <time>2013-04-01T19:32:51.000Z</time>
      </trkpt>
      <trkpt lat="48.87739" lon="2.29753">
        <ele>87.2</ele>
        <time>2013-04-01T19:32:52.000Z</time>
      </trkpt>
      <trkpt lat="48.87736" lon="2.29753">
        <ele>86.7</ele>
        <time>2013-04-01T19:32:53.000Z</time>
      </trkpt>
      <trkpt lat="48.87733" lon="2.29753">
        <ele>87.1</ele>
        <time>2013-04-01T19:32:54.000Z</time>
      </trkpt>
      <trkpt lat="48.87731" lon="2.29752">
        <ele>87</ele>
        <time>2013-04-01T19:32:55.000Z</time>
      </trkpt>
      <trkpt lat="48.87728" lon="2.29752">
        <ele>86.1</ele>
        <time>2013-04-01T19:32:56.000Z</time>
      </trkpt>
      <trkpt lat="48.87725" lon="2.2975">
        <ele>86.4</ele>
        <time>2013-04-01T19:32:57.000Z</time>
      </trkpt>
      <trkpt lat="48.87722" lon="2.29748">
        <ele>86</ele>
        <time>2013-04-01T19:32:58.000Z</time>
      </trkpt>
      <trkpt lat="48.87718" lon="2.29746">
        <ele>86</ele>
        <time>2013-04-01T19:32:59.000Z</time>
      </trkpt>
      <trkpt lat="48.87715" lon="2.29743">
        <ele>85.7</ele>
        <time>2013-04-01T19:33:00.000Z</time>
      </trkpt>
      <trkpt lat="48.87712" lon="2.29741">
        <ele>86.3</ele>
        <time>2013-04-01T19:33:01.000Z</time>
      </trkpt>
      <trkpt lat="48.87709" lon="2.29739">
        <ele>86.3</ele>
        <time>2013-04-01T19:33:02.000Z</time>
      </trkpt>
      <trkpt lat="48.87705" lon="2.29737">
        <ele>86.4</ele>
        <time>2013-04-01T19:33:03.000Z</time>
      </trkpt>
      <trkpt lat="48.87701" lon="2.29735">
        <ele>86.5</ele>
        <time>2013-04-01T19:33:04.000Z</time>
      </trkpt>
      <trkpt lat="48.87698" lon="2.29732">
        <ele>86.6</ele>
        <time>2013-04-01T19:33:05.000Z</time>
      </trkpt>
      <trkpt lat="48.87694" lon="2.2973">
        <ele>87.5</ele>
        <time>2013-04-01T19:33:06.000Z</time>
      </trkpt>
      <trkpt lat="48.87691" lon="2.29727">
        <ele>87.8</ele>
        <time>2013-04-01T19:33:07.000Z</time>
      </trkpt>
      <trkpt lat="48.87689" lon="2.29723">
        <ele>89.9</ele>
        <time>2013-04-01T19:33:08.000Z</time>
      </trkpt>
      <trkpt lat="48.87686" lon="2.29721">
        <ele>91.5</ele>
        <time>2013-04-01T19:33:09.000Z</time>
      </trkpt>
      <trkpt lat="48.87684" lon="2.29718">
        <ele>91.5</ele>
        <time>2013-04-01T19:33:10.000Z</time>
      </trkpt>
      <trkpt lat="48.87681" lon="2.29716">
        <ele>91.9</ele>
        <time>2013-04-01T19:33:11.000Z</time>
      </trkpt>
      <trkpt lat="48.87678" lon="2.29713">
        <ele>91.2</ele>
        <time>2013-04-01T19:33:12.000Z</time>
      </trkpt>
      <trkpt lat="48.87676" lon="2.2971">
        <ele>90.4</ele>
        <time>2013-04-01T19:33:13.000Z</time>
      </trkpt>
      <trkpt lat="48.87674" lon="2.29707">
        <ele>90.3</ele>
        <time>2013-04-01T19:33:14.000Z</time>
      </trkpt>
      <trkpt lat="48.87672" lon="2.29703">
        <ele>92.5</ele>
        <time>2013-04-01T19:33:15.000Z</time>
      </trkpt>
      <trkpt lat="48.8767" lon="2.29701">
        <ele>92.3</ele>
        <time>2013-04-01T19:33:16.000Z</time>
      </trkpt>
      <trkpt lat="48.87666" lon="2.29699">
        <ele>90.2</ele>
        <time>2013-04-01T19:33:17.000Z</time>
      </trkpt>
      <trkpt lat="48.87663" lon="2.29697">
        <ele>91.1</ele>
        <time>2013-04-01T19:33:18.000Z</time>
      </trkpt>
      <trkpt lat="48.8766" lon="2.29695">
        <ele>91.8</ele>
        <time>2013-04-01T19:33:19.000Z</time>
      </trkpt>
      <trkpt lat="48.87656" lon="2.29693">
        <ele>92.2</ele>
        <time>2013-04-01T19:33:20.000Z</time>
      </trkpt>
      <trkpt lat="48.87653" lon="2.29691">
        <ele>92.7</ele>
        <time>2013-04-01T19:33:21.000Z</time>
      </trkpt>
      <trkpt lat="48.8765" lon="2.29689">
        <ele>93.3</ele>
        <time>2013-04-01T19:33:22.000Z</time>
      </trkpt>
      <trkpt lat="48.87647" lon="2.29688">
        <ele>93.7</ele>
        <time>2013-04-01T19:33:23.000Z</time>
      </trkpt>
      <trkpt lat="48.87643" lon="2.29686">
        <ele>93.9</ele>
        <time>2013-04-01T19:33:24.000Z</time>
      </trkpt>
      <trkpt lat="48.8764" lon="2.29685">
        <ele>92.8</ele>
        <time>2013-04-01T19:33:25.000Z</time>
      </trkpt>
      <trkpt lat="48.87637" lon="2.29685">
        <ele>93.2</ele>
        <time>2013-04-01T19:33:26.000Z</time>
      </trkpt>
      <trkpt lat="48.87635" lon="2.29684">
        <ele>93.2</ele>
        <time>2013-04-01T19:33:27.000Z</time>
      </trkpt>
      <trkpt lat="48.87632" lon="2.29685">
        <ele>92.9</ele>
        <time>2013-04-01T19:33:28.000Z</time>
      </trkpt>
      <trkpt lat="48.8763" lon="2.29685">
        <ele>92</ele>
        <time>2013-04-01T19:33:29.000Z</time>
      </trkpt>
      <trkpt lat="48.87627" lon="2.29684">
        <ele>91.8</ele>
        <time>2013-04-01T19:33:30.000Z</time>
      </trkpt>
      <trkpt lat="48.87624" lon="2.29684">
        <ele>91.5</ele>
        <time>2013-04-01T19:33:31.000Z</time>
      </trkpt>
      <trkpt lat="48.87621" lon="2.29683">
        <ele>91.4</ele>
        <time>2013-04-01T19:33:32.000Z</time>
      </trkpt>
      <trkpt lat="48.87618" lon="2.29682">
        <ele>92.3</ele>
        <time>2013-04-01T19:33:33.000Z</time>
      </trkpt>
      <trkpt lat="48.87615" lon="2.29681">
        <ele>92.1</ele>
        <time>2013-04-01T19:33:34.000Z</time>
      </trkpt>
      <trkpt lat="48.87613" lon="2.2968">
        <ele>92.3</ele>
        <time>2013-04-01T19:33:35.000Z</time>
      </trkpt>
      <trkpt lat="48.87608" lon="2.29677">
        <ele>93.3</ele>
        <time>2013-04-01T19:33:37.004Z</time>
      </trkpt>
      <trkpt lat="48.87605" lon="2.29675">
        <ele>91.7</ele>
        <time>2013-04-01T19:33:38.000Z</time>
      </trkpt>
      <trkpt lat="48.87603" lon="2.29673">
        <ele>91.1</ele>
        <time>2013-04-01T19:33:39.000Z</time>
      </trkpt>
      <trkpt lat="48.87601" lon="2.29671">
        <ele>90.6</ele>
        <time>2013-04-01T19:33:40.000Z</time>
      </trkpt>
      <trkpt lat="48.876" lon="2.29669">
        <ele>90.1</ele>
        <time>2013-04-01T19:33:41.000Z</time>
      </trkpt>
      <trkpt lat="48.87598" lon="2.29667">
        <ele>91.2</ele>
        <time>2013-04-01T19:33:42.000Z</time>
      </trkpt>
      <trkpt lat="48.87596" lon="2.29665">
        <ele>92.6</ele>
        <time>2013-04-01T19:33:43.000Z</time>
      </trkpt>
      <trkpt lat="48.87593" lon="2.29663">
        <ele>91.3</ele>
        <time>2013-04-01T19:33:44.000Z</time>
      </trkpt>
      <trkpt lat="48.87591" lon="2.29661">
        <ele>92.5</ele>
        <time>2013-04-01T19:33:45.000Z</time>
      </trkpt>
      <trkpt lat="48.87587" lon="2.29659">
        <ele>93.5</ele>
        <time>2013-04-01T19:33:47.000Z</time>
      </trkpt>
      <trkpt lat="48.87586" lon="2.29658">
        <ele>93.2</ele>
        <time>2013-04-01T19:33:48.000Z</time>
      </trkpt>
      <trkpt lat="48.87583" lon="2.29657">
        <ele>90.4</ele>
        <time>2013-04-01T19:33:50.000Z</time>
      </trkpt>
      <trkpt lat="48.87581" lon="2.29656">
        <ele>90.9</ele>
        <time>2013-04-01T19:33:51.000Z</time>
      </trkpt>
      <trkpt lat="48.87579" lon="2.29654">
        <ele>90.7</ele>
        <time>2013-04-01T19:33:52.000Z</time>
      </trkpt>
      <trkpt lat="48.87577" lon="2.29653">
        <ele>91.1</ele>
        <time>2013-04-01T19:33:53.000Z</time>
      </trkpt>
      <trkpt lat="48.87574" lon="2.29651">
        <ele>91.1</ele>
        <time>2013-04-01T19:33:54.000Z</time>
      </trkpt>
      <trkpt lat="48.87572" lon="2.29649">
        <ele>91.3</ele>
        <time>2013-04-01T19:33:55.000Z</time>
      </trkpt>
      <trkpt lat="48.8757" lon="2.29648">
        <ele>92.4</ele>
        <time>2013-04-01T19:33:56.000Z</time>
      </trkpt>
      <trkpt lat="48.87568" lon="2.29646">
        <ele>95</ele>
        <time>2013-04-01T19:33:57.000Z</time>
      </trkpt>
      <trkpt lat="48.87565" lon="2.29645">
        <ele>94.8</ele>
        <time>2013-04-01T19:33:58.000Z</time>
      </trkpt>
      <trkpt lat="48.87562" lon="2.29643">
        <ele>94.8</ele>
        <time>2013-04-01T19:33:59.000Z</time>
      </trkpt>
      <trkpt lat="48.8756" lon="2.29642">
        <ele>96.1</ele>
        <time>2013-04-01T19:34:00.000Z</time>
      </trkpt>
      <trkpt lat="48.87558" lon="2.2964">
        <ele>96.6</ele>
        <time>2013-04-01T19:34:01.000Z</time>
      </trkpt>
      <trkpt lat="48.87555" lon="2.29637">
        <ele>96.4</ele>
        <time>2013-04-01T19:34:03.000Z</time>
      </trkpt>
      <trkpt lat="48.87553" lon="2.29636">
        <ele>97.7</ele>
        <time>2013-04-01T19:34:04.000Z</time>
      </trkpt>
      <trkpt lat="48.8755" lon="2.29633">
        <ele>98.4</ele>
        <time>2013-04-01T19:34:06.000Z</time>
      </trkpt>
      <trkpt lat="48.87548" lon="2.29631">
        <ele>98.3</ele>
        <time>2013-04-01T19:34:07.000Z</time>
      </trkpt>
      <trkpt lat="48.87546" lon="2.29629">
        <ele>98</ele>
        <time>2013-04-01T19:34:08.000Z</time>
      </trkpt>
      <trkpt lat="48.87543" lon="2.29627">
        <ele>97.6</ele>
        <time>2013-04-01T19:34:09.000Z</time>
      </trkpt>
      <trkpt lat="48.87541" lon="2.29625">
        <ele>92.5</ele>
        <time>2013-04-01T19:34:10.000Z</time>
      </trkpt>
      <trkpt lat="48.87539" lon="2.29623">
        <ele>94.6</ele>
        <time>2013-04-01T19:34:11.000Z</time>
      </trkpt>
      <trkpt lat="48.87535" lon="2.2962">
        <ele>97.3</ele>
        <time>2013-04-01T19:34:13.000Z</time>
      </trkpt>
      <trkpt lat="48.87533" lon="2.29619">
        <ele>96.7</ele>
        <time>2013-04-01T19:34:14.000Z</time>
      </trkpt>
      <trkpt lat="48.87531" lon="2.29618">
        <ele>98.1</ele>
        <time>2013-04-01T19:34:15.000Z</time>
      </trkpt>
      <trkpt lat="48.87528" lon="2.29618">
        <ele>98.4</ele>
        <time>2013-04-01T19:34:16.000Z</time>
      </trkpt>
      <trkpt lat="48.87525" lon="2.29615">
        <ele>96.6</ele>
        <time>2013-04-01T19:34:18.000Z</time>
      </trkpt>
      <trkpt lat="48.87524" lon="2.29611">
        <ele>96.1</ele>
        <time>2013-04-01T19:34:19.000Z</time>
      </trkpt>
      <trkpt lat="48.87522" lon="2.29606">
        <ele>95.5</ele>
        <time>2013-04-01T19:34:22.000Z</time>
      </trkpt>
      <trkpt lat="48.87521" lon="2.29606">
        <ele>96.4</ele>
        <time>2013-04-01T19:34:23.000Z</time>
      </trkpt>
      <trkpt lat="48.87519" lon="2.29605">
        <ele>96.5</ele>
        <time>2013-04-01T19:34:24.000Z</time>
      </trkpt>
      <trkpt lat="48.87516" lon="2.29603">
        <ele>96.8</ele>
        <time>2013-04-01T19:34:25.000Z</time>
      </trkpt>
      <trkpt lat="48.87514" lon="2.296">
        <ele>96.9</ele>
        <time>2013-04-01T19:34:26.000Z</time>
      </trkpt>
      <trkpt lat="48.87512" lon="2.29597">
        <ele>96.9</ele>
        <time>2013-04-01T19:34:27.000Z</time>
      </trkpt>
      <trkpt lat="48.87509" lon="2.29594">
        <ele>97</ele>
        <time>2013-04-01T19:34:28.000Z</time>
      </trkpt>
      <trkpt lat="48.87506" lon="2.29592">
        <ele>98.4</ele>
        <time>2013-04-01T19:34:29.000Z</time>
      </trkpt>
      <trkpt lat="48.87504" lon="2.29589">
        <ele>98.4</ele>
        <time>2013-04-01T19:34:30.000Z</time>
      </trkpt>
      <trkpt lat="48.87501" lon="2.29587">
        <ele>98.2</ele>
        <time>2013-04-01T19:34:31.000Z</time>
      </trkpt>
      <trkpt lat="48.87498" lon="2.29584">
        <ele>100</ele>
        <time>2013-04-01T19:34:32.000Z</time>
      </trkpt>
      <trkpt lat="48.87496" lon="2.29581">
        <ele>100.1</ele>
        <time>2013-04-01T19:34:33.000Z</time>
      </trkpt>
      <trkpt lat="48.87494" lon="2.29577">
        <ele>99.8</ele>
        <time>2013-04-01T19:34:34.000Z</time>
      </trkpt>
      <trkpt lat="48.87491" lon="2.29575">
        <ele>101.4</ele>
        <time>2013-04-01T19:34:35.000Z</time>
      </trkpt>
      <trkpt lat="48.87486" lon="2.29571">
        <ele>102</ele>
        <time>2013-04-01T19:34:36.912Z</time>
      </trkpt>
      <trkpt lat="48.87483" lon="2.29567">
        <ele>99.9</ele>
        <time>2013-04-01T19:34:40.000Z</time>
      </trkpt>
      <trkpt lat="48.87482" lon="2.29566">
        <ele>99.6</ele>
        <time>2013-04-01T19:34:41.000Z</time>
      </trkpt>
      <trkpt lat="48.87478" lon="2.29563">
        <ele>100.4</ele>
        <time>2013-04-01T19:34:44.000Z</time>
      </trkpt>
      <trkpt lat="48.87477" lon="2.29563">
        <ele>100.6</ele>
        <time>2013-04-01T19:34:45.000Z</time>
      </trkpt>
      <trkpt lat="48.87477" lon="2.29558">
        <ele>100.7</ele>
        <time>2013-04-01T19:35:15.000Z</time>
      </trkpt>
      <trkpt lat="48.87478" lon="2.29556">
        <ele>101.2</ele>
        <time>2013-04-01T19:35:16.000Z</time>
      </trkpt>
      <trkpt lat="48.8748" lon="2.2955">
        <ele>101</ele>
        <time>2013-04-01T19:35:18.000Z</time>
      </trkpt>
      <trkpt lat="48.87481" lon="2.29547">
        <ele>100.9</ele>
        <time>2013-04-01T19:35:19.000Z</time>
      </trkpt>
      <trkpt lat="48.87482" lon="2.29544">
        <ele>101.5</ele>
        <time>2013-04-01T19:35:20.000Z</time>
      </trkpt>
      <trkpt lat="48.87482" lon="2.2954">
        <ele>102.4</ele>
        <time>2013-04-01T19:35:21.000Z</time>
      </trkpt>
      <trkpt lat="48.87483" lon="2.29536">
        <ele>102.4</ele>
        <time>2013-04-01T19:35:22.000Z</time>
      </trkpt>
      <trkpt lat="48.87483" lon="2.29533">
        <ele>102.8</ele>
        <time>2013-04-01T19:35:23.000Z</time>
      </trkpt>
      <trkpt lat="48.87483" lon="2.29529">
        <ele>102.8</ele>
        <time>2013-04-01T19:35:24.000Z</time>
      </trkpt>
      <trkpt lat="48.87484" lon="2.29526">
        <ele>102.8</ele>
        <time>2013-04-01T19:35:25.000Z</time>
      </trkpt>
      <trkpt lat="48.87484" lon="2.2952">
        <ele>102.6</ele>
        <time>2013-04-01T19:35:27.000Z</time>
      </trkpt>
      <trkpt lat="48.87485" lon="2.29518">
        <ele>102.9</ele>
        <time>2013-04-01T19:35:28.000Z</time>
      </trkpt>
      <trkpt lat="48.87485" lon="2.29511">
        <ele>101.1</ele>
        <time>2013-04-01T19:35:33.000Z</time>
      </trkpt>
      <trkpt lat="48.87485" lon="2.29509">
        <ele>101.5</ele>
        <time>2013-04-01T19:35:34.000Z</time>
      </trkpt>
      <trkpt lat="48.87485" lon="2.29504">
        <ele>98.4</ele>
        <time>2013-04-01T19:36:24.000Z</time>
      </trkpt>
      <trkpt lat="48.87485" lon="2.29502">
        <ele>100</ele>
        <time>2013-04-01T19:36:25.000Z</time>
      </trkpt>
      <trkpt lat="48.87484" lon="2.29495">
        <ele>99.3</ele>
        <time>2013-04-01T19:36:27.000Z</time>
      </trkpt>
      <trkpt lat="48.87483" lon="2.2949">
        <ele>100.3</ele>
        <time>2013-04-01T19:36:28.000Z</time>
      </trkpt>
      <trkpt lat="48.87482" lon="2.29486">
        <ele>100.4</ele>
        <time>2013-04-01T19:36:29.000Z</time>
      </trkpt>
      <trkpt lat="48.87481" lon="2.29481">
        <ele>100.5</ele>
        <time>2013-04-01T19:36:30.000Z</time>
      </trkpt>
      <trkpt lat="48.8748" lon="2.29477">
        <ele>100</ele>
        <time>2013-04-01T19:36:31.000Z</time>
      </trkpt>
      <trkpt lat="48.8748" lon="2.29472">
        <ele>98.5</ele>
        <time>2013-04-01T19:36:32.000Z</time>
      </trkpt>
      <trkpt lat="48.87479" lon="2.29468">
        <ele>98.8</ele>
        <time>2013-04-01T19:36:33.000Z</time>
      </trkpt>
      <trkpt lat="48.87479" lon="2.29463">
        <ele>99.6</ele>
        <time>2013-04-01T19:36:34.000Z</time>
      </trkpt>
      <trkpt lat="48.87478" lon="2.29459">
        <ele>100.1</ele>
        <time>2013-04-01T19:36:35.000Z</time>
      </trkpt>
      <trkpt lat="48.87476" lon="2.2945">
        <ele>100.1</ele>
        <time>2013-04-01T19:36:37.175Z</time>
      </trkpt>
      <trkpt lat="48.87474" lon="2.29447">
        <ele>100.2</ele>
        <time>2013-04-01T19:36:38.000Z</time>
      </trkpt>
      <trkpt lat="48.87473" lon="2.29444">
        <ele>99.9</ele>
        <time>2013-04-01T19:36:39.000Z</time>
      </trkpt>
      <trkpt lat="48.87472" lon="2.2944">
        <ele>99.8</ele>
        <time>2013-04-01T19:36:40.000Z</time>
      </trkpt>
      <trkpt lat="48.87471" lon="2.29437">
        <ele>99.1</ele>
        <time>2013-04-01T19:36:41.000Z</time>
      </trkpt>
      <trkpt lat="48.87469" lon="2.29433">
        <ele>98.3</ele>
        <time>2013-04-01T19:36:42.000Z</time>
      </trkpt>
      <trkpt lat="48.87468" lon="2.29429">
        <ele>98</ele>
        <time>2013-04-01T19:36:43.000Z</time>
      </trkpt>
      <trkpt lat="48.87466" lon="2.29425">
        <ele>98.4</ele>
        <time>2013-04-01T19:36:44.000Z</time>
      </trkpt>
      <trkpt lat="48.87464" lon="2.29421">
        <ele>98.9</ele>
        <time>2013-04-01T19:36:45.000Z</time>
      </trkpt>
      <trkpt lat="48.87462" lon="2.29418">
        <ele>98.3</ele>
        <time>2013-04-01T19:36:46.000Z</time>
      </trkpt>
      <trkpt lat="48.8746" lon="2.29414">
        <ele>98.9</ele>
        <time>2013-04-01T19:36:47.000Z</time>
      </trkpt>
      <trkpt lat="48.87458" lon="2.29411">
        <ele>99.9</ele>
        <time>2013-04-01T19:36:48.000Z</time>
      </trkpt>
      <trkpt lat="48.87456" lon="2.29408">
        <ele>99.4</ele>
        <time>2013-04-01T19:36:49.000Z</time>
      </trkpt>
      <trkpt lat="48.87455" lon="2.29404">
        <ele>99.8</ele>
        <time>2013-04-01T19:36:50.000Z</time>
      </trkpt>
      <trkpt lat="48.87453" lon="2.294">
        <ele>100</ele>
        <time>2013-04-01T19:36:51.000Z</time>
      </trkpt>
      <trkpt lat="48.87451" lon="2.29397">
        <ele>100</ele>
        <time>2013-04-01T19:36:52.000Z</time>
      </trkpt>
      <trkpt lat="48.87449" lon="2.29394">
        <ele>99.6</ele>
        <time>2013-04-01T19:36:53.000Z</time>
      </trkpt>
      <trkpt lat="48.87447" lon="2.29391">
        <ele>99.7</ele>
        <time>2013-04-01T19:36:54.000Z</time>
      </trkpt>
      <trkpt lat="48.87445" lon="2.29389">
        <ele>99.4</ele>
        <time>2013-04-01T19:36:55.000Z</time>
      </trkpt>
      <trkpt lat="48.87443" lon="2.29386">
        <ele>99.3</ele>
        <time>2013-04-01T19:36:56.000Z</time>
      </trkpt>
      <trkpt lat="48.87441" lon="2.29384">
        <ele>99.1</ele>
        <time>2013-04-01T19:36:57.000Z</time>
      </trkpt>
      <trkpt lat="48.87437" lon="2.29381">
        <ele>100.1</ele>
        <time>2013-04-01T19:36:59.000Z</time>
      </trkpt>
      <trkpt lat="48.87436" lon="2.2938">
        <ele>100.5</ele>
        <time>2013-04-01T19:37:00.000Z</time>
      </trkpt>
      <trkpt lat="48.87433" lon="2.29376">
        <ele>100.5</ele>
        <time>2013-04-01T19:37:10.000Z</time>
      </trkpt>
      <trkpt lat="48.87431" lon="2.29374">
        <ele>100.9</ele>
        <time>2013-04-01T19:37:11.000Z</time>
      </trkpt>
      <trkpt lat="48.87429" lon="2.29372">
        <ele>100.5</ele>
        <time>2013-04-01T19:37:12.000Z</time>
      </trkpt>
      <trkpt lat="48.87427" lon="2.2937">
        <ele>100.3</ele>
        <time>2013-04-01T19:37:13.000Z</time>
      </trkpt>
      <trkpt lat="48.87424" lon="2.29366">
        <ele>100</ele>
        <time>2013-04-01T19:37:15.000Z</time>
      </trkpt>
      <trkpt lat="48.87422" lon="2.29364">
        <ele>100.6</ele>
        <time>2013-04-01T19:37:16.000Z</time>
      </trkpt>
      <trkpt lat="48.87419" lon="2.29363">
        <ele>101.5</ele>
        <time>2013-04-01T19:37:17.000Z</time>
      </trkpt>
      <trkpt lat="48.87417" lon="2.29361">
        <ele>102</ele>
        <time>2013-04-01T19:37:18.000Z</time>
      </trkpt>
      <trkpt lat="48.87415" lon="2.29359">
        <ele>101.2</ele>
        <time>2013-04-01T19:37:19.000Z</time>
      </trkpt>
      <trkpt lat="48.87412" lon="2.29357">
        <ele>100.7</ele>
        <time>2013-04-01T19:37:20.000Z</time>
      </trkpt>
      <trkpt lat="48.87408" lon="2.29355">
        <ele>101</ele>
        <time>2013-04-01T19:37:22.000Z</time>
      </trkpt>
      <trkpt lat="48.87406" lon="2.29354">
        <ele>101.1</ele>
        <time>2013-04-01T19:37:23.000Z</time>
      </trkpt>
      <trkpt lat="48.87402" lon="2.29351">
        <ele>102.2</ele>
        <time>2013-04-01T19:37:25.000Z</time>
      </trkpt>
      <trkpt lat="48.874" lon="2.2935">
        <ele>103.4</ele>
        <time>2013-04-01T19:37:26.000Z</time>
      </trkpt>
      <trkpt lat="48.87397" lon="2.2935">
        <ele>104.3</ele>
        <time>2013-04-01T19:37:27.000Z</time>
      </trkpt>
      <trkpt lat="48.87393" lon="2.2935">
        <ele>104.1</ele>
        <time>2013-04-01T19:37:28.000Z</time>
      </trkpt>
      <trkpt lat="48.8739" lon="2.29349">
        <ele>104.1</ele>
        <time>2013-04-01T19:37:29.000Z</time>
      </trkpt>
      <trkpt lat="48.87387" lon="2.29349">
        <ele>103.7</ele>
        <time>2013-04-01T19:37:30.000Z</time>
      </trkpt>
      <trkpt lat="48.87384" lon="2.29349">
        <ele>103.6</ele>
        <time>2013-04-01T19:37:31.000Z</time>
      </trkpt>
      <trkpt lat="48.87382" lon="2.29349">
        <ele>104.3</ele>
        <time>2013-04-01T19:37:32.000Z</time>
      </trkpt>
      <trkpt lat="48.87378" lon="2.2935">
        <ele>104.2</ele>
        <time>2013-04-01T19:37:35.000Z</time>
      </trkpt>
      <trkpt lat="48.87376" lon="2.29352">
        <ele>103.9</ele>
        <time>2013-04-01T19:37:36.861Z</time>
      </trkpt>
      <trkpt lat="48.87373" lon="2.2935">
        <ele>103.1</ele>
        <time>2013-04-01T19:38:01.000Z</time>
      </trkpt>
      <trkpt lat="48.87371" lon="2.2935">
        <ele>101.9</ele>
        <time>2013-04-01T19:38:02.000Z</time>
      </trkpt>
      <trkpt lat="48.87368" lon="2.29351">
        <ele>102.3</ele>
        <time>2013-04-01T19:38:03.000Z</time>
      </trkpt>
      <trkpt lat="48.87366" lon="2.29352">
        <ele>102.4</ele>
        <time>2013-04-01T19:38:04.000Z</time>
      </trkpt>
      <trkpt lat="48.87363" lon="2.29352">
        <ele>102.9</ele>
        <time>2013-04-01T19:38:05.000Z</time>
      </trkpt>
      <trkpt lat="48.8736" lon="2.29353">
        <ele>102.1</ele>
        <time>2013-04-01T19:38:06.000Z</time>
      </trkpt>
      <trkpt lat="48.87358" lon="2.29354">
        <ele>102.6</ele>
        <time>2013-04-01T19:38:07.000Z</time>
      </trkpt>
      <trkpt lat="48.87356" lon="2.29354">
        <ele>103.2</ele>
        <time>2013-04-01T19:38:08.000Z</time>
      </trkpt>
      <trkpt lat="48.87352" lon="2.29355">
        <ele>102.5</ele>
        <time>2013-04-01T19:38:10.000Z</time>
      </trkpt>
      <trkpt lat="48.8735" lon="2.29356">
        <ele>103.3</ele>
        <time>2013-04-01T19:38:11.000Z</time>
      </trkpt>
      <trkpt lat="48.87345" lon="2.29357">
        <ele>102.8</ele>
        <time>2013-04-01T19:38:13.000Z</time>
      </trkpt>
      <trkpt lat="48.87343" lon="2.29358">
        <ele>102.5</ele>
        <time>2013-04-01T19:38:14.000Z</time>
      </trkpt>
      <trkpt lat="48.87339" lon="2.2936">
        <ele>102</ele>
        <time>2013-04-01T19:38:16.000Z</time>
      </trkpt>
      <trkpt lat="48.87337" lon="2.29362">
        <ele>101.3</ele>
        <time>2013-04-01T19:38:17.000Z</time>
      </trkpt>
      <trkpt lat="48.87333" lon="2.29364">
        <ele>99.3</ele>
        <time>2013-04-01T19:38:19.000Z</time>
      </trkpt>
      <trkpt lat="48.87332" lon="2.29365">
        <ele>99.1</ele>
        <time>2013-04-01T19:38:20.000Z</time>
      </trkpt>
      <trkpt lat="48.87328" lon="2.29367">
        <ele>98.4</ele>
        <time>2013-04-01T19:38:23.000Z</time>
      </trkpt>
      <trkpt lat="48.87326" lon="2.29369">
        <ele>98.9</ele>
        <time>2013-04-01T19:38:24.000Z</time>
      </trkpt>
      <trkpt lat="48.87323" lon="2.29373">
        <ele>97.1</ele>
        <time>2013-04-01T19:38:26.000Z</time>
      </trkpt>
      <trkpt lat="48.87321" lon="2.29375">
        <ele>97.9</ele>
        <time>2013-04-01T19:38:27.000Z</time>
      </trkpt>
      <trkpt lat="48.87319" lon="2.29377">
        <ele>98.1</ele>
        <time>2013-04-01T19:38:28.000Z</time>
      </trkpt>
      <trkpt lat="48.87318" lon="2.2938">
        <ele>99.3</ele>
        <time>2013-04-01T19:38:29.000Z</time>
      </trkpt>
      <trkpt lat="48.87314" lon="2.2938">
        <ele>97.7</ele>
        <time>2013-04-01T19:38:31.000Z</time>
      </trkpt>
      <trkpt lat="48.87312" lon="2.29378">
        <ele>99.1</ele>
        <time>2013-04-01T19:38:32.000Z</time>
      </trkpt>
      <trkpt lat="48.8731" lon="2.29373">
        <ele>100.3</ele>
        <time>2013-04-01T19:38:34.000Z</time>
      </trkpt>
      <trkpt lat="48.87309" lon="2.2937">
        <ele>100.8</ele>
        <time>2013-04-01T19:38:35.000Z</time>
      </trkpt>
      <trkpt lat="48.87307" lon="2.29364">
        <ele>101.4</ele>
        <time>2013-04-01T19:38:36.937Z</time>
      </trkpt>
      <trkpt lat="48.87306" lon="2.29362">
        <ele>102.2</ele>
        <time>2013-04-01T19:38:38.000Z</time>
      </trkpt>
      <trkpt lat="48.87305" lon="2.29359">
        <ele>102.3</ele>
        <time>2013-04-01T19:38:39.000Z</time>
      </trkpt>
      <trkpt lat="48.87303" lon="2.29356">
        <ele>102.2</ele>
        <time>2013-04-01T19:38:40.000Z</time>
      </trkpt>
      <trkpt lat="48.87302" lon="2.29353">
        <ele>102.3</ele>
        <time>2013-04-01T19:38:41.000Z</time>
      </trkpt>
      <trkpt lat="48.873" lon="2.2935">
        <ele>101.7</ele>
        <time>2013-04-01T19:38:42.000Z</time>
      </trkpt>
      <trkpt lat="48.87299" lon="2.29348">
        <ele>101.2</ele>
        <time>2013-04-01T19:38:43.000Z</time>
      </trkpt>
      <trkpt lat="48.87297" lon="2.29345">
        <ele>100.9</ele>
        <time>2013-04-01T19:38:44.000Z</time>
      </trkpt>
      <trkpt lat="48.87295" lon="2.29342">
        <ele>100.2</ele>
        <time>2013-04-01T19:38:45.000Z</time>
      </trkpt>
      <trkpt lat="48.87294" lon="2.2934">
        <ele>99.6</ele>
        <time>2013-04-01T19:38:46.000Z</time>
      </trkpt>
      <trkpt lat="48.87291" lon="2.29337">
        <ele>99.7</ele>
        <time>2013-04-01T19:38:47.000Z</time>
      </trkpt>
      <trkpt lat="48.87288" lon="2.29337">
        <ele>97.3</ele>
        <time>2013-04-01T19:38:48.000Z</time>
      </trkpt>
      <trkpt lat="48.87286" lon="2.29336">
        <ele>96.9</ele>
        <time>2013-04-01T19:38:49.000Z</time>
      </trkpt>
      <trkpt lat="48.87282" lon="2.29336">
        <ele>96.3</ele>
        <time>2013-04-01T19:38:50.000Z</time>
      </trkpt>
      <trkpt lat="48.87278" lon="2.29334">
        <ele>95.7</ele>
        <time>2013-04-01T19:38:51.000Z</time>
      </trkpt>
      <trkpt lat="48.87274" lon="2.29331">
        <ele>97.3</ele>
        <time>2013-04-01T19:38:52.000Z</time>
      </trkpt>
      <trkpt lat="48.87271" lon="2.29327">
        <ele>97.1</ele>
        <time>2013-04-01T19:38:53.000Z</time>
      </trkpt>
      <trkpt lat="48.87267" lon="2.29325">
        <ele>98.3</ele>
        <time>2013-04-01T19:38:54.000Z</time>
      </trkpt>
      <trkpt lat="48.87264" lon="2.29322">
        <ele>97.8</ele>
        <time>2013-04-01T19:38:55.000Z</time>
      </trkpt>
      <trkpt lat="48.8726" lon="2.29319">
        <ele>98</ele>
        <time>2013-04-01T19:38:56.000Z</time>
      </trkpt>
      <trkpt lat="48.87257" lon="2.29317">
        <ele>98.2</ele>
        <time>2013-04-01T19:38:57.000Z</time>
      </trkpt>
      <trkpt lat="48.87254" lon="2.29315">
        <ele>97.9</ele>
        <time>2013-04-01T19:38:58.000Z</time>
      </trkpt>
      <trkpt lat="48.87251" lon="2.29314">
        <ele>98.2</ele>
        <time>2013-04-01T19:38:59.000Z</time>
      </trkpt>
      <trkpt lat="48.87247" lon="2.29313">
        <ele>97.6</ele>
        <time>2013-04-01T19:39:00.000Z</time>
      </trkpt>
      <trkpt lat="48.87244" lon="2.29311">
        <ele>97.4</ele>
        <time>2013-04-01T19:39:01.000Z</time>
      </trkpt>
      <trkpt lat="48.87241" lon="2.2931">
        <ele>97.6</ele>
        <time>2013-04-01T19:39:02.000Z</time>
      </trkpt>
      <trkpt lat="48.87238" lon="2.29308">
        <ele>97.1</ele>
        <time>2013-04-01T19:39:03.000Z</time>
      </trkpt>
      <trkpt lat="48.87235" lon="2.29306">
        <ele>97.9</ele>
        <time>2013-04-01T19:39:04.000Z</time>
      </trkpt>
      <trkpt lat="48.87232" lon="2.29303">
        <ele>99.9</ele>
        <time>2013-04-01T19:39:05.000Z</time>
      </trkpt>
      <trkpt lat="48.87229" lon="2.29299">
        <ele>100.5</ele>
        <time>2013-04-01T19:39:06.000Z</time>
      </trkpt>
      <trkpt lat="48.87226" lon="2.29296">
        <ele>100.8</ele>
        <time>2013-04-01T19:39:07.000Z</time>
      </trkpt>
      <trkpt lat="48.87223" lon="2.29293">
        <ele>101</ele>
        <time>2013-04-01T19:39:08.000Z</time>
      </trkpt>
      <trkpt lat="48.87219" lon="2.2929">
        <ele>100.7</ele>
        <time>2013-04-01T19:39:09.000Z</time>
      </trkpt>
      <trkpt lat="48.87216" lon="2.29287">
        <ele>100.6</ele>
        <time>2013-04-01T19:39:10.000Z</time>
      </trkpt>
      <trkpt lat="48.87213" lon="2.29284">
        <ele>101.3</ele>
        <time>2013-04-01T19:39:11.000Z</time>
      </trkpt>
      <trkpt lat="48.87209" lon="2.29281">
        <ele>102</ele>
        <time>2013-04-01T19:39:12.000Z</time>
      </trkpt>
      <trkpt lat="48.87206" lon="2.29279">
        <ele>101.1</ele>
        <time>2013-04-01T19:39:13.000Z</time>
      </trkpt>
      <trkpt lat="48.87203" lon="2.29278">
        <ele>101.6</ele>
        <time>2013-04-01T19:39:14.000Z</time>
      </trkpt>
      <trkpt lat="48.87199" lon="2.29277">
        <ele>101.6</ele>
        <time>2013-04-01T19:39:15.000Z</time>
      </trkpt>
      <trkpt lat="48.87196" lon="2.29275">
        <ele>102.2</ele>
        <time>2013-04-01T19:39:16.000Z</time>
      </trkpt>
      <trkpt lat="48.87193" lon="2.29273">
        <ele>104.8</ele>
        <time>2013-04-01T19:39:17.000Z</time>
      </trkpt>
      <trkpt lat="48.8719" lon="2.29271">
        <ele>104.7</ele>
        <time>2013-04-01T19:39:18.000Z</time>
      </trkpt>
      <trkpt lat="48.87187" lon="2.29268">
        <ele>104.8</ele>
        <time>2013-04-01T19:39:19.000Z</time>
      </trkpt>
      <trkpt lat="48.87184" lon="2.29266">
        <ele>104.7</ele>
        <time>2013-04-01T19:39:20.000Z</time>
      </trkpt>
      <trkpt lat="48.87181" lon="2.29264">
        <ele>105.5</ele>
        <time>2013-04-01T19:39:21.000Z</time>
      </trkpt>
      <trkpt lat="48.87178" lon="2.29262">
        <ele>104.8</ele>
        <time>2013-04-01T19:39:22.000Z</time>
      </trkpt>
      <trkpt lat="48.87174" lon="2.2926">
        <ele>106</ele>
        <time>2013-04-01T19:39:23.000Z</time>
      </trkpt>
      <trkpt lat="48.87171" lon="2.29258">
        <ele>106.1</ele>
        <time>2013-04-01T19:39:24.000Z</time>
      </trkpt>
      <trkpt lat="48.87168" lon="2.29256">
        <ele>106.7</ele>
        <time>2013-04-01T19:39:25.000Z</time>
      </trkpt>
      <trkpt lat="48.87164" lon="2.29254">
        <ele>108.2</ele>
        <time>2013-04-01T19:39:26.000Z</time>
      </trkpt>
      <trkpt lat="48.87161" lon="2.29253">
        <ele>108.4</ele>
        <time>2013-04-01T19:39:27.000Z</time>
      </trkpt>
      <trkpt lat="48.87157" lon="2.2925">
        <ele>108.2</ele>
        <time>2013-04-01T19:39:28.000Z</time>
      </trkpt>
      <trkpt lat="48.87155" lon="2.29248">
        <ele>109.1</ele>
        <time>2013-04-01T19:39:29.000Z</time>
      </trkpt>
      <trkpt lat="48.87152" lon="2.29244">
        <ele>110.1</ele>
        <time>2013-04-01T19:39:30.000Z</time>
      </trkpt>
      <trkpt lat="48.87149" lon="2.29241">
        <ele>110.5</ele>
        <time>2013-04-01T19:39:31.000Z</time>
      </trkpt>
      <trkpt lat="48.87146" lon="2.29237">
        <ele>112.5</ele>
        <time>2013-04-01T19:39:32.000Z</time>
      </trkpt>
      <trkpt lat="48.87143" lon="2.29233">
        <ele>113.7</ele>
        <time>2013-04-01T19:39:33.000Z</time>
      </trkpt>
      <trkpt lat="48.8714" lon="2.29228">
        <ele>113.8</ele>
        <time>2013-04-01T19:39:34.000Z</time>
      </trkpt>
      <trkpt lat="48.87138" lon="2.29224">
        <ele>114.4</ele>
        <time>2013-04-01T19:39:35.000Z</time>
      </trkpt>
      <trkpt lat="48.87132" lon="2.29216">
        <ele>114.7</ele>
        <time>2013-04-01T19:39:37.055Z</time>
      </trkpt>
      <trkpt lat="48.87129" lon="2.29213">
        <ele>114.2</ele>
        <time>2013-04-01T19:39:38.000Z</time>
      </trkpt>
      <trkpt lat="48.87127" lon="2.2921">
        <ele>114.6</ele>
        <time>2013-04-01T19:39:39.000Z</time>
      </trkpt>
      <trkpt lat="48.87124" lon="2.29207">
        <ele>114.4</ele>
        <time>2013-04-01T19:39:40.000Z</time>
      </trkpt>
      <trkpt lat="48.87121" lon="2.29205">
        <ele>109.8</ele>
        <time>2013-04-01T19:39:41.000Z</time>
      </trkpt>
      <trkpt lat="48.87118" lon="2.29203">
        <ele>110.9</ele>
        <time>2013-04-01T19:39:42.000Z</time>
      </trkpt>
      <trkpt lat="48.87115" lon="2.29202">
        <ele>114</ele>
        <time>2013-04-01T19:39:43.000Z</time>
      </trkpt>
      <trkpt lat="48.87112" lon="2.29201">
        <ele>115</ele>
        <time>2013-04-01T19:39:44.000Z</time>
      </trkpt>
      <trkpt lat="48.87109" lon="2.292">
        <ele>115.5</ele>
        <time>2013-04-01T19:39:45.000Z</time>
      </trkpt>
      <trkpt lat="48.87106" lon="2.29199">
        <ele>115.7</ele>
        <time>2013-04-01T19:39:46.000Z</time>
      </trkpt>
      <trkpt lat="48.87103" lon="2.29197">
        <ele>115.3</ele>
        <time>2013-04-01T19:39:47.000Z</time>
      </trkpt>
      <trkpt lat="48.871" lon="2.29195">
        <ele>115</ele>
        <time>2013-04-01T19:39:48.000Z</time>
      </trkpt>
      <trkpt lat="48.87098" lon="2.29192">
        <ele>115.3</ele>
        <time>2013-04-01T19:39:49.000Z</time>
      </trkpt>
      <trkpt lat="48.87095" lon="2.29189">
        <ele>115.6</ele>
        <time>2013-04-01T19:39:50.000Z</time>
      </trkpt>
      <trkpt lat="48.87091" lon="2.29185">
        <ele>115</ele>
        <time>2013-04-01T19:39:51.000Z</time>
      </trkpt>
      <trkpt lat="48.87088" lon="2.29182">
        <ele>116.4</ele>
        <time>2013-04-01T19:39:52.000Z</time>
      </trkpt>
      <trkpt lat="48.87084" lon="2.29179">
        <ele>117.1</ele>
        <time>2013-04-01T19:39:53.000Z</time>
      </trkpt>
      <trkpt lat="48.87081" lon="2.29177">
        <ele>117</ele>
        <time>2013-04-01T19:39:54.000Z</time>
      </trkpt>
      <trkpt lat="48.87078" lon="2.29176">
        <ele>115.4</ele>
        <time>2013-04-01T19:39:55.000Z</time>
      </trkpt>
      <trkpt lat="48.87076" lon="2.29174">
        <ele>114.6</ele>
        <time>2013-04-01T19:39:56.000Z</time>
      </trkpt>
      <trkpt lat="48.87074" lon="2.29171">
        <ele>115.3</ele>
        <time>2013-04-01T19:39:57.000Z</time>
      </trkpt>
      <trkpt lat="48.87072" lon="2.29169">
        <ele>115.6</ele>
        <time>2013-04-01T19:39:58.000Z</time>
      </trkpt>
      <trkpt lat="48.8707" lon="2.29165">
        <ele>115.7</ele>
        <time>2013-04-01T19:39:59.000Z</time>
      </trkpt>
      <trkpt lat="48.87068" lon="2.29163">
        <ele>116.2</ele>
        <time>2013-04-01T19:40:00.000Z</time>
      </trkpt>
      <trkpt lat="48.87065" lon="2.2916">
        <ele>116.2</ele>
        <time>2013-04-01T19:40:01.000Z</time>
      </trkpt>
      <trkpt lat="48.87062" lon="2.29157">
        <ele>116.1</ele>
        <time>2013-04-01T19:40:02.000Z</time>
      </trkpt>
      <trkpt lat="48.87059" lon="2.29154">
        <ele>115.9</ele>
        <time>2013-04-01T19:40:03.000Z</time>
      </trkpt>
      <trkpt lat="48.87055" lon="2.29152">
        <ele>115.9</ele>
        <time>2013-04-01T19:40:04.000Z</time>
      </trkpt>
      <trkpt lat="48.87052" lon="2.29148">
        <ele>115.8</ele>
        <time>2013-04-01T19:40:05.000Z</time>
      </trkpt>
      <trkpt lat="48.87048" lon="2.29145">
        <ele>115.5</ele>
        <time>2013-04-01T19:40:06.000Z</time>
      </trkpt>
      <trkpt lat="48.87045" lon="2.29142">
        <ele>116.1</ele>
        <time>2013-04-01T19:40:07.000Z</time>
      </trkpt>
      <trkpt lat="48.87042" lon="2.29138">
        <ele>115.5</ele>
        <time>2013-04-01T19:40:08.000Z</time>
      </trkpt>
      <trkpt lat="48.87039" lon="2.29135">
        <ele>115.5</ele>
        <time>2013-04-01T19:40:09.000Z</time>
      </trkpt>
      <trkpt lat="48.87036" lon="2.2913">
        <ele>115.9</ele>
        <time>2013-04-01T19:40:10.000Z</time>
      </trkpt>
      <trkpt lat="48.87033" lon="2.29126">
        <ele>115.6</ele>
        <time>2013-04-01T19:40:11.000Z</time>
      </trkpt>
      <trkpt lat="48.8703" lon="2.29121">
        <ele>116</ele>
        <time>2013-04-01T19:40:12.000Z</time>
      </trkpt>
      <trkpt lat="48.87027" lon="2.29116">
        <ele>115.6</ele>
        <time>2013-04-01T19:40:13.000Z</time>
      </trkpt>
      <trkpt lat="48.87024" lon="2.29112">
        <ele>115.6</ele>
        <time>2013-04-01T19:40:14.000Z</time>
      </trkpt>
      <trkpt lat="48.87021" lon="2.29107">
        <ele>115.1</ele>
        <time>2013-04-01T19:40:15.000Z</time>
      </trkpt>
      <trkpt lat="48.87018" lon="2.29104">
        <ele>115.2</ele>
        <time>2013-04-01T19:40:16.000Z</time>
      </trkpt>
      <trkpt lat="48.87015" lon="2.29103">
        <ele>114.2</ele>
        <time>2013-04-01T19:40:17.000Z</time>
      </trkpt>
      <trkpt lat="48.87011" lon="2.29101">
        <ele>114.1</ele>
        <time>2013-04-01T19:40:19.000Z</time>
      </trkpt>
      <trkpt lat="48.87009" lon="2.291">
        <ele>114.3</ele>
        <time>2013-04-01T19:40:20.000Z</time>
      </trkpt>
      <trkpt lat="48.87006" lon="2.29099">
        <ele>114.1</ele>
        <time>2013-04-01T19:40:21.000Z</time>
      </trkpt>
      <trkpt lat="48.87004" lon="2.29098">
        <ele>113.5</ele>
        <time>2013-04-01T19:40:22.000Z</time>
      </trkpt>
      <trkpt lat="48.87001" lon="2.29095">
        <ele>113.1</ele>
        <time>2013-04-01T19:40:23.000Z</time>
      </trkpt>
      <trkpt lat="48.86998" lon="2.29092">
        <ele>113.7</ele>
        <time>2013-04-01T19:40:24.000Z</time>
      </trkpt>
      <trkpt lat="48.86995" lon="2.29089">
        <ele>113.3</ele>
        <time>2013-04-01T19:40:25.000Z</time>
      </trkpt>
      <trkpt lat="48.86992" lon="2.29085">
        <ele>113.9</ele>
        <time>2013-04-01T19:40:26.000Z</time>
      </trkpt>
      <trkpt lat="48.86988" lon="2.29081">
        <ele>114.6</ele>
        <time>2013-04-01T19:40:27.000Z</time>
      </trkpt>
      <trkpt lat="48.86985" lon="2.29077">
        <ele>114.3</ele>
        <time>2013-04-01T19:40:28.000Z</time>
      </trkpt>
      <trkpt lat="48.86982" lon="2.29072">
        <ele>115</ele>
        <time>2013-04-01T19:40:29.000Z</time>
      </trkpt>
      <trkpt lat="48.86979" lon="2.29067">
        <ele>115.7</ele>
        <time>2013-04-01T19:40:30.000Z</time>
      </trkpt>
      <trkpt lat="48.86975" lon="2.29061">
        <ele>116.4</ele>
        <time>2013-04-01T19:40:31.000Z</time>
      </trkpt>
      <trkpt lat="48.86972" lon="2.29056">
        <ele>117.5</ele>
        <time>2013-04-01T19:40:32.000Z</time>
      </trkpt>
      <trkpt lat="48.86968" lon="2.29051">
        <ele>119.1</ele>
        <time>2013-04-01T19:40:33.000Z</time>
      </trkpt>
      <trkpt lat="48.86963" lon="2.29046">
        <ele>121.1</ele>
        <time>2013-04-01T19:40:34.000Z</time>
      </trkpt>
      <trkpt lat="48.86959" lon="2.29042">
        <ele>122.7</ele>
        <time>2013-04-01T19:40:35.000Z</time>
      </trkpt>
      <trkpt lat="48.86952" lon="2.29033">
        <ele>123.1</ele>
        <time>2013-04-01T19:40:36.997Z</time>
      </trkpt>
      <trkpt lat="48.86948" lon="2.29028">
        <ele>122.3</ele>
        <time>2013-04-01T19:40:38.000Z</time>
      </trkpt>
      <trkpt lat="48.86945" lon="2.29023">
        <ele>122.5</ele>
        <time>2013-04-01T19:40:39.000Z</time>
      </trkpt>
      <trkpt lat="48.86942" lon="2.29018">
        <ele>122.6</ele>
        <time>2013-04-01T19:40:40.000Z</time>
      </trkpt>
      <trkpt lat="48.86939" lon="2.29013">
        <ele>123.2</ele>
        <time>2013-04-01T19:40:41.000Z</time>
      </trkpt>
      <trkpt lat="48.86935" lon="2.29008">
        <ele>123.8</ele>
        <time>2013-04-01T19:40:42.000Z</time>
      </trkpt>
      <trkpt lat="48.86931" lon="2.29004">
        <ele>125.4</ele>
        <time>2013-04-01T19:40:43.000Z</time>
      </trkpt>
      <trkpt lat="48.86928" lon="2.29">
        <ele>125.5</ele>
        <time>2013-04-01T19:40:44.000Z</time>
      </trkpt>
      <trkpt lat="48.86924" lon="2.28997">
        <ele>126.2</ele>
        <time>2013-04-01T19:40:45.000Z</time>
      </trkpt>
      <trkpt lat="48.8692" lon="2.28993">
        <ele>125.4</ele>
        <time>2013-04-01T19:40:46.000Z</time>
      </trkpt>
      <trkpt lat="48.86917" lon="2.2899">
        <ele>125.4</ele>
        <time>2013-04-01T19:40:47.000Z</time>
      </trkpt>
      <trkpt lat="48.86913" lon="2.28986">
        <ele>124.2</ele>
        <time>2013-04-01T19:40:48.000Z</time>
      </trkpt>
      <trkpt lat="48.8691" lon="2.28982">
        <ele>124.5</ele>
        <time>2013-04-01T19:40:49.000Z</time>
      </trkpt>
      <trkpt lat="48.86906" lon="2.28978">
        <ele>125.3</ele>
        <time>2013-04-01T19:40:50.000Z</time>
      </trkpt>
      <trkpt lat="48.86903" lon="2.28975">
        <ele>124.1</ele>
        <time>2013-04-01T19:40:51.000Z</time>
      </trkpt>
      <trkpt lat="48.86899" lon="2.28972">
        <ele>123.2</ele>
        <time>2013-04-01T19:40:52.000Z</time>
      </trkpt>
      <trkpt lat="48.86896" lon="2.2897">
        <ele>122.6</ele>
        <time>2013-04-01T19:40:53.000Z</time>
      </trkpt>
      <trkpt lat="48.86892" lon="2.28968">
        <ele>122.7</ele>
        <time>2013-04-01T19:40:54.000Z</time>
      </trkpt>
      <trkpt lat="48.86889" lon="2.28966">
        <ele>123.3</ele>
        <time>2013-04-01T19:40:55.000Z</time>
      </trkpt>
      <trkpt lat="48.86885" lon="2.28965">
        <ele>123.7</ele>
        <time>2013-04-01T19:40:56.000Z</time>
      </trkpt>
      <trkpt lat="48.86881" lon="2.28965">
        <ele>123.5</ele>
        <time>2013-04-01T19:40:57.000Z</time>
      </trkpt>
      <trkpt lat="48.86878" lon="2.28964">
        <ele>123.9</ele>
        <time>2013-04-01T19:40:58.000Z</time>
      </trkpt>
      <trkpt lat="48.86875" lon="2.28961">
        <ele>124.2</ele>
        <time>2013-04-01T19:40:59.000Z</time>
      </trkpt>
      <trkpt lat="48.86872" lon="2.28958">
        <ele>123.6</ele>
        <time>2013-04-01T19:41:00.000Z</time>
      </trkpt>
      <trkpt lat="48.86869" lon="2.28954">
        <ele>123.5</ele>
        <time>2013-04-01T19:41:01.000Z</time>
      </trkpt>
      <trkpt lat="48.86866" lon="2.28951">
        <ele>123.1</ele>
        <time>2013-04-01T19:41:02.000Z</time>
      </trkpt>
      <trkpt lat="48.86863" lon="2.28947">
        <ele>123</ele>
        <time>2013-04-01T19:41:03.000Z</time>
      </trkpt>
      <trkpt lat="48.8686" lon="2.28944">
        <ele>123</ele>
        <time>2013-04-01T19:41:04.000Z</time>
      </trkpt>
      <trkpt lat="48.86857" lon="2.28941">
        <ele>123.2</ele>
        <time>2013-04-01T19:41:05.000Z</time>
      </trkpt>
      <trkpt lat="48.86853" lon="2.28938">
        <ele>122.6</ele>
        <time>2013-04-01T19:41:06.000Z</time>
      </trkpt>
      <trkpt lat="48.86849" lon="2.28935">
        <ele>122</ele>
        <time>2013-04-01T19:41:07.000Z</time>
      </trkpt>
      <trkpt lat="48.86846" lon="2.28933">
        <ele>121</ele>
        <time>2013-04-01T19:41:08.000Z</time>
      </trkpt>
      <trkpt lat="48.86842" lon="2.28931">
        <ele>121.5</ele>
        <time>2013-04-01T19:41:09.000Z</time>
      </trkpt>
      <trkpt lat="48.86839" lon="2.28928">
        <ele>121.5</ele>
        <time>2013-04-01T19:41:10.000Z</time>
      </trkpt>
      <trkpt lat="48.86837" lon="2.28929">
        <ele>121.8</ele>
        <time>2013-04-01T19:41:11.000Z</time>
      </trkpt>
      <trkpt lat="48.86834" lon="2.28931">
        <ele>121.4</ele>
        <time>2013-04-01T19:41:12.000Z</time>
      </trkpt>
      <trkpt lat="48.86832" lon="2.28934">
        <ele>120.4</ele>
        <time>2013-04-01T19:41:13.000Z</time>
      </trkpt>
      <trkpt lat="48.8683" lon="2.28937">
        <ele>119.9</ele>
        <time>2013-04-01T19:41:14.000Z</time>
      </trkpt>
      <trkpt lat="48.86829" lon="2.2894">
        <ele>121</ele>
        <time>2013-04-01T19:41:15.000Z</time>
      </trkpt>
      <trkpt lat="48.86827" lon="2.28943">
        <ele>120.5</ele>
        <time>2013-04-01T19:41:16.000Z</time>
      </trkpt>
      <trkpt lat="48.86827" lon="2.28947">
        <ele>119.9</ele>
        <time>2013-04-01T19:41:17.000Z</time>
      </trkpt>
      <trkpt lat="48.86826" lon="2.28951">
        <ele>117.7</ele>
        <time>2013-04-01T19:41:18.000Z</time>
      </trkpt>
      <trkpt lat="48.86825" lon="2.28956">
        <ele>117.5</ele>
        <time>2013-04-01T19:41:19.000Z</time>
      </trkpt>
      <trkpt lat="48.86823" lon="2.28962">
        <ele>115.7</ele>
        <time>2013-04-01T19:41:20.000Z</time>
      </trkpt>
      <trkpt lat="48.86821" lon="2.28969">
        <ele>115.8</ele>
        <time>2013-04-01T19:41:21.000Z</time>
      </trkpt>
      <trkpt lat="48.8682" lon="2.28976">
        <ele>114.7</ele>
        <time>2013-04-01T19:41:22.000Z</time>
      </trkpt>
      <trkpt lat="48.8682" lon="2.28984">
        <ele>111.6</ele>
        <time>2013-04-01T19:41:23.000Z</time>
      </trkpt>
      <trkpt lat="48.86817" lon="2.28989">
        <ele>110.8</ele>
        <time>2013-04-01T19:41:24.000Z</time>
      </trkpt>
      <trkpt lat="48.86815" lon="2.28995">
        <ele>111.2</ele>
        <time>2013-04-01T19:41:25.000Z</time>
      </trkpt>
      <trkpt lat="48.86811" lon="2.29002">
        <ele>110.4</ele>
        <time>2013-04-01T19:41:26.000Z</time>
      </trkpt>
      <trkpt lat="48.86808" lon="2.29009">
        <ele>110.6</ele>
        <time>2013-04-01T19:41:27.000Z</time>
      </trkpt>
      <trkpt lat="48.86806" lon="2.29015">
        <ele>110.5</ele>
        <time>2013-04-01T19:41:28.000Z</time>
      </trkpt>
      <trkpt lat="48.86804" lon="2.2902">
        <ele>109.3</ele>
        <time>2013-04-01T19:41:29.000Z</time>
      </trkpt>
      <trkpt lat="48.86801" lon="2.29025">
        <ele>109</ele>
        <time>2013-04-01T19:41:30.000Z</time>
      </trkpt>
      <trkpt lat="48.86799" lon="2.29029">
        <ele>108.2</ele>
        <time>2013-04-01T19:41:31.000Z</time>
      </trkpt>
      <trkpt lat="48.86797" lon="2.29032">
        <ele>106.9</ele>
        <time>2013-04-01T19:41:32.000Z</time>
      </trkpt>
      <trkpt lat="48.86796" lon="2.29036">
        <ele>107</ele>
        <time>2013-04-01T19:41:33.000Z</time>
      </trkpt>
      <trkpt lat="48.86795" lon="2.2904">
        <ele>106</ele>
        <time>2013-04-01T19:41:34.000Z</time>
      </trkpt>
      <trkpt lat="48.86794" lon="2.29044">
        <ele>105.4</ele>
        <time>2013-04-01T19:41:35.000Z</time>
      </trkpt>
      <trkpt lat="48.86787" lon="2.2905">
        <ele>105.3</ele>
        <time>2013-04-01T19:41:37.091Z</time>
      </trkpt>
      <trkpt lat="48.86785" lon="2.29051">
        <ele>106.9</ele>
        <time>2013-04-01T19:41:38.000Z</time>
      </trkpt>
      <trkpt lat="48.86782" lon="2.29051">
        <ele>107.3</ele>
        <time>2013-04-01T19:41:39.000Z</time>
      </trkpt>
      <trkpt lat="48.86779" lon="2.29052">
        <ele>107.7</ele>
        <time>2013-04-01T19:41:40.000Z</time>
      </trkpt>
      <trkpt lat="48.86776" lon="2.29051">
        <ele>108.2</ele>
        <time>2013-04-01T19:41:41.000Z</time>
      </trkpt>
      <trkpt lat="48.86772" lon="2.29049">
        <ele>107.6</ele>
        <time>2013-04-01T19:41:42.000Z</time>
      </trkpt>
      <trkpt lat="48.86767" lon="2.29045">
        <ele>107.3</ele>
        <time>2013-04-01T19:41:43.000Z</time>
      </trkpt>
      <trkpt lat="48.86761" lon="2.29041">
        <ele>105.3</ele>
        <time>2013-04-01T19:41:44.000Z</time>
      </trkpt>
      <trkpt lat="48.86756" lon="2.29039">
        <ele>106.1</ele>
        <time>2013-04-01T19:41:45.000Z</time>
      </trkpt>
      <trkpt lat="48.86752" lon="2.29034">
        <ele>106.1</ele>
        <time>2013-04-01T19:41:46.000Z</time>
      </trkpt>
      <trkpt lat="48.86748" lon="2.29031">
        <ele>105.6</ele>
        <time>2013-04-01T19:41:47.000Z</time>
      </trkpt>
      <trkpt lat="48.86744" lon="2.29028">
        <ele>103.4</ele>
        <time>2013-04-01T19:41:48.000Z</time>
      </trkpt>
      <trkpt lat="48.86741" lon="2.29027">
        <ele>101.2</ele>
        <time>2013-04-01T19:41:49.000Z</time>
      </trkpt>
      <trkpt lat="48.86736" lon="2.29024">
        <ele>100</ele>
        <time>2013-04-01T19:41:50.000Z</time>
      </trkpt>
      <trkpt lat="48.86732" lon="2.29022">
        <ele>99.5</ele>
        <time>2013-04-01T19:41:51.000Z</time>
      </trkpt>
      <trkpt lat="48.86727" lon="2.29019">
        <ele>99.1</ele>
        <time>2013-04-01T19:41:52.000Z</time>
      </trkpt>
      <trkpt lat="48.86722" lon="2.29017">
        <ele>98.9</ele>
        <time>2013-04-01T19:41:53.000Z</time>
      </trkpt>
      <trkpt lat="48.86718" lon="2.29014">
        <ele>99.6</ele>
        <time>2013-04-01T19:41:54.000Z</time>
      </trkpt>
      <trkpt lat="48.86714" lon="2.2901">
        <ele>98.6</ele>
        <time>2013-04-01T19:41:55.000Z</time>
      </trkpt>
      <trkpt lat="48.8671" lon="2.29007">
        <ele>101.4</ele>
        <time>2013-04-01T19:41:56.000Z</time>
      </trkpt>
      <trkpt lat="48.86706" lon="2.29004">
        <ele>100.5</ele>
        <time>2013-04-01T19:41:57.000Z</time>
      </trkpt>
      <trkpt lat="48.867" lon="2.29005">
        <ele>99.9</ele>
        <time>2013-04-01T19:41:58.000Z</time>
      </trkpt>
      <trkpt lat="48.86697" lon="2.29004">
        <ele>100.9</ele>
        <time>2013-04-01T19:41:59.000Z</time>
      </trkpt>
      <trkpt lat="48.86694" lon="2.29002">
        <ele>100</ele>
        <time>2013-04-01T19:42:00.000Z</time>
      </trkpt>
      <trkpt lat="48.8669" lon="2.29">
        <ele>100.2</ele>
        <time>2013-04-01T19:42:02.000Z</time>
      </trkpt>
      <trkpt lat="48.86688" lon="2.29">
        <ele>100.1</ele>
        <time>2013-04-01T19:42:03.000Z</time>
      </trkpt>
      <trkpt lat="48.86685" lon="2.28998">
        <ele>102</ele>
        <time>2013-04-01T19:42:05.000Z</time>
      </trkpt>
      <trkpt lat="48.86684" lon="2.28997">
        <ele>102.1</ele>
        <time>2013-04-01T19:42:06.000Z</time>
      </trkpt>
      <trkpt lat="48.86681" lon="2.28995">
        <ele>101.4</ele>
        <time>2013-04-01T19:42:08.000Z</time>
      </trkpt>
      <trkpt lat="48.86679" lon="2.28994">
        <ele>102.1</ele>
        <time>2013-04-01T19:42:09.000Z</time>
      </trkpt>
      <trkpt lat="48.86676" lon="2.28991">
        <ele>101.9</ele>
        <time>2013-04-01T19:42:11.000Z</time>
      </trkpt>
      <trkpt lat="48.86675" lon="2.2899">
        <ele>99</ele>
        <time>2013-04-01T19:42:12.000Z</time>
      </trkpt>
      <trkpt lat="48.86672" lon="2.28985">
        <ele>102.8</ele>
        <time>2013-04-01T19:42:31.000Z</time>
      </trkpt>
      <trkpt lat="48.8667" lon="2.28981">
        <ele>102.8</ele>
        <time>2013-04-01T19:42:32.000Z</time>
      </trkpt>
      <trkpt lat="48.86667" lon="2.28979">
        <ele>102.6</ele>
        <time>2013-04-01T19:42:33.000Z</time>
      </trkpt>
      <trkpt lat="48.86664" lon="2.28977">
        <ele>102</ele>
        <time>2013-04-01T19:42:34.000Z</time>
      </trkpt>
      <trkpt lat="48.86661" lon="2.28976">
        <ele>101.5</ele>
        <time>2013-04-01T19:42:35.000Z</time>
      </trkpt>
      <trkpt lat="48.86653" lon="2.2897">
        <ele>98.8</ele>
        <time>2013-04-01T19:42:38.000Z</time>
      </trkpt>
      <trkpt lat="48.8665" lon="2.28969">
        <ele>98.4</ele>
        <time>2013-04-01T19:42:39.000Z</time>
      </trkpt>
      <trkpt lat="48.86647" lon="2.28967">
        <ele>97.9</ele>
        <time>2013-04-01T19:42:40.000Z</time>
      </trkpt>
      <trkpt lat="48.86644" lon="2.28966">
        <ele>97.7</ele>
        <time>2013-04-01T19:42:41.000Z</time>
      </trkpt>
      <trkpt lat="48.8664" lon="2.28965">
        <ele>98.4</ele>
        <time>2013-04-01T19:42:42.000Z</time>
      </trkpt>
      <trkpt lat="48.86637" lon="2.28964">
        <ele>97.8</ele>
        <time>2013-04-01T19:42:43.000Z</time>
      </trkpt>
      <trkpt lat="48.86634" lon="2.28963">
        <ele>99.7</ele>
        <time>2013-04-01T19:42:44.000Z</time>
      </trkpt>
      <trkpt lat="48.8663" lon="2.28962">
        <ele>98.9</ele>
        <time>2013-04-01T19:42:45.000Z</time>
      </trkpt>
      <trkpt lat="48.86627" lon="2.28959">
        <ele>98.8</ele>
        <time>2013-04-01T19:42:46.000Z</time>
      </trkpt>
      <trkpt lat="48.86623" lon="2.28957">
        <ele>97.9</ele>
        <time>2013-04-01T19:42:47.000Z</time>
      </trkpt>
      <trkpt lat="48.8662" lon="2.28954">
        <ele>97.5</ele>
        <time>2013-04-01T19:42:48.000Z</time>
      </trkpt>
      <trkpt lat="48.86617" lon="2.28951">
        <ele>97.3</ele>
        <time>2013-04-01T19:42:49.000Z</time>
      </trkpt>
      <trkpt lat="48.86614" lon="2.28949">
        <ele>97</ele>
        <time>2013-04-01T19:42:50.000Z</time>
      </trkpt>
      <trkpt lat="48.86611" lon="2.28946">
        <ele>96.8</ele>
        <time>2013-04-01T19:42:51.000Z</time>
      </trkpt>
      <trkpt lat="48.86608" lon="2.28944">
        <ele>96.8</ele>
        <time>2013-04-01T19:42:52.000Z</time>
      </trkpt>
      <trkpt lat="48.86605" lon="2.28942">
        <ele>97.3</ele>
        <time>2013-04-01T19:42:53.000Z</time>
      </trkpt>
      <trkpt lat="48.86602" lon="2.28942">
        <ele>97.9</ele>
        <time>2013-04-01T19:42:54.000Z</time>
      </trkpt>
      <trkpt lat="48.86598" lon="2.28942">
        <ele>98.3</ele>
        <time>2013-04-01T19:42:55.000Z</time>
      </trkpt>
      <trkpt lat="48.86594" lon="2.28942">
        <ele>98.4</ele>
        <time>2013-04-01T19:42:56.000Z</time>
      </trkpt>
      <trkpt lat="48.8659" lon="2.28942">
        <ele>99.2</ele>
        <time>2013-04-01T19:42:57.000Z</time>
      </trkpt>
      <trkpt lat="48.86585" lon="2.2894">
        <ele>99</ele>
        <time>2013-04-01T19:42:58.000Z</time>
      </trkpt>
      <trkpt lat="48.86581" lon="2.28938">
        <ele>98.8</ele>
        <time>2013-04-01T19:42:59.000Z</time>
      </trkpt>
      <trkpt lat="48.86576" lon="2.28936">
        <ele>98.8</ele>
        <time>2013-04-01T19:43:00.000Z</time>
      </trkpt>
      <trkpt lat="48.86571" lon="2.28934">
        <ele>98.3</ele>
        <time>2013-04-01T19:43:01.000Z</time>
      </trkpt>
      <trkpt lat="48.86565" lon="2.28932">
        <ele>99.1</ele>
        <time>2013-04-01T19:43:02.000Z</time>
      </trkpt>
      <trkpt lat="48.86555" lon="2.28927">
        <ele>98.5</ele>
        <time>2013-04-01T19:43:03.000Z</time>
      </trkpt>
      <trkpt lat="48.8655" lon="2.28923">
        <ele>97.7</ele>
        <time>2013-04-01T19:43:04.000Z</time>
      </trkpt>
      <trkpt lat="48.8655" lon="2.28916">
        <ele>95.9</ele>
        <time>2013-04-01T19:43:05.000Z</time>
      </trkpt>
      <trkpt lat="48.86546" lon="2.28912">
        <ele>94.8</ele>
        <time>2013-04-01T19:43:06.000Z</time>
      </trkpt>
      <trkpt lat="48.86543" lon="2.28907">
        <ele>94.3</ele>
        <time>2013-04-01T19:43:07.000Z</time>
      </trkpt>
      <trkpt lat="48.86539" lon="2.28906">
        <ele>94.2</ele>
        <time>2013-04-01T19:43:08.000Z</time>
      </trkpt>
      <trkpt lat="48.86534" lon="2.28901">
        <ele>94.6</ele>
        <time>2013-04-01T19:43:09.000Z</time>
      </trkpt>
      <trkpt lat="48.86529" lon="2.28897">
        <ele>95.5</ele>
        <time>2013-04-01T19:43:10.000Z</time>
      </trkpt>
      <trkpt lat="48.86524" lon="2.28903">
        <ele>97.3</ele>
        <time>2013-04-01T19:43:11.000Z</time>
      </trkpt>
      <trkpt lat="48.86519" lon="2.289">
        <ele>100.9</ele>
        <time>2013-04-01T19:43:12.000Z</time>
      </trkpt>
      <trkpt lat="48.86516" lon="2.28896">
        <ele>100</ele>
        <time>2013-04-01T19:43:13.000Z</time>
      </trkpt>
      <trkpt lat="48.86512" lon="2.28893">
        <ele>100</ele>
        <time>2013-04-01T19:43:14.000Z</time>
      </trkpt>
      <trkpt lat="48.86509" lon="2.28889">
        <ele>99.2</ele>
        <time>2013-04-01T19:43:15.000Z</time>
      </trkpt>
      <trkpt lat="48.86506" lon="2.28884">
        <ele>99.3</ele>
        <time>2013-04-01T19:43:16.000Z</time>
      </trkpt>
      <trkpt lat="48.86503" lon="2.28881">
        <ele>99.6</ele>
        <time>2013-04-01T19:43:17.000Z</time>
      </trkpt>
      <trkpt lat="48.865" lon="2.28877">
        <ele>99.9</ele>
        <time>2013-04-01T19:43:18.000Z</time>
      </trkpt>
      <trkpt lat="48.86498" lon="2.28875">
        <ele>99.9</ele>
        <time>2013-04-01T19:43:19.000Z</time>
      </trkpt>
      <trkpt lat="48.86496" lon="2.28872">
        <ele>100.3</ele>
        <time>2013-04-01T19:43:20.000Z</time>
      </trkpt>
      <trkpt lat="48.86494" lon="2.2887">
        <ele>100.7</ele>
        <time>2013-04-01T19:43:21.000Z</time>
      </trkpt>
      <trkpt lat="48.86492" lon="2.28868">
        <ele>100.5</ele>
        <time>2013-04-01T19:43:22.000Z</time>
      </trkpt>
      <trkpt lat="48.86489" lon="2.28866">
        <ele>99.5</ele>
        <time>2013-04-01T19:43:23.000Z</time>
      </trkpt>
      <trkpt lat="48.86486" lon="2.28864">
        <ele>99.9</ele>
        <time>2013-04-01T19:43:24.000Z</time>
      </trkpt>
      <trkpt lat="48.86482" lon="2.28862">
        <ele>99.1</ele>
        <time>2013-04-01T19:43:25.000Z</time>
      </trkpt>
      <trkpt lat="48.86477" lon="2.2886">
        <ele>99.4</ele>
        <time>2013-04-01T19:43:26.000Z</time>
      </trkpt>
      <trkpt lat="48.86472" lon="2.28857">
        <ele>99.5</ele>
        <time>2013-04-01T19:43:27.000Z</time>
      </trkpt>
      <trkpt lat="48.86467" lon="2.28854">
        <ele>99.5</ele>
        <time>2013-04-01T19:43:28.000Z</time>
      </trkpt>
      <trkpt lat="48.86459" lon="2.28849">
        <ele>99.3</ele>
        <time>2013-04-01T19:43:29.000Z</time>
      </trkpt>
      <trkpt lat="48.86456" lon="2.28843">
        <ele>99.2</ele>
        <time>2013-04-01T19:43:30.000Z</time>
      </trkpt>
      <trkpt lat="48.86454" lon="2.28838">
        <ele>99.2</ele>
        <time>2013-04-01T19:43:31.000Z</time>
      </trkpt>
      <trkpt lat="48.86439" lon="2.28814">
        <ele>98.1</ele>
        <time>2013-04-01T19:43:35.000Z</time>
      </trkpt>
      <trkpt lat="48.86425" lon="2.28796">
        <ele>96.5</ele>
        <time>2013-04-01T19:43:39.000Z</time>
      </trkpt>
      <trkpt lat="48.8642" lon="2.28796">
        <ele>95.6</ele>
        <time>2013-04-01T19:43:40.000Z</time>
      </trkpt>
      <trkpt lat="48.86416" lon="2.28793">
        <ele>94.9</ele>
        <time>2013-04-01T19:43:41.000Z</time>
      </trkpt>
      <trkpt lat="48.86412" lon="2.28791">
        <ele>94.3</ele>
        <time>2013-04-01T19:43:42.000Z</time>
      </trkpt>
      <trkpt lat="48.86407" lon="2.28783">
        <ele>93.4</ele>
        <time>2013-04-01T19:43:43.000Z</time>
      </trkpt>
      <trkpt lat="48.86403" lon="2.28779">
        <ele>93</ele>
        <time>2013-04-01T19:43:44.000Z</time>
      </trkpt>
      <trkpt lat="48.86399" lon="2.28773">
        <ele>92.8</ele>
        <time>2013-04-01T19:43:45.000Z</time>
      </trkpt>
      <trkpt lat="48.86393" lon="2.2877">
        <ele>93.2</ele>
        <time>2013-04-01T19:43:46.000Z</time>
      </trkpt>
      <trkpt lat="48.86385" lon="2.28776">
        <ele>93.9</ele>
        <time>2013-04-01T19:43:47.000Z</time>
      </trkpt>
      <trkpt lat="48.86382" lon="2.28771">
        <ele>93.9</ele>
        <time>2013-04-01T19:43:48.000Z</time>
      </trkpt>
      <trkpt lat="48.86376" lon="2.2877">
        <ele>94.4</ele>
        <time>2013-04-01T19:43:49.000Z</time>
      </trkpt>
      <trkpt lat="48.86374" lon="2.28764">
        <ele>94.3</ele>
        <time>2013-04-01T19:43:50.000Z</time>
      </trkpt>
      <trkpt lat="48.86371" lon="2.2876">
        <ele>93.8</ele>
        <time>2013-04-01T19:43:51.000Z</time>
      </trkpt>
      <trkpt lat="48.86368" lon="2.2876">
        <ele>92.6</ele>
        <time>2013-04-01T19:43:52.000Z</time>
      </trkpt>
      <trkpt lat="48.86366" lon="2.28759">
        <ele>93.5</ele>
        <time>2013-04-01T19:43:53.000Z</time>
      </trkpt>
      <trkpt lat="48.86363" lon="2.28758">
        <ele>93.5</ele>
        <time>2013-04-01T19:43:54.000Z</time>
      </trkpt>
      <trkpt lat="48.8636" lon="2.28754">
        <ele>93.1</ele>
        <time>2013-04-01T19:43:55.000Z</time>
      </trkpt>
      <trkpt lat="48.86357" lon="2.28752">
        <ele>93.2</ele>
        <time>2013-04-01T19:43:56.000Z</time>
      </trkpt>
      <trkpt lat="48.86355" lon="2.28752">
        <ele>94.2</ele>
        <time>2013-04-01T19:43:57.000Z</time>
      </trkpt>
      <trkpt lat="48.86351" lon="2.2875">
        <ele>93.8</ele>
        <time>2013-04-01T19:43:59.000Z</time>
      </trkpt>
      <trkpt lat="48.86349" lon="2.2875">
        <ele>93.9</ele>
        <time>2013-04-01T19:44:00.000Z</time>
      </trkpt>
      <trkpt lat="48.86347" lon="2.28745">
        <ele>93.2</ele>
        <time>2013-04-01T19:44:02.000Z</time>
      </trkpt>
      <trkpt lat="48.86347" lon="2.28741">
        <ele>94.3</ele>
        <time>2013-04-01T19:44:03.000Z</time>
      </trkpt>
      <trkpt lat="48.86347" lon="2.28735">
        <ele>94.8</ele>
        <time>2013-04-01T19:44:04.000Z</time>
      </trkpt>
      <trkpt lat="48.86347" lon="2.2873">
        <ele>94.7</ele>
        <time>2013-04-01T19:44:05.000Z</time>
      </trkpt>
      <trkpt lat="48.86347" lon="2.28725">
        <ele>95.1</ele>
        <time>2013-04-01T19:44:06.000Z</time>
      </trkpt>
      <trkpt lat="48.86347" lon="2.28719">
        <ele>95.2</ele>
        <time>2013-04-01T19:44:07.000Z</time>
      </trkpt>
      <trkpt lat="48.86347" lon="2.28714">
        <ele>94.6</ele>
        <time>2013-04-01T19:44:08.000Z</time>
      </trkpt>
      <trkpt lat="48.86346" lon="2.28709">
        <ele>94.6</ele>
        <time>2013-04-01T19:44:09.000Z</time>
      </trkpt>
      <trkpt lat="48.86345" lon="2.28703">
        <ele>94.7</ele>
        <time>2013-04-01T19:44:10.000Z</time>
      </trkpt>
      <trkpt lat="48.86343" lon="2.28698">
        <ele>94.1</ele>
        <time>2013-04-01T19:44:11.000Z</time>
      </trkpt>
      <trkpt lat="48.86342" lon="2.28693">
        <ele>95.1</ele>
        <time>2013-04-01T19:44:12.000Z</time>
      </trkpt>
      <trkpt lat="48.8634" lon="2.28688">
        <ele>94.5</ele>
        <time>2013-04-01T19:44:13.000Z</time>
      </trkpt>
      <trkpt lat="48.86338" lon="2.28682">
        <ele>94.8</ele>
        <time>2013-04-01T19:44:14.000Z</time>
      </trkpt>
      <trkpt lat="48.86335" lon="2.28677">
        <ele>95</ele>
        <time>2013-04-01T19:44:15.000Z</time>
      </trkpt>
      <trkpt lat="48.86333" lon="2.28671">
        <ele>94.9</ele>
        <time>2013-04-01T19:44:16.000Z</time>
      </trkpt>
      <trkpt lat="48.8633" lon="2.28666">
        <ele>94.2</ele>
        <time>2013-04-01T19:44:17.000Z</time>
      </trkpt>
      <trkpt lat="48.86328" lon="2.28662">
        <ele>93.8</ele>
        <time>2013-04-01T19:44:18.000Z</time>
      </trkpt>
      <trkpt lat="48.86325" lon="2.28658">
        <ele>93.6</ele>
        <time>2013-04-01T19:44:19.000Z</time>
      </trkpt>
      <trkpt lat="48.86321" lon="2.28654">
        <ele>94.4</ele>
        <time>2013-04-01T19:44:20.000Z</time>
      </trkpt>
      <trkpt lat="48.86317" lon="2.28651">
        <ele>93</ele>
        <time>2013-04-01T19:44:21.000Z</time>
      </trkpt>
      <trkpt lat="48.86314" lon="2.28649">
        <ele>92.5</ele>
        <time>2013-04-01T19:44:22.000Z</time>
      </trkpt>
      <trkpt lat="48.8631" lon="2.28647">
        <ele>92.3</ele>
        <time>2013-04-01T19:44:23.000Z</time>
      </trkpt>
      <trkpt lat="48.86306" lon="2.28645">
        <ele>92.3</ele>
        <time>2013-04-01T19:44:24.000Z</time>
      </trkpt>
      <trkpt lat="48.86302" lon="2.28644">
        <ele>92.7</ele>
        <time>2013-04-01T19:44:25.000Z</time>
      </trkpt>
      <trkpt lat="48.86298" lon="2.28643">
        <ele>92.4</ele>
        <time>2013-04-01T19:44:26.000Z</time>
      </trkpt>
      <trkpt lat="48.86294" lon="2.28643">
        <ele>92.2</ele>
        <time>2013-04-01T19:44:27.000Z</time>
      </trkpt>
      <trkpt lat="48.8629" lon="2.28644">
        <ele>92.6</ele>
        <time>2013-04-01T19:44:28.000Z</time>
      </trkpt>
      <trkpt lat="48.86286" lon="2.28644">
        <ele>95.2</ele>
        <time>2013-04-01T19:44:29.000Z</time>
      </trkpt>
      <trkpt lat="48.86282" lon="2.28645">
        <ele>95</ele>
        <time>2013-04-01T19:44:30.000Z</time>
      </trkpt>
      <trkpt lat="48.86278" lon="2.28646">
        <ele>95.6</ele>
        <time>2013-04-01T19:44:31.000Z</time>
      </trkpt>
      <trkpt lat="48.86274" lon="2.28648">
        <ele>94.8</ele>
        <time>2013-04-01T19:44:32.000Z</time>
      </trkpt>
      <trkpt lat="48.8627" lon="2.28651">
        <ele>95.6</ele>
        <time>2013-04-01T19:44:33.000Z</time>
      </trkpt>
      <trkpt lat="48.86266" lon="2.28654">
        <ele>96.9</ele>
        <time>2013-04-01T19:44:34.000Z</time>
      </trkpt>
      <trkpt lat="48.86262" lon="2.28657">
        <ele>98</ele>
        <time>2013-04-01T19:44:35.000Z</time>
      </trkpt>
      <trkpt lat="48.86252" lon="2.2867">
        <ele>97.8</ele>
        <time>2013-04-01T19:44:36.916Z</time>
      </trkpt>
      <trkpt lat="48.8625" lon="2.28673">
        <ele>98</ele>
        <time>2013-04-01T19:44:38.000Z</time>
      </trkpt>
      <trkpt lat="48.86245" lon="2.2867">
        <ele>97.4</ele>
        <time>2013-04-01T19:44:39.000Z</time>
      </trkpt>
      <trkpt lat="48.86241" lon="2.28672">
        <ele>97.1</ele>
        <time>2013-04-01T19:44:40.000Z</time>
      </trkpt>
      <trkpt lat="48.86237" lon="2.28672">
        <ele>97.2</ele>
        <time>2013-04-01T19:44:41.000Z</time>
      </trkpt>
      <trkpt lat="48.86233" lon="2.28673">
        <ele>96.5</ele>
        <time>2013-04-01T19:44:42.000Z</time>
      </trkpt>
      <trkpt lat="48.86229" lon="2.28673">
        <ele>96.5</ele>
        <time>2013-04-01T19:44:43.000Z</time>
      </trkpt>
      <trkpt lat="48.86226" lon="2.2867">
        <ele>95.8</ele>
        <time>2013-04-01T19:44:44.000Z</time>
      </trkpt>
      <trkpt lat="48.86222" lon="2.28668">
        <ele>95.2</ele>
        <time>2013-04-01T19:44:45.000Z</time>
      </trkpt>
      <trkpt lat="48.8622" lon="2.28665">
        <ele>96.3</ele>
        <time>2013-04-01T19:44:46.000Z</time>
      </trkpt>
      <trkpt lat="48.86218" lon="2.28663">
        <ele>96.1</ele>
        <time>2013-04-01T19:44:47.000Z</time>
      </trkpt>
      <trkpt lat="48.86215" lon="2.28663">
        <ele>96.1</ele>
        <time>2013-04-01T19:44:48.000Z</time>
      </trkpt>
      <trkpt lat="48.86212" lon="2.28662">
        <ele>95.1</ele>
        <time>2013-04-01T19:44:49.000Z</time>
      </trkpt>
      <trkpt lat="48.86209" lon="2.28662">
        <ele>94.9</ele>
        <time>2013-04-01T19:44:50.000Z</time>
      </trkpt>
      <trkpt lat="48.86206" lon="2.28662">
        <ele>94.5</ele>
        <time>2013-04-01T19:44:51.000Z</time>
      </trkpt>
      <trkpt lat="48.86203" lon="2.28662">
        <ele>94.7</ele>
        <time>2013-04-01T19:44:52.000Z</time>
      </trkpt>
      <trkpt lat="48.862" lon="2.28663">
        <ele>95.5</ele>
        <time>2013-04-01T19:44:53.000Z</time>
      </trkpt>
      <trkpt lat="48.86197" lon="2.28663">
        <ele>95.2</ele>
        <time>2013-04-01T19:44:54.000Z</time>
      </trkpt>
      <trkpt lat="48.86195" lon="2.28663">
        <ele>96</ele>
        <time>2013-04-01T19:44:55.000Z</time>
      </trkpt>
      <trkpt lat="48.86192" lon="2.28664">
        <ele>96.2</ele>
        <time>2013-04-01T19:44:56.000Z</time>
      </trkpt>
      <trkpt lat="48.86189" lon="2.28665">
        <ele>96.6</ele>
        <time>2013-04-01T19:44:57.000Z</time>
      </trkpt>
      <trkpt lat="48.86187" lon="2.28665">
        <ele>97.1</ele>
        <time>2013-04-01T19:44:58.000Z</time>
      </trkpt>
      <trkpt lat="48.86184" lon="2.28665">
        <ele>97.4</ele>
        <time>2013-04-01T19:44:59.000Z</time>
      </trkpt>
      <trkpt lat="48.86181" lon="2.28666">
        <ele>97.1</ele>
        <time>2013-04-01T19:45:00.000Z</time>
      </trkpt>
      <trkpt lat="48.86178" lon="2.28666">
        <ele>97.4</ele>
        <time>2013-04-01T19:45:01.000Z</time>
      </trkpt>
      <trkpt lat="48.86175" lon="2.28667">
        <ele>97.3</ele>
        <time>2013-04-01T19:45:02.000Z</time>
      </trkpt>
      <trkpt lat="48.86173" lon="2.28667">
        <ele>97.5</ele>
        <time>2013-04-01T19:45:03.000Z</time>
      </trkpt>
      <trkpt lat="48.86169" lon="2.28667">
        <ele>98</ele>
        <time>2013-04-01T19:45:04.000Z</time>
      </trkpt>
      <trkpt lat="48.86166" lon="2.28667">
        <ele>98.2</ele>
        <time>2013-04-01T19:45:05.000Z</time>
      </trkpt>
      <trkpt lat="48.86162" lon="2.28667">
        <ele>98.2</ele>
        <time>2013-04-01T19:45:06.000Z</time>
      </trkpt>
      <trkpt lat="48.86159" lon="2.28667">
        <ele>98.3</ele>
        <time>2013-04-01T19:45:07.000Z</time>
      </trkpt>
      <trkpt lat="48.86157" lon="2.28667">
        <ele>100.1</ele>
        <time>2013-04-01T19:45:08.000Z</time>
      </trkpt>
      <trkpt lat="48.86154" lon="2.28666">
        <ele>100.9</ele>
        <time>2013-04-01T19:45:09.000Z</time>
      </trkpt>
      <trkpt lat="48.86152" lon="2.28665">
        <ele>101.3</ele>
        <time>2013-04-01T19:45:10.000Z</time>
      </trkpt>
      <trkpt lat="48.8615" lon="2.28665">
        <ele>100.6</ele>
        <time>2013-04-01T19:45:11.000Z</time>
      </trkpt>
      <trkpt lat="48.86147" lon="2.28665">
        <ele>100.8</ele>
        <time>2013-04-01T19:45:12.000Z</time>
      </trkpt>
      <trkpt lat="48.86144" lon="2.28664">
        <ele>100.7</ele>
        <time>2013-04-01T19:45:13.000Z</time>
      </trkpt>
      <trkpt lat="48.86142" lon="2.28663">
        <ele>100</ele>
        <time>2013-04-01T19:45:14.000Z</time>
      </trkpt>
      <trkpt lat="48.86138" lon="2.28661">
        <ele>100</ele>
        <time>2013-04-01T19:45:15.000Z</time>
      </trkpt>
      <trkpt lat="48.86135" lon="2.28659">
        <ele>99.1</ele>
        <time>2013-04-01T19:45:16.000Z</time>
      </trkpt>
      <trkpt lat="48.86131" lon="2.28657">
        <ele>98.7</ele>
        <time>2013-04-01T19:45:17.000Z</time>
      </trkpt>
      <trkpt lat="48.86128" lon="2.28654">
        <ele>99.6</ele>
        <time>2013-04-01T19:45:18.000Z</time>
      </trkpt>
      <trkpt lat="48.86124" lon="2.28651">
        <ele>100.7</ele>
        <time>2013-04-01T19:45:19.000Z</time>
      </trkpt>
      <trkpt lat="48.86121" lon="2.28649">
        <ele>100.8</ele>
        <time>2013-04-01T19:45:20.000Z</time>
      </trkpt>
      <trkpt lat="48.86117" lon="2.28647">
        <ele>99.9</ele>
        <time>2013-04-01T19:45:21.000Z</time>
      </trkpt>
      <trkpt lat="48.86112" lon="2.28645">
        <ele>100.3</ele>
        <time>2013-04-01T19:45:22.000Z</time>
      </trkpt>
      <trkpt lat="48.86108" lon="2.28644">
        <ele>100.6</ele>
        <time>2013-04-01T19:45:23.000Z</time>
      </trkpt>
      <trkpt lat="48.86104" lon="2.28643">
        <ele>100.7</ele>
        <time>2013-04-01T19:45:24.000Z</time>
      </trkpt>
      <trkpt lat="48.86099" lon="2.28643">
        <ele>101.4</ele>
        <time>2013-04-01T19:45:25.000Z</time>
      </trkpt>
      <trkpt lat="48.86095" lon="2.28642">
        <ele>101.8</ele>
        <time>2013-04-01T19:45:26.000Z</time>
      </trkpt>
      <trkpt lat="48.8609" lon="2.28641">
        <ele>100.9</ele>
        <time>2013-04-01T19:45:27.000Z</time>
      </trkpt>
      <trkpt lat="48.86086" lon="2.2864">
        <ele>100.5</ele>
        <time>2013-04-01T19:45:28.000Z</time>
      </trkpt>
      <trkpt lat="48.86082" lon="2.28638">
        <ele>101.6</ele>
        <time>2013-04-01T19:45:29.000Z</time>
      </trkpt>
      <trkpt lat="48.86079" lon="2.28636">
        <ele>102.1</ele>
        <time>2013-04-01T19:45:30.000Z</time>
      </trkpt>
      <trkpt lat="48.86076" lon="2.28633">
        <ele>101.9</ele>
        <time>2013-04-01T19:45:31.000Z</time>
      </trkpt>
      <trkpt lat="48.86073" lon="2.28631">
        <ele>102</ele>
        <time>2013-04-01T19:45:32.000Z</time>
      </trkpt>
      <trkpt lat="48.8607" lon="2.28627">
        <ele>102</ele>
        <time>2013-04-01T19:45:33.000Z</time>
      </trkpt>
      <trkpt lat="48.86067" lon="2.28624">
        <ele>101.9</ele>
        <time>2013-04-01T19:45:34.000Z</time>
      </trkpt>
      <trkpt lat="48.86064" lon="2.2862">
        <ele>102.9</ele>
        <time>2013-04-01T19:45:35.000Z</time>
      </trkpt>
      <trkpt lat="48.86056" lon="2.2861">
        <ele>101.1</ele>
        <time>2013-04-01T19:45:38.000Z</time>
      </trkpt>
      <trkpt lat="48.86053" lon="2.28607">
        <ele>100.7</ele>
        <time>2013-04-01T19:45:39.000Z</time>
      </trkpt>
      <trkpt lat="48.8605" lon="2.28604">
        <ele>100.5</ele>
        <time>2013-04-01T19:45:40.000Z</time>
      </trkpt>
      <trkpt lat="48.86047" lon="2.28601">
        <ele>99.8</ele>
        <time>2013-04-01T19:45:41.000Z</time>
      </trkpt>
      <trkpt lat="48.86044" lon="2.28597">
        <ele>99.3</ele>
        <time>2013-04-01T19:45:42.000Z</time>
      </trkpt>
      <trkpt lat="48.86041" lon="2.28592">
        <ele>99.2</ele>
        <time>2013-04-01T19:45:43.000Z</time>
      </trkpt>
      <trkpt lat="48.86035" lon="2.28582">
        <ele>98.9</ele>
        <time>2013-04-01T19:45:44.000Z</time>
      </trkpt>
      <trkpt lat="48.8603" lon="2.28579">
        <ele>98.2</ele>
        <time>2013-04-01T19:45:45.000Z</time>
      </trkpt>
      <trkpt lat="48.86023" lon="2.28578">
        <ele>97.5</ele>
        <time>2013-04-01T19:45:46.000Z</time>
      </trkpt>
      <trkpt lat="48.86017" lon="2.28575">
        <ele>97.1</ele>
        <time>2013-04-01T19:45:47.000Z</time>
      </trkpt>
      <trkpt lat="48.86013" lon="2.28572">
        <ele>97.2</ele>
        <time>2013-04-01T19:45:48.000Z</time>
      </trkpt>
      <trkpt lat="48.86009" lon="2.28569">
        <ele>96.6</ele>
        <time>2013-04-01T19:45:49.000Z</time>
      </trkpt>
      <trkpt lat="48.86004" lon="2.28564">
        <ele>96.4</ele>
        <time>2013-04-01T19:45:50.000Z</time>
      </trkpt>
      <trkpt lat="48.86001" lon="2.28559">
        <ele>96.8</ele>
        <time>2013-04-01T19:45:51.000Z</time>
      </trkpt>
      <trkpt lat="48.85995" lon="2.28562">
        <ele>97.1</ele>
        <time>2013-04-01T19:45:52.000Z</time>
      </trkpt>
      <trkpt lat="48.8599" lon="2.28557">
        <ele>96.6</ele>
        <time>2013-04-01T19:45:53.000Z</time>
      </trkpt>
      <trkpt lat="48.85987" lon="2.28548">
        <ele>95.6</ele>
        <time>2013-04-01T19:45:54.000Z</time>
      </trkpt>
      <trkpt lat="48.85983" lon="2.28542">
        <ele>95.4</ele>
        <time>2013-04-01T19:45:55.000Z</time>
      </trkpt>
      <trkpt lat="48.85978" lon="2.28538">
        <ele>94.7</ele>
        <time>2013-04-01T19:45:56.000Z</time>
      </trkpt>
      <trkpt lat="48.85969" lon="2.28541">
        <ele>95.5</ele>
        <time>2013-04-01T19:45:57.000Z</time>
      </trkpt>
      <trkpt lat="48.85963" lon="2.2854">
        <ele>95.9</ele>
        <time>2013-04-01T19:45:58.000Z</time>
      </trkpt>
      <trkpt lat="48.85956" lon="2.28541">
        <ele>97.1</ele>
        <time>2013-04-01T19:45:59.000Z</time>
      </trkpt>
      <trkpt lat="48.85951" lon="2.28538">
        <ele>97.5</ele>
        <time>2013-04-01T19:46:00.000Z</time>
      </trkpt>
      <trkpt lat="48.85946" lon="2.28536">
        <ele>97.6</ele>
        <time>2013-04-01T19:46:01.000Z</time>
      </trkpt>
      <trkpt lat="48.85942" lon="2.28534">
        <ele>97.6</ele>
        <time>2013-04-01T19:46:02.000Z</time>
      </trkpt>
      <trkpt lat="48.85937" lon="2.28532">
        <ele>97.6</ele>
        <time>2013-04-01T19:46:03.000Z</time>
      </trkpt>
      <trkpt lat="48.85933" lon="2.28531">
        <ele>97.3</ele>
        <time>2013-04-01T19:46:04.000Z</time>
      </trkpt>
      <trkpt lat="48.85928" lon="2.28527">
        <ele>97.2</ele>
        <time>2013-04-01T19:46:05.000Z</time>
      </trkpt>
      <trkpt lat="48.85924" lon="2.28523">
        <ele>98.8</ele>
        <time>2013-04-01T19:46:06.000Z</time>
      </trkpt>
      <trkpt lat="48.85919" lon="2.28522">
        <ele>98.7</ele>
        <time>2013-04-01T19:46:07.000Z</time>
      </trkpt>
      <trkpt lat="48.85914" lon="2.28524">
        <ele>98.9</ele>
        <time>2013-04-01T19:46:08.000Z</time>
      </trkpt>
      <trkpt lat="48.85909" lon="2.28521">
        <ele>98.7</ele>
        <time>2013-04-01T19:46:09.000Z</time>
      </trkpt>
      <trkpt lat="48.85905" lon="2.28519">
        <ele>98.4</ele>
        <time>2013-04-01T19:46:10.000Z</time>
      </trkpt>
      <trkpt lat="48.85901" lon="2.28517">
        <ele>98.1</ele>
        <time>2013-04-01T19:46:11.000Z</time>
      </trkpt>
      <trkpt lat="48.85896" lon="2.28519">
        <ele>97.9</ele>
        <time>2013-04-01T19:46:12.000Z</time>
      </trkpt>
      <trkpt lat="48.85894" lon="2.28515">
        <ele>98.2</ele>
        <time>2013-04-01T19:46:13.000Z</time>
      </trkpt>
      <trkpt lat="48.8589" lon="2.28513">
        <ele>98.2</ele>
        <time>2013-04-01T19:46:14.000Z</time>
      </trkpt>
      <trkpt lat="48.85886" lon="2.28515">
        <ele>98.2</ele>
        <time>2013-04-01T19:46:15.000Z</time>
      </trkpt>
      <trkpt lat="48.85883" lon="2.28511">
        <ele>98.2</ele>
        <time>2013-04-01T19:46:16.000Z</time>
      </trkpt>
      <trkpt lat="48.85878" lon="2.28507">
        <ele>98</ele>
        <time>2013-04-01T19:46:17.000Z</time>
      </trkpt>
      <trkpt lat="48.85878" lon="2.28501">
        <ele>98.6</ele>
        <time>2013-04-01T19:46:18.000Z</time>
      </trkpt>
      <trkpt lat="48.85875" lon="2.28499">
        <ele>98.6</ele>
        <time>2013-04-01T19:46:19.000Z</time>
      </trkpt>
      <trkpt lat="48.85873" lon="2.28497">
        <ele>98.8</ele>
        <time>2013-04-01T19:46:20.000Z</time>
      </trkpt>
      <trkpt lat="48.8587" lon="2.28493">
        <ele>99.6</ele>
        <time>2013-04-01T19:46:21.000Z</time>
      </trkpt>
      <trkpt lat="48.85867" lon="2.28492">
        <ele>100.9</ele>
        <time>2013-04-01T19:46:22.000Z</time>
      </trkpt>
      <trkpt lat="48.85864" lon="2.28491">
        <ele>101.4</ele>
        <time>2013-04-01T19:46:23.000Z</time>
      </trkpt>
      <trkpt lat="48.85861" lon="2.2849">
        <ele>101.6</ele>
        <time>2013-04-01T19:46:24.000Z</time>
      </trkpt>
      <trkpt lat="48.85859" lon="2.2849">
        <ele>102.9</ele>
        <time>2013-04-01T19:46:25.000Z</time>
      </trkpt>
      <trkpt lat="48.85855" lon="2.2849">
        <ele>103</ele>
        <time>2013-04-01T19:46:27.000Z</time>
      </trkpt>
      <trkpt lat="48.85853" lon="2.28487">
        <ele>105.8</ele>
        <time>2013-04-01T19:46:28.000Z</time>
      </trkpt>
      <trkpt lat="48.85852" lon="2.28483">
        <ele>105.1</ele>
        <time>2013-04-01T19:46:29.000Z</time>
      </trkpt>
      <trkpt lat="48.85852" lon="2.28478">
        <ele>104.2</ele>
        <time>2013-04-01T19:46:30.000Z</time>
      </trkpt>
      <trkpt lat="48.85851" lon="2.28472">
        <ele>102.8</ele>
        <time>2013-04-01T19:46:31.000Z</time>
      </trkpt>
      <trkpt lat="48.8585" lon="2.28467">
        <ele>103.5</ele>
        <time>2013-04-01T19:46:32.000Z</time>
      </trkpt>
      <trkpt lat="48.85848" lon="2.28464">
        <ele>102.3</ele>
        <time>2013-04-01T19:46:33.000Z</time>
      </trkpt>
      <trkpt lat="48.85845" lon="2.28461">
        <ele>102.8</ele>
        <time>2013-04-01T19:46:34.000Z</time>
      </trkpt>
      <trkpt lat="48.85842" lon="2.28459">
        <ele>103.3</ele>
        <time>2013-04-01T19:46:35.000Z</time>
      </trkpt>
      <trkpt lat="48.8583" lon="2.28458">
        <ele>104.9</ele>
        <time>2013-04-01T19:46:38.000Z</time>
      </trkpt>
      <trkpt lat="48.85826" lon="2.28457">
        <ele>104.3</ele>
        <time>2013-04-01T19:46:39.000Z</time>
      </trkpt>
      <trkpt lat="48.85823" lon="2.28454">
        <ele>103.8</ele>
        <time>2013-04-01T19:46:40.000Z</time>
      </trkpt>
      <trkpt lat="48.8582" lon="2.28452">
        <ele>103.5</ele>
        <time>2013-04-01T19:46:41.000Z</time>
      </trkpt>
      <trkpt lat="48.85817" lon="2.28449">
        <ele>103.6</ele>
        <time>2013-04-01T19:46:42.000Z</time>
      </trkpt>
      <trkpt lat="48.85814" lon="2.28446">
        <ele>103.7</ele>
        <time>2013-04-01T19:46:43.000Z</time>
      </trkpt>
      <trkpt lat="48.8581" lon="2.28443">
        <ele>103.7</ele>
        <time>2013-04-01T19:46:44.000Z</time>
      </trkpt>
      <trkpt lat="48.85807" lon="2.28441">
        <ele>103.6</ele>
        <time>2013-04-01T19:46:45.000Z</time>
      </trkpt>
      <trkpt lat="48.85804" lon="2.28438">
        <ele>103.5</ele>
        <time>2013-04-01T19:46:46.000Z</time>
      </trkpt>
      <trkpt lat="48.85801" lon="2.28436">
        <ele>103.6</ele>
        <time>2013-04-01T19:46:47.000Z</time>
      </trkpt>
      <trkpt lat="48.85798" lon="2.28435">
        <ele>103.8</ele>
        <time>2013-04-01T19:46:48.000Z</time>
      </trkpt>
      <trkpt lat="48.85795" lon="2.28433">
        <ele>103.8</ele>
        <time>2013-04-01T19:46:49.000Z</time>
      </trkpt>
      <trkpt lat="48.85793" lon="2.28429">
        <ele>103.7</ele>
        <time>2013-04-01T19:46:50.000Z</time>
      </trkpt>
      <trkpt lat="48.8579" lon="2.28429">
        <ele>103.7</ele>
        <time>2013-04-01T19:46:51.000Z</time>
      </trkpt>
      <trkpt lat="48.85788" lon="2.28429">
        <ele>103.3</ele>
        <time>2013-04-01T19:46:52.000Z</time>
      </trkpt>
      <trkpt lat="48.85785" lon="2.28424">
        <ele>103</ele>
        <time>2013-04-01T19:46:56.000Z</time>
      </trkpt>
      <trkpt lat="48.85784" lon="2.28422">
        <ele>103</ele>
        <time>2013-04-01T19:46:57.000Z</time>
      </trkpt>
      <trkpt lat="48.85783" lon="2.2842">
        <ele>103</ele>
        <time>2013-04-01T19:46:58.000Z</time>
      </trkpt>
      <trkpt lat="48.85781" lon="2.28417">
        <ele>102.9</ele>
        <time>2013-04-01T19:46:59.000Z</time>
      </trkpt>
      <trkpt lat="48.85779" lon="2.28414">
        <ele>102.9</ele>
        <time>2013-04-01T19:47:00.000Z</time>
      </trkpt>
      <trkpt lat="48.85776" lon="2.2841">
        <ele>102.8</ele>
        <time>2013-04-01T19:47:01.000Z</time>
      </trkpt>
      <trkpt lat="48.85772" lon="2.28406">
        <ele>101.2</ele>
        <time>2013-04-01T19:47:02.000Z</time>
      </trkpt>
      <trkpt lat="48.85769" lon="2.28401">
        <ele>100.3</ele>
        <time>2013-04-01T19:47:03.000Z</time>
      </trkpt>
      <trkpt lat="48.85767" lon="2.28395">
        <ele>100.8</ele>
        <time>2013-04-01T19:47:04.000Z</time>
      </trkpt>
      <trkpt lat="48.85764" lon="2.28391">
        <ele>101.7</ele>
        <time>2013-04-01T19:47:05.000Z</time>
      </trkpt>
      <trkpt lat="48.85761" lon="2.28386">
        <ele>103.2</ele>
        <time>2013-04-01T19:47:06.000Z</time>
      </trkpt>
      <trkpt lat="48.85759" lon="2.28382">
        <ele>102.8</ele>
        <time>2013-04-01T19:47:07.000Z</time>
      </trkpt>
      <trkpt lat="48.85757" lon="2.28376">
        <ele>103.9</ele>
        <time>2013-04-01T19:47:08.000Z</time>
      </trkpt>
      <trkpt lat="48.85754" lon="2.2837">
        <ele>103.3</ele>
        <time>2013-04-01T19:47:09.000Z</time>
      </trkpt>
      <trkpt lat="48.85752" lon="2.28365">
        <ele>103.8</ele>
        <time>2013-04-01T19:47:10.000Z</time>
      </trkpt>
      <trkpt lat="48.85749" lon="2.2836">
        <ele>104.1</ele>
        <time>2013-04-01T19:47:11.000Z</time>
      </trkpt>
      <trkpt lat="48.85747" lon="2.28356">
        <ele>104.3</ele>
        <time>2013-04-01T19:47:12.000Z</time>
      </trkpt>
      <trkpt lat="48.85744" lon="2.28352">
        <ele>104.3</ele>
        <time>2013-04-01T19:47:13.000Z</time>
      </trkpt>
      <trkpt lat="48.85741" lon="2.28347">
        <ele>104.8</ele>
        <time>2013-04-01T19:47:14.000Z</time>
      </trkpt>
      <trkpt lat="48.85739" lon="2.28342">
        <ele>104.2</ele>
        <time>2013-04-01T19:47:15.000Z</time>
      </trkpt>
      <trkpt lat="48.85735" lon="2.28336">
        <ele>103.5</ele>
        <time>2013-04-01T19:47:16.000Z</time>
      </trkpt>
      <trkpt lat="48.85732" lon="2.28331">
        <ele>103.7</ele>
        <time>2013-04-01T19:47:17.000Z</time>
      </trkpt>
      <trkpt lat="48.85729" lon="2.28325">
        <ele>103.5</ele>
        <time>2013-04-01T19:47:18.000Z</time>
      </trkpt>
      <trkpt lat="48.85726" lon="2.28319">
        <ele>103.3</ele>
        <time>2013-04-01T19:47:19.000Z</time>
      </trkpt>
      <trkpt lat="48.85722" lon="2.28315">
        <ele>105.6</ele>
        <time>2013-04-01T19:47:20.000Z</time>
      </trkpt>
      <trkpt lat="48.85719" lon="2.28312">
        <ele>105.1</ele>
        <time>2013-04-01T19:47:21.000Z</time>
      </trkpt>
      <trkpt lat="48.85716" lon="2.2831">
        <ele>105.2</ele>
        <time>2013-04-01T19:47:22.000Z</time>
      </trkpt>
      <trkpt lat="48.85714" lon="2.28307">
        <ele>104.3</ele>
        <time>2013-04-01T19:47:23.000Z</time>
      </trkpt>
      <trkpt lat="48.85711" lon="2.28303">
        <ele>103.6</ele>
        <time>2013-04-01T19:47:24.000Z</time>
      </trkpt>
      <trkpt lat="48.85708" lon="2.28299">
        <ele>104.2</ele>
        <time>2013-04-01T19:47:25.000Z</time>
      </trkpt>
      <trkpt lat="48.85706" lon="2.28296">
        <ele>104.4</ele>
        <time>2013-04-01T19:47:26.000Z</time>
      </trkpt>
      <trkpt lat="48.85703" lon="2.28293">
        <ele>103.2</ele>
        <time>2013-04-01T19:47:27.000Z</time>
      </trkpt>
      <trkpt lat="48.85701" lon="2.2829">
        <ele>103</ele>
        <time>2013-04-01T19:47:28.000Z</time>
      </trkpt>
      <trkpt lat="48.85699" lon="2.28288">
        <ele>102.7</ele>
        <time>2013-04-01T19:47:29.000Z</time>
      </trkpt>
      <trkpt lat="48.85696" lon="2.28284">
        <ele>103.2</ele>
        <time>2013-04-01T19:47:30.000Z</time>
      </trkpt>
      <trkpt lat="48.85694" lon="2.2828">
        <ele>103.1</ele>
        <time>2013-04-01T19:47:31.000Z</time>
      </trkpt>
      <trkpt lat="48.85692" lon="2.28277">
        <ele>103.4</ele>
        <time>2013-04-01T19:47:32.000Z</time>
      </trkpt>
      <trkpt lat="48.8569" lon="2.28274">
        <ele>103.2</ele>
        <time>2013-04-01T19:47:33.000Z</time>
      </trkpt>
      <trkpt lat="48.85687" lon="2.28271">
        <ele>102</ele>
        <time>2013-04-01T19:47:34.000Z</time>
      </trkpt>
      <trkpt lat="48.85685" lon="2.28267">
        <ele>102</ele>
        <time>2013-04-01T19:47:35.000Z</time>
      </trkpt>
      <trkpt lat="48.8567" lon="2.28255">
        <ele>98.9</ele>
        <time>2013-04-01T19:47:40.000Z</time>
      </trkpt>
      <trkpt lat="48.85667" lon="2.28252">
        <ele>98.4</ele>
        <time>2013-04-01T19:47:41.000Z</time>
      </trkpt>
      <trkpt lat="48.85664" lon="2.28248">
        <ele>98.6</ele>
        <time>2013-04-01T19:47:42.000Z</time>
      </trkpt>
      <trkpt lat="48.8566" lon="2.28245">
        <ele>99.8</ele>
        <time>2013-04-01T19:47:43.000Z</time>
      </trkpt>
      <trkpt lat="48.85657" lon="2.28242">
        <ele>100.9</ele>
        <time>2013-04-01T19:47:44.000Z</time>
      </trkpt>
      <trkpt lat="48.85655" lon="2.28239">
        <ele>101.4</ele>
        <time>2013-04-01T19:47:45.000Z</time>
      </trkpt>
      <trkpt lat="48.85652" lon="2.28236">
        <ele>101.3</ele>
        <time>2013-04-01T19:47:46.000Z</time>
      </trkpt>
      <trkpt lat="48.8565" lon="2.28232">
        <ele>100.3</ele>
        <time>2013-04-01T19:47:47.000Z</time>
      </trkpt>
      <trkpt lat="48.85648" lon="2.28228">
        <ele>100.8</ele>
        <time>2013-04-01T19:47:48.000Z</time>
      </trkpt>
      <trkpt lat="48.85646" lon="2.28223">
        <ele>101.1</ele>
        <time>2013-04-01T19:47:49.000Z</time>
      </trkpt>
      <trkpt lat="48.85643" lon="2.28218">
        <ele>99.5</ele>
        <time>2013-04-01T19:47:50.000Z</time>
      </trkpt>
      <trkpt lat="48.8564" lon="2.28212">
        <ele>101.1</ele>
        <time>2013-04-01T19:47:51.000Z</time>
      </trkpt>
      <trkpt lat="48.85637" lon="2.28206">
        <ele>100</ele>
        <time>2013-04-01T19:47:52.000Z</time>
      </trkpt>
      <trkpt lat="48.85634" lon="2.282">
        <ele>98.7</ele>
        <time>2013-04-01T19:47:53.000Z</time>
      </trkpt>
      <trkpt lat="48.85631" lon="2.28195">
        <ele>98.7</ele>
        <time>2013-04-01T19:47:54.000Z</time>
      </trkpt>
      <trkpt lat="48.85628" lon="2.28191">
        <ele>98.4</ele>
        <time>2013-04-01T19:47:55.000Z</time>
      </trkpt>
      <trkpt lat="48.85626" lon="2.28187">
        <ele>98.4</ele>
        <time>2013-04-01T19:47:56.000Z</time>
      </trkpt>
      <trkpt lat="48.85622" lon="2.28184">
        <ele>98.4</ele>
        <time>2013-04-01T19:47:57.000Z</time>
      </trkpt>
      <trkpt lat="48.85618" lon="2.28182">
        <ele>98.4</ele>
        <time>2013-04-01T19:47:58.000Z</time>
      </trkpt>
      <trkpt lat="48.85614" lon="2.2818">
        <ele>98.1</ele>
        <time>2013-04-01T19:47:59.000Z</time>
      </trkpt>
      <trkpt lat="48.85611" lon="2.28178">
        <ele>98.2</ele>
        <time>2013-04-01T19:48:00.000Z</time>
      </trkpt>
      <trkpt lat="48.85609" lon="2.28175">
        <ele>97.6</ele>
        <time>2013-04-01T19:48:01.000Z</time>
      </trkpt>
      <trkpt lat="48.85607" lon="2.28173">
        <ele>97.1</ele>
        <time>2013-04-01T19:48:02.000Z</time>
      </trkpt>
      <trkpt lat="48.85606" lon="2.2817">
        <ele>96.7</ele>
        <time>2013-04-01T19:48:03.000Z</time>
      </trkpt>
      <trkpt lat="48.85604" lon="2.28167">
        <ele>96.1</ele>
        <time>2013-04-01T19:48:04.000Z</time>
      </trkpt>
      <trkpt lat="48.85603" lon="2.28164">
        <ele>95.7</ele>
        <time>2013-04-01T19:48:05.000Z</time>
      </trkpt>
      <trkpt lat="48.856" lon="2.2816">
        <ele>95.1</ele>
        <time>2013-04-01T19:48:07.000Z</time>
      </trkpt>
      <trkpt lat="48.85598" lon="2.28159">
        <ele>95.3</ele>
        <time>2013-04-01T19:48:08.000Z</time>
      </trkpt>
      <trkpt lat="48.85595" lon="2.28159">
        <ele>95.3</ele>
        <time>2013-04-01T19:48:09.000Z</time>
      </trkpt>
      <trkpt lat="48.85592" lon="2.2816">
        <ele>95.4</ele>
        <time>2013-04-01T19:48:10.000Z</time>
      </trkpt>
      <trkpt lat="48.8559" lon="2.2816">
        <ele>95.3</ele>
        <time>2013-04-01T19:48:11.000Z</time>
      </trkpt>
      <trkpt lat="48.85587" lon="2.28159">
        <ele>95.2</ele>
        <time>2013-04-01T19:48:12.000Z</time>
      </trkpt>
      <trkpt lat="48.85585" lon="2.28159">
        <ele>95.2</ele>
        <time>2013-04-01T19:48:13.000Z</time>
      </trkpt>
      <trkpt lat="48.85582" lon="2.28155">
        <ele>94.5</ele>
        <time>2013-04-01T19:48:14.000Z</time>
      </trkpt>
      <trkpt lat="48.85579" lon="2.28151">
        <ele>94.3</ele>
        <time>2013-04-01T19:48:15.000Z</time>
      </trkpt>
      <trkpt lat="48.85575" lon="2.28146">
        <ele>94.2</ele>
        <time>2013-04-01T19:48:16.000Z</time>
      </trkpt>
      <trkpt lat="48.8557" lon="2.28143">
        <ele>94.4</ele>
        <time>2013-04-01T19:48:17.000Z</time>
      </trkpt>
      <trkpt lat="48.85567" lon="2.28139">
        <ele>94.6</ele>
        <time>2013-04-01T19:48:18.000Z</time>
      </trkpt>
      <trkpt lat="48.85564" lon="2.28135">
        <ele>94.9</ele>
        <time>2013-04-01T19:48:19.000Z</time>
      </trkpt>
      <trkpt lat="48.85562" lon="2.2813">
        <ele>95.3</ele>
        <time>2013-04-01T19:48:20.000Z</time>
      </trkpt>
      <trkpt lat="48.85561" lon="2.28127">
        <ele>96</ele>
        <time>2013-04-01T19:48:21.000Z</time>
      </trkpt>
      <trkpt lat="48.85558" lon="2.28123">
        <ele>96.6</ele>
        <time>2013-04-01T19:48:23.000Z</time>
      </trkpt>
      <trkpt lat="48.85557" lon="2.2812">
        <ele>99.2</ele>
        <time>2013-04-01T19:48:24.000Z</time>
      </trkpt>
      <trkpt lat="48.85555" lon="2.28116">
        <ele>98</ele>
        <time>2013-04-01T19:48:25.000Z</time>
      </trkpt>
      <trkpt lat="48.85554" lon="2.28112">
        <ele>100.6</ele>
        <time>2013-04-01T19:48:26.000Z</time>
      </trkpt>
      <trkpt lat="48.85552" lon="2.28106">
        <ele>104.6</ele>
        <time>2013-04-01T19:48:27.000Z</time>
      </trkpt>
      <trkpt lat="48.8555" lon="2.28101">
        <ele>105.8</ele>
        <time>2013-04-01T19:48:28.000Z</time>
      </trkpt>
      <trkpt lat="48.85548" lon="2.28096">
        <ele>107</ele>
        <time>2013-04-01T19:48:29.000Z</time>
      </trkpt>
      <trkpt lat="48.85545" lon="2.28092">
        <ele>108.3</ele>
        <time>2013-04-01T19:48:30.000Z</time>
      </trkpt>
      <trkpt lat="48.85543" lon="2.28088">
        <ele>109.4</ele>
        <time>2013-04-01T19:48:31.000Z</time>
      </trkpt>
      <trkpt lat="48.85541" lon="2.28085">
        <ele>111.4</ele>
        <time>2013-04-01T19:48:32.000Z</time>
      </trkpt>
      <trkpt lat="48.85538" lon="2.28081">
        <ele>112.8</ele>
        <time>2013-04-01T19:48:33.000Z</time>
      </trkpt>
      <trkpt lat="48.85534" lon="2.28077">
        <ele>112.2</ele>
        <time>2013-04-01T19:48:34.000Z</time>
      </trkpt>
      <trkpt lat="48.85532" lon="2.28072">
        <ele>112.2</ele>
        <time>2013-04-01T19:48:35.000Z</time>
      </trkpt>
      <trkpt lat="48.85526" lon="2.28062">
        <ele>112.6</ele>
        <time>2013-04-01T19:48:36.954Z</time>
      </trkpt>
      <trkpt lat="48.85523" lon="2.28057">
        <ele>113</ele>
        <time>2013-04-01T19:48:38.000Z</time>
      </trkpt>
      <trkpt lat="48.8552" lon="2.28052">
        <ele>113</ele>
        <time>2013-04-01T19:48:39.000Z</time>
      </trkpt>
      <trkpt lat="48.85516" lon="2.28046">
        <ele>113.1</ele>
        <time>2013-04-01T19:48:40.000Z</time>
      </trkpt>
      <trkpt lat="48.85513" lon="2.2804">
        <ele>113</ele>
        <time>2013-04-01T19:48:41.000Z</time>
      </trkpt>
      <trkpt lat="48.8551" lon="2.28035">
        <ele>113.1</ele>
        <time>2013-04-01T19:48:42.000Z</time>
      </trkpt>
      <trkpt lat="48.85507" lon="2.28029">
        <ele>113</ele>
        <time>2013-04-01T19:48:43.000Z</time>
      </trkpt>
      <trkpt lat="48.85503" lon="2.28023">
        <ele>112.1</ele>
        <time>2013-04-01T19:48:44.000Z</time>
      </trkpt>
      <trkpt lat="48.85501" lon="2.28011">
        <ele>111</ele>
        <time>2013-04-01T19:48:45.000Z</time>
      </trkpt>
      <trkpt lat="48.85493" lon="2.28005">
        <ele>110.1</ele>
        <time>2013-04-01T19:48:46.000Z</time>
      </trkpt>
      <trkpt lat="48.85491" lon="2.27997">
        <ele>110.8</ele>
        <time>2013-04-01T19:48:47.000Z</time>
      </trkpt>
      <trkpt lat="48.85486" lon="2.27984">
        <ele>110.2</ele>
        <time>2013-04-01T19:48:48.000Z</time>
      </trkpt>
      <trkpt lat="48.85488" lon="2.27974">
        <ele>111.2</ele>
        <time>2013-04-01T19:48:49.000Z</time>
      </trkpt>
      <trkpt lat="48.85481" lon="2.27971">
        <ele>110.9</ele>
        <time>2013-04-01T19:48:50.000Z</time>
      </trkpt>
      <trkpt lat="48.85481" lon="2.27962">
        <ele>110.6</ele>
        <time>2013-04-01T19:48:51.000Z</time>
      </trkpt>
      <trkpt lat="48.85489" lon="2.27949">
        <ele>109.4</ele>
        <time>2013-04-01T19:48:52.000Z</time>
      </trkpt>
      <trkpt lat="48.85486" lon="2.27941">
        <ele>109.3</ele>
        <time>2013-04-01T19:48:53.000Z</time>
      </trkpt>
      <trkpt lat="48.85483" lon="2.27937">
        <ele>107.8</ele>
        <time>2013-04-01T19:48:55.000Z</time>
      </trkpt>
      <trkpt lat="48.85478" lon="2.27932">
        <ele>108.3</ele>
        <time>2013-04-01T19:48:56.000Z</time>
      </trkpt>
      <trkpt lat="48.85478" lon="2.27928">
        <ele>109.1</ele>
        <time>2013-04-01T19:48:57.000Z</time>
      </trkpt>
      <trkpt lat="48.85475" lon="2.27923">
        <ele>108.7</ele>
        <time>2013-04-01T19:48:58.000Z</time>
      </trkpt>
      <trkpt lat="48.85473" lon="2.27919">
        <ele>108.3</ele>
        <time>2013-04-01T19:48:59.000Z</time>
      </trkpt>
      <trkpt lat="48.85471" lon="2.27913">
        <ele>108.4</ele>
        <time>2013-04-01T19:49:00.000Z</time>
      </trkpt>
      <trkpt lat="48.85469" lon="2.27909">
        <ele>107.7</ele>
        <time>2013-04-01T19:49:01.000Z</time>
      </trkpt>
      <trkpt lat="48.85467" lon="2.27906">
        <ele>106.3</ele>
        <time>2013-04-01T19:49:02.000Z</time>
      </trkpt>
      <trkpt lat="48.85463" lon="2.279">
        <ele>105.1</ele>
        <time>2013-04-01T19:49:03.000Z</time>
      </trkpt>
      <trkpt lat="48.85462" lon="2.27896">
        <ele>104.6</ele>
        <time>2013-04-01T19:49:04.000Z</time>
      </trkpt>
      <trkpt lat="48.8546" lon="2.27891">
        <ele>104.6</ele>
        <time>2013-04-01T19:49:05.000Z</time>
      </trkpt>
      <trkpt lat="48.85458" lon="2.27886">
        <ele>104.3</ele>
        <time>2013-04-01T19:49:06.000Z</time>
      </trkpt>
      <trkpt lat="48.85456" lon="2.27882">
        <ele>104.2</ele>
        <time>2013-04-01T19:49:07.000Z</time>
      </trkpt>
      <trkpt lat="48.85454" lon="2.27877">
        <ele>104.3</ele>
        <time>2013-04-01T19:49:08.000Z</time>
      </trkpt>
      <trkpt lat="48.85452" lon="2.27874">
        <ele>105</ele>
        <time>2013-04-01T19:49:09.000Z</time>
      </trkpt>
      <trkpt lat="48.8545" lon="2.2787">
        <ele>105.8</ele>
        <time>2013-04-01T19:49:10.000Z</time>
      </trkpt>
      <trkpt lat="48.85448" lon="2.27867">
        <ele>105.7</ele>
        <time>2013-04-01T19:49:11.000Z</time>
      </trkpt>
      <trkpt lat="48.85446" lon="2.27863">
        <ele>105.2</ele>
        <time>2013-04-01T19:49:12.000Z</time>
      </trkpt>
      <trkpt lat="48.85444" lon="2.27859">
        <ele>105.3</ele>
        <time>2013-04-01T19:49:13.000Z</time>
      </trkpt>
      <trkpt lat="48.85443" lon="2.27855">
        <ele>105.1</ele>
        <time>2013-04-01T19:49:14.000Z</time>
      </trkpt>
      <trkpt lat="48.85441" lon="2.27851">
        <ele>103.8</ele>
        <time>2013-04-01T19:49:15.000Z</time>
      </trkpt>
      <trkpt lat="48.8544" lon="2.27847">
        <ele>103.9</ele>
        <time>2013-04-01T19:49:16.000Z</time>
      </trkpt>
      <trkpt lat="48.85438" lon="2.27843">
        <ele>103.6</ele>
        <time>2013-04-01T19:49:17.000Z</time>
      </trkpt>
      <trkpt lat="48.85436" lon="2.27839">
        <ele>103.1</ele>
        <time>2013-04-01T19:49:18.000Z</time>
      </trkpt>
      <trkpt lat="48.85432" lon="2.27836">
        <ele>100.9</ele>
        <time>2013-04-01T19:49:19.000Z</time>
      </trkpt>
      <trkpt lat="48.8543" lon="2.27833">
        <ele>101.2</ele>
        <time>2013-04-01T19:49:20.000Z</time>
      </trkpt>
      <trkpt lat="48.85427" lon="2.27831">
        <ele>100.8</ele>
        <time>2013-04-01T19:49:21.000Z</time>
      </trkpt>
      <trkpt lat="48.85425" lon="2.27828">
        <ele>100.5</ele>
        <time>2013-04-01T19:49:22.000Z</time>
      </trkpt>
      <trkpt lat="48.85422" lon="2.27825">
        <ele>100.6</ele>
        <time>2013-04-01T19:49:23.000Z</time>
      </trkpt>
      <trkpt lat="48.8542" lon="2.27822">
        <ele>107.5</ele>
        <time>2013-04-01T19:49:24.000Z</time>
      </trkpt>
      <trkpt lat="48.85418" lon="2.27818">
        <ele>105.8</ele>
        <time>2013-04-01T19:49:25.000Z</time>
      </trkpt>
      <trkpt lat="48.85415" lon="2.27813">
        <ele>104.3</ele>
        <time>2013-04-01T19:49:26.000Z</time>
      </trkpt>
      <trkpt lat="48.85413" lon="2.27809">
        <ele>104</ele>
        <time>2013-04-01T19:49:27.000Z</time>
      </trkpt>
      <trkpt lat="48.85411" lon="2.27804">
        <ele>103.9</ele>
        <time>2013-04-01T19:49:28.000Z</time>
      </trkpt>
      <trkpt lat="48.85407" lon="2.27795">
        <ele>104</ele>
        <time>2013-04-01T19:49:29.000Z</time>
      </trkpt>
      <trkpt lat="48.85392" lon="2.2777">
        <ele>102.6</ele>
        <time>2013-04-01T19:49:30.000Z</time>
      </trkpt>
      <trkpt lat="48.85387" lon="2.27763">
        <ele>102.4</ele>
        <time>2013-04-01T19:49:31.000Z</time>
      </trkpt>
      <trkpt lat="48.85381" lon="2.27757">
        <ele>105.4</ele>
        <time>2013-04-01T19:49:32.000Z</time>
      </trkpt>
      <trkpt lat="48.85377" lon="2.27753">
        <ele>103.2</ele>
        <time>2013-04-01T19:49:33.000Z</time>
      </trkpt>
      <trkpt lat="48.85372" lon="2.27746">
        <ele>101.4</ele>
        <time>2013-04-01T19:49:34.000Z</time>
      </trkpt>
      <trkpt lat="48.85367" lon="2.27741">
        <ele>100.5</ele>
        <time>2013-04-01T19:49:35.000Z</time>
      </trkpt>
      <trkpt lat="48.85348" lon="2.2772">
        <ele>98.4</ele>
        <time>2013-04-01T19:49:38.000Z</time>
      </trkpt>
      <trkpt lat="48.85342" lon="2.27713">
        <ele>97.3</ele>
        <time>2013-04-01T19:49:39.000Z</time>
      </trkpt>
      <trkpt lat="48.85336" lon="2.27705">
        <ele>96.5</ele>
        <time>2013-04-01T19:49:40.000Z</time>
      </trkpt>
      <trkpt lat="48.8533" lon="2.27697">
        <ele>96.4</ele>
        <time>2013-04-01T19:49:41.000Z</time>
      </trkpt>
      <trkpt lat="48.85325" lon="2.2769">
        <ele>95.5</ele>
        <time>2013-04-01T19:49:42.000Z</time>
      </trkpt>
      <trkpt lat="48.85319" lon="2.27684">
        <ele>95.2</ele>
        <time>2013-04-01T19:49:43.000Z</time>
      </trkpt>
      <trkpt lat="48.85314" lon="2.27677">
        <ele>95.4</ele>
        <time>2013-04-01T19:49:44.000Z</time>
      </trkpt>
      <trkpt lat="48.85308" lon="2.2767">
        <ele>94.7</ele>
        <time>2013-04-01T19:49:45.000Z</time>
      </trkpt>
      <trkpt lat="48.85302" lon="2.27664">
        <ele>93.4</ele>
        <time>2013-04-01T19:49:46.000Z</time>
      </trkpt>
      <trkpt lat="48.85297" lon="2.27657">
        <ele>93.4</ele>
        <time>2013-04-01T19:49:47.000Z</time>
      </trkpt>
      <trkpt lat="48.85291" lon="2.2765">
        <ele>92.8</ele>
        <time>2013-04-01T19:49:48.000Z</time>
      </trkpt>
      <trkpt lat="48.85286" lon="2.27644">
        <ele>92.8</ele>
        <time>2013-04-01T19:49:49.000Z</time>
      </trkpt>
      <trkpt lat="48.85288" lon="2.27614">
        <ele>90.2</ele>
        <time>2013-04-01T19:49:50.000Z</time>
      </trkpt>
      <trkpt lat="48.85285" lon="2.27614">
        <ele>89.5</ele>
        <time>2013-04-01T19:49:51.000Z</time>
      </trkpt>
      <trkpt lat="48.85281" lon="2.27608">
        <ele>88.3</ele>
        <time>2013-04-01T19:49:52.000Z</time>
      </trkpt>
      <trkpt lat="48.85275" lon="2.276">
        <ele>88.5</ele>
        <time>2013-04-01T19:49:53.000Z</time>
      </trkpt>
      <trkpt lat="48.85272" lon="2.276">
        <ele>89.8</ele>
        <time>2013-04-01T19:49:54.000Z</time>
      </trkpt>
      <trkpt lat="48.85268" lon="2.27599">
        <ele>89.3</ele>
        <time>2013-04-01T19:49:55.000Z</time>
      </trkpt>
      <trkpt lat="48.85266" lon="2.27601">
        <ele>88.5</ele>
        <time>2013-04-01T19:49:56.000Z</time>
      </trkpt>
      <trkpt lat="48.85261" lon="2.276">
        <ele>88.1</ele>
        <time>2013-04-01T19:49:57.000Z</time>
      </trkpt>
      <trkpt lat="48.85255" lon="2.27601">
        <ele>88.9</ele>
        <time>2013-04-01T19:49:58.000Z</time>
      </trkpt>
      <trkpt lat="48.85252" lon="2.27607">
        <ele>87.4</ele>
        <time>2013-04-01T19:49:59.000Z</time>
      </trkpt>
      <trkpt lat="48.85247" lon="2.27615">
        <ele>85.2</ele>
        <time>2013-04-01T19:50:00.000Z</time>
      </trkpt>
      <trkpt lat="48.85244" lon="2.27629">
        <ele>90.7</ele>
        <time>2013-04-01T19:50:01.000Z</time>
      </trkpt>
      <trkpt lat="48.85242" lon="2.27634">
        <ele>88.5</ele>
        <time>2013-04-01T19:50:02.000Z</time>
      </trkpt>
      <trkpt lat="48.8524" lon="2.2764">
        <ele>84.7</ele>
        <time>2013-04-01T19:50:03.000Z</time>
      </trkpt>
      <trkpt lat="48.85234" lon="2.27648">
        <ele>83.9</ele>
        <time>2013-04-01T19:50:04.000Z</time>
      </trkpt>
      <trkpt lat="48.85232" lon="2.27656">
        <ele>83.1</ele>
        <time>2013-04-01T19:50:05.000Z</time>
      </trkpt>
      <trkpt lat="48.85227" lon="2.27662">
        <ele>83.5</ele>
        <time>2013-04-01T19:50:06.000Z</time>
      </trkpt>
      <trkpt lat="48.85224" lon="2.2767">
        <ele>85.2</ele>
        <time>2013-04-01T19:50:07.000Z</time>
      </trkpt>
      <trkpt lat="48.85221" lon="2.27679">
        <ele>86</ele>
        <time>2013-04-01T19:50:08.000Z</time>
      </trkpt>
      <trkpt lat="48.85218" lon="2.27687">
        <ele>86.3</ele>
        <time>2013-04-01T19:50:09.000Z</time>
      </trkpt>
      <trkpt lat="48.85211" lon="2.27689">
        <ele>85.7</ele>
        <time>2013-04-01T19:50:10.000Z</time>
      </trkpt>
      <trkpt lat="48.85206" lon="2.27694">
        <ele>84.6</ele>
        <time>2013-04-01T19:50:11.000Z</time>
      </trkpt>
      <trkpt lat="48.85202" lon="2.27699">
        <ele>83.9</ele>
        <time>2013-04-01T19:50:12.000Z</time>
      </trkpt>
      <trkpt lat="48.85197" lon="2.27705">
        <ele>83.3</ele>
        <time>2013-04-01T19:50:13.000Z</time>
      </trkpt>
      <trkpt lat="48.85192" lon="2.27713">
        <ele>82.6</ele>
        <time>2013-04-01T19:50:14.000Z</time>
      </trkpt>
      <trkpt lat="48.85188" lon="2.27721">
        <ele>80.6</ele>
        <time>2013-04-01T19:50:15.000Z</time>
      </trkpt>
      <trkpt lat="48.85186" lon="2.2773">
        <ele>81</ele>
        <time>2013-04-01T19:50:16.000Z</time>
      </trkpt>
      <trkpt lat="48.85183" lon="2.2774">
        <ele>80</ele>
        <time>2013-04-01T19:50:17.000Z</time>
      </trkpt>
      <trkpt lat="48.8518" lon="2.27749">
        <ele>80</ele>
        <time>2013-04-01T19:50:18.000Z</time>
      </trkpt>
      <trkpt lat="48.85179" lon="2.27759">
        <ele>79.6</ele>
        <time>2013-04-01T19:50:19.000Z</time>
      </trkpt>
      <trkpt lat="48.85177" lon="2.2777">
        <ele>78.1</ele>
        <time>2013-04-01T19:50:20.000Z</time>
      </trkpt>
      <trkpt lat="48.85175" lon="2.27777">
        <ele>78.1</ele>
        <time>2013-04-01T19:50:21.000Z</time>
      </trkpt>
      <trkpt lat="48.85171" lon="2.27783">
        <ele>76.9</ele>
        <time>2013-04-01T19:50:22.000Z</time>
      </trkpt>
      <trkpt lat="48.85169" lon="2.27789">
        <ele>75.7</ele>
        <time>2013-04-01T19:50:23.000Z</time>
      </trkpt>
      <trkpt lat="48.85169" lon="2.27794">
        <ele>76</ele>
        <time>2013-04-01T19:50:24.000Z</time>
      </trkpt>
      <trkpt lat="48.85167" lon="2.27799">
        <ele>75.3</ele>
        <time>2013-04-01T19:50:26.000Z</time>
      </trkpt>
      <trkpt lat="48.85163" lon="2.278">
        <ele>75.9</ele>
        <time>2013-04-01T19:50:27.000Z</time>
      </trkpt>
      <trkpt lat="48.85162" lon="2.27804">
        <ele>76.1</ele>
        <time>2013-04-01T19:50:29.000Z</time>
      </trkpt>
      <trkpt lat="48.84971" lon="2.3079">
        <ele>98.9</ele>
        <time>2013-04-01T20:04:35.583Z</time>
      </trkpt>
      <trkpt lat="48.84971" lon="2.30791">
        <ele>98.9</ele>
        <time>2013-04-01T20:04:36.000Z</time>
      </trkpt>
      <trkpt lat="48.84966" lon="2.30788">
        <ele>95.9</ele>
        <time>2013-04-01T20:04:38.000Z</time>
      </trkpt>
      <trkpt lat="48.84964" lon="2.30787">
        <ele>91.5</ele>
        <time>2013-04-01T20:04:40.000Z</time>
      </trkpt>
      <trkpt lat="48.84962" lon="2.30791">
        <ele>90</ele>
        <time>2013-04-01T20:04:41.000Z</time>
      </trkpt>
      <trkpt lat="48.84961" lon="2.30794">
        <ele>87.3</ele>
        <time>2013-04-01T20:04:43.000Z</time>
      </trkpt>
      <trkpt lat="48.8496" lon="2.30798">
        <ele>87.6</ele>
        <time>2013-04-01T20:04:44.000Z</time>
      </trkpt>
      <trkpt lat="48.84958" lon="2.30802">
        <ele>86.7</ele>
        <time>2013-04-01T20:04:46.000Z</time>
      </trkpt>
      <trkpt lat="48.84957" lon="2.30805">
        <ele>86.3</ele>
        <time>2013-04-01T20:04:47.000Z</time>
      </trkpt>
      <trkpt lat="48.84956" lon="2.3081">
        <ele>84.5</ele>
        <time>2013-04-01T20:04:50.000Z</time>
      </trkpt>
      <trkpt lat="48.84955" lon="2.30811">
        <ele>84.2</ele>
        <time>2013-04-01T20:04:51.000Z</time>
      </trkpt>
      <trkpt lat="48.84951" lon="2.30811">
        <ele>83</ele>
        <time>2013-04-01T20:05:24.000Z</time>
      </trkpt>
      <trkpt lat="48.84949" lon="2.30816">
        <ele>84</ele>
        <time>2013-04-01T20:05:25.000Z</time>
      </trkpt>
      <trkpt lat="48.84946" lon="2.3082">
        <ele>84.2</ele>
        <time>2013-04-01T20:05:26.000Z</time>
      </trkpt>
      <trkpt lat="48.84944" lon="2.30824">
        <ele>84.4</ele>
        <time>2013-04-01T20:05:27.000Z</time>
      </trkpt>
      <trkpt lat="48.84942" lon="2.30828">
        <ele>83.7</ele>
        <time>2013-04-01T20:05:28.000Z</time>
      </trkpt>
      <trkpt lat="48.8494" lon="2.30832">
        <ele>84</ele>
        <time>2013-04-01T20:05:29.000Z</time>
      </trkpt>
      <trkpt lat="48.84938" lon="2.30836">
        <ele>84.5</ele>
        <time>2013-04-01T20:05:30.000Z</time>
      </trkpt>
      <trkpt lat="48.84936" lon="2.3084">
        <ele>84.7</ele>
        <time>2013-04-01T20:05:31.000Z</time>
      </trkpt>
      <trkpt lat="48.84933" lon="2.30844">
        <ele>85.3</ele>
        <time>2013-04-01T20:05:32.000Z</time>
      </trkpt>
      <trkpt lat="48.84931" lon="2.30849">
        <ele>85.4</ele>
        <time>2013-04-01T20:05:33.000Z</time>
      </trkpt>
      <trkpt lat="48.84929" lon="2.30853">
        <ele>85</ele>
        <time>2013-04-01T20:05:34.000Z</time>
      </trkpt>
      <trkpt lat="48.84926" lon="2.30858">
        <ele>85.4</ele>
        <time>2013-04-01T20:05:35.000Z</time>
      </trkpt>
      <trkpt lat="48.84921" lon="2.30867">
        <ele>85.2</ele>
        <time>2013-04-01T20:05:36.803Z</time>
      </trkpt>
      <trkpt lat="48.84917" lon="2.30873">
        <ele>85.6</ele>
        <time>2013-04-01T20:05:38.000Z</time>
      </trkpt>
      <trkpt lat="48.84914" lon="2.30878">
        <ele>85.8</ele>
        <time>2013-04-01T20:05:39.000Z</time>
      </trkpt>
      <trkpt lat="48.84907" lon="2.30888">
        <ele>86.1</ele>
        <time>2013-04-01T20:05:40.000Z</time>
      </trkpt>
      <trkpt lat="48.84902" lon="2.30894">
        <ele>86.3</ele>
        <time>2013-04-01T20:05:41.000Z</time>
      </trkpt>
      <trkpt lat="48.84899" lon="2.30902">
        <ele>85.8</ele>
        <time>2013-04-01T20:05:42.000Z</time>
      </trkpt>
      <trkpt lat="48.84896" lon="2.30909">
        <ele>84.8</ele>
        <time>2013-04-01T20:05:43.000Z</time>
      </trkpt>
      <trkpt lat="48.84892" lon="2.30915">
        <ele>84.6</ele>
        <time>2013-04-01T20:05:44.000Z</time>
      </trkpt>
      <trkpt lat="48.84888" lon="2.30921">
        <ele>84.3</ele>
        <time>2013-04-01T20:05:45.000Z</time>
      </trkpt>
      <trkpt lat="48.84884" lon="2.30928">
        <ele>84.3</ele>
        <time>2013-04-01T20:05:46.000Z</time>
      </trkpt>
      <trkpt lat="48.84881" lon="2.30935">
        <ele>84.4</ele>
        <time>2013-04-01T20:05:47.000Z</time>
      </trkpt>
      <trkpt lat="48.84876" lon="2.30942">
        <ele>85.2</ele>
        <time>2013-04-01T20:05:48.000Z</time>
      </trkpt>
      <trkpt lat="48.84873" lon="2.30948">
        <ele>85.5</ele>
        <time>2013-04-01T20:05:49.000Z</time>
      </trkpt>
      <trkpt lat="48.84869" lon="2.30952">
        <ele>83.3</ele>
        <time>2013-04-01T20:05:50.000Z</time>
      </trkpt>
      <trkpt lat="48.84866" lon="2.30958">
        <ele>83.6</ele>
        <time>2013-04-01T20:05:51.000Z</time>
      </trkpt>
      <trkpt lat="48.84861" lon="2.30965">
        <ele>83.5</ele>
        <time>2013-04-01T20:05:52.000Z</time>
      </trkpt>
      <trkpt lat="48.84858" lon="2.3097">
        <ele>82.7</ele>
        <time>2013-04-01T20:05:53.000Z</time>
      </trkpt>
      <trkpt lat="48.84854" lon="2.30975">
        <ele>82.4</ele>
        <time>2013-04-01T20:05:54.000Z</time>
      </trkpt>
      <trkpt lat="48.8485" lon="2.3098">
        <ele>82.5</ele>
        <time>2013-04-01T20:05:55.000Z</time>
      </trkpt>
      <trkpt lat="48.84847" lon="2.30985">
        <ele>82.9</ele>
        <time>2013-04-01T20:05:56.000Z</time>
      </trkpt>
      <trkpt lat="48.84842" lon="2.3099">
        <ele>83.1</ele>
        <time>2013-04-01T20:05:57.000Z</time>
      </trkpt>
      <trkpt lat="48.84839" lon="2.30996">
        <ele>83.6</ele>
        <time>2013-04-01T20:05:58.000Z</time>
      </trkpt>
      <trkpt lat="48.84836" lon="2.31002">
        <ele>83.4</ele>
        <time>2013-04-01T20:05:59.000Z</time>
      </trkpt>
      <trkpt lat="48.84832" lon="2.31008">
        <ele>83.2</ele>
        <time>2013-04-01T20:06:00.000Z</time>
      </trkpt>
      <trkpt lat="48.8483" lon="2.31013">
        <ele>82.7</ele>
        <time>2013-04-01T20:06:01.000Z</time>
      </trkpt>
      <trkpt lat="48.84826" lon="2.31019">
        <ele>82.7</ele>
        <time>2013-04-01T20:06:02.000Z</time>
      </trkpt>
      <trkpt lat="48.84823" lon="2.31024">
        <ele>83</ele>
        <time>2013-04-01T20:06:03.000Z</time>
      </trkpt>
      <trkpt lat="48.84819" lon="2.31031">
        <ele>83.1</ele>
        <time>2013-04-01T20:06:04.000Z</time>
      </trkpt>
      <trkpt lat="48.84816" lon="2.31037">
        <ele>82.9</ele>
        <time>2013-04-01T20:06:05.000Z</time>
      </trkpt>
      <trkpt lat="48.84812" lon="2.31042">
        <ele>82.7</ele>
        <time>2013-04-01T20:06:06.000Z</time>
      </trkpt>
      <trkpt lat="48.84809" lon="2.31049">
        <ele>83.3</ele>
        <time>2013-04-01T20:06:07.000Z</time>
      </trkpt>
      <trkpt lat="48.84805" lon="2.31054">
        <ele>83.1</ele>
        <time>2013-04-01T20:06:08.000Z</time>
      </trkpt>
      <trkpt lat="48.84803" lon="2.31059">
        <ele>82.8</ele>
        <time>2013-04-01T20:06:09.000Z</time>
      </trkpt>
      <trkpt lat="48.848" lon="2.31064">
        <ele>83.1</ele>
        <time>2013-04-01T20:06:10.000Z</time>
      </trkpt>
      <trkpt lat="48.84796" lon="2.31068">
        <ele>83.2</ele>
        <time>2013-04-01T20:06:11.000Z</time>
      </trkpt>
      <trkpt lat="48.84793" lon="2.31074">
        <ele>83.3</ele>
        <time>2013-04-01T20:06:12.000Z</time>
      </trkpt>
      <trkpt lat="48.84789" lon="2.31079">
        <ele>83.1</ele>
        <time>2013-04-01T20:06:13.000Z</time>
      </trkpt>
      <trkpt lat="48.84787" lon="2.31084">
        <ele>82.3</ele>
        <time>2013-04-01T20:06:14.000Z</time>
      </trkpt>
      <trkpt lat="48.84785" lon="2.31089">
        <ele>81.6</ele>
        <time>2013-04-01T20:06:15.000Z</time>
      </trkpt>
      <trkpt lat="48.84783" lon="2.31093">
        <ele>81.6</ele>
        <time>2013-04-01T20:06:16.000Z</time>
      </trkpt>
      <trkpt lat="48.84781" lon="2.31095">
        <ele>81.5</ele>
        <time>2013-04-01T20:06:17.000Z</time>
      </trkpt>
      <trkpt lat="48.84779" lon="2.31098">
        <ele>80.8</ele>
        <time>2013-04-01T20:06:18.000Z</time>
      </trkpt>
      <trkpt lat="48.84777" lon="2.311">
        <ele>80.2</ele>
        <time>2013-04-01T20:06:19.000Z</time>
      </trkpt>
      <trkpt lat="48.84775" lon="2.31103">
        <ele>80.1</ele>
        <time>2013-04-01T20:06:20.000Z</time>
      </trkpt>
      <trkpt lat="48.84773" lon="2.31105">
        <ele>80.8</ele>
        <time>2013-04-01T20:06:21.000Z</time>
      </trkpt>
      <trkpt lat="48.8477" lon="2.31109">
        <ele>80.9</ele>
        <time>2013-04-01T20:06:23.000Z</time>
      </trkpt>
      <trkpt lat="48.84769" lon="2.31111">
        <ele>81.4</ele>
        <time>2013-04-01T20:06:24.000Z</time>
      </trkpt>
      <trkpt lat="48.84765" lon="2.31112">
        <ele>82.5</ele>
        <time>2013-04-01T20:06:27.000Z</time>
      </trkpt>
      <trkpt lat="48.84764" lon="2.31112">
        <ele>82.9</ele>
        <time>2013-04-01T20:06:28.000Z</time>
      </trkpt>
      <trkpt lat="48.84759" lon="2.31112">
        <ele>83</ele>
        <time>2013-04-01T20:06:40.000Z</time>
      </trkpt>
      <trkpt lat="48.84757" lon="2.31114">
        <ele>83.2</ele>
        <time>2013-04-01T20:06:41.000Z</time>
      </trkpt>
      <trkpt lat="48.84754" lon="2.31115">
        <ele>83.2</ele>
        <time>2013-04-01T20:06:42.000Z</time>
      </trkpt>
      <trkpt lat="48.8475" lon="2.31117">
        <ele>83.2</ele>
        <time>2013-04-01T20:06:43.000Z</time>
      </trkpt>
      <trkpt lat="48.84746" lon="2.31118">
        <ele>82.6</ele>
        <time>2013-04-01T20:06:44.000Z</time>
      </trkpt>
      <trkpt lat="48.84743" lon="2.31119">
        <ele>83.3</ele>
        <time>2013-04-01T20:06:45.000Z</time>
      </trkpt>
      <trkpt lat="48.84739" lon="2.3112">
        <ele>83.1</ele>
        <time>2013-04-01T20:06:46.000Z</time>
      </trkpt>
      <trkpt lat="48.84735" lon="2.31122">
        <ele>83.7</ele>
        <time>2013-04-01T20:06:47.000Z</time>
      </trkpt>
      <trkpt lat="48.84731" lon="2.31123">
        <ele>84.6</ele>
        <time>2013-04-01T20:06:48.000Z</time>
      </trkpt>
      <trkpt lat="48.84727" lon="2.31126">
        <ele>84.4</ele>
        <time>2013-04-01T20:06:49.000Z</time>
      </trkpt>
      <trkpt lat="48.84722" lon="2.3113">
        <ele>85</ele>
        <time>2013-04-01T20:06:50.000Z</time>
      </trkpt>
      <trkpt lat="48.84716" lon="2.31139">
        <ele>84.6</ele>
        <time>2013-04-01T20:06:51.000Z</time>
      </trkpt>
      <trkpt lat="48.84712" lon="2.31144">
        <ele>84.9</ele>
        <time>2013-04-01T20:06:52.000Z</time>
      </trkpt>
      <trkpt lat="48.8471" lon="2.31149">
        <ele>84.9</ele>
        <time>2013-04-01T20:06:53.000Z</time>
      </trkpt>
      <trkpt lat="48.84707" lon="2.31156">
        <ele>84.6</ele>
        <time>2013-04-01T20:06:54.000Z</time>
      </trkpt>
      <trkpt lat="48.84706" lon="2.31163">
        <ele>85</ele>
        <time>2013-04-01T20:06:55.000Z</time>
      </trkpt>
      <trkpt lat="48.84707" lon="2.31169">
        <ele>85.5</ele>
        <time>2013-04-01T20:06:56.000Z</time>
      </trkpt>
      <trkpt lat="48.84707" lon="2.31175">
        <ele>85.1</ele>
        <time>2013-04-01T20:06:57.000Z</time>
      </trkpt>
      <trkpt lat="48.84709" lon="2.31182">
        <ele>83.8</ele>
        <time>2013-04-01T20:06:58.000Z</time>
      </trkpt>
      <trkpt lat="48.84711" lon="2.31187">
        <ele>82.8</ele>
        <time>2013-04-01T20:06:59.000Z</time>
      </trkpt>
      <trkpt lat="48.84714" lon="2.31191">
        <ele>82.3</ele>
        <time>2013-04-01T20:07:00.000Z</time>
      </trkpt>
      <trkpt lat="48.84717" lon="2.31195">
        <ele>81.5</ele>
        <time>2013-04-01T20:07:01.000Z</time>
      </trkpt>
      <trkpt lat="48.8472" lon="2.31199">
        <ele>81.6</ele>
        <time>2013-04-01T20:07:02.000Z</time>
      </trkpt>
      <trkpt lat="48.84722" lon="2.31203">
        <ele>81.8</ele>
        <time>2013-04-01T20:07:03.000Z</time>
      </trkpt>
      <trkpt lat="48.84726" lon="2.31206">
        <ele>80.4</ele>
        <time>2013-04-01T20:07:04.000Z</time>
      </trkpt>
      <trkpt lat="48.84729" lon="2.31209">
        <ele>80.8</ele>
        <time>2013-04-01T20:07:05.000Z</time>
      </trkpt>
      <trkpt lat="48.84732" lon="2.31212">
        <ele>80.2</ele>
        <time>2013-04-01T20:07:06.000Z</time>
      </trkpt>
      <trkpt lat="48.84736" lon="2.31214">
        <ele>80.1</ele>
        <time>2013-04-01T20:07:07.000Z</time>
      </trkpt>
      <trkpt lat="48.84739" lon="2.31218">
        <ele>80.6</ele>
        <time>2013-04-01T20:07:08.000Z</time>
      </trkpt>
      <trkpt lat="48.84742" lon="2.31222">
        <ele>79.2</ele>
        <time>2013-04-01T20:07:09.000Z</time>
      </trkpt>
      <trkpt lat="48.84743" lon="2.31228">
        <ele>78.4</ele>
        <time>2013-04-01T20:07:10.000Z</time>
      </trkpt>
      <trkpt lat="48.84745" lon="2.31234">
        <ele>78.3</ele>
        <time>2013-04-01T20:07:11.000Z</time>
      </trkpt>
      <trkpt lat="48.84745" lon="2.3124">
        <ele>76.6</ele>
        <time>2013-04-01T20:07:12.000Z</time>
      </trkpt>
      <trkpt lat="48.84746" lon="2.31245">
        <ele>75.8</ele>
        <time>2013-04-01T20:07:13.000Z</time>
      </trkpt>
      <trkpt lat="48.84747" lon="2.31252">
        <ele>75.5</ele>
        <time>2013-04-01T20:07:14.000Z</time>
      </trkpt>
      <trkpt lat="48.84748" lon="2.31258">
        <ele>73.7</ele>
        <time>2013-04-01T20:07:15.000Z</time>
      </trkpt>
      <trkpt lat="48.84749" lon="2.31264">
        <ele>71.9</ele>
        <time>2013-04-01T20:07:16.000Z</time>
      </trkpt>
      <trkpt lat="48.84751" lon="2.31269">
        <ele>71</ele>
        <time>2013-04-01T20:07:17.000Z</time>
      </trkpt>
      <trkpt lat="48.84752" lon="2.31275">
        <ele>69.5</ele>
        <time>2013-04-01T20:07:18.000Z</time>
      </trkpt>
      <trkpt lat="48.84753" lon="2.31281">
        <ele>69</ele>
        <time>2013-04-01T20:07:19.000Z</time>
      </trkpt>
      <trkpt lat="48.84753" lon="2.31286">
        <ele>67.4</ele>
        <time>2013-04-01T20:07:20.000Z</time>
      </trkpt>
      <trkpt lat="48.84754" lon="2.31292">
        <ele>66.4</ele>
        <time>2013-04-01T20:07:21.000Z</time>
      </trkpt>
      <trkpt lat="48.84756" lon="2.31298">
        <ele>66.1</ele>
        <time>2013-04-01T20:07:22.000Z</time>
      </trkpt>
      <trkpt lat="48.84757" lon="2.31303">
        <ele>65.9</ele>
        <time>2013-04-01T20:07:23.000Z</time>
      </trkpt>
      <trkpt lat="48.84758" lon="2.31308">
        <ele>66.2</ele>
        <time>2013-04-01T20:07:24.000Z</time>
      </trkpt>
      <trkpt lat="48.84759" lon="2.31314">
        <ele>65.8</ele>
        <time>2013-04-01T20:07:25.000Z</time>
      </trkpt>
      <trkpt lat="48.8476" lon="2.31319">
        <ele>66.3</ele>
        <time>2013-04-01T20:07:26.000Z</time>
      </trkpt>
      <trkpt lat="48.84761" lon="2.31325">
        <ele>65.1</ele>
        <time>2013-04-01T20:07:27.000Z</time>
      </trkpt>
      <trkpt lat="48.84762" lon="2.3133">
        <ele>65</ele>
        <time>2013-04-01T20:07:28.000Z</time>
      </trkpt>
      <trkpt lat="48.84763" lon="2.31336">
        <ele>65.8</ele>
        <time>2013-04-01T20:07:29.000Z</time>
      </trkpt>
      <trkpt lat="48.84764" lon="2.31342">
        <ele>65.1</ele>
        <time>2013-04-01T20:07:30.000Z</time>
      </trkpt>
      <trkpt lat="48.84765" lon="2.31348">
        <ele>63.4</ele>
        <time>2013-04-01T20:07:31.000Z</time>
      </trkpt>
      <trkpt lat="48.84766" lon="2.31354">
        <ele>63.3</ele>
        <time>2013-04-01T20:07:32.000Z</time>
      </trkpt>
      <trkpt lat="48.84767" lon="2.31361">
        <ele>63.4</ele>
        <time>2013-04-01T20:07:33.000Z</time>
      </trkpt>
      <trkpt lat="48.84769" lon="2.31368">
        <ele>64.7</ele>
        <time>2013-04-01T20:07:34.000Z</time>
      </trkpt>
      <trkpt lat="48.8477" lon="2.31374">
        <ele>68.7</ele>
        <time>2013-04-01T20:07:35.000Z</time>
      </trkpt>
      <trkpt lat="48.84775" lon="2.3139">
        <ele>66.6</ele>
        <time>2013-04-01T20:07:38.000Z</time>
      </trkpt>
      <trkpt lat="48.84776" lon="2.31395">
        <ele>65.6</ele>
        <time>2013-04-01T20:07:39.000Z</time>
      </trkpt>
      <trkpt lat="48.84777" lon="2.31401">
        <ele>66</ele>
        <time>2013-04-01T20:07:40.000Z</time>
      </trkpt>
      <trkpt lat="48.84777" lon="2.31407">
        <ele>65.6</ele>
        <time>2013-04-01T20:07:41.000Z</time>
      </trkpt>
      <trkpt lat="48.84779" lon="2.31413">
        <ele>66.1</ele>
        <time>2013-04-01T20:07:42.000Z</time>
      </trkpt>
      <trkpt lat="48.84784" lon="2.31424">
        <ele>67.1</ele>
        <time>2013-04-01T20:07:43.000Z</time>
      </trkpt>
      <trkpt lat="48.84787" lon="2.3143">
        <ele>68.2</ele>
        <time>2013-04-01T20:07:44.000Z</time>
      </trkpt>
      <trkpt lat="48.84788" lon="2.31438">
        <ele>69</ele>
        <time>2013-04-01T20:07:45.000Z</time>
      </trkpt>
      <trkpt lat="48.84789" lon="2.31446">
        <ele>70.3</ele>
        <time>2013-04-01T20:07:46.000Z</time>
      </trkpt>
      <trkpt lat="48.84791" lon="2.31454">
        <ele>71.7</ele>
        <time>2013-04-01T20:07:47.000Z</time>
      </trkpt>
      <trkpt lat="48.84793" lon="2.31459">
        <ele>70.2</ele>
        <time>2013-04-01T20:07:48.000Z</time>
      </trkpt>
      <trkpt lat="48.84795" lon="2.31467">
        <ele>72.4</ele>
        <time>2013-04-01T20:07:49.000Z</time>
      </trkpt>
      <trkpt lat="48.84797" lon="2.31474">
        <ele>72.2</ele>
        <time>2013-04-01T20:07:50.000Z</time>
      </trkpt>
      <trkpt lat="48.84799" lon="2.3148">
        <ele>71.7</ele>
        <time>2013-04-01T20:07:51.000Z</time>
      </trkpt>
      <trkpt lat="48.84802" lon="2.31487">
        <ele>72.3</ele>
        <time>2013-04-01T20:07:52.000Z</time>
      </trkpt>
      <trkpt lat="48.84804" lon="2.31493">
        <ele>72.4</ele>
        <time>2013-04-01T20:07:53.000Z</time>
      </trkpt>
      <trkpt lat="48.84807" lon="2.31498">
        <ele>72.1</ele>
        <time>2013-04-01T20:07:54.000Z</time>
      </trkpt>
      <trkpt lat="48.84808" lon="2.31503">
        <ele>71.4</ele>
        <time>2013-04-01T20:07:55.000Z</time>
      </trkpt>
      <trkpt lat="48.8481" lon="2.31509">
        <ele>72.4</ele>
        <time>2013-04-01T20:07:56.000Z</time>
      </trkpt>
      <trkpt lat="48.84812" lon="2.31516">
        <ele>73.1</ele>
        <time>2013-04-01T20:07:57.000Z</time>
      </trkpt>
      <trkpt lat="48.84813" lon="2.31522">
        <ele>73.2</ele>
        <time>2013-04-01T20:07:58.000Z</time>
      </trkpt>
      <trkpt lat="48.84815" lon="2.31527">
        <ele>74.5</ele>
        <time>2013-04-01T20:07:59.000Z</time>
      </trkpt>
      <trkpt lat="48.84816" lon="2.31531">
        <ele>74.8</ele>
        <time>2013-04-01T20:08:00.000Z</time>
      </trkpt>
      <trkpt lat="48.84817" lon="2.31536">
        <ele>75.7</ele>
        <time>2013-04-01T20:08:01.000Z</time>
      </trkpt>
      <trkpt lat="48.84818" lon="2.31539">
        <ele>76</ele>
        <time>2013-04-01T20:08:02.000Z</time>
      </trkpt>
      <trkpt lat="48.84818" lon="2.31543">
        <ele>76.2</ele>
        <time>2013-04-01T20:08:03.000Z</time>
      </trkpt>
      <trkpt lat="48.84818" lon="2.31549">
        <ele>75.3</ele>
        <time>2013-04-01T20:08:05.000Z</time>
      </trkpt>
      <trkpt lat="48.84818" lon="2.31551">
        <ele>75</ele>
        <time>2013-04-01T20:08:06.000Z</time>
      </trkpt>
      <trkpt lat="48.84818" lon="2.31557">
        <ele>74.6</ele>
        <time>2013-04-01T20:08:10.000Z</time>
      </trkpt>
      <trkpt lat="48.84818" lon="2.31558">
        <ele>74.5</ele>
        <time>2013-04-01T20:08:11.000Z</time>
      </trkpt>
      <trkpt lat="48.84821" lon="2.31564">
        <ele>77.4</ele>
        <time>2013-04-01T20:08:39.000Z</time>
      </trkpt>
      <trkpt lat="48.84821" lon="2.31566">
        <ele>77.6</ele>
        <time>2013-04-01T20:08:40.000Z</time>
      </trkpt>
      <trkpt lat="48.84824" lon="2.3157">
        <ele>77.5</ele>
        <time>2013-04-01T20:08:42.000Z</time>
      </trkpt>
      <trkpt lat="48.84827" lon="2.31573">
        <ele>76.9</ele>
        <time>2013-04-01T20:08:43.000Z</time>
      </trkpt>
      <trkpt lat="48.84831" lon="2.31575">
        <ele>77</ele>
        <time>2013-04-01T20:08:44.000Z</time>
      </trkpt>
      <trkpt lat="48.84836" lon="2.31576">
        <ele>76.7</ele>
        <time>2013-04-01T20:08:45.000Z</time>
      </trkpt>
      <trkpt lat="48.8484" lon="2.31576">
        <ele>77.2</ele>
        <time>2013-04-01T20:08:46.000Z</time>
      </trkpt>
      <trkpt lat="48.84844" lon="2.31575">
        <ele>76.7</ele>
        <time>2013-04-01T20:08:47.000Z</time>
      </trkpt>
      <trkpt lat="48.84848" lon="2.31573">
        <ele>76.6</ele>
        <time>2013-04-01T20:08:48.000Z</time>
      </trkpt>
      <trkpt lat="48.84853" lon="2.31571">
        <ele>76.7</ele>
        <time>2013-04-01T20:08:49.000Z</time>
      </trkpt>
      <trkpt lat="48.84857" lon="2.31568">
        <ele>76.9</ele>
        <time>2013-04-01T20:08:50.000Z</time>
      </trkpt>
      <trkpt lat="48.84861" lon="2.31565">
        <ele>77.2</ele>
        <time>2013-04-01T20:08:51.000Z</time>
      </trkpt>
      <trkpt lat="48.84865" lon="2.31562">
        <ele>77.6</ele>
        <time>2013-04-01T20:08:52.000Z</time>
      </trkpt>
      <trkpt lat="48.84869" lon="2.3156">
        <ele>77.9</ele>
        <time>2013-04-01T20:08:53.000Z</time>
      </trkpt>
      <trkpt lat="48.84873" lon="2.31558">
        <ele>78.4</ele>
        <time>2013-04-01T20:08:54.000Z</time>
      </trkpt>
      <trkpt lat="48.84878" lon="2.31555">
        <ele>78</ele>
        <time>2013-04-01T20:08:55.000Z</time>
      </trkpt>
      <trkpt lat="48.84884" lon="2.31549">
        <ele>79.1</ele>
        <time>2013-04-01T20:08:56.000Z</time>
      </trkpt>
      <trkpt lat="48.84888" lon="2.31546">
        <ele>79.3</ele>
        <time>2013-04-01T20:08:57.000Z</time>
      </trkpt>
      <trkpt lat="48.84894" lon="2.31544">
        <ele>79.4</ele>
        <time>2013-04-01T20:08:58.000Z</time>
      </trkpt>
      <trkpt lat="48.84899" lon="2.31541">
        <ele>79.8</ele>
        <time>2013-04-01T20:08:59.000Z</time>
      </trkpt>
      <trkpt lat="48.84903" lon="2.3154">
        <ele>80.4</ele>
        <time>2013-04-01T20:09:00.000Z</time>
      </trkpt>
      <trkpt lat="48.84908" lon="2.31537">
        <ele>80.9</ele>
        <time>2013-04-01T20:09:01.000Z</time>
      </trkpt>
      <trkpt lat="48.84913" lon="2.31535">
        <ele>81.4</ele>
        <time>2013-04-01T20:09:02.000Z</time>
      </trkpt>
      <trkpt lat="48.84917" lon="2.3153">
        <ele>81.6</ele>
        <time>2013-04-01T20:09:03.000Z</time>
      </trkpt>
      <trkpt lat="48.84922" lon="2.31526">
        <ele>81.9</ele>
        <time>2013-04-01T20:09:04.000Z</time>
      </trkpt>
      <trkpt lat="48.84927" lon="2.31525">
        <ele>82.4</ele>
        <time>2013-04-01T20:09:05.000Z</time>
      </trkpt>
      <trkpt lat="48.84932" lon="2.31523">
        <ele>83.2</ele>
        <time>2013-04-01T20:09:06.000Z</time>
      </trkpt>
      <trkpt lat="48.84936" lon="2.31519">
        <ele>83.1</ele>
        <time>2013-04-01T20:09:07.000Z</time>
      </trkpt>
      <trkpt lat="48.84941" lon="2.31516">
        <ele>84.2</ele>
        <time>2013-04-01T20:09:08.000Z</time>
      </trkpt>
      <trkpt lat="48.84945" lon="2.31514">
        <ele>85.4</ele>
        <time>2013-04-01T20:09:09.000Z</time>
      </trkpt>
      <trkpt lat="48.8495" lon="2.31525">
        <ele>84.5</ele>
        <time>2013-04-01T20:09:10.000Z</time>
      </trkpt>
      <trkpt lat="48.84954" lon="2.31531">
        <ele>84.1</ele>
        <time>2013-04-01T20:09:11.000Z</time>
      </trkpt>
      <trkpt lat="48.84956" lon="2.31537">
        <ele>85.7</ele>
        <time>2013-04-01T20:09:12.000Z</time>
      </trkpt>
      <trkpt lat="48.84957" lon="2.31542">
        <ele>85.2</ele>
        <time>2013-04-01T20:09:13.000Z</time>
      </trkpt>
      <trkpt lat="48.84959" lon="2.31547">
        <ele>84.2</ele>
        <time>2013-04-01T20:09:14.000Z</time>
      </trkpt>
      <trkpt lat="48.84961" lon="2.31551">
        <ele>83.4</ele>
        <time>2013-04-01T20:09:15.000Z</time>
      </trkpt>
      <trkpt lat="48.84963" lon="2.31556">
        <ele>83.1</ele>
        <time>2013-04-01T20:09:16.000Z</time>
      </trkpt>
      <trkpt lat="48.84964" lon="2.31561">
        <ele>83</ele>
        <time>2013-04-01T20:09:17.000Z</time>
      </trkpt>
      <trkpt lat="48.84966" lon="2.31565">
        <ele>82.7</ele>
        <time>2013-04-01T20:09:18.000Z</time>
      </trkpt>
      <trkpt lat="48.84967" lon="2.3157">
        <ele>82.5</ele>
        <time>2013-04-01T20:09:19.000Z</time>
      </trkpt>
      <trkpt lat="48.84968" lon="2.31575">
        <ele>82.3</ele>
        <time>2013-04-01T20:09:20.000Z</time>
      </trkpt>
      <trkpt lat="48.84969" lon="2.31579">
        <ele>82.3</ele>
        <time>2013-04-01T20:09:21.000Z</time>
      </trkpt>
      <trkpt lat="48.8497" lon="2.31584">
        <ele>82.1</ele>
        <time>2013-04-01T20:09:22.000Z</time>
      </trkpt>
      <trkpt lat="48.8497" lon="2.31588">
        <ele>82</ele>
        <time>2013-04-01T20:09:23.000Z</time>
      </trkpt>
      <trkpt lat="48.84971" lon="2.31593">
        <ele>81.3</ele>
        <time>2013-04-01T20:09:24.000Z</time>
      </trkpt>
      <trkpt lat="48.84972" lon="2.31598">
        <ele>81.2</ele>
        <time>2013-04-01T20:09:25.000Z</time>
      </trkpt>
      <trkpt lat="48.84973" lon="2.31603">
        <ele>80.9</ele>
        <time>2013-04-01T20:09:26.000Z</time>
      </trkpt>
      <trkpt lat="48.84975" lon="2.31608">
        <ele>80.4</ele>
        <time>2013-04-01T20:09:27.000Z</time>
      </trkpt>
      <trkpt lat="48.84976" lon="2.31613">
        <ele>81.2</ele>
        <time>2013-04-01T20:09:28.000Z</time>
      </trkpt>
      <trkpt lat="48.84978" lon="2.31618">
        <ele>81.9</ele>
        <time>2013-04-01T20:09:29.000Z</time>
      </trkpt>
      <trkpt lat="48.84979" lon="2.31624">
        <ele>83</ele>
        <time>2013-04-01T20:09:30.000Z</time>
      </trkpt>
      <trkpt lat="48.8498" lon="2.31629">
        <ele>82.6</ele>
        <time>2013-04-01T20:09:31.000Z</time>
      </trkpt>
      <trkpt lat="48.84981" lon="2.31634">
        <ele>82.5</ele>
        <time>2013-04-01T20:09:32.000Z</time>
      </trkpt>
      <trkpt lat="48.84982" lon="2.31638">
        <ele>82.3</ele>
        <time>2013-04-01T20:09:33.000Z</time>
      </trkpt>
      <trkpt lat="48.84984" lon="2.31643">
        <ele>82.1</ele>
        <time>2013-04-01T20:09:34.000Z</time>
      </trkpt>
      <trkpt lat="48.84985" lon="2.31647">
        <ele>82.3</ele>
        <time>2013-04-01T20:09:35.000Z</time>
      </trkpt>
      <trkpt lat="48.84987" lon="2.31657">
        <ele>78</ele>
        <time>2013-04-01T20:09:38.000Z</time>
      </trkpt>
      <trkpt lat="48.84986" lon="2.31661">
        <ele>77.6</ele>
        <time>2013-04-01T20:09:40.000Z</time>
      </trkpt>
      <trkpt lat="48.84985" lon="2.31663">
        <ele>78.9</ele>
        <time>2013-04-01T20:09:41.000Z</time>
      </trkpt>
      <trkpt lat="48.84985" lon="2.31667">
        <ele>78.8</ele>
        <time>2013-04-01T20:09:42.000Z</time>
      </trkpt>
      <trkpt lat="48.84985" lon="2.31671">
        <ele>77.1</ele>
        <time>2013-04-01T20:09:43.000Z</time>
      </trkpt>
      <trkpt lat="48.84985" lon="2.31675">
        <ele>78.6</ele>
        <time>2013-04-01T20:09:44.000Z</time>
      </trkpt>
      <trkpt lat="48.84984" lon="2.31678">
        <ele>79.6</ele>
        <time>2013-04-01T20:09:45.000Z</time>
      </trkpt>
      <trkpt lat="48.84985" lon="2.31683">
        <ele>79</ele>
        <time>2013-04-01T20:09:48.000Z</time>
      </trkpt>
      <trkpt lat="48.84987" lon="2.31685">
        <ele>79.5</ele>
        <time>2013-04-01T20:09:49.000Z</time>
      </trkpt>
      <trkpt lat="48.84988" lon="2.31688">
        <ele>78.3</ele>
        <time>2013-04-01T20:09:50.000Z</time>
      </trkpt>
      <trkpt lat="48.8499" lon="2.31693">
        <ele>79.4</ele>
        <time>2013-04-01T20:09:51.000Z</time>
      </trkpt>
      <trkpt lat="48.84992" lon="2.31699">
        <ele>79.7</ele>
        <time>2013-04-01T20:09:52.000Z</time>
      </trkpt>
      <trkpt lat="48.84993" lon="2.31704">
        <ele>79.6</ele>
        <time>2013-04-01T20:09:53.000Z</time>
      </trkpt>
      <trkpt lat="48.84995" lon="2.3171">
        <ele>79.7</ele>
        <time>2013-04-01T20:09:54.000Z</time>
      </trkpt>
      <trkpt lat="48.84996" lon="2.31716">
        <ele>78.9</ele>
        <time>2013-04-01T20:09:55.000Z</time>
      </trkpt>
      <trkpt lat="48.84998" lon="2.31722">
        <ele>79.9</ele>
        <time>2013-04-01T20:09:56.000Z</time>
      </trkpt>
      <trkpt lat="48.84999" lon="2.31728">
        <ele>79.3</ele>
        <time>2013-04-01T20:09:57.000Z</time>
      </trkpt>
      <trkpt lat="48.85001" lon="2.31734">
        <ele>80.7</ele>
        <time>2013-04-01T20:09:58.000Z</time>
      </trkpt>
      <trkpt lat="48.85002" lon="2.31741">
        <ele>78.3</ele>
        <time>2013-04-01T20:09:59.000Z</time>
      </trkpt>
      <trkpt lat="48.85003" lon="2.31747">
        <ele>79.1</ele>
        <time>2013-04-01T20:10:00.000Z</time>
      </trkpt>
      <trkpt lat="48.85004" lon="2.31754">
        <ele>79.6</ele>
        <time>2013-04-01T20:10:01.000Z</time>
      </trkpt>
      <trkpt lat="48.85005" lon="2.3176">
        <ele>79.9</ele>
        <time>2013-04-01T20:10:02.000Z</time>
      </trkpt>
      <trkpt lat="48.85006" lon="2.31767">
        <ele>79.1</ele>
        <time>2013-04-01T20:10:03.000Z</time>
      </trkpt>
      <trkpt lat="48.85008" lon="2.31774">
        <ele>78.7</ele>
        <time>2013-04-01T20:10:04.000Z</time>
      </trkpt>
      <trkpt lat="48.85009" lon="2.3178">
        <ele>78.6</ele>
        <time>2013-04-01T20:10:05.000Z</time>
      </trkpt>
      <trkpt lat="48.8501" lon="2.31787">
        <ele>78.9</ele>
        <time>2013-04-01T20:10:06.000Z</time>
      </trkpt>
      <trkpt lat="48.85012" lon="2.31793">
        <ele>78.4</ele>
        <time>2013-04-01T20:10:07.000Z</time>
      </trkpt>
      <trkpt lat="48.85014" lon="2.31799">
        <ele>77.6</ele>
        <time>2013-04-01T20:10:08.000Z</time>
      </trkpt>
      <trkpt lat="48.85016" lon="2.31805">
        <ele>80.1</ele>
        <time>2013-04-01T20:10:09.000Z</time>
      </trkpt>
      <trkpt lat="48.85017" lon="2.31811">
        <ele>79.5</ele>
        <time>2013-04-01T20:10:10.000Z</time>
      </trkpt>
      <trkpt lat="48.85018" lon="2.31816">
        <ele>77.7</ele>
        <time>2013-04-01T20:10:11.000Z</time>
      </trkpt>
      <trkpt lat="48.85019" lon="2.31822">
        <ele>76.8</ele>
        <time>2013-04-01T20:10:12.000Z</time>
      </trkpt>
      <trkpt lat="48.8502" lon="2.31828">
        <ele>75.8</ele>
        <time>2013-04-01T20:10:13.000Z</time>
      </trkpt>
      <trkpt lat="48.85021" lon="2.31834">
        <ele>74.3</ele>
        <time>2013-04-01T20:10:14.000Z</time>
      </trkpt>
      <trkpt lat="48.85022" lon="2.31841">
        <ele>74.4</ele>
        <time>2013-04-01T20:10:15.000Z</time>
      </trkpt>
      <trkpt lat="48.85023" lon="2.31847">
        <ele>73.6</ele>
        <time>2013-04-01T20:10:16.000Z</time>
      </trkpt>
      <trkpt lat="48.85024" lon="2.31853">
        <ele>73.2</ele>
        <time>2013-04-01T20:10:17.000Z</time>
      </trkpt>
      <trkpt lat="48.85025" lon="2.3186">
        <ele>73.6</ele>
        <time>2013-04-01T20:10:18.000Z</time>
      </trkpt>
      <trkpt lat="48.85027" lon="2.31866">
        <ele>73</ele>
        <time>2013-04-01T20:10:19.000Z</time>
      </trkpt>
      <trkpt lat="48.85027" lon="2.31873">
        <ele>71.8</ele>
        <time>2013-04-01T20:10:20.000Z</time>
      </trkpt>
      <trkpt lat="48.85028" lon="2.3188">
        <ele>72.8</ele>
        <time>2013-04-01T20:10:21.000Z</time>
      </trkpt>
      <trkpt lat="48.85028" lon="2.31887">
        <ele>72.5</ele>
        <time>2013-04-01T20:10:22.000Z</time>
      </trkpt>
      <trkpt lat="48.85028" lon="2.31894">
        <ele>72.3</ele>
        <time>2013-04-01T20:10:23.000Z</time>
      </trkpt>
      <trkpt lat="48.85028" lon="2.31901">
        <ele>72.6</ele>
        <time>2013-04-01T20:10:24.000Z</time>
      </trkpt>
      <trkpt lat="48.85028" lon="2.31907">
        <ele>71.9</ele>
        <time>2013-04-01T20:10:25.000Z</time>
      </trkpt>
      <trkpt lat="48.85029" lon="2.31914">
        <ele>72.7</ele>
        <time>2013-04-01T20:10:26.000Z</time>
      </trkpt>
      <trkpt lat="48.85029" lon="2.3192">
        <ele>72.5</ele>
        <time>2013-04-01T20:10:27.000Z</time>
      </trkpt>
      <trkpt lat="48.8503" lon="2.31925">
        <ele>73.1</ele>
        <time>2013-04-01T20:10:28.000Z</time>
      </trkpt>
      <trkpt lat="48.85031" lon="2.3193">
        <ele>73.7</ele>
        <time>2013-04-01T20:10:29.000Z</time>
      </trkpt>
      <trkpt lat="48.85032" lon="2.31936">
        <ele>74.4</ele>
        <time>2013-04-01T20:10:30.000Z</time>
      </trkpt>
      <trkpt lat="48.85033" lon="2.31941">
        <ele>75.5</ele>
        <time>2013-04-01T20:10:31.000Z</time>
      </trkpt>
      <trkpt lat="48.85034" lon="2.31946">
        <ele>76.3</ele>
        <time>2013-04-01T20:10:32.000Z</time>
      </trkpt>
      <trkpt lat="48.85036" lon="2.31951">
        <ele>76.3</ele>
        <time>2013-04-01T20:10:33.000Z</time>
      </trkpt>
      <trkpt lat="48.85037" lon="2.31955">
        <ele>77.9</ele>
        <time>2013-04-01T20:10:34.000Z</time>
      </trkpt>
      <trkpt lat="48.85042" lon="2.31957">
        <ele>80.8</ele>
        <time>2013-04-01T20:10:35.000Z</time>
      </trkpt>
      <trkpt lat="48.85054" lon="2.31955">
        <ele>79.7</ele>
        <time>2013-04-01T20:10:38.000Z</time>
      </trkpt>
      <trkpt lat="48.85058" lon="2.31953">
        <ele>78.6</ele>
        <time>2013-04-01T20:10:39.000Z</time>
      </trkpt>
      <trkpt lat="48.85063" lon="2.31952">
        <ele>78.7</ele>
        <time>2013-04-01T20:10:40.000Z</time>
      </trkpt>
      <trkpt lat="48.85067" lon="2.3195">
        <ele>76.6</ele>
        <time>2013-04-01T20:10:41.000Z</time>
      </trkpt>
      <trkpt lat="48.85072" lon="2.31948">
        <ele>75.6</ele>
        <time>2013-04-01T20:10:42.000Z</time>
      </trkpt>
      <trkpt lat="48.85076" lon="2.31945">
        <ele>72.5</ele>
        <time>2013-04-01T20:10:43.000Z</time>
      </trkpt>
      <trkpt lat="48.85079" lon="2.31943">
        <ele>71.3</ele>
        <time>2013-04-01T20:10:44.000Z</time>
      </trkpt>
      <trkpt lat="48.85083" lon="2.3194">
        <ele>69.9</ele>
        <time>2013-04-01T20:10:45.000Z</time>
      </trkpt>
      <trkpt lat="48.85086" lon="2.31937">
        <ele>69.3</ele>
        <time>2013-04-01T20:10:46.000Z</time>
      </trkpt>
      <trkpt lat="48.8509" lon="2.31935">
        <ele>69.2</ele>
        <time>2013-04-01T20:10:47.000Z</time>
      </trkpt>
      <trkpt lat="48.85093" lon="2.31932">
        <ele>68.7</ele>
        <time>2013-04-01T20:10:48.000Z</time>
      </trkpt>
      <trkpt lat="48.85097" lon="2.3193">
        <ele>68.1</ele>
        <time>2013-04-01T20:10:49.000Z</time>
      </trkpt>
      <trkpt lat="48.85101" lon="2.31928">
        <ele>67.5</ele>
        <time>2013-04-01T20:10:50.000Z</time>
      </trkpt>
      <trkpt lat="48.85106" lon="2.31926">
        <ele>67.4</ele>
        <time>2013-04-01T20:10:51.000Z</time>
      </trkpt>
      <trkpt lat="48.85112" lon="2.31924">
        <ele>67.4</ele>
        <time>2013-04-01T20:10:52.000Z</time>
      </trkpt>
      <trkpt lat="48.85118" lon="2.31922">
        <ele>67.9</ele>
        <time>2013-04-01T20:10:53.000Z</time>
      </trkpt>
      <trkpt lat="48.85123" lon="2.3192">
        <ele>68.7</ele>
        <time>2013-04-01T20:10:54.000Z</time>
      </trkpt>
      <trkpt lat="48.85129" lon="2.31919">
        <ele>68.8</ele>
        <time>2013-04-01T20:10:55.000Z</time>
      </trkpt>
      <trkpt lat="48.85134" lon="2.31917">
        <ele>68.4</ele>
        <time>2013-04-01T20:10:56.000Z</time>
      </trkpt>
      <trkpt lat="48.85138" lon="2.31915">
        <ele>68.9</ele>
        <time>2013-04-01T20:10:57.000Z</time>
      </trkpt>
      <trkpt lat="48.85143" lon="2.31914">
        <ele>67.6</ele>
        <time>2013-04-01T20:10:58.000Z</time>
      </trkpt>
      <trkpt lat="48.85146" lon="2.31913">
        <ele>65.8</ele>
        <time>2013-04-01T20:10:59.000Z</time>
      </trkpt>
      <trkpt lat="48.85149" lon="2.31912">
        <ele>66.5</ele>
        <time>2013-04-01T20:11:00.000Z</time>
      </trkpt>
      <trkpt lat="48.85151" lon="2.3191">
        <ele>66.2</ele>
        <time>2013-04-01T20:11:01.000Z</time>
      </trkpt>
      <trkpt lat="48.85155" lon="2.31906">
        <ele>71.5</ele>
        <time>2013-04-01T20:11:03.000Z</time>
      </trkpt>
      <trkpt lat="48.85157" lon="2.31904">
        <ele>71.4</ele>
        <time>2013-04-01T20:11:04.000Z</time>
      </trkpt>
      <trkpt lat="48.8516" lon="2.31901">
        <ele>72.8</ele>
        <time>2013-04-01T20:11:06.000Z</time>
      </trkpt>
      <trkpt lat="48.85163" lon="2.31901">
        <ele>75.3</ele>
        <time>2013-04-01T20:11:07.000Z</time>
      </trkpt>
      <trkpt lat="48.85166" lon="2.31902">
        <ele>75.9</ele>
        <time>2013-04-01T20:11:08.000Z</time>
      </trkpt>
      <trkpt lat="48.85171" lon="2.31903">
        <ele>76.5</ele>
        <time>2013-04-01T20:11:09.000Z</time>
      </trkpt>
      <trkpt lat="48.85177" lon="2.31904">
        <ele>76.1</ele>
        <time>2013-04-01T20:11:10.000Z</time>
      </trkpt>
      <trkpt lat="48.85186" lon="2.31904">
        <ele>76.8</ele>
        <time>2013-04-01T20:11:11.000Z</time>
      </trkpt>
      <trkpt lat="48.8519" lon="2.31905">
        <ele>77.4</ele>
        <time>2013-04-01T20:11:12.000Z</time>
      </trkpt>
      <trkpt lat="48.85195" lon="2.31905">
        <ele>77.9</ele>
        <time>2013-04-01T20:11:13.000Z</time>
      </trkpt>
      <trkpt lat="48.852" lon="2.31905">
        <ele>77.6</ele>
        <time>2013-04-01T20:11:14.000Z</time>
      </trkpt>
      <trkpt lat="48.85204" lon="2.31907">
        <ele>78.1</ele>
        <time>2013-04-01T20:11:15.000Z</time>
      </trkpt>
      <trkpt lat="48.85211" lon="2.31905">
        <ele>77.9</ele>
        <time>2013-04-01T20:11:16.000Z</time>
      </trkpt>
      <trkpt lat="48.85216" lon="2.31906">
        <ele>78.4</ele>
        <time>2013-04-01T20:11:17.000Z</time>
      </trkpt>
      <trkpt lat="48.8522" lon="2.31907">
        <ele>78.4</ele>
        <time>2013-04-01T20:11:18.000Z</time>
      </trkpt>
      <trkpt lat="48.85226" lon="2.31907">
        <ele>78.8</ele>
        <time>2013-04-01T20:11:19.000Z</time>
      </trkpt>
      <trkpt lat="48.8523" lon="2.31907">
        <ele>78.6</ele>
        <time>2013-04-01T20:11:20.000Z</time>
      </trkpt>
      <trkpt lat="48.85235" lon="2.31907">
        <ele>73.2</ele>
        <time>2013-04-01T20:11:21.000Z</time>
      </trkpt>
      <trkpt lat="48.8524" lon="2.31907">
        <ele>74.9</ele>
        <time>2013-04-01T20:11:22.000Z</time>
      </trkpt>
      <trkpt lat="48.85244" lon="2.31906">
        <ele>78.1</ele>
        <time>2013-04-01T20:11:23.000Z</time>
      </trkpt>
      <trkpt lat="48.85248" lon="2.31905">
        <ele>80.8</ele>
        <time>2013-04-01T20:11:24.000Z</time>
      </trkpt>
      <trkpt lat="48.85252" lon="2.31907">
        <ele>81.3</ele>
        <time>2013-04-01T20:11:25.000Z</time>
      </trkpt>
      <trkpt lat="48.85257" lon="2.31907">
        <ele>82.7</ele>
        <time>2013-04-01T20:11:26.000Z</time>
      </trkpt>
      <trkpt lat="48.85262" lon="2.31908">
        <ele>84.7</ele>
        <time>2013-04-01T20:11:27.000Z</time>
      </trkpt>
      <trkpt lat="48.85265" lon="2.31908">
        <ele>83.1</ele>
        <time>2013-04-01T20:11:28.000Z</time>
      </trkpt>
      <trkpt lat="48.8527" lon="2.3191">
        <ele>83.5</ele>
        <time>2013-04-01T20:11:29.000Z</time>
      </trkpt>
      <trkpt lat="48.85274" lon="2.31911">
        <ele>82.6</ele>
        <time>2013-04-01T20:11:30.000Z</time>
      </trkpt>
      <trkpt lat="48.85279" lon="2.31913">
        <ele>80.9</ele>
        <time>2013-04-01T20:11:31.000Z</time>
      </trkpt>
      <trkpt lat="48.85284" lon="2.31916">
        <ele>81.2</ele>
        <time>2013-04-01T20:11:32.000Z</time>
      </trkpt>
      <trkpt lat="48.85289" lon="2.31919">
        <ele>81.7</ele>
        <time>2013-04-01T20:11:33.000Z</time>
      </trkpt>
      <trkpt lat="48.85294" lon="2.31921">
        <ele>81.7</ele>
        <time>2013-04-01T20:11:34.000Z</time>
      </trkpt>
      <trkpt lat="48.853" lon="2.31921">
        <ele>81.2</ele>
        <time>2013-04-01T20:11:35.000Z</time>
      </trkpt>
      <trkpt lat="48.85314" lon="2.31926">
        <ele>80.1</ele>
        <time>2013-04-01T20:11:38.000Z</time>
      </trkpt>
      <trkpt lat="48.85319" lon="2.31926">
        <ele>79.8</ele>
        <time>2013-04-01T20:11:39.000Z</time>
      </trkpt>
      <trkpt lat="48.85325" lon="2.31928">
        <ele>79.9</ele>
        <time>2013-04-01T20:11:40.000Z</time>
      </trkpt>
      <trkpt lat="48.8533" lon="2.31928">
        <ele>80.1</ele>
        <time>2013-04-01T20:11:41.000Z</time>
      </trkpt>
      <trkpt lat="48.85335" lon="2.31931">
        <ele>79.8</ele>
        <time>2013-04-01T20:11:42.000Z</time>
      </trkpt>
      <trkpt lat="48.85341" lon="2.31935">
        <ele>81</ele>
        <time>2013-04-01T20:11:43.000Z</time>
      </trkpt>
      <trkpt lat="48.85346" lon="2.31939">
        <ele>80.3</ele>
        <time>2013-04-01T20:11:44.000Z</time>
      </trkpt>
      <trkpt lat="48.85352" lon="2.3194">
        <ele>81.5</ele>
        <time>2013-04-01T20:11:45.000Z</time>
      </trkpt>
      <trkpt lat="48.85358" lon="2.3194">
        <ele>81.3</ele>
        <time>2013-04-01T20:11:46.000Z</time>
      </trkpt>
      <trkpt lat="48.85363" lon="2.31942">
        <ele>81.2</ele>
        <time>2013-04-01T20:11:47.000Z</time>
      </trkpt>
      <trkpt lat="48.85367" lon="2.31944">
        <ele>82.3</ele>
        <time>2013-04-01T20:11:48.000Z</time>
      </trkpt>
      <trkpt lat="48.85372" lon="2.31945">
        <ele>82.7</ele>
        <time>2013-04-01T20:11:49.000Z</time>
      </trkpt>
      <trkpt lat="48.85377" lon="2.31946">
        <ele>83.6</ele>
        <time>2013-04-01T20:11:50.000Z</time>
      </trkpt>
      <trkpt lat="48.85382" lon="2.31948">
        <ele>83.9</ele>
        <time>2013-04-01T20:11:51.000Z</time>
      </trkpt>
      <trkpt lat="48.85386" lon="2.3195">
        <ele>85</ele>
        <time>2013-04-01T20:11:52.000Z</time>
      </trkpt>
      <trkpt lat="48.85392" lon="2.31951">
        <ele>84.8</ele>
        <time>2013-04-01T20:11:53.000Z</time>
      </trkpt>
      <trkpt lat="48.85396" lon="2.31953">
        <ele>85.7</ele>
        <time>2013-04-01T20:11:54.000Z</time>
      </trkpt>
      <trkpt lat="48.854" lon="2.31952">
        <ele>85.9</ele>
        <time>2013-04-01T20:11:55.000Z</time>
      </trkpt>
      <trkpt lat="48.85405" lon="2.31954">
        <ele>86.6</ele>
        <time>2013-04-01T20:11:56.000Z</time>
      </trkpt>
      <trkpt lat="48.85409" lon="2.31957">
        <ele>87.4</ele>
        <time>2013-04-01T20:11:57.000Z</time>
      </trkpt>
      <trkpt lat="48.85413" lon="2.31959">
        <ele>88</ele>
        <time>2013-04-01T20:11:58.000Z</time>
      </trkpt>
      <trkpt lat="48.85418" lon="2.3196">
        <ele>87.7</ele>
        <time>2013-04-01T20:11:59.000Z</time>
      </trkpt>
      <trkpt lat="48.85422" lon="2.31962">
        <ele>87.7</ele>
        <time>2013-04-01T20:12:00.000Z</time>
      </trkpt>
      <trkpt lat="48.85427" lon="2.31963">
        <ele>87.4</ele>
        <time>2013-04-01T20:12:01.000Z</time>
      </trkpt>
      <trkpt lat="48.85431" lon="2.31964">
        <ele>87.2</ele>
        <time>2013-04-01T20:12:02.000Z</time>
      </trkpt>
      <trkpt lat="48.85436" lon="2.31965">
        <ele>87.2</ele>
        <time>2013-04-01T20:12:03.000Z</time>
      </trkpt>
      <trkpt lat="48.85438" lon="2.31965">
        <ele>87.8</ele>
        <time>2013-04-01T20:12:04.000Z</time>
      </trkpt>
      <trkpt lat="48.85443" lon="2.31968">
        <ele>88.2</ele>
        <time>2013-04-01T20:12:05.000Z</time>
      </trkpt>
      <trkpt lat="48.85448" lon="2.31972">
        <ele>88.5</ele>
        <time>2013-04-01T20:12:06.000Z</time>
      </trkpt>
      <trkpt lat="48.85451" lon="2.31975">
        <ele>88.1</ele>
        <time>2013-04-01T20:12:07.000Z</time>
      </trkpt>
      <trkpt lat="48.85455" lon="2.31977">
        <ele>88.5</ele>
        <time>2013-04-01T20:12:08.000Z</time>
      </trkpt>
      <trkpt lat="48.85459" lon="2.31978">
        <ele>88.5</ele>
        <time>2013-04-01T20:12:09.000Z</time>
      </trkpt>
      <trkpt lat="48.85462" lon="2.31979">
        <ele>88.3</ele>
        <time>2013-04-01T20:12:10.000Z</time>
      </trkpt>
      <trkpt lat="48.85466" lon="2.3198">
        <ele>88.2</ele>
        <time>2013-04-01T20:12:11.000Z</time>
      </trkpt>
      <trkpt lat="48.85469" lon="2.3198">
        <ele>88.9</ele>
        <time>2013-04-01T20:12:12.000Z</time>
      </trkpt>
      <trkpt lat="48.85473" lon="2.31981">
        <ele>88.9</ele>
        <time>2013-04-01T20:12:13.000Z</time>
      </trkpt>
      <trkpt lat="48.85476" lon="2.31982">
        <ele>88.8</ele>
        <time>2013-04-01T20:12:14.000Z</time>
      </trkpt>
      <trkpt lat="48.8548" lon="2.31984">
        <ele>88.7</ele>
        <time>2013-04-01T20:12:15.000Z</time>
      </trkpt>
      <trkpt lat="48.85483" lon="2.31985">
        <ele>88.8</ele>
        <time>2013-04-01T20:12:16.000Z</time>
      </trkpt>
      <trkpt lat="48.85486" lon="2.31987">
        <ele>89.1</ele>
        <time>2013-04-01T20:12:17.000Z</time>
      </trkpt>
      <trkpt lat="48.8549" lon="2.31989">
        <ele>86.9</ele>
        <time>2013-04-01T20:12:18.000Z</time>
      </trkpt>
      <trkpt lat="48.85493" lon="2.31991">
        <ele>87</ele>
        <time>2013-04-01T20:12:19.000Z</time>
      </trkpt>
      <trkpt lat="48.85497" lon="2.31993">
        <ele>87.3</ele>
        <time>2013-04-01T20:12:20.000Z</time>
      </trkpt>
      <trkpt lat="48.855" lon="2.31995">
        <ele>88.7</ele>
        <time>2013-04-01T20:12:21.000Z</time>
      </trkpt>
      <trkpt lat="48.85504" lon="2.31997">
        <ele>90.3</ele>
        <time>2013-04-01T20:12:22.000Z</time>
      </trkpt>
      <trkpt lat="48.85507" lon="2.32">
        <ele>91.6</ele>
        <time>2013-04-01T20:12:23.000Z</time>
      </trkpt>
      <trkpt lat="48.8551" lon="2.32003">
        <ele>92.4</ele>
        <time>2013-04-01T20:12:24.000Z</time>
      </trkpt>
      <trkpt lat="48.85514" lon="2.32006">
        <ele>92.7</ele>
        <time>2013-04-01T20:12:25.000Z</time>
      </trkpt>
      <trkpt lat="48.85518" lon="2.32008">
        <ele>92.7</ele>
        <time>2013-04-01T20:12:26.000Z</time>
      </trkpt>
      <trkpt lat="48.85521" lon="2.3201">
        <ele>92.6</ele>
        <time>2013-04-01T20:12:27.000Z</time>
      </trkpt>
      <trkpt lat="48.85525" lon="2.32013">
        <ele>93</ele>
        <time>2013-04-01T20:12:28.000Z</time>
      </trkpt>
      <trkpt lat="48.85529" lon="2.32016">
        <ele>93.6</ele>
        <time>2013-04-01T20:12:29.000Z</time>
      </trkpt>
      <trkpt lat="48.85534" lon="2.32018">
        <ele>94.8</ele>
        <time>2013-04-01T20:12:30.000Z</time>
      </trkpt>
      <trkpt lat="48.8554" lon="2.32022">
        <ele>93.9</ele>
        <time>2013-04-01T20:12:31.000Z</time>
      </trkpt>
      <trkpt lat="48.85543" lon="2.32025">
        <ele>95.1</ele>
        <time>2013-04-01T20:12:32.000Z</time>
      </trkpt>
      <trkpt lat="48.85548" lon="2.32028">
        <ele>94.5</ele>
        <time>2013-04-01T20:12:33.000Z</time>
      </trkpt>
      <trkpt lat="48.85554" lon="2.32031">
        <ele>92.5</ele>
        <time>2013-04-01T20:12:34.000Z</time>
      </trkpt>
      <trkpt lat="48.85559" lon="2.32034">
        <ele>92.7</ele>
        <time>2013-04-01T20:12:35.000Z</time>
      </trkpt>
      <trkpt lat="48.85567" lon="2.32044">
        <ele>92.4</ele>
        <time>2013-04-01T20:12:38.000Z</time>
      </trkpt>
      <trkpt lat="48.85572" lon="2.32047">
        <ele>93.5</ele>
        <time>2013-04-01T20:12:39.000Z</time>
      </trkpt>
      <trkpt lat="48.85577" lon="2.3205">
        <ele>94</ele>
        <time>2013-04-01T20:12:40.000Z</time>
      </trkpt>
      <trkpt lat="48.85582" lon="2.32052">
        <ele>94</ele>
        <time>2013-04-01T20:12:41.000Z</time>
      </trkpt>
      <trkpt lat="48.85586" lon="2.32057">
        <ele>94.3</ele>
        <time>2013-04-01T20:12:42.000Z</time>
      </trkpt>
      <trkpt lat="48.8559" lon="2.32061">
        <ele>94.5</ele>
        <time>2013-04-01T20:12:43.000Z</time>
      </trkpt>
      <trkpt lat="48.85595" lon="2.32064">
        <ele>94.8</ele>
        <time>2013-04-01T20:12:44.000Z</time>
      </trkpt>
      <trkpt lat="48.856" lon="2.32068">
        <ele>95</ele>
        <time>2013-04-01T20:12:45.000Z</time>
      </trkpt>
      <trkpt lat="48.85604" lon="2.32071">
        <ele>96</ele>
        <time>2013-04-01T20:12:46.000Z</time>
      </trkpt>
      <trkpt lat="48.85609" lon="2.32074">
        <ele>96.6</ele>
        <time>2013-04-01T20:12:47.000Z</time>
      </trkpt>
      <trkpt lat="48.85614" lon="2.32078">
        <ele>96.7</ele>
        <time>2013-04-01T20:12:48.000Z</time>
      </trkpt>
      <trkpt lat="48.85618" lon="2.32083">
        <ele>96.2</ele>
        <time>2013-04-01T20:12:49.000Z</time>
      </trkpt>
      <trkpt lat="48.85623" lon="2.32087">
        <ele>96.4</ele>
        <time>2013-04-01T20:12:50.000Z</time>
      </trkpt>
      <trkpt lat="48.85629" lon="2.32094">
        <ele>94.2</ele>
        <time>2013-04-01T20:12:51.000Z</time>
      </trkpt>
      <trkpt lat="48.85634" lon="2.32101">
        <ele>92</ele>
        <time>2013-04-01T20:12:52.000Z</time>
      </trkpt>
      <trkpt lat="48.85639" lon="2.32106">
        <ele>89.2</ele>
        <time>2013-04-01T20:12:53.000Z</time>
      </trkpt>
      <trkpt lat="48.85644" lon="2.32107">
        <ele>87.8</ele>
        <time>2013-04-01T20:12:54.000Z</time>
      </trkpt>
      <trkpt lat="48.85649" lon="2.32109">
        <ele>87</ele>
        <time>2013-04-01T20:12:55.000Z</time>
      </trkpt>
      <trkpt lat="48.85653" lon="2.32112">
        <ele>86.6</ele>
        <time>2013-04-01T20:12:56.000Z</time>
      </trkpt>
      <trkpt lat="48.85657" lon="2.32115">
        <ele>86.3</ele>
        <time>2013-04-01T20:12:57.000Z</time>
      </trkpt>
      <trkpt lat="48.85661" lon="2.32121">
        <ele>85.6</ele>
        <time>2013-04-01T20:12:58.000Z</time>
      </trkpt>
      <trkpt lat="48.85665" lon="2.32125">
        <ele>85</ele>
        <time>2013-04-01T20:12:59.000Z</time>
      </trkpt>
      <trkpt lat="48.85669" lon="2.3213">
        <ele>85.4</ele>
        <time>2013-04-01T20:13:00.000Z</time>
      </trkpt>
      <trkpt lat="48.85674" lon="2.32134">
        <ele>85.5</ele>
        <time>2013-04-01T20:13:01.000Z</time>
      </trkpt>
      <trkpt lat="48.85678" lon="2.32141">
        <ele>84.5</ele>
        <time>2013-04-01T20:13:02.000Z</time>
      </trkpt>
      <trkpt lat="48.85683" lon="2.32147">
        <ele>84.2</ele>
        <time>2013-04-01T20:13:03.000Z</time>
      </trkpt>
      <trkpt lat="48.85688" lon="2.32153">
        <ele>82.6</ele>
        <time>2013-04-01T20:13:04.000Z</time>
      </trkpt>
      <trkpt lat="48.85692" lon="2.32157">
        <ele>82.5</ele>
        <time>2013-04-01T20:13:05.000Z</time>
      </trkpt>
      <trkpt lat="48.85695" lon="2.32164">
        <ele>82.4</ele>
        <time>2013-04-01T20:13:06.000Z</time>
      </trkpt>
      <trkpt lat="48.85698" lon="2.32173">
        <ele>82.2</ele>
        <time>2013-04-01T20:13:07.000Z</time>
      </trkpt>
      <trkpt lat="48.85704" lon="2.32177">
        <ele>82.3</ele>
        <time>2013-04-01T20:13:08.000Z</time>
      </trkpt>
      <trkpt lat="48.8571" lon="2.32176">
        <ele>81.3</ele>
        <time>2013-04-01T20:13:09.000Z</time>
      </trkpt>
      <trkpt lat="48.85715" lon="2.32179">
        <ele>81.2</ele>
        <time>2013-04-01T20:13:10.000Z</time>
      </trkpt>
      <trkpt lat="48.85721" lon="2.32184">
        <ele>81.9</ele>
        <time>2013-04-01T20:13:11.000Z</time>
      </trkpt>
      <trkpt lat="48.85727" lon="2.32188">
        <ele>82.5</ele>
        <time>2013-04-01T20:13:12.000Z</time>
      </trkpt>
      <trkpt lat="48.85731" lon="2.32194">
        <ele>82.5</ele>
        <time>2013-04-01T20:13:13.000Z</time>
      </trkpt>
      <trkpt lat="48.85737" lon="2.32199">
        <ele>82.6</ele>
        <time>2013-04-01T20:13:14.000Z</time>
      </trkpt>
      <trkpt lat="48.85743" lon="2.32204">
        <ele>83.1</ele>
        <time>2013-04-01T20:13:15.000Z</time>
      </trkpt>
      <trkpt lat="48.85748" lon="2.32208">
        <ele>82.5</ele>
        <time>2013-04-01T20:13:16.000Z</time>
      </trkpt>
      <trkpt lat="48.85753" lon="2.32212">
        <ele>81.8</ele>
        <time>2013-04-01T20:13:17.000Z</time>
      </trkpt>
      <trkpt lat="48.85758" lon="2.32218">
        <ele>82</ele>
        <time>2013-04-01T20:13:18.000Z</time>
      </trkpt>
      <trkpt lat="48.85763" lon="2.32222">
        <ele>81.9</ele>
        <time>2013-04-01T20:13:19.000Z</time>
      </trkpt>
      <trkpt lat="48.85769" lon="2.32225">
        <ele>81.1</ele>
        <time>2013-04-01T20:13:20.000Z</time>
      </trkpt>
      <trkpt lat="48.85774" lon="2.32229">
        <ele>80.9</ele>
        <time>2013-04-01T20:13:21.000Z</time>
      </trkpt>
      <trkpt lat="48.85779" lon="2.32234">
        <ele>80.8</ele>
        <time>2013-04-01T20:13:22.000Z</time>
      </trkpt>
      <trkpt lat="48.85784" lon="2.32237">
        <ele>80.4</ele>
        <time>2013-04-01T20:13:23.000Z</time>
      </trkpt>
      <trkpt lat="48.85787" lon="2.32244">
        <ele>79.6</ele>
        <time>2013-04-01T20:13:24.000Z</time>
      </trkpt>
      <trkpt lat="48.85791" lon="2.32249">
        <ele>78.9</ele>
        <time>2013-04-01T20:13:25.000Z</time>
      </trkpt>
      <trkpt lat="48.85796" lon="2.32252">
        <ele>79.9</ele>
        <time>2013-04-01T20:13:26.000Z</time>
      </trkpt>
      <trkpt lat="48.858" lon="2.32255">
        <ele>80.9</ele>
        <time>2013-04-01T20:13:27.000Z</time>
      </trkpt>
      <trkpt lat="48.85803" lon="2.32256">
        <ele>80</ele>
        <time>2013-04-01T20:13:28.000Z</time>
      </trkpt>
      <trkpt lat="48.85806" lon="2.32259">
        <ele>79.3</ele>
        <time>2013-04-01T20:13:29.000Z</time>
      </trkpt>
      <trkpt lat="48.85809" lon="2.32262">
        <ele>77.7</ele>
        <time>2013-04-01T20:13:31.000Z</time>
      </trkpt>
      <trkpt lat="48.8581" lon="2.32263">
        <ele>77.7</ele>
        <time>2013-04-01T20:13:32.000Z</time>
      </trkpt>
      <trkpt lat="48.85811" lon="2.32266">
        <ele>76.9</ele>
        <time>2013-04-01T20:13:33.000Z</time>
      </trkpt>
      <trkpt lat="48.85812" lon="2.32269">
        <ele>76.6</ele>
        <time>2013-04-01T20:13:34.000Z</time>
      </trkpt>
      <trkpt lat="48.8581" lon="2.32275">
        <ele>75.9</ele>
        <time>2013-04-01T20:13:38.000Z</time>
      </trkpt>
      <trkpt lat="48.85808" lon="2.32277">
        <ele>76.3</ele>
        <time>2013-04-01T20:13:39.000Z</time>
      </trkpt>
      <trkpt lat="48.85807" lon="2.32281">
        <ele>76.1</ele>
        <time>2013-04-01T20:13:42.000Z</time>
      </trkpt>
      <trkpt lat="48.85805" lon="2.32282">
        <ele>76.2</ele>
        <time>2013-04-01T20:13:43.000Z</time>
      </trkpt>
      <trkpt lat="48.85803" lon="2.32285">
        <ele>76.2</ele>
        <time>2013-04-01T20:13:44.000Z</time>
      </trkpt>
      <trkpt lat="48.85802" lon="2.32288">
        <ele>76.3</ele>
        <time>2013-04-01T20:13:45.000Z</time>
      </trkpt>
      <trkpt lat="48.858" lon="2.3229">
        <ele>76.6</ele>
        <time>2013-04-01T20:13:46.000Z</time>
      </trkpt>
      <trkpt lat="48.85801" lon="2.32298">
        <ele>76.4</ele>
        <time>2013-04-01T20:13:47.000Z</time>
      </trkpt>
      <trkpt lat="48.858" lon="2.32301">
        <ele>76.6</ele>
        <time>2013-04-01T20:13:48.000Z</time>
      </trkpt>
      <trkpt lat="48.85799" lon="2.32305">
        <ele>77.5</ele>
        <time>2013-04-01T20:13:49.000Z</time>
      </trkpt>
      <trkpt lat="48.85798" lon="2.32309">
        <ele>76</ele>
        <time>2013-04-01T20:13:50.000Z</time>
      </trkpt>
      <trkpt lat="48.85797" lon="2.32313">
        <ele>77.9</ele>
        <time>2013-04-01T20:13:51.000Z</time>
      </trkpt>
      <trkpt lat="48.85796" lon="2.32316">
        <ele>79.2</ele>
        <time>2013-04-01T20:13:52.000Z</time>
      </trkpt>
      <trkpt lat="48.85794" lon="2.3232">
        <ele>78.2</ele>
        <time>2013-04-01T20:13:53.000Z</time>
      </trkpt>
      <trkpt lat="48.85793" lon="2.32325">
        <ele>77.4</ele>
        <time>2013-04-01T20:13:54.000Z</time>
      </trkpt>
      <trkpt lat="48.85792" lon="2.32329">
        <ele>78.2</ele>
        <time>2013-04-01T20:13:55.000Z</time>
      </trkpt>
      <trkpt lat="48.85791" lon="2.32334">
        <ele>79.4</ele>
        <time>2013-04-01T20:13:56.000Z</time>
      </trkpt>
      <trkpt lat="48.8579" lon="2.32338">
        <ele>79.7</ele>
        <time>2013-04-01T20:13:57.000Z</time>
      </trkpt>
      <trkpt lat="48.8579" lon="2.32343">
        <ele>79.9</ele>
        <time>2013-04-01T20:13:58.000Z</time>
      </trkpt>
      <trkpt lat="48.8579" lon="2.32345">
        <ele>81.2</ele>
        <time>2013-04-01T20:13:59.000Z</time>
      </trkpt>
      <trkpt lat="48.85789" lon="2.3235">
        <ele>80.4</ele>
        <time>2013-04-01T20:14:01.000Z</time>
      </trkpt>
      <trkpt lat="48.85789" lon="2.32353">
        <ele>79.7</ele>
        <time>2013-04-01T20:14:02.000Z</time>
      </trkpt>
      <trkpt lat="48.85789" lon="2.32359">
        <ele>80.2</ele>
        <time>2013-04-01T20:14:05.000Z</time>
      </trkpt>
      <trkpt lat="48.85789" lon="2.32361">
        <ele>79.6</ele>
        <time>2013-04-01T20:14:06.000Z</time>
      </trkpt>
      <trkpt lat="48.85787" lon="2.32365">
        <ele>81.9</ele>
        <time>2013-04-01T20:14:08.000Z</time>
      </trkpt>
      <trkpt lat="48.85786" lon="2.32367">
        <ele>82.2</ele>
        <time>2013-04-01T20:14:09.000Z</time>
      </trkpt>
      <trkpt lat="48.85783" lon="2.32372">
        <ele>84</ele>
        <time>2013-04-01T20:14:11.000Z</time>
      </trkpt>
      <trkpt lat="48.85781" lon="2.32374">
        <ele>84.1</ele>
        <time>2013-04-01T20:14:12.000Z</time>
      </trkpt>
      <trkpt lat="48.85779" lon="2.32376">
        <ele>84.8</ele>
        <time>2013-04-01T20:14:13.000Z</time>
      </trkpt>
      <trkpt lat="48.85776" lon="2.32378">
        <ele>79.9</ele>
        <time>2013-04-01T20:14:14.000Z</time>
      </trkpt>
      <trkpt lat="48.85773" lon="2.32381">
        <ele>81.2</ele>
        <time>2013-04-01T20:14:15.000Z</time>
      </trkpt>
      <trkpt lat="48.8577" lon="2.32384">
        <ele>80.1</ele>
        <time>2013-04-01T20:14:16.000Z</time>
      </trkpt>
      <trkpt lat="48.85767" lon="2.32386">
        <ele>80.3</ele>
        <time>2013-04-01T20:14:17.000Z</time>
      </trkpt>
      <trkpt lat="48.85764" lon="2.32389">
        <ele>81</ele>
        <time>2013-04-01T20:14:18.000Z</time>
      </trkpt>
      <trkpt lat="48.85761" lon="2.32392">
        <ele>78.4</ele>
        <time>2013-04-01T20:14:19.000Z</time>
      </trkpt>
      <trkpt lat="48.85757" lon="2.32395">
        <ele>77.4</ele>
        <time>2013-04-01T20:14:20.000Z</time>
      </trkpt>
      <trkpt lat="48.85754" lon="2.32399">
        <ele>77</ele>
        <time>2013-04-01T20:14:21.000Z</time>
      </trkpt>
      <trkpt lat="48.85751" lon="2.32402">
        <ele>75.5</ele>
        <time>2013-04-01T20:14:22.000Z</time>
      </trkpt>
      <trkpt lat="48.85747" lon="2.32406">
        <ele>74.9</ele>
        <time>2013-04-01T20:14:23.000Z</time>
      </trkpt>
      <trkpt lat="48.85743" lon="2.3241">
        <ele>74.2</ele>
        <time>2013-04-01T20:14:24.000Z</time>
      </trkpt>
      <trkpt lat="48.8574" lon="2.32413">
        <ele>73.7</ele>
        <time>2013-04-01T20:14:25.000Z</time>
      </trkpt>
      <trkpt lat="48.85737" lon="2.32416">
        <ele>73.3</ele>
        <time>2013-04-01T20:14:26.000Z</time>
      </trkpt>
      <trkpt lat="48.85734" lon="2.32419">
        <ele>72.7</ele>
        <time>2013-04-01T20:14:27.000Z</time>
      </trkpt>
      <trkpt lat="48.8573" lon="2.32423">
        <ele>73.2</ele>
        <time>2013-04-01T20:14:28.000Z</time>
      </trkpt>
      <trkpt lat="48.85726" lon="2.32427">
        <ele>72.6</ele>
        <time>2013-04-01T20:14:29.000Z</time>
      </trkpt>
      <trkpt lat="48.85722" lon="2.3243">
        <ele>72.6</ele>
        <time>2013-04-01T20:14:30.000Z</time>
      </trkpt>
      <trkpt lat="48.85718" lon="2.32435">
        <ele>73.5</ele>
        <time>2013-04-01T20:14:31.000Z</time>
      </trkpt>
      <trkpt lat="48.85713" lon="2.3244">
        <ele>74.3</ele>
        <time>2013-04-01T20:14:32.000Z</time>
      </trkpt>
      <trkpt lat="48.85705" lon="2.32448">
        <ele>74.3</ele>
        <time>2013-04-01T20:14:33.000Z</time>
      </trkpt>
      <trkpt lat="48.85702" lon="2.32453">
        <ele>73.6</ele>
        <time>2013-04-01T20:14:34.000Z</time>
      </trkpt>
      <trkpt lat="48.85698" lon="2.32457">
        <ele>73.8</ele>
        <time>2013-04-01T20:14:35.000Z</time>
      </trkpt>
      <trkpt lat="48.85688" lon="2.32469">
        <ele>73.2</ele>
        <time>2013-04-01T20:14:38.000Z</time>
      </trkpt>
      <trkpt lat="48.85684" lon="2.32475">
        <ele>74.2</ele>
        <time>2013-04-01T20:14:39.000Z</time>
      </trkpt>
      <trkpt lat="48.85679" lon="2.32482">
        <ele>75.8</ele>
        <time>2013-04-01T20:14:40.000Z</time>
      </trkpt>
      <trkpt lat="48.85675" lon="2.32489">
        <ele>75.4</ele>
        <time>2013-04-01T20:14:41.000Z</time>
      </trkpt>
      <trkpt lat="48.85672" lon="2.32494">
        <ele>75.4</ele>
        <time>2013-04-01T20:14:42.000Z</time>
      </trkpt>
      <trkpt lat="48.85667" lon="2.32499">
        <ele>76.5</ele>
        <time>2013-04-01T20:14:43.000Z</time>
      </trkpt>
      <trkpt lat="48.85661" lon="2.32503">
        <ele>76.3</ele>
        <time>2013-04-01T20:14:44.000Z</time>
      </trkpt>
      <trkpt lat="48.85659" lon="2.32507">
        <ele>76.4</ele>
        <time>2013-04-01T20:14:45.000Z</time>
      </trkpt>
      <trkpt lat="48.85656" lon="2.32511">
        <ele>75.8</ele>
        <time>2013-04-01T20:14:46.000Z</time>
      </trkpt>
      <trkpt lat="48.85654" lon="2.32515">
        <ele>74.9</ele>
        <time>2013-04-01T20:14:47.000Z</time>
      </trkpt>
      <trkpt lat="48.85651" lon="2.32518">
        <ele>75.6</ele>
        <time>2013-04-01T20:14:48.000Z</time>
      </trkpt>
      <trkpt lat="48.85648" lon="2.32522">
        <ele>76.7</ele>
        <time>2013-04-01T20:14:49.000Z</time>
      </trkpt>
      <trkpt lat="48.85646" lon="2.32526">
        <ele>77.4</ele>
        <time>2013-04-01T20:14:50.000Z</time>
      </trkpt>
      <trkpt lat="48.85644" lon="2.3253">
        <ele>77.2</ele>
        <time>2013-04-01T20:14:51.000Z</time>
      </trkpt>
      <trkpt lat="48.85641" lon="2.32534">
        <ele>78.8</ele>
        <time>2013-04-01T20:14:52.000Z</time>
      </trkpt>
      <trkpt lat="48.8564" lon="2.32538">
        <ele>80.1</ele>
        <time>2013-04-01T20:14:53.000Z</time>
      </trkpt>
      <trkpt lat="48.85637" lon="2.32543">
        <ele>80.7</ele>
        <time>2013-04-01T20:14:54.000Z</time>
      </trkpt>
      <trkpt lat="48.85635" lon="2.32546">
        <ele>80.5</ele>
        <time>2013-04-01T20:14:55.000Z</time>
      </trkpt>
      <trkpt lat="48.85633" lon="2.3255">
        <ele>83.2</ele>
        <time>2013-04-01T20:14:56.000Z</time>
      </trkpt>
      <trkpt lat="48.8563" lon="2.32553">
        <ele>83.2</ele>
        <time>2013-04-01T20:14:57.000Z</time>
      </trkpt>
      <trkpt lat="48.85628" lon="2.32556">
        <ele>83.8</ele>
        <time>2013-04-01T20:14:58.000Z</time>
      </trkpt>
      <trkpt lat="48.85626" lon="2.32559">
        <ele>84.8</ele>
        <time>2013-04-01T20:14:59.000Z</time>
      </trkpt>
      <trkpt lat="48.85624" lon="2.32561">
        <ele>85.1</ele>
        <time>2013-04-01T20:15:00.000Z</time>
      </trkpt>
      <trkpt lat="48.85622" lon="2.32565">
        <ele>84.6</ele>
        <time>2013-04-01T20:15:02.000Z</time>
      </trkpt>
      <trkpt lat="48.8562" lon="2.32567">
        <ele>84.7</ele>
        <time>2013-04-01T20:15:03.000Z</time>
      </trkpt>
      <trkpt lat="48.85619" lon="2.3257">
        <ele>83.6</ele>
        <time>2013-04-01T20:15:04.000Z</time>
      </trkpt>
      <trkpt lat="48.85617" lon="2.32573">
        <ele>84.1</ele>
        <time>2013-04-01T20:15:05.000Z</time>
      </trkpt>
      <trkpt lat="48.85616" lon="2.32576">
        <ele>84.5</ele>
        <time>2013-04-01T20:15:06.000Z</time>
      </trkpt>
      <trkpt lat="48.85613" lon="2.3258">
        <ele>85.5</ele>
        <time>2013-04-01T20:15:07.000Z</time>
      </trkpt>
      <trkpt lat="48.85611" lon="2.32585">
        <ele>85.5</ele>
        <time>2013-04-01T20:15:08.000Z</time>
      </trkpt>
      <trkpt lat="48.85609" lon="2.32589">
        <ele>85.8</ele>
        <time>2013-04-01T20:15:09.000Z</time>
      </trkpt>
      <trkpt lat="48.85606" lon="2.32593">
        <ele>86.1</ele>
        <time>2013-04-01T20:15:10.000Z</time>
      </trkpt>
      <trkpt lat="48.85603" lon="2.32597">
        <ele>80.8</ele>
        <time>2013-04-01T20:15:11.000Z</time>
      </trkpt>
      <trkpt lat="48.85601" lon="2.32602">
        <ele>82.6</ele>
        <time>2013-04-01T20:15:12.000Z</time>
      </trkpt>
      <trkpt lat="48.85598" lon="2.32607">
        <ele>84.2</ele>
        <time>2013-04-01T20:15:13.000Z</time>
      </trkpt>
      <trkpt lat="48.85596" lon="2.32611">
        <ele>82.5</ele>
        <time>2013-04-01T20:15:14.000Z</time>
      </trkpt>
      <trkpt lat="48.85594" lon="2.32616">
        <ele>82.6</ele>
        <time>2013-04-01T20:15:15.000Z</time>
      </trkpt>
      <trkpt lat="48.85592" lon="2.32621">
        <ele>83.1</ele>
        <time>2013-04-01T20:15:16.000Z</time>
      </trkpt>
      <trkpt lat="48.8559" lon="2.32625">
        <ele>84</ele>
        <time>2013-04-01T20:15:17.000Z</time>
      </trkpt>
      <trkpt lat="48.85588" lon="2.3263">
        <ele>84.8</ele>
        <time>2013-04-01T20:15:18.000Z</time>
      </trkpt>
      <trkpt lat="48.85586" lon="2.32635">
        <ele>84.7</ele>
        <time>2013-04-01T20:15:19.000Z</time>
      </trkpt>
      <trkpt lat="48.85583" lon="2.3264">
        <ele>84.4</ele>
        <time>2013-04-01T20:15:20.000Z</time>
      </trkpt>
      <trkpt lat="48.85581" lon="2.32645">
        <ele>84.1</ele>
        <time>2013-04-01T20:15:21.000Z</time>
      </trkpt>
      <trkpt lat="48.85579" lon="2.3265">
        <ele>83.9</ele>
        <time>2013-04-01T20:15:22.000Z</time>
      </trkpt>
      <trkpt lat="48.85577" lon="2.32655">
        <ele>83.7</ele>
        <time>2013-04-01T20:15:23.000Z</time>
      </trkpt>
      <trkpt lat="48.85575" lon="2.3266">
        <ele>83.1</ele>
        <time>2013-04-01T20:15:24.000Z</time>
      </trkpt>
      <trkpt lat="48.85574" lon="2.32665">
        <ele>82.7</ele>
        <time>2013-04-01T20:15:25.000Z</time>
      </trkpt>
      <trkpt lat="48.85571" lon="2.32671">
        <ele>82</ele>
        <time>2013-04-01T20:15:26.000Z</time>
      </trkpt>
      <trkpt lat="48.85569" lon="2.32676">
        <ele>83.2</ele>
        <time>2013-04-01T20:15:27.000Z</time>
      </trkpt>
      <trkpt lat="48.85568" lon="2.32681">
        <ele>82.8</ele>
        <time>2013-04-01T20:15:28.000Z</time>
      </trkpt>
      <trkpt lat="48.85566" lon="2.32686">
        <ele>82.8</ele>
        <time>2013-04-01T20:15:29.000Z</time>
      </trkpt>
      <trkpt lat="48.85563" lon="2.3269">
        <ele>82.6</ele>
        <time>2013-04-01T20:15:30.000Z</time>
      </trkpt>
      <trkpt lat="48.85561" lon="2.32694">
        <ele>82.8</ele>
        <time>2013-04-01T20:15:31.000Z</time>
      </trkpt>
      <trkpt lat="48.85559" lon="2.32699">
        <ele>82.8</ele>
        <time>2013-04-01T20:15:32.000Z</time>
      </trkpt>
      <trkpt lat="48.85557" lon="2.32704">
        <ele>82.3</ele>
        <time>2013-04-01T20:15:33.000Z</time>
      </trkpt>
      <trkpt lat="48.85556" lon="2.32709">
        <ele>82.3</ele>
        <time>2013-04-01T20:15:34.000Z</time>
      </trkpt>
      <trkpt lat="48.85554" lon="2.32714">
        <ele>81.5</ele>
        <time>2013-04-01T20:15:35.000Z</time>
      </trkpt>
      <trkpt lat="48.85549" lon="2.32726">
        <ele>81.5</ele>
        <time>2013-04-01T20:15:37.241Z</time>
      </trkpt>
      <trkpt lat="48.85547" lon="2.3273">
        <ele>81.3</ele>
        <time>2013-04-01T20:15:38.000Z</time>
      </trkpt>
      <trkpt lat="48.85546" lon="2.32734">
        <ele>79.2</ele>
        <time>2013-04-01T20:15:39.000Z</time>
      </trkpt>
      <trkpt lat="48.85545" lon="2.32739">
        <ele>80.2</ele>
        <time>2013-04-01T20:15:40.000Z</time>
      </trkpt>
      <trkpt lat="48.85543" lon="2.32743">
        <ele>79.6</ele>
        <time>2013-04-01T20:15:41.000Z</time>
      </trkpt>
      <trkpt lat="48.85542" lon="2.32747">
        <ele>78.8</ele>
        <time>2013-04-01T20:15:42.000Z</time>
      </trkpt>
      <trkpt lat="48.8554" lon="2.32752">
        <ele>78.7</ele>
        <time>2013-04-01T20:15:43.000Z</time>
      </trkpt>
      <trkpt lat="48.85539" lon="2.32756">
        <ele>79</ele>
        <time>2013-04-01T20:15:44.000Z</time>
      </trkpt>
      <trkpt lat="48.85537" lon="2.32761">
        <ele>79.8</ele>
        <time>2013-04-01T20:15:45.000Z</time>
      </trkpt>
      <trkpt lat="48.85536" lon="2.32766">
        <ele>79.6</ele>
        <time>2013-04-01T20:15:46.000Z</time>
      </trkpt>
      <trkpt lat="48.85534" lon="2.32771">
        <ele>79.8</ele>
        <time>2013-04-01T20:15:47.000Z</time>
      </trkpt>
      <trkpt lat="48.85532" lon="2.32776">
        <ele>78.7</ele>
        <time>2013-04-01T20:15:48.000Z</time>
      </trkpt>
      <trkpt lat="48.8553" lon="2.32781">
        <ele>78.3</ele>
        <time>2013-04-01T20:15:49.000Z</time>
      </trkpt>
      <trkpt lat="48.85528" lon="2.32786">
        <ele>77.6</ele>
        <time>2013-04-01T20:15:50.000Z</time>
      </trkpt>
      <trkpt lat="48.85526" lon="2.32791">
        <ele>76.1</ele>
        <time>2013-04-01T20:15:51.000Z</time>
      </trkpt>
      <trkpt lat="48.85525" lon="2.32796">
        <ele>75.5</ele>
        <time>2013-04-01T20:15:52.000Z</time>
      </trkpt>
      <trkpt lat="48.85523" lon="2.32801">
        <ele>75.1</ele>
        <time>2013-04-01T20:15:53.000Z</time>
      </trkpt>
      <trkpt lat="48.8552" lon="2.32806">
        <ele>74</ele>
        <time>2013-04-01T20:15:54.000Z</time>
      </trkpt>
      <trkpt lat="48.85517" lon="2.32811">
        <ele>73.1</ele>
        <time>2013-04-01T20:15:55.000Z</time>
      </trkpt>
      <trkpt lat="48.85515" lon="2.32816">
        <ele>74</ele>
        <time>2013-04-01T20:15:56.000Z</time>
      </trkpt>
      <trkpt lat="48.85512" lon="2.32822">
        <ele>78.8</ele>
        <time>2013-04-01T20:15:57.000Z</time>
      </trkpt>
      <trkpt lat="48.8551" lon="2.32828">
        <ele>76.7</ele>
        <time>2013-04-01T20:15:58.000Z</time>
      </trkpt>
      <trkpt lat="48.85508" lon="2.32834">
        <ele>76.2</ele>
        <time>2013-04-01T20:15:59.000Z</time>
      </trkpt>
      <trkpt lat="48.85506" lon="2.3284">
        <ele>75</ele>
        <time>2013-04-01T20:16:00.000Z</time>
      </trkpt>
      <trkpt lat="48.85504" lon="2.32846">
        <ele>74.6</ele>
        <time>2013-04-01T20:16:01.000Z</time>
      </trkpt>
      <trkpt lat="48.85503" lon="2.32852">
        <ele>74.8</ele>
        <time>2013-04-01T20:16:02.000Z</time>
      </trkpt>
      <trkpt lat="48.85502" lon="2.32858">
        <ele>75</ele>
        <time>2013-04-01T20:16:03.000Z</time>
      </trkpt>
      <trkpt lat="48.855" lon="2.32863">
        <ele>74.3</ele>
        <time>2013-04-01T20:16:04.000Z</time>
      </trkpt>
      <trkpt lat="48.85499" lon="2.32869">
        <ele>75.1</ele>
        <time>2013-04-01T20:16:05.000Z</time>
      </trkpt>
      <trkpt lat="48.85497" lon="2.32874">
        <ele>75.3</ele>
        <time>2013-04-01T20:16:06.000Z</time>
      </trkpt>
      <trkpt lat="48.85496" lon="2.32879">
        <ele>74.7</ele>
        <time>2013-04-01T20:16:07.000Z</time>
      </trkpt>
      <trkpt lat="48.85495" lon="2.32883">
        <ele>75.1</ele>
        <time>2013-04-01T20:16:08.000Z</time>
      </trkpt>
      <trkpt lat="48.85494" lon="2.32887">
        <ele>74.5</ele>
        <time>2013-04-01T20:16:09.000Z</time>
      </trkpt>
      <trkpt lat="48.85494" lon="2.3289">
        <ele>73.9</ele>
        <time>2013-04-01T20:16:10.000Z</time>
      </trkpt>
      <trkpt lat="48.85494" lon="2.32894">
        <ele>73.9</ele>
        <time>2013-04-01T20:16:11.000Z</time>
      </trkpt>
      <trkpt lat="48.85494" lon="2.32898">
        <ele>74</ele>
        <time>2013-04-01T20:16:12.000Z</time>
      </trkpt>
      <trkpt lat="48.85493" lon="2.32903">
        <ele>74</ele>
        <time>2013-04-01T20:16:13.000Z</time>
      </trkpt>
      <trkpt lat="48.85493" lon="2.32907">
        <ele>74.8</ele>
        <time>2013-04-01T20:16:14.000Z</time>
      </trkpt>
      <trkpt lat="48.85492" lon="2.32911">
        <ele>75.6</ele>
        <time>2013-04-01T20:16:15.000Z</time>
      </trkpt>
      <trkpt lat="48.85492" lon="2.32915">
        <ele>76.4</ele>
        <time>2013-04-01T20:16:16.000Z</time>
      </trkpt>
      <trkpt lat="48.85491" lon="2.32919">
        <ele>77.5</ele>
        <time>2013-04-01T20:16:17.000Z</time>
      </trkpt>
      <trkpt lat="48.85491" lon="2.32922">
        <ele>77.8</ele>
        <time>2013-04-01T20:16:18.000Z</time>
      </trkpt>
      <trkpt lat="48.8549" lon="2.32926">
        <ele>77.6</ele>
        <time>2013-04-01T20:16:19.000Z</time>
      </trkpt>
      <trkpt lat="48.85491" lon="2.3293">
        <ele>77.1</ele>
        <time>2013-04-01T20:16:20.000Z</time>
      </trkpt>
      <trkpt lat="48.85492" lon="2.32933">
        <ele>77.3</ele>
        <time>2013-04-01T20:16:21.000Z</time>
      </trkpt>
      <trkpt lat="48.85494" lon="2.32936">
        <ele>77</ele>
        <time>2013-04-01T20:16:22.000Z</time>
      </trkpt>
      <trkpt lat="48.85496" lon="2.32939">
        <ele>76.4</ele>
        <time>2013-04-01T20:16:23.000Z</time>
      </trkpt>
      <trkpt lat="48.85499" lon="2.32941">
        <ele>77.4</ele>
        <time>2013-04-01T20:16:24.000Z</time>
      </trkpt>
      <trkpt lat="48.85502" lon="2.32943">
        <ele>77.7</ele>
        <time>2013-04-01T20:16:25.000Z</time>
      </trkpt>
      <trkpt lat="48.85504" lon="2.32944">
        <ele>78.4</ele>
        <time>2013-04-01T20:16:26.000Z</time>
      </trkpt>
      <trkpt lat="48.85507" lon="2.32946">
        <ele>78.9</ele>
        <time>2013-04-01T20:16:27.000Z</time>
      </trkpt>
      <trkpt lat="48.8551" lon="2.32948">
        <ele>78.9</ele>
        <time>2013-04-01T20:16:28.000Z</time>
      </trkpt>
      <trkpt lat="48.85513" lon="2.3295">
        <ele>80</ele>
        <time>2013-04-01T20:16:29.000Z</time>
      </trkpt>
      <trkpt lat="48.85515" lon="2.32952">
        <ele>80.6</ele>
        <time>2013-04-01T20:16:30.000Z</time>
      </trkpt>
      <trkpt lat="48.85518" lon="2.32955">
        <ele>80.7</ele>
        <time>2013-04-01T20:16:31.000Z</time>
      </trkpt>
      <trkpt lat="48.85521" lon="2.32957">
        <ele>80.1</ele>
        <time>2013-04-01T20:16:32.000Z</time>
      </trkpt>
      <trkpt lat="48.85523" lon="2.32958">
        <ele>79.9</ele>
        <time>2013-04-01T20:16:33.000Z</time>
      </trkpt>
      <trkpt lat="48.85526" lon="2.3296">
        <ele>80.8</ele>
        <time>2013-04-01T20:16:34.000Z</time>
      </trkpt>
      <trkpt lat="48.85529" lon="2.32962">
        <ele>81.8</ele>
        <time>2013-04-01T20:16:35.000Z</time>
      </trkpt>
      <trkpt lat="48.85534" lon="2.32966">
        <ele>82</ele>
        <time>2013-04-01T20:16:36.951Z</time>
      </trkpt>
      <trkpt lat="48.85537" lon="2.32969">
        <ele>82.5</ele>
        <time>2013-04-01T20:16:38.000Z</time>
      </trkpt>
      <trkpt lat="48.85539" lon="2.32973">
        <ele>82.7</ele>
        <time>2013-04-01T20:16:39.000Z</time>
      </trkpt>
      <trkpt lat="48.85542" lon="2.32976">
        <ele>83</ele>
        <time>2013-04-01T20:16:40.000Z</time>
      </trkpt>
      <trkpt lat="48.85545" lon="2.32978">
        <ele>82.9</ele>
        <time>2013-04-01T20:16:41.000Z</time>
      </trkpt>
      <trkpt lat="48.8555" lon="2.32979">
        <ele>82.6</ele>
        <time>2013-04-01T20:16:42.000Z</time>
      </trkpt>
      <trkpt lat="48.85555" lon="2.3298">
        <ele>82.6</ele>
        <time>2013-04-01T20:16:43.000Z</time>
      </trkpt>
      <trkpt lat="48.85559" lon="2.32981">
        <ele>82.8</ele>
        <time>2013-04-01T20:16:44.000Z</time>
      </trkpt>
      <trkpt lat="48.85564" lon="2.32983">
        <ele>82.9</ele>
        <time>2013-04-01T20:16:45.000Z</time>
      </trkpt>
      <trkpt lat="48.85568" lon="2.32985">
        <ele>83.5</ele>
        <time>2013-04-01T20:16:46.000Z</time>
      </trkpt>
      <trkpt lat="48.85572" lon="2.32986">
        <ele>85.4</ele>
        <time>2013-04-01T20:16:47.000Z</time>
      </trkpt>
      <trkpt lat="48.85577" lon="2.32987">
        <ele>85.5</ele>
        <time>2013-04-01T20:16:48.000Z</time>
      </trkpt>
      <trkpt lat="48.85581" lon="2.32988">
        <ele>86</ele>
        <time>2013-04-01T20:16:49.000Z</time>
      </trkpt>
      <trkpt lat="48.85585" lon="2.3299">
        <ele>85.7</ele>
        <time>2013-04-01T20:16:50.000Z</time>
      </trkpt>
      <trkpt lat="48.85588" lon="2.32992">
        <ele>86.2</ele>
        <time>2013-04-01T20:16:51.000Z</time>
      </trkpt>
      <trkpt lat="48.85592" lon="2.32994">
        <ele>87.6</ele>
        <time>2013-04-01T20:16:52.000Z</time>
      </trkpt>
      <trkpt lat="48.85596" lon="2.32996">
        <ele>89.6</ele>
        <time>2013-04-01T20:16:53.000Z</time>
      </trkpt>
      <trkpt lat="48.85599" lon="2.32998">
        <ele>90.1</ele>
        <time>2013-04-01T20:16:54.000Z</time>
      </trkpt>
      <trkpt lat="48.85603" lon="2.33">
        <ele>91.7</ele>
        <time>2013-04-01T20:16:55.000Z</time>
      </trkpt>
      <trkpt lat="48.85606" lon="2.33001">
        <ele>92.7</ele>
        <time>2013-04-01T20:16:56.000Z</time>
      </trkpt>
      <trkpt lat="48.8561" lon="2.33003">
        <ele>92.5</ele>
        <time>2013-04-01T20:16:57.000Z</time>
      </trkpt>
      <trkpt lat="48.85613" lon="2.33005">
        <ele>94.3</ele>
        <time>2013-04-01T20:16:58.000Z</time>
      </trkpt>
      <trkpt lat="48.85617" lon="2.33007">
        <ele>93.4</ele>
        <time>2013-04-01T20:16:59.000Z</time>
      </trkpt>
      <trkpt lat="48.85621" lon="2.33009">
        <ele>93.1</ele>
        <time>2013-04-01T20:17:00.000Z</time>
      </trkpt>
      <trkpt lat="48.85625" lon="2.33011">
        <ele>92.8</ele>
        <time>2013-04-01T20:17:01.000Z</time>
      </trkpt>
      <trkpt lat="48.85629" lon="2.33013">
        <ele>84.1</ele>
        <time>2013-04-01T20:17:02.000Z</time>
      </trkpt>
      <trkpt lat="48.85633" lon="2.33014">
        <ele>86.5</ele>
        <time>2013-04-01T20:17:03.000Z</time>
      </trkpt>
      <trkpt lat="48.85638" lon="2.33016">
        <ele>88.2</ele>
        <time>2013-04-01T20:17:04.000Z</time>
      </trkpt>
      <trkpt lat="48.85642" lon="2.33018">
        <ele>89.9</ele>
        <time>2013-04-01T20:17:05.000Z</time>
      </trkpt>
      <trkpt lat="48.85646" lon="2.3302">
        <ele>91.6</ele>
        <time>2013-04-01T20:17:06.000Z</time>
      </trkpt>
      <trkpt lat="48.8565" lon="2.33022">
        <ele>92.1</ele>
        <time>2013-04-01T20:17:07.000Z</time>
      </trkpt>
      <trkpt lat="48.85654" lon="2.33025">
        <ele>92.2</ele>
        <time>2013-04-01T20:17:08.000Z</time>
      </trkpt>
      <trkpt lat="48.85657" lon="2.33026">
        <ele>92.9</ele>
        <time>2013-04-01T20:17:09.000Z</time>
      </trkpt>
      <trkpt lat="48.8566" lon="2.33028">
        <ele>92.6</ele>
        <time>2013-04-01T20:17:10.000Z</time>
      </trkpt>
      <trkpt lat="48.85663" lon="2.3303">
        <ele>91.5</ele>
        <time>2013-04-01T20:17:11.000Z</time>
      </trkpt>
      <trkpt lat="48.85667" lon="2.33031">
        <ele>91.3</ele>
        <time>2013-04-01T20:17:12.000Z</time>
      </trkpt>
      <trkpt lat="48.8567" lon="2.33032">
        <ele>90.5</ele>
        <time>2013-04-01T20:17:13.000Z</time>
      </trkpt>
      <trkpt lat="48.85674" lon="2.33031">
        <ele>90.6</ele>
        <time>2013-04-01T20:17:14.000Z</time>
      </trkpt>
      <trkpt lat="48.85677" lon="2.33029">
        <ele>89.7</ele>
        <time>2013-04-01T20:17:15.000Z</time>
      </trkpt>
      <trkpt lat="48.85681" lon="2.33025">
        <ele>89.6</ele>
        <time>2013-04-01T20:17:16.000Z</time>
      </trkpt>
      <trkpt lat="48.85684" lon="2.33021">
        <ele>89.3</ele>
        <time>2013-04-01T20:17:17.000Z</time>
      </trkpt>
      <trkpt lat="48.85687" lon="2.33016">
        <ele>89.2</ele>
        <time>2013-04-01T20:17:18.000Z</time>
      </trkpt>
      <trkpt lat="48.85689" lon="2.33011">
        <ele>88.3</ele>
        <time>2013-04-01T20:17:19.000Z</time>
      </trkpt>
      <trkpt lat="48.85691" lon="2.33006">
        <ele>86.6</ele>
        <time>2013-04-01T20:17:20.000Z</time>
      </trkpt>
      <trkpt lat="48.85693" lon="2.33001">
        <ele>86.7</ele>
        <time>2013-04-01T20:17:21.000Z</time>
      </trkpt>
      <trkpt lat="48.85695" lon="2.32996">
        <ele>85.2</ele>
        <time>2013-04-01T20:17:22.000Z</time>
      </trkpt>
      <trkpt lat="48.85697" lon="2.32991">
        <ele>85</ele>
        <time>2013-04-01T20:17:23.000Z</time>
      </trkpt>
      <trkpt lat="48.85698" lon="2.32987">
        <ele>84</ele>
        <time>2013-04-01T20:17:24.000Z</time>
      </trkpt>
      <trkpt lat="48.857" lon="2.32982">
        <ele>83.4</ele>
        <time>2013-04-01T20:17:25.000Z</time>
      </trkpt>
      <trkpt lat="48.85702" lon="2.32977">
        <ele>83.3</ele>
        <time>2013-04-01T20:17:26.000Z</time>
      </trkpt>
      <trkpt lat="48.85704" lon="2.32972">
        <ele>83.6</ele>
        <time>2013-04-01T20:17:27.000Z</time>
      </trkpt>
      <trkpt lat="48.85707" lon="2.32967">
        <ele>82.8</ele>
        <time>2013-04-01T20:17:28.000Z</time>
      </trkpt>
      <trkpt lat="48.85709" lon="2.32962">
        <ele>82.7</ele>
        <time>2013-04-01T20:17:29.000Z</time>
      </trkpt>
      <trkpt lat="48.85712" lon="2.32956">
        <ele>82.7</ele>
        <time>2013-04-01T20:17:30.000Z</time>
      </trkpt>
      <trkpt lat="48.85715" lon="2.32949">
        <ele>82.9</ele>
        <time>2013-04-01T20:17:31.000Z</time>
      </trkpt>
      <trkpt lat="48.85719" lon="2.32938">
        <ele>82.8</ele>
        <time>2013-04-01T20:17:32.000Z</time>
      </trkpt>
      <trkpt lat="48.85722" lon="2.32931">
        <ele>82.3</ele>
        <time>2013-04-01T20:17:33.000Z</time>
      </trkpt>
      <trkpt lat="48.85724" lon="2.32924">
        <ele>82.5</ele>
        <time>2013-04-01T20:17:34.000Z</time>
      </trkpt>
      <trkpt lat="48.85726" lon="2.32918">
        <ele>82.3</ele>
        <time>2013-04-01T20:17:35.000Z</time>
      </trkpt>
      <trkpt lat="48.85732" lon="2.32901">
        <ele>81.4</ele>
        <time>2013-04-01T20:17:38.000Z</time>
      </trkpt>
      <trkpt lat="48.85734" lon="2.32896">
        <ele>81.5</ele>
        <time>2013-04-01T20:17:39.000Z</time>
      </trkpt>
      <trkpt lat="48.85731" lon="2.32887">
        <ele>80.9</ele>
        <time>2013-04-01T20:17:40.000Z</time>
      </trkpt>
      <trkpt lat="48.85738" lon="2.32885">
        <ele>78.4</ele>
        <time>2013-04-01T20:17:41.000Z</time>
      </trkpt>
      <trkpt lat="48.85744" lon="2.32895">
        <ele>77.9</ele>
        <time>2013-04-01T20:17:42.000Z</time>
      </trkpt>
      <trkpt lat="48.85746" lon="2.32896">
        <ele>79.6</ele>
        <time>2013-04-01T20:17:43.000Z</time>
      </trkpt>
      <trkpt lat="48.85751" lon="2.329">
        <ele>78.3</ele>
        <time>2013-04-01T20:17:44.000Z</time>
      </trkpt>
      <trkpt lat="48.85753" lon="2.32902">
        <ele>78</ele>
        <time>2013-04-01T20:17:45.000Z</time>
      </trkpt>
      <trkpt lat="48.85757" lon="2.32905">
        <ele>77.7</ele>
        <time>2013-04-01T20:17:46.000Z</time>
      </trkpt>
      <trkpt lat="48.85761" lon="2.32909">
        <ele>76.8</ele>
        <time>2013-04-01T20:17:47.000Z</time>
      </trkpt>
      <trkpt lat="48.85765" lon="2.32911">
        <ele>76.3</ele>
        <time>2013-04-01T20:17:48.000Z</time>
      </trkpt>
      <trkpt lat="48.85768" lon="2.32914">
        <ele>76.1</ele>
        <time>2013-04-01T20:17:49.000Z</time>
      </trkpt>
      <trkpt lat="48.85772" lon="2.32916">
        <ele>77.7</ele>
        <time>2013-04-01T20:17:50.000Z</time>
      </trkpt>
      <trkpt lat="48.85775" lon="2.32919">
        <ele>78.1</ele>
        <time>2013-04-01T20:17:51.000Z</time>
      </trkpt>
      <trkpt lat="48.85779" lon="2.32922">
        <ele>77.6</ele>
        <time>2013-04-01T20:17:52.000Z</time>
      </trkpt>
      <trkpt lat="48.85783" lon="2.32925">
        <ele>77.9</ele>
        <time>2013-04-01T20:17:53.000Z</time>
      </trkpt>
      <trkpt lat="48.85786" lon="2.32928">
        <ele>77.5</ele>
        <time>2013-04-01T20:17:54.000Z</time>
      </trkpt>
      <trkpt lat="48.8579" lon="2.32931">
        <ele>78.1</ele>
        <time>2013-04-01T20:17:55.000Z</time>
      </trkpt>
      <trkpt lat="48.85794" lon="2.32934">
        <ele>78.7</ele>
        <time>2013-04-01T20:17:56.000Z</time>
      </trkpt>
      <trkpt lat="48.85797" lon="2.32937">
        <ele>78.4</ele>
        <time>2013-04-01T20:17:57.000Z</time>
      </trkpt>
      <trkpt lat="48.85798" lon="2.3294">
        <ele>77.4</ele>
        <time>2013-04-01T20:17:58.000Z</time>
      </trkpt>
      <trkpt lat="48.85798" lon="2.32944">
        <ele>76.7</ele>
        <time>2013-04-01T20:17:59.000Z</time>
      </trkpt>
      <trkpt lat="48.85798" lon="2.32949">
        <ele>75.8</ele>
        <time>2013-04-01T20:18:00.000Z</time>
      </trkpt>
      <trkpt lat="48.85798" lon="2.32954">
        <ele>75</ele>
        <time>2013-04-01T20:18:01.000Z</time>
      </trkpt>
      <trkpt lat="48.85797" lon="2.32958">
        <ele>74.2</ele>
        <time>2013-04-01T20:18:02.000Z</time>
      </trkpt>
      <trkpt lat="48.85795" lon="2.32964">
        <ele>74.4</ele>
        <time>2013-04-01T20:18:03.000Z</time>
      </trkpt>
      <trkpt lat="48.85792" lon="2.3297">
        <ele>74.3</ele>
        <time>2013-04-01T20:18:04.000Z</time>
      </trkpt>
      <trkpt lat="48.8579" lon="2.32976">
        <ele>74</ele>
        <time>2013-04-01T20:18:05.000Z</time>
      </trkpt>
      <trkpt lat="48.85787" lon="2.32982">
        <ele>72.6</ele>
        <time>2013-04-01T20:18:06.000Z</time>
      </trkpt>
      <trkpt lat="48.85784" lon="2.32988">
        <ele>72.4</ele>
        <time>2013-04-01T20:18:07.000Z</time>
      </trkpt>
      <trkpt lat="48.85781" lon="2.32994">
        <ele>72.7</ele>
        <time>2013-04-01T20:18:08.000Z</time>
      </trkpt>
      <trkpt lat="48.85778" lon="2.33">
        <ele>72.3</ele>
        <time>2013-04-01T20:18:09.000Z</time>
      </trkpt>
      <trkpt lat="48.85775" lon="2.33006">
        <ele>72.3</ele>
        <time>2013-04-01T20:18:10.000Z</time>
      </trkpt>
      <trkpt lat="48.85773" lon="2.33012">
        <ele>73.6</ele>
        <time>2013-04-01T20:18:11.000Z</time>
      </trkpt>
      <trkpt lat="48.8577" lon="2.33019">
        <ele>74.6</ele>
        <time>2013-04-01T20:18:12.000Z</time>
      </trkpt>
      <trkpt lat="48.85768" lon="2.33026">
        <ele>73.9</ele>
        <time>2013-04-01T20:18:13.000Z</time>
      </trkpt>
      <trkpt lat="48.85766" lon="2.33032">
        <ele>72.3</ele>
        <time>2013-04-01T20:18:14.000Z</time>
      </trkpt>
      <trkpt lat="48.85762" lon="2.33044">
        <ele>74.1</ele>
        <time>2013-04-01T20:18:15.000Z</time>
      </trkpt>
      <trkpt lat="48.8576" lon="2.33053">
        <ele>73.2</ele>
        <time>2013-04-01T20:18:16.000Z</time>
      </trkpt>
      <trkpt lat="48.85757" lon="2.3306">
        <ele>73.9</ele>
        <time>2013-04-01T20:18:17.000Z</time>
      </trkpt>
      <trkpt lat="48.85755" lon="2.33068">
        <ele>74.3</ele>
        <time>2013-04-01T20:18:18.000Z</time>
      </trkpt>
      <trkpt lat="48.85753" lon="2.33076">
        <ele>74.7</ele>
        <time>2013-04-01T20:18:19.000Z</time>
      </trkpt>
      <trkpt lat="48.85752" lon="2.33081">
        <ele>73.5</ele>
        <time>2013-04-01T20:18:20.000Z</time>
      </trkpt>
      <trkpt lat="48.85751" lon="2.33087">
        <ele>73.1</ele>
        <time>2013-04-01T20:18:21.000Z</time>
      </trkpt>
      <trkpt lat="48.85749" lon="2.33093">
        <ele>72.9</ele>
        <time>2013-04-01T20:18:22.000Z</time>
      </trkpt>
      <trkpt lat="48.85748" lon="2.331">
        <ele>73</ele>
        <time>2013-04-01T20:18:23.000Z</time>
      </trkpt>
      <trkpt lat="48.85747" lon="2.33106">
        <ele>73.5</ele>
        <time>2013-04-01T20:18:24.000Z</time>
      </trkpt>
      <trkpt lat="48.85745" lon="2.33112">
        <ele>72.9</ele>
        <time>2013-04-01T20:18:25.000Z</time>
      </trkpt>
      <trkpt lat="48.85743" lon="2.33119">
        <ele>72.7</ele>
        <time>2013-04-01T20:18:26.000Z</time>
      </trkpt>
      <trkpt lat="48.85738" lon="2.33126">
        <ele>73.5</ele>
        <time>2013-04-01T20:18:27.000Z</time>
      </trkpt>
      <trkpt lat="48.85735" lon="2.33133">
        <ele>73.5</ele>
        <time>2013-04-01T20:18:28.000Z</time>
      </trkpt>
      <trkpt lat="48.85733" lon="2.33144">
        <ele>71.5</ele>
        <time>2013-04-01T20:18:29.000Z</time>
      </trkpt>
      <trkpt lat="48.85731" lon="2.33151">
        <ele>71.5</ele>
        <time>2013-04-01T20:18:30.000Z</time>
      </trkpt>
      <trkpt lat="48.85728" lon="2.33158">
        <ele>71.8</ele>
        <time>2013-04-01T20:18:31.000Z</time>
      </trkpt>
      <trkpt lat="48.85728" lon="2.33162">
        <ele>73.1</ele>
        <time>2013-04-01T20:18:32.000Z</time>
      </trkpt>
      <trkpt lat="48.85727" lon="2.33168">
        <ele>74</ele>
        <time>2013-04-01T20:18:33.000Z</time>
      </trkpt>
      <trkpt lat="48.85724" lon="2.33175">
        <ele>74</ele>
        <time>2013-04-01T20:18:34.000Z</time>
      </trkpt>
      <trkpt lat="48.85722" lon="2.3318">
        <ele>73.6</ele>
        <time>2013-04-01T20:18:35.000Z</time>
      </trkpt>
      <trkpt lat="48.85719" lon="2.33191">
        <ele>73.5</ele>
        <time>2013-04-01T20:18:37.167Z</time>
      </trkpt>
      <trkpt lat="48.85717" lon="2.33195">
        <ele>73.2</ele>
        <time>2013-04-01T20:18:38.000Z</time>
      </trkpt>
      <trkpt lat="48.85715" lon="2.332">
        <ele>73.3</ele>
        <time>2013-04-01T20:18:39.000Z</time>
      </trkpt>
      <trkpt lat="48.85711" lon="2.33205">
        <ele>73.6</ele>
        <time>2013-04-01T20:18:40.000Z</time>
      </trkpt>
      <trkpt lat="48.85711" lon="2.3321">
        <ele>73.6</ele>
        <time>2013-04-01T20:18:43.000Z</time>
      </trkpt>
      <trkpt lat="48.8571" lon="2.33213">
        <ele>73.6</ele>
        <time>2013-04-01T20:18:44.000Z</time>
      </trkpt>
      <trkpt lat="48.85706" lon="2.33213">
        <ele>75.9</ele>
        <time>2013-04-01T20:19:07.000Z</time>
      </trkpt>
      <trkpt lat="48.85704" lon="2.33211">
        <ele>76.4</ele>
        <time>2013-04-01T20:19:08.000Z</time>
      </trkpt>
      <trkpt lat="48.857" lon="2.33209">
        <ele>77.1</ele>
        <time>2013-04-01T20:19:09.000Z</time>
      </trkpt>
      <trkpt lat="48.85697" lon="2.33206">
        <ele>76.9</ele>
        <time>2013-04-01T20:19:10.000Z</time>
      </trkpt>
      <trkpt lat="48.85693" lon="2.33204">
        <ele>75.9</ele>
        <time>2013-04-01T20:19:11.000Z</time>
      </trkpt>
      <trkpt lat="48.8569" lon="2.33202">
        <ele>74.8</ele>
        <time>2013-04-01T20:19:12.000Z</time>
      </trkpt>
      <trkpt lat="48.85686" lon="2.33199">
        <ele>73.9</ele>
        <time>2013-04-01T20:19:13.000Z</time>
      </trkpt>
      <trkpt lat="48.85681" lon="2.33196">
        <ele>74.4</ele>
        <time>2013-04-01T20:19:14.000Z</time>
      </trkpt>
      <trkpt lat="48.85677" lon="2.33193">
        <ele>74.2</ele>
        <time>2013-04-01T20:19:15.000Z</time>
      </trkpt>
      <trkpt lat="48.85673" lon="2.33189">
        <ele>73.7</ele>
        <time>2013-04-01T20:19:16.000Z</time>
      </trkpt>
      <trkpt lat="48.85668" lon="2.33185">
        <ele>73.3</ele>
        <time>2013-04-01T20:19:17.000Z</time>
      </trkpt>
      <trkpt lat="48.85662" lon="2.33183">
        <ele>74.7</ele>
        <time>2013-04-01T20:19:18.000Z</time>
      </trkpt>
      <trkpt lat="48.85656" lon="2.33183">
        <ele>74.7</ele>
        <time>2013-04-01T20:19:19.000Z</time>
      </trkpt>
      <trkpt lat="48.85651" lon="2.33178">
        <ele>73.9</ele>
        <time>2013-04-01T20:19:20.000Z</time>
      </trkpt>
      <trkpt lat="48.85646" lon="2.33173">
        <ele>73.1</ele>
        <time>2013-04-01T20:19:21.000Z</time>
      </trkpt>
      <trkpt lat="48.85642" lon="2.33169">
        <ele>73</ele>
        <time>2013-04-01T20:19:22.000Z</time>
      </trkpt>
      <trkpt lat="48.85636" lon="2.33165">
        <ele>74.2</ele>
        <time>2013-04-01T20:19:23.000Z</time>
      </trkpt>
      <trkpt lat="48.8563" lon="2.33162">
        <ele>74.7</ele>
        <time>2013-04-01T20:19:24.000Z</time>
      </trkpt>
      <trkpt lat="48.85626" lon="2.33158">
        <ele>75.1</ele>
        <time>2013-04-01T20:19:25.000Z</time>
      </trkpt>
      <trkpt lat="48.8562" lon="2.33152">
        <ele>77.6</ele>
        <time>2013-04-01T20:19:26.000Z</time>
      </trkpt>
      <trkpt lat="48.85614" lon="2.33151">
        <ele>75.4</ele>
        <time>2013-04-01T20:19:27.000Z</time>
      </trkpt>
      <trkpt lat="48.85608" lon="2.33148">
        <ele>75.1</ele>
        <time>2013-04-01T20:19:28.000Z</time>
      </trkpt>
      <trkpt lat="48.85602" lon="2.33146">
        <ele>75.3</ele>
        <time>2013-04-01T20:19:29.000Z</time>
      </trkpt>
      <trkpt lat="48.85597" lon="2.33143">
        <ele>76.4</ele>
        <time>2013-04-01T20:19:30.000Z</time>
      </trkpt>
      <trkpt lat="48.85592" lon="2.33141">
        <ele>76.9</ele>
        <time>2013-04-01T20:19:31.000Z</time>
      </trkpt>
      <trkpt lat="48.85588" lon="2.33136">
        <ele>77</ele>
        <time>2013-04-01T20:19:32.000Z</time>
      </trkpt>
      <trkpt lat="48.85581" lon="2.33135">
        <ele>77.3</ele>
        <time>2013-04-01T20:19:33.000Z</time>
      </trkpt>
      <trkpt lat="48.85574" lon="2.33132">
        <ele>77.5</ele>
        <time>2013-04-01T20:19:34.000Z</time>
      </trkpt>
      <trkpt lat="48.85568" lon="2.33128">
        <ele>77.4</ele>
        <time>2013-04-01T20:19:35.000Z</time>
      </trkpt>
      <trkpt lat="48.85554" lon="2.33118">
        <ele>77.6</ele>
        <time>2013-04-01T20:19:38.000Z</time>
      </trkpt>
      <trkpt lat="48.85548" lon="2.33115">
        <ele>78</ele>
        <time>2013-04-01T20:19:39.000Z</time>
      </trkpt>
      <trkpt lat="48.85542" lon="2.33112">
        <ele>78</ele>
        <time>2013-04-01T20:19:40.000Z</time>
      </trkpt>
      <trkpt lat="48.85535" lon="2.3311">
        <ele>78.1</ele>
        <time>2013-04-01T20:19:41.000Z</time>
      </trkpt>
      <trkpt lat="48.85531" lon="2.33107">
        <ele>78.2</ele>
        <time>2013-04-01T20:19:42.000Z</time>
      </trkpt>
      <trkpt lat="48.85525" lon="2.33105">
        <ele>78.5</ele>
        <time>2013-04-01T20:19:43.000Z</time>
      </trkpt>
      <trkpt lat="48.85521" lon="2.33103">
        <ele>78.9</ele>
        <time>2013-04-01T20:19:44.000Z</time>
      </trkpt>
      <trkpt lat="48.85519" lon="2.33103">
        <ele>78.7</ele>
        <time>2013-04-01T20:19:45.000Z</time>
      </trkpt>
      <trkpt lat="48.85514" lon="2.331">
        <ele>78.8</ele>
        <time>2013-04-01T20:19:46.000Z</time>
      </trkpt>
      <trkpt lat="48.85509" lon="2.33097">
        <ele>79.2</ele>
        <time>2013-04-01T20:19:47.000Z</time>
      </trkpt>
      <trkpt lat="48.85505" lon="2.33092">
        <ele>80.1</ele>
        <time>2013-04-01T20:19:48.000Z</time>
      </trkpt>
      <trkpt lat="48.85502" lon="2.33088">
        <ele>81.7</ele>
        <time>2013-04-01T20:19:49.000Z</time>
      </trkpt>
      <trkpt lat="48.85498" lon="2.33085">
        <ele>81.9</ele>
        <time>2013-04-01T20:19:50.000Z</time>
      </trkpt>
      <trkpt lat="48.85495" lon="2.33083">
        <ele>80.9</ele>
        <time>2013-04-01T20:19:51.000Z</time>
      </trkpt>
      <trkpt lat="48.85491" lon="2.33079">
        <ele>80.6</ele>
        <time>2013-04-01T20:19:52.000Z</time>
      </trkpt>
      <trkpt lat="48.85487" lon="2.33076">
        <ele>80.6</ele>
        <time>2013-04-01T20:19:53.000Z</time>
      </trkpt>
      <trkpt lat="48.85483" lon="2.33072">
        <ele>80.8</ele>
        <time>2013-04-01T20:19:54.000Z</time>
      </trkpt>
      <trkpt lat="48.85479" lon="2.33072">
        <ele>79.8</ele>
        <time>2013-04-01T20:19:55.000Z</time>
      </trkpt>
      <trkpt lat="48.85476" lon="2.33069">
        <ele>80.3</ele>
        <time>2013-04-01T20:19:56.000Z</time>
      </trkpt>
      <trkpt lat="48.85473" lon="2.33068">
        <ele>80.2</ele>
        <time>2013-04-01T20:19:57.000Z</time>
      </trkpt>
      <trkpt lat="48.85469" lon="2.33066">
        <ele>79.9</ele>
        <time>2013-04-01T20:19:58.000Z</time>
      </trkpt>
      <trkpt lat="48.85468" lon="2.33062">
        <ele>80.6</ele>
        <time>2013-04-01T20:19:59.000Z</time>
      </trkpt>
      <trkpt lat="48.85466" lon="2.33062">
        <ele>81</ele>
        <time>2013-04-01T20:20:00.000Z</time>
      </trkpt>
      <trkpt lat="48.85463" lon="2.3306">
        <ele>81.3</ele>
        <time>2013-04-01T20:20:01.000Z</time>
      </trkpt>
      <trkpt lat="48.85461" lon="2.33059">
        <ele>80.6</ele>
        <time>2013-04-01T20:20:02.000Z</time>
      </trkpt>
      <trkpt lat="48.85457" lon="2.33056">
        <ele>79.2</ele>
        <time>2013-04-01T20:20:05.000Z</time>
      </trkpt>
      <trkpt lat="48.85456" lon="2.33056">
        <ele>78.1</ele>
        <time>2013-04-01T20:20:06.000Z</time>
      </trkpt>
      <trkpt lat="48.85452" lon="2.33053">
        <ele>77.2</ele>
        <time>2013-04-01T20:20:16.000Z</time>
      </trkpt>
      <trkpt lat="48.85451" lon="2.33052">
        <ele>77.8</ele>
        <time>2013-04-01T20:20:17.000Z</time>
      </trkpt>
      <trkpt lat="48.85447" lon="2.3305">
        <ele>78.4</ele>
        <time>2013-04-01T20:20:19.000Z</time>
      </trkpt>
      <trkpt lat="48.85445" lon="2.3305">
        <ele>78</ele>
        <time>2013-04-01T20:20:20.000Z</time>
      </trkpt>
      <trkpt lat="48.85442" lon="2.33047">
        <ele>77.1</ele>
        <time>2013-04-01T20:20:22.000Z</time>
      </trkpt>
      <trkpt lat="48.8544" lon="2.33047">
        <ele>77.4</ele>
        <time>2013-04-01T20:20:23.000Z</time>
      </trkpt>
      <trkpt lat="48.85437" lon="2.33051">
        <ele>77.5</ele>
        <time>2013-04-01T20:20:25.000Z</time>
      </trkpt>
      <trkpt lat="48.85435" lon="2.33055">
        <ele>78.7</ele>
        <time>2013-04-01T20:20:26.000Z</time>
      </trkpt>
      <trkpt lat="48.85434" lon="2.3306">
        <ele>77.2</ele>
        <time>2013-04-01T20:20:27.000Z</time>
      </trkpt>
      <trkpt lat="48.85433" lon="2.33065">
        <ele>76.6</ele>
        <time>2013-04-01T20:20:28.000Z</time>
      </trkpt>
      <trkpt lat="48.85431" lon="2.33071">
        <ele>75.1</ele>
        <time>2013-04-01T20:20:29.000Z</time>
      </trkpt>
      <trkpt lat="48.8543" lon="2.33077">
        <ele>75.2</ele>
        <time>2013-04-01T20:20:30.000Z</time>
      </trkpt>
      <trkpt lat="48.85429" lon="2.33082">
        <ele>75.8</ele>
        <time>2013-04-01T20:20:31.000Z</time>
      </trkpt>
      <trkpt lat="48.85429" lon="2.33088">
        <ele>75.6</ele>
        <time>2013-04-01T20:20:32.000Z</time>
      </trkpt>
      <trkpt lat="48.85427" lon="2.33093">
        <ele>75.1</ele>
        <time>2013-04-01T20:20:33.000Z</time>
      </trkpt>
      <trkpt lat="48.85425" lon="2.33098">
        <ele>74.2</ele>
        <time>2013-04-01T20:20:34.000Z</time>
      </trkpt>
      <trkpt lat="48.85423" lon="2.33103">
        <ele>74.2</ele>
        <time>2013-04-01T20:20:35.000Z</time>
      </trkpt>
      <trkpt lat="48.85417" lon="2.33119">
        <ele>74.6</ele>
        <time>2013-04-01T20:20:38.000Z</time>
      </trkpt>
      <trkpt lat="48.85415" lon="2.33125">
        <ele>73.5</ele>
        <time>2013-04-01T20:20:39.000Z</time>
      </trkpt>
      <trkpt lat="48.85413" lon="2.33131">
        <ele>73.5</ele>
        <time>2013-04-01T20:20:40.000Z</time>
      </trkpt>
      <trkpt lat="48.85411" lon="2.33137">
        <ele>73.8</ele>
        <time>2013-04-01T20:20:41.000Z</time>
      </trkpt>
      <trkpt lat="48.8541" lon="2.33144">
        <ele>73</ele>
        <time>2013-04-01T20:20:42.000Z</time>
      </trkpt>
      <trkpt lat="48.85409" lon="2.3315">
        <ele>73.7</ele>
        <time>2013-04-01T20:20:43.000Z</time>
      </trkpt>
      <trkpt lat="48.85409" lon="2.33156">
        <ele>73.6</ele>
        <time>2013-04-01T20:20:44.000Z</time>
      </trkpt>
      <trkpt lat="48.85407" lon="2.33162">
        <ele>74.6</ele>
        <time>2013-04-01T20:20:45.000Z</time>
      </trkpt>
      <trkpt lat="48.85406" lon="2.33167">
        <ele>74.7</ele>
        <time>2013-04-01T20:20:46.000Z</time>
      </trkpt>
      <trkpt lat="48.85405" lon="2.33173">
        <ele>73.7</ele>
        <time>2013-04-01T20:20:47.000Z</time>
      </trkpt>
      <trkpt lat="48.85403" lon="2.33178">
        <ele>73.3</ele>
        <time>2013-04-01T20:20:48.000Z</time>
      </trkpt>
      <trkpt lat="48.85401" lon="2.33183">
        <ele>73</ele>
        <time>2013-04-01T20:20:49.000Z</time>
      </trkpt>
      <trkpt lat="48.85398" lon="2.33192">
        <ele>72.9</ele>
        <time>2013-04-01T20:20:51.000Z</time>
      </trkpt>
      <trkpt lat="48.85412" lon="2.33212">
        <ele>77.4</ele>
        <time>2013-04-01T20:20:52.000Z</time>
      </trkpt>
      <trkpt lat="48.85395" lon="2.33208">
        <ele>76</ele>
        <time>2013-04-01T20:20:53.000Z</time>
      </trkpt>
      <trkpt lat="48.85393" lon="2.33214">
        <ele>76.2</ele>
        <time>2013-04-01T20:20:54.000Z</time>
      </trkpt>
      <trkpt lat="48.85392" lon="2.3322">
        <ele>76.3</ele>
        <time>2013-04-01T20:20:55.000Z</time>
      </trkpt>
      <trkpt lat="48.85392" lon="2.33226">
        <ele>77.3</ele>
        <time>2013-04-01T20:20:56.000Z</time>
      </trkpt>
      <trkpt lat="48.85391" lon="2.3323">
        <ele>77.7</ele>
        <time>2013-04-01T20:20:57.000Z</time>
      </trkpt>
      <trkpt lat="48.85391" lon="2.33236">
        <ele>79</ele>
        <time>2013-04-01T20:20:58.000Z</time>
      </trkpt>
      <trkpt lat="48.85389" lon="2.33245">
        <ele>76.6</ele>
        <time>2013-04-01T20:20:59.000Z</time>
      </trkpt>
      <trkpt lat="48.85389" lon="2.33251">
        <ele>77.4</ele>
        <time>2013-04-01T20:21:00.000Z</time>
      </trkpt>
      <trkpt lat="48.85385" lon="2.33259">
        <ele>77.8</ele>
        <time>2013-04-01T20:21:01.000Z</time>
      </trkpt>
      <trkpt lat="48.85383" lon="2.33267">
        <ele>77.3</ele>
        <time>2013-04-01T20:21:02.000Z</time>
      </trkpt>
      <trkpt lat="48.8538" lon="2.33272">
        <ele>77</ele>
        <time>2013-04-01T20:21:03.000Z</time>
      </trkpt>
      <trkpt lat="48.85378" lon="2.33278">
        <ele>77.4</ele>
        <time>2013-04-01T20:21:04.000Z</time>
      </trkpt>
      <trkpt lat="48.85377" lon="2.33283">
        <ele>77.4</ele>
        <time>2013-04-01T20:21:05.000Z</time>
      </trkpt>
      <trkpt lat="48.85376" lon="2.33289">
        <ele>77.5</ele>
        <time>2013-04-01T20:21:06.000Z</time>
      </trkpt>
      <trkpt lat="48.85374" lon="2.33294">
        <ele>76.1</ele>
        <time>2013-04-01T20:21:07.000Z</time>
      </trkpt>
      <trkpt lat="48.85372" lon="2.33298">
        <ele>75.8</ele>
        <time>2013-04-01T20:21:08.000Z</time>
      </trkpt>
      <trkpt lat="48.8537" lon="2.33302">
        <ele>77.2</ele>
        <time>2013-04-01T20:21:09.000Z</time>
      </trkpt>
      <trkpt lat="48.85368" lon="2.33306">
        <ele>77</ele>
        <time>2013-04-01T20:21:10.000Z</time>
      </trkpt>
      <trkpt lat="48.85366" lon="2.33311">
        <ele>76.7</ele>
        <time>2013-04-01T20:21:11.000Z</time>
      </trkpt>
      <trkpt lat="48.85366" lon="2.33316">
        <ele>75.8</ele>
        <time>2013-04-01T20:21:12.000Z</time>
      </trkpt>
      <trkpt lat="48.85366" lon="2.33321">
        <ele>76.6</ele>
        <time>2013-04-01T20:21:13.000Z</time>
      </trkpt>
      <trkpt lat="48.85367" lon="2.33324">
        <ele>76.2</ele>
        <time>2013-04-01T20:21:14.000Z</time>
      </trkpt>
      <trkpt lat="48.85368" lon="2.33328">
        <ele>77.2</ele>
        <time>2013-04-01T20:21:15.000Z</time>
      </trkpt>
      <trkpt lat="48.85368" lon="2.33334">
        <ele>77.8</ele>
        <time>2013-04-01T20:21:17.000Z</time>
      </trkpt>
      <trkpt lat="48.85369" lon="2.33338">
        <ele>76.3</ele>
        <time>2013-04-01T20:21:18.000Z</time>
      </trkpt>
      <trkpt lat="48.85369" lon="2.33342">
        <ele>76.7</ele>
        <time>2013-04-01T20:21:19.000Z</time>
      </trkpt>
      <trkpt lat="48.85369" lon="2.33346">
        <ele>76.9</ele>
        <time>2013-04-01T20:21:20.000Z</time>
      </trkpt>
      <trkpt lat="48.85369" lon="2.3335">
        <ele>75.8</ele>
        <time>2013-04-01T20:21:21.000Z</time>
      </trkpt>
      <trkpt lat="48.85368" lon="2.33354">
        <ele>76.4</ele>
        <time>2013-04-01T20:21:22.000Z</time>
      </trkpt>
      <trkpt lat="48.85367" lon="2.33358">
        <ele>75.9</ele>
        <time>2013-04-01T20:21:23.000Z</time>
      </trkpt>
      <trkpt lat="48.85366" lon="2.33363">
        <ele>75.9</ele>
        <time>2013-04-01T20:21:24.000Z</time>
      </trkpt>
      <trkpt lat="48.85365" lon="2.33369">
        <ele>76.6</ele>
        <time>2013-04-01T20:21:25.000Z</time>
      </trkpt>
      <trkpt lat="48.85364" lon="2.33374">
        <ele>76.4</ele>
        <time>2013-04-01T20:21:26.000Z</time>
      </trkpt>
      <trkpt lat="48.85363" lon="2.33379">
        <ele>76.6</ele>
        <time>2013-04-01T20:21:27.000Z</time>
      </trkpt>
      <trkpt lat="48.85362" lon="2.33385">
        <ele>77.2</ele>
        <time>2013-04-01T20:21:28.000Z</time>
      </trkpt>
      <trkpt lat="48.85361" lon="2.3339">
        <ele>77.1</ele>
        <time>2013-04-01T20:21:29.000Z</time>
      </trkpt>
      <trkpt lat="48.8536" lon="2.33396">
        <ele>76.6</ele>
        <time>2013-04-01T20:21:30.000Z</time>
      </trkpt>
      <trkpt lat="48.85359" lon="2.33402">
        <ele>76.7</ele>
        <time>2013-04-01T20:21:31.000Z</time>
      </trkpt>
      <trkpt lat="48.85358" lon="2.33407">
        <ele>76</ele>
        <time>2013-04-01T20:21:32.000Z</time>
      </trkpt>
      <trkpt lat="48.85356" lon="2.33412">
        <ele>76.3</ele>
        <time>2013-04-01T20:21:33.000Z</time>
      </trkpt>
      <trkpt lat="48.85356" lon="2.33418">
        <ele>77.4</ele>
        <time>2013-04-01T20:21:34.000Z</time>
      </trkpt>
      <trkpt lat="48.85355" lon="2.33423">
        <ele>77.7</ele>
        <time>2013-04-01T20:21:35.000Z</time>
      </trkpt>
      <trkpt lat="48.85352" lon="2.33439">
        <ele>76.5</ele>
        <time>2013-04-01T20:21:38.000Z</time>
      </trkpt>
      <trkpt lat="48.85351" lon="2.33444">
        <ele>75.3</ele>
        <time>2013-04-01T20:21:39.000Z</time>
      </trkpt>
      <trkpt lat="48.85349" lon="2.33449">
        <ele>74.8</ele>
        <time>2013-04-01T20:21:40.000Z</time>
      </trkpt>
      <trkpt lat="48.85348" lon="2.33454">
        <ele>75.5</ele>
        <time>2013-04-01T20:21:41.000Z</time>
      </trkpt>
      <trkpt lat="48.85346" lon="2.3346">
        <ele>75.3</ele>
        <time>2013-04-01T20:21:42.000Z</time>
      </trkpt>
      <trkpt lat="48.85344" lon="2.33465">
        <ele>75</ele>
        <time>2013-04-01T20:21:43.000Z</time>
      </trkpt>
      <trkpt lat="48.85343" lon="2.3347">
        <ele>75.9</ele>
        <time>2013-04-01T20:21:44.000Z</time>
      </trkpt>
      <trkpt lat="48.85341" lon="2.33476">
        <ele>76.6</ele>
        <time>2013-04-01T20:21:45.000Z</time>
      </trkpt>
      <trkpt lat="48.85339" lon="2.33481">
        <ele>76.9</ele>
        <time>2013-04-01T20:21:46.000Z</time>
      </trkpt>
      <trkpt lat="48.85337" lon="2.33487">
        <ele>78.7</ele>
        <time>2013-04-01T20:21:47.000Z</time>
      </trkpt>
      <trkpt lat="48.85335" lon="2.33492">
        <ele>78.6</ele>
        <time>2013-04-01T20:21:48.000Z</time>
      </trkpt>
      <trkpt lat="48.85334" lon="2.33497">
        <ele>78.9</ele>
        <time>2013-04-01T20:21:49.000Z</time>
      </trkpt>
      <trkpt lat="48.85332" lon="2.33502">
        <ele>77.8</ele>
        <time>2013-04-01T20:21:50.000Z</time>
      </trkpt>
      <trkpt lat="48.85331" lon="2.33509">
        <ele>76.8</ele>
        <time>2013-04-01T20:21:51.000Z</time>
      </trkpt>
      <trkpt lat="48.8533" lon="2.33515">
        <ele>76.8</ele>
        <time>2013-04-01T20:21:52.000Z</time>
      </trkpt>
      <trkpt lat="48.85329" lon="2.33521">
        <ele>77.4</ele>
        <time>2013-04-01T20:21:53.000Z</time>
      </trkpt>
      <trkpt lat="48.85329" lon="2.33527">
        <ele>77.9</ele>
        <time>2013-04-01T20:21:54.000Z</time>
      </trkpt>
      <trkpt lat="48.85328" lon="2.33533">
        <ele>78.8</ele>
        <time>2013-04-01T20:21:55.000Z</time>
      </trkpt>
      <trkpt lat="48.85327" lon="2.33538">
        <ele>79.3</ele>
        <time>2013-04-01T20:21:56.000Z</time>
      </trkpt>
      <trkpt lat="48.85327" lon="2.33542">
        <ele>80.3</ele>
        <time>2013-04-01T20:21:57.000Z</time>
      </trkpt>
      <trkpt lat="48.85326" lon="2.33547">
        <ele>80.5</ele>
        <time>2013-04-01T20:21:58.000Z</time>
      </trkpt>
      <trkpt lat="48.85326" lon="2.33551">
        <ele>81.3</ele>
        <time>2013-04-01T20:21:59.000Z</time>
      </trkpt>
      <trkpt lat="48.85325" lon="2.33554">
        <ele>81.5</ele>
        <time>2013-04-01T20:22:00.000Z</time>
      </trkpt>
      <trkpt lat="48.85325" lon="2.3356">
        <ele>82.3</ele>
        <time>2013-04-01T20:22:02.000Z</time>
      </trkpt>
      <trkpt lat="48.85325" lon="2.33562">
        <ele>82.6</ele>
        <time>2013-04-01T20:22:03.000Z</time>
      </trkpt>
      <trkpt lat="48.85325" lon="2.33567">
        <ele>82.2</ele>
        <time>2013-04-01T20:22:06.000Z</time>
      </trkpt>
      <trkpt lat="48.85324" lon="2.33569">
        <ele>81.4</ele>
        <time>2013-04-01T20:22:07.000Z</time>
      </trkpt>
      <trkpt lat="48.85325" lon="2.33575">
        <ele>81.6</ele>
        <time>2013-04-01T20:22:10.000Z</time>
      </trkpt>
      <trkpt lat="48.85326" lon="2.33577">
        <ele>80.9</ele>
        <time>2013-04-01T20:22:11.000Z</time>
      </trkpt>
      <trkpt lat="48.85327" lon="2.33581">
        <ele>82.1</ele>
        <time>2013-04-01T20:22:13.000Z</time>
      </trkpt>
      <trkpt lat="48.85328" lon="2.33584">
        <ele>84</ele>
        <time>2013-04-01T20:22:14.000Z</time>
      </trkpt>
      <trkpt lat="48.85332" lon="2.33588">
        <ele>86.1</ele>
        <time>2013-04-01T20:22:16.000Z</time>
      </trkpt>
      <trkpt lat="48.85333" lon="2.3359">
        <ele>86.9</ele>
        <time>2013-04-01T20:22:17.000Z</time>
      </trkpt>
      <trkpt lat="48.85335" lon="2.33593">
        <ele>86.3</ele>
        <time>2013-04-01T20:22:18.000Z</time>
      </trkpt>
      <trkpt lat="48.85337" lon="2.33595">
        <ele>87</ele>
        <time>2013-04-01T20:22:19.000Z</time>
      </trkpt>
      <trkpt lat="48.85338" lon="2.33599">
        <ele>86.7</ele>
        <time>2013-04-01T20:22:20.000Z</time>
      </trkpt>
      <trkpt lat="48.85341" lon="2.33603">
        <ele>89.4</ele>
        <time>2013-04-01T20:22:21.000Z</time>
      </trkpt>
      <trkpt lat="48.85343" lon="2.33607">
        <ele>86.9</ele>
        <time>2013-04-01T20:22:22.000Z</time>
      </trkpt>
      <trkpt lat="48.85346" lon="2.33611">
        <ele>87.9</ele>
        <time>2013-04-01T20:22:23.000Z</time>
      </trkpt>
      <trkpt lat="48.85348" lon="2.33615">
        <ele>85.3</ele>
        <time>2013-04-01T20:22:24.000Z</time>
      </trkpt>
      <trkpt lat="48.8535" lon="2.33621">
        <ele>84.2</ele>
        <time>2013-04-01T20:22:25.000Z</time>
      </trkpt>
      <trkpt lat="48.85352" lon="2.33626">
        <ele>83.1</ele>
        <time>2013-04-01T20:22:26.000Z</time>
      </trkpt>
      <trkpt lat="48.85354" lon="2.33631">
        <ele>82.6</ele>
        <time>2013-04-01T20:22:27.000Z</time>
      </trkpt>
      <trkpt lat="48.85356" lon="2.33635">
        <ele>82.3</ele>
        <time>2013-04-01T20:22:28.000Z</time>
      </trkpt>
      <trkpt lat="48.85358" lon="2.3364">
        <ele>81.7</ele>
        <time>2013-04-01T20:22:29.000Z</time>
      </trkpt>
      <trkpt lat="48.85361" lon="2.33644">
        <ele>81</ele>
        <time>2013-04-01T20:22:30.000Z</time>
      </trkpt>
      <trkpt lat="48.85363" lon="2.33648">
        <ele>80.1</ele>
        <time>2013-04-01T20:22:31.000Z</time>
      </trkpt>
      <trkpt lat="48.85366" lon="2.33652">
        <ele>80.1</ele>
        <time>2013-04-01T20:22:32.000Z</time>
      </trkpt>
      <trkpt lat="48.85368" lon="2.33656">
        <ele>80.4</ele>
        <time>2013-04-01T20:22:33.000Z</time>
      </trkpt>
      <trkpt lat="48.85371" lon="2.3366">
        <ele>80.2</ele>
        <time>2013-04-01T20:22:34.000Z</time>
      </trkpt>
      <trkpt lat="48.85374" lon="2.33664">
        <ele>80.7</ele>
        <time>2013-04-01T20:22:35.000Z</time>
      </trkpt>
      <trkpt lat="48.85382" lon="2.33674">
        <ele>78.3</ele>
        <time>2013-04-01T20:22:38.000Z</time>
      </trkpt>
      <trkpt lat="48.85384" lon="2.33677">
        <ele>76.9</ele>
        <time>2013-04-01T20:22:39.000Z</time>
      </trkpt>
      <trkpt lat="48.85386" lon="2.33682">
        <ele>76.4</ele>
        <time>2013-04-01T20:22:40.000Z</time>
      </trkpt>
      <trkpt lat="48.85388" lon="2.33686">
        <ele>72.7</ele>
        <time>2013-04-01T20:22:41.000Z</time>
      </trkpt>
      <trkpt lat="48.85389" lon="2.33691">
        <ele>72.1</ele>
        <time>2013-04-01T20:22:42.000Z</time>
      </trkpt>
      <trkpt lat="48.85389" lon="2.33696">
        <ele>73</ele>
        <time>2013-04-01T20:22:43.000Z</time>
      </trkpt>
      <trkpt lat="48.85389" lon="2.33702">
        <ele>72.7</ele>
        <time>2013-04-01T20:22:44.000Z</time>
      </trkpt>
      <trkpt lat="48.85388" lon="2.33708">
        <ele>72.3</ele>
        <time>2013-04-01T20:22:45.000Z</time>
      </trkpt>
      <trkpt lat="48.85388" lon="2.33714">
        <ele>72.2</ele>
        <time>2013-04-01T20:22:46.000Z</time>
      </trkpt>
      <trkpt lat="48.85387" lon="2.33719">
        <ele>72.3</ele>
        <time>2013-04-01T20:22:47.000Z</time>
      </trkpt>
      <trkpt lat="48.85386" lon="2.33725">
        <ele>70.4</ele>
        <time>2013-04-01T20:22:48.000Z</time>
      </trkpt>
      <trkpt lat="48.85384" lon="2.33731">
        <ele>70.2</ele>
        <time>2013-04-01T20:22:49.000Z</time>
      </trkpt>
      <trkpt lat="48.85383" lon="2.33736">
        <ele>70.4</ele>
        <time>2013-04-01T20:22:50.000Z</time>
      </trkpt>
      <trkpt lat="48.85382" lon="2.33741">
        <ele>70.5</ele>
        <time>2013-04-01T20:22:51.000Z</time>
      </trkpt>
      <trkpt lat="48.85381" lon="2.33747">
        <ele>70.3</ele>
        <time>2013-04-01T20:22:52.000Z</time>
      </trkpt>
      <trkpt lat="48.8538" lon="2.33752">
        <ele>70.3</ele>
        <time>2013-04-01T20:22:53.000Z</time>
      </trkpt>
      <trkpt lat="48.8538" lon="2.33757">
        <ele>76.7</ele>
        <time>2013-04-01T20:22:54.000Z</time>
      </trkpt>
      <trkpt lat="48.85379" lon="2.33763">
        <ele>75.2</ele>
        <time>2013-04-01T20:22:55.000Z</time>
      </trkpt>
      <trkpt lat="48.85378" lon="2.33769">
        <ele>74.6</ele>
        <time>2013-04-01T20:22:56.000Z</time>
      </trkpt>
      <trkpt lat="48.85377" lon="2.33774">
        <ele>74.3</ele>
        <time>2013-04-01T20:22:57.000Z</time>
      </trkpt>
      <trkpt lat="48.85376" lon="2.33781">
        <ele>73</ele>
        <time>2013-04-01T20:22:58.000Z</time>
      </trkpt>
      <trkpt lat="48.85376" lon="2.33787">
        <ele>73</ele>
        <time>2013-04-01T20:22:59.000Z</time>
      </trkpt>
      <trkpt lat="48.85375" lon="2.33794">
        <ele>72.2</ele>
        <time>2013-04-01T20:23:00.000Z</time>
      </trkpt>
      <trkpt lat="48.85375" lon="2.33801">
        <ele>72.4</ele>
        <time>2013-04-01T20:23:01.000Z</time>
      </trkpt>
      <trkpt lat="48.85374" lon="2.33808">
        <ele>71.4</ele>
        <time>2013-04-01T20:23:02.000Z</time>
      </trkpt>
      <trkpt lat="48.85373" lon="2.33815">
        <ele>70.7</ele>
        <time>2013-04-01T20:23:03.000Z</time>
      </trkpt>
      <trkpt lat="48.85372" lon="2.33821">
        <ele>71.1</ele>
        <time>2013-04-01T20:23:04.000Z</time>
      </trkpt>
      <trkpt lat="48.8537" lon="2.33827">
        <ele>71.7</ele>
        <time>2013-04-01T20:23:05.000Z</time>
      </trkpt>
      <trkpt lat="48.85368" lon="2.33833">
        <ele>73.7</ele>
        <time>2013-04-01T20:23:06.000Z</time>
      </trkpt>
      <trkpt lat="48.85366" lon="2.33839">
        <ele>74.1</ele>
        <time>2013-04-01T20:23:07.000Z</time>
      </trkpt>
      <trkpt lat="48.85364" lon="2.33845">
        <ele>74.8</ele>
        <time>2013-04-01T20:23:08.000Z</time>
      </trkpt>
      <trkpt lat="48.85363" lon="2.3385">
        <ele>74.6</ele>
        <time>2013-04-01T20:23:09.000Z</time>
      </trkpt>
      <trkpt lat="48.85362" lon="2.33857">
        <ele>74.7</ele>
        <time>2013-04-01T20:23:10.000Z</time>
      </trkpt>
      <trkpt lat="48.85362" lon="2.33862">
        <ele>74.9</ele>
        <time>2013-04-01T20:23:11.000Z</time>
      </trkpt>
      <trkpt lat="48.85362" lon="2.33868">
        <ele>74.6</ele>
        <time>2013-04-01T20:23:12.000Z</time>
      </trkpt>
      <trkpt lat="48.85361" lon="2.33873">
        <ele>74.5</ele>
        <time>2013-04-01T20:23:13.000Z</time>
      </trkpt>
      <trkpt lat="48.85361" lon="2.33877">
        <ele>74.2</ele>
        <time>2013-04-01T20:23:14.000Z</time>
      </trkpt>
      <trkpt lat="48.8536" lon="2.33882">
        <ele>73.4</ele>
        <time>2013-04-01T20:23:15.000Z</time>
      </trkpt>
      <trkpt lat="48.85359" lon="2.33888">
        <ele>71.9</ele>
        <time>2013-04-01T20:23:16.000Z</time>
      </trkpt>
      <trkpt lat="48.85358" lon="2.33895">
        <ele>70.7</ele>
        <time>2013-04-01T20:23:17.000Z</time>
      </trkpt>
      <trkpt lat="48.85354" lon="2.33916">
        <ele>68.9</ele>
        <time>2013-04-01T20:23:18.000Z</time>
      </trkpt>
      <trkpt lat="48.85352" lon="2.33926">
        <ele>67.5</ele>
        <time>2013-04-01T20:23:19.000Z</time>
      </trkpt>
      <trkpt lat="48.85352" lon="2.33934">
        <ele>67.4</ele>
        <time>2013-04-01T20:23:20.000Z</time>
      </trkpt>
      <trkpt lat="48.85351" lon="2.33944">
        <ele>66.6</ele>
        <time>2013-04-01T20:23:21.000Z</time>
      </trkpt>
      <trkpt lat="48.8535" lon="2.33952">
        <ele>66.7</ele>
        <time>2013-04-01T20:23:22.000Z</time>
      </trkpt>
      <trkpt lat="48.85351" lon="2.3396">
        <ele>66.6</ele>
        <time>2013-04-01T20:23:23.000Z</time>
      </trkpt>
      <trkpt lat="48.85349" lon="2.33966">
        <ele>66.4</ele>
        <time>2013-04-01T20:23:24.000Z</time>
      </trkpt>
      <trkpt lat="48.85349" lon="2.33972">
        <ele>66</ele>
        <time>2013-04-01T20:23:25.000Z</time>
      </trkpt>
      <trkpt lat="48.85349" lon="2.33979">
        <ele>66.2</ele>
        <time>2013-04-01T20:23:26.000Z</time>
      </trkpt>
      <trkpt lat="48.85351" lon="2.33986">
        <ele>66.9</ele>
        <time>2013-04-01T20:23:27.000Z</time>
      </trkpt>
      <trkpt lat="48.85352" lon="2.3399">
        <ele>66.8</ele>
        <time>2013-04-01T20:23:28.000Z</time>
      </trkpt>
      <trkpt lat="48.85353" lon="2.33995">
        <ele>67</ele>
        <time>2013-04-01T20:23:29.000Z</time>
      </trkpt>
      <trkpt lat="48.85353" lon="2.33999">
        <ele>67.2</ele>
        <time>2013-04-01T20:23:30.000Z</time>
      </trkpt>
      <trkpt lat="48.85353" lon="2.34005">
        <ele>67.1</ele>
        <time>2013-04-01T20:23:31.000Z</time>
      </trkpt>
      <trkpt lat="48.85352" lon="2.3401">
        <ele>66.6</ele>
        <time>2013-04-01T20:23:32.000Z</time>
      </trkpt>
      <trkpt lat="48.8535" lon="2.34017">
        <ele>65.6</ele>
        <time>2013-04-01T20:23:33.000Z</time>
      </trkpt>
      <trkpt lat="48.8535" lon="2.34023">
        <ele>65</ele>
        <time>2013-04-01T20:23:34.000Z</time>
      </trkpt>
      <trkpt lat="48.85349" lon="2.3403">
        <ele>63.6</ele>
        <time>2013-04-01T20:23:35.000Z</time>
      </trkpt>
      <trkpt lat="48.85344" lon="2.34048">
        <ele>61.5</ele>
        <time>2013-04-01T20:23:38.000Z</time>
      </trkpt>
      <trkpt lat="48.85342" lon="2.34056">
        <ele>61</ele>
        <time>2013-04-01T20:23:39.000Z</time>
      </trkpt>
      <trkpt lat="48.85341" lon="2.34065">
        <ele>61.4</ele>
        <time>2013-04-01T20:23:40.000Z</time>
      </trkpt>
      <trkpt lat="48.85341" lon="2.34073">
        <ele>61.9</ele>
        <time>2013-04-01T20:23:41.000Z</time>
      </trkpt>
      <trkpt lat="48.85341" lon="2.34081">
        <ele>61.1</ele>
        <time>2013-04-01T20:23:42.000Z</time>
      </trkpt>
      <trkpt lat="48.85342" lon="2.34095">
        <ele>61</ele>
        <time>2013-04-01T20:23:43.000Z</time>
      </trkpt>
      <trkpt lat="48.85343" lon="2.34103">
        <ele>61.1</ele>
        <time>2013-04-01T20:23:44.000Z</time>
      </trkpt>
      <trkpt lat="48.85341" lon="2.34116">
        <ele>62.7</ele>
        <time>2013-04-01T20:23:45.000Z</time>
      </trkpt>
      <trkpt lat="48.85339" lon="2.34126">
        <ele>65.3</ele>
        <time>2013-04-01T20:23:46.000Z</time>
      </trkpt>
      <trkpt lat="48.8534" lon="2.34134">
        <ele>64.4</ele>
        <time>2013-04-01T20:23:47.000Z</time>
      </trkpt>
      <trkpt lat="48.85341" lon="2.3414">
        <ele>65.4</ele>
        <time>2013-04-01T20:23:48.000Z</time>
      </trkpt>
      <trkpt lat="48.8535" lon="2.34135">
        <ele>66.2</ele>
        <time>2013-04-01T20:23:49.000Z</time>
      </trkpt>
      <trkpt lat="48.85354" lon="2.34137">
        <ele>66.6</ele>
        <time>2013-04-01T20:23:50.000Z</time>
      </trkpt>
      <trkpt lat="48.85357" lon="2.34142">
        <ele>68.9</ele>
        <time>2013-04-01T20:23:51.000Z</time>
      </trkpt>
      <trkpt lat="48.8536" lon="2.34148">
        <ele>70.3</ele>
        <time>2013-04-01T20:23:52.000Z</time>
      </trkpt>
      <trkpt lat="48.85365" lon="2.34149">
        <ele>70.1</ele>
        <time>2013-04-01T20:23:53.000Z</time>
      </trkpt>
      <trkpt lat="48.8537" lon="2.34151">
        <ele>71.6</ele>
        <time>2013-04-01T20:23:54.000Z</time>
      </trkpt>
      <trkpt lat="48.85373" lon="2.34156">
        <ele>73.7</ele>
        <time>2013-04-01T20:23:55.000Z</time>
      </trkpt>
      <trkpt lat="48.85376" lon="2.3416">
        <ele>75.8</ele>
        <time>2013-04-01T20:23:56.000Z</time>
      </trkpt>
      <trkpt lat="48.85378" lon="2.34166">
        <ele>78.2</ele>
        <time>2013-04-01T20:23:57.000Z</time>
      </trkpt>
      <trkpt lat="48.85382" lon="2.34169">
        <ele>78.4</ele>
        <time>2013-04-01T20:23:58.000Z</time>
      </trkpt>
      <trkpt lat="48.85385" lon="2.34171">
        <ele>79.6</ele>
        <time>2013-04-01T20:23:59.000Z</time>
      </trkpt>
      <trkpt lat="48.85389" lon="2.34173">
        <ele>79.6</ele>
        <time>2013-04-01T20:24:00.000Z</time>
      </trkpt>
      <trkpt lat="48.85392" lon="2.34175">
        <ele>80</ele>
        <time>2013-04-01T20:24:01.000Z</time>
      </trkpt>
      <trkpt lat="48.85396" lon="2.34177">
        <ele>80.2</ele>
        <time>2013-04-01T20:24:02.000Z</time>
      </trkpt>
      <trkpt lat="48.85399" lon="2.34179">
        <ele>80.6</ele>
        <time>2013-04-01T20:24:03.000Z</time>
      </trkpt>
      <trkpt lat="48.85403" lon="2.34183">
        <ele>81.1</ele>
        <time>2013-04-01T20:24:04.000Z</time>
      </trkpt>
      <trkpt lat="48.85406" lon="2.34185">
        <ele>81.4</ele>
        <time>2013-04-01T20:24:05.000Z</time>
      </trkpt>
      <trkpt lat="48.8541" lon="2.34188">
        <ele>81.6</ele>
        <time>2013-04-01T20:24:06.000Z</time>
      </trkpt>
      <trkpt lat="48.85413" lon="2.34191">
        <ele>81.8</ele>
        <time>2013-04-01T20:24:07.000Z</time>
      </trkpt>
      <trkpt lat="48.85416" lon="2.34193">
        <ele>82.4</ele>
        <time>2013-04-01T20:24:08.000Z</time>
      </trkpt>
      <trkpt lat="48.85419" lon="2.34196">
        <ele>82</ele>
        <time>2013-04-01T20:24:09.000Z</time>
      </trkpt>
      <trkpt lat="48.85422" lon="2.34199">
        <ele>83</ele>
        <time>2013-04-01T20:24:10.000Z</time>
      </trkpt>
      <trkpt lat="48.85425" lon="2.34201">
        <ele>83.1</ele>
        <time>2013-04-01T20:24:11.000Z</time>
      </trkpt>
      <trkpt lat="48.85428" lon="2.34203">
        <ele>83.1</ele>
        <time>2013-04-01T20:24:12.000Z</time>
      </trkpt>
      <trkpt lat="48.85431" lon="2.34205">
        <ele>84.9</ele>
        <time>2013-04-01T20:24:13.000Z</time>
      </trkpt>
      <trkpt lat="48.85433" lon="2.34208">
        <ele>85.3</ele>
        <time>2013-04-01T20:24:14.000Z</time>
      </trkpt>
      <trkpt lat="48.85435" lon="2.34211">
        <ele>85.1</ele>
        <time>2013-04-01T20:24:15.000Z</time>
      </trkpt>
      <trkpt lat="48.85437" lon="2.34215">
        <ele>84.5</ele>
        <time>2013-04-01T20:24:16.000Z</time>
      </trkpt>
      <trkpt lat="48.85439" lon="2.34218">
        <ele>84.8</ele>
        <time>2013-04-01T20:24:17.000Z</time>
      </trkpt>
      <trkpt lat="48.85441" lon="2.34222">
        <ele>84.7</ele>
        <time>2013-04-01T20:24:18.000Z</time>
      </trkpt>
      <trkpt lat="48.85443" lon="2.34225">
        <ele>84.6</ele>
        <time>2013-04-01T20:24:19.000Z</time>
      </trkpt>
      <trkpt lat="48.85445" lon="2.34228">
        <ele>84.7</ele>
        <time>2013-04-01T20:24:20.000Z</time>
      </trkpt>
      <trkpt lat="48.85448" lon="2.34233">
        <ele>84.4</ele>
        <time>2013-04-01T20:24:22.000Z</time>
      </trkpt>
      <trkpt lat="48.85449" lon="2.34236">
        <ele>81.7</ele>
        <time>2013-04-01T20:24:23.000Z</time>
      </trkpt>
      <trkpt lat="48.85451" lon="2.34241">
        <ele>80.1</ele>
        <time>2013-04-01T20:24:25.000Z</time>
      </trkpt>
      <trkpt lat="48.85451" lon="2.34244">
        <ele>79.8</ele>
        <time>2013-04-01T20:24:26.000Z</time>
      </trkpt>
      <trkpt lat="48.85449" lon="2.34249">
        <ele>78.4</ele>
        <time>2013-04-01T20:24:48.000Z</time>
      </trkpt>
      <trkpt lat="48.85448" lon="2.3425">
        <ele>78.8</ele>
        <time>2013-04-01T20:24:49.000Z</time>
      </trkpt>
      <trkpt lat="48.85445" lon="2.34255">
        <ele>77.4</ele>
        <time>2013-04-01T20:24:51.000Z</time>
      </trkpt>
      <trkpt lat="48.85442" lon="2.34259">
        <ele>75.6</ele>
        <time>2013-04-01T20:24:52.000Z</time>
      </trkpt>
      <trkpt lat="48.85439" lon="2.34262">
        <ele>74.9</ele>
        <time>2013-04-01T20:24:53.000Z</time>
      </trkpt>
      <trkpt lat="48.85436" lon="2.34266">
        <ele>73.5</ele>
        <time>2013-04-01T20:24:54.000Z</time>
      </trkpt>
      <trkpt lat="48.85433" lon="2.3427">
        <ele>72.6</ele>
        <time>2013-04-01T20:24:55.000Z</time>
      </trkpt>
      <trkpt lat="48.8543" lon="2.34275">
        <ele>72.1</ele>
        <time>2013-04-01T20:24:56.000Z</time>
      </trkpt>
      <trkpt lat="48.85427" lon="2.34279">
        <ele>71.2</ele>
        <time>2013-04-01T20:24:57.000Z</time>
      </trkpt>
      <trkpt lat="48.85425" lon="2.34284">
        <ele>70.7</ele>
        <time>2013-04-01T20:24:58.000Z</time>
      </trkpt>
      <trkpt lat="48.85423" lon="2.34289">
        <ele>71.1</ele>
        <time>2013-04-01T20:24:59.000Z</time>
      </trkpt>
      <trkpt lat="48.85422" lon="2.34294">
        <ele>71</ele>
        <time>2013-04-01T20:25:00.000Z</time>
      </trkpt>
      <trkpt lat="48.8542" lon="2.34298">
        <ele>70.9</ele>
        <time>2013-04-01T20:25:01.000Z</time>
      </trkpt>
      <trkpt lat="48.85419" lon="2.34302">
        <ele>71.5</ele>
        <time>2013-04-01T20:25:02.000Z</time>
      </trkpt>
      <trkpt lat="48.85417" lon="2.34304">
        <ele>70.8</ele>
        <time>2013-04-01T20:25:03.000Z</time>
      </trkpt>
      <trkpt lat="48.85416" lon="2.34307">
        <ele>70.7</ele>
        <time>2013-04-01T20:25:04.000Z</time>
      </trkpt>
      <trkpt lat="48.85413" lon="2.34313">
        <ele>69.9</ele>
        <time>2013-04-01T20:25:06.000Z</time>
      </trkpt>
      <trkpt lat="48.85412" lon="2.34315">
        <ele>69.6</ele>
        <time>2013-04-01T20:25:07.000Z</time>
      </trkpt>
      <trkpt lat="48.85411" lon="2.34318">
        <ele>70.3</ele>
        <time>2013-04-01T20:25:08.000Z</time>
      </trkpt>
      <trkpt lat="48.85409" lon="2.34321">
        <ele>69.3</ele>
        <time>2013-04-01T20:25:09.000Z</time>
      </trkpt>
      <trkpt lat="48.85408" lon="2.34324">
        <ele>68.4</ele>
        <time>2013-04-01T20:25:10.000Z</time>
      </trkpt>
      <trkpt lat="48.85406" lon="2.34327">
        <ele>67</ele>
        <time>2013-04-01T20:25:11.000Z</time>
      </trkpt>
      <trkpt lat="48.85403" lon="2.34332">
        <ele>64.9</ele>
        <time>2013-04-01T20:25:12.000Z</time>
      </trkpt>
      <trkpt lat="48.854" lon="2.34336">
        <ele>64.1</ele>
        <time>2013-04-01T20:25:13.000Z</time>
      </trkpt>
      <trkpt lat="48.85396" lon="2.34339">
        <ele>62.5</ele>
        <time>2013-04-01T20:25:14.000Z</time>
      </trkpt>
      <trkpt lat="48.85394" lon="2.34342">
        <ele>62.6</ele>
        <time>2013-04-01T20:25:15.000Z</time>
      </trkpt>
      <trkpt lat="48.85392" lon="2.34346">
        <ele>62.4</ele>
        <time>2013-04-01T20:25:16.000Z</time>
      </trkpt>
      <trkpt lat="48.8539" lon="2.34348">
        <ele>61.4</ele>
        <time>2013-04-01T20:25:17.000Z</time>
      </trkpt>
      <trkpt lat="48.85388" lon="2.34353">
        <ele>62.9</ele>
        <time>2013-04-01T20:25:19.000Z</time>
      </trkpt>
      <trkpt lat="48.85387" lon="2.34356">
        <ele>63.4</ele>
        <time>2013-04-01T20:25:20.000Z</time>
      </trkpt>
      <trkpt lat="48.85384" lon="2.3436">
        <ele>64.9</ele>
        <time>2013-04-01T20:25:22.000Z</time>
      </trkpt>
      <trkpt lat="48.85383" lon="2.34363">
        <ele>65.1</ele>
        <time>2013-04-01T20:25:23.000Z</time>
      </trkpt>
      <trkpt lat="48.8538" lon="2.34368">
        <ele>65.5</ele>
        <time>2013-04-01T20:25:25.000Z</time>
      </trkpt>
      <trkpt lat="48.8538" lon="2.34371">
        <ele>68.6</ele>
        <time>2013-04-01T20:25:26.000Z</time>
      </trkpt>
      <trkpt lat="48.85383" lon="2.34376">
        <ele>68.8</ele>
        <time>2013-04-01T20:25:28.000Z</time>
      </trkpt>
      <trkpt lat="48.85384" lon="2.34378">
        <ele>69.5</ele>
        <time>2013-04-01T20:25:29.000Z</time>
      </trkpt>
      <trkpt lat="48.85386" lon="2.34384">
        <ele>69</ele>
        <time>2013-04-01T20:25:31.000Z</time>
      </trkpt>
      <trkpt lat="48.85386" lon="2.34387">
        <ele>69.3</ele>
        <time>2013-04-01T20:25:32.000Z</time>
      </trkpt>
      <trkpt lat="48.85388" lon="2.34392">
        <ele>69.8</ele>
        <time>2013-04-01T20:25:34.000Z</time>
      </trkpt>
      <trkpt lat="48.85389" lon="2.34395">
        <ele>69.6</ele>
        <time>2013-04-01T20:25:35.000Z</time>
      </trkpt>
      <trkpt lat="48.8539" lon="2.344">
        <ele>69.1</ele>
        <time>2013-04-01T20:25:38.000Z</time>
      </trkpt>
      <trkpt lat="48.85389" lon="2.34402">
        <ele>68.6</ele>
        <time>2013-04-01T20:25:39.000Z</time>
      </trkpt>
      <trkpt lat="48.85387" lon="2.34407">
        <ele>70.1</ele>
        <time>2013-04-01T20:25:41.000Z</time>
      </trkpt>
      <trkpt lat="48.85386" lon="2.34411">
        <ele>70.6</ele>
        <time>2013-04-01T20:25:42.000Z</time>
      </trkpt>
      <trkpt lat="48.85384" lon="2.34417">
        <ele>70.6</ele>
        <time>2013-04-01T20:25:44.000Z</time>
      </trkpt>
      <trkpt lat="48.85384" lon="2.3442">
        <ele>70.9</ele>
        <time>2013-04-01T20:25:45.000Z</time>
      </trkpt>
      <trkpt lat="48.85387" lon="2.34423">
        <ele>74</ele>
        <time>2013-04-01T20:25:53.000Z</time>
      </trkpt>
      <trkpt lat="48.85388" lon="2.34424">
        <ele>74.1</ele>
        <time>2013-04-01T20:25:54.000Z</time>
      </trkpt>
      <trkpt lat="48.8539" lon="2.34428">
        <ele>73.7</ele>
        <time>2013-04-01T20:25:56.000Z</time>
      </trkpt>
      <trkpt lat="48.85391" lon="2.3443">
        <ele>73.7</ele>
        <time>2013-04-01T20:25:57.000Z</time>
      </trkpt>
      <trkpt lat="48.85395" lon="2.34433">
        <ele>74.8</ele>
        <time>2013-04-01T20:25:59.000Z</time>
      </trkpt>
      <trkpt lat="48.85396" lon="2.34434">
        <ele>74.8</ele>
        <time>2013-04-01T20:26:00.000Z</time>
      </trkpt>
      <trkpt lat="48.85399" lon="2.34437">
        <ele>75.1</ele>
        <time>2013-04-01T20:26:02.000Z</time>
      </trkpt>
      <trkpt lat="48.85401" lon="2.34439">
        <ele>75.3</ele>
        <time>2013-04-01T20:26:03.000Z</time>
      </trkpt>
      <trkpt lat="48.85404" lon="2.34442">
        <ele>75.6</ele>
        <time>2013-04-01T20:26:05.000Z</time>
      </trkpt>
      <trkpt lat="48.85406" lon="2.34443">
        <ele>75.8</ele>
        <time>2013-04-01T20:26:06.000Z</time>
      </trkpt>
      <trkpt lat="48.85409" lon="2.34446">
        <ele>75.1</ele>
        <time>2013-04-01T20:26:08.000Z</time>
      </trkpt>
      <trkpt lat="48.85411" lon="2.34448">
        <ele>74.7</ele>
        <time>2013-04-01T20:26:09.000Z</time>
      </trkpt>
      <trkpt lat="48.85413" lon="2.3445">
        <ele>75.2</ele>
        <time>2013-04-01T20:26:10.000Z</time>
      </trkpt>
      <trkpt lat="48.85416" lon="2.34452">
        <ele>74.7</ele>
        <time>2013-04-01T20:26:11.000Z</time>
      </trkpt>
      <trkpt lat="48.85419" lon="2.34455">
        <ele>73.3</ele>
        <time>2013-04-01T20:26:12.000Z</time>
      </trkpt>
      <trkpt lat="48.85421" lon="2.34457">
        <ele>72.6</ele>
        <time>2013-04-01T20:26:13.000Z</time>
      </trkpt>
      <trkpt lat="48.85424" lon="2.3446">
        <ele>71.9</ele>
        <time>2013-04-01T20:26:14.000Z</time>
      </trkpt>
      <trkpt lat="48.85426" lon="2.34463">
        <ele>72</ele>
        <time>2013-04-01T20:26:15.000Z</time>
      </trkpt>
      <trkpt lat="48.85428" lon="2.34467">
        <ele>72.7</ele>
        <time>2013-04-01T20:26:16.000Z</time>
      </trkpt>
      <trkpt lat="48.85429" lon="2.34471">
        <ele>72.3</ele>
        <time>2013-04-01T20:26:17.000Z</time>
      </trkpt>
      <trkpt lat="48.85431" lon="2.34477">
        <ele>72.9</ele>
        <time>2013-04-01T20:26:18.000Z</time>
      </trkpt>
      <trkpt lat="48.85433" lon="2.34483">
        <ele>73.1</ele>
        <time>2013-04-01T20:26:19.000Z</time>
      </trkpt>
      <trkpt lat="48.85436" lon="2.34488">
        <ele>73.3</ele>
        <time>2013-04-01T20:26:20.000Z</time>
      </trkpt>
      <trkpt lat="48.85439" lon="2.34493">
        <ele>73.4</ele>
        <time>2013-04-01T20:26:21.000Z</time>
      </trkpt>
      <trkpt lat="48.85444" lon="2.34496">
        <ele>74.4</ele>
        <time>2013-04-01T20:26:22.000Z</time>
      </trkpt>
      <trkpt lat="48.85449" lon="2.34499">
        <ele>75.4</ele>
        <time>2013-04-01T20:26:23.000Z</time>
      </trkpt>
      <trkpt lat="48.85455" lon="2.34503">
        <ele>76.1</ele>
        <time>2013-04-01T20:26:24.000Z</time>
      </trkpt>
      <trkpt lat="48.85459" lon="2.34507">
        <ele>77.3</ele>
        <time>2013-04-01T20:26:25.000Z</time>
      </trkpt>
      <trkpt lat="48.85463" lon="2.34512">
        <ele>77.8</ele>
        <time>2013-04-01T20:26:26.000Z</time>
      </trkpt>
      <trkpt lat="48.85467" lon="2.34516">
        <ele>78.3</ele>
        <time>2013-04-01T20:26:27.000Z</time>
      </trkpt>
      <trkpt lat="48.85471" lon="2.34521">
        <ele>79.3</ele>
        <time>2013-04-01T20:26:28.000Z</time>
      </trkpt>
      <trkpt lat="48.85475" lon="2.34526">
        <ele>77.3</ele>
        <time>2013-04-01T20:26:29.000Z</time>
      </trkpt>
      <trkpt lat="48.85477" lon="2.3453">
        <ele>77.5</ele>
        <time>2013-04-01T20:26:30.000Z</time>
      </trkpt>
      <trkpt lat="48.85478" lon="2.34534">
        <ele>78.5</ele>
        <time>2013-04-01T20:26:31.000Z</time>
      </trkpt>
      <trkpt lat="48.85479" lon="2.34538">
        <ele>79.3</ele>
        <time>2013-04-01T20:26:32.000Z</time>
      </trkpt>
      <trkpt lat="48.8548" lon="2.34541">
        <ele>80.5</ele>
        <time>2013-04-01T20:26:33.000Z</time>
      </trkpt>
      <trkpt lat="48.85482" lon="2.34545">
        <ele>80.5</ele>
        <time>2013-04-01T20:26:34.000Z</time>
      </trkpt>
      <trkpt lat="48.85485" lon="2.34548">
        <ele>81.4</ele>
        <time>2013-04-01T20:26:35.000Z</time>
      </trkpt>
      <trkpt lat="48.85491" lon="2.34555">
        <ele>79.8</ele>
        <time>2013-04-01T20:26:37.066Z</time>
      </trkpt>
      <trkpt lat="48.85495" lon="2.3456">
        <ele>77.6</ele>
        <time>2013-04-01T20:26:38.000Z</time>
      </trkpt>
      <trkpt lat="48.85501" lon="2.34564">
        <ele>76</ele>
        <time>2013-04-01T20:26:39.000Z</time>
      </trkpt>
      <trkpt lat="48.85506" lon="2.34569">
        <ele>76.8</ele>
        <time>2013-04-01T20:26:40.000Z</time>
      </trkpt>
      <trkpt lat="48.85511" lon="2.34574">
        <ele>76.2</ele>
        <time>2013-04-01T20:26:41.000Z</time>
      </trkpt>
      <trkpt lat="48.85516" lon="2.34578">
        <ele>77</ele>
        <time>2013-04-01T20:26:42.000Z</time>
      </trkpt>
      <trkpt lat="48.8552" lon="2.34582">
        <ele>75.6</ele>
        <time>2013-04-01T20:26:43.000Z</time>
      </trkpt>
      <trkpt lat="48.85525" lon="2.34587">
        <ele>74.6</ele>
        <time>2013-04-01T20:26:44.000Z</time>
      </trkpt>
      <trkpt lat="48.85534" lon="2.34597">
        <ele>74.6</ele>
        <time>2013-04-01T20:26:45.000Z</time>
      </trkpt>
      <trkpt lat="48.85541" lon="2.34601">
        <ele>75.4</ele>
        <time>2013-04-01T20:26:46.000Z</time>
      </trkpt>
      <trkpt lat="48.85549" lon="2.34604">
        <ele>76.3</ele>
        <time>2013-04-01T20:26:47.000Z</time>
      </trkpt>
      <trkpt lat="48.85553" lon="2.34607">
        <ele>76.3</ele>
        <time>2013-04-01T20:26:48.000Z</time>
      </trkpt>
      <trkpt lat="48.85557" lon="2.34608">
        <ele>76</ele>
        <time>2013-04-01T20:26:49.000Z</time>
      </trkpt>
      <trkpt lat="48.85561" lon="2.3461">
        <ele>76</ele>
        <time>2013-04-01T20:26:50.000Z</time>
      </trkpt>
      <trkpt lat="48.85564" lon="2.3461">
        <ele>76.7</ele>
        <time>2013-04-01T20:26:51.000Z</time>
      </trkpt>
      <trkpt lat="48.8557" lon="2.34615">
        <ele>75</ele>
        <time>2013-04-01T20:26:52.000Z</time>
      </trkpt>
      <trkpt lat="48.85577" lon="2.34619">
        <ele>74.9</ele>
        <time>2013-04-01T20:26:53.000Z</time>
      </trkpt>
      <trkpt lat="48.85582" lon="2.34622">
        <ele>76</ele>
        <time>2013-04-01T20:26:54.000Z</time>
      </trkpt>
      <trkpt lat="48.85588" lon="2.34625">
        <ele>75.5</ele>
        <time>2013-04-01T20:26:55.000Z</time>
      </trkpt>
      <trkpt lat="48.85596" lon="2.34631">
        <ele>72.9</ele>
        <time>2013-04-01T20:26:56.000Z</time>
      </trkpt>
      <trkpt lat="48.85598" lon="2.34636">
        <ele>71.4</ele>
        <time>2013-04-01T20:26:57.000Z</time>
      </trkpt>
      <trkpt lat="48.85603" lon="2.3464">
        <ele>70.3</ele>
        <time>2013-04-01T20:26:58.000Z</time>
      </trkpt>
      <trkpt lat="48.85605" lon="2.34644">
        <ele>69.3</ele>
        <time>2013-04-01T20:26:59.000Z</time>
      </trkpt>
      <trkpt lat="48.85609" lon="2.34648">
        <ele>68.4</ele>
        <time>2013-04-01T20:27:00.000Z</time>
      </trkpt>
      <trkpt lat="48.85612" lon="2.34653">
        <ele>68.4</ele>
        <time>2013-04-01T20:27:01.000Z</time>
      </trkpt>
      <trkpt lat="48.85615" lon="2.34657">
        <ele>67.7</ele>
        <time>2013-04-01T20:27:02.000Z</time>
      </trkpt>
      <trkpt lat="48.85618" lon="2.3466">
        <ele>67.6</ele>
        <time>2013-04-01T20:27:03.000Z</time>
      </trkpt>
      <trkpt lat="48.85622" lon="2.34663">
        <ele>69.1</ele>
        <time>2013-04-01T20:27:04.000Z</time>
      </trkpt>
      <trkpt lat="48.85625" lon="2.34665">
        <ele>70.4</ele>
        <time>2013-04-01T20:27:05.000Z</time>
      </trkpt>
      <trkpt lat="48.85629" lon="2.34668">
        <ele>69.6</ele>
        <time>2013-04-01T20:27:06.000Z</time>
      </trkpt>
      <trkpt lat="48.85632" lon="2.3467">
        <ele>70.4</ele>
        <time>2013-04-01T20:27:07.000Z</time>
      </trkpt>
      <trkpt lat="48.85636" lon="2.34672">
        <ele>70.3</ele>
        <time>2013-04-01T20:27:08.000Z</time>
      </trkpt>
      <trkpt lat="48.85639" lon="2.34675">
        <ele>71.1</ele>
        <time>2013-04-01T20:27:09.000Z</time>
      </trkpt>
      <trkpt lat="48.85643" lon="2.34677">
        <ele>73.1</ele>
        <time>2013-04-01T20:27:10.000Z</time>
      </trkpt>
      <trkpt lat="48.85646" lon="2.34679">
        <ele>73.8</ele>
        <time>2013-04-01T20:27:11.000Z</time>
      </trkpt>
      <trkpt lat="48.85649" lon="2.34681">
        <ele>74.1</ele>
        <time>2013-04-01T20:27:12.000Z</time>
      </trkpt>
      <trkpt lat="48.85653" lon="2.34683">
        <ele>74.9</ele>
        <time>2013-04-01T20:27:13.000Z</time>
      </trkpt>
      <trkpt lat="48.85656" lon="2.34685">
        <ele>76.6</ele>
        <time>2013-04-01T20:27:14.000Z</time>
      </trkpt>
      <trkpt lat="48.8566" lon="2.34688">
        <ele>77.1</ele>
        <time>2013-04-01T20:27:15.000Z</time>
      </trkpt>
      <trkpt lat="48.85663" lon="2.3469">
        <ele>77.2</ele>
        <time>2013-04-01T20:27:16.000Z</time>
      </trkpt>
      <trkpt lat="48.85666" lon="2.34692">
        <ele>77.2</ele>
        <time>2013-04-01T20:27:17.000Z</time>
      </trkpt>
      <trkpt lat="48.85669" lon="2.34695">
        <ele>76</ele>
        <time>2013-04-01T20:27:18.000Z</time>
      </trkpt>
      <trkpt lat="48.85673" lon="2.34697">
        <ele>75.8</ele>
        <time>2013-04-01T20:27:19.000Z</time>
      </trkpt>
      <trkpt lat="48.85676" lon="2.34699">
        <ele>77</ele>
        <time>2013-04-01T20:27:20.000Z</time>
      </trkpt>
      <trkpt lat="48.8568" lon="2.34701">
        <ele>78</ele>
        <time>2013-04-01T20:27:21.000Z</time>
      </trkpt>
      <trkpt lat="48.85683" lon="2.34703">
        <ele>78.1</ele>
        <time>2013-04-01T20:27:22.000Z</time>
      </trkpt>
      <trkpt lat="48.85687" lon="2.34705">
        <ele>78</ele>
        <time>2013-04-01T20:27:23.000Z</time>
      </trkpt>
      <trkpt lat="48.8569" lon="2.34706">
        <ele>78.5</ele>
        <time>2013-04-01T20:27:24.000Z</time>
      </trkpt>
      <trkpt lat="48.85693" lon="2.34708">
        <ele>78.4</ele>
        <time>2013-04-01T20:27:25.000Z</time>
      </trkpt>
      <trkpt lat="48.85695" lon="2.3471">
        <ele>78.3</ele>
        <time>2013-04-01T20:27:26.000Z</time>
      </trkpt>
      <trkpt lat="48.85698" lon="2.34712">
        <ele>78.2</ele>
        <time>2013-04-01T20:27:27.000Z</time>
      </trkpt>
      <trkpt lat="48.85701" lon="2.34714">
        <ele>78.1</ele>
        <time>2013-04-01T20:27:28.000Z</time>
      </trkpt>
      <trkpt lat="48.85703" lon="2.34717">
        <ele>78.4</ele>
        <time>2013-04-01T20:27:29.000Z</time>
      </trkpt>
      <trkpt lat="48.85705" lon="2.3472">
        <ele>78.1</ele>
        <time>2013-04-01T20:27:30.000Z</time>
      </trkpt>
      <trkpt lat="48.85707" lon="2.34724">
        <ele>81.6</ele>
        <time>2013-04-01T20:27:53.000Z</time>
      </trkpt>
      <trkpt lat="48.8571" lon="2.34724">
        <ele>80.6</ele>
        <time>2013-04-01T20:27:54.000Z</time>
      </trkpt>
      <trkpt lat="48.85712" lon="2.34724">
        <ele>80.7</ele>
        <time>2013-04-01T20:27:55.000Z</time>
      </trkpt>
      <trkpt lat="48.85715" lon="2.34724">
        <ele>80.6</ele>
        <time>2013-04-01T20:27:56.000Z</time>
      </trkpt>
      <trkpt lat="48.85717" lon="2.34725">
        <ele>80.8</ele>
        <time>2013-04-01T20:27:57.000Z</time>
      </trkpt>
      <trkpt lat="48.85719" lon="2.34726">
        <ele>80.4</ele>
        <time>2013-04-01T20:27:58.000Z</time>
      </trkpt>
      <trkpt lat="48.85723" lon="2.34727">
        <ele>80.1</ele>
        <time>2013-04-01T20:28:00.000Z</time>
      </trkpt>
      <trkpt lat="48.85725" lon="2.34728">
        <ele>80.4</ele>
        <time>2013-04-01T20:28:01.000Z</time>
      </trkpt>
      <trkpt lat="48.85729" lon="2.34729">
        <ele>79.7</ele>
        <time>2013-04-01T20:28:03.000Z</time>
      </trkpt>
      <trkpt lat="48.8573" lon="2.34729">
        <ele>79.7</ele>
        <time>2013-04-01T20:28:04.000Z</time>
      </trkpt>
      <trkpt lat="48.85734" lon="2.34727">
        <ele>78.8</ele>
        <time>2013-04-01T20:28:07.000Z</time>
      </trkpt>
      <trkpt lat="48.85735" lon="2.34726">
        <ele>78.8</ele>
        <time>2013-04-01T20:28:08.000Z</time>
      </trkpt>
      <trkpt lat="48.85739" lon="2.34724">
        <ele>77.9</ele>
        <time>2013-04-01T20:28:21.000Z</time>
      </trkpt>
    </trkseg>
  </trk>
</gpx>